<?xml version="1.0" encoding="UTF-8" standalone="no" ?>
<gpx xmlns="http://www.topografix.com/GPX/1/1" xmlns:xsi="http://www.w3.org/2001/XMLSchema-instance" xsi:schemaLocation="http://www.topografix.com/GPX/1/1 http://www.topografix.com/GPX/1/1/gpx.xsd" version="1.1" creator="VisuGPX - https://www.visugpx.com">
  <metadata>
    <name>HRP2023-J09</name>
  </metadata>
  <trk>
    <name><![CDATA[HRP2023-J09]]></name>
    <extensions>
      <line xmlns="http://www.topografix.com/GPX/gpx_style/0/2">
        <color>0000FF</color>
        <width>4</width>
      </line>
    </extensions>
    <trkseg>
      <trkpt lat="42.61876" lon="1.53926">
        <ele>1568.4000244141</ele>
        <time>2023-07-21T12:23:45.000Z</time>
      </trkpt>
      <trkpt lat="42.61871" lon="1.53922">
        <ele>1568</ele>
        <time>2023-07-21T12:23:39.000Z</time>
      </trkpt>
      <trkpt lat="42.61873" lon="1.53921">
        <ele>1568.1999511719</ele>
        <time>2023-07-21T12:23:30.000Z</time>
      </trkpt>
      <trkpt lat="42.61873" lon="1.53919">
        <ele>1568.1999511719</ele>
        <time>2023-07-21T12:23:22.000Z</time>
      </trkpt>
      <trkpt lat="42.61871" lon="1.53911">
        <ele>1568.1999511719</ele>
        <time>2023-07-21T12:23:16.000Z</time>
      </trkpt>
      <trkpt lat="42.61871" lon="1.53907">
        <ele>1568.1999511719</ele>
        <time>2023-07-21T12:23:09.000Z</time>
      </trkpt>
      <trkpt lat="42.61872" lon="1.53908">
        <ele>1568.4000244141</ele>
        <time>2023-07-21T12:22:59.000Z</time>
      </trkpt>
      <trkpt lat="42.61878" lon="1.53912">
        <ele>1568.4000244141</ele>
        <time>2023-07-21T12:22:53.000Z</time>
      </trkpt>
      <trkpt lat="42.61884" lon="1.53911">
        <ele>1568.4000244141</ele>
        <time>2023-07-21T12:22:45.000Z</time>
      </trkpt>
      <trkpt lat="42.61889" lon="1.53911">
        <ele>1568.4000244141</ele>
        <time>2023-07-21T12:22:35.000Z</time>
      </trkpt>
      <trkpt lat="42.61888" lon="1.5391">
        <ele>1568.5999755859</ele>
        <time>2023-07-21T12:21:55.000Z</time>
      </trkpt>
      <trkpt lat="42.61892" lon="1.53908">
        <ele>1568.5999755859</ele>
        <time>2023-07-21T12:21:48.000Z</time>
      </trkpt>
      <trkpt lat="42.61891" lon="1.53906">
        <ele>1568.4000244141</ele>
        <time>2023-07-21T12:21:40.000Z</time>
      </trkpt>
      <trkpt lat="42.61889" lon="1.53908">
        <ele>1568.1999511719</ele>
        <time>2023-07-21T12:21:30.000Z</time>
      </trkpt>
      <trkpt lat="42.61886" lon="1.53909">
        <ele>1568</ele>
        <time>2023-07-21T12:21:20.000Z</time>
      </trkpt>
      <trkpt lat="42.61882" lon="1.53914">
        <ele>1567.8000488281</ele>
        <time>2023-07-21T12:21:11.000Z</time>
      </trkpt>
      <trkpt lat="42.61881" lon="1.53917">
        <ele>1567.8000488281</ele>
        <time>2023-07-21T12:21:05.000Z</time>
      </trkpt>
      <trkpt lat="42.6188" lon="1.53921">
        <ele>1567.5999755859</ele>
        <time>2023-07-21T12:21:00.000Z</time>
      </trkpt>
      <trkpt lat="42.61878" lon="1.53927">
        <ele>1567.8000488281</ele>
        <time>2023-07-21T12:20:52.000Z</time>
      </trkpt>
      <trkpt lat="42.61872" lon="1.5393">
        <ele>1568</ele>
        <time>2023-07-21T12:20:41.000Z</time>
      </trkpt>
      <trkpt lat="42.61872" lon="1.53933">
        <ele>1568.1999511719</ele>
        <time>2023-07-21T12:20:37.000Z</time>
      </trkpt>
      <trkpt lat="42.61872" lon="1.53933">
        <ele>1568.1999511719</ele>
        <time>2023-07-21T12:20:34.000Z</time>
      </trkpt>
      <trkpt lat="42.61879" lon="1.53932">
        <ele>1568.8000488281</ele>
        <time>2023-07-21T12:20:24.000Z</time>
      </trkpt>
      <trkpt lat="42.61882" lon="1.53935">
        <ele>1569.1999511719</ele>
        <time>2023-07-21T12:20:19.000Z</time>
      </trkpt>
      <trkpt lat="42.61884" lon="1.53938">
        <ele>1569.5999755859</ele>
        <time>2023-07-21T12:20:16.000Z</time>
      </trkpt>
      <trkpt lat="42.61885" lon="1.53943">
        <ele>1570.1999511719</ele>
        <time>2023-07-21T12:20:13.000Z</time>
      </trkpt>
      <trkpt lat="42.61884" lon="1.53946">
        <ele>1571</ele>
        <time>2023-07-21T12:20:08.000Z</time>
      </trkpt>
      <trkpt lat="42.61889" lon="1.53961">
        <ele>1571.1999511719</ele>
        <time>2023-07-21T12:19:49.000Z</time>
      </trkpt>
      <trkpt lat="42.61889" lon="1.53954">
        <ele>1571.1999511719</ele>
        <time>2023-07-21T12:19:43.000Z</time>
      </trkpt>
      <trkpt lat="42.61889" lon="1.53952">
        <ele>1571.4000244141</ele>
        <time>2023-07-21T12:19:42.000Z</time>
      </trkpt>
      <trkpt lat="42.61895" lon="1.53952">
        <ele>1572.1999511719</ele>
        <time>2023-07-21T12:19:38.000Z</time>
      </trkpt>
      <trkpt lat="42.619" lon="1.53957">
        <ele>1572.8000488281</ele>
        <time>2023-07-21T12:19:35.000Z</time>
      </trkpt>
      <trkpt lat="42.61903" lon="1.53961">
        <ele>1573.5999755859</ele>
        <time>2023-07-21T12:19:30.000Z</time>
      </trkpt>
      <trkpt lat="42.61905" lon="1.53967">
        <ele>1573.8000488281</ele>
        <time>2023-07-21T12:19:26.000Z</time>
      </trkpt>
      <trkpt lat="42.61907" lon="1.53972">
        <ele>1574</ele>
        <time>2023-07-21T12:19:24.000Z</time>
      </trkpt>
      <trkpt lat="42.6191" lon="1.53981">
        <ele>1574.8000488281</ele>
        <time>2023-07-21T12:19:19.000Z</time>
      </trkpt>
      <trkpt lat="42.61912" lon="1.53985">
        <ele>1575</ele>
        <time>2023-07-21T12:19:16.000Z</time>
      </trkpt>
      <trkpt lat="42.61919" lon="1.53987">
        <ele>1575.4000244141</ele>
        <time>2023-07-21T12:19:09.000Z</time>
      </trkpt>
      <trkpt lat="42.61922" lon="1.53991">
        <ele>1575.5999755859</ele>
        <time>2023-07-21T12:19:02.000Z</time>
      </trkpt>
      <trkpt lat="42.61921" lon="1.53998">
        <ele>1575.8000488281</ele>
        <time>2023-07-21T12:18:55.000Z</time>
      </trkpt>
      <trkpt lat="42.61921" lon="1.53994">
        <ele>1576.1999511719</ele>
        <time>2023-07-21T12:18:48.000Z</time>
      </trkpt>
      <trkpt lat="42.6192" lon="1.53992">
        <ele>1576</ele>
        <time>2023-07-21T12:18:41.000Z</time>
      </trkpt>
      <trkpt lat="42.6192" lon="1.53993">
        <ele>1576.8000488281</ele>
        <time>2023-07-21T12:18:33.000Z</time>
      </trkpt>
      <trkpt lat="42.61921" lon="1.53991">
        <ele>1576.5999755859</ele>
        <time>2023-07-21T12:18:28.000Z</time>
      </trkpt>
      <trkpt lat="42.61923" lon="1.53987">
        <ele>1576.4000244141</ele>
        <time>2023-07-21T12:18:26.000Z</time>
      </trkpt>
      <trkpt lat="42.61927" lon="1.53983">
        <ele>1576.1999511719</ele>
        <time>2023-07-21T12:18:19.000Z</time>
      </trkpt>
      <trkpt lat="42.61929" lon="1.53983">
        <ele>1577</ele>
        <time>2023-07-21T12:18:09.000Z</time>
      </trkpt>
      <trkpt lat="42.61929" lon="1.53983">
        <ele>1577</ele>
        <time>2023-07-21T12:18:07.000Z</time>
      </trkpt>
      <trkpt lat="42.6193" lon="1.53982">
        <ele>1577.1999511719</ele>
        <time>2023-07-21T12:18:03.000Z</time>
      </trkpt>
      <trkpt lat="42.61931" lon="1.53978">
        <ele>1578</ele>
        <time>2023-07-21T12:17:59.000Z</time>
      </trkpt>
      <trkpt lat="42.61932" lon="1.53978">
        <ele>1578.8000488281</ele>
        <time>2023-07-21T12:17:56.000Z</time>
      </trkpt>
      <trkpt lat="42.61934" lon="1.53978">
        <ele>1579.1999511719</ele>
        <time>2023-07-21T12:17:55.000Z</time>
      </trkpt>
      <trkpt lat="42.61937" lon="1.53979">
        <ele>1580.1999511719</ele>
        <time>2023-07-21T12:17:51.000Z</time>
      </trkpt>
      <trkpt lat="42.61938" lon="1.5398">
        <ele>1580.8000488281</ele>
        <time>2023-07-21T12:17:49.000Z</time>
      </trkpt>
      <trkpt lat="42.6194" lon="1.53982">
        <ele>1581.1999511719</ele>
        <time>2023-07-21T12:17:47.000Z</time>
      </trkpt>
      <trkpt lat="42.61946" lon="1.53987">
        <ele>1582.4000244141</ele>
        <time>2023-07-21T12:17:40.000Z</time>
      </trkpt>
      <trkpt lat="42.61951" lon="1.53991">
        <ele>1583.5999755859</ele>
        <time>2023-07-21T12:17:36.000Z</time>
      </trkpt>
      <trkpt lat="42.61954" lon="1.53994">
        <ele>1585</ele>
        <time>2023-07-21T12:17:33.000Z</time>
      </trkpt>
      <trkpt lat="42.61954" lon="1.53994">
        <ele>1585.4000244141</ele>
        <time>2023-07-21T12:17:32.000Z</time>
      </trkpt>
      <trkpt lat="42.61955" lon="1.53995">
        <ele>1586.1999511719</ele>
        <time>2023-07-21T12:17:30.000Z</time>
      </trkpt>
      <trkpt lat="42.61959" lon="1.53998">
        <ele>1587.4000244141</ele>
        <time>2023-07-21T12:17:26.000Z</time>
      </trkpt>
      <trkpt lat="42.61961" lon="1.54001">
        <ele>1588.1999511719</ele>
        <time>2023-07-21T12:17:23.000Z</time>
      </trkpt>
      <trkpt lat="42.61963" lon="1.54006">
        <ele>1588.4000244141</ele>
        <time>2023-07-21T12:17:20.000Z</time>
      </trkpt>
      <trkpt lat="42.61966" lon="1.54013">
        <ele>1589.1999511719</ele>
        <time>2023-07-21T12:17:16.000Z</time>
      </trkpt>
      <trkpt lat="42.61967" lon="1.54016">
        <ele>1589.5999755859</ele>
        <time>2023-07-21T12:17:14.000Z</time>
      </trkpt>
      <trkpt lat="42.61971" lon="1.54026">
        <ele>1590.8000488281</ele>
        <time>2023-07-21T12:17:09.000Z</time>
      </trkpt>
      <trkpt lat="42.61973" lon="1.54031">
        <ele>1591.1999511719</ele>
        <time>2023-07-21T12:17:07.000Z</time>
      </trkpt>
      <trkpt lat="42.61975" lon="1.54042">
        <ele>1591.8000488281</ele>
        <time>2023-07-21T12:17:01.000Z</time>
      </trkpt>
      <trkpt lat="42.61976" lon="1.54045">
        <ele>1591.8000488281</ele>
        <time>2023-07-21T12:17:00.000Z</time>
      </trkpt>
      <trkpt lat="42.61977" lon="1.54054">
        <ele>1592.8000488281</ele>
        <time>2023-07-21T12:16:51.000Z</time>
      </trkpt>
      <trkpt lat="42.61977" lon="1.54055">
        <ele>1593</ele>
        <time>2023-07-21T12:16:50.000Z</time>
      </trkpt>
      <trkpt lat="42.61975" lon="1.54059">
        <ele>1594</ele>
        <time>2023-07-21T12:16:43.000Z</time>
      </trkpt>
      <trkpt lat="42.61975" lon="1.54061">
        <ele>1594.1999511719</ele>
        <time>2023-07-21T12:16:42.000Z</time>
      </trkpt>
      <trkpt lat="42.61976" lon="1.54073">
        <ele>1595.1999511719</ele>
        <time>2023-07-21T12:16:37.000Z</time>
      </trkpt>
      <trkpt lat="42.61978" lon="1.54077">
        <ele>1595.8000488281</ele>
        <time>2023-07-21T12:16:34.000Z</time>
      </trkpt>
      <trkpt lat="42.61978" lon="1.54078">
        <ele>1596.1999511719</ele>
        <time>2023-07-21T12:16:33.000Z</time>
      </trkpt>
      <trkpt lat="42.61982" lon="1.54088">
        <ele>1597.1999511719</ele>
        <time>2023-07-21T12:16:28.000Z</time>
      </trkpt>
      <trkpt lat="42.61983" lon="1.54092">
        <ele>1597.5999755859</ele>
        <time>2023-07-21T12:16:26.000Z</time>
      </trkpt>
      <trkpt lat="42.61986" lon="1.54098">
        <ele>1598.4000244141</ele>
        <time>2023-07-21T12:16:23.000Z</time>
      </trkpt>
      <trkpt lat="42.61994" lon="1.54105">
        <ele>1599.1999511719</ele>
        <time>2023-07-21T12:16:18.000Z</time>
      </trkpt>
      <trkpt lat="42.61995" lon="1.54106">
        <ele>1599.4000244141</ele>
        <time>2023-07-21T12:16:17.000Z</time>
      </trkpt>
      <trkpt lat="42.62001" lon="1.54112">
        <ele>1600.4000244141</ele>
        <time>2023-07-21T12:16:11.000Z</time>
      </trkpt>
      <trkpt lat="42.62003" lon="1.54115">
        <ele>1601.5999755859</ele>
        <time>2023-07-21T12:16:07.000Z</time>
      </trkpt>
      <trkpt lat="42.62005" lon="1.54118">
        <ele>1602.1999511719</ele>
        <time>2023-07-21T12:16:05.000Z</time>
      </trkpt>
      <trkpt lat="42.62008" lon="1.54122">
        <ele>1602.5999755859</ele>
        <time>2023-07-21T12:16:03.000Z</time>
      </trkpt>
      <trkpt lat="42.62013" lon="1.54127">
        <ele>1603.8000488281</ele>
        <time>2023-07-21T12:15:59.000Z</time>
      </trkpt>
      <trkpt lat="42.62014" lon="1.54128">
        <ele>1605</ele>
        <time>2023-07-21T12:15:55.000Z</time>
      </trkpt>
      <trkpt lat="42.62017" lon="1.5413">
        <ele>1605.5999755859</ele>
        <time>2023-07-21T12:15:52.000Z</time>
      </trkpt>
      <trkpt lat="42.62018" lon="1.54133">
        <ele>1606.1999511719</ele>
        <time>2023-07-21T12:15:49.000Z</time>
      </trkpt>
      <trkpt lat="42.62018" lon="1.54136">
        <ele>1607.1999511719</ele>
        <time>2023-07-21T12:15:45.000Z</time>
      </trkpt>
      <trkpt lat="42.6202" lon="1.54139">
        <ele>1608.4000244141</ele>
        <time>2023-07-21T12:15:42.000Z</time>
      </trkpt>
      <trkpt lat="42.62024" lon="1.54143">
        <ele>1609.1999511719</ele>
        <time>2023-07-21T12:15:37.000Z</time>
      </trkpt>
      <trkpt lat="42.62025" lon="1.54143">
        <ele>1609.5999755859</ele>
        <time>2023-07-21T12:15:36.000Z</time>
      </trkpt>
      <trkpt lat="42.62028" lon="1.54146">
        <ele>1610.8000488281</ele>
        <time>2023-07-21T12:15:33.000Z</time>
      </trkpt>
      <trkpt lat="42.6203" lon="1.54149">
        <ele>1612.1999511719</ele>
        <time>2023-07-21T12:15:30.000Z</time>
      </trkpt>
      <trkpt lat="42.6203" lon="1.54149">
        <ele>1612.8000488281</ele>
        <time>2023-07-21T12:15:28.000Z</time>
      </trkpt>
      <trkpt lat="42.6203" lon="1.54149">
        <ele>1613.1999511719</ele>
        <time>2023-07-21T12:15:27.000Z</time>
      </trkpt>
      <trkpt lat="42.62031" lon="1.5415">
        <ele>1614.4000244141</ele>
        <time>2023-07-21T12:15:24.000Z</time>
      </trkpt>
      <trkpt lat="42.62033" lon="1.54151">
        <ele>1614.8000488281</ele>
        <time>2023-07-21T12:15:22.000Z</time>
      </trkpt>
      <trkpt lat="42.62037" lon="1.54152">
        <ele>1615</ele>
        <time>2023-07-21T12:15:18.000Z</time>
      </trkpt>
      <trkpt lat="42.62039" lon="1.54152">
        <ele>1615.4000244141</ele>
        <time>2023-07-21T12:15:16.000Z</time>
      </trkpt>
      <trkpt lat="42.62039" lon="1.54152">
        <ele>1615.5999755859</ele>
        <time>2023-07-21T12:15:15.000Z</time>
      </trkpt>
      <trkpt lat="42.6204" lon="1.54153">
        <ele>1616.8000488281</ele>
        <time>2023-07-21T12:15:11.000Z</time>
      </trkpt>
      <trkpt lat="42.62041" lon="1.54154">
        <ele>1617</ele>
        <time>2023-07-21T12:15:09.000Z</time>
      </trkpt>
      <trkpt lat="42.62043" lon="1.54169">
        <ele>1618</ele>
        <time>2023-07-21T12:15:02.000Z</time>
      </trkpt>
      <trkpt lat="42.62043" lon="1.5417">
        <ele>1618</ele>
        <time>2023-07-21T12:15:01.000Z</time>
      </trkpt>
      <trkpt lat="42.62044" lon="1.54175">
        <ele>1619.1999511719</ele>
        <time>2023-07-21T12:14:58.000Z</time>
      </trkpt>
      <trkpt lat="42.62045" lon="1.54183">
        <ele>1620</ele>
        <time>2023-07-21T12:14:54.000Z</time>
      </trkpt>
      <trkpt lat="42.62045" lon="1.54185">
        <ele>1620.1999511719</ele>
        <time>2023-07-21T12:14:53.000Z</time>
      </trkpt>
      <trkpt lat="42.62046" lon="1.54197">
        <ele>1621.4000244141</ele>
        <time>2023-07-21T12:14:47.000Z</time>
      </trkpt>
      <trkpt lat="42.62046" lon="1.54207">
        <ele>1622.5999755859</ele>
        <time>2023-07-21T12:14:42.000Z</time>
      </trkpt>
      <trkpt lat="42.62047" lon="1.54214">
        <ele>1623.1999511719</ele>
        <time>2023-07-21T12:14:39.000Z</time>
      </trkpt>
      <trkpt lat="42.62049" lon="1.54224">
        <ele>1623.8000488281</ele>
        <time>2023-07-21T12:14:34.000Z</time>
      </trkpt>
      <trkpt lat="42.62051" lon="1.5423">
        <ele>1624.1999511719</ele>
        <time>2023-07-21T12:14:32.000Z</time>
      </trkpt>
      <trkpt lat="42.62054" lon="1.54237">
        <ele>1624.8000488281</ele>
        <time>2023-07-21T12:14:29.000Z</time>
      </trkpt>
      <trkpt lat="42.62058" lon="1.54248">
        <ele>1625.1999511719</ele>
        <time>2023-07-21T12:14:24.000Z</time>
      </trkpt>
      <trkpt lat="42.62061" lon="1.54256">
        <ele>1625.8000488281</ele>
        <time>2023-07-21T12:14:20.000Z</time>
      </trkpt>
      <trkpt lat="42.62063" lon="1.54263">
        <ele>1626.5999755859</ele>
        <time>2023-07-21T12:14:16.000Z</time>
      </trkpt>
      <trkpt lat="42.62064" lon="1.54265">
        <ele>1626.8000488281</ele>
        <time>2023-07-21T12:14:15.000Z</time>
      </trkpt>
      <trkpt lat="42.62068" lon="1.54274">
        <ele>1628</ele>
        <time>2023-07-21T12:14:10.000Z</time>
      </trkpt>
      <trkpt lat="42.62068" lon="1.54276">
        <ele>1628.1999511719</ele>
        <time>2023-07-21T12:14:09.000Z</time>
      </trkpt>
      <trkpt lat="42.62073" lon="1.54286">
        <ele>1629.1999511719</ele>
        <time>2023-07-21T12:14:04.000Z</time>
      </trkpt>
      <trkpt lat="42.62074" lon="1.54289">
        <ele>1629.4000244141</ele>
        <time>2023-07-21T12:14:02.000Z</time>
      </trkpt>
      <trkpt lat="42.6208" lon="1.54295">
        <ele>1630</ele>
        <time>2023-07-21T12:13:56.000Z</time>
      </trkpt>
      <trkpt lat="42.6209" lon="1.54296">
        <ele>1630</ele>
        <time>2023-07-21T12:13:51.000Z</time>
      </trkpt>
      <trkpt lat="42.62092" lon="1.54295">
        <ele>1630.1999511719</ele>
        <time>2023-07-21T12:13:50.000Z</time>
      </trkpt>
      <trkpt lat="42.62096" lon="1.54265">
        <ele>1631</ele>
        <time>2023-07-21T12:13:33.000Z</time>
      </trkpt>
      <trkpt lat="42.62093" lon="1.54256">
        <ele>1631.4000244141</ele>
        <time>2023-07-21T12:13:28.000Z</time>
      </trkpt>
      <trkpt lat="42.62093" lon="1.54254">
        <ele>1631.4000244141</ele>
        <time>2023-07-21T12:13:27.000Z</time>
      </trkpt>
      <trkpt lat="42.62093" lon="1.54252">
        <ele>1631.5999755859</ele>
        <time>2023-07-21T12:13:26.000Z</time>
      </trkpt>
      <trkpt lat="42.62093" lon="1.54241">
        <ele>1631.5999755859</ele>
        <time>2023-07-21T12:13:19.000Z</time>
      </trkpt>
      <trkpt lat="42.62093" lon="1.5424">
        <ele>1631.5999755859</ele>
        <time>2023-07-21T12:13:17.000Z</time>
      </trkpt>
      <trkpt lat="42.62095" lon="1.54248">
        <ele>1632.4000244141</ele>
        <time>2023-07-21T12:13:12.000Z</time>
      </trkpt>
      <trkpt lat="42.62097" lon="1.54251">
        <ele>1632.8000488281</ele>
        <time>2023-07-21T12:13:10.000Z</time>
      </trkpt>
      <trkpt lat="42.62099" lon="1.54259">
        <ele>1633.4000244141</ele>
        <time>2023-07-21T12:13:06.000Z</time>
      </trkpt>
      <trkpt lat="42.62101" lon="1.54268">
        <ele>1634.4000244141</ele>
        <time>2023-07-21T12:13:02.000Z</time>
      </trkpt>
      <trkpt lat="42.62102" lon="1.54273">
        <ele>1634.5999755859</ele>
        <time>2023-07-21T12:12:59.000Z</time>
      </trkpt>
      <trkpt lat="42.62103" lon="1.54279">
        <ele>1635.1999511719</ele>
        <time>2023-07-21T12:12:54.000Z</time>
      </trkpt>
      <trkpt lat="42.62106" lon="1.54285">
        <ele>1635.5999755859</ele>
        <time>2023-07-21T12:12:51.000Z</time>
      </trkpt>
      <trkpt lat="42.62108" lon="1.54291">
        <ele>1637</ele>
        <time>2023-07-21T12:12:48.000Z</time>
      </trkpt>
      <trkpt lat="42.62111" lon="1.54297">
        <ele>1637.8000488281</ele>
        <time>2023-07-21T12:12:45.000Z</time>
      </trkpt>
      <trkpt lat="42.62112" lon="1.54299">
        <ele>1638</ele>
        <time>2023-07-21T12:12:44.000Z</time>
      </trkpt>
      <trkpt lat="42.62114" lon="1.54303">
        <ele>1639.1999511719</ele>
        <time>2023-07-21T12:12:39.000Z</time>
      </trkpt>
      <trkpt lat="42.62115" lon="1.54304">
        <ele>1639.4000244141</ele>
        <time>2023-07-21T12:12:37.000Z</time>
      </trkpt>
      <trkpt lat="42.62116" lon="1.54306">
        <ele>1640.1999511719</ele>
        <time>2023-07-21T12:12:34.000Z</time>
      </trkpt>
      <trkpt lat="42.62122" lon="1.54313">
        <ele>1641.4000244141</ele>
        <time>2023-07-21T12:12:29.000Z</time>
      </trkpt>
      <trkpt lat="42.62123" lon="1.54315">
        <ele>1641.5999755859</ele>
        <time>2023-07-21T12:12:28.000Z</time>
      </trkpt>
      <trkpt lat="42.62128" lon="1.54322">
        <ele>1642.4000244141</ele>
        <time>2023-07-21T12:12:23.000Z</time>
      </trkpt>
      <trkpt lat="42.62134" lon="1.54326">
        <ele>1643</ele>
        <time>2023-07-21T12:12:20.000Z</time>
      </trkpt>
      <trkpt lat="42.62138" lon="1.54329">
        <ele>1643.5999755859</ele>
        <time>2023-07-21T12:12:16.000Z</time>
      </trkpt>
      <trkpt lat="42.62143" lon="1.5433">
        <ele>1644.4000244141</ele>
        <time>2023-07-21T12:12:12.000Z</time>
      </trkpt>
      <trkpt lat="42.62143" lon="1.54329">
        <ele>1644.5999755859</ele>
        <time>2023-07-21T12:12:11.000Z</time>
      </trkpt>
      <trkpt lat="42.62145" lon="1.54328">
        <ele>1645.5999755859</ele>
        <time>2023-07-21T12:12:07.000Z</time>
      </trkpt>
      <trkpt lat="42.62148" lon="1.5433">
        <ele>1646.4000244141</ele>
        <time>2023-07-21T12:12:04.000Z</time>
      </trkpt>
      <trkpt lat="42.62153" lon="1.54336">
        <ele>1646.8000488281</ele>
        <time>2023-07-21T12:11:58.000Z</time>
      </trkpt>
      <trkpt lat="42.62154" lon="1.54338">
        <ele>1647.1999511719</ele>
        <time>2023-07-21T12:11:57.000Z</time>
      </trkpt>
      <trkpt lat="42.62159" lon="1.54346">
        <ele>1648</ele>
        <time>2023-07-21T12:11:51.000Z</time>
      </trkpt>
      <trkpt lat="42.62165" lon="1.54352">
        <ele>1648</ele>
        <time>2023-07-21T12:11:46.000Z</time>
      </trkpt>
      <trkpt lat="42.62168" lon="1.54354">
        <ele>1648.4000244141</ele>
        <time>2023-07-21T12:11:44.000Z</time>
      </trkpt>
      <trkpt lat="42.62172" lon="1.54359">
        <ele>1649.1999511719</ele>
        <time>2023-07-21T12:11:40.000Z</time>
      </trkpt>
      <trkpt lat="42.62175" lon="1.54363">
        <ele>1649.4000244141</ele>
        <time>2023-07-21T12:11:37.000Z</time>
      </trkpt>
      <trkpt lat="42.62181" lon="1.54367">
        <ele>1650.1999511719</ele>
        <time>2023-07-21T12:11:32.000Z</time>
      </trkpt>
      <trkpt lat="42.62185" lon="1.54372">
        <ele>1651.1999511719</ele>
        <time>2023-07-21T12:11:28.000Z</time>
      </trkpt>
      <trkpt lat="42.62187" lon="1.5438">
        <ele>1652.5999755859</ele>
        <time>2023-07-21T12:11:24.000Z</time>
      </trkpt>
      <trkpt lat="42.62189" lon="1.54387">
        <ele>1653.4000244141</ele>
        <time>2023-07-21T12:11:20.000Z</time>
      </trkpt>
      <trkpt lat="42.62189" lon="1.54389">
        <ele>1653.5999755859</ele>
        <time>2023-07-21T12:11:18.000Z</time>
      </trkpt>
      <trkpt lat="42.62193" lon="1.54393">
        <ele>1654.5999755859</ele>
        <time>2023-07-21T12:11:12.000Z</time>
      </trkpt>
      <trkpt lat="42.622" lon="1.54406">
        <ele>1654.5999755859</ele>
        <time>2023-07-21T12:11:04.000Z</time>
      </trkpt>
      <trkpt lat="42.62202" lon="1.54417">
        <ele>1654</ele>
        <time>2023-07-21T12:10:56.000Z</time>
      </trkpt>
      <trkpt lat="42.62207" lon="1.54424">
        <ele>1654.1999511719</ele>
        <time>2023-07-21T12:10:48.000Z</time>
      </trkpt>
      <trkpt lat="42.62208" lon="1.54427">
        <ele>1654.8000488281</ele>
        <time>2023-07-21T12:10:45.000Z</time>
      </trkpt>
      <trkpt lat="42.62211" lon="1.54431">
        <ele>1655.5999755859</ele>
        <time>2023-07-21T12:10:41.000Z</time>
      </trkpt>
      <trkpt lat="42.62214" lon="1.54436">
        <ele>1655.8000488281</ele>
        <time>2023-07-21T12:10:34.000Z</time>
      </trkpt>
      <trkpt lat="42.62214" lon="1.54437">
        <ele>1655.8000488281</ele>
        <time>2023-07-21T12:10:33.000Z</time>
      </trkpt>
      <trkpt lat="42.62215" lon="1.54439">
        <ele>1656</ele>
        <time>2023-07-21T12:10:29.000Z</time>
      </trkpt>
      <trkpt lat="42.62216" lon="1.54439">
        <ele>1656</ele>
        <time>2023-07-21T12:10:21.000Z</time>
      </trkpt>
      <trkpt lat="42.62218" lon="1.54437">
        <ele>1656.1999511719</ele>
        <time>2023-07-21T12:10:13.000Z</time>
      </trkpt>
      <trkpt lat="42.62222" lon="1.54442">
        <ele>1656.4000244141</ele>
        <time>2023-07-21T12:10:09.000Z</time>
      </trkpt>
      <trkpt lat="42.62224" lon="1.54443">
        <ele>1656.4000244141</ele>
        <time>2023-07-21T12:10:08.000Z</time>
      </trkpt>
      <trkpt lat="42.62228" lon="1.54451">
        <ele>1656.4000244141</ele>
        <time>2023-07-21T12:10:02.000Z</time>
      </trkpt>
      <trkpt lat="42.62232" lon="1.54453">
        <ele>1656.5999755859</ele>
        <time>2023-07-21T12:09:56.000Z</time>
      </trkpt>
      <trkpt lat="42.62237" lon="1.5446">
        <ele>1656.4000244141</ele>
        <time>2023-07-21T12:09:49.000Z</time>
      </trkpt>
      <trkpt lat="42.62241" lon="1.54468">
        <ele>1656.4000244141</ele>
        <time>2023-07-21T12:09:42.000Z</time>
      </trkpt>
      <trkpt lat="42.62247" lon="1.54479">
        <ele>1656.8000488281</ele>
        <time>2023-07-21T12:09:35.000Z</time>
      </trkpt>
      <trkpt lat="42.62251" lon="1.54486">
        <ele>1657</ele>
        <time>2023-07-21T12:09:28.000Z</time>
      </trkpt>
      <trkpt lat="42.62255" lon="1.54491">
        <ele>1657</ele>
        <time>2023-07-21T12:09:22.000Z</time>
      </trkpt>
      <trkpt lat="42.62262" lon="1.54502">
        <ele>1656.8000488281</ele>
        <time>2023-07-21T12:09:12.000Z</time>
      </trkpt>
      <trkpt lat="42.62263" lon="1.54505">
        <ele>1657</ele>
        <time>2023-07-21T12:09:10.000Z</time>
      </trkpt>
      <trkpt lat="42.62266" lon="1.54504">
        <ele>1657.4000244141</ele>
        <time>2023-07-21T12:09:07.000Z</time>
      </trkpt>
      <trkpt lat="42.62275" lon="1.54516">
        <ele>1658.4000244141</ele>
        <time>2023-07-21T12:08:59.000Z</time>
      </trkpt>
      <trkpt lat="42.62302" lon="1.54543">
        <ele>1660</ele>
        <time>2023-07-21T12:08:33.000Z</time>
      </trkpt>
      <trkpt lat="42.62306" lon="1.54552">
        <ele>1662.4000244141</ele>
        <time>2023-07-21T12:08:21.000Z</time>
      </trkpt>
      <trkpt lat="42.62305" lon="1.54552">
        <ele>1662.5999755859</ele>
        <time>2023-07-21T12:08:20.000Z</time>
      </trkpt>
      <trkpt lat="42.62313" lon="1.54557">
        <ele>1664.4000244141</ele>
        <time>2023-07-21T12:08:10.000Z</time>
      </trkpt>
      <trkpt lat="42.62312" lon="1.5456">
        <ele>1665</ele>
        <time>2023-07-21T12:08:08.000Z</time>
      </trkpt>
      <trkpt lat="42.62315" lon="1.54568">
        <ele>1665.5999755859</ele>
        <time>2023-07-21T12:08:03.000Z</time>
      </trkpt>
      <trkpt lat="42.62315" lon="1.54574">
        <ele>1665.8000488281</ele>
        <time>2023-07-21T12:07:58.000Z</time>
      </trkpt>
      <trkpt lat="42.62319" lon="1.54585">
        <ele>1666</ele>
        <time>2023-07-21T12:07:52.000Z</time>
      </trkpt>
      <trkpt lat="42.62315" lon="1.54616">
        <ele>1667</ele>
        <time>2023-07-21T12:07:37.000Z</time>
      </trkpt>
      <trkpt lat="42.62312" lon="1.54623">
        <ele>1667.8000488281</ele>
        <time>2023-07-21T12:07:34.000Z</time>
      </trkpt>
      <trkpt lat="42.62307" lon="1.54631">
        <ele>1668.1999511719</ele>
        <time>2023-07-21T12:07:31.000Z</time>
      </trkpt>
      <trkpt lat="42.62307" lon="1.54635">
        <ele>1668.8000488281</ele>
        <time>2023-07-21T12:07:28.000Z</time>
      </trkpt>
      <trkpt lat="42.62308" lon="1.54637">
        <ele>1669</ele>
        <time>2023-07-21T12:07:25.000Z</time>
      </trkpt>
      <trkpt lat="42.62315" lon="1.54642">
        <ele>1669</ele>
        <time>2023-07-21T12:07:17.000Z</time>
      </trkpt>
      <trkpt lat="42.62315" lon="1.5465">
        <ele>1669.4000244141</ele>
        <time>2023-07-21T12:07:12.000Z</time>
      </trkpt>
      <trkpt lat="42.62323" lon="1.5467">
        <ele>1673</ele>
        <time>2023-07-21T12:06:50.000Z</time>
      </trkpt>
      <trkpt lat="42.62324" lon="1.54678">
        <ele>1674.1999511719</ele>
        <time>2023-07-21T12:06:42.000Z</time>
      </trkpt>
      <trkpt lat="42.62323" lon="1.54679">
        <ele>1674.4000244141</ele>
        <time>2023-07-21T12:06:41.000Z</time>
      </trkpt>
      <trkpt lat="42.62325" lon="1.54681">
        <ele>1675</ele>
        <time>2023-07-21T12:06:37.000Z</time>
      </trkpt>
      <trkpt lat="42.62327" lon="1.5469">
        <ele>1675.8000488281</ele>
        <time>2023-07-21T12:06:28.000Z</time>
      </trkpt>
      <trkpt lat="42.62329" lon="1.54695">
        <ele>1676.5999755859</ele>
        <time>2023-07-21T12:06:23.000Z</time>
      </trkpt>
      <trkpt lat="42.62331" lon="1.54698">
        <ele>1677.1999511719</ele>
        <time>2023-07-21T12:06:19.000Z</time>
      </trkpt>
      <trkpt lat="42.62332" lon="1.54706">
        <ele>1677.1999511719</ele>
        <time>2023-07-21T12:06:12.000Z</time>
      </trkpt>
      <trkpt lat="42.62337" lon="1.54712">
        <ele>1677.8000488281</ele>
        <time>2023-07-21T12:06:06.000Z</time>
      </trkpt>
      <trkpt lat="42.62338" lon="1.54713">
        <ele>1678.4000244141</ele>
        <time>2023-07-21T12:06:04.000Z</time>
      </trkpt>
      <trkpt lat="42.62341" lon="1.54718">
        <ele>1678.8000488281</ele>
        <time>2023-07-21T12:05:59.000Z</time>
      </trkpt>
      <trkpt lat="42.62354" lon="1.54721">
        <ele>1679.8000488281</ele>
        <time>2023-07-21T12:05:52.000Z</time>
      </trkpt>
      <trkpt lat="42.62357" lon="1.54724">
        <ele>1680.8000488281</ele>
        <time>2023-07-21T12:05:47.000Z</time>
      </trkpt>
      <trkpt lat="42.62358" lon="1.54725">
        <ele>1681</ele>
        <time>2023-07-21T12:05:46.000Z</time>
      </trkpt>
      <trkpt lat="42.62358" lon="1.54732">
        <ele>1681.8000488281</ele>
        <time>2023-07-21T12:05:39.000Z</time>
      </trkpt>
      <trkpt lat="42.62358" lon="1.54735">
        <ele>1682</ele>
        <time>2023-07-21T12:05:37.000Z</time>
      </trkpt>
      <trkpt lat="42.62359" lon="1.54743">
        <ele>1682.8000488281</ele>
        <time>2023-07-21T12:05:31.000Z</time>
      </trkpt>
      <trkpt lat="42.62358" lon="1.54745">
        <ele>1683</ele>
        <time>2023-07-21T12:05:29.000Z</time>
      </trkpt>
      <trkpt lat="42.62358" lon="1.54749">
        <ele>1683.5999755859</ele>
        <time>2023-07-21T12:05:25.000Z</time>
      </trkpt>
      <trkpt lat="42.62357" lon="1.54759">
        <ele>1685</ele>
        <time>2023-07-21T12:05:16.000Z</time>
      </trkpt>
      <trkpt lat="42.62358" lon="1.54761">
        <ele>1685.1999511719</ele>
        <time>2023-07-21T12:05:14.000Z</time>
      </trkpt>
      <trkpt lat="42.62364" lon="1.54765">
        <ele>1686.4000244141</ele>
        <time>2023-07-21T12:05:08.000Z</time>
      </trkpt>
      <trkpt lat="42.62364" lon="1.54766">
        <ele>1686.5999755859</ele>
        <time>2023-07-21T12:05:07.000Z</time>
      </trkpt>
      <trkpt lat="42.62363" lon="1.54771">
        <ele>1687.5999755859</ele>
        <time>2023-07-21T12:05:02.000Z</time>
      </trkpt>
      <trkpt lat="42.62364" lon="1.54772">
        <ele>1687.5999755859</ele>
        <time>2023-07-21T12:05:01.000Z</time>
      </trkpt>
      <trkpt lat="42.62374" lon="1.54779">
        <ele>1689.5999755859</ele>
        <time>2023-07-21T12:04:52.000Z</time>
      </trkpt>
      <trkpt lat="42.62375" lon="1.54785">
        <ele>1690.5999755859</ele>
        <time>2023-07-21T12:04:47.000Z</time>
      </trkpt>
      <trkpt lat="42.62375" lon="1.54787">
        <ele>1690.8000488281</ele>
        <time>2023-07-21T12:04:46.000Z</time>
      </trkpt>
      <trkpt lat="42.62372" lon="1.54793">
        <ele>1691.8000488281</ele>
        <time>2023-07-21T12:04:41.000Z</time>
      </trkpt>
      <trkpt lat="42.62371" lon="1.54795">
        <ele>1692</ele>
        <time>2023-07-21T12:04:40.000Z</time>
      </trkpt>
      <trkpt lat="42.62372" lon="1.54803">
        <ele>1693</ele>
        <time>2023-07-21T12:04:35.000Z</time>
      </trkpt>
      <trkpt lat="42.62372" lon="1.54812">
        <ele>1694.1999511719</ele>
        <time>2023-07-21T12:04:29.000Z</time>
      </trkpt>
      <trkpt lat="42.62372" lon="1.54813">
        <ele>1694.8000488281</ele>
        <time>2023-07-21T12:04:27.000Z</time>
      </trkpt>
      <trkpt lat="42.62371" lon="1.54816">
        <ele>1695.4000244141</ele>
        <time>2023-07-21T12:04:25.000Z</time>
      </trkpt>
      <trkpt lat="42.62372" lon="1.54828">
        <ele>1697.5999755859</ele>
        <time>2023-07-21T12:04:16.000Z</time>
      </trkpt>
      <trkpt lat="42.62371" lon="1.5483">
        <ele>1697.8000488281</ele>
        <time>2023-07-21T12:04:15.000Z</time>
      </trkpt>
      <trkpt lat="42.62373" lon="1.54834">
        <ele>1698.5999755859</ele>
        <time>2023-07-21T12:04:11.000Z</time>
      </trkpt>
      <trkpt lat="42.62372" lon="1.54839">
        <ele>1699.8000488281</ele>
        <time>2023-07-21T12:04:06.000Z</time>
      </trkpt>
      <trkpt lat="42.62382" lon="1.54856">
        <ele>1703.1999511719</ele>
        <time>2023-07-21T12:03:47.000Z</time>
      </trkpt>
      <trkpt lat="42.62386" lon="1.5486">
        <ele>1703.8000488281</ele>
        <time>2023-07-21T12:03:43.000Z</time>
      </trkpt>
      <trkpt lat="42.62382" lon="1.54866">
        <ele>1704.8000488281</ele>
        <time>2023-07-21T12:03:37.000Z</time>
      </trkpt>
      <trkpt lat="42.62382" lon="1.54868">
        <ele>1705</ele>
        <time>2023-07-21T12:03:36.000Z</time>
      </trkpt>
      <trkpt lat="42.62381" lon="1.54875">
        <ele>1705.5999755859</ele>
        <time>2023-07-21T12:03:32.000Z</time>
      </trkpt>
      <trkpt lat="42.62379" lon="1.5488">
        <ele>1706</ele>
        <time>2023-07-21T12:03:29.000Z</time>
      </trkpt>
      <trkpt lat="42.62379" lon="1.54883">
        <ele>1706.1999511719</ele>
        <time>2023-07-21T12:03:27.000Z</time>
      </trkpt>
      <trkpt lat="42.62379" lon="1.54888">
        <ele>1707.1999511719</ele>
        <time>2023-07-21T12:03:23.000Z</time>
      </trkpt>
      <trkpt lat="42.62379" lon="1.54895">
        <ele>1708.4000244141</ele>
        <time>2023-07-21T12:03:18.000Z</time>
      </trkpt>
      <trkpt lat="42.62379" lon="1.54896">
        <ele>1708.5999755859</ele>
        <time>2023-07-21T12:03:17.000Z</time>
      </trkpt>
      <trkpt lat="42.62381" lon="1.54907">
        <ele>1710.1999511719</ele>
        <time>2023-07-21T12:03:05.000Z</time>
      </trkpt>
      <trkpt lat="42.62378" lon="1.54918">
        <ele>1712.5999755859</ele>
        <time>2023-07-21T12:02:49.000Z</time>
      </trkpt>
      <trkpt lat="42.62379" lon="1.54917">
        <ele>1713.1999511719</ele>
        <time>2023-07-21T12:02:46.000Z</time>
      </trkpt>
      <trkpt lat="42.62378" lon="1.54919">
        <ele>1713.8000488281</ele>
        <time>2023-07-21T12:02:42.000Z</time>
      </trkpt>
      <trkpt lat="42.62376" lon="1.54924">
        <ele>1714.1999511719</ele>
        <time>2023-07-21T12:02:39.000Z</time>
      </trkpt>
      <trkpt lat="42.62374" lon="1.5493">
        <ele>1715</ele>
        <time>2023-07-21T12:02:34.000Z</time>
      </trkpt>
      <trkpt lat="42.62373" lon="1.54932">
        <ele>1715.4000244141</ele>
        <time>2023-07-21T12:02:32.000Z</time>
      </trkpt>
      <trkpt lat="42.62373" lon="1.54936">
        <ele>1716</ele>
        <time>2023-07-21T12:02:29.000Z</time>
      </trkpt>
      <trkpt lat="42.62374" lon="1.54939">
        <ele>1716.5999755859</ele>
        <time>2023-07-21T12:02:25.000Z</time>
      </trkpt>
      <trkpt lat="42.62374" lon="1.54944">
        <ele>1717</ele>
        <time>2023-07-21T12:02:21.000Z</time>
      </trkpt>
      <trkpt lat="42.62375" lon="1.54944">
        <ele>1717.4000244141</ele>
        <time>2023-07-21T12:02:18.000Z</time>
      </trkpt>
      <trkpt lat="42.62378" lon="1.54939">
        <ele>1718.1999511719</ele>
        <time>2023-07-21T12:02:12.000Z</time>
      </trkpt>
      <trkpt lat="42.62377" lon="1.54939">
        <ele>1719.4000244141</ele>
        <time>2023-07-21T12:02:07.000Z</time>
      </trkpt>
      <trkpt lat="42.62373" lon="1.54944">
        <ele>1720.4000244141</ele>
        <time>2023-07-21T12:02:03.000Z</time>
      </trkpt>
      <trkpt lat="42.62373" lon="1.54946">
        <ele>1720.8000488281</ele>
        <time>2023-07-21T12:02:00.000Z</time>
      </trkpt>
      <trkpt lat="42.62377" lon="1.54959">
        <ele>1721.5999755859</ele>
        <time>2023-07-21T12:01:50.000Z</time>
      </trkpt>
      <trkpt lat="42.62377" lon="1.54961">
        <ele>1721.5999755859</ele>
        <time>2023-07-21T12:01:49.000Z</time>
      </trkpt>
      <trkpt lat="42.62381" lon="1.54972">
        <ele>1722.8000488281</ele>
        <time>2023-07-21T12:01:42.000Z</time>
      </trkpt>
      <trkpt lat="42.62383" lon="1.54972">
        <ele>1722.8000488281</ele>
        <time>2023-07-21T12:01:41.000Z</time>
      </trkpt>
      <trkpt lat="42.62389" lon="1.54972">
        <ele>1723.8000488281</ele>
        <time>2023-07-21T12:01:37.000Z</time>
      </trkpt>
      <trkpt lat="42.62393" lon="1.54974">
        <ele>1724.8000488281</ele>
        <time>2023-07-21T12:01:32.000Z</time>
      </trkpt>
      <trkpt lat="42.62395" lon="1.54974">
        <ele>1725</ele>
        <time>2023-07-21T12:01:31.000Z</time>
      </trkpt>
      <trkpt lat="42.62397" lon="1.54979">
        <ele>1725.8000488281</ele>
        <time>2023-07-21T12:01:25.000Z</time>
      </trkpt>
      <trkpt lat="42.62397" lon="1.54985">
        <ele>1725.8000488281</ele>
        <time>2023-07-21T12:01:19.000Z</time>
      </trkpt>
      <trkpt lat="42.62394" lon="1.54985">
        <ele>1725.5999755859</ele>
        <time>2023-07-21T12:01:13.000Z</time>
      </trkpt>
      <trkpt lat="42.62392" lon="1.54981">
        <ele>1725.5999755859</ele>
        <time>2023-07-21T12:01:04.000Z</time>
      </trkpt>
      <trkpt lat="42.62395" lon="1.54984">
        <ele>1726.1999511719</ele>
        <time>2023-07-21T12:00:55.000Z</time>
      </trkpt>
      <trkpt lat="42.62399" lon="1.54985">
        <ele>1727</ele>
        <time>2023-07-21T12:00:50.000Z</time>
      </trkpt>
      <trkpt lat="42.62379" lon="1.54996">
        <ele>1731.4000244141</ele>
        <time>2023-07-21T12:00:27.000Z</time>
      </trkpt>
      <trkpt lat="42.62378" lon="1.54994">
        <ele>1732.4000244141</ele>
        <time>2023-07-21T12:00:23.000Z</time>
      </trkpt>
      <trkpt lat="42.62378" lon="1.54994">
        <ele>1732.5999755859</ele>
        <time>2023-07-21T12:00:22.000Z</time>
      </trkpt>
      <trkpt lat="42.62376" lon="1.54996">
        <ele>1733.4000244141</ele>
        <time>2023-07-21T12:00:18.000Z</time>
      </trkpt>
      <trkpt lat="42.62375" lon="1.54998">
        <ele>1733.8000488281</ele>
        <time>2023-07-21T12:00:17.000Z</time>
      </trkpt>
      <trkpt lat="42.62374" lon="1.55">
        <ele>1734.5999755859</ele>
        <time>2023-07-21T12:00:14.000Z</time>
      </trkpt>
      <trkpt lat="42.62374" lon="1.55002">
        <ele>1735.5999755859</ele>
        <time>2023-07-21T12:00:10.000Z</time>
      </trkpt>
      <trkpt lat="42.62376" lon="1.55003">
        <ele>1735.8000488281</ele>
        <time>2023-07-21T12:00:09.000Z</time>
      </trkpt>
      <trkpt lat="42.6237" lon="1.5501">
        <ele>1736.8000488281</ele>
        <time>2023-07-21T12:00:03.000Z</time>
      </trkpt>
      <trkpt lat="42.62373" lon="1.55011">
        <ele>1738</ele>
        <time>2023-07-21T11:59:57.000Z</time>
      </trkpt>
      <trkpt lat="42.62373" lon="1.55011">
        <ele>1738.1999511719</ele>
        <time>2023-07-21T11:59:56.000Z</time>
      </trkpt>
      <trkpt lat="42.62373" lon="1.55009">
        <ele>1738.4000244141</ele>
        <time>2023-07-21T11:59:55.000Z</time>
      </trkpt>
      <trkpt lat="42.62372" lon="1.55008">
        <ele>1738.8000488281</ele>
        <time>2023-07-21T11:59:52.000Z</time>
      </trkpt>
      <trkpt lat="42.62372" lon="1.55009">
        <ele>1739</ele>
        <time>2023-07-21T11:59:51.000Z</time>
      </trkpt>
      <trkpt lat="42.6237" lon="1.55008">
        <ele>1739</ele>
        <time>2023-07-21T11:59:50.000Z</time>
      </trkpt>
      <trkpt lat="42.62369" lon="1.55007">
        <ele>1739.1999511719</ele>
        <time>2023-07-21T11:59:48.000Z</time>
      </trkpt>
      <trkpt lat="42.62367" lon="1.5501">
        <ele>1740</ele>
        <time>2023-07-21T11:59:44.000Z</time>
      </trkpt>
      <trkpt lat="42.62368" lon="1.55012">
        <ele>1740.1999511719</ele>
        <time>2023-07-21T11:59:41.000Z</time>
      </trkpt>
      <trkpt lat="42.62368" lon="1.55015">
        <ele>1740.8000488281</ele>
        <time>2023-07-21T11:59:38.000Z</time>
      </trkpt>
      <trkpt lat="42.62369" lon="1.55016">
        <ele>1741</ele>
        <time>2023-07-21T11:59:37.000Z</time>
      </trkpt>
      <trkpt lat="42.62357" lon="1.55022">
        <ele>1748</ele>
        <time>2023-07-21T11:59:10.000Z</time>
      </trkpt>
      <trkpt lat="42.62355" lon="1.55022">
        <ele>1748.4000244141</ele>
        <time>2023-07-21T11:59:08.000Z</time>
      </trkpt>
      <trkpt lat="42.62345" lon="1.55019">
        <ele>1750.8000488281</ele>
        <time>2023-07-21T11:58:58.000Z</time>
      </trkpt>
      <trkpt lat="42.62342" lon="1.55018">
        <ele>1751.4000244141</ele>
        <time>2023-07-21T11:58:54.000Z</time>
      </trkpt>
      <trkpt lat="42.62342" lon="1.55018">
        <ele>1752.4000244141</ele>
        <time>2023-07-21T11:58:52.000Z</time>
      </trkpt>
      <trkpt lat="42.62341" lon="1.55019">
        <ele>1752.8000488281</ele>
        <time>2023-07-21T11:58:50.000Z</time>
      </trkpt>
      <trkpt lat="42.62339" lon="1.55024">
        <ele>1754</ele>
        <time>2023-07-21T11:58:45.000Z</time>
      </trkpt>
      <trkpt lat="42.62339" lon="1.55026">
        <ele>1754.4000244141</ele>
        <time>2023-07-21T11:58:43.000Z</time>
      </trkpt>
      <trkpt lat="42.62338" lon="1.55027">
        <ele>1755</ele>
        <time>2023-07-21T11:58:41.000Z</time>
      </trkpt>
      <trkpt lat="42.62335" lon="1.55028">
        <ele>1756.1999511719</ele>
        <time>2023-07-21T11:58:36.000Z</time>
      </trkpt>
      <trkpt lat="42.6233" lon="1.55029">
        <ele>1757</ele>
        <time>2023-07-21T11:58:32.000Z</time>
      </trkpt>
      <trkpt lat="42.6233" lon="1.55029">
        <ele>1757</ele>
        <time>2023-07-21T11:58:31.000Z</time>
      </trkpt>
      <trkpt lat="42.62329" lon="1.55029">
        <ele>1757.4000244141</ele>
        <time>2023-07-21T11:58:29.000Z</time>
      </trkpt>
      <trkpt lat="42.62329" lon="1.55034">
        <ele>1757.5999755859</ele>
        <time>2023-07-21T11:58:25.000Z</time>
      </trkpt>
      <trkpt lat="42.62334" lon="1.55039">
        <ele>1758.4000244141</ele>
        <time>2023-07-21T11:58:22.000Z</time>
      </trkpt>
      <trkpt lat="42.6234" lon="1.55045">
        <ele>1759.1999511719</ele>
        <time>2023-07-21T11:58:16.000Z</time>
      </trkpt>
      <trkpt lat="42.62344" lon="1.55055">
        <ele>1760</ele>
        <time>2023-07-21T11:58:07.000Z</time>
      </trkpt>
      <trkpt lat="42.62345" lon="1.55053">
        <ele>1759.5999755859</ele>
        <time>2023-07-21T11:57:56.000Z</time>
      </trkpt>
      <trkpt lat="42.62345" lon="1.55052">
        <ele>1759.5999755859</ele>
        <time>2023-07-21T11:57:55.000Z</time>
      </trkpt>
      <trkpt lat="42.62343" lon="1.55053">
        <ele>1759.8000488281</ele>
        <time>2023-07-21T11:57:47.000Z</time>
      </trkpt>
      <trkpt lat="42.62343" lon="1.55055">
        <ele>1760.5999755859</ele>
        <time>2023-07-21T11:57:44.000Z</time>
      </trkpt>
      <trkpt lat="42.62346" lon="1.55062">
        <ele>1761.1999511719</ele>
        <time>2023-07-21T11:57:40.000Z</time>
      </trkpt>
      <trkpt lat="42.62347" lon="1.55063">
        <ele>1761.4000244141</ele>
        <time>2023-07-21T11:57:39.000Z</time>
      </trkpt>
      <trkpt lat="42.62349" lon="1.55066">
        <ele>1761.8000488281</ele>
        <time>2023-07-21T11:57:37.000Z</time>
      </trkpt>
      <trkpt lat="42.62332" lon="1.55061">
        <ele>1767.1999511719</ele>
        <time>2023-07-21T11:57:14.000Z</time>
      </trkpt>
      <trkpt lat="42.62331" lon="1.5506">
        <ele>1767.8000488281</ele>
        <time>2023-07-21T11:57:12.000Z</time>
      </trkpt>
      <trkpt lat="42.62329" lon="1.55059">
        <ele>1768.1999511719</ele>
        <time>2023-07-21T11:57:10.000Z</time>
      </trkpt>
      <trkpt lat="42.62324" lon="1.55058">
        <ele>1769.4000244141</ele>
        <time>2023-07-21T11:57:05.000Z</time>
      </trkpt>
      <trkpt lat="42.62323" lon="1.55057">
        <ele>1770.4000244141</ele>
        <time>2023-07-21T11:57:02.000Z</time>
      </trkpt>
      <trkpt lat="42.62322" lon="1.55057">
        <ele>1770.8000488281</ele>
        <time>2023-07-21T11:57:01.000Z</time>
      </trkpt>
      <trkpt lat="42.62319" lon="1.55057">
        <ele>1771.4000244141</ele>
        <time>2023-07-21T11:56:57.000Z</time>
      </trkpt>
      <trkpt lat="42.62316" lon="1.55058">
        <ele>1772.1999511719</ele>
        <time>2023-07-21T11:56:54.000Z</time>
      </trkpt>
      <trkpt lat="42.62314" lon="1.55059">
        <ele>1772.5999755859</ele>
        <time>2023-07-21T11:56:52.000Z</time>
      </trkpt>
      <trkpt lat="42.62312" lon="1.55062">
        <ele>1773.1999511719</ele>
        <time>2023-07-21T11:56:47.000Z</time>
      </trkpt>
      <trkpt lat="42.62312" lon="1.55063">
        <ele>1773.5999755859</ele>
        <time>2023-07-21T11:56:45.000Z</time>
      </trkpt>
      <trkpt lat="42.62311" lon="1.55066">
        <ele>1774.5999755859</ele>
        <time>2023-07-21T11:56:42.000Z</time>
      </trkpt>
      <trkpt lat="42.62311" lon="1.55068">
        <ele>1775</ele>
        <time>2023-07-21T11:56:41.000Z</time>
      </trkpt>
      <trkpt lat="42.62308" lon="1.55071">
        <ele>1775.8000488281</ele>
        <time>2023-07-21T11:56:35.000Z</time>
      </trkpt>
      <trkpt lat="42.62307" lon="1.55074">
        <ele>1777</ele>
        <time>2023-07-21T11:56:31.000Z</time>
      </trkpt>
      <trkpt lat="42.62306" lon="1.55077">
        <ele>1778</ele>
        <time>2023-07-21T11:56:28.000Z</time>
      </trkpt>
      <trkpt lat="42.62306" lon="1.55077">
        <ele>1778.1999511719</ele>
        <time>2023-07-21T11:56:27.000Z</time>
      </trkpt>
      <trkpt lat="42.62305" lon="1.55078">
        <ele>1778.4000244141</ele>
        <time>2023-07-21T11:56:25.000Z</time>
      </trkpt>
      <trkpt lat="42.62307" lon="1.55081">
        <ele>1779</ele>
        <time>2023-07-21T11:56:21.000Z</time>
      </trkpt>
      <trkpt lat="42.62307" lon="1.55083">
        <ele>1779.1999511719</ele>
        <time>2023-07-21T11:56:20.000Z</time>
      </trkpt>
      <trkpt lat="42.62305" lon="1.55086">
        <ele>1780.4000244141</ele>
        <time>2023-07-21T11:56:15.000Z</time>
      </trkpt>
      <trkpt lat="42.62305" lon="1.55087">
        <ele>1780.5999755859</ele>
        <time>2023-07-21T11:56:14.000Z</time>
      </trkpt>
      <trkpt lat="42.62301" lon="1.55091">
        <ele>1781.8000488281</ele>
        <time>2023-07-21T11:56:09.000Z</time>
      </trkpt>
      <trkpt lat="42.62301" lon="1.55093">
        <ele>1782.8000488281</ele>
        <time>2023-07-21T11:56:05.000Z</time>
      </trkpt>
      <trkpt lat="42.62299" lon="1.55095">
        <ele>1783.4000244141</ele>
        <time>2023-07-21T11:56:02.000Z</time>
      </trkpt>
      <trkpt lat="42.62299" lon="1.55097">
        <ele>1783.8000488281</ele>
        <time>2023-07-21T11:56:01.000Z</time>
      </trkpt>
      <trkpt lat="42.62298" lon="1.551">
        <ele>1784.5999755859</ele>
        <time>2023-07-21T11:55:59.000Z</time>
      </trkpt>
      <trkpt lat="42.62297" lon="1.55103">
        <ele>1785</ele>
        <time>2023-07-21T11:55:57.000Z</time>
      </trkpt>
      <trkpt lat="42.62296" lon="1.55104">
        <ele>1785.1999511719</ele>
        <time>2023-07-21T11:55:56.000Z</time>
      </trkpt>
      <trkpt lat="42.62297" lon="1.5511">
        <ele>1786</ele>
        <time>2023-07-21T11:55:53.000Z</time>
      </trkpt>
      <trkpt lat="42.62296" lon="1.55112">
        <ele>1787.1999511719</ele>
        <time>2023-07-21T11:55:49.000Z</time>
      </trkpt>
      <trkpt lat="42.62293" lon="1.55116">
        <ele>1788.1999511719</ele>
        <time>2023-07-21T11:55:43.000Z</time>
      </trkpt>
      <trkpt lat="42.62293" lon="1.55117">
        <ele>1788.4000244141</ele>
        <time>2023-07-21T11:55:42.000Z</time>
      </trkpt>
      <trkpt lat="42.62293" lon="1.55119">
        <ele>1789.4000244141</ele>
        <time>2023-07-21T11:55:39.000Z</time>
      </trkpt>
      <trkpt lat="42.62292" lon="1.55123">
        <ele>1790.5999755859</ele>
        <time>2023-07-21T11:55:33.000Z</time>
      </trkpt>
      <trkpt lat="42.62291" lon="1.55123">
        <ele>1790.8000488281</ele>
        <time>2023-07-21T11:55:32.000Z</time>
      </trkpt>
      <trkpt lat="42.6229" lon="1.55124">
        <ele>1791.5999755859</ele>
        <time>2023-07-21T11:55:29.000Z</time>
      </trkpt>
      <trkpt lat="42.62289" lon="1.55127">
        <ele>1792</ele>
        <time>2023-07-21T11:55:26.000Z</time>
      </trkpt>
      <trkpt lat="42.62287" lon="1.55129">
        <ele>1792.5999755859</ele>
        <time>2023-07-21T11:55:23.000Z</time>
      </trkpt>
      <trkpt lat="42.62283" lon="1.55131">
        <ele>1793.4000244141</ele>
        <time>2023-07-21T11:55:18.000Z</time>
      </trkpt>
      <trkpt lat="42.62282" lon="1.55133">
        <ele>1793.8000488281</ele>
        <time>2023-07-21T11:55:16.000Z</time>
      </trkpt>
      <trkpt lat="42.62281" lon="1.55135">
        <ele>1794.1999511719</ele>
        <time>2023-07-21T11:55:13.000Z</time>
      </trkpt>
      <trkpt lat="42.62281" lon="1.55137">
        <ele>1794.8000488281</ele>
        <time>2023-07-21T11:55:10.000Z</time>
      </trkpt>
      <trkpt lat="42.62278" lon="1.55141">
        <ele>1795.5999755859</ele>
        <time>2023-07-21T11:55:06.000Z</time>
      </trkpt>
      <trkpt lat="42.62276" lon="1.55143">
        <ele>1795.8000488281</ele>
        <time>2023-07-21T11:55:04.000Z</time>
      </trkpt>
      <trkpt lat="42.62272" lon="1.55148">
        <ele>1797</ele>
        <time>2023-07-21T11:54:58.000Z</time>
      </trkpt>
      <trkpt lat="42.62269" lon="1.55155">
        <ele>1798.1999511719</ele>
        <time>2023-07-21T11:54:53.000Z</time>
      </trkpt>
      <trkpt lat="42.62268" lon="1.55157">
        <ele>1798.4000244141</ele>
        <time>2023-07-21T11:54:52.000Z</time>
      </trkpt>
      <trkpt lat="42.62267" lon="1.55161">
        <ele>1799.4000244141</ele>
        <time>2023-07-21T11:54:49.000Z</time>
      </trkpt>
      <trkpt lat="42.62266" lon="1.55167">
        <ele>1800.5999755859</ele>
        <time>2023-07-21T11:54:45.000Z</time>
      </trkpt>
      <trkpt lat="42.6227" lon="1.55165">
        <ele>1801.5999755859</ele>
        <time>2023-07-21T11:54:41.000Z</time>
      </trkpt>
      <trkpt lat="42.62274" lon="1.55163">
        <ele>1802.8000488281</ele>
        <time>2023-07-21T11:54:37.000Z</time>
      </trkpt>
      <trkpt lat="42.62276" lon="1.55163">
        <ele>1803.1999511719</ele>
        <time>2023-07-21T11:54:35.000Z</time>
      </trkpt>
      <trkpt lat="42.6228" lon="1.5516">
        <ele>1804</ele>
        <time>2023-07-21T11:54:32.000Z</time>
      </trkpt>
      <trkpt lat="42.62287" lon="1.55159">
        <ele>1805.1999511719</ele>
        <time>2023-07-21T11:54:26.000Z</time>
      </trkpt>
      <trkpt lat="42.62288" lon="1.55159">
        <ele>1805.4000244141</ele>
        <time>2023-07-21T11:54:25.000Z</time>
      </trkpt>
      <trkpt lat="42.62293" lon="1.55158">
        <ele>1806.4000244141</ele>
        <time>2023-07-21T11:54:20.000Z</time>
      </trkpt>
      <trkpt lat="42.62295" lon="1.55157">
        <ele>1807.1999511719</ele>
        <time>2023-07-21T11:54:17.000Z</time>
      </trkpt>
      <trkpt lat="42.62297" lon="1.55157">
        <ele>1807.5999755859</ele>
        <time>2023-07-21T11:54:16.000Z</time>
      </trkpt>
      <trkpt lat="42.623" lon="1.55157">
        <ele>1808.4000244141</ele>
        <time>2023-07-21T11:54:12.000Z</time>
      </trkpt>
      <trkpt lat="42.62304" lon="1.55159">
        <ele>1808.8000488281</ele>
        <time>2023-07-21T11:54:06.000Z</time>
      </trkpt>
      <trkpt lat="42.62305" lon="1.55159">
        <ele>1808.1999511719</ele>
        <time>2023-07-21T11:53:58.000Z</time>
      </trkpt>
      <trkpt lat="42.62303" lon="1.55161">
        <ele>1808.5999755859</ele>
        <time>2023-07-21T11:53:50.000Z</time>
      </trkpt>
      <trkpt lat="42.62305" lon="1.55164">
        <ele>1809.4000244141</ele>
        <time>2023-07-21T11:53:39.000Z</time>
      </trkpt>
      <trkpt lat="42.62307" lon="1.55165">
        <ele>1809.5999755859</ele>
        <time>2023-07-21T11:53:32.000Z</time>
      </trkpt>
      <trkpt lat="42.62306" lon="1.55165">
        <ele>1809.8000488281</ele>
        <time>2023-07-21T11:53:31.000Z</time>
      </trkpt>
      <trkpt lat="42.62305" lon="1.55164">
        <ele>1810</ele>
        <time>2023-07-21T11:53:24.000Z</time>
      </trkpt>
      <trkpt lat="42.62307" lon="1.55165">
        <ele>1810.8000488281</ele>
        <time>2023-07-21T11:53:14.000Z</time>
      </trkpt>
      <trkpt lat="42.6231" lon="1.55166">
        <ele>1811.1999511719</ele>
        <time>2023-07-21T11:53:08.000Z</time>
      </trkpt>
      <trkpt lat="42.62307" lon="1.55163">
        <ele>1811.8000488281</ele>
        <time>2023-07-21T11:53:02.000Z</time>
      </trkpt>
      <trkpt lat="42.6231" lon="1.55161">
        <ele>1811</ele>
        <time>2023-07-21T11:52:56.000Z</time>
      </trkpt>
      <trkpt lat="42.62307" lon="1.55154">
        <ele>1810.5999755859</ele>
        <time>2023-07-21T11:52:45.000Z</time>
      </trkpt>
      <trkpt lat="42.62309" lon="1.55154">
        <ele>1810.5999755859</ele>
        <time>2023-07-21T11:52:38.000Z</time>
      </trkpt>
      <trkpt lat="42.6231" lon="1.55161">
        <ele>1810.5999755859</ele>
        <time>2023-07-21T11:52:33.000Z</time>
      </trkpt>
      <trkpt lat="42.62309" lon="1.55162">
        <ele>1811</ele>
        <time>2023-07-21T11:52:27.000Z</time>
      </trkpt>
      <trkpt lat="42.62307" lon="1.55165">
        <ele>1811</ele>
        <time>2023-07-21T11:52:19.000Z</time>
      </trkpt>
      <trkpt lat="42.62307" lon="1.55167">
        <ele>1811.1999511719</ele>
        <time>2023-07-21T11:52:12.000Z</time>
      </trkpt>
      <trkpt lat="42.62308" lon="1.55167">
        <ele>1811.8000488281</ele>
        <time>2023-07-21T11:52:07.000Z</time>
      </trkpt>
      <trkpt lat="42.62308" lon="1.55168">
        <ele>1812</ele>
        <time>2023-07-21T11:52:04.000Z</time>
      </trkpt>
      <trkpt lat="42.62301" lon="1.55171">
        <ele>1812.4000244141</ele>
        <time>2023-07-21T11:51:56.000Z</time>
      </trkpt>
      <trkpt lat="42.62292" lon="1.55173">
        <ele>1812.5999755859</ele>
        <time>2023-07-21T11:51:50.000Z</time>
      </trkpt>
      <trkpt lat="42.62287" lon="1.55175">
        <ele>1812.8000488281</ele>
        <time>2023-07-21T11:51:48.000Z</time>
      </trkpt>
      <trkpt lat="42.6228" lon="1.55179">
        <ele>1813</ele>
        <time>2023-07-21T11:51:44.000Z</time>
      </trkpt>
      <trkpt lat="42.62276" lon="1.55185">
        <ele>1813.8000488281</ele>
        <time>2023-07-21T11:51:39.000Z</time>
      </trkpt>
      <trkpt lat="42.62274" lon="1.5519">
        <ele>1814</ele>
        <time>2023-07-21T11:51:37.000Z</time>
      </trkpt>
      <trkpt lat="42.62268" lon="1.55203">
        <ele>1814.4000244141</ele>
        <time>2023-07-21T11:51:31.000Z</time>
      </trkpt>
      <trkpt lat="42.6226" lon="1.55215">
        <ele>1814.8000488281</ele>
        <time>2023-07-21T11:51:24.000Z</time>
      </trkpt>
      <trkpt lat="42.62259" lon="1.55216">
        <ele>1814.8000488281</ele>
        <time>2023-07-21T11:51:23.000Z</time>
      </trkpt>
      <trkpt lat="42.62252" lon="1.5522">
        <ele>1815.1999511719</ele>
        <time>2023-07-21T11:51:17.000Z</time>
      </trkpt>
      <trkpt lat="42.62248" lon="1.55222">
        <ele>1815.8000488281</ele>
        <time>2023-07-21T11:51:14.000Z</time>
      </trkpt>
      <trkpt lat="42.62238" lon="1.55227">
        <ele>1816.5999755859</ele>
        <time>2023-07-21T11:51:07.000Z</time>
      </trkpt>
      <trkpt lat="42.62234" lon="1.55229">
        <ele>1816.8000488281</ele>
        <time>2023-07-21T11:51:05.000Z</time>
      </trkpt>
      <trkpt lat="42.6223" lon="1.55231">
        <ele>1817</ele>
        <time>2023-07-21T11:51:02.000Z</time>
      </trkpt>
      <trkpt lat="42.62224" lon="1.55237">
        <ele>1818</ele>
        <time>2023-07-21T11:50:56.000Z</time>
      </trkpt>
      <trkpt lat="42.62218" lon="1.55245">
        <ele>1818.8000488281</ele>
        <time>2023-07-21T11:50:48.000Z</time>
      </trkpt>
      <trkpt lat="42.62219" lon="1.5525">
        <ele>1819</ele>
        <time>2023-07-21T11:50:44.000Z</time>
      </trkpt>
      <trkpt lat="42.6222" lon="1.55252">
        <ele>1819</ele>
        <time>2023-07-21T11:50:43.000Z</time>
      </trkpt>
      <trkpt lat="42.62221" lon="1.55256">
        <ele>1819.1999511719</ele>
        <time>2023-07-21T11:50:41.000Z</time>
      </trkpt>
      <trkpt lat="42.62229" lon="1.55259">
        <ele>1820</ele>
        <time>2023-07-21T11:50:36.000Z</time>
      </trkpt>
      <trkpt lat="42.62231" lon="1.55258">
        <ele>1820.1999511719</ele>
        <time>2023-07-21T11:50:34.000Z</time>
      </trkpt>
      <trkpt lat="42.62239" lon="1.5525">
        <ele>1821.1999511719</ele>
        <time>2023-07-21T11:50:28.000Z</time>
      </trkpt>
      <trkpt lat="42.6224" lon="1.55248">
        <ele>1821.1999511719</ele>
        <time>2023-07-21T11:50:26.000Z</time>
      </trkpt>
      <trkpt lat="42.62249" lon="1.55244">
        <ele>1822.1999511719</ele>
        <time>2023-07-21T11:50:20.000Z</time>
      </trkpt>
      <trkpt lat="42.62252" lon="1.55244">
        <ele>1822.4000244141</ele>
        <time>2023-07-21T11:50:18.000Z</time>
      </trkpt>
      <trkpt lat="42.62261" lon="1.5524">
        <ele>1823.1999511719</ele>
        <time>2023-07-21T11:50:10.000Z</time>
      </trkpt>
      <trkpt lat="42.62262" lon="1.5524">
        <ele>1823.1999511719</ele>
        <time>2023-07-21T11:50:09.000Z</time>
      </trkpt>
      <trkpt lat="42.62273" lon="1.55231">
        <ele>1823.8000488281</ele>
        <time>2023-07-21T11:50:02.000Z</time>
      </trkpt>
      <trkpt lat="42.62283" lon="1.55221">
        <ele>1824.1999511719</ele>
        <time>2023-07-21T11:49:54.000Z</time>
      </trkpt>
      <trkpt lat="42.62289" lon="1.55219">
        <ele>1824.1999511719</ele>
        <time>2023-07-21T11:49:50.000Z</time>
      </trkpt>
      <trkpt lat="42.6229" lon="1.55218">
        <ele>1824.4000244141</ele>
        <time>2023-07-21T11:49:48.000Z</time>
      </trkpt>
      <trkpt lat="42.62291" lon="1.55218">
        <ele>1825</ele>
        <time>2023-07-21T11:49:39.000Z</time>
      </trkpt>
      <trkpt lat="42.62295" lon="1.55216">
        <ele>1825.1999511719</ele>
        <time>2023-07-21T11:49:20.000Z</time>
      </trkpt>
      <trkpt lat="42.62295" lon="1.55215">
        <ele>1825.1999511719</ele>
        <time>2023-07-21T11:49:15.000Z</time>
      </trkpt>
      <trkpt lat="42.62297" lon="1.55214">
        <ele>1826</ele>
        <time>2023-07-21T11:49:10.000Z</time>
      </trkpt>
      <trkpt lat="42.623" lon="1.55214">
        <ele>1826.4000244141</ele>
        <time>2023-07-21T11:49:08.000Z</time>
      </trkpt>
      <trkpt lat="42.62305" lon="1.55217">
        <ele>1827.4000244141</ele>
        <time>2023-07-21T11:49:03.000Z</time>
      </trkpt>
      <trkpt lat="42.62306" lon="1.55218">
        <ele>1827.5999755859</ele>
        <time>2023-07-21T11:49:02.000Z</time>
      </trkpt>
      <trkpt lat="42.62303" lon="1.55223">
        <ele>1828.1999511719</ele>
        <time>2023-07-21T11:48:58.000Z</time>
      </trkpt>
      <trkpt lat="42.62295" lon="1.55229">
        <ele>1828.5999755859</ele>
        <time>2023-07-21T11:48:54.000Z</time>
      </trkpt>
      <trkpt lat="42.62287" lon="1.55232">
        <ele>1829.8000488281</ele>
        <time>2023-07-21T11:48:49.000Z</time>
      </trkpt>
      <trkpt lat="42.62285" lon="1.55232">
        <ele>1830</ele>
        <time>2023-07-21T11:48:48.000Z</time>
      </trkpt>
      <trkpt lat="42.62273" lon="1.55241">
        <ele>1830.8000488281</ele>
        <time>2023-07-21T11:48:40.000Z</time>
      </trkpt>
      <trkpt lat="42.62271" lon="1.55243">
        <ele>1831.1999511719</ele>
        <time>2023-07-21T11:48:38.000Z</time>
      </trkpt>
      <trkpt lat="42.62265" lon="1.55254">
        <ele>1831.8000488281</ele>
        <time>2023-07-21T11:48:30.000Z</time>
      </trkpt>
      <trkpt lat="42.62264" lon="1.55255">
        <ele>1832</ele>
        <time>2023-07-21T11:48:29.000Z</time>
      </trkpt>
      <trkpt lat="42.62254" lon="1.55266">
        <ele>1832.8000488281</ele>
        <time>2023-07-21T11:48:21.000Z</time>
      </trkpt>
      <trkpt lat="42.62253" lon="1.55267">
        <ele>1833</ele>
        <time>2023-07-21T11:48:20.000Z</time>
      </trkpt>
      <trkpt lat="42.62246" lon="1.55273">
        <ele>1834</ele>
        <time>2023-07-21T11:48:15.000Z</time>
      </trkpt>
      <trkpt lat="42.62243" lon="1.55278">
        <ele>1834.4000244141</ele>
        <time>2023-07-21T11:48:12.000Z</time>
      </trkpt>
      <trkpt lat="42.62235" lon="1.55292">
        <ele>1835.1999511719</ele>
        <time>2023-07-21T11:48:04.000Z</time>
      </trkpt>
      <trkpt lat="42.62226" lon="1.55302">
        <ele>1836.4000244141</ele>
        <time>2023-07-21T11:47:55.000Z</time>
      </trkpt>
      <trkpt lat="42.62218" lon="1.5531">
        <ele>1837.4000244141</ele>
        <time>2023-07-21T11:47:48.000Z</time>
      </trkpt>
      <trkpt lat="42.62216" lon="1.55313">
        <ele>1838.1999511719</ele>
        <time>2023-07-21T11:47:45.000Z</time>
      </trkpt>
      <trkpt lat="42.62215" lon="1.55314">
        <ele>1838.5999755859</ele>
        <time>2023-07-21T11:47:44.000Z</time>
      </trkpt>
      <trkpt lat="42.62209" lon="1.55323">
        <ele>1839.4000244141</ele>
        <time>2023-07-21T11:47:37.000Z</time>
      </trkpt>
      <trkpt lat="42.62209" lon="1.55325">
        <ele>1839.5999755859</ele>
        <time>2023-07-21T11:47:36.000Z</time>
      </trkpt>
      <trkpt lat="42.62204" lon="1.55339">
        <ele>1840.4000244141</ele>
        <time>2023-07-21T11:47:29.000Z</time>
      </trkpt>
      <trkpt lat="42.62199" lon="1.5535">
        <ele>1840.8000488281</ele>
        <time>2023-07-21T11:47:23.000Z</time>
      </trkpt>
      <trkpt lat="42.62198" lon="1.55351">
        <ele>1840.5999755859</ele>
        <time>2023-07-21T11:47:15.000Z</time>
      </trkpt>
      <trkpt lat="42.62201" lon="1.55352">
        <ele>1840.5999755859</ele>
        <time>2023-07-21T11:47:05.000Z</time>
      </trkpt>
      <trkpt lat="42.62201" lon="1.55352">
        <ele>1840.5999755859</ele>
        <time>2023-07-21T11:47:02.000Z</time>
      </trkpt>
      <trkpt lat="42.62201" lon="1.55352">
        <ele>1840.5999755859</ele>
        <time>2023-07-21T11:47:01.000Z</time>
      </trkpt>
      <trkpt lat="42.62202" lon="1.55353">
        <ele>1841</ele>
        <time>2023-07-21T11:46:57.000Z</time>
      </trkpt>
      <trkpt lat="42.62202" lon="1.55362">
        <ele>1841.5999755859</ele>
        <time>2023-07-21T11:46:52.000Z</time>
      </trkpt>
      <trkpt lat="42.62202" lon="1.55368">
        <ele>1842.4000244141</ele>
        <time>2023-07-21T11:46:49.000Z</time>
      </trkpt>
      <trkpt lat="42.62202" lon="1.55377">
        <ele>1843</ele>
        <time>2023-07-21T11:46:44.000Z</time>
      </trkpt>
      <trkpt lat="42.62201" lon="1.55378">
        <ele>1843.1999511719</ele>
        <time>2023-07-21T11:46:43.000Z</time>
      </trkpt>
      <trkpt lat="42.62196" lon="1.55389">
        <ele>1844</ele>
        <time>2023-07-21T11:46:37.000Z</time>
      </trkpt>
      <trkpt lat="42.62195" lon="1.55391">
        <ele>1844</ele>
        <time>2023-07-21T11:46:36.000Z</time>
      </trkpt>
      <trkpt lat="42.62184" lon="1.55407">
        <ele>1845.1999511719</ele>
        <time>2023-07-21T11:46:26.000Z</time>
      </trkpt>
      <trkpt lat="42.62177" lon="1.55414">
        <ele>1845.4000244141</ele>
        <time>2023-07-21T11:46:19.000Z</time>
      </trkpt>
      <trkpt lat="42.62174" lon="1.55418">
        <ele>1845.4000244141</ele>
        <time>2023-07-21T11:46:16.000Z</time>
      </trkpt>
      <trkpt lat="42.62173" lon="1.55417">
        <ele>1845.4000244141</ele>
        <time>2023-07-21T11:46:09.000Z</time>
      </trkpt>
      <trkpt lat="42.62174" lon="1.55415">
        <ele>1845.1999511719</ele>
        <time>2023-07-21T11:46:00.000Z</time>
      </trkpt>
      <trkpt lat="42.62172" lon="1.55416">
        <ele>1844.8000488281</ele>
        <time>2023-07-21T11:45:53.000Z</time>
      </trkpt>
      <trkpt lat="42.6217" lon="1.55418">
        <ele>1845</ele>
        <time>2023-07-21T11:45:45.000Z</time>
      </trkpt>
      <trkpt lat="42.62169" lon="1.55418">
        <ele>1845</ele>
        <time>2023-07-21T11:45:41.000Z</time>
      </trkpt>
      <trkpt lat="42.62166" lon="1.55415">
        <ele>1844.8000488281</ele>
        <time>2023-07-21T11:45:35.000Z</time>
      </trkpt>
      <trkpt lat="42.62165" lon="1.55415">
        <ele>1845</ele>
        <time>2023-07-21T11:45:34.000Z</time>
      </trkpt>
      <trkpt lat="42.62164" lon="1.55419">
        <ele>1845.8000488281</ele>
        <time>2023-07-21T11:45:29.000Z</time>
      </trkpt>
      <trkpt lat="42.62164" lon="1.55424">
        <ele>1846</ele>
        <time>2023-07-21T11:45:26.000Z</time>
      </trkpt>
      <trkpt lat="42.62162" lon="1.55431">
        <ele>1846.5999755859</ele>
        <time>2023-07-21T11:45:22.000Z</time>
      </trkpt>
      <trkpt lat="42.6216" lon="1.55436">
        <ele>1847</ele>
        <time>2023-07-21T11:45:19.000Z</time>
      </trkpt>
      <trkpt lat="42.62156" lon="1.55443">
        <ele>1847.4000244141</ele>
        <time>2023-07-21T11:45:15.000Z</time>
      </trkpt>
      <trkpt lat="42.62153" lon="1.5545">
        <ele>1848</ele>
        <time>2023-07-21T11:45:10.000Z</time>
      </trkpt>
      <trkpt lat="42.62151" lon="1.55452">
        <ele>1848.4000244141</ele>
        <time>2023-07-21T11:45:08.000Z</time>
      </trkpt>
      <trkpt lat="42.62147" lon="1.55461">
        <ele>1849</ele>
        <time>2023-07-21T11:45:02.000Z</time>
      </trkpt>
      <trkpt lat="42.62147" lon="1.55461">
        <ele>1849.1999511719</ele>
        <time>2023-07-21T11:45:01.000Z</time>
      </trkpt>
      <trkpt lat="42.62143" lon="1.55473">
        <ele>1850.1999511719</ele>
        <time>2023-07-21T11:44:54.000Z</time>
      </trkpt>
      <trkpt lat="42.62141" lon="1.55477">
        <ele>1851.4000244141</ele>
        <time>2023-07-21T11:44:47.000Z</time>
      </trkpt>
      <trkpt lat="42.62141" lon="1.55476">
        <ele>1851.5999755859</ele>
        <time>2023-07-21T11:44:46.000Z</time>
      </trkpt>
      <trkpt lat="42.62143" lon="1.55471">
        <ele>1852.4000244141</ele>
        <time>2023-07-21T11:44:42.000Z</time>
      </trkpt>
      <trkpt lat="42.62148" lon="1.5547">
        <ele>1853</ele>
        <time>2023-07-21T11:44:39.000Z</time>
      </trkpt>
      <trkpt lat="42.62154" lon="1.55468">
        <ele>1853.4000244141</ele>
        <time>2023-07-21T11:44:35.000Z</time>
      </trkpt>
      <trkpt lat="42.62159" lon="1.55464">
        <ele>1853.8000488281</ele>
        <time>2023-07-21T11:44:32.000Z</time>
      </trkpt>
      <trkpt lat="42.62164" lon="1.55458">
        <ele>1854.1999511719</ele>
        <time>2023-07-21T11:44:27.000Z</time>
      </trkpt>
      <trkpt lat="42.62166" lon="1.55456">
        <ele>1854.5999755859</ele>
        <time>2023-07-21T11:44:25.000Z</time>
      </trkpt>
      <trkpt lat="42.62171" lon="1.55453">
        <ele>1855.5999755859</ele>
        <time>2023-07-21T11:44:21.000Z</time>
      </trkpt>
      <trkpt lat="42.62172" lon="1.55453">
        <ele>1855.8000488281</ele>
        <time>2023-07-21T11:44:20.000Z</time>
      </trkpt>
      <trkpt lat="42.62175" lon="1.5545">
        <ele>1856.5999755859</ele>
        <time>2023-07-21T11:44:16.000Z</time>
      </trkpt>
      <trkpt lat="42.6218" lon="1.55447">
        <ele>1857.1999511719</ele>
        <time>2023-07-21T11:44:12.000Z</time>
      </trkpt>
      <trkpt lat="42.62191" lon="1.55442">
        <ele>1857.5999755859</ele>
        <time>2023-07-21T11:44:05.000Z</time>
      </trkpt>
      <trkpt lat="42.62194" lon="1.5544">
        <ele>1857.8000488281</ele>
        <time>2023-07-21T11:44:03.000Z</time>
      </trkpt>
      <trkpt lat="42.622" lon="1.55433">
        <ele>1858.4000244141</ele>
        <time>2023-07-21T11:43:57.000Z</time>
      </trkpt>
      <trkpt lat="42.62204" lon="1.5543">
        <ele>1858.8000488281</ele>
        <time>2023-07-21T11:43:53.000Z</time>
      </trkpt>
      <trkpt lat="42.62206" lon="1.55429">
        <ele>1859</ele>
        <time>2023-07-21T11:43:51.000Z</time>
      </trkpt>
      <trkpt lat="42.62216" lon="1.55421">
        <ele>1859.4000244141</ele>
        <time>2023-07-21T11:43:44.000Z</time>
      </trkpt>
      <trkpt lat="42.62224" lon="1.55414">
        <ele>1859.8000488281</ele>
        <time>2023-07-21T11:43:37.000Z</time>
      </trkpt>
      <trkpt lat="42.62225" lon="1.55412">
        <ele>1859.8000488281</ele>
        <time>2023-07-21T11:43:36.000Z</time>
      </trkpt>
      <trkpt lat="42.62229" lon="1.55407">
        <ele>1860.8000488281</ele>
        <time>2023-07-21T11:43:31.000Z</time>
      </trkpt>
      <trkpt lat="42.6223" lon="1.55406">
        <ele>1861</ele>
        <time>2023-07-21T11:43:30.000Z</time>
      </trkpt>
      <trkpt lat="42.62233" lon="1.55399">
        <ele>1861.4000244141</ele>
        <time>2023-07-21T11:43:23.000Z</time>
      </trkpt>
      <trkpt lat="42.62235" lon="1.55392">
        <ele>1862</ele>
        <time>2023-07-21T11:43:19.000Z</time>
      </trkpt>
      <trkpt lat="42.62237" lon="1.55383">
        <ele>1862.5999755859</ele>
        <time>2023-07-21T11:43:14.000Z</time>
      </trkpt>
      <trkpt lat="42.62239" lon="1.55374">
        <ele>1863</ele>
        <time>2023-07-21T11:43:09.000Z</time>
      </trkpt>
      <trkpt lat="42.6224" lon="1.55371">
        <ele>1863.4000244141</ele>
        <time>2023-07-21T11:43:07.000Z</time>
      </trkpt>
      <trkpt lat="42.62242" lon="1.55361">
        <ele>1864.1999511719</ele>
        <time>2023-07-21T11:43:03.000Z</time>
      </trkpt>
      <trkpt lat="42.62243" lon="1.55347">
        <ele>1864.5999755859</ele>
        <time>2023-07-21T11:42:59.000Z</time>
      </trkpt>
      <trkpt lat="42.62243" lon="1.55344">
        <ele>1864.5999755859</ele>
        <time>2023-07-21T11:42:58.000Z</time>
      </trkpt>
      <trkpt lat="42.62243" lon="1.55333">
        <ele>1865</ele>
        <time>2023-07-21T11:42:53.000Z</time>
      </trkpt>
      <trkpt lat="42.62244" lon="1.55332">
        <ele>1865.1999511719</ele>
        <time>2023-07-21T11:42:51.000Z</time>
      </trkpt>
      <trkpt lat="42.62246" lon="1.5533">
        <ele>1866.1999511719</ele>
        <time>2023-07-21T11:42:47.000Z</time>
      </trkpt>
      <trkpt lat="42.62248" lon="1.55329">
        <ele>1866.5999755859</ele>
        <time>2023-07-21T11:42:45.000Z</time>
      </trkpt>
      <trkpt lat="42.62252" lon="1.55326">
        <ele>1867.1999511719</ele>
        <time>2023-07-21T11:42:41.000Z</time>
      </trkpt>
      <trkpt lat="42.62254" lon="1.55324">
        <ele>1867.4000244141</ele>
        <time>2023-07-21T11:42:38.000Z</time>
      </trkpt>
      <trkpt lat="42.62256" lon="1.55322">
        <ele>1867.5999755859</ele>
        <time>2023-07-21T11:42:36.000Z</time>
      </trkpt>
      <trkpt lat="42.6227" lon="1.55314">
        <ele>1869.4000244141</ele>
        <time>2023-07-21T11:42:26.000Z</time>
      </trkpt>
      <trkpt lat="42.62282" lon="1.55317">
        <ele>1869</ele>
        <time>2023-07-21T11:42:19.000Z</time>
      </trkpt>
      <trkpt lat="42.62287" lon="1.5532">
        <ele>1870.4000244141</ele>
        <time>2023-07-21T11:42:13.000Z</time>
      </trkpt>
      <trkpt lat="42.62291" lon="1.55325">
        <ele>1870.4000244141</ele>
        <time>2023-07-21T11:42:07.000Z</time>
      </trkpt>
      <trkpt lat="42.62289" lon="1.5533">
        <ele>1869.8000488281</ele>
        <time>2023-07-21T11:42:00.000Z</time>
      </trkpt>
      <trkpt lat="42.62288" lon="1.55337">
        <ele>1869.5999755859</ele>
        <time>2023-07-21T11:41:53.000Z</time>
      </trkpt>
      <trkpt lat="42.62288" lon="1.55341">
        <ele>1870.5999755859</ele>
        <time>2023-07-21T11:41:51.000Z</time>
      </trkpt>
      <trkpt lat="42.62287" lon="1.55344">
        <ele>1871.1999511719</ele>
        <time>2023-07-21T11:41:49.000Z</time>
      </trkpt>
      <trkpt lat="42.62285" lon="1.55351">
        <ele>1872.4000244141</ele>
        <time>2023-07-21T11:41:45.000Z</time>
      </trkpt>
      <trkpt lat="42.62284" lon="1.55358">
        <ele>1872.8000488281</ele>
        <time>2023-07-21T11:41:42.000Z</time>
      </trkpt>
      <trkpt lat="42.6228" lon="1.55368">
        <ele>1873.4000244141</ele>
        <time>2023-07-21T11:41:36.000Z</time>
      </trkpt>
      <trkpt lat="42.62276" lon="1.55369">
        <ele>1873.4000244141</ele>
        <time>2023-07-21T11:41:33.000Z</time>
      </trkpt>
      <trkpt lat="42.62269" lon="1.55378">
        <ele>1873.5999755859</ele>
        <time>2023-07-21T11:41:27.000Z</time>
      </trkpt>
      <trkpt lat="42.62265" lon="1.55386">
        <ele>1874.1999511719</ele>
        <time>2023-07-21T11:41:20.000Z</time>
      </trkpt>
      <trkpt lat="42.62263" lon="1.55389">
        <ele>1874.4000244141</ele>
        <time>2023-07-21T11:41:18.000Z</time>
      </trkpt>
      <trkpt lat="42.62256" lon="1.5541">
        <ele>1875.5999755859</ele>
        <time>2023-07-21T11:41:07.000Z</time>
      </trkpt>
      <trkpt lat="42.62252" lon="1.55422">
        <ele>1876.5999755859</ele>
        <time>2023-07-21T11:41:00.000Z</time>
      </trkpt>
      <trkpt lat="42.62248" lon="1.55434">
        <ele>1877.4000244141</ele>
        <time>2023-07-21T11:40:53.000Z</time>
      </trkpt>
      <trkpt lat="42.62247" lon="1.55445">
        <ele>1877.5999755859</ele>
        <time>2023-07-21T11:40:48.000Z</time>
      </trkpt>
      <trkpt lat="42.62244" lon="1.55454">
        <ele>1878.5999755859</ele>
        <time>2023-07-21T11:40:43.000Z</time>
      </trkpt>
      <trkpt lat="42.62243" lon="1.55458">
        <ele>1878.8000488281</ele>
        <time>2023-07-21T11:40:41.000Z</time>
      </trkpt>
      <trkpt lat="42.62242" lon="1.55469">
        <ele>1879.4000244141</ele>
        <time>2023-07-21T11:40:36.000Z</time>
      </trkpt>
      <trkpt lat="42.62239" lon="1.55475">
        <ele>1880</ele>
        <time>2023-07-21T11:40:33.000Z</time>
      </trkpt>
      <trkpt lat="42.62234" lon="1.55481">
        <ele>1881</ele>
        <time>2023-07-21T11:40:29.000Z</time>
      </trkpt>
      <trkpt lat="42.62234" lon="1.55488">
        <ele>1882</ele>
        <time>2023-07-21T11:40:25.000Z</time>
      </trkpt>
      <trkpt lat="42.62233" lon="1.55492">
        <ele>1882.4000244141</ele>
        <time>2023-07-21T11:40:23.000Z</time>
      </trkpt>
      <trkpt lat="42.62226" lon="1.55496">
        <ele>1883.5999755859</ele>
        <time>2023-07-21T11:40:18.000Z</time>
      </trkpt>
      <trkpt lat="42.62223" lon="1.55499">
        <ele>1884</ele>
        <time>2023-07-21T11:40:16.000Z</time>
      </trkpt>
      <trkpt lat="42.62219" lon="1.55504">
        <ele>1884.5999755859</ele>
        <time>2023-07-21T11:40:12.000Z</time>
      </trkpt>
      <trkpt lat="42.62216" lon="1.55508">
        <ele>1885.1999511719</ele>
        <time>2023-07-21T11:40:09.000Z</time>
      </trkpt>
      <trkpt lat="42.6221" lon="1.55516">
        <ele>1885.8000488281</ele>
        <time>2023-07-21T11:40:02.000Z</time>
      </trkpt>
      <trkpt lat="42.6221" lon="1.55519">
        <ele>1885.8000488281</ele>
        <time>2023-07-21T11:40:00.000Z</time>
      </trkpt>
      <trkpt lat="42.62208" lon="1.55525">
        <ele>1886.8000488281</ele>
        <time>2023-07-21T11:39:56.000Z</time>
      </trkpt>
      <trkpt lat="42.62206" lon="1.5553">
        <ele>1887.1999511719</ele>
        <time>2023-07-21T11:39:53.000Z</time>
      </trkpt>
      <trkpt lat="42.62201" lon="1.5554">
        <ele>1887.8000488281</ele>
        <time>2023-07-21T11:39:48.000Z</time>
      </trkpt>
      <trkpt lat="42.62198" lon="1.55545">
        <ele>1888.4000244141</ele>
        <time>2023-07-21T11:39:45.000Z</time>
      </trkpt>
      <trkpt lat="42.62193" lon="1.55553">
        <ele>1889</ele>
        <time>2023-07-21T11:39:40.000Z</time>
      </trkpt>
      <trkpt lat="42.6219" lon="1.55559">
        <ele>1889.4000244141</ele>
        <time>2023-07-21T11:39:37.000Z</time>
      </trkpt>
      <trkpt lat="42.62185" lon="1.55568">
        <ele>1890.1999511719</ele>
        <time>2023-07-21T11:39:29.000Z</time>
      </trkpt>
      <trkpt lat="42.62184" lon="1.55569">
        <ele>1890.5999755859</ele>
        <time>2023-07-21T11:39:28.000Z</time>
      </trkpt>
      <trkpt lat="42.62178" lon="1.55579">
        <ele>1890.8000488281</ele>
        <time>2023-07-21T11:39:22.000Z</time>
      </trkpt>
      <trkpt lat="42.62176" lon="1.55581">
        <ele>1891.1999511719</ele>
        <time>2023-07-21T11:39:20.000Z</time>
      </trkpt>
      <trkpt lat="42.62173" lon="1.55584">
        <ele>1891.8000488281</ele>
        <time>2023-07-21T11:39:16.000Z</time>
      </trkpt>
      <trkpt lat="42.62169" lon="1.55593">
        <ele>1892.4000244141</ele>
        <time>2023-07-21T11:39:11.000Z</time>
      </trkpt>
      <trkpt lat="42.62167" lon="1.55598">
        <ele>1892.5999755859</ele>
        <time>2023-07-21T11:39:08.000Z</time>
      </trkpt>
      <trkpt lat="42.62164" lon="1.55611">
        <ele>1893.4000244141</ele>
        <time>2023-07-21T11:39:01.000Z</time>
      </trkpt>
      <trkpt lat="42.62163" lon="1.55613">
        <ele>1893.4000244141</ele>
        <time>2023-07-21T11:39:00.000Z</time>
      </trkpt>
      <trkpt lat="42.62162" lon="1.55632">
        <ele>1894.4000244141</ele>
        <time>2023-07-21T11:38:51.000Z</time>
      </trkpt>
      <trkpt lat="42.62162" lon="1.55634">
        <ele>1894.5999755859</ele>
        <time>2023-07-21T11:38:50.000Z</time>
      </trkpt>
      <trkpt lat="42.62161" lon="1.55652">
        <ele>1895.5999755859</ele>
        <time>2023-07-21T11:38:41.000Z</time>
      </trkpt>
      <trkpt lat="42.62162" lon="1.55666">
        <ele>1896.1999511719</ele>
        <time>2023-07-21T11:38:34.000Z</time>
      </trkpt>
      <trkpt lat="42.62161" lon="1.55675">
        <ele>1896.5999755859</ele>
        <time>2023-07-21T11:38:30.000Z</time>
      </trkpt>
      <trkpt lat="42.62161" lon="1.55681">
        <ele>1896.8000488281</ele>
        <time>2023-07-21T11:38:27.000Z</time>
      </trkpt>
      <trkpt lat="42.6216" lon="1.55696">
        <ele>1897.5999755859</ele>
        <time>2023-07-21T11:38:19.000Z</time>
      </trkpt>
      <trkpt lat="42.62158" lon="1.5571">
        <ele>1898.1999511719</ele>
        <time>2023-07-21T11:38:13.000Z</time>
      </trkpt>
      <trkpt lat="42.62157" lon="1.5572">
        <ele>1898.5999755859</ele>
        <time>2023-07-21T11:38:07.000Z</time>
      </trkpt>
      <trkpt lat="42.62157" lon="1.5572">
        <ele>1898.8000488281</ele>
        <time>2023-07-21T11:38:06.000Z</time>
      </trkpt>
      <trkpt lat="42.62155" lon="1.55729">
        <ele>1899.8000488281</ele>
        <time>2023-07-21T11:38:01.000Z</time>
      </trkpt>
      <trkpt lat="42.62153" lon="1.55737">
        <ele>1900</ele>
        <time>2023-07-21T11:37:58.000Z</time>
      </trkpt>
      <trkpt lat="42.62151" lon="1.55757">
        <ele>1900.5999755859</ele>
        <time>2023-07-21T11:37:49.000Z</time>
      </trkpt>
      <trkpt lat="42.62151" lon="1.55765">
        <ele>1900.8000488281</ele>
        <time>2023-07-21T11:37:44.000Z</time>
      </trkpt>
      <trkpt lat="42.62152" lon="1.55769">
        <ele>1901.1999511719</ele>
        <time>2023-07-21T11:37:41.000Z</time>
      </trkpt>
      <trkpt lat="42.62151" lon="1.55786">
        <ele>1901.8000488281</ele>
        <time>2023-07-21T11:37:33.000Z</time>
      </trkpt>
      <trkpt lat="42.62151" lon="1.5579">
        <ele>1902</ele>
        <time>2023-07-21T11:37:31.000Z</time>
      </trkpt>
      <trkpt lat="42.62146" lon="1.55799">
        <ele>1902.5999755859</ele>
        <time>2023-07-21T11:37:25.000Z</time>
      </trkpt>
      <trkpt lat="42.62143" lon="1.55806">
        <ele>1903</ele>
        <time>2023-07-21T11:37:21.000Z</time>
      </trkpt>
      <trkpt lat="42.62141" lon="1.55811">
        <ele>1903.4000244141</ele>
        <time>2023-07-21T11:37:18.000Z</time>
      </trkpt>
      <trkpt lat="42.62139" lon="1.55823">
        <ele>1904</ele>
        <time>2023-07-21T11:37:12.000Z</time>
      </trkpt>
      <trkpt lat="42.62139" lon="1.55825">
        <ele>1904</ele>
        <time>2023-07-21T11:37:11.000Z</time>
      </trkpt>
      <trkpt lat="42.62135" lon="1.55837">
        <ele>1904.8000488281</ele>
        <time>2023-07-21T11:37:04.000Z</time>
      </trkpt>
      <trkpt lat="42.62133" lon="1.55845">
        <ele>1905.1999511719</ele>
        <time>2023-07-21T11:36:56.000Z</time>
      </trkpt>
      <trkpt lat="42.62132" lon="1.55849">
        <ele>1905.1999511719</ele>
        <time>2023-07-21T11:36:52.000Z</time>
      </trkpt>
      <trkpt lat="42.62131" lon="1.55851">
        <ele>1905.1999511719</ele>
        <time>2023-07-21T11:36:49.000Z</time>
      </trkpt>
      <trkpt lat="42.62135" lon="1.5586">
        <ele>1905.5999755859</ele>
        <time>2023-07-21T11:36:42.000Z</time>
      </trkpt>
      <trkpt lat="42.6214" lon="1.5587">
        <ele>1906.1999511719</ele>
        <time>2023-07-21T11:36:35.000Z</time>
      </trkpt>
      <trkpt lat="42.62141" lon="1.55872">
        <ele>1906.4000244141</ele>
        <time>2023-07-21T11:36:34.000Z</time>
      </trkpt>
      <trkpt lat="42.62144" lon="1.55881">
        <ele>1907.4000244141</ele>
        <time>2023-07-21T11:36:28.000Z</time>
      </trkpt>
      <trkpt lat="42.62148" lon="1.55894">
        <ele>1908.4000244141</ele>
        <time>2023-07-21T11:36:22.000Z</time>
      </trkpt>
      <trkpt lat="42.62148" lon="1.55896">
        <ele>1908.5999755859</ele>
        <time>2023-07-21T11:36:21.000Z</time>
      </trkpt>
      <trkpt lat="42.62149" lon="1.55903">
        <ele>1909.4000244141</ele>
        <time>2023-07-21T11:36:17.000Z</time>
      </trkpt>
      <trkpt lat="42.62151" lon="1.55909">
        <ele>1909.5999755859</ele>
        <time>2023-07-21T11:36:15.000Z</time>
      </trkpt>
      <trkpt lat="42.62155" lon="1.55916">
        <ele>1910.4000244141</ele>
        <time>2023-07-21T11:36:10.000Z</time>
      </trkpt>
      <trkpt lat="42.62158" lon="1.5592">
        <ele>1911.1999511719</ele>
        <time>2023-07-21T11:36:07.000Z</time>
      </trkpt>
      <trkpt lat="42.62159" lon="1.55922">
        <ele>1911.4000244141</ele>
        <time>2023-07-21T11:36:06.000Z</time>
      </trkpt>
      <trkpt lat="42.62164" lon="1.5593">
        <ele>1912.4000244141</ele>
        <time>2023-07-21T11:36:00.000Z</time>
      </trkpt>
      <trkpt lat="42.62165" lon="1.55931">
        <ele>1912.4000244141</ele>
        <time>2023-07-21T11:35:59.000Z</time>
      </trkpt>
      <trkpt lat="42.62169" lon="1.55936">
        <ele>1913.1999511719</ele>
        <time>2023-07-21T11:35:54.000Z</time>
      </trkpt>
      <trkpt lat="42.62171" lon="1.5594">
        <ele>1913.8000488281</ele>
        <time>2023-07-21T11:35:51.000Z</time>
      </trkpt>
      <trkpt lat="42.62172" lon="1.5594">
        <ele>1914.1999511719</ele>
        <time>2023-07-21T11:35:47.000Z</time>
      </trkpt>
      <trkpt lat="42.62175" lon="1.55945">
        <ele>1914.4000244141</ele>
        <time>2023-07-21T11:35:39.000Z</time>
      </trkpt>
      <trkpt lat="42.62178" lon="1.55957">
        <ele>1914.5999755859</ele>
        <time>2023-07-21T11:35:31.000Z</time>
      </trkpt>
      <trkpt lat="42.62177" lon="1.5596">
        <ele>1914.5999755859</ele>
        <time>2023-07-21T11:35:29.000Z</time>
      </trkpt>
      <trkpt lat="42.62178" lon="1.55965">
        <ele>1914.5999755859</ele>
        <time>2023-07-21T11:35:25.000Z</time>
      </trkpt>
      <trkpt lat="42.62178" lon="1.55965">
        <ele>1914.8000488281</ele>
        <time>2023-07-21T11:35:24.000Z</time>
      </trkpt>
      <trkpt lat="42.62178" lon="1.55964">
        <ele>1914.8000488281</ele>
        <time>2023-07-21T11:35:23.000Z</time>
      </trkpt>
      <trkpt lat="42.62178" lon="1.55971">
        <ele>1915.1999511719</ele>
        <time>2023-07-21T11:35:17.000Z</time>
      </trkpt>
      <trkpt lat="42.62181" lon="1.55974">
        <ele>1915.4000244141</ele>
        <time>2023-07-21T11:35:11.000Z</time>
      </trkpt>
      <trkpt lat="42.62182" lon="1.55982">
        <ele>1915.8000488281</ele>
        <time>2023-07-21T11:35:06.000Z</time>
      </trkpt>
      <trkpt lat="42.62182" lon="1.55988">
        <ele>1916</ele>
        <time>2023-07-21T11:35:03.000Z</time>
      </trkpt>
      <trkpt lat="42.62181" lon="1.56">
        <ele>1916.8000488281</ele>
        <time>2023-07-21T11:34:57.000Z</time>
      </trkpt>
      <trkpt lat="42.62181" lon="1.56004">
        <ele>1917.1999511719</ele>
        <time>2023-07-21T11:34:55.000Z</time>
      </trkpt>
      <trkpt lat="42.62181" lon="1.56009">
        <ele>1917.8000488281</ele>
        <time>2023-07-21T11:34:52.000Z</time>
      </trkpt>
      <trkpt lat="42.62181" lon="1.56016">
        <ele>1918.8000488281</ele>
        <time>2023-07-21T11:34:47.000Z</time>
      </trkpt>
      <trkpt lat="42.62181" lon="1.56017">
        <ele>1919</ele>
        <time>2023-07-21T11:34:46.000Z</time>
      </trkpt>
      <trkpt lat="42.62181" lon="1.56026">
        <ele>1920.1999511719</ele>
        <time>2023-07-21T11:34:41.000Z</time>
      </trkpt>
      <trkpt lat="42.62181" lon="1.5603">
        <ele>1920.8000488281</ele>
        <time>2023-07-21T11:34:39.000Z</time>
      </trkpt>
      <trkpt lat="42.62182" lon="1.56035">
        <ele>1921.1999511719</ele>
        <time>2023-07-21T11:34:37.000Z</time>
      </trkpt>
      <trkpt lat="42.62183" lon="1.56044">
        <ele>1922.4000244141</ele>
        <time>2023-07-21T11:34:32.000Z</time>
      </trkpt>
      <trkpt lat="42.62183" lon="1.56045">
        <ele>1922.4000244141</ele>
        <time>2023-07-21T11:34:31.000Z</time>
      </trkpt>
      <trkpt lat="42.62183" lon="1.56053">
        <ele>1923.4000244141</ele>
        <time>2023-07-21T11:34:27.000Z</time>
      </trkpt>
      <trkpt lat="42.62185" lon="1.56058">
        <ele>1924.4000244141</ele>
        <time>2023-07-21T11:34:24.000Z</time>
      </trkpt>
      <trkpt lat="42.62185" lon="1.56059">
        <ele>1924.5999755859</ele>
        <time>2023-07-21T11:34:23.000Z</time>
      </trkpt>
      <trkpt lat="42.62188" lon="1.56064">
        <ele>1925.5999755859</ele>
        <time>2023-07-21T11:34:18.000Z</time>
      </trkpt>
      <trkpt lat="42.62189" lon="1.56068">
        <ele>1926</ele>
        <time>2023-07-21T11:34:16.000Z</time>
      </trkpt>
      <trkpt lat="42.62189" lon="1.56079">
        <ele>1926.4000244141</ele>
        <time>2023-07-21T11:34:10.000Z</time>
      </trkpt>
      <trkpt lat="42.62189" lon="1.5608">
        <ele>1926.8000488281</ele>
        <time>2023-07-21T11:34:09.000Z</time>
      </trkpt>
      <trkpt lat="42.62189" lon="1.56088">
        <ele>1927.8000488281</ele>
        <time>2023-07-21T11:34:02.000Z</time>
      </trkpt>
      <trkpt lat="42.62191" lon="1.56094">
        <ele>1928.1999511719</ele>
        <time>2023-07-21T11:33:57.000Z</time>
      </trkpt>
      <trkpt lat="42.62193" lon="1.561">
        <ele>1928.8000488281</ele>
        <time>2023-07-21T11:33:54.000Z</time>
      </trkpt>
      <trkpt lat="42.62195" lon="1.56105">
        <ele>1929.1999511719</ele>
        <time>2023-07-21T11:33:51.000Z</time>
      </trkpt>
      <trkpt lat="42.62196" lon="1.56112">
        <ele>1929.4000244141</ele>
        <time>2023-07-21T11:33:48.000Z</time>
      </trkpt>
      <trkpt lat="42.62195" lon="1.56119">
        <ele>1929.8000488281</ele>
        <time>2023-07-21T11:33:40.000Z</time>
      </trkpt>
      <trkpt lat="42.62195" lon="1.56119">
        <ele>1930.1999511719</ele>
        <time>2023-07-21T11:33:38.000Z</time>
      </trkpt>
      <trkpt lat="42.62196" lon="1.56123">
        <ele>1931.4000244141</ele>
        <time>2023-07-21T11:33:34.000Z</time>
      </trkpt>
      <trkpt lat="42.62197" lon="1.56126">
        <ele>1931.5999755859</ele>
        <time>2023-07-21T11:33:33.000Z</time>
      </trkpt>
      <trkpt lat="42.62198" lon="1.56138">
        <ele>1932.8000488281</ele>
        <time>2023-07-21T11:33:27.000Z</time>
      </trkpt>
      <trkpt lat="42.62198" lon="1.5614">
        <ele>1932.8000488281</ele>
        <time>2023-07-21T11:33:26.000Z</time>
      </trkpt>
      <trkpt lat="42.622" lon="1.56155">
        <ele>1933.8000488281</ele>
        <time>2023-07-21T11:33:18.000Z</time>
      </trkpt>
      <trkpt lat="42.622" lon="1.56158">
        <ele>1933.8000488281</ele>
        <time>2023-07-21T11:33:16.000Z</time>
      </trkpt>
      <trkpt lat="42.62202" lon="1.56165">
        <ele>1935.1999511719</ele>
        <time>2023-07-21T11:33:12.000Z</time>
      </trkpt>
      <trkpt lat="42.62202" lon="1.56166">
        <ele>1935.5999755859</ele>
        <time>2023-07-21T11:33:11.000Z</time>
      </trkpt>
      <trkpt lat="42.62204" lon="1.56173">
        <ele>1936.1999511719</ele>
        <time>2023-07-21T11:33:07.000Z</time>
      </trkpt>
      <trkpt lat="42.62205" lon="1.56178">
        <ele>1937.4000244141</ele>
        <time>2023-07-21T11:33:04.000Z</time>
      </trkpt>
      <trkpt lat="42.62205" lon="1.56179">
        <ele>1937.5999755859</ele>
        <time>2023-07-21T11:33:03.000Z</time>
      </trkpt>
      <trkpt lat="42.62206" lon="1.56185">
        <ele>1938.8000488281</ele>
        <time>2023-07-21T11:32:59.000Z</time>
      </trkpt>
      <trkpt lat="42.62207" lon="1.56192">
        <ele>1939.8000488281</ele>
        <time>2023-07-21T11:32:55.000Z</time>
      </trkpt>
      <trkpt lat="42.62207" lon="1.56195">
        <ele>1940.5999755859</ele>
        <time>2023-07-21T11:32:53.000Z</time>
      </trkpt>
      <trkpt lat="42.62208" lon="1.56197">
        <ele>1941</ele>
        <time>2023-07-21T11:32:52.000Z</time>
      </trkpt>
      <trkpt lat="42.6221" lon="1.56203">
        <ele>1942</ele>
        <time>2023-07-21T11:32:48.000Z</time>
      </trkpt>
      <trkpt lat="42.62211" lon="1.56207">
        <ele>1942.5999755859</ele>
        <time>2023-07-21T11:32:46.000Z</time>
      </trkpt>
      <trkpt lat="42.62212" lon="1.56209">
        <ele>1943.1999511719</ele>
        <time>2023-07-21T11:32:44.000Z</time>
      </trkpt>
      <trkpt lat="42.62213" lon="1.56212">
        <ele>1944.4000244141</ele>
        <time>2023-07-21T11:32:40.000Z</time>
      </trkpt>
      <trkpt lat="42.62214" lon="1.56213">
        <ele>1944.8000488281</ele>
        <time>2023-07-21T11:32:39.000Z</time>
      </trkpt>
      <trkpt lat="42.62215" lon="1.56223">
        <ele>1945.5999755859</ele>
        <time>2023-07-21T11:32:34.000Z</time>
      </trkpt>
      <trkpt lat="42.62216" lon="1.5623">
        <ele>1946.8000488281</ele>
        <time>2023-07-21T11:32:30.000Z</time>
      </trkpt>
      <trkpt lat="42.62217" lon="1.56234">
        <ele>1948</ele>
        <time>2023-07-21T11:32:26.000Z</time>
      </trkpt>
      <trkpt lat="42.62219" lon="1.56242">
        <ele>1948.8000488281</ele>
        <time>2023-07-21T11:32:23.000Z</time>
      </trkpt>
      <trkpt lat="42.62219" lon="1.56243">
        <ele>1949</ele>
        <time>2023-07-21T11:32:22.000Z</time>
      </trkpt>
      <trkpt lat="42.62221" lon="1.56249">
        <ele>1950.1999511719</ele>
        <time>2023-07-21T11:32:18.000Z</time>
      </trkpt>
      <trkpt lat="42.62222" lon="1.56253">
        <ele>1951</ele>
        <time>2023-07-21T11:32:15.000Z</time>
      </trkpt>
      <trkpt lat="42.62223" lon="1.56257">
        <ele>1951.5999755859</ele>
        <time>2023-07-21T11:32:12.000Z</time>
      </trkpt>
      <trkpt lat="42.62225" lon="1.56262">
        <ele>1952.8000488281</ele>
        <time>2023-07-21T11:32:08.000Z</time>
      </trkpt>
      <trkpt lat="42.62228" lon="1.56268">
        <ele>1953.8000488281</ele>
        <time>2023-07-21T11:32:04.000Z</time>
      </trkpt>
      <trkpt lat="42.62229" lon="1.56273">
        <ele>1954.8000488281</ele>
        <time>2023-07-21T11:32:01.000Z</time>
      </trkpt>
      <trkpt lat="42.6223" lon="1.56277">
        <ele>1955</ele>
        <time>2023-07-21T11:31:59.000Z</time>
      </trkpt>
      <trkpt lat="42.62232" lon="1.56285">
        <ele>1956.1999511719</ele>
        <time>2023-07-21T11:31:56.000Z</time>
      </trkpt>
      <trkpt lat="42.62233" lon="1.56289">
        <ele>1956.8000488281</ele>
        <time>2023-07-21T11:31:53.000Z</time>
      </trkpt>
      <trkpt lat="42.62234" lon="1.56288">
        <ele>1957.4000244141</ele>
        <time>2023-07-21T11:31:51.000Z</time>
      </trkpt>
      <trkpt lat="42.62235" lon="1.56296">
        <ele>1958.4000244141</ele>
        <time>2023-07-21T11:31:45.000Z</time>
      </trkpt>
      <trkpt lat="42.62236" lon="1.56299">
        <ele>1958.8000488281</ele>
        <time>2023-07-21T11:31:44.000Z</time>
      </trkpt>
      <trkpt lat="42.62237" lon="1.56309">
        <ele>1959.8000488281</ele>
        <time>2023-07-21T11:31:39.000Z</time>
      </trkpt>
      <trkpt lat="42.62237" lon="1.5631">
        <ele>1960</ele>
        <time>2023-07-21T11:31:37.000Z</time>
      </trkpt>
      <trkpt lat="42.62239" lon="1.56314">
        <ele>1961</ele>
        <time>2023-07-21T11:31:33.000Z</time>
      </trkpt>
      <trkpt lat="42.6224" lon="1.56318">
        <ele>1961.1999511719</ele>
        <time>2023-07-21T11:31:30.000Z</time>
      </trkpt>
      <trkpt lat="42.62243" lon="1.56325">
        <ele>1962.1999511719</ele>
        <time>2023-07-21T11:31:27.000Z</time>
      </trkpt>
      <trkpt lat="42.62244" lon="1.56329">
        <ele>1963.1999511719</ele>
        <time>2023-07-21T11:31:22.000Z</time>
      </trkpt>
      <trkpt lat="42.62246" lon="1.56336">
        <ele>1964.1999511719</ele>
        <time>2023-07-21T11:31:17.000Z</time>
      </trkpt>
      <trkpt lat="42.62247" lon="1.56341">
        <ele>1965</ele>
        <time>2023-07-21T11:31:14.000Z</time>
      </trkpt>
      <trkpt lat="42.62248" lon="1.56343">
        <ele>1965.1999511719</ele>
        <time>2023-07-21T11:31:11.000Z</time>
      </trkpt>
      <trkpt lat="42.62248" lon="1.56349">
        <ele>1966.1999511719</ele>
        <time>2023-07-21T11:31:05.000Z</time>
      </trkpt>
      <trkpt lat="42.6225" lon="1.56354">
        <ele>1966.4000244141</ele>
        <time>2023-07-21T11:30:56.000Z</time>
      </trkpt>
      <trkpt lat="42.62251" lon="1.56362">
        <ele>1967.5999755859</ele>
        <time>2023-07-21T11:30:50.000Z</time>
      </trkpt>
      <trkpt lat="42.62251" lon="1.56366">
        <ele>1968</ele>
        <time>2023-07-21T11:30:47.000Z</time>
      </trkpt>
      <trkpt lat="42.62251" lon="1.56369">
        <ele>1968.5999755859</ele>
        <time>2023-07-21T11:30:45.000Z</time>
      </trkpt>
      <trkpt lat="42.62251" lon="1.5638">
        <ele>1969.4000244141</ele>
        <time>2023-07-21T11:30:39.000Z</time>
      </trkpt>
      <trkpt lat="42.6225" lon="1.56385">
        <ele>1969.5999755859</ele>
        <time>2023-07-21T11:30:36.000Z</time>
      </trkpt>
      <trkpt lat="42.62249" lon="1.56393">
        <ele>1970.4000244141</ele>
        <time>2023-07-21T11:30:32.000Z</time>
      </trkpt>
      <trkpt lat="42.6225" lon="1.56402">
        <ele>1970.8000488281</ele>
        <time>2023-07-21T11:30:28.000Z</time>
      </trkpt>
      <trkpt lat="42.6225" lon="1.56406">
        <ele>1971.1999511719</ele>
        <time>2023-07-21T11:30:26.000Z</time>
      </trkpt>
      <trkpt lat="42.62252" lon="1.56411">
        <ele>1971.8000488281</ele>
        <time>2023-07-21T11:30:23.000Z</time>
      </trkpt>
      <trkpt lat="42.62258" lon="1.56416">
        <ele>1972.5999755859</ele>
        <time>2023-07-21T11:30:19.000Z</time>
      </trkpt>
      <trkpt lat="42.62265" lon="1.56421">
        <ele>1973.4000244141</ele>
        <time>2023-07-21T11:30:14.000Z</time>
      </trkpt>
      <trkpt lat="42.62266" lon="1.56422">
        <ele>1973.4000244141</ele>
        <time>2023-07-21T11:30:07.000Z</time>
      </trkpt>
      <trkpt lat="42.62265" lon="1.56422">
        <ele>1973.5999755859</ele>
        <time>2023-07-21T11:29:58.000Z</time>
      </trkpt>
      <trkpt lat="42.62265" lon="1.56423">
        <ele>1973.4000244141</ele>
        <time>2023-07-21T11:29:53.000Z</time>
      </trkpt>
      <trkpt lat="42.62262" lon="1.5642">
        <ele>1973</ele>
        <time>2023-07-21T11:29:45.000Z</time>
      </trkpt>
      <trkpt lat="42.62262" lon="1.56417">
        <ele>1972.8000488281</ele>
        <time>2023-07-21T11:29:38.000Z</time>
      </trkpt>
      <trkpt lat="42.62262" lon="1.56419">
        <ele>1973</ele>
        <time>2023-07-21T11:29:27.000Z</time>
      </trkpt>
      <trkpt lat="42.6226" lon="1.56414">
        <ele>1973</ele>
        <time>2023-07-21T11:29:21.000Z</time>
      </trkpt>
      <trkpt lat="42.6226" lon="1.56414">
        <ele>1973</ele>
        <time>2023-07-21T11:29:20.000Z</time>
      </trkpt>
      <trkpt lat="42.62257" lon="1.56416">
        <ele>1973.8000488281</ele>
        <time>2023-07-21T11:29:13.000Z</time>
      </trkpt>
      <trkpt lat="42.62256" lon="1.56414">
        <ele>1974</ele>
        <time>2023-07-21T11:29:01.000Z</time>
      </trkpt>
      <trkpt lat="42.62258" lon="1.5641">
        <ele>1974</ele>
        <time>2023-07-21T11:28:47.000Z</time>
      </trkpt>
      <trkpt lat="42.6226" lon="1.56413">
        <ele>1974.1999511719</ele>
        <time>2023-07-21T11:28:38.000Z</time>
      </trkpt>
      <trkpt lat="42.62257" lon="1.56416">
        <ele>1971.4000244141</ele>
        <time>2023-07-21T11:28:01.000Z</time>
      </trkpt>
      <trkpt lat="42.6226" lon="1.56417">
        <ele>1971.5999755859</ele>
        <time>2023-07-21T11:27:54.000Z</time>
      </trkpt>
      <trkpt lat="42.62253" lon="1.56422">
        <ele>1971</ele>
        <time>2023-07-21T11:27:28.000Z</time>
      </trkpt>
      <trkpt lat="42.62254" lon="1.56419">
        <ele>1971.1999511719</ele>
        <time>2023-07-21T11:27:26.000Z</time>
      </trkpt>
      <trkpt lat="42.6226" lon="1.56413">
        <ele>1971.8000488281</ele>
        <time>2023-07-21T11:27:19.000Z</time>
      </trkpt>
      <trkpt lat="42.6226" lon="1.56413">
        <ele>1971.8000488281</ele>
        <time>2023-07-21T11:27:17.000Z</time>
      </trkpt>
      <trkpt lat="42.62265" lon="1.5641">
        <ele>1972.8000488281</ele>
        <time>2023-07-21T11:27:11.000Z</time>
      </trkpt>
      <trkpt lat="42.62265" lon="1.5641">
        <ele>1973</ele>
        <time>2023-07-21T11:27:10.000Z</time>
      </trkpt>
      <trkpt lat="42.62266" lon="1.56409">
        <ele>1973.1999511719</ele>
        <time>2023-07-21T11:27:09.000Z</time>
      </trkpt>
      <trkpt lat="42.62267" lon="1.56405">
        <ele>1974.1999511719</ele>
        <time>2023-07-21T11:27:03.000Z</time>
      </trkpt>
      <trkpt lat="42.62267" lon="1.56405">
        <ele>1974.4000244141</ele>
        <time>2023-07-21T11:27:02.000Z</time>
      </trkpt>
      <trkpt lat="42.6227" lon="1.56406">
        <ele>1975.4000244141</ele>
        <time>2023-07-21T11:26:58.000Z</time>
      </trkpt>
      <trkpt lat="42.62274" lon="1.56408">
        <ele>1976.4000244141</ele>
        <time>2023-07-21T11:26:54.000Z</time>
      </trkpt>
      <trkpt lat="42.62275" lon="1.56409">
        <ele>1976.5999755859</ele>
        <time>2023-07-21T11:26:53.000Z</time>
      </trkpt>
      <trkpt lat="42.62282" lon="1.56417">
        <ele>1977.5999755859</ele>
        <time>2023-07-21T11:26:45.000Z</time>
      </trkpt>
      <trkpt lat="42.62283" lon="1.56417">
        <ele>1978.8000488281</ele>
        <time>2023-07-21T11:26:38.000Z</time>
      </trkpt>
      <trkpt lat="42.62285" lon="1.56423">
        <ele>1979.8000488281</ele>
        <time>2023-07-21T11:26:31.000Z</time>
      </trkpt>
      <trkpt lat="42.62286" lon="1.56427">
        <ele>1980.1999511719</ele>
        <time>2023-07-21T11:26:29.000Z</time>
      </trkpt>
      <trkpt lat="42.62285" lon="1.56434">
        <ele>1981</ele>
        <time>2023-07-21T11:26:25.000Z</time>
      </trkpt>
      <trkpt lat="42.62284" lon="1.56437">
        <ele>1981.4000244141</ele>
        <time>2023-07-21T11:26:22.000Z</time>
      </trkpt>
      <trkpt lat="42.62285" lon="1.5644">
        <ele>1982</ele>
        <time>2023-07-21T11:26:18.000Z</time>
      </trkpt>
      <trkpt lat="42.62288" lon="1.56445">
        <ele>1982.8000488281</ele>
        <time>2023-07-21T11:26:14.000Z</time>
      </trkpt>
      <trkpt lat="42.62289" lon="1.56447">
        <ele>1983.1999511719</ele>
        <time>2023-07-21T11:26:11.000Z</time>
      </trkpt>
      <trkpt lat="42.62292" lon="1.56451">
        <ele>1983.8000488281</ele>
        <time>2023-07-21T11:26:07.000Z</time>
      </trkpt>
      <trkpt lat="42.62293" lon="1.56454">
        <ele>1984.1999511719</ele>
        <time>2023-07-21T11:26:05.000Z</time>
      </trkpt>
      <trkpt lat="42.62296" lon="1.56461">
        <ele>1985.4000244141</ele>
        <time>2023-07-21T11:25:59.000Z</time>
      </trkpt>
      <trkpt lat="42.62298" lon="1.56467">
        <ele>1986.5999755859</ele>
        <time>2023-07-21T11:25:53.000Z</time>
      </trkpt>
      <trkpt lat="42.62299" lon="1.56469">
        <ele>1986.8000488281</ele>
        <time>2023-07-21T11:25:51.000Z</time>
      </trkpt>
      <trkpt lat="42.623" lon="1.56476">
        <ele>1987.5999755859</ele>
        <time>2023-07-21T11:25:46.000Z</time>
      </trkpt>
      <trkpt lat="42.623" lon="1.56484">
        <ele>1987.8000488281</ele>
        <time>2023-07-21T11:25:42.000Z</time>
      </trkpt>
      <trkpt lat="42.62302" lon="1.56497">
        <ele>1988.5999755859</ele>
        <time>2023-07-21T11:25:34.000Z</time>
      </trkpt>
      <trkpt lat="42.62302" lon="1.56499">
        <ele>1988.8000488281</ele>
        <time>2023-07-21T11:25:33.000Z</time>
      </trkpt>
      <trkpt lat="42.62304" lon="1.5651">
        <ele>1989.1999511719</ele>
        <time>2023-07-21T11:25:26.000Z</time>
      </trkpt>
      <trkpt lat="42.62304" lon="1.56515">
        <ele>1989.5999755859</ele>
        <time>2023-07-21T11:25:23.000Z</time>
      </trkpt>
      <trkpt lat="42.62305" lon="1.56528">
        <ele>1990.4000244141</ele>
        <time>2023-07-21T11:25:16.000Z</time>
      </trkpt>
      <trkpt lat="42.62305" lon="1.56538">
        <ele>1990.5999755859</ele>
        <time>2023-07-21T11:25:10.000Z</time>
      </trkpt>
      <trkpt lat="42.62305" lon="1.5654">
        <ele>1991</ele>
        <time>2023-07-21T11:25:08.000Z</time>
      </trkpt>
      <trkpt lat="42.62304" lon="1.56554">
        <ele>1991.8000488281</ele>
        <time>2023-07-21T11:24:59.000Z</time>
      </trkpt>
      <trkpt lat="42.62306" lon="1.56563">
        <ele>1992.5999755859</ele>
        <time>2023-07-21T11:24:52.000Z</time>
      </trkpt>
      <trkpt lat="42.62307" lon="1.56572">
        <ele>1993</ele>
        <time>2023-07-21T11:24:47.000Z</time>
      </trkpt>
      <trkpt lat="42.62308" lon="1.56576">
        <ele>1993</ele>
        <time>2023-07-21T11:24:44.000Z</time>
      </trkpt>
      <trkpt lat="42.62309" lon="1.56587">
        <ele>1993.4000244141</ele>
        <time>2023-07-21T11:24:36.000Z</time>
      </trkpt>
      <trkpt lat="42.6231" lon="1.56597">
        <ele>1994</ele>
        <time>2023-07-21T11:24:31.000Z</time>
      </trkpt>
      <trkpt lat="42.6231" lon="1.56599">
        <ele>1994.4000244141</ele>
        <time>2023-07-21T11:24:29.000Z</time>
      </trkpt>
      <trkpt lat="42.62311" lon="1.5661">
        <ele>1995.1999511719</ele>
        <time>2023-07-21T11:24:23.000Z</time>
      </trkpt>
      <trkpt lat="42.62312" lon="1.56613">
        <ele>1995.1999511719</ele>
        <time>2023-07-21T11:24:21.000Z</time>
      </trkpt>
      <trkpt lat="42.62313" lon="1.5662">
        <ele>1996.1999511719</ele>
        <time>2023-07-21T11:24:15.000Z</time>
      </trkpt>
      <trkpt lat="42.62313" lon="1.56622">
        <ele>1996.4000244141</ele>
        <time>2023-07-21T11:24:14.000Z</time>
      </trkpt>
      <trkpt lat="42.62314" lon="1.56632">
        <ele>1997.4000244141</ele>
        <time>2023-07-21T11:24:08.000Z</time>
      </trkpt>
      <trkpt lat="42.62314" lon="1.56634">
        <ele>1997.4000244141</ele>
        <time>2023-07-21T11:24:07.000Z</time>
      </trkpt>
      <trkpt lat="42.62313" lon="1.56644">
        <ele>1998.4000244141</ele>
        <time>2023-07-21T11:24:01.000Z</time>
      </trkpt>
      <trkpt lat="42.62312" lon="1.56648">
        <ele>1999</ele>
        <time>2023-07-21T11:23:59.000Z</time>
      </trkpt>
      <trkpt lat="42.62311" lon="1.5666">
        <ele>1999.4000244141</ele>
        <time>2023-07-21T11:23:52.000Z</time>
      </trkpt>
      <trkpt lat="42.62311" lon="1.56663">
        <ele>1999.5999755859</ele>
        <time>2023-07-21T11:23:49.000Z</time>
      </trkpt>
      <trkpt lat="42.62312" lon="1.56676">
        <ele>1999.8000488281</ele>
        <time>2023-07-21T11:23:43.000Z</time>
      </trkpt>
      <trkpt lat="42.62315" lon="1.56689">
        <ele>2000.5999755859</ele>
        <time>2023-07-21T11:23:37.000Z</time>
      </trkpt>
      <trkpt lat="42.62315" lon="1.56691">
        <ele>2001</ele>
        <time>2023-07-21T11:23:36.000Z</time>
      </trkpt>
      <trkpt lat="42.62315" lon="1.56702">
        <ele>2001.5999755859</ele>
        <time>2023-07-21T11:23:29.000Z</time>
      </trkpt>
      <trkpt lat="42.62314" lon="1.567">
        <ele>2001.5999755859</ele>
        <time>2023-07-21T11:23:19.000Z</time>
      </trkpt>
      <trkpt lat="42.62314" lon="1.56699">
        <ele>2001.5999755859</ele>
        <time>2023-07-21T11:23:16.000Z</time>
      </trkpt>
      <trkpt lat="42.62314" lon="1.56698">
        <ele>2001.5999755859</ele>
        <time>2023-07-21T11:23:15.000Z</time>
      </trkpt>
      <trkpt lat="42.62314" lon="1.56698">
        <ele>2001.8000488281</ele>
        <time>2023-07-21T11:23:14.000Z</time>
      </trkpt>
      <trkpt lat="42.62314" lon="1.56697">
        <ele>2002.1999511719</ele>
        <time>2023-07-21T11:23:10.000Z</time>
      </trkpt>
      <trkpt lat="42.62314" lon="1.56697">
        <ele>2002.8000488281</ele>
        <time>2023-07-21T11:23:08.000Z</time>
      </trkpt>
      <trkpt lat="42.62316" lon="1.56701">
        <ele>2003.8000488281</ele>
        <time>2023-07-21T11:23:04.000Z</time>
      </trkpt>
      <trkpt lat="42.62316" lon="1.56703">
        <ele>2003.8000488281</ele>
        <time>2023-07-21T11:23:03.000Z</time>
      </trkpt>
      <trkpt lat="42.62316" lon="1.56714">
        <ele>2004.8000488281</ele>
        <time>2023-07-21T11:22:56.000Z</time>
      </trkpt>
      <trkpt lat="42.62317" lon="1.56727">
        <ele>2005.1999511719</ele>
        <time>2023-07-21T11:22:48.000Z</time>
      </trkpt>
      <trkpt lat="42.62317" lon="1.5674">
        <ele>2005</ele>
        <time>2023-07-21T11:22:41.000Z</time>
      </trkpt>
      <trkpt lat="42.62316" lon="1.56755">
        <ele>2004.5999755859</ele>
        <time>2023-07-21T11:22:33.000Z</time>
      </trkpt>
      <trkpt lat="42.62315" lon="1.56767">
        <ele>2004.8000488281</ele>
        <time>2023-07-21T11:22:25.000Z</time>
      </trkpt>
      <trkpt lat="42.62315" lon="1.56777">
        <ele>2004.8000488281</ele>
        <time>2023-07-21T11:22:20.000Z</time>
      </trkpt>
      <trkpt lat="42.62315" lon="1.56782">
        <ele>2005.1999511719</ele>
        <time>2023-07-21T11:22:17.000Z</time>
      </trkpt>
      <trkpt lat="42.62316" lon="1.5679">
        <ele>2005.1999511719</ele>
        <time>2023-07-21T11:22:09.000Z</time>
      </trkpt>
      <trkpt lat="42.62319" lon="1.56794">
        <ele>2005.4000244141</ele>
        <time>2023-07-21T11:22:02.000Z</time>
      </trkpt>
      <trkpt lat="42.6232" lon="1.56795">
        <ele>2005.4000244141</ele>
        <time>2023-07-21T11:22:00.000Z</time>
      </trkpt>
      <trkpt lat="42.62318" lon="1.56795">
        <ele>2005.5999755859</ele>
        <time>2023-07-21T11:21:54.000Z</time>
      </trkpt>
      <trkpt lat="42.62318" lon="1.56795">
        <ele>2006</ele>
        <time>2023-07-21T11:21:53.000Z</time>
      </trkpt>
      <trkpt lat="42.62317" lon="1.56803">
        <ele>2006.4000244141</ele>
        <time>2023-07-21T11:21:46.000Z</time>
      </trkpt>
      <trkpt lat="42.62318" lon="1.56816">
        <ele>2006.8000488281</ele>
        <time>2023-07-21T11:21:39.000Z</time>
      </trkpt>
      <trkpt lat="42.62319" lon="1.56818">
        <ele>2007</ele>
        <time>2023-07-21T11:21:38.000Z</time>
      </trkpt>
      <trkpt lat="42.62321" lon="1.56828">
        <ele>2008</ele>
        <time>2023-07-21T11:21:33.000Z</time>
      </trkpt>
      <trkpt lat="42.62321" lon="1.56831">
        <ele>2008.1999511719</ele>
        <time>2023-07-21T11:21:31.000Z</time>
      </trkpt>
      <trkpt lat="42.62322" lon="1.56841">
        <ele>2009</ele>
        <time>2023-07-21T11:21:24.000Z</time>
      </trkpt>
      <trkpt lat="42.62322" lon="1.56848">
        <ele>2009.4000244141</ele>
        <time>2023-07-21T11:21:21.000Z</time>
      </trkpt>
      <trkpt lat="42.62325" lon="1.56864">
        <ele>2010.1999511719</ele>
        <time>2023-07-21T11:21:12.000Z</time>
      </trkpt>
      <trkpt lat="42.62325" lon="1.56865">
        <ele>2010.1999511719</ele>
        <time>2023-07-21T11:21:11.000Z</time>
      </trkpt>
      <trkpt lat="42.62324" lon="1.56876">
        <ele>2010.4000244141</ele>
        <time>2023-07-21T11:21:02.000Z</time>
      </trkpt>
      <trkpt lat="42.62322" lon="1.56886">
        <ele>2010.4000244141</ele>
        <time>2023-07-21T11:20:55.000Z</time>
      </trkpt>
      <trkpt lat="42.62325" lon="1.56896">
        <ele>2011</ele>
        <time>2023-07-21T11:20:46.000Z</time>
      </trkpt>
      <trkpt lat="42.6233" lon="1.56901">
        <ele>2011.1999511719</ele>
        <time>2023-07-21T11:20:40.000Z</time>
      </trkpt>
      <trkpt lat="42.62332" lon="1.56908">
        <ele>2011.1999511719</ele>
        <time>2023-07-21T11:20:36.000Z</time>
      </trkpt>
      <trkpt lat="42.62333" lon="1.56911">
        <ele>2011.4000244141</ele>
        <time>2023-07-21T11:20:33.000Z</time>
      </trkpt>
      <trkpt lat="42.62333" lon="1.5692">
        <ele>2011.5999755859</ele>
        <time>2023-07-21T11:20:25.000Z</time>
      </trkpt>
      <trkpt lat="42.62334" lon="1.56925">
        <ele>2012</ele>
        <time>2023-07-21T11:20:18.000Z</time>
      </trkpt>
      <trkpt lat="42.62337" lon="1.5693">
        <ele>2012.1999511719</ele>
        <time>2023-07-21T11:20:10.000Z</time>
      </trkpt>
      <trkpt lat="42.62338" lon="1.56932">
        <ele>2012.1999511719</ele>
        <time>2023-07-21T11:20:03.000Z</time>
      </trkpt>
      <trkpt lat="42.62339" lon="1.56933">
        <ele>2012.1999511719</ele>
        <time>2023-07-21T11:20:01.000Z</time>
      </trkpt>
      <trkpt lat="42.6234" lon="1.56939">
        <ele>2012.4000244141</ele>
        <time>2023-07-21T11:19:51.000Z</time>
      </trkpt>
      <trkpt lat="42.62339" lon="1.56938">
        <ele>2012.4000244141</ele>
        <time>2023-07-21T11:19:38.000Z</time>
      </trkpt>
      <trkpt lat="42.62338" lon="1.5694">
        <ele>2012.5999755859</ele>
        <time>2023-07-21T11:19:31.000Z</time>
      </trkpt>
      <trkpt lat="42.62335" lon="1.56931">
        <ele>2012.5999755859</ele>
        <time>2023-07-21T11:19:23.000Z</time>
      </trkpt>
      <trkpt lat="42.62335" lon="1.5693">
        <ele>2012.5999755859</ele>
        <time>2023-07-21T11:19:16.000Z</time>
      </trkpt>
      <trkpt lat="42.62338" lon="1.56933">
        <ele>2012.5999755859</ele>
        <time>2023-07-21T11:19:09.000Z</time>
      </trkpt>
      <trkpt lat="42.6234" lon="1.56933">
        <ele>2012.4000244141</ele>
        <time>2023-07-21T11:19:01.000Z</time>
      </trkpt>
      <trkpt lat="42.62341" lon="1.56944">
        <ele>2012.5999755859</ele>
        <time>2023-07-21T11:18:49.000Z</time>
      </trkpt>
      <trkpt lat="42.6234" lon="1.56946">
        <ele>2013.1999511719</ele>
        <time>2023-07-21T11:18:45.000Z</time>
      </trkpt>
      <trkpt lat="42.62339" lon="1.56953">
        <ele>2013.8000488281</ele>
        <time>2023-07-21T11:18:41.000Z</time>
      </trkpt>
      <trkpt lat="42.62341" lon="1.5696">
        <ele>2014.1999511719</ele>
        <time>2023-07-21T11:18:32.000Z</time>
      </trkpt>
      <trkpt lat="42.62343" lon="1.56961">
        <ele>2014.5999755859</ele>
        <time>2023-07-21T11:18:25.000Z</time>
      </trkpt>
      <trkpt lat="42.62346" lon="1.56973">
        <ele>2015.1999511719</ele>
        <time>2023-07-21T11:18:18.000Z</time>
      </trkpt>
      <trkpt lat="42.62346" lon="1.56974">
        <ele>2015.1999511719</ele>
        <time>2023-07-21T11:18:17.000Z</time>
      </trkpt>
      <trkpt lat="42.62345" lon="1.5698">
        <ele>2016.5999755859</ele>
        <time>2023-07-21T11:18:11.000Z</time>
      </trkpt>
      <trkpt lat="42.62345" lon="1.56981">
        <ele>2016.8000488281</ele>
        <time>2023-07-21T11:18:10.000Z</time>
      </trkpt>
      <trkpt lat="42.62345" lon="1.56986">
        <ele>2017.5999755859</ele>
        <time>2023-07-21T11:18:06.000Z</time>
      </trkpt>
      <trkpt lat="42.62344" lon="1.56989">
        <ele>2018</ele>
        <time>2023-07-21T11:18:03.000Z</time>
      </trkpt>
      <trkpt lat="42.62343" lon="1.57002">
        <ele>2018.5999755859</ele>
        <time>2023-07-21T11:17:56.000Z</time>
      </trkpt>
      <trkpt lat="42.62343" lon="1.57003">
        <ele>2018.5999755859</ele>
        <time>2023-07-21T11:17:55.000Z</time>
      </trkpt>
      <trkpt lat="42.62344" lon="1.57014">
        <ele>2019.5999755859</ele>
        <time>2023-07-21T11:17:49.000Z</time>
      </trkpt>
      <trkpt lat="42.62346" lon="1.57025">
        <ele>2019.8000488281</ele>
        <time>2023-07-21T11:17:41.000Z</time>
      </trkpt>
      <trkpt lat="42.62347" lon="1.57027">
        <ele>2019.8000488281</ele>
        <time>2023-07-21T11:17:39.000Z</time>
      </trkpt>
      <trkpt lat="42.6235" lon="1.57034">
        <ele>2020</ele>
        <time>2023-07-21T11:17:35.000Z</time>
      </trkpt>
      <trkpt lat="42.62353" lon="1.57041">
        <ele>2020.5999755859</ele>
        <time>2023-07-21T11:17:27.000Z</time>
      </trkpt>
      <trkpt lat="42.62357" lon="1.57055">
        <ele>2021</ele>
        <time>2023-07-21T11:17:18.000Z</time>
      </trkpt>
      <trkpt lat="42.62361" lon="1.57064">
        <ele>2020.8000488281</ele>
        <time>2023-07-21T11:17:11.000Z</time>
      </trkpt>
      <trkpt lat="42.62361" lon="1.57064">
        <ele>2020.8000488281</ele>
        <time>2023-07-21T11:17:09.000Z</time>
      </trkpt>
      <trkpt lat="42.62362" lon="1.57067">
        <ele>2021.1999511719</ele>
        <time>2023-07-21T11:17:04.000Z</time>
      </trkpt>
      <trkpt lat="42.62363" lon="1.57079">
        <ele>2021.5999755859</ele>
        <time>2023-07-21T11:16:57.000Z</time>
      </trkpt>
      <trkpt lat="42.62363" lon="1.5708">
        <ele>2021.8000488281</ele>
        <time>2023-07-21T11:16:56.000Z</time>
      </trkpt>
      <trkpt lat="42.62364" lon="1.57091">
        <ele>2023</ele>
        <time>2023-07-21T11:16:48.000Z</time>
      </trkpt>
      <trkpt lat="42.62367" lon="1.57108">
        <ele>2023.8000488281</ele>
        <time>2023-07-21T11:16:40.000Z</time>
      </trkpt>
      <trkpt lat="42.62368" lon="1.57117">
        <ele>2024.1999511719</ele>
        <time>2023-07-21T11:16:36.000Z</time>
      </trkpt>
      <trkpt lat="42.62368" lon="1.57122">
        <ele>2024.4000244141</ele>
        <time>2023-07-21T11:16:33.000Z</time>
      </trkpt>
      <trkpt lat="42.62367" lon="1.57131">
        <ele>2024.8000488281</ele>
        <time>2023-07-21T11:16:26.000Z</time>
      </trkpt>
      <trkpt lat="42.62367" lon="1.57137">
        <ele>2025.1999511719</ele>
        <time>2023-07-21T11:16:23.000Z</time>
      </trkpt>
      <trkpt lat="42.62369" lon="1.57143">
        <ele>2025.4000244141</ele>
        <time>2023-07-21T11:16:18.000Z</time>
      </trkpt>
      <trkpt lat="42.62369" lon="1.57159">
        <ele>2025.5999755859</ele>
        <time>2023-07-21T11:16:09.000Z</time>
      </trkpt>
      <trkpt lat="42.6237" lon="1.57175">
        <ele>2025.4000244141</ele>
        <time>2023-07-21T11:16:00.000Z</time>
      </trkpt>
      <trkpt lat="42.62372" lon="1.57188">
        <ele>2025.5999755859</ele>
        <time>2023-07-21T11:15:54.000Z</time>
      </trkpt>
      <trkpt lat="42.62372" lon="1.57199">
        <ele>2026</ele>
        <time>2023-07-21T11:15:48.000Z</time>
      </trkpt>
      <trkpt lat="42.62371" lon="1.57207">
        <ele>2026.4000244141</ele>
        <time>2023-07-21T11:15:41.000Z</time>
      </trkpt>
      <trkpt lat="42.62371" lon="1.57215">
        <ele>2026.1999511719</ele>
        <time>2023-07-21T11:15:33.000Z</time>
      </trkpt>
      <trkpt lat="42.6237" lon="1.57223">
        <ele>2026.4000244141</ele>
        <time>2023-07-21T11:15:26.000Z</time>
      </trkpt>
      <trkpt lat="42.6237" lon="1.57225">
        <ele>2026.4000244141</ele>
        <time>2023-07-21T11:15:25.000Z</time>
      </trkpt>
      <trkpt lat="42.62369" lon="1.57233">
        <ele>2026.8000488281</ele>
        <time>2023-07-21T11:15:18.000Z</time>
      </trkpt>
      <trkpt lat="42.62366" lon="1.57249">
        <ele>2027.1999511719</ele>
        <time>2023-07-21T11:15:09.000Z</time>
      </trkpt>
      <trkpt lat="42.62362" lon="1.57259">
        <ele>2027.4000244141</ele>
        <time>2023-07-21T11:15:02.000Z</time>
      </trkpt>
      <trkpt lat="42.62361" lon="1.5726">
        <ele>2027.4000244141</ele>
        <time>2023-07-21T11:15:01.000Z</time>
      </trkpt>
      <trkpt lat="42.62361" lon="1.57264">
        <ele>2028.4000244141</ele>
        <time>2023-07-21T11:14:56.000Z</time>
      </trkpt>
      <trkpt lat="42.62362" lon="1.57276">
        <ele>2029.1999511719</ele>
        <time>2023-07-21T11:14:49.000Z</time>
      </trkpt>
      <trkpt lat="42.62362" lon="1.5728">
        <ele>2029.5999755859</ele>
        <time>2023-07-21T11:14:46.000Z</time>
      </trkpt>
      <trkpt lat="42.62362" lon="1.57284">
        <ele>2030</ele>
        <time>2023-07-21T11:14:42.000Z</time>
      </trkpt>
      <trkpt lat="42.62363" lon="1.57298">
        <ele>2030.8000488281</ele>
        <time>2023-07-21T11:14:35.000Z</time>
      </trkpt>
      <trkpt lat="42.62363" lon="1.573">
        <ele>2031</ele>
        <time>2023-07-21T11:14:33.000Z</time>
      </trkpt>
      <trkpt lat="42.62362" lon="1.57313">
        <ele>2031.5999755859</ele>
        <time>2023-07-21T11:14:25.000Z</time>
      </trkpt>
      <trkpt lat="42.62362" lon="1.57314">
        <ele>2031.8000488281</ele>
        <time>2023-07-21T11:14:24.000Z</time>
      </trkpt>
      <trkpt lat="42.62363" lon="1.57322">
        <ele>2032.1999511719</ele>
        <time>2023-07-21T11:14:18.000Z</time>
      </trkpt>
      <trkpt lat="42.62364" lon="1.57327">
        <ele>2032.8000488281</ele>
        <time>2023-07-21T11:14:13.000Z</time>
      </trkpt>
      <trkpt lat="42.62363" lon="1.57333">
        <ele>2033.8000488281</ele>
        <time>2023-07-21T11:14:07.000Z</time>
      </trkpt>
      <trkpt lat="42.62363" lon="1.57336">
        <ele>2034.1999511719</ele>
        <time>2023-07-21T11:14:06.000Z</time>
      </trkpt>
      <trkpt lat="42.62361" lon="1.57347">
        <ele>2034.8000488281</ele>
        <time>2023-07-21T11:13:59.000Z</time>
      </trkpt>
      <trkpt lat="42.62362" lon="1.57353">
        <ele>2036</ele>
        <time>2023-07-21T11:13:54.000Z</time>
      </trkpt>
      <trkpt lat="42.62363" lon="1.57355">
        <ele>2036.4000244141</ele>
        <time>2023-07-21T11:13:52.000Z</time>
      </trkpt>
      <trkpt lat="42.62363" lon="1.57361">
        <ele>2037.1999511719</ele>
        <time>2023-07-21T11:13:48.000Z</time>
      </trkpt>
      <trkpt lat="42.62363" lon="1.57369">
        <ele>2038</ele>
        <time>2023-07-21T11:13:43.000Z</time>
      </trkpt>
      <trkpt lat="42.62363" lon="1.5737">
        <ele>2038.1999511719</ele>
        <time>2023-07-21T11:13:42.000Z</time>
      </trkpt>
      <trkpt lat="42.62366" lon="1.57377">
        <ele>2039.4000244141</ele>
        <time>2023-07-21T11:13:36.000Z</time>
      </trkpt>
      <trkpt lat="42.62367" lon="1.57378">
        <ele>2040</ele>
        <time>2023-07-21T11:13:34.000Z</time>
      </trkpt>
      <trkpt lat="42.62368" lon="1.57382">
        <ele>2040.5999755859</ele>
        <time>2023-07-21T11:13:31.000Z</time>
      </trkpt>
      <trkpt lat="42.62371" lon="1.57388">
        <ele>2041.4000244141</ele>
        <time>2023-07-21T11:13:28.000Z</time>
      </trkpt>
      <trkpt lat="42.62372" lon="1.57389">
        <ele>2041.8000488281</ele>
        <time>2023-07-21T11:13:26.000Z</time>
      </trkpt>
      <trkpt lat="42.62374" lon="1.57391">
        <ele>2042.8000488281</ele>
        <time>2023-07-21T11:13:21.000Z</time>
      </trkpt>
      <trkpt lat="42.62375" lon="1.57394">
        <ele>2043</ele>
        <time>2023-07-21T11:13:19.000Z</time>
      </trkpt>
      <trkpt lat="42.62376" lon="1.57402">
        <ele>2044.1999511719</ele>
        <time>2023-07-21T11:13:15.000Z</time>
      </trkpt>
      <trkpt lat="42.62377" lon="1.57411">
        <ele>2045.4000244141</ele>
        <time>2023-07-21T11:13:08.000Z</time>
      </trkpt>
      <trkpt lat="42.62377" lon="1.57419">
        <ele>2046.4000244141</ele>
        <time>2023-07-21T11:13:02.000Z</time>
      </trkpt>
      <trkpt lat="42.62377" lon="1.57423">
        <ele>2046.8000488281</ele>
        <time>2023-07-21T11:12:59.000Z</time>
      </trkpt>
      <trkpt lat="42.62376" lon="1.57426">
        <ele>2047.5999755859</ele>
        <time>2023-07-21T11:12:56.000Z</time>
      </trkpt>
      <trkpt lat="42.62376" lon="1.5743">
        <ele>2048.6000976562</ele>
        <time>2023-07-21T11:12:51.000Z</time>
      </trkpt>
      <trkpt lat="42.62377" lon="1.57436">
        <ele>2049.8000488281</ele>
        <time>2023-07-21T11:12:45.000Z</time>
      </trkpt>
      <trkpt lat="42.62378" lon="1.57437">
        <ele>2050</ele>
        <time>2023-07-21T11:12:44.000Z</time>
      </trkpt>
      <trkpt lat="42.62382" lon="1.57441">
        <ele>2050.8000488281</ele>
        <time>2023-07-21T11:12:39.000Z</time>
      </trkpt>
      <trkpt lat="42.62382" lon="1.57441">
        <ele>2051</ele>
        <time>2023-07-21T11:12:38.000Z</time>
      </trkpt>
      <trkpt lat="42.62385" lon="1.57446">
        <ele>2052</ele>
        <time>2023-07-21T11:12:33.000Z</time>
      </trkpt>
      <trkpt lat="42.62387" lon="1.57449">
        <ele>2052.3999023438</ele>
        <time>2023-07-21T11:12:30.000Z</time>
      </trkpt>
      <trkpt lat="42.62388" lon="1.57456">
        <ele>2053.1999511719</ele>
        <time>2023-07-21T11:12:26.000Z</time>
      </trkpt>
      <trkpt lat="42.62388" lon="1.57458">
        <ele>2053.8000488281</ele>
        <time>2023-07-21T11:12:23.000Z</time>
      </trkpt>
      <trkpt lat="42.62388" lon="1.57459">
        <ele>2054.1999511719</ele>
        <time>2023-07-21T11:12:21.000Z</time>
      </trkpt>
      <trkpt lat="42.62386" lon="1.57463">
        <ele>2055.3999023438</ele>
        <time>2023-07-21T11:12:17.000Z</time>
      </trkpt>
      <trkpt lat="42.62386" lon="1.57464">
        <ele>2055.8000488281</ele>
        <time>2023-07-21T11:12:16.000Z</time>
      </trkpt>
      <trkpt lat="42.62388" lon="1.57468">
        <ele>2056.6000976562</ele>
        <time>2023-07-21T11:12:11.000Z</time>
      </trkpt>
      <trkpt lat="42.62392" lon="1.57471">
        <ele>2057.6000976562</ele>
        <time>2023-07-21T11:12:07.000Z</time>
      </trkpt>
      <trkpt lat="42.62393" lon="1.57472">
        <ele>2057.8000488281</ele>
        <time>2023-07-21T11:12:06.000Z</time>
      </trkpt>
      <trkpt lat="42.62396" lon="1.57474">
        <ele>2059</ele>
        <time>2023-07-21T11:12:02.000Z</time>
      </trkpt>
      <trkpt lat="42.62397" lon="1.57477">
        <ele>2059.8000488281</ele>
        <time>2023-07-21T11:11:59.000Z</time>
      </trkpt>
      <trkpt lat="42.62397" lon="1.57481">
        <ele>2060.1999511719</ele>
        <time>2023-07-21T11:11:57.000Z</time>
      </trkpt>
      <trkpt lat="42.62396" lon="1.57486">
        <ele>2061.3999023438</ele>
        <time>2023-07-21T11:11:52.000Z</time>
      </trkpt>
      <trkpt lat="42.62398" lon="1.57492">
        <ele>2062.3999023438</ele>
        <time>2023-07-21T11:11:46.000Z</time>
      </trkpt>
      <trkpt lat="42.62399" lon="1.57494">
        <ele>2063</ele>
        <time>2023-07-21T11:11:44.000Z</time>
      </trkpt>
      <trkpt lat="42.62401" lon="1.57496">
        <ele>2063.6000976562</ele>
        <time>2023-07-21T11:11:41.000Z</time>
      </trkpt>
      <trkpt lat="42.62403" lon="1.57498">
        <ele>2064</ele>
        <time>2023-07-21T11:11:36.000Z</time>
      </trkpt>
      <trkpt lat="42.62402" lon="1.57501">
        <ele>2064.8000488281</ele>
        <time>2023-07-21T11:11:32.000Z</time>
      </trkpt>
      <trkpt lat="42.62399" lon="1.57502">
        <ele>2065.1999511719</ele>
        <time>2023-07-21T11:11:27.000Z</time>
      </trkpt>
      <trkpt lat="42.624" lon="1.57504">
        <ele>2065.6000976562</ele>
        <time>2023-07-21T11:11:21.000Z</time>
      </trkpt>
      <trkpt lat="42.62397" lon="1.5751">
        <ele>2065.3999023438</ele>
        <time>2023-07-21T11:11:12.000Z</time>
      </trkpt>
      <trkpt lat="42.624" lon="1.57514">
        <ele>2065.3999023438</ele>
        <time>2023-07-21T11:11:03.000Z</time>
      </trkpt>
      <trkpt lat="42.62401" lon="1.57511">
        <ele>2065.3999023438</ele>
        <time>2023-07-21T11:10:56.000Z</time>
      </trkpt>
      <trkpt lat="42.624" lon="1.57511">
        <ele>2065.3999023438</ele>
        <time>2023-07-21T11:10:55.000Z</time>
      </trkpt>
      <trkpt lat="42.62396" lon="1.57508">
        <ele>2065.8000488281</ele>
        <time>2023-07-21T11:10:45.000Z</time>
      </trkpt>
      <trkpt lat="42.624" lon="1.57506">
        <ele>2066.8000488281</ele>
        <time>2023-07-21T11:10:39.000Z</time>
      </trkpt>
      <trkpt lat="42.62401" lon="1.57506">
        <ele>2067</ele>
        <time>2023-07-21T11:10:38.000Z</time>
      </trkpt>
      <trkpt lat="42.62407" lon="1.57504">
        <ele>2068.1999511719</ele>
        <time>2023-07-21T11:10:33.000Z</time>
      </trkpt>
      <trkpt lat="42.62408" lon="1.57503">
        <ele>2068.8000488281</ele>
        <time>2023-07-21T11:10:31.000Z</time>
      </trkpt>
      <trkpt lat="42.62411" lon="1.57501">
        <ele>2069.3999023438</ele>
        <time>2023-07-21T11:10:27.000Z</time>
      </trkpt>
      <trkpt lat="42.62412" lon="1.575">
        <ele>2069.6000976562</ele>
        <time>2023-07-21T11:10:26.000Z</time>
      </trkpt>
      <trkpt lat="42.62413" lon="1.57499">
        <ele>2069.8000488281</ele>
        <time>2023-07-21T11:10:25.000Z</time>
      </trkpt>
      <trkpt lat="42.62416" lon="1.57498">
        <ele>2070.3999023438</ele>
        <time>2023-07-21T11:10:20.000Z</time>
      </trkpt>
      <trkpt lat="42.62417" lon="1.575">
        <ele>2070.8000488281</ele>
        <time>2023-07-21T11:10:19.000Z</time>
      </trkpt>
      <trkpt lat="42.62416" lon="1.57505">
        <ele>2071.3999023438</ele>
        <time>2023-07-21T11:10:16.000Z</time>
      </trkpt>
      <trkpt lat="42.62412" lon="1.57509">
        <ele>2072.3999023438</ele>
        <time>2023-07-21T11:10:12.000Z</time>
      </trkpt>
      <trkpt lat="42.62408" lon="1.57514">
        <ele>2073.6000976562</ele>
        <time>2023-07-21T11:10:07.000Z</time>
      </trkpt>
      <trkpt lat="42.62407" lon="1.57516">
        <ele>2074.3999023438</ele>
        <time>2023-07-21T11:10:04.000Z</time>
      </trkpt>
      <trkpt lat="42.62407" lon="1.57519">
        <ele>2074.8000488281</ele>
        <time>2023-07-21T11:10:02.000Z</time>
      </trkpt>
      <trkpt lat="42.62407" lon="1.57525">
        <ele>2075.8000488281</ele>
        <time>2023-07-21T11:09:57.000Z</time>
      </trkpt>
      <trkpt lat="42.62407" lon="1.57526">
        <ele>2076.1999511719</ele>
        <time>2023-07-21T11:09:55.000Z</time>
      </trkpt>
      <trkpt lat="42.62408" lon="1.57529">
        <ele>2076.8000488281</ele>
        <time>2023-07-21T11:09:52.000Z</time>
      </trkpt>
      <trkpt lat="42.62409" lon="1.57532">
        <ele>2077.6000976562</ele>
        <time>2023-07-21T11:09:49.000Z</time>
      </trkpt>
      <trkpt lat="42.6241" lon="1.57533">
        <ele>2078</ele>
        <time>2023-07-21T11:09:48.000Z</time>
      </trkpt>
      <trkpt lat="42.62412" lon="1.57534">
        <ele>2079</ele>
        <time>2023-07-21T11:09:44.000Z</time>
      </trkpt>
      <trkpt lat="42.62411" lon="1.57537">
        <ele>2079.6000976562</ele>
        <time>2023-07-21T11:09:41.000Z</time>
      </trkpt>
      <trkpt lat="42.62411" lon="1.57539">
        <ele>2080.1999511719</ele>
        <time>2023-07-21T11:09:39.000Z</time>
      </trkpt>
      <trkpt lat="42.62411" lon="1.57544">
        <ele>2081.6000976562</ele>
        <time>2023-07-21T11:09:34.000Z</time>
      </trkpt>
      <trkpt lat="42.62411" lon="1.57549">
        <ele>2082.6000976562</ele>
        <time>2023-07-21T11:09:30.000Z</time>
      </trkpt>
      <trkpt lat="42.62411" lon="1.57551">
        <ele>2082.8000488281</ele>
        <time>2023-07-21T11:09:29.000Z</time>
      </trkpt>
      <trkpt lat="42.62412" lon="1.57557">
        <ele>2084</ele>
        <time>2023-07-21T11:09:24.000Z</time>
      </trkpt>
      <trkpt lat="42.62414" lon="1.57555">
        <ele>2084.8000488281</ele>
        <time>2023-07-21T11:09:21.000Z</time>
      </trkpt>
      <trkpt lat="42.62414" lon="1.57555">
        <ele>2085.1999511719</ele>
        <time>2023-07-21T11:09:18.000Z</time>
      </trkpt>
      <trkpt lat="42.62414" lon="1.57557">
        <ele>2085.8000488281</ele>
        <time>2023-07-21T11:09:15.000Z</time>
      </trkpt>
      <trkpt lat="42.62413" lon="1.57559">
        <ele>2086</ele>
        <time>2023-07-21T11:09:13.000Z</time>
      </trkpt>
      <trkpt lat="42.62413" lon="1.57558">
        <ele>2086.1999511719</ele>
        <time>2023-07-21T11:09:12.000Z</time>
      </trkpt>
      <trkpt lat="42.62412" lon="1.57562">
        <ele>2087.1999511719</ele>
        <time>2023-07-21T11:09:08.000Z</time>
      </trkpt>
      <trkpt lat="42.62413" lon="1.57562">
        <ele>2087.3999023438</ele>
        <time>2023-07-21T11:09:07.000Z</time>
      </trkpt>
      <trkpt lat="42.62413" lon="1.57565">
        <ele>2088.3999023438</ele>
        <time>2023-07-21T11:09:03.000Z</time>
      </trkpt>
      <trkpt lat="42.62413" lon="1.57568">
        <ele>2089.1999511719</ele>
        <time>2023-07-21T11:09:00.000Z</time>
      </trkpt>
      <trkpt lat="42.62413" lon="1.57574">
        <ele>2089.8000488281</ele>
        <time>2023-07-21T11:08:55.000Z</time>
      </trkpt>
      <trkpt lat="42.62413" lon="1.57576">
        <ele>2090.3999023438</ele>
        <time>2023-07-21T11:08:53.000Z</time>
      </trkpt>
      <trkpt lat="42.62414" lon="1.57577">
        <ele>2091</ele>
        <time>2023-07-21T11:08:50.000Z</time>
      </trkpt>
      <trkpt lat="42.62415" lon="1.5758">
        <ele>2092</ele>
        <time>2023-07-21T11:08:45.000Z</time>
      </trkpt>
      <trkpt lat="42.62416" lon="1.57585">
        <ele>2093.3999023438</ele>
        <time>2023-07-21T11:08:40.000Z</time>
      </trkpt>
      <trkpt lat="42.62416" lon="1.57589">
        <ele>2094</ele>
        <time>2023-07-21T11:08:37.000Z</time>
      </trkpt>
      <trkpt lat="42.62416" lon="1.5759">
        <ele>2094.3999023438</ele>
        <time>2023-07-21T11:08:35.000Z</time>
      </trkpt>
      <trkpt lat="42.62413" lon="1.576">
        <ele>2095.3999023438</ele>
        <time>2023-07-21T11:08:30.000Z</time>
      </trkpt>
      <trkpt lat="42.62413" lon="1.57602">
        <ele>2096</ele>
        <time>2023-07-21T11:08:28.000Z</time>
      </trkpt>
      <trkpt lat="42.62413" lon="1.57607">
        <ele>2096.6000976562</ele>
        <time>2023-07-21T11:08:25.000Z</time>
      </trkpt>
      <trkpt lat="42.62414" lon="1.57613">
        <ele>2097.8000488281</ele>
        <time>2023-07-21T11:08:20.000Z</time>
      </trkpt>
      <trkpt lat="42.62414" lon="1.57613">
        <ele>2098</ele>
        <time>2023-07-21T11:08:19.000Z</time>
      </trkpt>
      <trkpt lat="42.62415" lon="1.57621">
        <ele>2099</ele>
        <time>2023-07-21T11:08:13.000Z</time>
      </trkpt>
      <trkpt lat="42.62415" lon="1.57622">
        <ele>2099.1999511719</ele>
        <time>2023-07-21T11:08:12.000Z</time>
      </trkpt>
      <trkpt lat="42.62415" lon="1.57631">
        <ele>2100</ele>
        <time>2023-07-21T11:08:07.000Z</time>
      </trkpt>
      <trkpt lat="42.62415" lon="1.57639">
        <ele>2100.8000488281</ele>
        <time>2023-07-21T11:08:02.000Z</time>
      </trkpt>
      <trkpt lat="42.62415" lon="1.57639">
        <ele>2101.1999511719</ele>
        <time>2023-07-21T11:08:01.000Z</time>
      </trkpt>
      <trkpt lat="42.62418" lon="1.57649">
        <ele>2102.8000488281</ele>
        <time>2023-07-21T11:07:54.000Z</time>
      </trkpt>
      <trkpt lat="42.62418" lon="1.5765">
        <ele>2103.1999511719</ele>
        <time>2023-07-21T11:07:53.000Z</time>
      </trkpt>
      <trkpt lat="42.62418" lon="1.57657">
        <ele>2104</ele>
        <time>2023-07-21T11:07:49.000Z</time>
      </trkpt>
      <trkpt lat="42.62418" lon="1.57662">
        <ele>2104.6000976562</ele>
        <time>2023-07-21T11:07:46.000Z</time>
      </trkpt>
      <trkpt lat="42.62417" lon="1.57667">
        <ele>2105</ele>
        <time>2023-07-21T11:07:43.000Z</time>
      </trkpt>
      <trkpt lat="42.62416" lon="1.57671">
        <ele>2106.1999511719</ele>
        <time>2023-07-21T11:07:39.000Z</time>
      </trkpt>
      <trkpt lat="42.62414" lon="1.57675">
        <ele>2107.1999511719</ele>
        <time>2023-07-21T11:07:36.000Z</time>
      </trkpt>
      <trkpt lat="42.62413" lon="1.57681">
        <ele>2107.8000488281</ele>
        <time>2023-07-21T11:07:32.000Z</time>
      </trkpt>
      <trkpt lat="42.62411" lon="1.57685">
        <ele>2108.3999023438</ele>
        <time>2023-07-21T11:07:28.000Z</time>
      </trkpt>
      <trkpt lat="42.62411" lon="1.57687">
        <ele>2109.6000976562</ele>
        <time>2023-07-21T11:07:24.000Z</time>
      </trkpt>
      <trkpt lat="42.62411" lon="1.57693">
        <ele>2110.6000976562</ele>
        <time>2023-07-21T11:07:20.000Z</time>
      </trkpt>
      <trkpt lat="42.62411" lon="1.57697">
        <ele>2111</ele>
        <time>2023-07-21T11:07:18.000Z</time>
      </trkpt>
      <trkpt lat="42.62408" lon="1.57706">
        <ele>2111</ele>
        <time>2023-07-21T11:07:11.000Z</time>
      </trkpt>
      <trkpt lat="42.62405" lon="1.57709">
        <ele>2111.8000488281</ele>
        <time>2023-07-21T11:07:07.000Z</time>
      </trkpt>
      <trkpt lat="42.62402" lon="1.57713">
        <ele>2112.8000488281</ele>
        <time>2023-07-21T11:07:04.000Z</time>
      </trkpt>
      <trkpt lat="42.62402" lon="1.57714">
        <ele>2113</ele>
        <time>2023-07-21T11:07:03.000Z</time>
      </trkpt>
      <trkpt lat="42.62401" lon="1.57721">
        <ele>2113.8000488281</ele>
        <time>2023-07-21T11:06:59.000Z</time>
      </trkpt>
      <trkpt lat="42.62401" lon="1.57723">
        <ele>2114.1999511719</ele>
        <time>2023-07-21T11:06:57.000Z</time>
      </trkpt>
      <trkpt lat="42.62401" lon="1.57727">
        <ele>2115.1999511719</ele>
        <time>2023-07-21T11:06:53.000Z</time>
      </trkpt>
      <trkpt lat="42.624" lon="1.57728">
        <ele>2115.6000976562</ele>
        <time>2023-07-21T11:06:52.000Z</time>
      </trkpt>
      <trkpt lat="42.62399" lon="1.57732">
        <ele>2116.3999023438</ele>
        <time>2023-07-21T11:06:49.000Z</time>
      </trkpt>
      <trkpt lat="42.62398" lon="1.57737">
        <ele>2117.6000976562</ele>
        <time>2023-07-21T11:06:43.000Z</time>
      </trkpt>
      <trkpt lat="42.62396" lon="1.57748">
        <ele>2118.3999023438</ele>
        <time>2023-07-21T11:06:34.000Z</time>
      </trkpt>
      <trkpt lat="42.62395" lon="1.57749">
        <ele>2118.6000976562</ele>
        <time>2023-07-21T11:06:32.000Z</time>
      </trkpt>
      <trkpt lat="42.62394" lon="1.57756">
        <ele>2119.6000976562</ele>
        <time>2023-07-21T11:06:27.000Z</time>
      </trkpt>
      <trkpt lat="42.62394" lon="1.57756">
        <ele>2119.8000488281</ele>
        <time>2023-07-21T11:06:26.000Z</time>
      </trkpt>
      <trkpt lat="42.62394" lon="1.5776">
        <ele>2120.8000488281</ele>
        <time>2023-07-21T11:06:22.000Z</time>
      </trkpt>
      <trkpt lat="42.62395" lon="1.57767">
        <ele>2121.6000976562</ele>
        <time>2023-07-21T11:06:18.000Z</time>
      </trkpt>
      <trkpt lat="42.62395" lon="1.57767">
        <ele>2121.8000488281</ele>
        <time>2023-07-21T11:06:17.000Z</time>
      </trkpt>
      <trkpt lat="42.62397" lon="1.57772">
        <ele>2123</ele>
        <time>2023-07-21T11:06:12.000Z</time>
      </trkpt>
      <trkpt lat="42.62398" lon="1.57775">
        <ele>2123.6000976562</ele>
        <time>2023-07-21T11:06:09.000Z</time>
      </trkpt>
      <trkpt lat="42.62398" lon="1.57778">
        <ele>2124</ele>
        <time>2023-07-21T11:06:07.000Z</time>
      </trkpt>
      <trkpt lat="42.62398" lon="1.57783">
        <ele>2125.3999023438</ele>
        <time>2023-07-21T11:06:02.000Z</time>
      </trkpt>
      <trkpt lat="42.62398" lon="1.57786">
        <ele>2125.8000488281</ele>
        <time>2023-07-21T11:06:00.000Z</time>
      </trkpt>
      <trkpt lat="42.62398" lon="1.57789">
        <ele>2126.3999023438</ele>
        <time>2023-07-21T11:05:57.000Z</time>
      </trkpt>
      <trkpt lat="42.62399" lon="1.578">
        <ele>2127.6000976562</ele>
        <time>2023-07-21T11:05:51.000Z</time>
      </trkpt>
      <trkpt lat="42.62399" lon="1.57804">
        <ele>2128.6000976562</ele>
        <time>2023-07-21T11:05:46.000Z</time>
      </trkpt>
      <trkpt lat="42.62399" lon="1.57805">
        <ele>2129</ele>
        <time>2023-07-21T11:05:44.000Z</time>
      </trkpt>
      <trkpt lat="42.624" lon="1.57805">
        <ele>2129.6000976562</ele>
        <time>2023-07-21T11:05:41.000Z</time>
      </trkpt>
      <trkpt lat="42.62401" lon="1.57807">
        <ele>2130.6000976562</ele>
        <time>2023-07-21T11:05:37.000Z</time>
      </trkpt>
      <trkpt lat="42.62402" lon="1.57809">
        <ele>2130.8000488281</ele>
        <time>2023-07-21T11:05:35.000Z</time>
      </trkpt>
      <trkpt lat="42.62401" lon="1.57819">
        <ele>2131.6000976562</ele>
        <time>2023-07-21T11:05:29.000Z</time>
      </trkpt>
      <trkpt lat="42.62402" lon="1.57822">
        <ele>2132</ele>
        <time>2023-07-21T11:05:27.000Z</time>
      </trkpt>
      <trkpt lat="42.62401" lon="1.5783">
        <ele>2132.6000976562</ele>
        <time>2023-07-21T11:05:22.000Z</time>
      </trkpt>
      <trkpt lat="42.62401" lon="1.57834">
        <ele>2133</ele>
        <time>2023-07-21T11:05:19.000Z</time>
      </trkpt>
      <trkpt lat="42.62401" lon="1.57835">
        <ele>2133.6000976562</ele>
        <time>2023-07-21T11:05:15.000Z</time>
      </trkpt>
      <trkpt lat="42.62402" lon="1.57838">
        <ele>2134.1999511719</ele>
        <time>2023-07-21T11:05:12.000Z</time>
      </trkpt>
      <trkpt lat="42.62401" lon="1.57843">
        <ele>2135.1999511719</ele>
        <time>2023-07-21T11:05:07.000Z</time>
      </trkpt>
      <trkpt lat="42.62401" lon="1.57843">
        <ele>2135.1999511719</ele>
        <time>2023-07-21T11:05:06.000Z</time>
      </trkpt>
      <trkpt lat="42.624" lon="1.57851">
        <ele>2136.1999511719</ele>
        <time>2023-07-21T11:05:01.000Z</time>
      </trkpt>
      <trkpt lat="42.624" lon="1.57852">
        <ele>2136.6000976562</ele>
        <time>2023-07-21T11:05:00.000Z</time>
      </trkpt>
      <trkpt lat="42.624" lon="1.57857">
        <ele>2137.1999511719</ele>
        <time>2023-07-21T11:04:56.000Z</time>
      </trkpt>
      <trkpt lat="42.624" lon="1.57861">
        <ele>2137.6000976562</ele>
        <time>2023-07-21T11:04:53.000Z</time>
      </trkpt>
      <trkpt lat="42.62399" lon="1.57864">
        <ele>2138.3999023438</ele>
        <time>2023-07-21T11:04:51.000Z</time>
      </trkpt>
      <trkpt lat="42.62398" lon="1.57868">
        <ele>2139.6000976562</ele>
        <time>2023-07-21T11:04:45.000Z</time>
      </trkpt>
      <trkpt lat="42.62399" lon="1.57868">
        <ele>2140</ele>
        <time>2023-07-21T11:04:43.000Z</time>
      </trkpt>
      <trkpt lat="42.62399" lon="1.57869">
        <ele>2140.6000976562</ele>
        <time>2023-07-21T11:04:41.000Z</time>
      </trkpt>
      <trkpt lat="42.62399" lon="1.57874">
        <ele>2141.6000976562</ele>
        <time>2023-07-21T11:04:36.000Z</time>
      </trkpt>
      <trkpt lat="42.62399" lon="1.57875">
        <ele>2141.6000976562</ele>
        <time>2023-07-21T11:04:35.000Z</time>
      </trkpt>
      <trkpt lat="42.62399" lon="1.57878">
        <ele>2142.8000488281</ele>
        <time>2023-07-21T11:04:30.000Z</time>
      </trkpt>
      <trkpt lat="42.62399" lon="1.57879">
        <ele>2143.8000488281</ele>
        <time>2023-07-21T11:04:27.000Z</time>
      </trkpt>
      <trkpt lat="42.62399" lon="1.5788">
        <ele>2144.1999511719</ele>
        <time>2023-07-21T11:04:25.000Z</time>
      </trkpt>
      <trkpt lat="42.62399" lon="1.57884">
        <ele>2145.1999511719</ele>
        <time>2023-07-21T11:04:21.000Z</time>
      </trkpt>
      <trkpt lat="42.624" lon="1.57885">
        <ele>2145.3999023438</ele>
        <time>2023-07-21T11:04:20.000Z</time>
      </trkpt>
      <trkpt lat="42.62401" lon="1.5789">
        <ele>2146.1999511719</ele>
        <time>2023-07-21T11:04:14.000Z</time>
      </trkpt>
      <trkpt lat="42.62402" lon="1.57892">
        <ele>2146.3999023438</ele>
        <time>2023-07-21T11:04:12.000Z</time>
      </trkpt>
      <trkpt lat="42.62402" lon="1.57896">
        <ele>2147.6000976562</ele>
        <time>2023-07-21T11:04:07.000Z</time>
      </trkpt>
      <trkpt lat="42.62403" lon="1.57896">
        <ele>2148</ele>
        <time>2023-07-21T11:04:06.000Z</time>
      </trkpt>
      <trkpt lat="42.62403" lon="1.57897">
        <ele>2148.6000976562</ele>
        <time>2023-07-21T11:04:05.000Z</time>
      </trkpt>
      <trkpt lat="42.62402" lon="1.57901">
        <ele>2149.8000488281</ele>
        <time>2023-07-21T11:04:00.000Z</time>
      </trkpt>
      <trkpt lat="42.62402" lon="1.57902">
        <ele>2150.1999511719</ele>
        <time>2023-07-21T11:03:58.000Z</time>
      </trkpt>
      <trkpt lat="42.62404" lon="1.57905">
        <ele>2150.8000488281</ele>
        <time>2023-07-21T11:03:54.000Z</time>
      </trkpt>
      <trkpt lat="42.62405" lon="1.57908">
        <ele>2152.1999511719</ele>
        <time>2023-07-21T11:03:50.000Z</time>
      </trkpt>
      <trkpt lat="42.62405" lon="1.57908">
        <ele>2152.1999511719</ele>
        <time>2023-07-21T11:03:49.000Z</time>
      </trkpt>
      <trkpt lat="42.62406" lon="1.57915">
        <ele>2153.1999511719</ele>
        <time>2023-07-21T11:03:43.000Z</time>
      </trkpt>
      <trkpt lat="42.62406" lon="1.57916">
        <ele>2153.3999023438</ele>
        <time>2023-07-21T11:03:42.000Z</time>
      </trkpt>
      <trkpt lat="42.62406" lon="1.5792">
        <ele>2154.3999023438</ele>
        <time>2023-07-21T11:03:38.000Z</time>
      </trkpt>
      <trkpt lat="42.62407" lon="1.5792">
        <ele>2154.8000488281</ele>
        <time>2023-07-21T11:03:35.000Z</time>
      </trkpt>
      <trkpt lat="42.62409" lon="1.57929">
        <ele>2155.6000976562</ele>
        <time>2023-07-21T11:03:29.000Z</time>
      </trkpt>
      <trkpt lat="42.6241" lon="1.5793">
        <ele>2155.8000488281</ele>
        <time>2023-07-21T11:03:28.000Z</time>
      </trkpt>
      <trkpt lat="42.62409" lon="1.57935">
        <ele>2156.8000488281</ele>
        <time>2023-07-21T11:03:23.000Z</time>
      </trkpt>
      <trkpt lat="42.62409" lon="1.57939">
        <ele>2157.6000976562</ele>
        <time>2023-07-21T11:03:18.000Z</time>
      </trkpt>
      <trkpt lat="42.62409" lon="1.5794">
        <ele>2157.8000488281</ele>
        <time>2023-07-21T11:03:17.000Z</time>
      </trkpt>
      <trkpt lat="42.62409" lon="1.57944">
        <ele>2158.8000488281</ele>
        <time>2023-07-21T11:03:12.000Z</time>
      </trkpt>
      <trkpt lat="42.6241" lon="1.57948">
        <ele>2159.3999023438</ele>
        <time>2023-07-21T11:03:09.000Z</time>
      </trkpt>
      <trkpt lat="42.6241" lon="1.57954">
        <ele>2159.8000488281</ele>
        <time>2023-07-21T11:03:03.000Z</time>
      </trkpt>
      <trkpt lat="42.62411" lon="1.57955">
        <ele>2160</ele>
        <time>2023-07-21T11:03:00.000Z</time>
      </trkpt>
      <trkpt lat="42.62412" lon="1.57955">
        <ele>2161</ele>
        <time>2023-07-21T11:02:56.000Z</time>
      </trkpt>
      <trkpt lat="42.62413" lon="1.57958">
        <ele>2161.8000488281</ele>
        <time>2023-07-21T11:02:53.000Z</time>
      </trkpt>
      <trkpt lat="42.62413" lon="1.57959">
        <ele>2162.1999511719</ele>
        <time>2023-07-21T11:02:51.000Z</time>
      </trkpt>
      <trkpt lat="42.62415" lon="1.57966">
        <ele>2163</ele>
        <time>2023-07-21T11:02:44.000Z</time>
      </trkpt>
      <trkpt lat="42.62414" lon="1.57967">
        <ele>2163.1999511719</ele>
        <time>2023-07-21T11:02:43.000Z</time>
      </trkpt>
      <trkpt lat="42.62414" lon="1.57971">
        <ele>2164.1999511719</ele>
        <time>2023-07-21T11:02:39.000Z</time>
      </trkpt>
      <trkpt lat="42.62414" lon="1.57975">
        <ele>2165</ele>
        <time>2023-07-21T11:02:35.000Z</time>
      </trkpt>
      <trkpt lat="42.62415" lon="1.5798">
        <ele>2165.6000976562</ele>
        <time>2023-07-21T11:02:31.000Z</time>
      </trkpt>
      <trkpt lat="42.62415" lon="1.57982">
        <ele>2166</ele>
        <time>2023-07-21T11:02:29.000Z</time>
      </trkpt>
      <trkpt lat="42.62415" lon="1.57986">
        <ele>2166.6000976562</ele>
        <time>2023-07-21T11:02:26.000Z</time>
      </trkpt>
      <trkpt lat="42.62414" lon="1.57988">
        <ele>2167.6000976562</ele>
        <time>2023-07-21T11:02:22.000Z</time>
      </trkpt>
      <trkpt lat="42.62414" lon="1.57989">
        <ele>2168</ele>
        <time>2023-07-21T11:02:20.000Z</time>
      </trkpt>
      <trkpt lat="42.62416" lon="1.5799">
        <ele>2168.6000976562</ele>
        <time>2023-07-21T11:02:16.000Z</time>
      </trkpt>
      <trkpt lat="42.62416" lon="1.57994">
        <ele>2169.1999511719</ele>
        <time>2023-07-21T11:02:13.000Z</time>
      </trkpt>
      <trkpt lat="42.62416" lon="1.57998">
        <ele>2169.8000488281</ele>
        <time>2023-07-21T11:02:09.000Z</time>
      </trkpt>
      <trkpt lat="42.62415" lon="1.58001">
        <ele>2171.1999511719</ele>
        <time>2023-07-21T11:02:04.000Z</time>
      </trkpt>
      <trkpt lat="42.62415" lon="1.58002">
        <ele>2171.3999023438</ele>
        <time>2023-07-21T11:02:03.000Z</time>
      </trkpt>
      <trkpt lat="42.62415" lon="1.58011">
        <ele>2172.3999023438</ele>
        <time>2023-07-21T11:01:58.000Z</time>
      </trkpt>
      <trkpt lat="42.62416" lon="1.58013">
        <ele>2172.6000976562</ele>
        <time>2023-07-21T11:01:56.000Z</time>
      </trkpt>
      <trkpt lat="42.62417" lon="1.58016">
        <ele>2172.6000976562</ele>
        <time>2023-07-21T11:01:52.000Z</time>
      </trkpt>
      <trkpt lat="42.62416" lon="1.5802">
        <ele>2173</ele>
        <time>2023-07-21T11:01:49.000Z</time>
      </trkpt>
      <trkpt lat="42.62413" lon="1.5802">
        <ele>2173.1999511719</ele>
        <time>2023-07-21T11:01:41.000Z</time>
      </trkpt>
      <trkpt lat="42.6241" lon="1.58025">
        <ele>2173</ele>
        <time>2023-07-21T11:01:34.000Z</time>
      </trkpt>
      <trkpt lat="42.62406" lon="1.58028">
        <ele>2173</ele>
        <time>2023-07-21T11:01:27.000Z</time>
      </trkpt>
      <trkpt lat="42.62405" lon="1.5803">
        <ele>2173.3999023438</ele>
        <time>2023-07-21T11:01:24.000Z</time>
      </trkpt>
      <trkpt lat="42.62401" lon="1.58033">
        <ele>2174.1999511719</ele>
        <time>2023-07-21T11:01:19.000Z</time>
      </trkpt>
      <trkpt lat="42.62396" lon="1.58033">
        <ele>2174.6000976562</ele>
        <time>2023-07-21T11:01:12.000Z</time>
      </trkpt>
      <trkpt lat="42.62395" lon="1.58033">
        <ele>2174.6000976562</ele>
        <time>2023-07-21T11:01:11.000Z</time>
      </trkpt>
      <trkpt lat="42.62393" lon="1.58039">
        <ele>2175.1999511719</ele>
        <time>2023-07-21T11:01:04.000Z</time>
      </trkpt>
      <trkpt lat="42.62395" lon="1.58043">
        <ele>2175.3999023438</ele>
        <time>2023-07-21T11:01:01.000Z</time>
      </trkpt>
      <trkpt lat="42.62395" lon="1.58045">
        <ele>2175.6000976562</ele>
        <time>2023-07-21T11:01:00.000Z</time>
      </trkpt>
      <trkpt lat="42.62395" lon="1.58047">
        <ele>2175.8000488281</ele>
        <time>2023-07-21T11:00:58.000Z</time>
      </trkpt>
      <trkpt lat="42.62389" lon="1.58046">
        <ele>2176.1999511719</ele>
        <time>2023-07-21T11:00:51.000Z</time>
      </trkpt>
      <trkpt lat="42.62387" lon="1.58043">
        <ele>2176.6000976562</ele>
        <time>2023-07-21T11:00:47.000Z</time>
      </trkpt>
      <trkpt lat="42.62384" lon="1.58038">
        <ele>2177</ele>
        <time>2023-07-21T11:00:44.000Z</time>
      </trkpt>
      <trkpt lat="42.62384" lon="1.58028">
        <ele>2177.8000488281</ele>
        <time>2023-07-21T11:00:37.000Z</time>
      </trkpt>
      <trkpt lat="42.62384" lon="1.58026">
        <ele>2178.1999511719</ele>
        <time>2023-07-21T11:00:35.000Z</time>
      </trkpt>
      <trkpt lat="42.62382" lon="1.58024">
        <ele>2179</ele>
        <time>2023-07-21T11:00:32.000Z</time>
      </trkpt>
      <trkpt lat="42.62379" lon="1.58022">
        <ele>2179.6000976562</ele>
        <time>2023-07-21T11:00:27.000Z</time>
      </trkpt>
      <trkpt lat="42.62377" lon="1.5802">
        <ele>2180</ele>
        <time>2023-07-21T11:00:23.000Z</time>
      </trkpt>
      <trkpt lat="42.62373" lon="1.58016">
        <ele>2180.8000488281</ele>
        <time>2023-07-21T11:00:18.000Z</time>
      </trkpt>
      <trkpt lat="42.62372" lon="1.58014">
        <ele>2181</ele>
        <time>2023-07-21T11:00:15.000Z</time>
      </trkpt>
      <trkpt lat="42.62371" lon="1.5801">
        <ele>2181.6000976562</ele>
        <time>2023-07-21T11:00:11.000Z</time>
      </trkpt>
      <trkpt lat="42.62369" lon="1.58013">
        <ele>2182.1999511719</ele>
        <time>2023-07-21T11:00:06.000Z</time>
      </trkpt>
      <trkpt lat="42.62369" lon="1.58016">
        <ele>2182.8000488281</ele>
        <time>2023-07-21T11:00:03.000Z</time>
      </trkpt>
      <trkpt lat="42.62369" lon="1.58022">
        <ele>2183.1999511719</ele>
        <time>2023-07-21T10:59:56.000Z</time>
      </trkpt>
      <trkpt lat="42.62369" lon="1.58022">
        <ele>2183.3999023438</ele>
        <time>2023-07-21T10:59:53.000Z</time>
      </trkpt>
      <trkpt lat="42.62367" lon="1.58023">
        <ele>2184.1999511719</ele>
        <time>2023-07-21T10:59:49.000Z</time>
      </trkpt>
      <trkpt lat="42.62365" lon="1.58023">
        <ele>2184.3999023438</ele>
        <time>2023-07-21T10:59:47.000Z</time>
      </trkpt>
      <trkpt lat="42.62365" lon="1.58025">
        <ele>2185.3999023438</ele>
        <time>2023-07-21T10:59:41.000Z</time>
      </trkpt>
      <trkpt lat="42.62362" lon="1.5802">
        <ele>2186.6000976562</ele>
        <time>2023-07-21T10:59:34.000Z</time>
      </trkpt>
      <trkpt lat="42.62362" lon="1.58019">
        <ele>2187</ele>
        <time>2023-07-21T10:59:32.000Z</time>
      </trkpt>
      <trkpt lat="42.62361" lon="1.58014">
        <ele>2187.6000976562</ele>
        <time>2023-07-21T10:59:26.000Z</time>
      </trkpt>
      <trkpt lat="42.6236" lon="1.58014">
        <ele>2187.8000488281</ele>
        <time>2023-07-21T10:59:25.000Z</time>
      </trkpt>
      <trkpt lat="42.62357" lon="1.5801">
        <ele>2188.8000488281</ele>
        <time>2023-07-21T10:59:19.000Z</time>
      </trkpt>
      <trkpt lat="42.62357" lon="1.58009">
        <ele>2189.1999511719</ele>
        <time>2023-07-21T10:59:17.000Z</time>
      </trkpt>
      <trkpt lat="42.62356" lon="1.58008">
        <ele>2189.6000976562</ele>
        <time>2023-07-21T10:59:14.000Z</time>
      </trkpt>
      <trkpt lat="42.62356" lon="1.58007">
        <ele>2190</ele>
        <time>2023-07-21T10:59:12.000Z</time>
      </trkpt>
      <trkpt lat="42.62355" lon="1.58008">
        <ele>2190.1999511719</ele>
        <time>2023-07-21T10:59:10.000Z</time>
      </trkpt>
      <trkpt lat="42.62355" lon="1.58011">
        <ele>2191</ele>
        <time>2023-07-21T10:59:07.000Z</time>
      </trkpt>
      <trkpt lat="42.62355" lon="1.58018">
        <ele>2191.8000488281</ele>
        <time>2023-07-21T10:59:02.000Z</time>
      </trkpt>
      <trkpt lat="42.62355" lon="1.58021">
        <ele>2192.1999511719</ele>
        <time>2023-07-21T10:59:00.000Z</time>
      </trkpt>
      <trkpt lat="42.62355" lon="1.58022">
        <ele>2192.8000488281</ele>
        <time>2023-07-21T10:58:55.000Z</time>
      </trkpt>
      <trkpt lat="42.62353" lon="1.58023">
        <ele>2193.1999511719</ele>
        <time>2023-07-21T10:58:52.000Z</time>
      </trkpt>
      <trkpt lat="42.62351" lon="1.58021">
        <ele>2193.3999023438</ele>
        <time>2023-07-21T10:58:50.000Z</time>
      </trkpt>
      <trkpt lat="42.6235" lon="1.58013">
        <ele>2194.3999023438</ele>
        <time>2023-07-21T10:58:44.000Z</time>
      </trkpt>
      <trkpt lat="42.62346" lon="1.58008">
        <ele>2195.3999023438</ele>
        <time>2023-07-21T10:58:37.000Z</time>
      </trkpt>
      <trkpt lat="42.62345" lon="1.58008">
        <ele>2195.6000976562</ele>
        <time>2023-07-21T10:58:36.000Z</time>
      </trkpt>
      <trkpt lat="42.62344" lon="1.58003">
        <ele>2196.6000976562</ele>
        <time>2023-07-21T10:58:30.000Z</time>
      </trkpt>
      <trkpt lat="42.62343" lon="1.58002">
        <ele>2197.1999511719</ele>
        <time>2023-07-21T10:58:28.000Z</time>
      </trkpt>
      <trkpt lat="42.62343" lon="1.58001">
        <ele>2197.6000976562</ele>
        <time>2023-07-21T10:58:23.000Z</time>
      </trkpt>
      <trkpt lat="42.62342" lon="1.57999">
        <ele>2198.1999511719</ele>
        <time>2023-07-21T10:58:20.000Z</time>
      </trkpt>
      <trkpt lat="42.62341" lon="1.57998">
        <ele>2198.8000488281</ele>
        <time>2023-07-21T10:58:16.000Z</time>
      </trkpt>
      <trkpt lat="42.6234" lon="1.57993">
        <ele>2199.1999511719</ele>
        <time>2023-07-21T10:58:12.000Z</time>
      </trkpt>
      <trkpt lat="42.62326" lon="1.57979">
        <ele>2203</ele>
        <time>2023-07-21T10:57:51.000Z</time>
      </trkpt>
      <trkpt lat="42.62324" lon="1.57982">
        <ele>2204</ele>
        <time>2023-07-21T10:57:44.000Z</time>
      </trkpt>
      <trkpt lat="42.62323" lon="1.57984">
        <ele>2204.3999023438</ele>
        <time>2023-07-21T10:57:42.000Z</time>
      </trkpt>
      <trkpt lat="42.62324" lon="1.57987">
        <ele>2205.1999511719</ele>
        <time>2023-07-21T10:57:36.000Z</time>
      </trkpt>
      <trkpt lat="42.62324" lon="1.5799">
        <ele>2205.6000976562</ele>
        <time>2023-07-21T10:57:34.000Z</time>
      </trkpt>
      <trkpt lat="42.62325" lon="1.57999">
        <ele>2206.3999023438</ele>
        <time>2023-07-21T10:57:29.000Z</time>
      </trkpt>
      <trkpt lat="42.62325" lon="1.58001">
        <ele>2206.3999023438</ele>
        <time>2023-07-21T10:57:27.000Z</time>
      </trkpt>
      <trkpt lat="42.62327" lon="1.58006">
        <ele>2207.3999023438</ele>
        <time>2023-07-21T10:57:23.000Z</time>
      </trkpt>
      <trkpt lat="42.62328" lon="1.58012">
        <ele>2208.1999511719</ele>
        <time>2023-07-21T10:57:19.000Z</time>
      </trkpt>
      <trkpt lat="42.62328" lon="1.58014">
        <ele>2208.3999023438</ele>
        <time>2023-07-21T10:57:18.000Z</time>
      </trkpt>
      <trkpt lat="42.62322" lon="1.58019">
        <ele>2210.6000976562</ele>
        <time>2023-07-21T10:57:04.000Z</time>
      </trkpt>
      <trkpt lat="42.62322" lon="1.58019">
        <ele>2210.8000488281</ele>
        <time>2023-07-21T10:57:03.000Z</time>
      </trkpt>
      <trkpt lat="42.62321" lon="1.58017">
        <ele>2211.3999023438</ele>
        <time>2023-07-21T10:56:59.000Z</time>
      </trkpt>
      <trkpt lat="42.62322" lon="1.58015">
        <ele>2211.8000488281</ele>
        <time>2023-07-21T10:56:56.000Z</time>
      </trkpt>
      <trkpt lat="42.62322" lon="1.58014">
        <ele>2212.1999511719</ele>
        <time>2023-07-21T10:56:53.000Z</time>
      </trkpt>
      <trkpt lat="42.62321" lon="1.58014">
        <ele>2212.6000976562</ele>
        <time>2023-07-21T10:56:51.000Z</time>
      </trkpt>
      <trkpt lat="42.62319" lon="1.58011">
        <ele>2212.8000488281</ele>
        <time>2023-07-21T10:56:49.000Z</time>
      </trkpt>
      <trkpt lat="42.62316" lon="1.58012">
        <ele>2213</ele>
        <time>2023-07-21T10:56:47.000Z</time>
      </trkpt>
      <trkpt lat="42.62316" lon="1.58013">
        <ele>2213.1999511719</ele>
        <time>2023-07-21T10:56:46.000Z</time>
      </trkpt>
      <trkpt lat="42.62312" lon="1.58017">
        <ele>2213.8000488281</ele>
        <time>2023-07-21T10:56:38.000Z</time>
      </trkpt>
      <trkpt lat="42.62311" lon="1.58015">
        <ele>2214.3999023438</ele>
        <time>2023-07-21T10:56:36.000Z</time>
      </trkpt>
      <trkpt lat="42.62309" lon="1.58011">
        <ele>2215</ele>
        <time>2023-07-21T10:56:31.000Z</time>
      </trkpt>
      <trkpt lat="42.62306" lon="1.58008">
        <ele>2215.6000976562</ele>
        <time>2023-07-21T10:56:28.000Z</time>
      </trkpt>
      <trkpt lat="42.62306" lon="1.58006">
        <ele>2215.8000488281</ele>
        <time>2023-07-21T10:56:27.000Z</time>
      </trkpt>
      <trkpt lat="42.62305" lon="1.58002">
        <ele>2216</ele>
        <time>2023-07-21T10:56:25.000Z</time>
      </trkpt>
      <trkpt lat="42.62303" lon="1.58003">
        <ele>2216.8000488281</ele>
        <time>2023-07-21T10:56:20.000Z</time>
      </trkpt>
      <trkpt lat="42.62304" lon="1.58005">
        <ele>2217.1999511719</ele>
        <time>2023-07-21T10:56:18.000Z</time>
      </trkpt>
      <trkpt lat="42.62303" lon="1.58011">
        <ele>2217.3999023438</ele>
        <time>2023-07-21T10:56:15.000Z</time>
      </trkpt>
      <trkpt lat="42.62303" lon="1.58013">
        <ele>2217.6000976562</ele>
        <time>2023-07-21T10:56:14.000Z</time>
      </trkpt>
      <trkpt lat="42.62308" lon="1.5802">
        <ele>2218.3999023438</ele>
        <time>2023-07-21T10:56:10.000Z</time>
      </trkpt>
      <trkpt lat="42.62308" lon="1.58023">
        <ele>2218.3999023438</ele>
        <time>2023-07-21T10:56:08.000Z</time>
      </trkpt>
      <trkpt lat="42.62304" lon="1.58022">
        <ele>2219.1999511719</ele>
        <time>2023-07-21T10:56:01.000Z</time>
      </trkpt>
      <trkpt lat="42.62304" lon="1.58021">
        <ele>2219.3999023438</ele>
        <time>2023-07-21T10:56:00.000Z</time>
      </trkpt>
      <trkpt lat="42.62303" lon="1.58021">
        <ele>2219.6000976562</ele>
        <time>2023-07-21T10:55:58.000Z</time>
      </trkpt>
      <trkpt lat="42.62301" lon="1.5802">
        <ele>2220.3999023438</ele>
        <time>2023-07-21T10:55:55.000Z</time>
      </trkpt>
      <trkpt lat="42.623" lon="1.58016">
        <ele>2220.8000488281</ele>
        <time>2023-07-21T10:55:53.000Z</time>
      </trkpt>
      <trkpt lat="42.62298" lon="1.58012">
        <ele>2221.6000976562</ele>
        <time>2023-07-21T10:55:49.000Z</time>
      </trkpt>
      <trkpt lat="42.62296" lon="1.58009">
        <ele>2222.6000976562</ele>
        <time>2023-07-21T10:55:47.000Z</time>
      </trkpt>
      <trkpt lat="42.62295" lon="1.58008">
        <ele>2223</ele>
        <time>2023-07-21T10:55:46.000Z</time>
      </trkpt>
      <trkpt lat="42.62291" lon="1.58008">
        <ele>2223.3999023438</ele>
        <time>2023-07-21T10:55:39.000Z</time>
      </trkpt>
      <trkpt lat="42.62291" lon="1.58007">
        <ele>2224</ele>
        <time>2023-07-21T10:55:38.000Z</time>
      </trkpt>
      <trkpt lat="42.62289" lon="1.58002">
        <ele>2225.6000976562</ele>
        <time>2023-07-21T10:55:27.000Z</time>
      </trkpt>
      <trkpt lat="42.62287" lon="1.58001">
        <ele>2226.1999511719</ele>
        <time>2023-07-21T10:55:20.000Z</time>
      </trkpt>
      <trkpt lat="42.62286" lon="1.58002">
        <ele>2227.1999511719</ele>
        <time>2023-07-21T10:55:14.000Z</time>
      </trkpt>
      <trkpt lat="42.62286" lon="1.58004">
        <ele>2227.8000488281</ele>
        <time>2023-07-21T10:55:11.000Z</time>
      </trkpt>
      <trkpt lat="42.62285" lon="1.58">
        <ele>2228</ele>
        <time>2023-07-21T10:55:03.000Z</time>
      </trkpt>
      <trkpt lat="42.62285" lon="1.57998">
        <ele>2228.3999023438</ele>
        <time>2023-07-21T10:54:59.000Z</time>
      </trkpt>
      <trkpt lat="42.62287" lon="1.57997">
        <ele>2229</ele>
        <time>2023-07-21T10:54:57.000Z</time>
      </trkpt>
      <trkpt lat="42.62284" lon="1.57994">
        <ele>2229.6000976562</ele>
        <time>2023-07-21T10:54:52.000Z</time>
      </trkpt>
      <trkpt lat="42.62282" lon="1.57994">
        <ele>2230</ele>
        <time>2023-07-21T10:54:49.000Z</time>
      </trkpt>
      <trkpt lat="42.62281" lon="1.57994">
        <ele>2230.8000488281</ele>
        <time>2023-07-21T10:54:45.000Z</time>
      </trkpt>
      <trkpt lat="42.62278" lon="1.57994">
        <ele>2231.1999511719</ele>
        <time>2023-07-21T10:54:42.000Z</time>
      </trkpt>
      <trkpt lat="42.62273" lon="1.57995">
        <ele>2232</ele>
        <time>2023-07-21T10:54:38.000Z</time>
      </trkpt>
      <trkpt lat="42.62269" lon="1.57994">
        <ele>2232.6000976562</ele>
        <time>2023-07-21T10:54:33.000Z</time>
      </trkpt>
      <trkpt lat="42.62266" lon="1.57994">
        <ele>2233.3999023438</ele>
        <time>2023-07-21T10:54:27.000Z</time>
      </trkpt>
      <trkpt lat="42.62261" lon="1.57993">
        <ele>2233.6000976562</ele>
        <time>2023-07-21T10:54:19.000Z</time>
      </trkpt>
      <trkpt lat="42.62259" lon="1.57997">
        <ele>2233</ele>
        <time>2023-07-21T10:54:13.000Z</time>
      </trkpt>
      <trkpt lat="42.62257" lon="1.58">
        <ele>2232.3999023438</ele>
        <time>2023-07-21T10:54:09.000Z</time>
      </trkpt>
      <trkpt lat="42.62255" lon="1.58002">
        <ele>2232</ele>
        <time>2023-07-21T10:54:03.000Z</time>
      </trkpt>
      <trkpt lat="42.62254" lon="1.58003">
        <ele>2231.8000488281</ele>
        <time>2023-07-21T10:54:02.000Z</time>
      </trkpt>
      <trkpt lat="42.62249" lon="1.57999">
        <ele>2230.8000488281</ele>
        <time>2023-07-21T10:53:55.000Z</time>
      </trkpt>
      <trkpt lat="42.62247" lon="1.57992">
        <ele>2229.8000488281</ele>
        <time>2023-07-21T10:53:48.000Z</time>
      </trkpt>
      <trkpt lat="42.62247" lon="1.57991">
        <ele>2229.8000488281</ele>
        <time>2023-07-21T10:53:47.000Z</time>
      </trkpt>
      <trkpt lat="42.62247" lon="1.57991">
        <ele>2229.8000488281</ele>
        <time>2023-07-21T10:53:46.000Z</time>
      </trkpt>
      <trkpt lat="42.62244" lon="1.57991">
        <ele>2228.8000488281</ele>
        <time>2023-07-21T10:53:40.000Z</time>
      </trkpt>
      <trkpt lat="42.62244" lon="1.57992">
        <ele>2228.6000976562</ele>
        <time>2023-07-21T10:53:39.000Z</time>
      </trkpt>
      <trkpt lat="42.62241" lon="1.57997">
        <ele>2227.8000488281</ele>
        <time>2023-07-21T10:53:31.000Z</time>
      </trkpt>
      <trkpt lat="42.62232" lon="1.58003">
        <ele>2227.6000976562</ele>
        <time>2023-07-21T10:53:23.000Z</time>
      </trkpt>
      <trkpt lat="42.6223" lon="1.58006">
        <ele>2227.6000976562</ele>
        <time>2023-07-21T10:53:21.000Z</time>
      </trkpt>
      <trkpt lat="42.62225" lon="1.58014">
        <ele>2227.8000488281</ele>
        <time>2023-07-21T10:53:14.000Z</time>
      </trkpt>
      <trkpt lat="42.62221" lon="1.58021">
        <ele>2228.6000976562</ele>
        <time>2023-07-21T10:53:08.000Z</time>
      </trkpt>
      <trkpt lat="42.62218" lon="1.58026">
        <ele>2229.1999511719</ele>
        <time>2023-07-21T10:53:04.000Z</time>
      </trkpt>
      <trkpt lat="42.62215" lon="1.58029">
        <ele>2229.8000488281</ele>
        <time>2023-07-21T10:52:57.000Z</time>
      </trkpt>
      <trkpt lat="42.62213" lon="1.58037">
        <ele>2229.8000488281</ele>
        <time>2023-07-21T10:52:49.000Z</time>
      </trkpt>
      <trkpt lat="42.62212" lon="1.5804">
        <ele>2229.8000488281</ele>
        <time>2023-07-21T10:52:47.000Z</time>
      </trkpt>
      <trkpt lat="42.62212" lon="1.58045">
        <ele>2229.3999023438</ele>
        <time>2023-07-21T10:52:42.000Z</time>
      </trkpt>
      <trkpt lat="42.62211" lon="1.58056">
        <ele>2229.3999023438</ele>
        <time>2023-07-21T10:52:34.000Z</time>
      </trkpt>
      <trkpt lat="42.6221" lon="1.58063">
        <ele>2228.6000976562</ele>
        <time>2023-07-21T10:52:28.000Z</time>
      </trkpt>
      <trkpt lat="42.62209" lon="1.58065">
        <ele>2228.3999023438</ele>
        <time>2023-07-21T10:52:27.000Z</time>
      </trkpt>
      <trkpt lat="42.62207" lon="1.58071">
        <ele>2227.6000976562</ele>
        <time>2023-07-21T10:52:22.000Z</time>
      </trkpt>
      <trkpt lat="42.62206" lon="1.58072">
        <ele>2227.1999511719</ele>
        <time>2023-07-21T10:52:20.000Z</time>
      </trkpt>
      <trkpt lat="42.62201" lon="1.58083">
        <ele>2227</ele>
        <time>2023-07-21T10:52:13.000Z</time>
      </trkpt>
      <trkpt lat="42.62201" lon="1.58085">
        <ele>2226.8000488281</ele>
        <time>2023-07-21T10:52:04.000Z</time>
      </trkpt>
      <trkpt lat="42.62203" lon="1.58084">
        <ele>2226.8000488281</ele>
        <time>2023-07-21T10:51:57.000Z</time>
      </trkpt>
      <trkpt lat="42.62203" lon="1.58082">
        <ele>2226.3999023438</ele>
        <time>2023-07-21T10:51:48.000Z</time>
      </trkpt>
      <trkpt lat="42.62198" lon="1.5809">
        <ele>2225.6000976562</ele>
        <time>2023-07-21T10:51:40.000Z</time>
      </trkpt>
      <trkpt lat="42.62197" lon="1.58093">
        <ele>2225.3999023438</ele>
        <time>2023-07-21T10:51:37.000Z</time>
      </trkpt>
      <trkpt lat="42.62194" lon="1.58099">
        <ele>2225</ele>
        <time>2023-07-21T10:51:33.000Z</time>
      </trkpt>
      <trkpt lat="42.6219" lon="1.58102">
        <ele>2224.3999023438</ele>
        <time>2023-07-21T10:51:29.000Z</time>
      </trkpt>
      <trkpt lat="42.62187" lon="1.58103">
        <ele>2224.1999511719</ele>
        <time>2023-07-21T10:51:26.000Z</time>
      </trkpt>
      <trkpt lat="42.62182" lon="1.58106">
        <ele>2223.6000976562</ele>
        <time>2023-07-21T10:51:18.000Z</time>
      </trkpt>
      <trkpt lat="42.62175" lon="1.58111">
        <ele>2223.3999023438</ele>
        <time>2023-07-21T10:51:09.000Z</time>
      </trkpt>
      <trkpt lat="42.62169" lon="1.58111">
        <ele>2223.1999511719</ele>
        <time>2023-07-21T10:51:02.000Z</time>
      </trkpt>
      <trkpt lat="42.62166" lon="1.58111">
        <ele>2223.3999023438</ele>
        <time>2023-07-21T10:50:59.000Z</time>
      </trkpt>
      <trkpt lat="42.62159" lon="1.58107">
        <ele>2224</ele>
        <time>2023-07-21T10:50:53.000Z</time>
      </trkpt>
      <trkpt lat="42.62155" lon="1.58106">
        <ele>2224.3999023438</ele>
        <time>2023-07-21T10:50:48.000Z</time>
      </trkpt>
      <trkpt lat="42.62153" lon="1.58104">
        <ele>2225.1999511719</ele>
        <time>2023-07-21T10:50:45.000Z</time>
      </trkpt>
      <trkpt lat="42.62148" lon="1.58096">
        <ele>2225.6000976562</ele>
        <time>2023-07-21T10:50:39.000Z</time>
      </trkpt>
      <trkpt lat="42.62147" lon="1.58091">
        <ele>2226.6000976562</ele>
        <time>2023-07-21T10:50:31.000Z</time>
      </trkpt>
      <trkpt lat="42.62146" lon="1.5809">
        <ele>2226.6000976562</ele>
        <time>2023-07-21T10:50:30.000Z</time>
      </trkpt>
      <trkpt lat="42.62143" lon="1.58083">
        <ele>2227.3999023438</ele>
        <time>2023-07-21T10:50:21.000Z</time>
      </trkpt>
      <trkpt lat="42.62143" lon="1.58083">
        <ele>2227.6000976562</ele>
        <time>2023-07-21T10:50:20.000Z</time>
      </trkpt>
      <trkpt lat="42.62143" lon="1.58078">
        <ele>2228.1999511719</ele>
        <time>2023-07-21T10:50:14.000Z</time>
      </trkpt>
      <trkpt lat="42.62141" lon="1.58078">
        <ele>2228.3999023438</ele>
        <time>2023-07-21T10:50:08.000Z</time>
      </trkpt>
      <trkpt lat="42.62133" lon="1.58082">
        <ele>2228.8000488281</ele>
        <time>2023-07-21T10:50:03.000Z</time>
      </trkpt>
      <trkpt lat="42.62132" lon="1.58083">
        <ele>2228.8000488281</ele>
        <time>2023-07-21T10:50:01.000Z</time>
      </trkpt>
      <trkpt lat="42.62129" lon="1.58082">
        <ele>2229</ele>
        <time>2023-07-21T10:49:54.000Z</time>
      </trkpt>
      <trkpt lat="42.62131" lon="1.58086">
        <ele>2229.1999511719</ele>
        <time>2023-07-21T10:49:45.000Z</time>
      </trkpt>
      <trkpt lat="42.62131" lon="1.58085">
        <ele>2229.1999511719</ele>
        <time>2023-07-21T10:49:43.000Z</time>
      </trkpt>
      <trkpt lat="42.6213" lon="1.58084">
        <ele>2229.6000976562</ele>
        <time>2023-07-21T10:49:38.000Z</time>
      </trkpt>
      <trkpt lat="42.62128" lon="1.58084">
        <ele>2229.8000488281</ele>
        <time>2023-07-21T10:49:35.000Z</time>
      </trkpt>
      <trkpt lat="42.62127" lon="1.58088">
        <ele>2230.1999511719</ele>
        <time>2023-07-21T10:49:32.000Z</time>
      </trkpt>
      <trkpt lat="42.62122" lon="1.58093">
        <ele>2230.8000488281</ele>
        <time>2023-07-21T10:49:25.000Z</time>
      </trkpt>
      <trkpt lat="42.6212" lon="1.58093">
        <ele>2230.8000488281</ele>
        <time>2023-07-21T10:49:23.000Z</time>
      </trkpt>
      <trkpt lat="42.62118" lon="1.58094">
        <ele>2231.1999511719</ele>
        <time>2023-07-21T10:49:19.000Z</time>
      </trkpt>
      <trkpt lat="42.62113" lon="1.58101">
        <ele>2231.8000488281</ele>
        <time>2023-07-21T10:49:11.000Z</time>
      </trkpt>
      <trkpt lat="42.62112" lon="1.58102">
        <ele>2232</ele>
        <time>2023-07-21T10:49:09.000Z</time>
      </trkpt>
      <trkpt lat="42.62111" lon="1.58108">
        <ele>2232.6000976562</ele>
        <time>2023-07-21T10:49:04.000Z</time>
      </trkpt>
      <trkpt lat="42.62109" lon="1.58118">
        <ele>2232.6000976562</ele>
        <time>2023-07-21T10:48:57.000Z</time>
      </trkpt>
      <trkpt lat="42.62107" lon="1.58129">
        <ele>2232.8000488281</ele>
        <time>2023-07-21T10:48:49.000Z</time>
      </trkpt>
      <trkpt lat="42.62104" lon="1.58141">
        <ele>2232.6000976562</ele>
        <time>2023-07-21T10:48:42.000Z</time>
      </trkpt>
      <trkpt lat="42.62102" lon="1.58145">
        <ele>2233</ele>
        <time>2023-07-21T10:48:39.000Z</time>
      </trkpt>
      <trkpt lat="42.62097" lon="1.58152">
        <ele>2234</ele>
        <time>2023-07-21T10:48:33.000Z</time>
      </trkpt>
      <trkpt lat="42.62091" lon="1.58157">
        <ele>2235.1999511719</ele>
        <time>2023-07-21T10:48:25.000Z</time>
      </trkpt>
      <trkpt lat="42.62091" lon="1.58158">
        <ele>2235.3999023438</ele>
        <time>2023-07-21T10:48:24.000Z</time>
      </trkpt>
      <trkpt lat="42.62088" lon="1.58166">
        <ele>2236.3999023438</ele>
        <time>2023-07-21T10:48:18.000Z</time>
      </trkpt>
      <trkpt lat="42.62087" lon="1.58168">
        <ele>2236.6000976562</ele>
        <time>2023-07-21T10:48:17.000Z</time>
      </trkpt>
      <trkpt lat="42.62085" lon="1.58173">
        <ele>2237.1999511719</ele>
        <time>2023-07-21T10:48:11.000Z</time>
      </trkpt>
      <trkpt lat="42.62084" lon="1.58175">
        <ele>2237.6000976562</ele>
        <time>2023-07-21T10:48:09.000Z</time>
      </trkpt>
      <trkpt lat="42.62082" lon="1.5818">
        <ele>2238.8000488281</ele>
        <time>2023-07-21T10:48:05.000Z</time>
      </trkpt>
      <trkpt lat="42.6208" lon="1.58184">
        <ele>2239.3999023438</ele>
        <time>2023-07-21T10:48:02.000Z</time>
      </trkpt>
      <trkpt lat="42.62079" lon="1.58187">
        <ele>2239.8000488281</ele>
        <time>2023-07-21T10:48:00.000Z</time>
      </trkpt>
      <trkpt lat="42.62076" lon="1.58196">
        <ele>2240.6000976562</ele>
        <time>2023-07-21T10:47:54.000Z</time>
      </trkpt>
      <trkpt lat="42.62074" lon="1.58198">
        <ele>2241</ele>
        <time>2023-07-21T10:47:51.000Z</time>
      </trkpt>
      <trkpt lat="42.62072" lon="1.58204">
        <ele>2241.6000976562</ele>
        <time>2023-07-21T10:47:47.000Z</time>
      </trkpt>
      <trkpt lat="42.62071" lon="1.58206">
        <ele>2242</ele>
        <time>2023-07-21T10:47:45.000Z</time>
      </trkpt>
      <trkpt lat="42.62069" lon="1.58211">
        <ele>2243</ele>
        <time>2023-07-21T10:47:39.000Z</time>
      </trkpt>
      <trkpt lat="42.62065" lon="1.58217">
        <ele>2244.1999511719</ele>
        <time>2023-07-21T10:47:34.000Z</time>
      </trkpt>
      <trkpt lat="42.62064" lon="1.58219">
        <ele>2244.8000488281</ele>
        <time>2023-07-21T10:47:30.000Z</time>
      </trkpt>
      <trkpt lat="42.62063" lon="1.58225">
        <ele>2245.3999023438</ele>
        <time>2023-07-21T10:47:26.000Z</time>
      </trkpt>
      <trkpt lat="42.62061" lon="1.58229">
        <ele>2245.8000488281</ele>
        <time>2023-07-21T10:47:23.000Z</time>
      </trkpt>
      <trkpt lat="42.6206" lon="1.58235">
        <ele>2246.3999023438</ele>
        <time>2023-07-21T10:47:19.000Z</time>
      </trkpt>
      <trkpt lat="42.62059" lon="1.58239">
        <ele>2247.1999511719</ele>
        <time>2023-07-21T10:47:16.000Z</time>
      </trkpt>
      <trkpt lat="42.62054" lon="1.58247">
        <ele>2247.3999023438</ele>
        <time>2023-07-21T10:47:08.000Z</time>
      </trkpt>
      <trkpt lat="42.62048" lon="1.58255">
        <ele>2247.3999023438</ele>
        <time>2023-07-21T10:47:01.000Z</time>
      </trkpt>
      <trkpt lat="42.62047" lon="1.58255">
        <ele>2247.6000976562</ele>
        <time>2023-07-21T10:47:00.000Z</time>
      </trkpt>
      <trkpt lat="42.62044" lon="1.58262">
        <ele>2248.6000976562</ele>
        <time>2023-07-21T10:46:55.000Z</time>
      </trkpt>
      <trkpt lat="42.62044" lon="1.58264">
        <ele>2249.3999023438</ele>
        <time>2023-07-21T10:46:52.000Z</time>
      </trkpt>
      <trkpt lat="42.62044" lon="1.58266">
        <ele>2249.8000488281</ele>
        <time>2023-07-21T10:46:50.000Z</time>
      </trkpt>
      <trkpt lat="42.62043" lon="1.58269">
        <ele>2250.1999511719</ele>
        <time>2023-07-21T10:46:46.000Z</time>
      </trkpt>
      <trkpt lat="42.62041" lon="1.58273">
        <ele>2251</ele>
        <time>2023-07-21T10:46:41.000Z</time>
      </trkpt>
      <trkpt lat="42.6204" lon="1.58276">
        <ele>2251.8000488281</ele>
        <time>2023-07-21T10:46:37.000Z</time>
      </trkpt>
      <trkpt lat="42.6204" lon="1.58278">
        <ele>2252</ele>
        <time>2023-07-21T10:46:36.000Z</time>
      </trkpt>
      <trkpt lat="42.62038" lon="1.58285">
        <ele>2253.1999511719</ele>
        <time>2023-07-21T10:46:30.000Z</time>
      </trkpt>
      <trkpt lat="42.62037" lon="1.58289">
        <ele>2254</ele>
        <time>2023-07-21T10:46:26.000Z</time>
      </trkpt>
      <trkpt lat="42.62037" lon="1.58291">
        <ele>2254.3999023438</ele>
        <time>2023-07-21T10:46:25.000Z</time>
      </trkpt>
      <trkpt lat="42.62035" lon="1.58297">
        <ele>2255.3999023438</ele>
        <time>2023-07-21T10:46:20.000Z</time>
      </trkpt>
      <trkpt lat="42.62034" lon="1.58298">
        <ele>2255.8000488281</ele>
        <time>2023-07-21T10:46:19.000Z</time>
      </trkpt>
      <trkpt lat="42.62033" lon="1.58301">
        <ele>2256.6000976562</ele>
        <time>2023-07-21T10:46:15.000Z</time>
      </trkpt>
      <trkpt lat="42.62033" lon="1.58307">
        <ele>2257.3999023438</ele>
        <time>2023-07-21T10:46:12.000Z</time>
      </trkpt>
      <trkpt lat="42.62034" lon="1.5831">
        <ele>2257.8000488281</ele>
        <time>2023-07-21T10:46:10.000Z</time>
      </trkpt>
      <trkpt lat="42.62034" lon="1.58315">
        <ele>2259</ele>
        <time>2023-07-21T10:46:05.000Z</time>
      </trkpt>
      <trkpt lat="42.62034" lon="1.58315">
        <ele>2259.3999023438</ele>
        <time>2023-07-21T10:46:04.000Z</time>
      </trkpt>
      <trkpt lat="42.62036" lon="1.58322">
        <ele>2259.8000488281</ele>
        <time>2023-07-21T10:45:57.000Z</time>
      </trkpt>
      <trkpt lat="42.62032" lon="1.58329">
        <ele>2260</ele>
        <time>2023-07-21T10:45:49.000Z</time>
      </trkpt>
      <trkpt lat="42.62032" lon="1.5833">
        <ele>2260</ele>
        <time>2023-07-21T10:45:41.000Z</time>
      </trkpt>
      <trkpt lat="42.62032" lon="1.58326">
        <ele>2260</ele>
        <time>2023-07-21T10:45:35.000Z</time>
      </trkpt>
      <trkpt lat="42.62034" lon="1.58323">
        <ele>2260</ele>
        <time>2023-07-21T10:45:29.000Z</time>
      </trkpt>
      <trkpt lat="42.62032" lon="1.58325">
        <ele>2260.1999511719</ele>
        <time>2023-07-21T10:45:27.000Z</time>
      </trkpt>
      <trkpt lat="42.62032" lon="1.58326">
        <ele>2260.6000976562</ele>
        <time>2023-07-21T10:45:24.000Z</time>
      </trkpt>
      <trkpt lat="42.6203" lon="1.5833">
        <ele>2261.1999511719</ele>
        <time>2023-07-21T10:45:19.000Z</time>
      </trkpt>
      <trkpt lat="42.62026" lon="1.58336">
        <ele>2262</ele>
        <time>2023-07-21T10:45:15.000Z</time>
      </trkpt>
      <trkpt lat="42.62025" lon="1.58338">
        <ele>2262.3999023438</ele>
        <time>2023-07-21T10:45:13.000Z</time>
      </trkpt>
      <trkpt lat="42.62022" lon="1.58345">
        <ele>2263.3999023438</ele>
        <time>2023-07-21T10:45:06.000Z</time>
      </trkpt>
      <trkpt lat="42.62021" lon="1.5835">
        <ele>2264.6000976562</ele>
        <time>2023-07-21T10:44:59.000Z</time>
      </trkpt>
      <trkpt lat="42.62021" lon="1.58351">
        <ele>2264.8000488281</ele>
        <time>2023-07-21T10:44:58.000Z</time>
      </trkpt>
      <trkpt lat="42.62021" lon="1.58354">
        <ele>2265.6000976562</ele>
        <time>2023-07-21T10:44:53.000Z</time>
      </trkpt>
      <trkpt lat="42.62021" lon="1.58355">
        <ele>2265.8000488281</ele>
        <time>2023-07-21T10:44:51.000Z</time>
      </trkpt>
      <trkpt lat="42.62019" lon="1.58363">
        <ele>2266.8000488281</ele>
        <time>2023-07-21T10:44:44.000Z</time>
      </trkpt>
      <trkpt lat="42.62019" lon="1.58366">
        <ele>2267.1999511719</ele>
        <time>2023-07-21T10:44:41.000Z</time>
      </trkpt>
      <trkpt lat="42.62019" lon="1.58368">
        <ele>2267.8000488281</ele>
        <time>2023-07-21T10:44:38.000Z</time>
      </trkpt>
      <trkpt lat="42.6202" lon="1.58368">
        <ele>2268.6000976562</ele>
        <time>2023-07-21T10:44:33.000Z</time>
      </trkpt>
      <trkpt lat="42.62021" lon="1.58368">
        <ele>2268.8000488281</ele>
        <time>2023-07-21T10:44:32.000Z</time>
      </trkpt>
      <trkpt lat="42.62025" lon="1.58366">
        <ele>2269.6000976562</ele>
        <time>2023-07-21T10:44:27.000Z</time>
      </trkpt>
      <trkpt lat="42.62025" lon="1.58365">
        <ele>2269.8000488281</ele>
        <time>2023-07-21T10:44:26.000Z</time>
      </trkpt>
      <trkpt lat="42.62026" lon="1.58365">
        <ele>2270</ele>
        <time>2023-07-21T10:44:25.000Z</time>
      </trkpt>
      <trkpt lat="42.62028" lon="1.58368">
        <ele>2270.6000976562</ele>
        <time>2023-07-21T10:44:20.000Z</time>
      </trkpt>
      <trkpt lat="42.62028" lon="1.58372">
        <ele>2271</ele>
        <time>2023-07-21T10:44:17.000Z</time>
      </trkpt>
      <trkpt lat="42.62028" lon="1.58377">
        <ele>2272</ele>
        <time>2023-07-21T10:44:12.000Z</time>
      </trkpt>
      <trkpt lat="42.62028" lon="1.58379">
        <ele>2272.3999023438</ele>
        <time>2023-07-21T10:44:11.000Z</time>
      </trkpt>
      <trkpt lat="42.62028" lon="1.58383">
        <ele>2273.3999023438</ele>
        <time>2023-07-21T10:44:08.000Z</time>
      </trkpt>
      <trkpt lat="42.62026" lon="1.5839">
        <ele>2274.6000976562</ele>
        <time>2023-07-21T10:44:03.000Z</time>
      </trkpt>
      <trkpt lat="42.62025" lon="1.58394">
        <ele>2274.8000488281</ele>
        <time>2023-07-21T10:44:00.000Z</time>
      </trkpt>
      <trkpt lat="42.62023" lon="1.58401">
        <ele>2275.6000976562</ele>
        <time>2023-07-21T10:43:55.000Z</time>
      </trkpt>
      <trkpt lat="42.62022" lon="1.58407">
        <ele>2276.6000976562</ele>
        <time>2023-07-21T10:43:50.000Z</time>
      </trkpt>
      <trkpt lat="42.62021" lon="1.58408">
        <ele>2276.8000488281</ele>
        <time>2023-07-21T10:43:49.000Z</time>
      </trkpt>
      <trkpt lat="42.6202" lon="1.58418">
        <ele>2278</ele>
        <time>2023-07-21T10:43:42.000Z</time>
      </trkpt>
      <trkpt lat="42.62019" lon="1.58423">
        <ele>2279.1999511719</ele>
        <time>2023-07-21T10:43:36.000Z</time>
      </trkpt>
      <trkpt lat="42.62019" lon="1.58425">
        <ele>2279.6000976562</ele>
        <time>2023-07-21T10:43:34.000Z</time>
      </trkpt>
      <trkpt lat="42.62019" lon="1.5843">
        <ele>2280.1999511719</ele>
        <time>2023-07-21T10:43:30.000Z</time>
      </trkpt>
      <trkpt lat="42.62019" lon="1.58436">
        <ele>2281.1999511719</ele>
        <time>2023-07-21T10:43:26.000Z</time>
      </trkpt>
      <trkpt lat="42.62019" lon="1.58437">
        <ele>2281.3999023438</ele>
        <time>2023-07-21T10:43:25.000Z</time>
      </trkpt>
      <trkpt lat="42.62021" lon="1.58448">
        <ele>2282.1999511719</ele>
        <time>2023-07-21T10:43:18.000Z</time>
      </trkpt>
      <trkpt lat="42.6202" lon="1.58449">
        <ele>2282.3999023438</ele>
        <time>2023-07-21T10:43:17.000Z</time>
      </trkpt>
      <trkpt lat="42.62018" lon="1.58459">
        <ele>2283.6000976562</ele>
        <time>2023-07-21T10:43:11.000Z</time>
      </trkpt>
      <trkpt lat="42.62018" lon="1.58464">
        <ele>2284.6000976562</ele>
        <time>2023-07-21T10:43:08.000Z</time>
      </trkpt>
      <trkpt lat="42.62017" lon="1.58466">
        <ele>2284.8000488281</ele>
        <time>2023-07-21T10:43:06.000Z</time>
      </trkpt>
      <trkpt lat="42.62015" lon="1.58474">
        <ele>2285.8000488281</ele>
        <time>2023-07-21T10:43:01.000Z</time>
      </trkpt>
      <trkpt lat="42.62015" lon="1.58475">
        <ele>2286</ele>
        <time>2023-07-21T10:43:00.000Z</time>
      </trkpt>
      <trkpt lat="42.62013" lon="1.58479">
        <ele>2286.8000488281</ele>
        <time>2023-07-21T10:42:53.000Z</time>
      </trkpt>
      <trkpt lat="42.62012" lon="1.5848">
        <ele>2287.1999511719</ele>
        <time>2023-07-21T10:42:52.000Z</time>
      </trkpt>
      <trkpt lat="42.62011" lon="1.58482">
        <ele>2288</ele>
        <time>2023-07-21T10:42:49.000Z</time>
      </trkpt>
      <trkpt lat="42.62011" lon="1.58485">
        <ele>2288.3999023438</ele>
        <time>2023-07-21T10:42:46.000Z</time>
      </trkpt>
      <trkpt lat="42.62011" lon="1.58486">
        <ele>2289.1999511719</ele>
        <time>2023-07-21T10:42:44.000Z</time>
      </trkpt>
      <trkpt lat="42.62011" lon="1.58491">
        <ele>2290.1999511719</ele>
        <time>2023-07-21T10:42:38.000Z</time>
      </trkpt>
      <trkpt lat="42.62011" lon="1.58493">
        <ele>2290.6000976562</ele>
        <time>2023-07-21T10:42:36.000Z</time>
      </trkpt>
      <trkpt lat="42.62011" lon="1.58498">
        <ele>2291.3999023438</ele>
        <time>2023-07-21T10:42:31.000Z</time>
      </trkpt>
      <trkpt lat="42.62011" lon="1.58499">
        <ele>2291.8000488281</ele>
        <time>2023-07-21T10:42:29.000Z</time>
      </trkpt>
      <trkpt lat="42.62011" lon="1.58503">
        <ele>2292.3999023438</ele>
        <time>2023-07-21T10:42:22.000Z</time>
      </trkpt>
      <trkpt lat="42.62011" lon="1.58508">
        <ele>2293.3999023438</ele>
        <time>2023-07-21T10:42:16.000Z</time>
      </trkpt>
      <trkpt lat="42.62011" lon="1.58512">
        <ele>2294.1999511719</ele>
        <time>2023-07-21T10:42:12.000Z</time>
      </trkpt>
      <trkpt lat="42.62011" lon="1.58516">
        <ele>2294.6000976562</ele>
        <time>2023-07-21T10:42:09.000Z</time>
      </trkpt>
      <trkpt lat="42.62011" lon="1.58522">
        <ele>2295.3999023438</ele>
        <time>2023-07-21T10:42:04.000Z</time>
      </trkpt>
      <trkpt lat="42.6201" lon="1.58524">
        <ele>2295.8000488281</ele>
        <time>2023-07-21T10:42:02.000Z</time>
      </trkpt>
      <trkpt lat="42.6201" lon="1.58527">
        <ele>2297</ele>
        <time>2023-07-21T10:41:57.000Z</time>
      </trkpt>
      <trkpt lat="42.6201" lon="1.58528">
        <ele>2297</ele>
        <time>2023-07-21T10:41:56.000Z</time>
      </trkpt>
      <trkpt lat="42.6201" lon="1.58531">
        <ele>2298</ele>
        <time>2023-07-21T10:41:52.000Z</time>
      </trkpt>
      <trkpt lat="42.62009" lon="1.58533">
        <ele>2298.6000976562</ele>
        <time>2023-07-21T10:41:49.000Z</time>
      </trkpt>
      <trkpt lat="42.6201" lon="1.58537">
        <ele>2299</ele>
        <time>2023-07-21T10:41:45.000Z</time>
      </trkpt>
      <trkpt lat="42.6201" lon="1.58539">
        <ele>2299.8000488281</ele>
        <time>2023-07-21T10:41:42.000Z</time>
      </trkpt>
      <trkpt lat="42.62011" lon="1.58541">
        <ele>2300</ele>
        <time>2023-07-21T10:41:40.000Z</time>
      </trkpt>
      <trkpt lat="42.62012" lon="1.58547">
        <ele>2301.1999511719</ele>
        <time>2023-07-21T10:41:34.000Z</time>
      </trkpt>
      <trkpt lat="42.62013" lon="1.5855">
        <ele>2301.6000976562</ele>
        <time>2023-07-21T10:41:32.000Z</time>
      </trkpt>
      <trkpt lat="42.62012" lon="1.58558">
        <ele>2302.3999023438</ele>
        <time>2023-07-21T10:41:26.000Z</time>
      </trkpt>
      <trkpt lat="42.62011" lon="1.58561">
        <ele>2303</ele>
        <time>2023-07-21T10:41:23.000Z</time>
      </trkpt>
      <trkpt lat="42.62011" lon="1.58562">
        <ele>2303.3999023438</ele>
        <time>2023-07-21T10:41:21.000Z</time>
      </trkpt>
      <trkpt lat="42.62011" lon="1.58569">
        <ele>2304.8000488281</ele>
        <time>2023-07-21T10:41:16.000Z</time>
      </trkpt>
      <trkpt lat="42.6201" lon="1.5857">
        <ele>2305</ele>
        <time>2023-07-21T10:41:15.000Z</time>
      </trkpt>
      <trkpt lat="42.6201" lon="1.58576">
        <ele>2305.8000488281</ele>
        <time>2023-07-21T10:41:11.000Z</time>
      </trkpt>
      <trkpt lat="42.62009" lon="1.5858">
        <ele>2306</ele>
        <time>2023-07-21T10:41:08.000Z</time>
      </trkpt>
      <trkpt lat="42.62008" lon="1.58583">
        <ele>2306.8000488281</ele>
        <time>2023-07-21T10:41:04.000Z</time>
      </trkpt>
      <trkpt lat="42.62007" lon="1.58586">
        <ele>2307.3999023438</ele>
        <time>2023-07-21T10:41:02.000Z</time>
      </trkpt>
      <trkpt lat="42.62006" lon="1.58589">
        <ele>2308</ele>
        <time>2023-07-21T10:40:58.000Z</time>
      </trkpt>
      <trkpt lat="42.62006" lon="1.58592">
        <ele>2308.3999023438</ele>
        <time>2023-07-21T10:40:54.000Z</time>
      </trkpt>
      <trkpt lat="42.62005" lon="1.58597">
        <ele>2309</ele>
        <time>2023-07-21T10:40:50.000Z</time>
      </trkpt>
      <trkpt lat="42.62004" lon="1.58601">
        <ele>2310</ele>
        <time>2023-07-21T10:40:47.000Z</time>
      </trkpt>
      <trkpt lat="42.62004" lon="1.58603">
        <ele>2310.3999023438</ele>
        <time>2023-07-21T10:40:46.000Z</time>
      </trkpt>
      <trkpt lat="42.62003" lon="1.58607">
        <ele>2311.3999023438</ele>
        <time>2023-07-21T10:40:42.000Z</time>
      </trkpt>
      <trkpt lat="42.62002" lon="1.58609">
        <ele>2312</ele>
        <time>2023-07-21T10:40:40.000Z</time>
      </trkpt>
      <trkpt lat="42.62003" lon="1.5861">
        <ele>2312.3999023438</ele>
        <time>2023-07-21T10:40:37.000Z</time>
      </trkpt>
      <trkpt lat="42.62003" lon="1.58614">
        <ele>2313.1999511719</ele>
        <time>2023-07-21T10:40:32.000Z</time>
      </trkpt>
      <trkpt lat="42.62003" lon="1.58618">
        <ele>2313.6000976562</ele>
        <time>2023-07-21T10:40:29.000Z</time>
      </trkpt>
      <trkpt lat="42.62003" lon="1.58623">
        <ele>2314.6000976562</ele>
        <time>2023-07-21T10:40:24.000Z</time>
      </trkpt>
      <trkpt lat="42.62002" lon="1.58631">
        <ele>2315.6000976562</ele>
        <time>2023-07-21T10:40:18.000Z</time>
      </trkpt>
      <trkpt lat="42.62002" lon="1.58634">
        <ele>2316</ele>
        <time>2023-07-21T10:40:15.000Z</time>
      </trkpt>
      <trkpt lat="42.62002" lon="1.58635">
        <ele>2316.8000488281</ele>
        <time>2023-07-21T10:40:09.000Z</time>
      </trkpt>
      <trkpt lat="42.62002" lon="1.58636">
        <ele>2317.1999511719</ele>
        <time>2023-07-21T10:40:08.000Z</time>
      </trkpt>
      <trkpt lat="42.62005" lon="1.5864">
        <ele>2318</ele>
        <time>2023-07-21T10:40:03.000Z</time>
      </trkpt>
      <trkpt lat="42.62007" lon="1.58642">
        <ele>2319</ele>
        <time>2023-07-21T10:39:58.000Z</time>
      </trkpt>
      <trkpt lat="42.62007" lon="1.58642">
        <ele>2319.3999023438</ele>
        <time>2023-07-21T10:39:57.000Z</time>
      </trkpt>
      <trkpt lat="42.62009" lon="1.58645">
        <ele>2320.1999511719</ele>
        <time>2023-07-21T10:39:52.000Z</time>
      </trkpt>
      <trkpt lat="42.6201" lon="1.58648">
        <ele>2320.8000488281</ele>
        <time>2023-07-21T10:39:47.000Z</time>
      </trkpt>
      <trkpt lat="42.62011" lon="1.5865">
        <ele>2321.1999511719</ele>
        <time>2023-07-21T10:39:43.000Z</time>
      </trkpt>
      <trkpt lat="42.62011" lon="1.58657">
        <ele>2322</ele>
        <time>2023-07-21T10:39:38.000Z</time>
      </trkpt>
      <trkpt lat="42.62011" lon="1.5866">
        <ele>2322.3999023438</ele>
        <time>2023-07-21T10:39:35.000Z</time>
      </trkpt>
      <trkpt lat="42.62009" lon="1.58666">
        <ele>2323.3999023438</ele>
        <time>2023-07-21T10:39:29.000Z</time>
      </trkpt>
      <trkpt lat="42.62009" lon="1.58667">
        <ele>2323.3999023438</ele>
        <time>2023-07-21T10:39:28.000Z</time>
      </trkpt>
      <trkpt lat="42.6201" lon="1.58674">
        <ele>2324.6000976562</ele>
        <time>2023-07-21T10:39:21.000Z</time>
      </trkpt>
      <trkpt lat="42.62012" lon="1.58678">
        <ele>2325.8000488281</ele>
        <time>2023-07-21T10:39:16.000Z</time>
      </trkpt>
      <trkpt lat="42.62014" lon="1.58679">
        <ele>2326.1999511719</ele>
        <time>2023-07-21T10:39:14.000Z</time>
      </trkpt>
      <trkpt lat="42.62017" lon="1.58679">
        <ele>2326.8000488281</ele>
        <time>2023-07-21T10:39:09.000Z</time>
      </trkpt>
      <trkpt lat="42.62018" lon="1.58679">
        <ele>2327.3999023438</ele>
        <time>2023-07-21T10:39:07.000Z</time>
      </trkpt>
      <trkpt lat="42.6202" lon="1.58683">
        <ele>2328</ele>
        <time>2023-07-21T10:39:04.000Z</time>
      </trkpt>
      <trkpt lat="42.62019" lon="1.58688">
        <ele>2329</ele>
        <time>2023-07-21T10:38:58.000Z</time>
      </trkpt>
      <trkpt lat="42.62018" lon="1.58693">
        <ele>2330</ele>
        <time>2023-07-21T10:38:54.000Z</time>
      </trkpt>
      <trkpt lat="42.62019" lon="1.58696">
        <ele>2330.8000488281</ele>
        <time>2023-07-21T10:38:50.000Z</time>
      </trkpt>
      <trkpt lat="42.62019" lon="1.58698">
        <ele>2331</ele>
        <time>2023-07-21T10:38:48.000Z</time>
      </trkpt>
      <trkpt lat="42.62019" lon="1.58703">
        <ele>2332.1999511719</ele>
        <time>2023-07-21T10:38:42.000Z</time>
      </trkpt>
      <trkpt lat="42.62018" lon="1.58704">
        <ele>2332.3999023438</ele>
        <time>2023-07-21T10:38:41.000Z</time>
      </trkpt>
      <trkpt lat="42.62018" lon="1.58709">
        <ele>2333.1999511719</ele>
        <time>2023-07-21T10:38:36.000Z</time>
      </trkpt>
      <trkpt lat="42.62018" lon="1.58712">
        <ele>2334</ele>
        <time>2023-07-21T10:38:33.000Z</time>
      </trkpt>
      <trkpt lat="42.62019" lon="1.58714">
        <ele>2334.3999023438</ele>
        <time>2023-07-21T10:38:31.000Z</time>
      </trkpt>
      <trkpt lat="42.6202" lon="1.58722">
        <ele>2334.8000488281</ele>
        <time>2023-07-21T10:38:25.000Z</time>
      </trkpt>
      <trkpt lat="42.6202" lon="1.58727">
        <ele>2335.3999023438</ele>
        <time>2023-07-21T10:38:19.000Z</time>
      </trkpt>
      <trkpt lat="42.6202" lon="1.58728">
        <ele>2335.6000976562</ele>
        <time>2023-07-21T10:38:18.000Z</time>
      </trkpt>
      <trkpt lat="42.62019" lon="1.58732">
        <ele>2336.3999023438</ele>
        <time>2023-07-21T10:38:13.000Z</time>
      </trkpt>
      <trkpt lat="42.62018" lon="1.58735">
        <ele>2336.8000488281</ele>
        <time>2023-07-21T10:38:11.000Z</time>
      </trkpt>
      <trkpt lat="42.62018" lon="1.58737">
        <ele>2337.6000976562</ele>
        <time>2023-07-21T10:38:09.000Z</time>
      </trkpt>
      <trkpt lat="42.62018" lon="1.58744">
        <ele>2338.6000976562</ele>
        <time>2023-07-21T10:38:04.000Z</time>
      </trkpt>
      <trkpt lat="42.62017" lon="1.58747">
        <ele>2339</ele>
        <time>2023-07-21T10:38:02.000Z</time>
      </trkpt>
      <trkpt lat="42.62017" lon="1.58751">
        <ele>2339.6000976562</ele>
        <time>2023-07-21T10:37:58.000Z</time>
      </trkpt>
      <trkpt lat="42.62016" lon="1.58754">
        <ele>2340.1999511719</ele>
        <time>2023-07-21T10:37:55.000Z</time>
      </trkpt>
      <trkpt lat="42.62016" lon="1.5876">
        <ele>2340.8000488281</ele>
        <time>2023-07-21T10:37:50.000Z</time>
      </trkpt>
      <trkpt lat="42.62015" lon="1.58761">
        <ele>2341.1999511719</ele>
        <time>2023-07-21T10:37:48.000Z</time>
      </trkpt>
      <trkpt lat="42.62015" lon="1.58764">
        <ele>2341.8000488281</ele>
        <time>2023-07-21T10:37:45.000Z</time>
      </trkpt>
      <trkpt lat="42.62014" lon="1.5877">
        <ele>2342.3999023438</ele>
        <time>2023-07-21T10:37:42.000Z</time>
      </trkpt>
      <trkpt lat="42.62015" lon="1.58773">
        <ele>2343</ele>
        <time>2023-07-21T10:37:38.000Z</time>
      </trkpt>
      <trkpt lat="42.62014" lon="1.5878">
        <ele>2343.8000488281</ele>
        <time>2023-07-21T10:37:33.000Z</time>
      </trkpt>
      <trkpt lat="42.62014" lon="1.5878">
        <ele>2344</ele>
        <time>2023-07-21T10:37:32.000Z</time>
      </trkpt>
      <trkpt lat="42.62015" lon="1.58786">
        <ele>2344.8000488281</ele>
        <time>2023-07-21T10:37:26.000Z</time>
      </trkpt>
      <trkpt lat="42.62016" lon="1.58788">
        <ele>2345</ele>
        <time>2023-07-21T10:37:25.000Z</time>
      </trkpt>
      <trkpt lat="42.62015" lon="1.58793">
        <ele>2346.1999511719</ele>
        <time>2023-07-21T10:37:19.000Z</time>
      </trkpt>
      <trkpt lat="42.62015" lon="1.58795">
        <ele>2346.3999023438</ele>
        <time>2023-07-21T10:37:18.000Z</time>
      </trkpt>
      <trkpt lat="42.62013" lon="1.58801">
        <ele>2347</ele>
        <time>2023-07-21T10:37:10.000Z</time>
      </trkpt>
      <trkpt lat="42.62013" lon="1.58802">
        <ele>2347.1999511719</ele>
        <time>2023-07-21T10:37:07.000Z</time>
      </trkpt>
      <trkpt lat="42.62014" lon="1.58805">
        <ele>2347.8000488281</ele>
        <time>2023-07-21T10:37:03.000Z</time>
      </trkpt>
      <trkpt lat="42.62013" lon="1.58817">
        <ele>2348.1999511719</ele>
        <time>2023-07-21T10:36:55.000Z</time>
      </trkpt>
      <trkpt lat="42.62009" lon="1.58823">
        <ele>2348.1999511719</ele>
        <time>2023-07-21T10:36:49.000Z</time>
      </trkpt>
      <trkpt lat="42.62002" lon="1.5883">
        <ele>2348.6000976562</ele>
        <time>2023-07-21T10:36:41.000Z</time>
      </trkpt>
      <trkpt lat="42.61999" lon="1.58836">
        <ele>2349.1999511719</ele>
        <time>2023-07-21T10:36:34.000Z</time>
      </trkpt>
      <trkpt lat="42.62" lon="1.58838">
        <ele>2349.3999023438</ele>
        <time>2023-07-21T10:36:33.000Z</time>
      </trkpt>
      <trkpt lat="42.61997" lon="1.58845">
        <ele>2349.8000488281</ele>
        <time>2023-07-21T10:36:27.000Z</time>
      </trkpt>
      <trkpt lat="42.61995" lon="1.58843">
        <ele>2349.8000488281</ele>
        <time>2023-07-21T10:36:21.000Z</time>
      </trkpt>
      <trkpt lat="42.61992" lon="1.58844">
        <ele>2349.8000488281</ele>
        <time>2023-07-21T10:36:15.000Z</time>
      </trkpt>
      <trkpt lat="42.61988" lon="1.58846">
        <ele>2350.1999511719</ele>
        <time>2023-07-21T10:36:09.000Z</time>
      </trkpt>
      <trkpt lat="42.61985" lon="1.58847">
        <ele>2350.3999023438</ele>
        <time>2023-07-21T10:36:01.000Z</time>
      </trkpt>
      <trkpt lat="42.61982" lon="1.58846">
        <ele>2350.6000976562</ele>
        <time>2023-07-21T10:35:54.000Z</time>
      </trkpt>
      <trkpt lat="42.61983" lon="1.58843">
        <ele>2351.1999511719</ele>
        <time>2023-07-21T10:35:47.000Z</time>
      </trkpt>
      <trkpt lat="42.61982" lon="1.58844">
        <ele>2350.1999511719</ele>
        <time>2023-07-21T10:35:40.000Z</time>
      </trkpt>
      <trkpt lat="42.61982" lon="1.58845">
        <ele>2350.3999023438</ele>
        <time>2023-07-21T10:35:38.000Z</time>
      </trkpt>
      <trkpt lat="42.61981" lon="1.58851">
        <ele>2351.1999511719</ele>
        <time>2023-07-21T10:35:32.000Z</time>
      </trkpt>
      <trkpt lat="42.6198" lon="1.58855">
        <ele>2351.3999023438</ele>
        <time>2023-07-21T10:35:27.000Z</time>
      </trkpt>
      <trkpt lat="42.6198" lon="1.58857">
        <ele>2351.6000976562</ele>
        <time>2023-07-21T10:35:19.000Z</time>
      </trkpt>
      <trkpt lat="42.61982" lon="1.58856">
        <ele>2351.6000976562</ele>
        <time>2023-07-21T10:35:14.000Z</time>
      </trkpt>
      <trkpt lat="42.6198" lon="1.58858">
        <ele>2351.1999511719</ele>
        <time>2023-07-21T10:35:07.000Z</time>
      </trkpt>
      <trkpt lat="42.61981" lon="1.58859">
        <ele>2350.8000488281</ele>
        <time>2023-07-21T10:34:58.000Z</time>
      </trkpt>
      <trkpt lat="42.61983" lon="1.58858">
        <ele>2351.1999511719</ele>
        <time>2023-07-21T10:34:51.000Z</time>
      </trkpt>
      <trkpt lat="42.61983" lon="1.58858">
        <ele>2351.3999023438</ele>
        <time>2023-07-21T10:34:45.000Z</time>
      </trkpt>
      <trkpt lat="42.61982" lon="1.58857">
        <ele>2351.3999023438</ele>
        <time>2023-07-21T10:34:38.000Z</time>
      </trkpt>
      <trkpt lat="42.61982" lon="1.58858">
        <ele>2351.3999023438</ele>
        <time>2023-07-21T10:34:36.000Z</time>
      </trkpt>
      <trkpt lat="42.61981" lon="1.58862">
        <ele>2352</ele>
        <time>2023-07-21T10:34:31.000Z</time>
      </trkpt>
      <trkpt lat="42.6198" lon="1.58864">
        <ele>2352.3999023438</ele>
        <time>2023-07-21T10:34:25.000Z</time>
      </trkpt>
      <trkpt lat="42.6198" lon="1.58863">
        <ele>2352.6000976562</ele>
        <time>2023-07-21T10:34:24.000Z</time>
      </trkpt>
      <trkpt lat="42.6198" lon="1.58861">
        <ele>2353.3999023438</ele>
        <time>2023-07-21T10:34:21.000Z</time>
      </trkpt>
      <trkpt lat="42.61979" lon="1.58862">
        <ele>2354.1999511719</ele>
        <time>2023-07-21T10:34:17.000Z</time>
      </trkpt>
      <trkpt lat="42.61975" lon="1.58871">
        <ele>2354.1999511719</ele>
        <time>2023-07-21T10:34:10.000Z</time>
      </trkpt>
      <trkpt lat="42.61968" lon="1.58874">
        <ele>2354.6000976562</ele>
        <time>2023-07-21T10:34:03.000Z</time>
      </trkpt>
      <trkpt lat="42.61962" lon="1.58875">
        <ele>2355.8000488281</ele>
        <time>2023-07-21T10:33:57.000Z</time>
      </trkpt>
      <trkpt lat="42.61961" lon="1.58876">
        <ele>2356.1999511719</ele>
        <time>2023-07-21T10:33:55.000Z</time>
      </trkpt>
      <trkpt lat="42.61959" lon="1.58876">
        <ele>2356.8000488281</ele>
        <time>2023-07-21T10:33:53.000Z</time>
      </trkpt>
      <trkpt lat="42.61958" lon="1.58879">
        <ele>2357.3999023438</ele>
        <time>2023-07-21T10:33:48.000Z</time>
      </trkpt>
      <trkpt lat="42.61958" lon="1.5888">
        <ele>2357.8000488281</ele>
        <time>2023-07-21T10:33:46.000Z</time>
      </trkpt>
      <trkpt lat="42.61957" lon="1.58887">
        <ele>2359</ele>
        <time>2023-07-21T10:33:40.000Z</time>
      </trkpt>
      <trkpt lat="42.6195" lon="1.58892">
        <ele>2360</ele>
        <time>2023-07-21T10:33:33.000Z</time>
      </trkpt>
      <trkpt lat="42.61949" lon="1.58892">
        <ele>2360</ele>
        <time>2023-07-21T10:33:32.000Z</time>
      </trkpt>
      <trkpt lat="42.61947" lon="1.58893">
        <ele>2361.1999511719</ele>
        <time>2023-07-21T10:33:29.000Z</time>
      </trkpt>
      <trkpt lat="42.61944" lon="1.58892">
        <ele>2361.8000488281</ele>
        <time>2023-07-21T10:33:26.000Z</time>
      </trkpt>
      <trkpt lat="42.61943" lon="1.58893">
        <ele>2362.1999511719</ele>
        <time>2023-07-21T10:33:24.000Z</time>
      </trkpt>
      <trkpt lat="42.61941" lon="1.58899">
        <ele>2363.1999511719</ele>
        <time>2023-07-21T10:33:18.000Z</time>
      </trkpt>
      <trkpt lat="42.61935" lon="1.58907">
        <ele>2364.3999023438</ele>
        <time>2023-07-21T10:33:12.000Z</time>
      </trkpt>
      <trkpt lat="42.61931" lon="1.5891">
        <ele>2365</ele>
        <time>2023-07-21T10:33:05.000Z</time>
      </trkpt>
      <trkpt lat="42.6193" lon="1.58912">
        <ele>2365.3999023438</ele>
        <time>2023-07-21T10:33:03.000Z</time>
      </trkpt>
      <trkpt lat="42.6193" lon="1.58911">
        <ele>2367</ele>
        <time>2023-07-21T10:33:00.000Z</time>
      </trkpt>
      <trkpt lat="42.6193" lon="1.58912">
        <ele>2367.6000976562</ele>
        <time>2023-07-21T10:32:58.000Z</time>
      </trkpt>
      <trkpt lat="42.61929" lon="1.58914">
        <ele>2368.1999511719</ele>
        <time>2023-07-21T10:32:56.000Z</time>
      </trkpt>
      <trkpt lat="42.61927" lon="1.58916">
        <ele>2369.6000976562</ele>
        <time>2023-07-21T10:32:52.000Z</time>
      </trkpt>
      <trkpt lat="42.61926" lon="1.58915">
        <ele>2371.1999511719</ele>
        <time>2023-07-21T10:32:49.000Z</time>
      </trkpt>
      <trkpt lat="42.61926" lon="1.58916">
        <ele>2371.3999023438</ele>
        <time>2023-07-21T10:32:48.000Z</time>
      </trkpt>
      <trkpt lat="42.61924" lon="1.58919">
        <ele>2372.3999023438</ele>
        <time>2023-07-21T10:32:45.000Z</time>
      </trkpt>
      <trkpt lat="42.61922" lon="1.58923">
        <ele>2373.6000976562</ele>
        <time>2023-07-21T10:32:41.000Z</time>
      </trkpt>
      <trkpt lat="42.61921" lon="1.58924">
        <ele>2373.6000976562</ele>
        <time>2023-07-21T10:32:40.000Z</time>
      </trkpt>
      <trkpt lat="42.61919" lon="1.58926">
        <ele>2374.6000976562</ele>
        <time>2023-07-21T10:32:37.000Z</time>
      </trkpt>
      <trkpt lat="42.61918" lon="1.58931">
        <ele>2375.8000488281</ele>
        <time>2023-07-21T10:32:32.000Z</time>
      </trkpt>
      <trkpt lat="42.61917" lon="1.58937">
        <ele>2375.8000488281</ele>
        <time>2023-07-21T10:32:27.000Z</time>
      </trkpt>
      <trkpt lat="42.61917" lon="1.58942">
        <ele>2376.3999023438</ele>
        <time>2023-07-21T10:32:24.000Z</time>
      </trkpt>
      <trkpt lat="42.61916" lon="1.58944">
        <ele>2376.8000488281</ele>
        <time>2023-07-21T10:32:23.000Z</time>
      </trkpt>
      <trkpt lat="42.61914" lon="1.58946">
        <ele>2378.1999511719</ele>
        <time>2023-07-21T10:32:20.000Z</time>
      </trkpt>
      <trkpt lat="42.61912" lon="1.5895">
        <ele>2379.6000976562</ele>
        <time>2023-07-21T10:32:16.000Z</time>
      </trkpt>
      <trkpt lat="42.6191" lon="1.58954">
        <ele>2380.8000488281</ele>
        <time>2023-07-21T10:32:13.000Z</time>
      </trkpt>
      <trkpt lat="42.61908" lon="1.58964">
        <ele>2381</ele>
        <time>2023-07-21T10:32:06.000Z</time>
      </trkpt>
      <trkpt lat="42.61907" lon="1.58972">
        <ele>2381.8000488281</ele>
        <time>2023-07-21T10:32:00.000Z</time>
      </trkpt>
      <trkpt lat="42.61906" lon="1.58975">
        <ele>2382.6000976562</ele>
        <time>2023-07-21T10:31:57.000Z</time>
      </trkpt>
      <trkpt lat="42.61905" lon="1.58977">
        <ele>2383</ele>
        <time>2023-07-21T10:31:56.000Z</time>
      </trkpt>
      <trkpt lat="42.61904" lon="1.58983">
        <ele>2384</ele>
        <time>2023-07-21T10:31:51.000Z</time>
      </trkpt>
      <trkpt lat="42.61903" lon="1.58987">
        <ele>2384.1999511719</ele>
        <time>2023-07-21T10:31:48.000Z</time>
      </trkpt>
      <trkpt lat="42.61904" lon="1.58991">
        <ele>2385.1999511719</ele>
        <time>2023-07-21T10:31:43.000Z</time>
      </trkpt>
      <trkpt lat="42.61905" lon="1.58995">
        <ele>2386.1999511719</ele>
        <time>2023-07-21T10:31:40.000Z</time>
      </trkpt>
      <trkpt lat="42.61904" lon="1.58996">
        <ele>2386.6000976562</ele>
        <time>2023-07-21T10:31:39.000Z</time>
      </trkpt>
      <trkpt lat="42.61901" lon="1.59">
        <ele>2387.3999023438</ele>
        <time>2023-07-21T10:31:35.000Z</time>
      </trkpt>
      <trkpt lat="42.619" lon="1.59003">
        <ele>2388</ele>
        <time>2023-07-21T10:31:32.000Z</time>
      </trkpt>
      <trkpt lat="42.61899" lon="1.59005">
        <ele>2388.3999023438</ele>
        <time>2023-07-21T10:31:30.000Z</time>
      </trkpt>
      <trkpt lat="42.61897" lon="1.59012">
        <ele>2389.3999023438</ele>
        <time>2023-07-21T10:31:25.000Z</time>
      </trkpt>
      <trkpt lat="42.61896" lon="1.5902">
        <ele>2390.6000976562</ele>
        <time>2023-07-21T10:31:19.000Z</time>
      </trkpt>
      <trkpt lat="42.61895" lon="1.59023">
        <ele>2391</ele>
        <time>2023-07-21T10:31:17.000Z</time>
      </trkpt>
      <trkpt lat="42.61894" lon="1.59029">
        <ele>2391.8000488281</ele>
        <time>2023-07-21T10:31:12.000Z</time>
      </trkpt>
      <trkpt lat="42.61893" lon="1.59032">
        <ele>2392</ele>
        <time>2023-07-21T10:31:10.000Z</time>
      </trkpt>
      <trkpt lat="42.61889" lon="1.59039">
        <ele>2392.8000488281</ele>
        <time>2023-07-21T10:31:05.000Z</time>
      </trkpt>
      <trkpt lat="42.61887" lon="1.59041">
        <ele>2394.3999023438</ele>
        <time>2023-07-21T10:31:03.000Z</time>
      </trkpt>
      <trkpt lat="42.61886" lon="1.59041">
        <ele>2394.8000488281</ele>
        <time>2023-07-21T10:31:02.000Z</time>
      </trkpt>
      <trkpt lat="42.61881" lon="1.59045">
        <ele>2395.6000976562</ele>
        <time>2023-07-21T10:30:58.000Z</time>
      </trkpt>
      <trkpt lat="42.61879" lon="1.59047">
        <ele>2396</ele>
        <time>2023-07-21T10:30:55.000Z</time>
      </trkpt>
      <trkpt lat="42.61879" lon="1.59048">
        <ele>2396.6000976562</ele>
        <time>2023-07-21T10:30:53.000Z</time>
      </trkpt>
      <trkpt lat="42.61878" lon="1.59052">
        <ele>2397.3999023438</ele>
        <time>2023-07-21T10:30:49.000Z</time>
      </trkpt>
      <trkpt lat="42.61878" lon="1.59053">
        <ele>2397.8000488281</ele>
        <time>2023-07-21T10:30:48.000Z</time>
      </trkpt>
      <trkpt lat="42.61875" lon="1.59061">
        <ele>2399.1999511719</ele>
        <time>2023-07-21T10:30:42.000Z</time>
      </trkpt>
      <trkpt lat="42.61874" lon="1.59061">
        <ele>2399.3999023438</ele>
        <time>2023-07-21T10:30:40.000Z</time>
      </trkpt>
      <trkpt lat="42.6187" lon="1.59064">
        <ele>2400.1999511719</ele>
        <time>2023-07-21T10:30:36.000Z</time>
      </trkpt>
      <trkpt lat="42.61869" lon="1.59069">
        <ele>2401.3999023438</ele>
        <time>2023-07-21T10:30:31.000Z</time>
      </trkpt>
      <trkpt lat="42.61867" lon="1.59079">
        <ele>2402.3999023438</ele>
        <time>2023-07-21T10:30:23.000Z</time>
      </trkpt>
      <trkpt lat="42.61867" lon="1.5908">
        <ele>2402.3999023438</ele>
        <time>2023-07-21T10:30:22.000Z</time>
      </trkpt>
      <trkpt lat="42.61866" lon="1.59087">
        <ele>2403.3999023438</ele>
        <time>2023-07-21T10:30:17.000Z</time>
      </trkpt>
      <trkpt lat="42.61865" lon="1.59091">
        <ele>2403.6000976562</ele>
        <time>2023-07-21T10:30:15.000Z</time>
      </trkpt>
      <trkpt lat="42.61863" lon="1.59102">
        <ele>2404.6000976562</ele>
        <time>2023-07-21T10:30:09.000Z</time>
      </trkpt>
      <trkpt lat="42.61862" lon="1.59103">
        <ele>2405</ele>
        <time>2023-07-21T10:30:08.000Z</time>
      </trkpt>
      <trkpt lat="42.6186" lon="1.59108">
        <ele>2405.8000488281</ele>
        <time>2023-07-21T10:30:02.000Z</time>
      </trkpt>
      <trkpt lat="42.61858" lon="1.59112">
        <ele>2406.3999023438</ele>
        <time>2023-07-21T10:29:59.000Z</time>
      </trkpt>
      <trkpt lat="42.61857" lon="1.59118">
        <ele>2406.8000488281</ele>
        <time>2023-07-21T10:29:55.000Z</time>
      </trkpt>
      <trkpt lat="42.61856" lon="1.59123">
        <ele>2407.6000976562</ele>
        <time>2023-07-21T10:29:51.000Z</time>
      </trkpt>
      <trkpt lat="42.61856" lon="1.59123">
        <ele>2407.8000488281</ele>
        <time>2023-07-21T10:29:50.000Z</time>
      </trkpt>
      <trkpt lat="42.61853" lon="1.5913">
        <ele>2408.6000976562</ele>
        <time>2023-07-21T10:29:44.000Z</time>
      </trkpt>
      <trkpt lat="42.61851" lon="1.59132">
        <ele>2408.8000488281</ele>
        <time>2023-07-21T10:29:41.000Z</time>
      </trkpt>
      <trkpt lat="42.61849" lon="1.59138">
        <ele>2409.6000976562</ele>
        <time>2023-07-21T10:29:36.000Z</time>
      </trkpt>
      <trkpt lat="42.61848" lon="1.59141">
        <ele>2410</ele>
        <time>2023-07-21T10:29:33.000Z</time>
      </trkpt>
      <trkpt lat="42.61847" lon="1.59147">
        <ele>2410.6000976562</ele>
        <time>2023-07-21T10:29:29.000Z</time>
      </trkpt>
      <trkpt lat="42.61845" lon="1.59153">
        <ele>2411</ele>
        <time>2023-07-21T10:29:25.000Z</time>
      </trkpt>
      <trkpt lat="42.61844" lon="1.59158">
        <ele>2411.8000488281</ele>
        <time>2023-07-21T10:29:21.000Z</time>
      </trkpt>
      <trkpt lat="42.61843" lon="1.59159">
        <ele>2412.1999511719</ele>
        <time>2023-07-21T10:29:20.000Z</time>
      </trkpt>
      <trkpt lat="42.6184" lon="1.59169">
        <ele>2413.1999511719</ele>
        <time>2023-07-21T10:29:13.000Z</time>
      </trkpt>
      <trkpt lat="42.61838" lon="1.59179">
        <ele>2414.3999023438</ele>
        <time>2023-07-21T10:29:07.000Z</time>
      </trkpt>
      <trkpt lat="42.61838" lon="1.59182">
        <ele>2414.8000488281</ele>
        <time>2023-07-21T10:29:05.000Z</time>
      </trkpt>
      <trkpt lat="42.61836" lon="1.59188">
        <ele>2415.3999023438</ele>
        <time>2023-07-21T10:29:00.000Z</time>
      </trkpt>
      <trkpt lat="42.61833" lon="1.59192">
        <ele>2415.8000488281</ele>
        <time>2023-07-21T10:28:57.000Z</time>
      </trkpt>
      <trkpt lat="42.61828" lon="1.59203">
        <ele>2416.3999023438</ele>
        <time>2023-07-21T10:28:48.000Z</time>
      </trkpt>
      <trkpt lat="42.61827" lon="1.59209">
        <ele>2418</ele>
        <time>2023-07-21T10:28:44.000Z</time>
      </trkpt>
      <trkpt lat="42.61827" lon="1.59216">
        <ele>2418.1999511719</ele>
        <time>2023-07-21T10:28:40.000Z</time>
      </trkpt>
      <trkpt lat="42.61826" lon="1.59223">
        <ele>2419</ele>
        <time>2023-07-21T10:28:36.000Z</time>
      </trkpt>
      <trkpt lat="42.61823" lon="1.59227">
        <ele>2419.6000976562</ele>
        <time>2023-07-21T10:28:33.000Z</time>
      </trkpt>
      <trkpt lat="42.6182" lon="1.5924">
        <ele>2420.1999511719</ele>
        <time>2023-07-21T10:28:25.000Z</time>
      </trkpt>
      <trkpt lat="42.61815" lon="1.59251">
        <ele>2421</ele>
        <time>2023-07-21T10:28:16.000Z</time>
      </trkpt>
      <trkpt lat="42.61814" lon="1.59252">
        <ele>2421.1999511719</ele>
        <time>2023-07-21T10:28:15.000Z</time>
      </trkpt>
      <trkpt lat="42.61813" lon="1.59263">
        <ele>2422.1999511719</ele>
        <time>2023-07-21T10:28:08.000Z</time>
      </trkpt>
      <trkpt lat="42.61813" lon="1.59265">
        <ele>2422.3999023438</ele>
        <time>2023-07-21T10:28:05.000Z</time>
      </trkpt>
      <trkpt lat="42.61814" lon="1.5927">
        <ele>2423</ele>
        <time>2023-07-21T10:28:01.000Z</time>
      </trkpt>
      <trkpt lat="42.61815" lon="1.59279">
        <ele>2423.3999023438</ele>
        <time>2023-07-21T10:27:56.000Z</time>
      </trkpt>
      <trkpt lat="42.61815" lon="1.5928">
        <ele>2423.6000976562</ele>
        <time>2023-07-21T10:27:55.000Z</time>
      </trkpt>
      <trkpt lat="42.61817" lon="1.5929">
        <ele>2424.3999023438</ele>
        <time>2023-07-21T10:27:48.000Z</time>
      </trkpt>
      <trkpt lat="42.61818" lon="1.5929">
        <ele>2424.6000976562</ele>
        <time>2023-07-21T10:27:47.000Z</time>
      </trkpt>
      <trkpt lat="42.61823" lon="1.59292">
        <ele>2425.8000488281</ele>
        <time>2023-07-21T10:27:42.000Z</time>
      </trkpt>
      <trkpt lat="42.61825" lon="1.59292">
        <ele>2426</ele>
        <time>2023-07-21T10:27:41.000Z</time>
      </trkpt>
      <trkpt lat="42.61829" lon="1.59291">
        <ele>2426.8000488281</ele>
        <time>2023-07-21T10:27:37.000Z</time>
      </trkpt>
      <trkpt lat="42.61831" lon="1.59291">
        <ele>2427.8000488281</ele>
        <time>2023-07-21T10:27:33.000Z</time>
      </trkpt>
      <trkpt lat="42.61831" lon="1.59291">
        <ele>2428</ele>
        <time>2023-07-21T10:27:32.000Z</time>
      </trkpt>
      <trkpt lat="42.61835" lon="1.59293">
        <ele>2429.1999511719</ele>
        <time>2023-07-21T10:27:27.000Z</time>
      </trkpt>
      <trkpt lat="42.61836" lon="1.59295">
        <ele>2429.6000976562</ele>
        <time>2023-07-21T10:27:25.000Z</time>
      </trkpt>
      <trkpt lat="42.61838" lon="1.593">
        <ele>2430.3999023438</ele>
        <time>2023-07-21T10:27:21.000Z</time>
      </trkpt>
      <trkpt lat="42.61837" lon="1.59304">
        <ele>2430.8000488281</ele>
        <time>2023-07-21T10:27:18.000Z</time>
      </trkpt>
      <trkpt lat="42.61838" lon="1.59305">
        <ele>2431.3999023438</ele>
        <time>2023-07-21T10:27:15.000Z</time>
      </trkpt>
      <trkpt lat="42.61836" lon="1.59307">
        <ele>2432.3999023438</ele>
        <time>2023-07-21T10:27:11.000Z</time>
      </trkpt>
      <trkpt lat="42.61836" lon="1.59308">
        <ele>2432.6000976562</ele>
        <time>2023-07-21T10:27:10.000Z</time>
      </trkpt>
      <trkpt lat="42.6184" lon="1.59312">
        <ele>2433.8000488281</ele>
        <time>2023-07-21T10:27:06.000Z</time>
      </trkpt>
      <trkpt lat="42.61841" lon="1.59312">
        <ele>2434</ele>
        <time>2023-07-21T10:27:05.000Z</time>
      </trkpt>
      <trkpt lat="42.61844" lon="1.59313">
        <ele>2434.8000488281</ele>
        <time>2023-07-21T10:27:01.000Z</time>
      </trkpt>
      <trkpt lat="42.61844" lon="1.5932">
        <ele>2435.8000488281</ele>
        <time>2023-07-21T10:26:55.000Z</time>
      </trkpt>
      <trkpt lat="42.61842" lon="1.59328">
        <ele>2436.8000488281</ele>
        <time>2023-07-21T10:26:49.000Z</time>
      </trkpt>
      <trkpt lat="42.61841" lon="1.5933">
        <ele>2437.1999511719</ele>
        <time>2023-07-21T10:26:47.000Z</time>
      </trkpt>
      <trkpt lat="42.61839" lon="1.59333">
        <ele>2438</ele>
        <time>2023-07-21T10:26:44.000Z</time>
      </trkpt>
      <trkpt lat="42.61838" lon="1.59337">
        <ele>2438.8000488281</ele>
        <time>2023-07-21T10:26:40.000Z</time>
      </trkpt>
      <trkpt lat="42.61839" lon="1.59338">
        <ele>2439</ele>
        <time>2023-07-21T10:26:38.000Z</time>
      </trkpt>
      <trkpt lat="42.61839" lon="1.59342">
        <ele>2440</ele>
        <time>2023-07-21T10:26:33.000Z</time>
      </trkpt>
      <trkpt lat="42.61839" lon="1.59344">
        <ele>2440.3999023438</ele>
        <time>2023-07-21T10:26:32.000Z</time>
      </trkpt>
      <trkpt lat="42.61839" lon="1.59349">
        <ele>2441.3999023438</ele>
        <time>2023-07-21T10:26:28.000Z</time>
      </trkpt>
      <trkpt lat="42.61839" lon="1.59353">
        <ele>2442.1999511719</ele>
        <time>2023-07-21T10:26:24.000Z</time>
      </trkpt>
      <trkpt lat="42.61839" lon="1.59357">
        <ele>2442.6000976562</ele>
        <time>2023-07-21T10:26:22.000Z</time>
      </trkpt>
      <trkpt lat="42.61839" lon="1.5936">
        <ele>2443.6000976562</ele>
        <time>2023-07-21T10:26:17.000Z</time>
      </trkpt>
      <trkpt lat="42.61839" lon="1.59361">
        <ele>2443.6000976562</ele>
        <time>2023-07-21T10:26:16.000Z</time>
      </trkpt>
      <trkpt lat="42.61838" lon="1.59369">
        <ele>2444.3999023438</ele>
        <time>2023-07-21T10:26:09.000Z</time>
      </trkpt>
      <trkpt lat="42.61838" lon="1.59373">
        <ele>2444.8000488281</ele>
        <time>2023-07-21T10:26:06.000Z</time>
      </trkpt>
      <trkpt lat="42.61838" lon="1.59378">
        <ele>2445.3999023438</ele>
        <time>2023-07-21T10:26:03.000Z</time>
      </trkpt>
      <trkpt lat="42.61838" lon="1.5938">
        <ele>2446</ele>
        <time>2023-07-21T10:26:00.000Z</time>
      </trkpt>
      <trkpt lat="42.61838" lon="1.59389">
        <ele>2446.3999023438</ele>
        <time>2023-07-21T10:25:55.000Z</time>
      </trkpt>
      <trkpt lat="42.61837" lon="1.59395">
        <ele>2447</ele>
        <time>2023-07-21T10:25:51.000Z</time>
      </trkpt>
      <trkpt lat="42.61837" lon="1.59397">
        <ele>2447.3999023438</ele>
        <time>2023-07-21T10:25:48.000Z</time>
      </trkpt>
      <trkpt lat="42.61838" lon="1.59408">
        <ele>2448.1999511719</ele>
        <time>2023-07-21T10:25:40.000Z</time>
      </trkpt>
      <trkpt lat="42.61837" lon="1.5942">
        <ele>2449.1999511719</ele>
        <time>2023-07-21T10:25:32.000Z</time>
      </trkpt>
      <trkpt lat="42.61836" lon="1.5943">
        <ele>2449.1999511719</ele>
        <time>2023-07-21T10:25:25.000Z</time>
      </trkpt>
      <trkpt lat="42.61836" lon="1.59431">
        <ele>2449.3999023438</ele>
        <time>2023-07-21T10:25:24.000Z</time>
      </trkpt>
      <trkpt lat="42.61835" lon="1.5944">
        <ele>2450.3999023438</ele>
        <time>2023-07-21T10:25:18.000Z</time>
      </trkpt>
      <trkpt lat="42.61835" lon="1.59443">
        <ele>2450.8000488281</ele>
        <time>2023-07-21T10:25:15.000Z</time>
      </trkpt>
      <trkpt lat="42.61836" lon="1.59448">
        <ele>2451.3999023438</ele>
        <time>2023-07-21T10:25:11.000Z</time>
      </trkpt>
      <trkpt lat="42.61837" lon="1.59453">
        <ele>2452</ele>
        <time>2023-07-21T10:25:07.000Z</time>
      </trkpt>
      <trkpt lat="42.61837" lon="1.59456">
        <ele>2452.6000976562</ele>
        <time>2023-07-21T10:25:04.000Z</time>
      </trkpt>
      <trkpt lat="42.61838" lon="1.59459">
        <ele>2453.1999511719</ele>
        <time>2023-07-21T10:24:59.000Z</time>
      </trkpt>
      <trkpt lat="42.61839" lon="1.59465">
        <ele>2453.6000976562</ele>
        <time>2023-07-21T10:24:54.000Z</time>
      </trkpt>
      <trkpt lat="42.61841" lon="1.5947">
        <ele>2454</ele>
        <time>2023-07-21T10:24:49.000Z</time>
      </trkpt>
      <trkpt lat="42.61842" lon="1.59477">
        <ele>2454.6000976562</ele>
        <time>2023-07-21T10:24:43.000Z</time>
      </trkpt>
      <trkpt lat="42.61842" lon="1.59478">
        <ele>2454.8000488281</ele>
        <time>2023-07-21T10:24:42.000Z</time>
      </trkpt>
      <trkpt lat="42.61842" lon="1.59491">
        <ele>2454.8000488281</ele>
        <time>2023-07-21T10:24:34.000Z</time>
      </trkpt>
      <trkpt lat="42.6184" lon="1.59506">
        <ele>2455.6000976562</ele>
        <time>2023-07-21T10:24:23.000Z</time>
      </trkpt>
      <trkpt lat="42.61839" lon="1.59512">
        <ele>2456.8000488281</ele>
        <time>2023-07-21T10:24:16.000Z</time>
      </trkpt>
      <trkpt lat="42.61839" lon="1.59514">
        <ele>2456.8000488281</ele>
        <time>2023-07-21T10:24:15.000Z</time>
      </trkpt>
      <trkpt lat="42.61837" lon="1.59521">
        <ele>2457.6000976562</ele>
        <time>2023-07-21T10:24:09.000Z</time>
      </trkpt>
      <trkpt lat="42.61833" lon="1.59524">
        <ele>2457.8000488281</ele>
        <time>2023-07-21T10:24:00.000Z</time>
      </trkpt>
      <trkpt lat="42.61833" lon="1.59527">
        <ele>2457.6000976562</ele>
        <time>2023-07-21T10:23:50.000Z</time>
      </trkpt>
      <trkpt lat="42.61833" lon="1.59526">
        <ele>2457.8000488281</ele>
        <time>2023-07-21T10:23:47.000Z</time>
      </trkpt>
      <trkpt lat="42.61832" lon="1.59525">
        <ele>2458.8000488281</ele>
        <time>2023-07-21T10:23:42.000Z</time>
      </trkpt>
      <trkpt lat="42.61832" lon="1.59525">
        <ele>2459</ele>
        <time>2023-07-21T10:23:41.000Z</time>
      </trkpt>
      <trkpt lat="42.61828" lon="1.59532">
        <ele>2460</ele>
        <time>2023-07-21T10:23:33.000Z</time>
      </trkpt>
      <trkpt lat="42.61828" lon="1.5954">
        <ele>2461.1999511719</ele>
        <time>2023-07-21T10:23:25.000Z</time>
      </trkpt>
      <trkpt lat="42.61828" lon="1.59543">
        <ele>2461.3999023438</ele>
        <time>2023-07-21T10:23:23.000Z</time>
      </trkpt>
      <trkpt lat="42.61828" lon="1.59552">
        <ele>2462.1999511719</ele>
        <time>2023-07-21T10:23:17.000Z</time>
      </trkpt>
      <trkpt lat="42.61826" lon="1.59563">
        <ele>2463.1999511719</ele>
        <time>2023-07-21T10:23:10.000Z</time>
      </trkpt>
      <trkpt lat="42.61826" lon="1.59564">
        <ele>2463.3999023438</ele>
        <time>2023-07-21T10:23:09.000Z</time>
      </trkpt>
      <trkpt lat="42.61827" lon="1.5957">
        <ele>2464.1999511719</ele>
        <time>2023-07-21T10:23:05.000Z</time>
      </trkpt>
      <trkpt lat="42.61827" lon="1.59574">
        <ele>2465</ele>
        <time>2023-07-21T10:23:01.000Z</time>
      </trkpt>
      <trkpt lat="42.61827" lon="1.59575">
        <ele>2465.6000976562</ele>
        <time>2023-07-21T10:22:59.000Z</time>
      </trkpt>
      <trkpt lat="42.61822" lon="1.5958">
        <ele>2466.6000976562</ele>
        <time>2023-07-21T10:22:55.000Z</time>
      </trkpt>
      <trkpt lat="42.61818" lon="1.59582">
        <ele>2467.3999023438</ele>
        <time>2023-07-21T10:22:51.000Z</time>
      </trkpt>
      <trkpt lat="42.61815" lon="1.59585">
        <ele>2467.8000488281</ele>
        <time>2023-07-21T10:22:46.000Z</time>
      </trkpt>
      <trkpt lat="42.61816" lon="1.59587">
        <ele>2469.1999511719</ele>
        <time>2023-07-21T10:22:43.000Z</time>
      </trkpt>
      <trkpt lat="42.61817" lon="1.59592">
        <ele>2470.1999511719</ele>
        <time>2023-07-21T10:22:38.000Z</time>
      </trkpt>
      <trkpt lat="42.61817" lon="1.59594">
        <ele>2471</ele>
        <time>2023-07-21T10:22:35.000Z</time>
      </trkpt>
      <trkpt lat="42.61815" lon="1.59596">
        <ele>2471.3999023438</ele>
        <time>2023-07-21T10:22:33.000Z</time>
      </trkpt>
      <trkpt lat="42.61812" lon="1.59601">
        <ele>2472.3999023438</ele>
        <time>2023-07-21T10:22:28.000Z</time>
      </trkpt>
      <trkpt lat="42.61811" lon="1.59614">
        <ele>2472.8000488281</ele>
        <time>2023-07-21T10:22:20.000Z</time>
      </trkpt>
      <trkpt lat="42.61811" lon="1.59617">
        <ele>2473.6000976562</ele>
        <time>2023-07-21T10:22:16.000Z</time>
      </trkpt>
      <trkpt lat="42.61812" lon="1.5962">
        <ele>2474</ele>
        <time>2023-07-21T10:22:13.000Z</time>
      </trkpt>
      <trkpt lat="42.61812" lon="1.59626">
        <ele>2474.8000488281</ele>
        <time>2023-07-21T10:22:10.000Z</time>
      </trkpt>
      <trkpt lat="42.61811" lon="1.59632">
        <ele>2475.8000488281</ele>
        <time>2023-07-21T10:22:05.000Z</time>
      </trkpt>
      <trkpt lat="42.61811" lon="1.59633">
        <ele>2476.1999511719</ele>
        <time>2023-07-21T10:22:04.000Z</time>
      </trkpt>
      <trkpt lat="42.61809" lon="1.59639">
        <ele>2476.8000488281</ele>
        <time>2023-07-21T10:22:00.000Z</time>
      </trkpt>
      <trkpt lat="42.61808" lon="1.59642">
        <ele>2477.3999023438</ele>
        <time>2023-07-21T10:21:57.000Z</time>
      </trkpt>
      <trkpt lat="42.61807" lon="1.59644">
        <ele>2478</ele>
        <time>2023-07-21T10:21:53.000Z</time>
      </trkpt>
      <trkpt lat="42.61807" lon="1.59649">
        <ele>2479</ele>
        <time>2023-07-21T10:21:49.000Z</time>
      </trkpt>
      <trkpt lat="42.61806" lon="1.59656">
        <ele>2480</ele>
        <time>2023-07-21T10:21:45.000Z</time>
      </trkpt>
      <trkpt lat="42.61804" lon="1.59662">
        <ele>2481</ele>
        <time>2023-07-21T10:21:41.000Z</time>
      </trkpt>
      <trkpt lat="42.61802" lon="1.59666">
        <ele>2481.1999511719</ele>
        <time>2023-07-21T10:21:38.000Z</time>
      </trkpt>
      <trkpt lat="42.61799" lon="1.5967">
        <ele>2482.3999023438</ele>
        <time>2023-07-21T10:21:32.000Z</time>
      </trkpt>
      <trkpt lat="42.61798" lon="1.59676">
        <ele>2483.3999023438</ele>
        <time>2023-07-21T10:21:27.000Z</time>
      </trkpt>
      <trkpt lat="42.61798" lon="1.5968">
        <ele>2484.6000976562</ele>
        <time>2023-07-21T10:21:24.000Z</time>
      </trkpt>
      <trkpt lat="42.61798" lon="1.59684">
        <ele>2486.1999511719</ele>
        <time>2023-07-21T10:21:22.000Z</time>
      </trkpt>
      <trkpt lat="42.61798" lon="1.59695">
        <ele>2487.3999023438</ele>
        <time>2023-07-21T10:21:15.000Z</time>
      </trkpt>
      <trkpt lat="42.61797" lon="1.59702">
        <ele>2487.3999023438</ele>
        <time>2023-07-21T10:21:07.000Z</time>
      </trkpt>
      <trkpt lat="42.61797" lon="1.59704">
        <ele>2487.8000488281</ele>
        <time>2023-07-21T10:21:05.000Z</time>
      </trkpt>
      <trkpt lat="42.61795" lon="1.59713">
        <ele>2488.3999023438</ele>
        <time>2023-07-21T10:20:58.000Z</time>
      </trkpt>
      <trkpt lat="42.61794" lon="1.59721">
        <ele>2489.6000976562</ele>
        <time>2023-07-21T10:20:51.000Z</time>
      </trkpt>
      <trkpt lat="42.61794" lon="1.59724">
        <ele>2490.1999511719</ele>
        <time>2023-07-21T10:20:48.000Z</time>
      </trkpt>
      <trkpt lat="42.61794" lon="1.59725">
        <ele>2490.6000976562</ele>
        <time>2023-07-21T10:20:46.000Z</time>
      </trkpt>
      <trkpt lat="42.61793" lon="1.5973">
        <ele>2491.1999511719</ele>
        <time>2023-07-21T10:20:41.000Z</time>
      </trkpt>
      <trkpt lat="42.61793" lon="1.59733">
        <ele>2491.6000976562</ele>
        <time>2023-07-21T10:20:38.000Z</time>
      </trkpt>
      <trkpt lat="42.61793" lon="1.59738">
        <ele>2492.1999511719</ele>
        <time>2023-07-21T10:20:34.000Z</time>
      </trkpt>
      <trkpt lat="42.61794" lon="1.5974">
        <ele>2492.6000976562</ele>
        <time>2023-07-21T10:20:31.000Z</time>
      </trkpt>
      <trkpt lat="42.61794" lon="1.59742">
        <ele>2493</ele>
        <time>2023-07-21T10:20:28.000Z</time>
      </trkpt>
      <trkpt lat="42.61794" lon="1.5975">
        <ele>2493.8000488281</ele>
        <time>2023-07-21T10:20:22.000Z</time>
      </trkpt>
      <trkpt lat="42.61794" lon="1.59752">
        <ele>2494</ele>
        <time>2023-07-21T10:20:20.000Z</time>
      </trkpt>
      <trkpt lat="42.61796" lon="1.59758">
        <ele>2494.8000488281</ele>
        <time>2023-07-21T10:20:16.000Z</time>
      </trkpt>
      <trkpt lat="42.61797" lon="1.59761">
        <ele>2495.1999511719</ele>
        <time>2023-07-21T10:20:13.000Z</time>
      </trkpt>
      <trkpt lat="42.61799" lon="1.59766">
        <ele>2495.8000488281</ele>
        <time>2023-07-21T10:20:08.000Z</time>
      </trkpt>
      <trkpt lat="42.61802" lon="1.5977">
        <ele>2496.3999023438</ele>
        <time>2023-07-21T10:20:05.000Z</time>
      </trkpt>
      <trkpt lat="42.61802" lon="1.59772">
        <ele>2496.8000488281</ele>
        <time>2023-07-21T10:20:03.000Z</time>
      </trkpt>
      <trkpt lat="42.61801" lon="1.5978">
        <ele>2497.6000976562</ele>
        <time>2023-07-21T10:19:57.000Z</time>
      </trkpt>
      <trkpt lat="42.61801" lon="1.59781">
        <ele>2498</ele>
        <time>2023-07-21T10:19:55.000Z</time>
      </trkpt>
      <trkpt lat="42.618" lon="1.59787">
        <ele>2498.6000976562</ele>
        <time>2023-07-21T10:19:50.000Z</time>
      </trkpt>
      <trkpt lat="42.618" lon="1.59789">
        <ele>2499</ele>
        <time>2023-07-21T10:19:48.000Z</time>
      </trkpt>
      <trkpt lat="42.61804" lon="1.59795">
        <ele>2499.8000488281</ele>
        <time>2023-07-21T10:19:43.000Z</time>
      </trkpt>
      <trkpt lat="42.61806" lon="1.59799">
        <ele>2500.1999511719</ele>
        <time>2023-07-21T10:19:41.000Z</time>
      </trkpt>
      <trkpt lat="42.61809" lon="1.59804">
        <ele>2501.3999023438</ele>
        <time>2023-07-21T10:19:36.000Z</time>
      </trkpt>
      <trkpt lat="42.6181" lon="1.59806">
        <ele>2502.6000976562</ele>
        <time>2023-07-21T10:19:34.000Z</time>
      </trkpt>
      <trkpt lat="42.6181" lon="1.59811">
        <ele>2503.8000488281</ele>
        <time>2023-07-21T10:19:30.000Z</time>
      </trkpt>
      <trkpt lat="42.61809" lon="1.5982">
        <ele>2504.6000976562</ele>
        <time>2023-07-21T10:19:22.000Z</time>
      </trkpt>
      <trkpt lat="42.61812" lon="1.59826">
        <ele>2505.1999511719</ele>
        <time>2023-07-21T10:19:18.000Z</time>
      </trkpt>
      <trkpt lat="42.61815" lon="1.59829">
        <ele>2506.1999511719</ele>
        <time>2023-07-21T10:19:14.000Z</time>
      </trkpt>
      <trkpt lat="42.61815" lon="1.59829">
        <ele>2506.1999511719</ele>
        <time>2023-07-21T10:19:13.000Z</time>
      </trkpt>
      <trkpt lat="42.6182" lon="1.59839">
        <ele>2507.1999511719</ele>
        <time>2023-07-21T10:19:06.000Z</time>
      </trkpt>
      <trkpt lat="42.61821" lon="1.59844">
        <ele>2507.8000488281</ele>
        <time>2023-07-21T10:19:03.000Z</time>
      </trkpt>
      <trkpt lat="42.61822" lon="1.59848">
        <ele>2508.3999023438</ele>
        <time>2023-07-21T10:19:01.000Z</time>
      </trkpt>
      <trkpt lat="42.61821" lon="1.59855">
        <ele>2509.3999023438</ele>
        <time>2023-07-21T10:18:56.000Z</time>
      </trkpt>
      <trkpt lat="42.61821" lon="1.59856">
        <ele>2509.8000488281</ele>
        <time>2023-07-21T10:18:55.000Z</time>
      </trkpt>
      <trkpt lat="42.61823" lon="1.59868">
        <ele>2510.6000976562</ele>
        <time>2023-07-21T10:18:46.000Z</time>
      </trkpt>
      <trkpt lat="42.61825" lon="1.59874">
        <ele>2511.8000488281</ele>
        <time>2023-07-21T10:18:42.000Z</time>
      </trkpt>
      <trkpt lat="42.61827" lon="1.59879">
        <ele>2512.1999511719</ele>
        <time>2023-07-21T10:18:39.000Z</time>
      </trkpt>
      <trkpt lat="42.61828" lon="1.59883">
        <ele>2512.8000488281</ele>
        <time>2023-07-21T10:18:36.000Z</time>
      </trkpt>
      <trkpt lat="42.61829" lon="1.59888">
        <ele>2513.1999511719</ele>
        <time>2023-07-21T10:18:32.000Z</time>
      </trkpt>
      <trkpt lat="42.61831" lon="1.59896">
        <ele>2514</ele>
        <time>2023-07-21T10:18:27.000Z</time>
      </trkpt>
      <trkpt lat="42.61831" lon="1.59899">
        <ele>2514.1999511719</ele>
        <time>2023-07-21T10:18:25.000Z</time>
      </trkpt>
      <trkpt lat="42.61834" lon="1.59913">
        <ele>2515.6000976562</ele>
        <time>2023-07-21T10:18:15.000Z</time>
      </trkpt>
      <trkpt lat="42.61839" lon="1.59926">
        <ele>2515.1999511719</ele>
        <time>2023-07-21T10:18:08.000Z</time>
      </trkpt>
      <trkpt lat="42.61841" lon="1.59933">
        <ele>2515</ele>
        <time>2023-07-21T10:18:05.000Z</time>
      </trkpt>
      <trkpt lat="42.61843" lon="1.59942">
        <ele>2515.3999023438</ele>
        <time>2023-07-21T10:18:01.000Z</time>
      </trkpt>
      <trkpt lat="42.61843" lon="1.59949">
        <ele>2516.1999511719</ele>
        <time>2023-07-21T10:17:56.000Z</time>
      </trkpt>
      <trkpt lat="42.61843" lon="1.59952">
        <ele>2516.3999023438</ele>
        <time>2023-07-21T10:17:54.000Z</time>
      </trkpt>
      <trkpt lat="42.61843" lon="1.59965">
        <ele>2516.6000976562</ele>
        <time>2023-07-21T10:17:45.000Z</time>
      </trkpt>
      <trkpt lat="42.61843" lon="1.59973">
        <ele>2517.1999511719</ele>
        <time>2023-07-21T10:17:41.000Z</time>
      </trkpt>
      <trkpt lat="42.61844" lon="1.5998">
        <ele>2518.1999511719</ele>
        <time>2023-07-21T10:17:36.000Z</time>
      </trkpt>
      <trkpt lat="42.61845" lon="1.59982">
        <ele>2518.8000488281</ele>
        <time>2023-07-21T10:17:34.000Z</time>
      </trkpt>
      <trkpt lat="42.61847" lon="1.59989">
        <ele>2519.1999511719</ele>
        <time>2023-07-21T10:17:29.000Z</time>
      </trkpt>
      <trkpt lat="42.61846" lon="1.59992">
        <ele>2519.1999511719</ele>
        <time>2023-07-21T10:17:21.000Z</time>
      </trkpt>
      <trkpt lat="42.61845" lon="1.59995">
        <ele>2519.3999023438</ele>
        <time>2023-07-21T10:17:06.000Z</time>
      </trkpt>
      <trkpt lat="42.61842" lon="1.59993">
        <ele>2519.3999023438</ele>
        <time>2023-07-21T10:16:57.000Z</time>
      </trkpt>
      <trkpt lat="42.61846" lon="1.59992">
        <ele>2519.6000976562</ele>
        <time>2023-07-21T10:16:47.000Z</time>
      </trkpt>
      <trkpt lat="42.61847" lon="1.59993">
        <ele>2519.3999023438</ele>
        <time>2023-07-21T10:16:41.000Z</time>
      </trkpt>
      <trkpt lat="42.61852" lon="1.59997">
        <ele>2519.1999511719</ele>
        <time>2023-07-21T10:16:30.000Z</time>
      </trkpt>
      <trkpt lat="42.61855" lon="1.59999">
        <ele>2519.1999511719</ele>
        <time>2023-07-21T10:16:25.000Z</time>
      </trkpt>
      <trkpt lat="42.6185" lon="1.5999">
        <ele>2518.8000488281</ele>
        <time>2023-07-21T10:16:15.000Z</time>
      </trkpt>
      <trkpt lat="42.61848" lon="1.59991">
        <ele>2519</ele>
        <time>2023-07-21T10:16:05.000Z</time>
      </trkpt>
      <trkpt lat="42.61851" lon="1.59991">
        <ele>2519</ele>
        <time>2023-07-21T10:15:52.000Z</time>
      </trkpt>
      <trkpt lat="42.61847" lon="1.59992">
        <ele>2518.8000488281</ele>
        <time>2023-07-21T10:15:44.000Z</time>
      </trkpt>
      <trkpt lat="42.61846" lon="1.59993">
        <ele>2518.8000488281</ele>
        <time>2023-07-21T10:15:35.000Z</time>
      </trkpt>
      <trkpt lat="42.61842" lon="1.59993">
        <ele>2519.1999511719</ele>
        <time>2023-07-21T10:15:27.000Z</time>
      </trkpt>
      <trkpt lat="42.61845" lon="1.59998">
        <ele>2518.8000488281</ele>
        <time>2023-07-21T10:15:16.000Z</time>
      </trkpt>
      <trkpt lat="42.61848" lon="1.59997">
        <ele>2519.1999511719</ele>
        <time>2023-07-21T10:15:09.000Z</time>
      </trkpt>
      <trkpt lat="42.61851" lon="1.59996">
        <ele>2519.1999511719</ele>
        <time>2023-07-21T10:15:00.000Z</time>
      </trkpt>
      <trkpt lat="42.61845" lon="1.59992">
        <ele>2519</ele>
        <time>2023-07-21T10:14:47.000Z</time>
      </trkpt>
      <trkpt lat="42.61845" lon="1.5999">
        <ele>2518.8000488281</ele>
        <time>2023-07-21T10:14:40.000Z</time>
      </trkpt>
      <trkpt lat="42.61846" lon="1.59989">
        <ele>2519.3999023438</ele>
        <time>2023-07-21T10:14:34.000Z</time>
      </trkpt>
      <trkpt lat="42.61846" lon="1.59988">
        <ele>2520</ele>
        <time>2023-07-21T10:14:33.000Z</time>
      </trkpt>
      <trkpt lat="42.61847" lon="1.59991">
        <ele>2520.8000488281</ele>
        <time>2023-07-21T10:14:29.000Z</time>
      </trkpt>
      <trkpt lat="42.61849" lon="1.59995">
        <ele>2521.8000488281</ele>
        <time>2023-07-21T10:14:26.000Z</time>
      </trkpt>
      <trkpt lat="42.6185" lon="1.59997">
        <ele>2521.8000488281</ele>
        <time>2023-07-21T10:14:25.000Z</time>
      </trkpt>
      <trkpt lat="42.61853" lon="1.60003">
        <ele>2523</ele>
        <time>2023-07-21T10:14:20.000Z</time>
      </trkpt>
      <trkpt lat="42.61855" lon="1.6001">
        <ele>2524.1999511719</ele>
        <time>2023-07-21T10:14:16.000Z</time>
      </trkpt>
      <trkpt lat="42.61856" lon="1.60017">
        <ele>2524.6000976562</ele>
        <time>2023-07-21T10:14:12.000Z</time>
      </trkpt>
      <trkpt lat="42.61856" lon="1.60021">
        <ele>2525.1999511719</ele>
        <time>2023-07-21T10:14:08.000Z</time>
      </trkpt>
      <trkpt lat="42.61856" lon="1.60023">
        <ele>2525.6000976562</ele>
        <time>2023-07-21T10:14:04.000Z</time>
      </trkpt>
      <trkpt lat="42.61855" lon="1.60027">
        <ele>2526.3999023438</ele>
        <time>2023-07-21T10:14:00.000Z</time>
      </trkpt>
      <trkpt lat="42.61855" lon="1.6003">
        <ele>2526.6000976562</ele>
        <time>2023-07-21T10:13:58.000Z</time>
      </trkpt>
      <trkpt lat="42.61855" lon="1.60037">
        <ele>2527.8000488281</ele>
        <time>2023-07-21T10:13:53.000Z</time>
      </trkpt>
      <trkpt lat="42.61855" lon="1.60039">
        <ele>2528.3999023438</ele>
        <time>2023-07-21T10:13:51.000Z</time>
      </trkpt>
      <trkpt lat="42.61854" lon="1.60042">
        <ele>2528.8000488281</ele>
        <time>2023-07-21T10:13:49.000Z</time>
      </trkpt>
      <trkpt lat="42.61854" lon="1.60048">
        <ele>2529.8000488281</ele>
        <time>2023-07-21T10:13:43.000Z</time>
      </trkpt>
      <trkpt lat="42.61853" lon="1.6005">
        <ele>2530</ele>
        <time>2023-07-21T10:13:41.000Z</time>
      </trkpt>
      <trkpt lat="42.61854" lon="1.60053">
        <ele>2530.6000976562</ele>
        <time>2023-07-21T10:13:36.000Z</time>
      </trkpt>
      <trkpt lat="42.61853" lon="1.60057">
        <ele>2530.8000488281</ele>
        <time>2023-07-21T10:13:30.000Z</time>
      </trkpt>
      <trkpt lat="42.61851" lon="1.60055">
        <ele>2531</ele>
        <time>2023-07-21T10:13:24.000Z</time>
      </trkpt>
      <trkpt lat="42.61856" lon="1.6006">
        <ele>2531.1999511719</ele>
        <time>2023-07-21T10:13:03.000Z</time>
      </trkpt>
      <trkpt lat="42.61854" lon="1.60062">
        <ele>2531.3999023438</ele>
        <time>2023-07-21T10:12:55.000Z</time>
      </trkpt>
      <trkpt lat="42.61853" lon="1.60061">
        <ele>2531.8000488281</ele>
        <time>2023-07-21T10:12:48.000Z</time>
      </trkpt>
      <trkpt lat="42.61853" lon="1.6006">
        <ele>2532.1999511719</ele>
        <time>2023-07-21T10:12:46.000Z</time>
      </trkpt>
      <trkpt lat="42.61855" lon="1.60058">
        <ele>2533.6000976562</ele>
        <time>2023-07-21T10:12:41.000Z</time>
      </trkpt>
      <trkpt lat="42.61859" lon="1.60064">
        <ele>2533.1999511719</ele>
        <time>2023-07-21T10:12:33.000Z</time>
      </trkpt>
      <trkpt lat="42.61859" lon="1.60065">
        <ele>2533.1999511719</ele>
        <time>2023-07-21T10:12:32.000Z</time>
      </trkpt>
      <trkpt lat="42.61861" lon="1.60072">
        <ele>2533.6000976562</ele>
        <time>2023-07-21T10:12:25.000Z</time>
      </trkpt>
      <trkpt lat="42.61859" lon="1.6007">
        <ele>2534.3999023438</ele>
        <time>2023-07-21T10:12:11.000Z</time>
      </trkpt>
      <trkpt lat="42.61859" lon="1.60071">
        <ele>2534.6000976562</ele>
        <time>2023-07-21T10:12:10.000Z</time>
      </trkpt>
      <trkpt lat="42.6186" lon="1.60074">
        <ele>2535.6000976562</ele>
        <time>2023-07-21T10:12:06.000Z</time>
      </trkpt>
      <trkpt lat="42.61861" lon="1.60077">
        <ele>2536.6000976562</ele>
        <time>2023-07-21T10:12:03.000Z</time>
      </trkpt>
      <trkpt lat="42.61861" lon="1.60078">
        <ele>2537</ele>
        <time>2023-07-21T10:12:02.000Z</time>
      </trkpt>
      <trkpt lat="42.61861" lon="1.60082">
        <ele>2537.6000976562</ele>
        <time>2023-07-21T10:11:59.000Z</time>
      </trkpt>
      <trkpt lat="42.61861" lon="1.60088">
        <ele>2538.8000488281</ele>
        <time>2023-07-21T10:11:54.000Z</time>
      </trkpt>
      <trkpt lat="42.61863" lon="1.60094">
        <ele>2540</ele>
        <time>2023-07-21T10:11:49.000Z</time>
      </trkpt>
      <trkpt lat="42.61865" lon="1.60097">
        <ele>2540.8000488281</ele>
        <time>2023-07-21T10:11:46.000Z</time>
      </trkpt>
      <trkpt lat="42.61865" lon="1.60098">
        <ele>2541.1999511719</ele>
        <time>2023-07-21T10:11:44.000Z</time>
      </trkpt>
      <trkpt lat="42.61869" lon="1.60103">
        <ele>2542.1999511719</ele>
        <time>2023-07-21T10:11:40.000Z</time>
      </trkpt>
      <trkpt lat="42.6188" lon="1.60113">
        <ele>2544</ele>
        <time>2023-07-21T10:11:30.000Z</time>
      </trkpt>
      <trkpt lat="42.61882" lon="1.60115">
        <ele>2544.8000488281</ele>
        <time>2023-07-21T10:11:28.000Z</time>
      </trkpt>
      <trkpt lat="42.61886" lon="1.60119">
        <ele>2546</ele>
        <time>2023-07-21T10:11:23.000Z</time>
      </trkpt>
      <trkpt lat="42.61889" lon="1.60122">
        <ele>2547</ele>
        <time>2023-07-21T10:11:18.000Z</time>
      </trkpt>
      <trkpt lat="42.61892" lon="1.60125">
        <ele>2547.6000976562</ele>
        <time>2023-07-21T10:11:15.000Z</time>
      </trkpt>
      <trkpt lat="42.61893" lon="1.60126">
        <ele>2548</ele>
        <time>2023-07-21T10:11:14.000Z</time>
      </trkpt>
      <trkpt lat="42.61896" lon="1.60132">
        <ele>2549.3999023438</ele>
        <time>2023-07-21T10:11:10.000Z</time>
      </trkpt>
      <trkpt lat="42.61897" lon="1.60135">
        <ele>2550.3999023438</ele>
        <time>2023-07-21T10:11:07.000Z</time>
      </trkpt>
      <trkpt lat="42.61917" lon="1.6015">
        <ele>2553.8000488281</ele>
        <time>2023-07-21T10:10:48.000Z</time>
      </trkpt>
      <trkpt lat="42.6192" lon="1.60151">
        <ele>2554.8000488281</ele>
        <time>2023-07-21T10:10:43.000Z</time>
      </trkpt>
      <trkpt lat="42.61927" lon="1.60159">
        <ele>2556</ele>
        <time>2023-07-21T10:10:36.000Z</time>
      </trkpt>
      <trkpt lat="42.61928" lon="1.6016">
        <ele>2556.3999023438</ele>
        <time>2023-07-21T10:10:34.000Z</time>
      </trkpt>
      <trkpt lat="42.61933" lon="1.60164">
        <ele>2556.8000488281</ele>
        <time>2023-07-21T10:10:27.000Z</time>
      </trkpt>
      <trkpt lat="42.61933" lon="1.60168">
        <ele>2557.1999511719</ele>
        <time>2023-07-21T10:10:25.000Z</time>
      </trkpt>
      <trkpt lat="42.61932" lon="1.60169">
        <ele>2558.6000976562</ele>
        <time>2023-07-21T10:10:23.000Z</time>
      </trkpt>
      <trkpt lat="42.61931" lon="1.60172">
        <ele>2559.8000488281</ele>
        <time>2023-07-21T10:10:19.000Z</time>
      </trkpt>
      <trkpt lat="42.61931" lon="1.60174">
        <ele>2560</ele>
        <time>2023-07-21T10:10:18.000Z</time>
      </trkpt>
      <trkpt lat="42.6193" lon="1.60177">
        <ele>2561</ele>
        <time>2023-07-21T10:10:13.000Z</time>
      </trkpt>
      <trkpt lat="42.6193" lon="1.60179">
        <ele>2562.1999511719</ele>
        <time>2023-07-21T10:10:11.000Z</time>
      </trkpt>
      <trkpt lat="42.6193" lon="1.6018">
        <ele>2562.1999511719</ele>
        <time>2023-07-21T10:10:10.000Z</time>
      </trkpt>
      <trkpt lat="42.61929" lon="1.60184">
        <ele>2563.3999023438</ele>
        <time>2023-07-21T10:10:05.000Z</time>
      </trkpt>
      <trkpt lat="42.6193" lon="1.60186">
        <ele>2565.1999511719</ele>
        <time>2023-07-21T10:10:03.000Z</time>
      </trkpt>
      <trkpt lat="42.6193" lon="1.60188">
        <ele>2565.8000488281</ele>
        <time>2023-07-21T10:09:57.000Z</time>
      </trkpt>
      <trkpt lat="42.61937" lon="1.60199">
        <ele>2566.3999023438</ele>
        <time>2023-07-21T10:09:49.000Z</time>
      </trkpt>
      <trkpt lat="42.61941" lon="1.60206">
        <ele>2567.3999023438</ele>
        <time>2023-07-21T10:09:44.000Z</time>
      </trkpt>
      <trkpt lat="42.61942" lon="1.60208">
        <ele>2568</ele>
        <time>2023-07-21T10:09:42.000Z</time>
      </trkpt>
      <trkpt lat="42.61943" lon="1.60212">
        <ele>2568.6000976562</ele>
        <time>2023-07-21T10:09:39.000Z</time>
      </trkpt>
      <trkpt lat="42.61942" lon="1.60218">
        <ele>2569.6000976562</ele>
        <time>2023-07-21T10:09:33.000Z</time>
      </trkpt>
      <trkpt lat="42.61941" lon="1.60219">
        <ele>2569.8000488281</ele>
        <time>2023-07-21T10:09:31.000Z</time>
      </trkpt>
      <trkpt lat="42.61942" lon="1.60223">
        <ele>2570.8000488281</ele>
        <time>2023-07-21T10:09:26.000Z</time>
      </trkpt>
      <trkpt lat="42.61942" lon="1.60224">
        <ele>2571</ele>
        <time>2023-07-21T10:09:25.000Z</time>
      </trkpt>
      <trkpt lat="42.61944" lon="1.60231">
        <ele>2572.1999511719</ele>
        <time>2023-07-21T10:09:18.000Z</time>
      </trkpt>
      <trkpt lat="42.61944" lon="1.60233">
        <ele>2572.3999023438</ele>
        <time>2023-07-21T10:09:17.000Z</time>
      </trkpt>
      <trkpt lat="42.61946" lon="1.60239">
        <ele>2573.3999023438</ele>
        <time>2023-07-21T10:09:13.000Z</time>
      </trkpt>
      <trkpt lat="42.61948" lon="1.60245">
        <ele>2573.6000976562</ele>
        <time>2023-07-21T10:09:09.000Z</time>
      </trkpt>
      <trkpt lat="42.61951" lon="1.6025">
        <ele>2574</ele>
        <time>2023-07-21T10:09:03.000Z</time>
      </trkpt>
      <trkpt lat="42.61952" lon="1.60252">
        <ele>2574.3999023438</ele>
        <time>2023-07-21T10:09:01.000Z</time>
      </trkpt>
      <trkpt lat="42.61953" lon="1.60256">
        <ele>2575.6000976562</ele>
        <time>2023-07-21T10:08:54.000Z</time>
      </trkpt>
      <trkpt lat="42.61956" lon="1.60258">
        <ele>2576.6000976562</ele>
        <time>2023-07-21T10:08:48.000Z</time>
      </trkpt>
      <trkpt lat="42.61957" lon="1.6026">
        <ele>2576.8000488281</ele>
        <time>2023-07-21T10:08:47.000Z</time>
      </trkpt>
      <trkpt lat="42.6196" lon="1.60266">
        <ele>2577.8000488281</ele>
        <time>2023-07-21T10:08:42.000Z</time>
      </trkpt>
      <trkpt lat="42.61963" lon="1.6027">
        <ele>2578.3999023438</ele>
        <time>2023-07-21T10:08:38.000Z</time>
      </trkpt>
      <trkpt lat="42.61967" lon="1.60274">
        <ele>2578.8000488281</ele>
        <time>2023-07-21T10:08:34.000Z</time>
      </trkpt>
      <trkpt lat="42.61969" lon="1.60276">
        <ele>2579.8000488281</ele>
        <time>2023-07-21T10:08:29.000Z</time>
      </trkpt>
      <trkpt lat="42.61971" lon="1.60277">
        <ele>2580.3999023438</ele>
        <time>2023-07-21T10:08:27.000Z</time>
      </trkpt>
      <trkpt lat="42.61972" lon="1.60278">
        <ele>2581</ele>
        <time>2023-07-21T10:08:25.000Z</time>
      </trkpt>
      <trkpt lat="42.61979" lon="1.60287">
        <ele>2582.1999511719</ele>
        <time>2023-07-21T10:08:19.000Z</time>
      </trkpt>
      <trkpt lat="42.61982" lon="1.60291">
        <ele>2583.8000488281</ele>
        <time>2023-07-21T10:08:15.000Z</time>
      </trkpt>
      <trkpt lat="42.61984" lon="1.60295">
        <ele>2584.3999023438</ele>
        <time>2023-07-21T10:08:13.000Z</time>
      </trkpt>
      <trkpt lat="42.61985" lon="1.60296">
        <ele>2584.8000488281</ele>
        <time>2023-07-21T10:08:12.000Z</time>
      </trkpt>
      <trkpt lat="42.61988" lon="1.60302">
        <ele>2586</ele>
        <time>2023-07-21T10:08:06.000Z</time>
      </trkpt>
      <trkpt lat="42.62002" lon="1.60316">
        <ele>2589</ele>
        <time>2023-07-21T10:07:49.000Z</time>
      </trkpt>
      <trkpt lat="42.62003" lon="1.60317">
        <ele>2589.3999023438</ele>
        <time>2023-07-21T10:07:48.000Z</time>
      </trkpt>
      <trkpt lat="42.6201" lon="1.60324">
        <ele>2590.3999023438</ele>
        <time>2023-07-21T10:07:42.000Z</time>
      </trkpt>
      <trkpt lat="42.62012" lon="1.60326">
        <ele>2590.6000976562</ele>
        <time>2023-07-21T10:07:40.000Z</time>
      </trkpt>
      <trkpt lat="42.62015" lon="1.60334">
        <ele>2591.3999023438</ele>
        <time>2023-07-21T10:07:33.000Z</time>
      </trkpt>
      <trkpt lat="42.62015" lon="1.60333">
        <ele>2591.6000976562</ele>
        <time>2023-07-21T10:07:32.000Z</time>
      </trkpt>
      <trkpt lat="42.62049" lon="1.60339">
        <ele>2600</ele>
        <time>2023-07-21T10:06:46.000Z</time>
      </trkpt>
      <trkpt lat="42.62051" lon="1.60343">
        <ele>2600.6000976562</ele>
        <time>2023-07-21T10:06:43.000Z</time>
      </trkpt>
      <trkpt lat="42.62053" lon="1.60346">
        <ele>2601.6000976562</ele>
        <time>2023-07-21T10:06:39.000Z</time>
      </trkpt>
      <trkpt lat="42.62053" lon="1.60347">
        <ele>2602.6000976562</ele>
        <time>2023-07-21T10:06:36.000Z</time>
      </trkpt>
      <trkpt lat="42.62054" lon="1.60349">
        <ele>2603.8000488281</ele>
        <time>2023-07-21T10:06:33.000Z</time>
      </trkpt>
      <trkpt lat="42.62054" lon="1.6035">
        <ele>2604.1999511719</ele>
        <time>2023-07-21T10:06:31.000Z</time>
      </trkpt>
      <trkpt lat="42.62053" lon="1.60351">
        <ele>2604.3999023438</ele>
        <time>2023-07-21T10:06:28.000Z</time>
      </trkpt>
      <trkpt lat="42.62052" lon="1.60351">
        <ele>2604.3999023438</ele>
        <time>2023-07-21T10:06:27.000Z</time>
      </trkpt>
      <trkpt lat="42.62051" lon="1.60352">
        <ele>2605</ele>
        <time>2023-07-21T10:06:24.000Z</time>
      </trkpt>
      <trkpt lat="42.62052" lon="1.60357">
        <ele>2605.8000488281</ele>
        <time>2023-07-21T10:06:21.000Z</time>
      </trkpt>
      <trkpt lat="42.62052" lon="1.60363">
        <ele>2606.1999511719</ele>
        <time>2023-07-21T10:06:18.000Z</time>
      </trkpt>
      <trkpt lat="42.62053" lon="1.60367">
        <ele>2607</ele>
        <time>2023-07-21T10:06:16.000Z</time>
      </trkpt>
      <trkpt lat="42.62053" lon="1.60368">
        <ele>2607.6000976562</ele>
        <time>2023-07-21T10:06:15.000Z</time>
      </trkpt>
      <trkpt lat="42.62055" lon="1.60372">
        <ele>2608.8000488281</ele>
        <time>2023-07-21T10:06:11.000Z</time>
      </trkpt>
      <trkpt lat="42.62057" lon="1.60374">
        <ele>2609.3999023438</ele>
        <time>2023-07-21T10:06:06.000Z</time>
      </trkpt>
      <trkpt lat="42.62056" lon="1.60375">
        <ele>2609.8000488281</ele>
        <time>2023-07-21T10:06:01.000Z</time>
      </trkpt>
      <trkpt lat="42.62055" lon="1.60375">
        <ele>2610.6000976562</ele>
        <time>2023-07-21T10:05:58.000Z</time>
      </trkpt>
      <trkpt lat="42.62056" lon="1.60376">
        <ele>2611</ele>
        <time>2023-07-21T10:05:55.000Z</time>
      </trkpt>
      <trkpt lat="42.62058" lon="1.60379">
        <ele>2611.6000976562</ele>
        <time>2023-07-21T10:05:52.000Z</time>
      </trkpt>
      <trkpt lat="42.62059" lon="1.60379">
        <ele>2612</ele>
        <time>2023-07-21T10:05:50.000Z</time>
      </trkpt>
      <trkpt lat="42.62059" lon="1.60379">
        <ele>2612.1999511719</ele>
        <time>2023-07-21T10:05:49.000Z</time>
      </trkpt>
      <trkpt lat="42.62059" lon="1.60381">
        <ele>2613.1999511719</ele>
        <time>2023-07-21T10:05:44.000Z</time>
      </trkpt>
      <trkpt lat="42.62058" lon="1.60384">
        <ele>2613.6000976562</ele>
        <time>2023-07-21T10:05:42.000Z</time>
      </trkpt>
      <trkpt lat="42.62058" lon="1.60388">
        <ele>2615.8000488281</ele>
        <time>2023-07-21T10:05:30.000Z</time>
      </trkpt>
      <trkpt lat="42.6206" lon="1.60389">
        <ele>2616.6000976562</ele>
        <time>2023-07-21T10:05:25.000Z</time>
      </trkpt>
      <trkpt lat="42.62063" lon="1.60392">
        <ele>2617</ele>
        <time>2023-07-21T10:05:21.000Z</time>
      </trkpt>
      <trkpt lat="42.62065" lon="1.60398">
        <ele>2617.8000488281</ele>
        <time>2023-07-21T10:05:12.000Z</time>
      </trkpt>
      <trkpt lat="42.62065" lon="1.60399">
        <ele>2618.1999511719</ele>
        <time>2023-07-21T10:05:11.000Z</time>
      </trkpt>
      <trkpt lat="42.6206" lon="1.60402">
        <ele>2619</ele>
        <time>2023-07-21T10:05:04.000Z</time>
      </trkpt>
      <trkpt lat="42.6206" lon="1.60402">
        <ele>2618.8000488281</ele>
        <time>2023-07-21T10:05:01.000Z</time>
      </trkpt>
      <trkpt lat="42.62063" lon="1.60405">
        <ele>2619.6000976562</ele>
        <time>2023-07-21T10:04:58.000Z</time>
      </trkpt>
      <trkpt lat="42.62063" lon="1.60406">
        <ele>2620.1999511719</ele>
        <time>2023-07-21T10:04:57.000Z</time>
      </trkpt>
      <trkpt lat="42.62065" lon="1.60408">
        <ele>2621.1999511719</ele>
        <time>2023-07-21T10:04:52.000Z</time>
      </trkpt>
      <trkpt lat="42.62064" lon="1.60407">
        <ele>2621.6000976562</ele>
        <time>2023-07-21T10:04:50.000Z</time>
      </trkpt>
      <trkpt lat="42.6208" lon="1.60419">
        <ele>2629.6000976562</ele>
        <time>2023-07-21T10:04:14.000Z</time>
      </trkpt>
      <trkpt lat="42.62081" lon="1.60419">
        <ele>2629.8000488281</ele>
        <time>2023-07-21T10:04:12.000Z</time>
      </trkpt>
      <trkpt lat="42.62081" lon="1.60421">
        <ele>2630.1999511719</ele>
        <time>2023-07-21T10:04:09.000Z</time>
      </trkpt>
      <trkpt lat="42.6208" lon="1.60422">
        <ele>2631</ele>
        <time>2023-07-21T10:04:05.000Z</time>
      </trkpt>
      <trkpt lat="42.62079" lon="1.60424">
        <ele>2631.3999023438</ele>
        <time>2023-07-21T10:04:02.000Z</time>
      </trkpt>
      <trkpt lat="42.62054" lon="1.60436">
        <ele>2636.1999511719</ele>
        <time>2023-07-21T10:03:36.000Z</time>
      </trkpt>
      <trkpt lat="42.62054" lon="1.60435">
        <ele>2636.6000976562</ele>
        <time>2023-07-21T10:03:35.000Z</time>
      </trkpt>
      <trkpt lat="42.62054" lon="1.60434">
        <ele>2637.1999511719</ele>
        <time>2023-07-21T10:03:33.000Z</time>
      </trkpt>
      <trkpt lat="42.62053" lon="1.60436">
        <ele>2637.6000976562</ele>
        <time>2023-07-21T10:03:28.000Z</time>
      </trkpt>
      <trkpt lat="42.62054" lon="1.60441">
        <ele>2638.1999511719</ele>
        <time>2023-07-21T10:03:24.000Z</time>
      </trkpt>
      <trkpt lat="42.62053" lon="1.60446">
        <ele>2639.3999023438</ele>
        <time>2023-07-21T10:03:18.000Z</time>
      </trkpt>
      <trkpt lat="42.62053" lon="1.60447">
        <ele>2639.3999023438</ele>
        <time>2023-07-21T10:03:17.000Z</time>
      </trkpt>
      <trkpt lat="42.62052" lon="1.60449">
        <ele>2640.3999023438</ele>
        <time>2023-07-21T10:03:13.000Z</time>
      </trkpt>
      <trkpt lat="42.62052" lon="1.60449">
        <ele>2640.8000488281</ele>
        <time>2023-07-21T10:03:12.000Z</time>
      </trkpt>
      <trkpt lat="42.62052" lon="1.60453">
        <ele>2641.1999511719</ele>
        <time>2023-07-21T10:03:07.000Z</time>
      </trkpt>
      <trkpt lat="42.6205" lon="1.60458">
        <ele>2641.3999023438</ele>
        <time>2023-07-21T10:03:05.000Z</time>
      </trkpt>
      <trkpt lat="42.6205" lon="1.60458">
        <ele>2641.3999023438</ele>
        <time>2023-07-21T10:03:04.000Z</time>
      </trkpt>
      <trkpt lat="42.6205" lon="1.60458">
        <ele>2641.6000976562</ele>
        <time>2023-07-21T10:03:03.000Z</time>
      </trkpt>
      <trkpt lat="42.62047" lon="1.60456">
        <ele>2642.8000488281</ele>
        <time>2023-07-21T10:02:58.000Z</time>
      </trkpt>
      <trkpt lat="42.62046" lon="1.60456">
        <ele>2643</ele>
        <time>2023-07-21T10:02:57.000Z</time>
      </trkpt>
      <trkpt lat="42.62044" lon="1.60452">
        <ele>2643.8000488281</ele>
        <time>2023-07-21T10:02:52.000Z</time>
      </trkpt>
      <trkpt lat="42.62044" lon="1.60451">
        <ele>2644.6000976562</ele>
        <time>2023-07-21T10:02:51.000Z</time>
      </trkpt>
      <trkpt lat="42.62043" lon="1.60452">
        <ele>2645</ele>
        <time>2023-07-21T10:02:48.000Z</time>
      </trkpt>
      <trkpt lat="42.62044" lon="1.60456">
        <ele>2646.1999511719</ele>
        <time>2023-07-21T10:02:43.000Z</time>
      </trkpt>
      <trkpt lat="42.62045" lon="1.60457">
        <ele>2646.6000976562</ele>
        <time>2023-07-21T10:02:41.000Z</time>
      </trkpt>
      <trkpt lat="42.62047" lon="1.60468">
        <ele>2648.1999511719</ele>
        <time>2023-07-21T10:02:31.000Z</time>
      </trkpt>
      <trkpt lat="42.62046" lon="1.60465">
        <ele>2648.3999023438</ele>
        <time>2023-07-21T10:02:30.000Z</time>
      </trkpt>
      <trkpt lat="42.62045" lon="1.60466">
        <ele>2648.3999023438</ele>
        <time>2023-07-21T10:02:29.000Z</time>
      </trkpt>
      <trkpt lat="42.62046" lon="1.60468">
        <ele>2648.6000976562</ele>
        <time>2023-07-21T10:02:27.000Z</time>
      </trkpt>
      <trkpt lat="42.62048" lon="1.60468">
        <ele>2649</ele>
        <time>2023-07-21T10:02:24.000Z</time>
      </trkpt>
      <trkpt lat="42.62048" lon="1.60468">
        <ele>2649.6000976562</ele>
        <time>2023-07-21T10:02:22.000Z</time>
      </trkpt>
      <trkpt lat="42.62047" lon="1.60468">
        <ele>2650</ele>
        <time>2023-07-21T10:02:18.000Z</time>
      </trkpt>
      <trkpt lat="42.62048" lon="1.6047">
        <ele>2650</ele>
        <time>2023-07-21T10:02:14.000Z</time>
      </trkpt>
      <trkpt lat="42.62048" lon="1.60472">
        <ele>2650.6000976562</ele>
        <time>2023-07-21T10:02:12.000Z</time>
      </trkpt>
      <trkpt lat="42.62047" lon="1.60472">
        <ele>2651.1999511719</ele>
        <time>2023-07-21T10:02:11.000Z</time>
      </trkpt>
      <trkpt lat="42.62045" lon="1.60473">
        <ele>2652.1999511719</ele>
        <time>2023-07-21T10:02:07.000Z</time>
      </trkpt>
      <trkpt lat="42.62046" lon="1.60474">
        <ele>2652.3999023438</ele>
        <time>2023-07-21T10:02:06.000Z</time>
      </trkpt>
      <trkpt lat="42.62049" lon="1.60475">
        <ele>2653.1999511719</ele>
        <time>2023-07-21T10:02:03.000Z</time>
      </trkpt>
      <trkpt lat="42.62051" lon="1.60475">
        <ele>2654</ele>
        <time>2023-07-21T10:01:57.000Z</time>
      </trkpt>
      <trkpt lat="42.62054" lon="1.60481">
        <ele>2654.3999023438</ele>
        <time>2023-07-21T10:01:50.000Z</time>
      </trkpt>
      <trkpt lat="42.62053" lon="1.60483">
        <ele>2655.6000976562</ele>
        <time>2023-07-21T10:01:47.000Z</time>
      </trkpt>
      <trkpt lat="42.62051" lon="1.60487">
        <ele>2656.6000976562</ele>
        <time>2023-07-21T10:01:42.000Z</time>
      </trkpt>
      <trkpt lat="42.6205" lon="1.60487">
        <ele>2657.3999023438</ele>
        <time>2023-07-21T10:01:40.000Z</time>
      </trkpt>
      <trkpt lat="42.6205" lon="1.60487">
        <ele>2657.8000488281</ele>
        <time>2023-07-21T10:01:38.000Z</time>
      </trkpt>
      <trkpt lat="42.62052" lon="1.6049">
        <ele>2659</ele>
        <time>2023-07-21T10:01:31.000Z</time>
      </trkpt>
      <trkpt lat="42.62057" lon="1.60493">
        <ele>2660.1999511719</ele>
        <time>2023-07-21T10:01:24.000Z</time>
      </trkpt>
      <trkpt lat="42.62057" lon="1.60493">
        <ele>2661</ele>
        <time>2023-07-21T10:01:21.000Z</time>
      </trkpt>
      <trkpt lat="42.62058" lon="1.60493">
        <ele>2661.1999511719</ele>
        <time>2023-07-21T10:01:20.000Z</time>
      </trkpt>
      <trkpt lat="42.62061" lon="1.60494">
        <ele>2662.1999511719</ele>
        <time>2023-07-21T10:01:14.000Z</time>
      </trkpt>
      <trkpt lat="42.62062" lon="1.60495">
        <ele>2662.6000976562</ele>
        <time>2023-07-21T10:01:13.000Z</time>
      </trkpt>
      <trkpt lat="42.62065" lon="1.60497">
        <ele>2663.3999023438</ele>
        <time>2023-07-21T10:01:10.000Z</time>
      </trkpt>
      <trkpt lat="42.62067" lon="1.60498">
        <ele>2663.8000488281</ele>
        <time>2023-07-21T10:01:08.000Z</time>
      </trkpt>
      <trkpt lat="42.62067" lon="1.60498">
        <ele>2664</ele>
        <time>2023-07-21T10:01:06.000Z</time>
      </trkpt>
      <trkpt lat="42.62068" lon="1.60498">
        <ele>2664.6000976562</ele>
        <time>2023-07-21T10:01:05.000Z</time>
      </trkpt>
      <trkpt lat="42.62065" lon="1.60502">
        <ele>2665.1999511719</ele>
        <time>2023-07-21T10:00:58.000Z</time>
      </trkpt>
      <trkpt lat="42.62061" lon="1.60505">
        <ele>2665.8000488281</ele>
        <time>2023-07-21T10:00:54.000Z</time>
      </trkpt>
      <trkpt lat="42.62056" lon="1.60506">
        <ele>2667</ele>
        <time>2023-07-21T10:00:50.000Z</time>
      </trkpt>
      <trkpt lat="42.62055" lon="1.60508">
        <ele>2667.1999511719</ele>
        <time>2023-07-21T10:00:48.000Z</time>
      </trkpt>
      <trkpt lat="42.62054" lon="1.60509">
        <ele>2668.1999511719</ele>
        <time>2023-07-21T10:00:45.000Z</time>
      </trkpt>
      <trkpt lat="42.62053" lon="1.60512">
        <ele>2669.1999511719</ele>
        <time>2023-07-21T10:00:41.000Z</time>
      </trkpt>
      <trkpt lat="42.62049" lon="1.60521">
        <ele>2670.6000976562</ele>
        <time>2023-07-21T10:00:27.000Z</time>
      </trkpt>
      <trkpt lat="42.62047" lon="1.60524">
        <ele>2671.8000488281</ele>
        <time>2023-07-21T10:00:20.000Z</time>
      </trkpt>
      <trkpt lat="42.62048" lon="1.60524">
        <ele>2672</ele>
        <time>2023-07-21T10:00:18.000Z</time>
      </trkpt>
      <trkpt lat="42.6205" lon="1.60528">
        <ele>2674.8000488281</ele>
        <time>2023-07-21T10:00:10.000Z</time>
      </trkpt>
      <trkpt lat="42.62053" lon="1.60529">
        <ele>2675</ele>
        <time>2023-07-21T10:00:07.000Z</time>
      </trkpt>
      <trkpt lat="42.62056" lon="1.6053">
        <ele>2675.8000488281</ele>
        <time>2023-07-21T10:00:04.000Z</time>
      </trkpt>
      <trkpt lat="42.62059" lon="1.60529">
        <ele>2676.8000488281</ele>
        <time>2023-07-21T10:00:00.000Z</time>
      </trkpt>
      <trkpt lat="42.6206" lon="1.60529">
        <ele>2677</ele>
        <time>2023-07-21T09:59:58.000Z</time>
      </trkpt>
      <trkpt lat="42.62062" lon="1.60537">
        <ele>2678.1999511719</ele>
        <time>2023-07-21T09:59:53.000Z</time>
      </trkpt>
      <trkpt lat="42.62064" lon="1.60539">
        <ele>2678.3999023438</ele>
        <time>2023-07-21T09:59:50.000Z</time>
      </trkpt>
      <trkpt lat="42.62067" lon="1.60539">
        <ele>2679.1999511719</ele>
        <time>2023-07-21T09:59:45.000Z</time>
      </trkpt>
      <trkpt lat="42.62068" lon="1.60539">
        <ele>2679.3999023438</ele>
        <time>2023-07-21T09:59:43.000Z</time>
      </trkpt>
      <trkpt lat="42.62071" lon="1.60537">
        <ele>2680.6000976562</ele>
        <time>2023-07-21T09:59:37.000Z</time>
      </trkpt>
      <trkpt lat="42.62072" lon="1.60537">
        <ele>2680.8000488281</ele>
        <time>2023-07-21T09:59:36.000Z</time>
      </trkpt>
      <trkpt lat="42.62078" lon="1.60541">
        <ele>2682</ele>
        <time>2023-07-21T09:59:29.000Z</time>
      </trkpt>
      <trkpt lat="42.62079" lon="1.60542">
        <ele>2682</ele>
        <time>2023-07-21T09:59:25.000Z</time>
      </trkpt>
      <trkpt lat="42.6208" lon="1.60542">
        <ele>2681.6000976562</ele>
        <time>2023-07-21T09:59:21.000Z</time>
      </trkpt>
      <trkpt lat="42.62079" lon="1.60542">
        <ele>2681.8000488281</ele>
        <time>2023-07-21T09:59:19.000Z</time>
      </trkpt>
      <trkpt lat="42.62078" lon="1.60543">
        <ele>2683.1999511719</ele>
        <time>2023-07-21T09:59:17.000Z</time>
      </trkpt>
      <trkpt lat="42.62079" lon="1.60546">
        <ele>2685</ele>
        <time>2023-07-21T09:59:14.000Z</time>
      </trkpt>
      <trkpt lat="42.6208" lon="1.60549">
        <ele>2685.1999511719</ele>
        <time>2023-07-21T09:59:12.000Z</time>
      </trkpt>
      <trkpt lat="42.62082" lon="1.6055">
        <ele>2686.1999511719</ele>
        <time>2023-07-21T09:59:07.000Z</time>
      </trkpt>
      <trkpt lat="42.62089" lon="1.60551">
        <ele>2686.3999023438</ele>
        <time>2023-07-21T09:58:59.000Z</time>
      </trkpt>
      <trkpt lat="42.62089" lon="1.60551">
        <ele>2687.3999023438</ele>
        <time>2023-07-21T09:58:58.000Z</time>
      </trkpt>
      <trkpt lat="42.6209" lon="1.60552">
        <ele>2688.1999511719</ele>
        <time>2023-07-21T09:58:56.000Z</time>
      </trkpt>
      <trkpt lat="42.62092" lon="1.60553">
        <ele>2689.3999023438</ele>
        <time>2023-07-21T09:58:53.000Z</time>
      </trkpt>
      <trkpt lat="42.62093" lon="1.60554">
        <ele>2689.6000976562</ele>
        <time>2023-07-21T09:58:50.000Z</time>
      </trkpt>
      <trkpt lat="42.62095" lon="1.60557">
        <ele>2690.3999023438</ele>
        <time>2023-07-21T09:58:44.000Z</time>
      </trkpt>
      <trkpt lat="42.62097" lon="1.60558">
        <ele>2690</ele>
        <time>2023-07-21T09:58:36.000Z</time>
      </trkpt>
      <trkpt lat="42.62095" lon="1.60559">
        <ele>2690.3999023438</ele>
        <time>2023-07-21T09:58:26.000Z</time>
      </trkpt>
      <trkpt lat="42.62094" lon="1.60559">
        <ele>2690.6000976562</ele>
        <time>2023-07-21T09:58:25.000Z</time>
      </trkpt>
      <trkpt lat="42.62095" lon="1.60558">
        <ele>2691.6000976562</ele>
        <time>2023-07-21T09:58:20.000Z</time>
      </trkpt>
      <trkpt lat="42.62096" lon="1.60557">
        <ele>2692.8000488281</ele>
        <time>2023-07-21T09:58:17.000Z</time>
      </trkpt>
      <trkpt lat="42.62096" lon="1.60556">
        <ele>2694</ele>
        <time>2023-07-21T09:58:13.000Z</time>
      </trkpt>
      <trkpt lat="42.62101" lon="1.60559">
        <ele>2693.1999511719</ele>
        <time>2023-07-21T09:58:05.000Z</time>
      </trkpt>
      <trkpt lat="42.62102" lon="1.60557">
        <ele>2693.8000488281</ele>
        <time>2023-07-21T09:58:01.000Z</time>
      </trkpt>
      <trkpt lat="42.62102" lon="1.60556">
        <ele>2694.6000976562</ele>
        <time>2023-07-21T09:57:58.000Z</time>
      </trkpt>
      <trkpt lat="42.62105" lon="1.60556">
        <ele>2695.1999511719</ele>
        <time>2023-07-21T09:57:52.000Z</time>
      </trkpt>
      <trkpt lat="42.62107" lon="1.60556">
        <ele>2696.1999511719</ele>
        <time>2023-07-21T09:57:50.000Z</time>
      </trkpt>
      <trkpt lat="42.62109" lon="1.60556">
        <ele>2696.3999023438</ele>
        <time>2023-07-21T09:57:46.000Z</time>
      </trkpt>
      <trkpt lat="42.6211" lon="1.60554">
        <ele>2697.6000976562</ele>
        <time>2023-07-21T09:57:41.000Z</time>
      </trkpt>
      <trkpt lat="42.6211" lon="1.60552">
        <ele>2697.3999023438</ele>
        <time>2023-07-21T09:57:38.000Z</time>
      </trkpt>
      <trkpt lat="42.6211" lon="1.60557">
        <ele>2697.3999023438</ele>
        <time>2023-07-21T09:57:32.000Z</time>
      </trkpt>
      <trkpt lat="42.62112" lon="1.60564">
        <ele>2698.6000976562</ele>
        <time>2023-07-21T09:57:25.000Z</time>
      </trkpt>
      <trkpt lat="42.62112" lon="1.60568">
        <ele>2699.8000488281</ele>
        <time>2023-07-21T09:57:21.000Z</time>
      </trkpt>
      <trkpt lat="42.62111" lon="1.60572">
        <ele>2700.3999023438</ele>
        <time>2023-07-21T09:57:16.000Z</time>
      </trkpt>
      <trkpt lat="42.62109" lon="1.60576">
        <ele>2700.6000976562</ele>
        <time>2023-07-21T09:57:10.000Z</time>
      </trkpt>
      <trkpt lat="42.62108" lon="1.60578">
        <ele>2700.8000488281</ele>
        <time>2023-07-21T09:57:08.000Z</time>
      </trkpt>
      <trkpt lat="42.62107" lon="1.60582">
        <ele>2702.1999511719</ele>
        <time>2023-07-21T09:57:02.000Z</time>
      </trkpt>
      <trkpt lat="42.62106" lon="1.60586">
        <ele>2702.1999511719</ele>
        <time>2023-07-21T09:56:56.000Z</time>
      </trkpt>
      <trkpt lat="42.62106" lon="1.60586">
        <ele>2702.1999511719</ele>
        <time>2023-07-21T09:56:55.000Z</time>
      </trkpt>
      <trkpt lat="42.62104" lon="1.6059">
        <ele>2702.8000488281</ele>
        <time>2023-07-21T09:56:47.000Z</time>
      </trkpt>
      <trkpt lat="42.62102" lon="1.60589">
        <ele>2703.8000488281</ele>
        <time>2023-07-21T09:56:38.000Z</time>
      </trkpt>
      <trkpt lat="42.62107" lon="1.60593">
        <ele>2702.6000976562</ele>
        <time>2023-07-21T09:56:31.000Z</time>
      </trkpt>
      <trkpt lat="42.62108" lon="1.60593">
        <ele>2703</ele>
        <time>2023-07-21T09:56:25.000Z</time>
      </trkpt>
      <trkpt lat="42.62108" lon="1.60594">
        <ele>2703.1999511719</ele>
        <time>2023-07-21T09:56:24.000Z</time>
      </trkpt>
      <trkpt lat="42.62106" lon="1.60595">
        <ele>2704</ele>
        <time>2023-07-21T09:56:19.000Z</time>
      </trkpt>
      <trkpt lat="42.62105" lon="1.60597">
        <ele>2704.3999023438</ele>
        <time>2023-07-21T09:56:16.000Z</time>
      </trkpt>
      <trkpt lat="42.62103" lon="1.60602">
        <ele>2705.3999023438</ele>
        <time>2023-07-21T09:56:09.000Z</time>
      </trkpt>
      <trkpt lat="42.62103" lon="1.60603">
        <ele>2706</ele>
        <time>2023-07-21T09:56:08.000Z</time>
      </trkpt>
      <trkpt lat="42.62104" lon="1.60605">
        <ele>2706.8000488281</ele>
        <time>2023-07-21T09:56:06.000Z</time>
      </trkpt>
      <trkpt lat="42.62107" lon="1.60611">
        <ele>2707.8000488281</ele>
        <time>2023-07-21T09:55:59.000Z</time>
      </trkpt>
      <trkpt lat="42.62108" lon="1.60614">
        <ele>2707.8000488281</ele>
        <time>2023-07-21T09:55:54.000Z</time>
      </trkpt>
      <trkpt lat="42.62108" lon="1.60615">
        <ele>2708</ele>
        <time>2023-07-21T09:55:48.000Z</time>
      </trkpt>
      <trkpt lat="42.62108" lon="1.60615">
        <ele>2708.1999511719</ele>
        <time>2023-07-21T09:55:47.000Z</time>
      </trkpt>
      <trkpt lat="42.62107" lon="1.60614">
        <ele>2708.3999023438</ele>
        <time>2023-07-21T09:55:36.000Z</time>
      </trkpt>
      <trkpt lat="42.6211" lon="1.60615">
        <ele>2709</ele>
        <time>2023-07-21T09:55:29.000Z</time>
      </trkpt>
      <trkpt lat="42.62109" lon="1.60613">
        <ele>2709</ele>
        <time>2023-07-21T09:55:23.000Z</time>
      </trkpt>
      <trkpt lat="42.62111" lon="1.60618">
        <ele>2709</ele>
        <time>2023-07-21T09:55:15.000Z</time>
      </trkpt>
      <trkpt lat="42.62108" lon="1.60614">
        <ele>2708.8000488281</ele>
        <time>2023-07-21T09:55:10.000Z</time>
      </trkpt>
      <trkpt lat="42.62105" lon="1.60611">
        <ele>2709.1999511719</ele>
        <time>2023-07-21T09:55:03.000Z</time>
      </trkpt>
      <trkpt lat="42.62106" lon="1.60614">
        <ele>2709.3999023438</ele>
        <time>2023-07-21T09:54:56.000Z</time>
      </trkpt>
      <trkpt lat="42.62106" lon="1.60617">
        <ele>2709</ele>
        <time>2023-07-21T09:54:44.000Z</time>
      </trkpt>
      <trkpt lat="42.62106" lon="1.60617">
        <ele>2709</ele>
        <time>2023-07-21T09:54:35.000Z</time>
      </trkpt>
      <trkpt lat="42.62105" lon="1.60618">
        <ele>2707.8000488281</ele>
        <time>2023-07-21T09:54:29.000Z</time>
      </trkpt>
      <trkpt lat="42.62105" lon="1.60619">
        <ele>2707.3999023438</ele>
        <time>2023-07-21T09:54:27.000Z</time>
      </trkpt>
      <trkpt lat="42.62105" lon="1.60624">
        <ele>2706.6000976562</ele>
        <time>2023-07-21T09:54:21.000Z</time>
      </trkpt>
      <trkpt lat="42.62104" lon="1.60626">
        <ele>2706</ele>
        <time>2023-07-21T09:54:19.000Z</time>
      </trkpt>
      <trkpt lat="42.62107" lon="1.6063">
        <ele>2705.6000976562</ele>
        <time>2023-07-21T09:54:12.000Z</time>
      </trkpt>
      <trkpt lat="42.62108" lon="1.60628">
        <ele>2705.6000976562</ele>
        <time>2023-07-21T09:54:06.000Z</time>
      </trkpt>
      <trkpt lat="42.62107" lon="1.6062">
        <ele>2705.6000976562</ele>
        <time>2023-07-21T09:53:59.000Z</time>
      </trkpt>
      <trkpt lat="42.62104" lon="1.60627">
        <ele>2705.8000488281</ele>
        <time>2023-07-21T09:53:52.000Z</time>
      </trkpt>
      <trkpt lat="42.62105" lon="1.60627">
        <ele>2705.8000488281</ele>
        <time>2023-07-21T09:53:46.000Z</time>
      </trkpt>
      <trkpt lat="42.62106" lon="1.60626">
        <ele>2705.1999511719</ele>
        <time>2023-07-21T09:53:42.000Z</time>
      </trkpt>
      <trkpt lat="42.62107" lon="1.60628">
        <ele>2705</ele>
        <time>2023-07-21T09:53:39.000Z</time>
      </trkpt>
      <trkpt lat="42.62108" lon="1.6063">
        <ele>2704.1999511719</ele>
        <time>2023-07-21T09:53:36.000Z</time>
      </trkpt>
      <trkpt lat="42.62105" lon="1.60634">
        <ele>2703.6000976562</ele>
        <time>2023-07-21T09:53:31.000Z</time>
      </trkpt>
      <trkpt lat="42.62107" lon="1.60638">
        <ele>2703</ele>
        <time>2023-07-21T09:53:27.000Z</time>
      </trkpt>
      <trkpt lat="42.62109" lon="1.6064">
        <ele>2702.6000976562</ele>
        <time>2023-07-21T09:53:24.000Z</time>
      </trkpt>
      <trkpt lat="42.6211" lon="1.60642">
        <ele>2702.3999023438</ele>
        <time>2023-07-21T09:53:16.000Z</time>
      </trkpt>
      <trkpt lat="42.6211" lon="1.60643">
        <ele>2702</ele>
        <time>2023-07-21T09:53:14.000Z</time>
      </trkpt>
      <trkpt lat="42.62111" lon="1.60644">
        <ele>2701.1999511719</ele>
        <time>2023-07-21T09:53:08.000Z</time>
      </trkpt>
      <trkpt lat="42.62113" lon="1.6065">
        <ele>2701</ele>
        <time>2023-07-21T09:53:04.000Z</time>
      </trkpt>
      <trkpt lat="42.62113" lon="1.60651">
        <ele>2700.6000976562</ele>
        <time>2023-07-21T09:53:01.000Z</time>
      </trkpt>
      <trkpt lat="42.62116" lon="1.60656">
        <ele>2700</ele>
        <time>2023-07-21T09:52:53.000Z</time>
      </trkpt>
      <trkpt lat="42.62116" lon="1.60657">
        <ele>2700</ele>
        <time>2023-07-21T09:52:52.000Z</time>
      </trkpt>
      <trkpt lat="42.62121" lon="1.60659">
        <ele>2698.8000488281</ele>
        <time>2023-07-21T09:52:43.000Z</time>
      </trkpt>
      <trkpt lat="42.62126" lon="1.60661">
        <ele>2697.8000488281</ele>
        <time>2023-07-21T09:52:37.000Z</time>
      </trkpt>
      <trkpt lat="42.62125" lon="1.60663">
        <ele>2696.8000488281</ele>
        <time>2023-07-21T09:52:31.000Z</time>
      </trkpt>
      <trkpt lat="42.62125" lon="1.60663">
        <ele>2696.6000976562</ele>
        <time>2023-07-21T09:52:30.000Z</time>
      </trkpt>
      <trkpt lat="42.62123" lon="1.60665">
        <ele>2695.6000976562</ele>
        <time>2023-07-21T09:52:24.000Z</time>
      </trkpt>
      <trkpt lat="42.62123" lon="1.60666">
        <ele>2695.3999023438</ele>
        <time>2023-07-21T09:52:22.000Z</time>
      </trkpt>
      <trkpt lat="42.62121" lon="1.60667">
        <ele>2694.3999023438</ele>
        <time>2023-07-21T09:52:17.000Z</time>
      </trkpt>
      <trkpt lat="42.6212" lon="1.60667">
        <ele>2694.3999023438</ele>
        <time>2023-07-21T09:52:15.000Z</time>
      </trkpt>
      <trkpt lat="42.62121" lon="1.60669">
        <ele>2693.1999511719</ele>
        <time>2023-07-21T09:52:08.000Z</time>
      </trkpt>
      <trkpt lat="42.62121" lon="1.60669">
        <ele>2693</ele>
        <time>2023-07-21T09:52:07.000Z</time>
      </trkpt>
      <trkpt lat="42.62121" lon="1.6067">
        <ele>2692</ele>
        <time>2023-07-21T09:52:02.000Z</time>
      </trkpt>
      <trkpt lat="42.62121" lon="1.6067">
        <ele>2691.6000976562</ele>
        <time>2023-07-21T09:52:00.000Z</time>
      </trkpt>
      <trkpt lat="42.62123" lon="1.60669">
        <ele>2691.6000976562</ele>
        <time>2023-07-21T09:51:53.000Z</time>
      </trkpt>
      <trkpt lat="42.62124" lon="1.6067">
        <ele>2691</ele>
        <time>2023-07-21T09:51:47.000Z</time>
      </trkpt>
      <trkpt lat="42.62124" lon="1.60671">
        <ele>2690.8000488281</ele>
        <time>2023-07-21T09:51:46.000Z</time>
      </trkpt>
      <trkpt lat="42.62127" lon="1.60676">
        <ele>2690</ele>
        <time>2023-07-21T09:51:38.000Z</time>
      </trkpt>
      <trkpt lat="42.62128" lon="1.60675">
        <ele>2689.8000488281</ele>
        <time>2023-07-21T09:51:36.000Z</time>
      </trkpt>
      <trkpt lat="42.62129" lon="1.60677">
        <ele>2689.1999511719</ele>
        <time>2023-07-21T09:51:31.000Z</time>
      </trkpt>
      <trkpt lat="42.62129" lon="1.60681">
        <ele>2688.6000976562</ele>
        <time>2023-07-21T09:51:27.000Z</time>
      </trkpt>
      <trkpt lat="42.62128" lon="1.60685">
        <ele>2687.8000488281</ele>
        <time>2023-07-21T09:51:20.000Z</time>
      </trkpt>
      <trkpt lat="42.62128" lon="1.60686">
        <ele>2687.6000976562</ele>
        <time>2023-07-21T09:51:18.000Z</time>
      </trkpt>
      <trkpt lat="42.62127" lon="1.60688">
        <ele>2686.3999023438</ele>
        <time>2023-07-21T09:51:13.000Z</time>
      </trkpt>
      <trkpt lat="42.62129" lon="1.60693">
        <ele>2685.3999023438</ele>
        <time>2023-07-21T09:51:05.000Z</time>
      </trkpt>
      <trkpt lat="42.6213" lon="1.60692">
        <ele>2685.3999023438</ele>
        <time>2023-07-21T09:51:03.000Z</time>
      </trkpt>
      <trkpt lat="42.62133" lon="1.60695">
        <ele>2684.6000976562</ele>
        <time>2023-07-21T09:50:57.000Z</time>
      </trkpt>
      <trkpt lat="42.62135" lon="1.60695">
        <ele>2684.1999511719</ele>
        <time>2023-07-21T09:50:53.000Z</time>
      </trkpt>
      <trkpt lat="42.62136" lon="1.60696">
        <ele>2683.1999511719</ele>
        <time>2023-07-21T09:50:48.000Z</time>
      </trkpt>
      <trkpt lat="42.62136" lon="1.60698">
        <ele>2682.1999511719</ele>
        <time>2023-07-21T09:50:42.000Z</time>
      </trkpt>
      <trkpt lat="42.62135" lon="1.60699">
        <ele>2682</ele>
        <time>2023-07-21T09:50:41.000Z</time>
      </trkpt>
      <trkpt lat="42.62137" lon="1.60704">
        <ele>2681</ele>
        <time>2023-07-21T09:50:35.000Z</time>
      </trkpt>
      <trkpt lat="42.62138" lon="1.60705">
        <ele>2681</ele>
        <time>2023-07-21T09:50:34.000Z</time>
      </trkpt>
      <trkpt lat="42.6214" lon="1.60706">
        <ele>2680.1999511719</ele>
        <time>2023-07-21T09:50:29.000Z</time>
      </trkpt>
      <trkpt lat="42.62144" lon="1.60708">
        <ele>2679.8000488281</ele>
        <time>2023-07-21T09:50:21.000Z</time>
      </trkpt>
      <trkpt lat="42.62146" lon="1.60713">
        <ele>2678.6000976562</ele>
        <time>2023-07-21T09:50:14.000Z</time>
      </trkpt>
      <trkpt lat="42.62146" lon="1.60715">
        <ele>2678</ele>
        <time>2023-07-21T09:50:11.000Z</time>
      </trkpt>
      <trkpt lat="42.62146" lon="1.60716">
        <ele>2677.6000976562</ele>
        <time>2023-07-21T09:50:08.000Z</time>
      </trkpt>
      <trkpt lat="42.62146" lon="1.60718">
        <ele>2677</ele>
        <time>2023-07-21T09:50:04.000Z</time>
      </trkpt>
      <trkpt lat="42.62146" lon="1.60719">
        <ele>2676.3999023438</ele>
        <time>2023-07-21T09:50:01.000Z</time>
      </trkpt>
      <trkpt lat="42.62147" lon="1.60724">
        <ele>2675.3999023438</ele>
        <time>2023-07-21T09:49:57.000Z</time>
      </trkpt>
      <trkpt lat="42.62151" lon="1.6073">
        <ele>2675</ele>
        <time>2023-07-21T09:49:50.000Z</time>
      </trkpt>
      <trkpt lat="42.6215" lon="1.60729">
        <ele>2675.3999023438</ele>
        <time>2023-07-21T09:49:43.000Z</time>
      </trkpt>
      <trkpt lat="42.6215" lon="1.60728">
        <ele>2675.3999023438</ele>
        <time>2023-07-21T09:49:40.000Z</time>
      </trkpt>
      <trkpt lat="42.62151" lon="1.60728">
        <ele>2675.3999023438</ele>
        <time>2023-07-21T09:49:37.000Z</time>
      </trkpt>
      <trkpt lat="42.62151" lon="1.60728">
        <ele>2676.1999511719</ele>
        <time>2023-07-21T09:49:30.000Z</time>
      </trkpt>
      <trkpt lat="42.62147" lon="1.60731">
        <ele>2676.6000976562</ele>
        <time>2023-07-21T09:49:22.000Z</time>
      </trkpt>
      <trkpt lat="42.62145" lon="1.60726">
        <ele>2676.6000976562</ele>
        <time>2023-07-21T09:49:16.000Z</time>
      </trkpt>
      <trkpt lat="42.62142" lon="1.60731">
        <ele>2676.3999023438</ele>
        <time>2023-07-21T09:49:00.000Z</time>
      </trkpt>
      <trkpt lat="42.62144" lon="1.60731">
        <ele>2676.3999023438</ele>
        <time>2023-07-21T09:48:58.000Z</time>
      </trkpt>
      <trkpt lat="42.62147" lon="1.6073">
        <ele>2675.8000488281</ele>
        <time>2023-07-21T09:48:53.000Z</time>
      </trkpt>
      <trkpt lat="42.62149" lon="1.60731">
        <ele>2675.1999511719</ele>
        <time>2023-07-21T09:48:50.000Z</time>
      </trkpt>
      <trkpt lat="42.6215" lon="1.60732">
        <ele>2674.6000976562</ele>
        <time>2023-07-21T09:48:46.000Z</time>
      </trkpt>
      <trkpt lat="42.6215" lon="1.60732">
        <ele>2674.1999511719</ele>
        <time>2023-07-21T09:48:42.000Z</time>
      </trkpt>
      <trkpt lat="42.6215" lon="1.60734">
        <ele>2673.8000488281</ele>
        <time>2023-07-21T09:48:38.000Z</time>
      </trkpt>
      <trkpt lat="42.6215" lon="1.60737">
        <ele>2673.1999511719</ele>
        <time>2023-07-21T09:48:34.000Z</time>
      </trkpt>
      <trkpt lat="42.62151" lon="1.6074">
        <ele>2672.3999023438</ele>
        <time>2023-07-21T09:48:28.000Z</time>
      </trkpt>
      <trkpt lat="42.62152" lon="1.60743">
        <ele>2672.1999511719</ele>
        <time>2023-07-21T09:48:25.000Z</time>
      </trkpt>
      <trkpt lat="42.62153" lon="1.60743">
        <ele>2672</ele>
        <time>2023-07-21T09:48:21.000Z</time>
      </trkpt>
      <trkpt lat="42.62152" lon="1.60747">
        <ele>2671</ele>
        <time>2023-07-21T09:48:14.000Z</time>
      </trkpt>
      <trkpt lat="42.62154" lon="1.60751">
        <ele>2670</ele>
        <time>2023-07-21T09:48:07.000Z</time>
      </trkpt>
      <trkpt lat="42.62155" lon="1.6075">
        <ele>2669.8000488281</ele>
        <time>2023-07-21T09:48:02.000Z</time>
      </trkpt>
      <trkpt lat="42.62155" lon="1.60749">
        <ele>2669.3999023438</ele>
        <time>2023-07-21T09:47:59.000Z</time>
      </trkpt>
      <trkpt lat="42.62154" lon="1.60754">
        <ele>2668.8000488281</ele>
        <time>2023-07-21T09:47:53.000Z</time>
      </trkpt>
      <trkpt lat="42.62154" lon="1.60754">
        <ele>2668.6000976562</ele>
        <time>2023-07-21T09:47:51.000Z</time>
      </trkpt>
      <trkpt lat="42.62154" lon="1.60758">
        <ele>2667.8000488281</ele>
        <time>2023-07-21T09:47:45.000Z</time>
      </trkpt>
      <trkpt lat="42.62154" lon="1.60759">
        <ele>2667.3999023438</ele>
        <time>2023-07-21T09:47:42.000Z</time>
      </trkpt>
      <trkpt lat="42.62153" lon="1.60762">
        <ele>2666.6000976562</ele>
        <time>2023-07-21T09:47:36.000Z</time>
      </trkpt>
      <trkpt lat="42.62153" lon="1.60764">
        <ele>2666.1999511719</ele>
        <time>2023-07-21T09:47:32.000Z</time>
      </trkpt>
      <trkpt lat="42.62153" lon="1.60764">
        <ele>2665.6000976562</ele>
        <time>2023-07-21T09:47:30.000Z</time>
      </trkpt>
      <trkpt lat="42.62154" lon="1.60765">
        <ele>2665.3999023438</ele>
        <time>2023-07-21T09:47:25.000Z</time>
      </trkpt>
      <trkpt lat="42.62153" lon="1.60768">
        <ele>2664.6000976562</ele>
        <time>2023-07-21T09:47:20.000Z</time>
      </trkpt>
      <trkpt lat="42.62153" lon="1.60768">
        <ele>2664.3999023438</ele>
        <time>2023-07-21T09:47:18.000Z</time>
      </trkpt>
      <trkpt lat="42.62152" lon="1.60771">
        <ele>2663.6000976562</ele>
        <time>2023-07-21T09:47:11.000Z</time>
      </trkpt>
      <trkpt lat="42.62152" lon="1.60771">
        <ele>2663.3999023438</ele>
        <time>2023-07-21T09:47:10.000Z</time>
      </trkpt>
      <trkpt lat="42.6215" lon="1.60775">
        <ele>2662.3999023438</ele>
        <time>2023-07-21T09:47:01.000Z</time>
      </trkpt>
      <trkpt lat="42.6215" lon="1.60775">
        <ele>2662.1999511719</ele>
        <time>2023-07-21T09:47:00.000Z</time>
      </trkpt>
      <trkpt lat="42.62149" lon="1.60781">
        <ele>2661.3999023438</ele>
        <time>2023-07-21T09:46:53.000Z</time>
      </trkpt>
      <trkpt lat="42.62149" lon="1.60781">
        <ele>2661.1999511719</ele>
        <time>2023-07-21T09:46:52.000Z</time>
      </trkpt>
      <trkpt lat="42.62148" lon="1.60785">
        <ele>2660.1999511719</ele>
        <time>2023-07-21T09:46:45.000Z</time>
      </trkpt>
      <trkpt lat="42.62148" lon="1.60786">
        <ele>2660</ele>
        <time>2023-07-21T09:46:44.000Z</time>
      </trkpt>
      <trkpt lat="42.62147" lon="1.60791">
        <ele>2659.6000976562</ele>
        <time>2023-07-21T09:46:37.000Z</time>
      </trkpt>
      <trkpt lat="42.62145" lon="1.60791">
        <ele>2659.1999511719</ele>
        <time>2023-07-21T09:46:33.000Z</time>
      </trkpt>
      <trkpt lat="42.62142" lon="1.60792">
        <ele>2658.3999023438</ele>
        <time>2023-07-21T09:46:27.000Z</time>
      </trkpt>
      <trkpt lat="42.6214" lon="1.60798">
        <ele>2658</ele>
        <time>2023-07-21T09:46:20.000Z</time>
      </trkpt>
      <trkpt lat="42.6214" lon="1.60802">
        <ele>2656.8000488281</ele>
        <time>2023-07-21T09:46:14.000Z</time>
      </trkpt>
      <trkpt lat="42.6214" lon="1.60805">
        <ele>2656.3999023438</ele>
        <time>2023-07-21T09:46:11.000Z</time>
      </trkpt>
      <trkpt lat="42.6214" lon="1.60807">
        <ele>2655.6000976562</ele>
        <time>2023-07-21T09:46:07.000Z</time>
      </trkpt>
      <trkpt lat="42.6214" lon="1.60812">
        <ele>2655.3999023438</ele>
        <time>2023-07-21T09:46:03.000Z</time>
      </trkpt>
      <trkpt lat="42.6214" lon="1.60819">
        <ele>2654.8000488281</ele>
        <time>2023-07-21T09:45:56.000Z</time>
      </trkpt>
      <trkpt lat="42.6214" lon="1.60819">
        <ele>2654.6000976562</ele>
        <time>2023-07-21T09:45:55.000Z</time>
      </trkpt>
      <trkpt lat="42.6214" lon="1.60823">
        <ele>2653.8000488281</ele>
        <time>2023-07-21T09:45:50.000Z</time>
      </trkpt>
      <trkpt lat="42.6214" lon="1.60824">
        <ele>2653.3999023438</ele>
        <time>2023-07-21T09:45:49.000Z</time>
      </trkpt>
      <trkpt lat="42.62139" lon="1.60831">
        <ele>2652.6000976562</ele>
        <time>2023-07-21T09:45:41.000Z</time>
      </trkpt>
      <trkpt lat="42.62139" lon="1.60833">
        <ele>2652.3999023438</ele>
        <time>2023-07-21T09:45:39.000Z</time>
      </trkpt>
      <trkpt lat="42.6214" lon="1.6084">
        <ele>2652</ele>
        <time>2023-07-21T09:45:34.000Z</time>
      </trkpt>
      <trkpt lat="42.6214" lon="1.60848">
        <ele>2652</ele>
        <time>2023-07-21T09:45:28.000Z</time>
      </trkpt>
      <trkpt lat="42.6214" lon="1.60843">
        <ele>2652.1999511719</ele>
        <time>2023-07-21T09:45:20.000Z</time>
      </trkpt>
      <trkpt lat="42.6214" lon="1.60844">
        <ele>2652</ele>
        <time>2023-07-21T09:45:10.000Z</time>
      </trkpt>
      <trkpt lat="42.62141" lon="1.60843">
        <ele>2651.3999023438</ele>
        <time>2023-07-21T09:45:03.000Z</time>
      </trkpt>
      <trkpt lat="42.62141" lon="1.60844">
        <ele>2651.3999023438</ele>
        <time>2023-07-21T09:45:01.000Z</time>
      </trkpt>
      <trkpt lat="42.6214" lon="1.60851">
        <ele>2650.3999023438</ele>
        <time>2023-07-21T09:44:54.000Z</time>
      </trkpt>
      <trkpt lat="42.6214" lon="1.60855">
        <ele>2650</ele>
        <time>2023-07-21T09:44:48.000Z</time>
      </trkpt>
      <trkpt lat="42.62138" lon="1.60855">
        <ele>2649.8000488281</ele>
        <time>2023-07-21T09:44:39.000Z</time>
      </trkpt>
      <trkpt lat="42.62137" lon="1.60854">
        <ele>2649.8000488281</ele>
        <time>2023-07-21T09:44:32.000Z</time>
      </trkpt>
      <trkpt lat="42.62138" lon="1.60853">
        <ele>2650.1999511719</ele>
        <time>2023-07-21T09:44:24.000Z</time>
      </trkpt>
      <trkpt lat="42.62139" lon="1.60858">
        <ele>2650</ele>
        <time>2023-07-21T09:44:16.000Z</time>
      </trkpt>
      <trkpt lat="42.62138" lon="1.60857">
        <ele>2650.1999511719</ele>
        <time>2023-07-21T09:44:07.000Z</time>
      </trkpt>
      <trkpt lat="42.62138" lon="1.60853">
        <ele>2650.6000976562</ele>
        <time>2023-07-21T09:44:01.000Z</time>
      </trkpt>
      <trkpt lat="42.62137" lon="1.60857">
        <ele>2650.6000976562</ele>
        <time>2023-07-21T09:43:54.000Z</time>
      </trkpt>
      <trkpt lat="42.62137" lon="1.60858">
        <ele>2650.1999511719</ele>
        <time>2023-07-21T09:43:50.000Z</time>
      </trkpt>
      <trkpt lat="42.62135" lon="1.60861">
        <ele>2649.6000976562</ele>
        <time>2023-07-21T09:43:46.000Z</time>
      </trkpt>
      <trkpt lat="42.62134" lon="1.60863">
        <ele>2649.1999511719</ele>
        <time>2023-07-21T09:43:43.000Z</time>
      </trkpt>
      <trkpt lat="42.62131" lon="1.60863">
        <ele>2648.3999023438</ele>
        <time>2023-07-21T09:43:39.000Z</time>
      </trkpt>
      <trkpt lat="42.6213" lon="1.60862">
        <ele>2648</ele>
        <time>2023-07-21T09:43:37.000Z</time>
      </trkpt>
      <trkpt lat="42.62128" lon="1.60861">
        <ele>2647.3999023438</ele>
        <time>2023-07-21T09:43:33.000Z</time>
      </trkpt>
      <trkpt lat="42.62127" lon="1.60861">
        <ele>2647</ele>
        <time>2023-07-21T09:43:31.000Z</time>
      </trkpt>
      <trkpt lat="42.62124" lon="1.60862">
        <ele>2646</ele>
        <time>2023-07-21T09:43:25.000Z</time>
      </trkpt>
      <trkpt lat="42.62122" lon="1.60862">
        <ele>2645.8000488281</ele>
        <time>2023-07-21T09:43:23.000Z</time>
      </trkpt>
      <trkpt lat="42.62118" lon="1.60863">
        <ele>2644.6000976562</ele>
        <time>2023-07-21T09:43:17.000Z</time>
      </trkpt>
      <trkpt lat="42.62116" lon="1.60862">
        <ele>2643.3999023438</ele>
        <time>2023-07-21T09:43:11.000Z</time>
      </trkpt>
      <trkpt lat="42.62114" lon="1.60863">
        <ele>2643</ele>
        <time>2023-07-21T09:43:09.000Z</time>
      </trkpt>
      <trkpt lat="42.62112" lon="1.60865">
        <ele>2642.1999511719</ele>
        <time>2023-07-21T09:43:05.000Z</time>
      </trkpt>
      <trkpt lat="42.62107" lon="1.60866">
        <ele>2641.1999511719</ele>
        <time>2023-07-21T09:42:59.000Z</time>
      </trkpt>
      <trkpt lat="42.62107" lon="1.60866">
        <ele>2641</ele>
        <time>2023-07-21T09:42:58.000Z</time>
      </trkpt>
      <trkpt lat="42.62106" lon="1.60867">
        <ele>2640.1999511719</ele>
        <time>2023-07-21T09:42:53.000Z</time>
      </trkpt>
      <trkpt lat="42.62105" lon="1.60867">
        <ele>2639.6000976562</ele>
        <time>2023-07-21T09:42:49.000Z</time>
      </trkpt>
      <trkpt lat="42.62104" lon="1.60867">
        <ele>2639.1999511719</ele>
        <time>2023-07-21T09:42:47.000Z</time>
      </trkpt>
      <trkpt lat="42.62101" lon="1.60865">
        <ele>2638.3999023438</ele>
        <time>2023-07-21T09:42:43.000Z</time>
      </trkpt>
      <trkpt lat="42.621" lon="1.60865">
        <ele>2638</ele>
        <time>2023-07-21T09:42:41.000Z</time>
      </trkpt>
      <trkpt lat="42.62094" lon="1.60863">
        <ele>2637</ele>
        <time>2023-07-21T09:42:34.000Z</time>
      </trkpt>
      <trkpt lat="42.62088" lon="1.60863">
        <ele>2636.3999023438</ele>
        <time>2023-07-21T09:42:26.000Z</time>
      </trkpt>
      <trkpt lat="42.62087" lon="1.60863">
        <ele>2636.1999511719</ele>
        <time>2023-07-21T09:42:19.000Z</time>
      </trkpt>
      <trkpt lat="42.62087" lon="1.60864">
        <ele>2636</ele>
        <time>2023-07-21T09:42:18.000Z</time>
      </trkpt>
      <trkpt lat="42.62086" lon="1.60863">
        <ele>2635</ele>
        <time>2023-07-21T09:42:12.000Z</time>
      </trkpt>
      <trkpt lat="42.62086" lon="1.60863">
        <ele>2634.8000488281</ele>
        <time>2023-07-21T09:42:11.000Z</time>
      </trkpt>
      <trkpt lat="42.62083" lon="1.60865">
        <ele>2634</ele>
        <time>2023-07-21T09:42:05.000Z</time>
      </trkpt>
      <trkpt lat="42.62083" lon="1.60865">
        <ele>2633.8000488281</ele>
        <time>2023-07-21T09:42:04.000Z</time>
      </trkpt>
      <trkpt lat="42.62081" lon="1.60867">
        <ele>2632.8000488281</ele>
        <time>2023-07-21T09:41:56.000Z</time>
      </trkpt>
      <trkpt lat="42.62079" lon="1.60867">
        <ele>2632.6000976562</ele>
        <time>2023-07-21T09:41:55.000Z</time>
      </trkpt>
      <trkpt lat="42.62073" lon="1.60869">
        <ele>2631.6000976562</ele>
        <time>2023-07-21T09:41:48.000Z</time>
      </trkpt>
      <trkpt lat="42.62072" lon="1.60868">
        <ele>2631.1999511719</ele>
        <time>2023-07-21T09:41:46.000Z</time>
      </trkpt>
      <trkpt lat="42.62069" lon="1.60867">
        <ele>2630.3999023438</ele>
        <time>2023-07-21T09:41:41.000Z</time>
      </trkpt>
      <trkpt lat="42.62067" lon="1.60867">
        <ele>2629.8000488281</ele>
        <time>2023-07-21T09:41:37.000Z</time>
      </trkpt>
      <trkpt lat="42.62066" lon="1.60868">
        <ele>2629.3999023438</ele>
        <time>2023-07-21T09:41:35.000Z</time>
      </trkpt>
      <trkpt lat="42.62063" lon="1.60868">
        <ele>2629</ele>
        <time>2023-07-21T09:41:30.000Z</time>
      </trkpt>
      <trkpt lat="42.62059" lon="1.6087">
        <ele>2628.3999023438</ele>
        <time>2023-07-21T09:41:23.000Z</time>
      </trkpt>
      <trkpt lat="42.62054" lon="1.60874">
        <ele>2627.3999023438</ele>
        <time>2023-07-21T09:41:15.000Z</time>
      </trkpt>
      <trkpt lat="42.62053" lon="1.60874">
        <ele>2626.1999511719</ele>
        <time>2023-07-21T09:41:10.000Z</time>
      </trkpt>
      <trkpt lat="42.62053" lon="1.60874">
        <ele>2625.6000976562</ele>
        <time>2023-07-21T09:41:07.000Z</time>
      </trkpt>
      <trkpt lat="42.62052" lon="1.60874">
        <ele>2625.1999511719</ele>
        <time>2023-07-21T09:41:04.000Z</time>
      </trkpt>
      <trkpt lat="42.62049" lon="1.60876">
        <ele>2624.3999023438</ele>
        <time>2023-07-21T09:41:01.000Z</time>
      </trkpt>
      <trkpt lat="42.62047" lon="1.60877">
        <ele>2624</ele>
        <time>2023-07-21T09:40:59.000Z</time>
      </trkpt>
      <trkpt lat="42.62042" lon="1.60881">
        <ele>2623.1999511719</ele>
        <time>2023-07-21T09:40:54.000Z</time>
      </trkpt>
      <trkpt lat="42.62041" lon="1.60881">
        <ele>2622.8000488281</ele>
        <time>2023-07-21T09:40:52.000Z</time>
      </trkpt>
      <trkpt lat="42.6204" lon="1.60879">
        <ele>2622.1999511719</ele>
        <time>2023-07-21T09:40:41.000Z</time>
      </trkpt>
      <trkpt lat="42.62037" lon="1.6088">
        <ele>2622</ele>
        <time>2023-07-21T09:40:25.000Z</time>
      </trkpt>
      <trkpt lat="42.62041" lon="1.6088">
        <ele>2621.8000488281</ele>
        <time>2023-07-21T09:40:13.000Z</time>
      </trkpt>
      <trkpt lat="42.62039" lon="1.60879">
        <ele>2621.8000488281</ele>
        <time>2023-07-21T09:40:04.000Z</time>
      </trkpt>
      <trkpt lat="42.62039" lon="1.60879">
        <ele>2621.8000488281</ele>
        <time>2023-07-21T09:40:03.000Z</time>
      </trkpt>
      <trkpt lat="42.62039" lon="1.60879">
        <ele>2620.6000976562</ele>
        <time>2023-07-21T09:39:58.000Z</time>
      </trkpt>
      <trkpt lat="42.62038" lon="1.60879">
        <ele>2620.1999511719</ele>
        <time>2023-07-21T09:39:56.000Z</time>
      </trkpt>
      <trkpt lat="42.62036" lon="1.6088">
        <ele>2619.3999023438</ele>
        <time>2023-07-21T09:39:52.000Z</time>
      </trkpt>
      <trkpt lat="42.62036" lon="1.60882">
        <ele>2618.8000488281</ele>
        <time>2023-07-21T09:39:48.000Z</time>
      </trkpt>
      <trkpt lat="42.62034" lon="1.60881">
        <ele>2618.3999023438</ele>
        <time>2023-07-21T09:39:45.000Z</time>
      </trkpt>
      <trkpt lat="42.62031" lon="1.6088">
        <ele>2617.3999023438</ele>
        <time>2023-07-21T09:39:40.000Z</time>
      </trkpt>
      <trkpt lat="42.6203" lon="1.6088">
        <ele>2617</ele>
        <time>2023-07-21T09:39:38.000Z</time>
      </trkpt>
      <trkpt lat="42.62025" lon="1.6088">
        <ele>2616.3999023438</ele>
        <time>2023-07-21T09:39:32.000Z</time>
      </trkpt>
      <trkpt lat="42.62024" lon="1.6088">
        <ele>2616.1999511719</ele>
        <time>2023-07-21T09:39:31.000Z</time>
      </trkpt>
      <trkpt lat="42.6202" lon="1.60879">
        <ele>2615</ele>
        <time>2023-07-21T09:39:22.000Z</time>
      </trkpt>
      <trkpt lat="42.62015" lon="1.60878">
        <ele>2614.1999511719</ele>
        <time>2023-07-21T09:39:13.000Z</time>
      </trkpt>
      <trkpt lat="42.62013" lon="1.60878">
        <ele>2614</ele>
        <time>2023-07-21T09:39:09.000Z</time>
      </trkpt>
      <trkpt lat="42.62012" lon="1.60875">
        <ele>2613.6000976562</ele>
        <time>2023-07-21T09:39:05.000Z</time>
      </trkpt>
      <trkpt lat="42.6201" lon="1.60873">
        <ele>2613</ele>
        <time>2023-07-21T09:39:01.000Z</time>
      </trkpt>
      <trkpt lat="42.62006" lon="1.60866">
        <ele>2612</ele>
        <time>2023-07-21T09:38:54.000Z</time>
      </trkpt>
      <trkpt lat="42.62005" lon="1.60861">
        <ele>2611.1999511719</ele>
        <time>2023-07-21T09:38:48.000Z</time>
      </trkpt>
      <trkpt lat="42.62004" lon="1.60857">
        <ele>2610.8000488281</ele>
        <time>2023-07-21T09:38:44.000Z</time>
      </trkpt>
      <trkpt lat="42.62004" lon="1.60853">
        <ele>2610.1999511719</ele>
        <time>2023-07-21T09:38:38.000Z</time>
      </trkpt>
      <trkpt lat="42.62003" lon="1.60851">
        <ele>2609.8000488281</ele>
        <time>2023-07-21T09:38:35.000Z</time>
      </trkpt>
      <trkpt lat="42.62" lon="1.60848">
        <ele>2609.1999511719</ele>
        <time>2023-07-21T09:38:31.000Z</time>
      </trkpt>
      <trkpt lat="42.61999" lon="1.60847">
        <ele>2608.8000488281</ele>
        <time>2023-07-21T09:38:28.000Z</time>
      </trkpt>
      <trkpt lat="42.61997" lon="1.60843">
        <ele>2607.8000488281</ele>
        <time>2023-07-21T09:38:21.000Z</time>
      </trkpt>
      <trkpt lat="42.61997" lon="1.60843">
        <ele>2607.6000976562</ele>
        <time>2023-07-21T09:38:20.000Z</time>
      </trkpt>
      <trkpt lat="42.61994" lon="1.6084">
        <ele>2606</ele>
        <time>2023-07-21T09:38:07.000Z</time>
      </trkpt>
      <trkpt lat="42.61993" lon="1.60838">
        <ele>2605.6000976562</ele>
        <time>2023-07-21T09:38:04.000Z</time>
      </trkpt>
      <trkpt lat="42.61992" lon="1.60836">
        <ele>2605</ele>
        <time>2023-07-21T09:38:00.000Z</time>
      </trkpt>
      <trkpt lat="42.61988" lon="1.60833">
        <ele>2603.3999023438</ele>
        <time>2023-07-21T09:37:50.000Z</time>
      </trkpt>
      <trkpt lat="42.61988" lon="1.60832">
        <ele>2602.8000488281</ele>
        <time>2023-07-21T09:37:46.000Z</time>
      </trkpt>
      <trkpt lat="42.61987" lon="1.6083">
        <ele>2602.1999511719</ele>
        <time>2023-07-21T09:37:41.000Z</time>
      </trkpt>
      <trkpt lat="42.61985" lon="1.60829">
        <ele>2602</ele>
        <time>2023-07-21T09:37:39.000Z</time>
      </trkpt>
      <trkpt lat="42.61981" lon="1.60829">
        <ele>2601.1999511719</ele>
        <time>2023-07-21T09:37:34.000Z</time>
      </trkpt>
      <trkpt lat="42.61979" lon="1.60826">
        <ele>2600.6000976562</ele>
        <time>2023-07-21T09:37:30.000Z</time>
      </trkpt>
      <trkpt lat="42.61978" lon="1.60825">
        <ele>2600</ele>
        <time>2023-07-21T09:37:27.000Z</time>
      </trkpt>
      <trkpt lat="42.61978" lon="1.60824">
        <ele>2599.6000976562</ele>
        <time>2023-07-21T09:37:23.000Z</time>
      </trkpt>
      <trkpt lat="42.61977" lon="1.60823">
        <ele>2599</ele>
        <time>2023-07-21T09:37:19.000Z</time>
      </trkpt>
      <trkpt lat="42.61976" lon="1.60821">
        <ele>2598.6000976562</ele>
        <time>2023-07-21T09:37:16.000Z</time>
      </trkpt>
      <trkpt lat="42.61976" lon="1.6082">
        <ele>2597.8000488281</ele>
        <time>2023-07-21T09:37:13.000Z</time>
      </trkpt>
      <trkpt lat="42.61977" lon="1.60817">
        <ele>2597.1999511719</ele>
        <time>2023-07-21T09:37:08.000Z</time>
      </trkpt>
      <trkpt lat="42.61975" lon="1.60816">
        <ele>2596.8000488281</ele>
        <time>2023-07-21T09:37:03.000Z</time>
      </trkpt>
      <trkpt lat="42.61974" lon="1.60815">
        <ele>2596.6000976562</ele>
        <time>2023-07-21T09:37:00.000Z</time>
      </trkpt>
      <trkpt lat="42.61972" lon="1.60814">
        <ele>2595.8000488281</ele>
        <time>2023-07-21T09:36:56.000Z</time>
      </trkpt>
      <trkpt lat="42.6197" lon="1.60811">
        <ele>2595</ele>
        <time>2023-07-21T09:36:51.000Z</time>
      </trkpt>
      <trkpt lat="42.61969" lon="1.60809">
        <ele>2594.6000976562</ele>
        <time>2023-07-21T09:36:48.000Z</time>
      </trkpt>
      <trkpt lat="42.61969" lon="1.60806">
        <ele>2593.6000976562</ele>
        <time>2023-07-21T09:36:41.000Z</time>
      </trkpt>
      <trkpt lat="42.61968" lon="1.60806">
        <ele>2593.6000976562</ele>
        <time>2023-07-21T09:36:40.000Z</time>
      </trkpt>
      <trkpt lat="42.61967" lon="1.60807">
        <ele>2592.3999023438</ele>
        <time>2023-07-21T09:36:32.000Z</time>
      </trkpt>
      <trkpt lat="42.61965" lon="1.6081">
        <ele>2591.1999511719</ele>
        <time>2023-07-21T09:36:26.000Z</time>
      </trkpt>
      <trkpt lat="42.61964" lon="1.6081">
        <ele>2591</ele>
        <time>2023-07-21T09:36:24.000Z</time>
      </trkpt>
      <trkpt lat="42.61964" lon="1.60814">
        <ele>2590.1999511719</ele>
        <time>2023-07-21T09:36:18.000Z</time>
      </trkpt>
      <trkpt lat="42.61965" lon="1.60816">
        <ele>2589.8000488281</ele>
        <time>2023-07-21T09:36:17.000Z</time>
      </trkpt>
      <trkpt lat="42.61965" lon="1.60817">
        <ele>2589</ele>
        <time>2023-07-21T09:36:12.000Z</time>
      </trkpt>
      <trkpt lat="42.61965" lon="1.60821">
        <ele>2588.6000976562</ele>
        <time>2023-07-21T09:36:09.000Z</time>
      </trkpt>
      <trkpt lat="42.61965" lon="1.60822">
        <ele>2588</ele>
        <time>2023-07-21T09:36:03.000Z</time>
      </trkpt>
      <trkpt lat="42.61965" lon="1.60823">
        <ele>2587.8000488281</ele>
        <time>2023-07-21T09:36:02.000Z</time>
      </trkpt>
      <trkpt lat="42.61964" lon="1.60823">
        <ele>2586.8000488281</ele>
        <time>2023-07-21T09:35:56.000Z</time>
      </trkpt>
      <trkpt lat="42.61963" lon="1.60825">
        <ele>2586.6000976562</ele>
        <time>2023-07-21T09:35:55.000Z</time>
      </trkpt>
      <trkpt lat="42.61961" lon="1.60829">
        <ele>2585.8000488281</ele>
        <time>2023-07-21T09:35:49.000Z</time>
      </trkpt>
      <trkpt lat="42.61961" lon="1.6083">
        <ele>2585.3999023438</ele>
        <time>2023-07-21T09:35:47.000Z</time>
      </trkpt>
      <trkpt lat="42.61959" lon="1.60836">
        <ele>2584.8000488281</ele>
        <time>2023-07-21T09:35:40.000Z</time>
      </trkpt>
      <trkpt lat="42.6196" lon="1.60836">
        <ele>2584.6000976562</ele>
        <time>2023-07-21T09:35:39.000Z</time>
      </trkpt>
      <trkpt lat="42.61958" lon="1.60837">
        <ele>2583.8000488281</ele>
        <time>2023-07-21T09:35:31.000Z</time>
      </trkpt>
      <trkpt lat="42.61958" lon="1.60839">
        <ele>2583.6000976562</ele>
        <time>2023-07-21T09:35:29.000Z</time>
      </trkpt>
      <trkpt lat="42.61955" lon="1.60843">
        <ele>2582.3999023438</ele>
        <time>2023-07-21T09:35:21.000Z</time>
      </trkpt>
      <trkpt lat="42.61953" lon="1.60845">
        <ele>2581.3999023438</ele>
        <time>2023-07-21T09:35:13.000Z</time>
      </trkpt>
      <trkpt lat="42.61953" lon="1.60846">
        <ele>2581.3999023438</ele>
        <time>2023-07-21T09:35:12.000Z</time>
      </trkpt>
      <trkpt lat="42.61953" lon="1.6085">
        <ele>2580.1999511719</ele>
        <time>2023-07-21T09:35:05.000Z</time>
      </trkpt>
      <trkpt lat="42.61953" lon="1.6085">
        <ele>2580.1999511719</ele>
        <time>2023-07-21T09:35:03.000Z</time>
      </trkpt>
      <trkpt lat="42.61953" lon="1.60851">
        <ele>2579.8000488281</ele>
        <time>2023-07-21T09:35:01.000Z</time>
      </trkpt>
      <trkpt lat="42.61952" lon="1.60856">
        <ele>2579.1999511719</ele>
        <time>2023-07-21T09:34:56.000Z</time>
      </trkpt>
      <trkpt lat="42.61952" lon="1.60857">
        <ele>2579</ele>
        <time>2023-07-21T09:34:55.000Z</time>
      </trkpt>
      <trkpt lat="42.61953" lon="1.6086">
        <ele>2578.1999511719</ele>
        <time>2023-07-21T09:34:51.000Z</time>
      </trkpt>
      <trkpt lat="42.61953" lon="1.60861">
        <ele>2577.6000976562</ele>
        <time>2023-07-21T09:34:47.000Z</time>
      </trkpt>
      <trkpt lat="42.61953" lon="1.60862">
        <ele>2577.1999511719</ele>
        <time>2023-07-21T09:34:45.000Z</time>
      </trkpt>
      <trkpt lat="42.61954" lon="1.60866">
        <ele>2576.1999511719</ele>
        <time>2023-07-21T09:34:38.000Z</time>
      </trkpt>
      <trkpt lat="42.61955" lon="1.60867">
        <ele>2576</ele>
        <time>2023-07-21T09:34:37.000Z</time>
      </trkpt>
      <trkpt lat="42.61955" lon="1.60872">
        <ele>2575</ele>
        <time>2023-07-21T09:34:29.000Z</time>
      </trkpt>
      <trkpt lat="42.61952" lon="1.60875">
        <ele>2574</ele>
        <time>2023-07-21T09:34:22.000Z</time>
      </trkpt>
      <trkpt lat="42.61952" lon="1.60876">
        <ele>2573.8000488281</ele>
        <time>2023-07-21T09:34:21.000Z</time>
      </trkpt>
      <trkpt lat="42.61952" lon="1.60879">
        <ele>2573</ele>
        <time>2023-07-21T09:34:17.000Z</time>
      </trkpt>
      <trkpt lat="42.61953" lon="1.60879">
        <ele>2572.8000488281</ele>
        <time>2023-07-21T09:34:14.000Z</time>
      </trkpt>
      <trkpt lat="42.61952" lon="1.60886">
        <ele>2572</ele>
        <time>2023-07-21T09:34:05.000Z</time>
      </trkpt>
      <trkpt lat="42.6195" lon="1.60891">
        <ele>2570.8000488281</ele>
        <time>2023-07-21T09:33:58.000Z</time>
      </trkpt>
      <trkpt lat="42.61949" lon="1.60892">
        <ele>2570.3999023438</ele>
        <time>2023-07-21T09:33:56.000Z</time>
      </trkpt>
      <trkpt lat="42.61949" lon="1.60894">
        <ele>2569.8000488281</ele>
        <time>2023-07-21T09:33:51.000Z</time>
      </trkpt>
      <trkpt lat="42.61947" lon="1.60895">
        <ele>2569</ele>
        <time>2023-07-21T09:33:47.000Z</time>
      </trkpt>
      <trkpt lat="42.61945" lon="1.60896">
        <ele>2568.6000976562</ele>
        <time>2023-07-21T09:33:44.000Z</time>
      </trkpt>
      <trkpt lat="42.61943" lon="1.60898">
        <ele>2567.6000976562</ele>
        <time>2023-07-21T09:33:37.000Z</time>
      </trkpt>
      <trkpt lat="42.61943" lon="1.60899">
        <ele>2567.6000976562</ele>
        <time>2023-07-21T09:33:36.000Z</time>
      </trkpt>
      <trkpt lat="42.6194" lon="1.60901">
        <ele>2566.6000976562</ele>
        <time>2023-07-21T09:33:29.000Z</time>
      </trkpt>
      <trkpt lat="42.61939" lon="1.60902">
        <ele>2566.3999023438</ele>
        <time>2023-07-21T09:33:26.000Z</time>
      </trkpt>
      <trkpt lat="42.61937" lon="1.60903">
        <ele>2565.3999023438</ele>
        <time>2023-07-21T09:33:21.000Z</time>
      </trkpt>
      <trkpt lat="42.61936" lon="1.60903">
        <ele>2565.3999023438</ele>
        <time>2023-07-21T09:33:20.000Z</time>
      </trkpt>
      <trkpt lat="42.61936" lon="1.60905">
        <ele>2564.1999511719</ele>
        <time>2023-07-21T09:33:13.000Z</time>
      </trkpt>
      <trkpt lat="42.61936" lon="1.60905">
        <ele>2564.1999511719</ele>
        <time>2023-07-21T09:33:12.000Z</time>
      </trkpt>
      <trkpt lat="42.61934" lon="1.60906">
        <ele>2563.1999511719</ele>
        <time>2023-07-21T09:33:06.000Z</time>
      </trkpt>
      <trkpt lat="42.61934" lon="1.60906">
        <ele>2563</ele>
        <time>2023-07-21T09:33:04.000Z</time>
      </trkpt>
      <trkpt lat="42.61933" lon="1.60907">
        <ele>2562</ele>
        <time>2023-07-21T09:32:59.000Z</time>
      </trkpt>
      <trkpt lat="42.61933" lon="1.60909">
        <ele>2561.3999023438</ele>
        <time>2023-07-21T09:32:57.000Z</time>
      </trkpt>
      <trkpt lat="42.61931" lon="1.60912">
        <ele>2560.8000488281</ele>
        <time>2023-07-21T09:32:51.000Z</time>
      </trkpt>
      <trkpt lat="42.61931" lon="1.60912">
        <ele>2560.8000488281</ele>
        <time>2023-07-21T09:32:49.000Z</time>
      </trkpt>
      <trkpt lat="42.61929" lon="1.60915">
        <ele>2560</ele>
        <time>2023-07-21T09:32:42.000Z</time>
      </trkpt>
      <trkpt lat="42.61929" lon="1.60916">
        <ele>2559.8000488281</ele>
        <time>2023-07-21T09:32:41.000Z</time>
      </trkpt>
      <trkpt lat="42.61928" lon="1.60918">
        <ele>2558.8000488281</ele>
        <time>2023-07-21T09:32:36.000Z</time>
      </trkpt>
      <trkpt lat="42.61928" lon="1.60919">
        <ele>2558.3999023438</ele>
        <time>2023-07-21T09:32:34.000Z</time>
      </trkpt>
      <trkpt lat="42.61927" lon="1.60923">
        <ele>2557.8000488281</ele>
        <time>2023-07-21T09:32:29.000Z</time>
      </trkpt>
      <trkpt lat="42.61927" lon="1.60924">
        <ele>2557.1999511719</ele>
        <time>2023-07-21T09:32:27.000Z</time>
      </trkpt>
      <trkpt lat="42.61927" lon="1.60925">
        <ele>2556.6000976562</ele>
        <time>2023-07-21T09:32:24.000Z</time>
      </trkpt>
      <trkpt lat="42.61925" lon="1.60928">
        <ele>2556.1999511719</ele>
        <time>2023-07-21T09:32:19.000Z</time>
      </trkpt>
      <trkpt lat="42.61922" lon="1.6093">
        <ele>2555.6000976562</ele>
        <time>2023-07-21T09:32:14.000Z</time>
      </trkpt>
      <trkpt lat="42.61921" lon="1.60932">
        <ele>2555</ele>
        <time>2023-07-21T09:32:10.000Z</time>
      </trkpt>
      <trkpt lat="42.61921" lon="1.60936">
        <ele>2554.6000976562</ele>
        <time>2023-07-21T09:32:05.000Z</time>
      </trkpt>
      <trkpt lat="42.61921" lon="1.60936">
        <ele>2554.1999511719</ele>
        <time>2023-07-21T09:32:04.000Z</time>
      </trkpt>
      <trkpt lat="42.6192" lon="1.6094">
        <ele>2553.3999023438</ele>
        <time>2023-07-21T09:31:59.000Z</time>
      </trkpt>
      <trkpt lat="42.6192" lon="1.60941">
        <ele>2553.1999511719</ele>
        <time>2023-07-21T09:31:58.000Z</time>
      </trkpt>
      <trkpt lat="42.61918" lon="1.60945">
        <ele>2552.3999023438</ele>
        <time>2023-07-21T09:31:53.000Z</time>
      </trkpt>
      <trkpt lat="42.61917" lon="1.60946">
        <ele>2552.1999511719</ele>
        <time>2023-07-21T09:31:52.000Z</time>
      </trkpt>
      <trkpt lat="42.61916" lon="1.60953">
        <ele>2551.3999023438</ele>
        <time>2023-07-21T09:31:44.000Z</time>
      </trkpt>
      <trkpt lat="42.61915" lon="1.60954">
        <ele>2551.1999511719</ele>
        <time>2023-07-21T09:31:43.000Z</time>
      </trkpt>
      <trkpt lat="42.61915" lon="1.60959">
        <ele>2550.1999511719</ele>
        <time>2023-07-21T09:31:36.000Z</time>
      </trkpt>
      <trkpt lat="42.61915" lon="1.6096">
        <ele>2550</ele>
        <time>2023-07-21T09:31:35.000Z</time>
      </trkpt>
      <trkpt lat="42.61914" lon="1.60968">
        <ele>2549</ele>
        <time>2023-07-21T09:31:28.000Z</time>
      </trkpt>
      <trkpt lat="42.61914" lon="1.6097">
        <ele>2548.8000488281</ele>
        <time>2023-07-21T09:31:27.000Z</time>
      </trkpt>
      <trkpt lat="42.61913" lon="1.60972">
        <ele>2548</ele>
        <time>2023-07-21T09:31:22.000Z</time>
      </trkpt>
      <trkpt lat="42.61913" lon="1.60972">
        <ele>2547.6000976562</ele>
        <time>2023-07-21T09:31:19.000Z</time>
      </trkpt>
      <trkpt lat="42.61911" lon="1.60974">
        <ele>2546.8000488281</ele>
        <time>2023-07-21T09:31:15.000Z</time>
      </trkpt>
      <trkpt lat="42.6191" lon="1.60978">
        <ele>2545.8000488281</ele>
        <time>2023-07-21T09:31:09.000Z</time>
      </trkpt>
      <trkpt lat="42.61909" lon="1.6098">
        <ele>2545.6000976562</ele>
        <time>2023-07-21T09:31:07.000Z</time>
      </trkpt>
      <trkpt lat="42.61907" lon="1.60985">
        <ele>2544.6000976562</ele>
        <time>2023-07-21T09:31:00.000Z</time>
      </trkpt>
      <trkpt lat="42.61905" lon="1.6099">
        <ele>2543.6000976562</ele>
        <time>2023-07-21T09:30:53.000Z</time>
      </trkpt>
      <trkpt lat="42.61905" lon="1.60991">
        <ele>2543.1999511719</ele>
        <time>2023-07-21T09:30:51.000Z</time>
      </trkpt>
      <trkpt lat="42.61904" lon="1.60994">
        <ele>2542.1999511719</ele>
        <time>2023-07-21T09:30:44.000Z</time>
      </trkpt>
      <trkpt lat="42.61903" lon="1.61001">
        <ele>2541.1999511719</ele>
        <time>2023-07-21T09:30:37.000Z</time>
      </trkpt>
      <trkpt lat="42.61903" lon="1.61003">
        <ele>2541</ele>
        <time>2023-07-21T09:30:35.000Z</time>
      </trkpt>
      <trkpt lat="42.61902" lon="1.61011">
        <ele>2540.1999511719</ele>
        <time>2023-07-21T09:30:26.000Z</time>
      </trkpt>
      <trkpt lat="42.61902" lon="1.61012">
        <ele>2540</ele>
        <time>2023-07-21T09:30:25.000Z</time>
      </trkpt>
      <trkpt lat="42.619" lon="1.61016">
        <ele>2539</ele>
        <time>2023-07-21T09:30:19.000Z</time>
      </trkpt>
      <trkpt lat="42.619" lon="1.61017">
        <ele>2538.8000488281</ele>
        <time>2023-07-21T09:30:17.000Z</time>
      </trkpt>
      <trkpt lat="42.61899" lon="1.61025">
        <ele>2538.3999023438</ele>
        <time>2023-07-21T09:30:10.000Z</time>
      </trkpt>
      <trkpt lat="42.61896" lon="1.61032">
        <ele>2538</ele>
        <time>2023-07-21T09:30:04.000Z</time>
      </trkpt>
      <trkpt lat="42.61896" lon="1.61034">
        <ele>2537.8000488281</ele>
        <time>2023-07-21T09:30:02.000Z</time>
      </trkpt>
      <trkpt lat="42.61892" lon="1.6104">
        <ele>2537</ele>
        <time>2023-07-21T09:29:54.000Z</time>
      </trkpt>
      <trkpt lat="42.61892" lon="1.61044">
        <ele>2536.8000488281</ele>
        <time>2023-07-21T09:29:51.000Z</time>
      </trkpt>
      <trkpt lat="42.61891" lon="1.61049">
        <ele>2536.3999023438</ele>
        <time>2023-07-21T09:29:46.000Z</time>
      </trkpt>
      <trkpt lat="42.61891" lon="1.61053">
        <ele>2535.8000488281</ele>
        <time>2023-07-21T09:29:42.000Z</time>
      </trkpt>
      <trkpt lat="42.61891" lon="1.61058">
        <ele>2535.1999511719</ele>
        <time>2023-07-21T09:29:38.000Z</time>
      </trkpt>
      <trkpt lat="42.6189" lon="1.6106">
        <ele>2534.8000488281</ele>
        <time>2023-07-21T09:29:35.000Z</time>
      </trkpt>
      <trkpt lat="42.6189" lon="1.61062">
        <ele>2534.1999511719</ele>
        <time>2023-07-21T09:29:31.000Z</time>
      </trkpt>
      <trkpt lat="42.61889" lon="1.61071">
        <ele>2533.6000976562</ele>
        <time>2023-07-21T09:29:24.000Z</time>
      </trkpt>
      <trkpt lat="42.61889" lon="1.61072">
        <ele>2533.6000976562</ele>
        <time>2023-07-21T09:29:23.000Z</time>
      </trkpt>
      <trkpt lat="42.61888" lon="1.61084">
        <ele>2533.3999023438</ele>
        <time>2023-07-21T09:29:14.000Z</time>
      </trkpt>
      <trkpt lat="42.61885" lon="1.61091">
        <ele>2532.6000976562</ele>
        <time>2023-07-21T09:29:05.000Z</time>
      </trkpt>
      <trkpt lat="42.61885" lon="1.61093">
        <ele>2532.3999023438</ele>
        <time>2023-07-21T09:28:58.000Z</time>
      </trkpt>
      <trkpt lat="42.61885" lon="1.6109">
        <ele>2532.6000976562</ele>
        <time>2023-07-21T09:28:50.000Z</time>
      </trkpt>
      <trkpt lat="42.61888" lon="1.61094">
        <ele>2532.6000976562</ele>
        <time>2023-07-21T09:28:42.000Z</time>
      </trkpt>
      <trkpt lat="42.61889" lon="1.61092">
        <ele>2532.6000976562</ele>
        <time>2023-07-21T09:28:36.000Z</time>
      </trkpt>
      <trkpt lat="42.61885" lon="1.6109">
        <ele>2532.8000488281</ele>
        <time>2023-07-21T09:28:28.000Z</time>
      </trkpt>
      <trkpt lat="42.61884" lon="1.61086">
        <ele>2532.8000488281</ele>
        <time>2023-07-21T09:28:22.000Z</time>
      </trkpt>
      <trkpt lat="42.61884" lon="1.61093">
        <ele>2532.8000488281</ele>
        <time>2023-07-21T09:28:16.000Z</time>
      </trkpt>
      <trkpt lat="42.61885" lon="1.61091">
        <ele>2532.8000488281</ele>
        <time>2023-07-21T09:28:06.000Z</time>
      </trkpt>
      <trkpt lat="42.61885" lon="1.61092">
        <ele>2532.6000976562</ele>
        <time>2023-07-21T09:27:58.000Z</time>
      </trkpt>
      <trkpt lat="42.61884" lon="1.61093">
        <ele>2532.6000976562</ele>
        <time>2023-07-21T09:27:57.000Z</time>
      </trkpt>
      <trkpt lat="42.61883" lon="1.61098">
        <ele>2531.3999023438</ele>
        <time>2023-07-21T09:27:50.000Z</time>
      </trkpt>
      <trkpt lat="42.61882" lon="1.611">
        <ele>2530.6000976562</ele>
        <time>2023-07-21T09:27:43.000Z</time>
      </trkpt>
      <trkpt lat="42.61883" lon="1.61101">
        <ele>2530.3999023438</ele>
        <time>2023-07-21T09:27:41.000Z</time>
      </trkpt>
      <trkpt lat="42.61884" lon="1.61107">
        <ele>2529.3999023438</ele>
        <time>2023-07-21T09:27:35.000Z</time>
      </trkpt>
      <trkpt lat="42.61884" lon="1.61111">
        <ele>2529.3999023438</ele>
        <time>2023-07-21T09:27:30.000Z</time>
      </trkpt>
      <trkpt lat="42.61883" lon="1.61114">
        <ele>2528.8000488281</ele>
        <time>2023-07-21T09:27:27.000Z</time>
      </trkpt>
      <trkpt lat="42.61881" lon="1.61119">
        <ele>2528.1999511719</ele>
        <time>2023-07-21T09:27:23.000Z</time>
      </trkpt>
      <trkpt lat="42.6188" lon="1.6112">
        <ele>2527.8000488281</ele>
        <time>2023-07-21T09:27:20.000Z</time>
      </trkpt>
      <trkpt lat="42.6188" lon="1.61122">
        <ele>2527.1999511719</ele>
        <time>2023-07-21T09:27:17.000Z</time>
      </trkpt>
      <trkpt lat="42.61879" lon="1.61124">
        <ele>2526.8000488281</ele>
        <time>2023-07-21T09:27:13.000Z</time>
      </trkpt>
      <trkpt lat="42.61876" lon="1.61125">
        <ele>2526</ele>
        <time>2023-07-21T09:27:08.000Z</time>
      </trkpt>
      <trkpt lat="42.61873" lon="1.61126">
        <ele>2525.8000488281</ele>
        <time>2023-07-21T09:27:05.000Z</time>
      </trkpt>
      <trkpt lat="42.6187" lon="1.61129">
        <ele>2525</ele>
        <time>2023-07-21T09:26:59.000Z</time>
      </trkpt>
      <trkpt lat="42.6187" lon="1.61131">
        <ele>2524.8000488281</ele>
        <time>2023-07-21T09:26:57.000Z</time>
      </trkpt>
      <trkpt lat="42.61872" lon="1.61136">
        <ele>2524</ele>
        <time>2023-07-21T09:26:49.000Z</time>
      </trkpt>
      <trkpt lat="42.61873" lon="1.61137">
        <ele>2523.3999023438</ele>
        <time>2023-07-21T09:26:47.000Z</time>
      </trkpt>
      <trkpt lat="42.61873" lon="1.6114">
        <ele>2522.8000488281</ele>
        <time>2023-07-21T09:26:43.000Z</time>
      </trkpt>
      <trkpt lat="42.61873" lon="1.61143">
        <ele>2522.1999511719</ele>
        <time>2023-07-21T09:26:40.000Z</time>
      </trkpt>
      <trkpt lat="42.61873" lon="1.61144">
        <ele>2521.8000488281</ele>
        <time>2023-07-21T09:26:37.000Z</time>
      </trkpt>
      <trkpt lat="42.61873" lon="1.61146">
        <ele>2521</ele>
        <time>2023-07-21T09:26:33.000Z</time>
      </trkpt>
      <trkpt lat="42.61873" lon="1.61148">
        <ele>2520.6000976562</ele>
        <time>2023-07-21T09:26:31.000Z</time>
      </trkpt>
      <trkpt lat="42.61875" lon="1.61153">
        <ele>2519.8000488281</ele>
        <time>2023-07-21T09:26:24.000Z</time>
      </trkpt>
      <trkpt lat="42.61875" lon="1.61154">
        <ele>2519.6000976562</ele>
        <time>2023-07-21T09:26:23.000Z</time>
      </trkpt>
      <trkpt lat="42.61876" lon="1.61158">
        <ele>2518.3999023438</ele>
        <time>2023-07-21T09:26:16.000Z</time>
      </trkpt>
      <trkpt lat="42.61876" lon="1.6116">
        <ele>2518</ele>
        <time>2023-07-21T09:26:13.000Z</time>
      </trkpt>
      <trkpt lat="42.61876" lon="1.61162">
        <ele>2517.3999023438</ele>
        <time>2023-07-21T09:26:09.000Z</time>
      </trkpt>
      <trkpt lat="42.61876" lon="1.61165">
        <ele>2516.6000976562</ele>
        <time>2023-07-21T09:26:04.000Z</time>
      </trkpt>
      <trkpt lat="42.61876" lon="1.61165">
        <ele>2516.3999023438</ele>
        <time>2023-07-21T09:26:03.000Z</time>
      </trkpt>
      <trkpt lat="42.61878" lon="1.61169">
        <ele>2515.6000976562</ele>
        <time>2023-07-21T09:25:57.000Z</time>
      </trkpt>
      <trkpt lat="42.61878" lon="1.61169">
        <ele>2515.3999023438</ele>
        <time>2023-07-21T09:25:56.000Z</time>
      </trkpt>
      <trkpt lat="42.61878" lon="1.61171">
        <ele>2514.3999023438</ele>
        <time>2023-07-21T09:25:51.000Z</time>
      </trkpt>
      <trkpt lat="42.61879" lon="1.61173">
        <ele>2514.1999511719</ele>
        <time>2023-07-21T09:25:49.000Z</time>
      </trkpt>
      <trkpt lat="42.61882" lon="1.61175">
        <ele>2513.3999023438</ele>
        <time>2023-07-21T09:25:44.000Z</time>
      </trkpt>
      <trkpt lat="42.61882" lon="1.61176">
        <ele>2513.1999511719</ele>
        <time>2023-07-21T09:25:43.000Z</time>
      </trkpt>
      <trkpt lat="42.61883" lon="1.6118">
        <ele>2512.1999511719</ele>
        <time>2023-07-21T09:25:36.000Z</time>
      </trkpt>
      <trkpt lat="42.61883" lon="1.6118">
        <ele>2512</ele>
        <time>2023-07-21T09:25:35.000Z</time>
      </trkpt>
      <trkpt lat="42.61884" lon="1.61184">
        <ele>2511</ele>
        <time>2023-07-21T09:25:28.000Z</time>
      </trkpt>
      <trkpt lat="42.61885" lon="1.61185">
        <ele>2510.8000488281</ele>
        <time>2023-07-21T09:25:26.000Z</time>
      </trkpt>
      <trkpt lat="42.61886" lon="1.61188">
        <ele>2510</ele>
        <time>2023-07-21T09:25:20.000Z</time>
      </trkpt>
      <trkpt lat="42.61886" lon="1.61188">
        <ele>2509.6000976562</ele>
        <time>2023-07-21T09:25:18.000Z</time>
      </trkpt>
      <trkpt lat="42.61887" lon="1.61191">
        <ele>2508.6000976562</ele>
        <time>2023-07-21T09:25:13.000Z</time>
      </trkpt>
      <trkpt lat="42.61887" lon="1.61191">
        <ele>2508.3999023438</ele>
        <time>2023-07-21T09:25:12.000Z</time>
      </trkpt>
      <trkpt lat="42.61885" lon="1.61194">
        <ele>2507.6000976562</ele>
        <time>2023-07-21T09:25:07.000Z</time>
      </trkpt>
      <trkpt lat="42.61885" lon="1.61195">
        <ele>2507.1999511719</ele>
        <time>2023-07-21T09:25:04.000Z</time>
      </trkpt>
      <trkpt lat="42.61885" lon="1.61198">
        <ele>2506.3999023438</ele>
        <time>2023-07-21T09:24:59.000Z</time>
      </trkpt>
      <trkpt lat="42.61886" lon="1.612">
        <ele>2505.1999511719</ele>
        <time>2023-07-21T09:24:55.000Z</time>
      </trkpt>
      <trkpt lat="42.61887" lon="1.61201">
        <ele>2505</ele>
        <time>2023-07-21T09:24:54.000Z</time>
      </trkpt>
      <trkpt lat="42.61887" lon="1.61205">
        <ele>2504.3999023438</ele>
        <time>2023-07-21T09:24:48.000Z</time>
      </trkpt>
      <trkpt lat="42.61888" lon="1.61206">
        <ele>2504.1999511719</ele>
        <time>2023-07-21T09:24:46.000Z</time>
      </trkpt>
      <trkpt lat="42.61888" lon="1.6121">
        <ele>2503.1999511719</ele>
        <time>2023-07-21T09:24:41.000Z</time>
      </trkpt>
      <trkpt lat="42.61888" lon="1.6121">
        <ele>2503</ele>
        <time>2023-07-21T09:24:38.000Z</time>
      </trkpt>
      <trkpt lat="42.6189" lon="1.61215">
        <ele>2502.3999023438</ele>
        <time>2023-07-21T09:24:34.000Z</time>
      </trkpt>
      <trkpt lat="42.61891" lon="1.61217">
        <ele>2502</ele>
        <time>2023-07-21T09:24:32.000Z</time>
      </trkpt>
      <trkpt lat="42.61893" lon="1.61222">
        <ele>2501</ele>
        <time>2023-07-21T09:24:24.000Z</time>
      </trkpt>
      <trkpt lat="42.61893" lon="1.61227">
        <ele>2500.1999511719</ele>
        <time>2023-07-21T09:24:16.000Z</time>
      </trkpt>
      <trkpt lat="42.61893" lon="1.61229">
        <ele>2500</ele>
        <time>2023-07-21T09:24:13.000Z</time>
      </trkpt>
      <trkpt lat="42.61894" lon="1.61233">
        <ele>2499.6000976562</ele>
        <time>2023-07-21T09:24:08.000Z</time>
      </trkpt>
      <trkpt lat="42.61896" lon="1.61239">
        <ele>2499.3999023438</ele>
        <time>2023-07-21T09:24:02.000Z</time>
      </trkpt>
      <trkpt lat="42.61899" lon="1.61248">
        <ele>2499.1999511719</ele>
        <time>2023-07-21T09:23:54.000Z</time>
      </trkpt>
      <trkpt lat="42.619" lon="1.61251">
        <ele>2498.8000488281</ele>
        <time>2023-07-21T09:23:51.000Z</time>
      </trkpt>
      <trkpt lat="42.619" lon="1.61256">
        <ele>2498</ele>
        <time>2023-07-21T09:23:45.000Z</time>
      </trkpt>
      <trkpt lat="42.61899" lon="1.61257">
        <ele>2497.8000488281</ele>
        <time>2023-07-21T09:23:44.000Z</time>
      </trkpt>
      <trkpt lat="42.61896" lon="1.61263">
        <ele>2497</ele>
        <time>2023-07-21T09:23:36.000Z</time>
      </trkpt>
      <trkpt lat="42.61896" lon="1.61263">
        <ele>2496.8000488281</ele>
        <time>2023-07-21T09:23:34.000Z</time>
      </trkpt>
      <trkpt lat="42.61897" lon="1.61265">
        <ele>2496</ele>
        <time>2023-07-21T09:23:28.000Z</time>
      </trkpt>
      <trkpt lat="42.61896" lon="1.61267">
        <ele>2495.8000488281</ele>
        <time>2023-07-21T09:23:25.000Z</time>
      </trkpt>
      <trkpt lat="42.61895" lon="1.6127">
        <ele>2494.8000488281</ele>
        <time>2023-07-21T09:23:19.000Z</time>
      </trkpt>
      <trkpt lat="42.61894" lon="1.61271">
        <ele>2494.8000488281</ele>
        <time>2023-07-21T09:23:16.000Z</time>
      </trkpt>
      <trkpt lat="42.61898" lon="1.61271">
        <ele>2494.1999511719</ele>
        <time>2023-07-21T09:23:12.000Z</time>
      </trkpt>
      <trkpt lat="42.619" lon="1.6127">
        <ele>2493.6000976562</ele>
        <time>2023-07-21T09:23:09.000Z</time>
      </trkpt>
      <trkpt lat="42.61903" lon="1.61268">
        <ele>2493.1999511719</ele>
        <time>2023-07-21T09:23:04.000Z</time>
      </trkpt>
      <trkpt lat="42.61906" lon="1.61261">
        <ele>2493</ele>
        <time>2023-07-21T09:22:56.000Z</time>
      </trkpt>
      <trkpt lat="42.61908" lon="1.61258">
        <ele>2492.6000976562</ele>
        <time>2023-07-21T09:22:52.000Z</time>
      </trkpt>
      <trkpt lat="42.61909" lon="1.61256">
        <ele>2491.8000488281</ele>
        <time>2023-07-21T09:22:49.000Z</time>
      </trkpt>
      <trkpt lat="42.6191" lon="1.61255">
        <ele>2491.6000976562</ele>
        <time>2023-07-21T09:22:48.000Z</time>
      </trkpt>
      <trkpt lat="42.61911" lon="1.61256">
        <ele>2491</ele>
        <time>2023-07-21T09:22:42.000Z</time>
      </trkpt>
      <trkpt lat="42.61914" lon="1.61258">
        <ele>2490.6000976562</ele>
        <time>2023-07-21T09:22:36.000Z</time>
      </trkpt>
      <trkpt lat="42.61914" lon="1.61258">
        <ele>2490.3999023438</ele>
        <time>2023-07-21T09:22:35.000Z</time>
      </trkpt>
      <trkpt lat="42.61917" lon="1.61257">
        <ele>2489.3999023438</ele>
        <time>2023-07-21T09:22:30.000Z</time>
      </trkpt>
      <trkpt lat="42.61918" lon="1.61257">
        <ele>2488.6000976562</ele>
        <time>2023-07-21T09:22:26.000Z</time>
      </trkpt>
      <trkpt lat="42.61919" lon="1.61258">
        <ele>2488.3999023438</ele>
        <time>2023-07-21T09:22:24.000Z</time>
      </trkpt>
      <trkpt lat="42.61921" lon="1.61258">
        <ele>2487.6000976562</ele>
        <time>2023-07-21T09:22:17.000Z</time>
      </trkpt>
      <trkpt lat="42.61921" lon="1.61258">
        <ele>2487.3999023438</ele>
        <time>2023-07-21T09:22:16.000Z</time>
      </trkpt>
      <trkpt lat="42.61922" lon="1.61257">
        <ele>2486.6000976562</ele>
        <time>2023-07-21T09:22:08.000Z</time>
      </trkpt>
      <trkpt lat="42.61923" lon="1.61256">
        <ele>2486.1999511719</ele>
        <time>2023-07-21T09:22:06.000Z</time>
      </trkpt>
      <trkpt lat="42.61926" lon="1.61256">
        <ele>2485.6000976562</ele>
        <time>2023-07-21T09:22:01.000Z</time>
      </trkpt>
      <trkpt lat="42.61927" lon="1.61256">
        <ele>2485.1999511719</ele>
        <time>2023-07-21T09:21:58.000Z</time>
      </trkpt>
      <trkpt lat="42.61929" lon="1.61256">
        <ele>2484.3999023438</ele>
        <time>2023-07-21T09:21:53.000Z</time>
      </trkpt>
      <trkpt lat="42.6193" lon="1.61256">
        <ele>2484</ele>
        <time>2023-07-21T09:21:52.000Z</time>
      </trkpt>
      <trkpt lat="42.61933" lon="1.61255">
        <ele>2483</ele>
        <time>2023-07-21T09:21:45.000Z</time>
      </trkpt>
      <trkpt lat="42.61934" lon="1.61256">
        <ele>2483</ele>
        <time>2023-07-21T09:21:44.000Z</time>
      </trkpt>
      <trkpt lat="42.61937" lon="1.61257">
        <ele>2482</ele>
        <time>2023-07-21T09:21:38.000Z</time>
      </trkpt>
      <trkpt lat="42.61937" lon="1.61257">
        <ele>2481.8000488281</ele>
        <time>2023-07-21T09:21:37.000Z</time>
      </trkpt>
      <trkpt lat="42.61939" lon="1.61258">
        <ele>2480.8000488281</ele>
        <time>2023-07-21T09:21:31.000Z</time>
      </trkpt>
      <trkpt lat="42.61941" lon="1.61258">
        <ele>2479.8000488281</ele>
        <time>2023-07-21T09:21:27.000Z</time>
      </trkpt>
      <trkpt lat="42.61944" lon="1.61258">
        <ele>2478.8000488281</ele>
        <time>2023-07-21T09:21:19.000Z</time>
      </trkpt>
      <trkpt lat="42.61944" lon="1.61258">
        <ele>2478.8000488281</ele>
        <time>2023-07-21T09:21:18.000Z</time>
      </trkpt>
      <trkpt lat="42.61947" lon="1.61262">
        <ele>2477.8000488281</ele>
        <time>2023-07-21T09:21:11.000Z</time>
      </trkpt>
      <trkpt lat="42.61949" lon="1.61267">
        <ele>2476.8000488281</ele>
        <time>2023-07-21T09:21:02.000Z</time>
      </trkpt>
      <trkpt lat="42.6195" lon="1.6127">
        <ele>2475.8000488281</ele>
        <time>2023-07-21T09:20:56.000Z</time>
      </trkpt>
      <trkpt lat="42.61951" lon="1.61271">
        <ele>2475.6000976562</ele>
        <time>2023-07-21T09:20:54.000Z</time>
      </trkpt>
      <trkpt lat="42.61955" lon="1.61274">
        <ele>2475</ele>
        <time>2023-07-21T09:20:48.000Z</time>
      </trkpt>
      <trkpt lat="42.61956" lon="1.61274">
        <ele>2474.3999023438</ele>
        <time>2023-07-21T09:20:46.000Z</time>
      </trkpt>
      <trkpt lat="42.61957" lon="1.61273">
        <ele>2473.8000488281</ele>
        <time>2023-07-21T09:20:41.000Z</time>
      </trkpt>
      <trkpt lat="42.61958" lon="1.61272">
        <ele>2473.3999023438</ele>
        <time>2023-07-21T09:20:39.000Z</time>
      </trkpt>
      <trkpt lat="42.6196" lon="1.61274">
        <ele>2472.8000488281</ele>
        <time>2023-07-21T09:20:34.000Z</time>
      </trkpt>
      <trkpt lat="42.61961" lon="1.61276">
        <ele>2472.3999023438</ele>
        <time>2023-07-21T09:20:31.000Z</time>
      </trkpt>
      <trkpt lat="42.61961" lon="1.61277">
        <ele>2471.6000976562</ele>
        <time>2023-07-21T09:20:26.000Z</time>
      </trkpt>
      <trkpt lat="42.61962" lon="1.61278">
        <ele>2471.1999511719</ele>
        <time>2023-07-21T09:20:23.000Z</time>
      </trkpt>
      <trkpt lat="42.61964" lon="1.61279">
        <ele>2470.3999023438</ele>
        <time>2023-07-21T09:20:18.000Z</time>
      </trkpt>
      <trkpt lat="42.61964" lon="1.61279">
        <ele>2470</ele>
        <time>2023-07-21T09:20:16.000Z</time>
      </trkpt>
      <trkpt lat="42.61967" lon="1.61283">
        <ele>2469</ele>
        <time>2023-07-21T09:20:09.000Z</time>
      </trkpt>
      <trkpt lat="42.61969" lon="1.61286">
        <ele>2468.1999511719</ele>
        <time>2023-07-21T09:20:02.000Z</time>
      </trkpt>
      <trkpt lat="42.61969" lon="1.61287">
        <ele>2468</ele>
        <time>2023-07-21T09:19:59.000Z</time>
      </trkpt>
      <trkpt lat="42.61972" lon="1.61289">
        <ele>2467.1999511719</ele>
        <time>2023-07-21T09:19:54.000Z</time>
      </trkpt>
      <trkpt lat="42.61974" lon="1.6129">
        <ele>2466.8000488281</ele>
        <time>2023-07-21T09:19:51.000Z</time>
      </trkpt>
      <trkpt lat="42.61975" lon="1.61292">
        <ele>2466.3999023438</ele>
        <time>2023-07-21T09:19:48.000Z</time>
      </trkpt>
      <trkpt lat="42.61977" lon="1.61297">
        <ele>2465.8000488281</ele>
        <time>2023-07-21T09:19:42.000Z</time>
      </trkpt>
      <trkpt lat="42.61978" lon="1.61298">
        <ele>2465.1999511719</ele>
        <time>2023-07-21T09:19:39.000Z</time>
      </trkpt>
      <trkpt lat="42.61981" lon="1.61301">
        <ele>2464.8000488281</ele>
        <time>2023-07-21T09:19:35.000Z</time>
      </trkpt>
      <trkpt lat="42.61982" lon="1.61304">
        <ele>2464</ele>
        <time>2023-07-21T09:19:31.000Z</time>
      </trkpt>
      <trkpt lat="42.61984" lon="1.61309">
        <ele>2463.3999023438</ele>
        <time>2023-07-21T09:19:23.000Z</time>
      </trkpt>
      <trkpt lat="42.61987" lon="1.61314">
        <ele>2463</ele>
        <time>2023-07-21T09:19:16.000Z</time>
      </trkpt>
      <trkpt lat="42.61992" lon="1.61319">
        <ele>2462.8000488281</ele>
        <time>2023-07-21T09:19:08.000Z</time>
      </trkpt>
      <trkpt lat="42.61997" lon="1.61329">
        <ele>2462.8000488281</ele>
        <time>2023-07-21T09:19:01.000Z</time>
      </trkpt>
      <trkpt lat="42.62001" lon="1.61335">
        <ele>2462.8000488281</ele>
        <time>2023-07-21T09:18:53.000Z</time>
      </trkpt>
      <trkpt lat="42.62003" lon="1.6134">
        <ele>2462.8000488281</ele>
        <time>2023-07-21T09:18:47.000Z</time>
      </trkpt>
      <trkpt lat="42.6201" lon="1.61346">
        <ele>2462.6000976562</ele>
        <time>2023-07-21T09:18:40.000Z</time>
      </trkpt>
      <trkpt lat="42.62016" lon="1.61353">
        <ele>2463.1999511719</ele>
        <time>2023-07-21T09:18:33.000Z</time>
      </trkpt>
      <trkpt lat="42.62017" lon="1.61357">
        <ele>2463.6000976562</ele>
        <time>2023-07-21T09:18:30.000Z</time>
      </trkpt>
      <trkpt lat="42.62018" lon="1.61361">
        <ele>2464.6000976562</ele>
        <time>2023-07-21T09:18:25.000Z</time>
      </trkpt>
      <trkpt lat="42.62018" lon="1.61363">
        <ele>2464.8000488281</ele>
        <time>2023-07-21T09:18:23.000Z</time>
      </trkpt>
      <trkpt lat="42.6202" lon="1.61366">
        <ele>2466</ele>
        <time>2023-07-21T09:18:18.000Z</time>
      </trkpt>
      <trkpt lat="42.6202" lon="1.61367">
        <ele>2466.1999511719</ele>
        <time>2023-07-21T09:18:17.000Z</time>
      </trkpt>
      <trkpt lat="42.62022" lon="1.61371">
        <ele>2467</ele>
        <time>2023-07-21T09:18:14.000Z</time>
      </trkpt>
      <trkpt lat="42.62025" lon="1.61373">
        <ele>2467.8000488281</ele>
        <time>2023-07-21T09:18:09.000Z</time>
      </trkpt>
      <trkpt lat="42.62026" lon="1.61375">
        <ele>2468.1999511719</ele>
        <time>2023-07-21T09:18:05.000Z</time>
      </trkpt>
      <trkpt lat="42.62029" lon="1.6138">
        <ele>2469</ele>
        <time>2023-07-21T09:18:00.000Z</time>
      </trkpt>
      <trkpt lat="42.62031" lon="1.61385">
        <ele>2469.1999511719</ele>
        <time>2023-07-21T09:17:57.000Z</time>
      </trkpt>
      <trkpt lat="42.62032" lon="1.61388">
        <ele>2469.6000976562</ele>
        <time>2023-07-21T09:17:54.000Z</time>
      </trkpt>
      <trkpt lat="42.62038" lon="1.61397">
        <ele>2470.8000488281</ele>
        <time>2023-07-21T09:17:46.000Z</time>
      </trkpt>
      <trkpt lat="42.62042" lon="1.61407">
        <ele>2471</ele>
        <time>2023-07-21T09:17:39.000Z</time>
      </trkpt>
      <trkpt lat="42.62042" lon="1.61412">
        <ele>2471</ele>
        <time>2023-07-21T09:17:34.000Z</time>
      </trkpt>
      <trkpt lat="42.62038" lon="1.61408">
        <ele>2471</ele>
        <time>2023-07-21T09:17:27.000Z</time>
      </trkpt>
      <trkpt lat="42.62043" lon="1.6141">
        <ele>2471.1999511719</ele>
        <time>2023-07-21T09:17:19.000Z</time>
      </trkpt>
      <trkpt lat="42.62041" lon="1.6141">
        <ele>2471.1999511719</ele>
        <time>2023-07-21T09:17:16.000Z</time>
      </trkpt>
      <trkpt lat="42.6204" lon="1.61411">
        <ele>2471.1999511719</ele>
        <time>2023-07-21T09:17:12.000Z</time>
      </trkpt>
      <trkpt lat="42.62042" lon="1.61419">
        <ele>2471</ele>
        <time>2023-07-21T09:17:03.000Z</time>
      </trkpt>
      <trkpt lat="42.62046" lon="1.61425">
        <ele>2470.1999511719</ele>
        <time>2023-07-21T09:16:57.000Z</time>
      </trkpt>
      <trkpt lat="42.62047" lon="1.61427">
        <ele>2470</ele>
        <time>2023-07-21T09:16:55.000Z</time>
      </trkpt>
      <trkpt lat="42.62051" lon="1.61432">
        <ele>2469</ele>
        <time>2023-07-21T09:16:49.000Z</time>
      </trkpt>
      <trkpt lat="42.62051" lon="1.61433">
        <ele>2469</ele>
        <time>2023-07-21T09:16:48.000Z</time>
      </trkpt>
      <trkpt lat="42.62054" lon="1.61438">
        <ele>2468</ele>
        <time>2023-07-21T09:16:41.000Z</time>
      </trkpt>
      <trkpt lat="42.62054" lon="1.61439">
        <ele>2467.8000488281</ele>
        <time>2023-07-21T09:16:40.000Z</time>
      </trkpt>
      <trkpt lat="42.62056" lon="1.61446">
        <ele>2467.1999511719</ele>
        <time>2023-07-21T09:16:32.000Z</time>
      </trkpt>
      <trkpt lat="42.62056" lon="1.61448">
        <ele>2467</ele>
        <time>2023-07-21T09:16:31.000Z</time>
      </trkpt>
      <trkpt lat="42.62058" lon="1.6145">
        <ele>2466.3999023438</ele>
        <time>2023-07-21T09:16:28.000Z</time>
      </trkpt>
      <trkpt lat="42.62059" lon="1.61452">
        <ele>2465.8000488281</ele>
        <time>2023-07-21T09:16:26.000Z</time>
      </trkpt>
      <trkpt lat="42.62068" lon="1.61452">
        <ele>2465.1999511719</ele>
        <time>2023-07-21T09:16:18.000Z</time>
      </trkpt>
      <trkpt lat="42.62074" lon="1.61454">
        <ele>2464.8000488281</ele>
        <time>2023-07-21T09:16:10.000Z</time>
      </trkpt>
      <trkpt lat="42.6208" lon="1.61458">
        <ele>2464.3999023438</ele>
        <time>2023-07-21T09:16:01.000Z</time>
      </trkpt>
      <trkpt lat="42.62086" lon="1.61458">
        <ele>2464</ele>
        <time>2023-07-21T09:15:54.000Z</time>
      </trkpt>
      <trkpt lat="42.6209" lon="1.61457">
        <ele>2464.3999023438</ele>
        <time>2023-07-21T09:15:49.000Z</time>
      </trkpt>
      <trkpt lat="42.62095" lon="1.61461">
        <ele>2464.8000488281</ele>
        <time>2023-07-21T09:15:41.000Z</time>
      </trkpt>
      <trkpt lat="42.62097" lon="1.61466">
        <ele>2465.6000976562</ele>
        <time>2023-07-21T09:15:34.000Z</time>
      </trkpt>
      <trkpt lat="42.621" lon="1.61467">
        <ele>2466</ele>
        <time>2023-07-21T09:15:31.000Z</time>
      </trkpt>
      <trkpt lat="42.62101" lon="1.61465">
        <ele>2466.8000488281</ele>
        <time>2023-07-21T09:15:28.000Z</time>
      </trkpt>
      <trkpt lat="42.62103" lon="1.61467">
        <ele>2467.1999511719</ele>
        <time>2023-07-21T09:15:22.000Z</time>
      </trkpt>
      <trkpt lat="42.62104" lon="1.61468">
        <ele>2467.3999023438</ele>
        <time>2023-07-21T09:15:21.000Z</time>
      </trkpt>
      <trkpt lat="42.62106" lon="1.61468">
        <ele>2468.1999511719</ele>
        <time>2023-07-21T09:15:18.000Z</time>
      </trkpt>
      <trkpt lat="42.62108" lon="1.61468">
        <ele>2469</ele>
        <time>2023-07-21T09:15:13.000Z</time>
      </trkpt>
      <trkpt lat="42.62108" lon="1.61468">
        <ele>2469.3999023438</ele>
        <time>2023-07-21T09:15:12.000Z</time>
      </trkpt>
      <trkpt lat="42.6211" lon="1.61469">
        <ele>2470.6000976562</ele>
        <time>2023-07-21T09:15:05.000Z</time>
      </trkpt>
      <trkpt lat="42.6211" lon="1.61469">
        <ele>2470.8000488281</ele>
        <time>2023-07-21T09:15:04.000Z</time>
      </trkpt>
      <trkpt lat="42.62112" lon="1.61472">
        <ele>2471.8000488281</ele>
        <time>2023-07-21T09:14:59.000Z</time>
      </trkpt>
      <trkpt lat="42.62113" lon="1.61472">
        <ele>2472.1999511719</ele>
        <time>2023-07-21T09:14:57.000Z</time>
      </trkpt>
      <trkpt lat="42.62114" lon="1.61474">
        <ele>2473</ele>
        <time>2023-07-21T09:14:53.000Z</time>
      </trkpt>
      <trkpt lat="42.62115" lon="1.61476">
        <ele>2474</ele>
        <time>2023-07-21T09:14:50.000Z</time>
      </trkpt>
      <trkpt lat="42.62119" lon="1.61472">
        <ele>2475</ele>
        <time>2023-07-21T09:14:41.000Z</time>
      </trkpt>
      <trkpt lat="42.62119" lon="1.61472">
        <ele>2475.1999511719</ele>
        <time>2023-07-21T09:14:40.000Z</time>
      </trkpt>
      <trkpt lat="42.6212" lon="1.61473">
        <ele>2476.3999023438</ele>
        <time>2023-07-21T09:14:36.000Z</time>
      </trkpt>
      <trkpt lat="42.6212" lon="1.61474">
        <ele>2476.6000976562</ele>
        <time>2023-07-21T09:14:35.000Z</time>
      </trkpt>
      <trkpt lat="42.62122" lon="1.61478">
        <ele>2477.3999023438</ele>
        <time>2023-07-21T09:14:28.000Z</time>
      </trkpt>
      <trkpt lat="42.62123" lon="1.61479">
        <ele>2478</ele>
        <time>2023-07-21T09:14:26.000Z</time>
      </trkpt>
      <trkpt lat="42.62124" lon="1.6148">
        <ele>2478.6000976562</ele>
        <time>2023-07-21T09:14:24.000Z</time>
      </trkpt>
      <trkpt lat="42.62127" lon="1.61483">
        <ele>2479.6000976562</ele>
        <time>2023-07-21T09:14:19.000Z</time>
      </trkpt>
      <trkpt lat="42.62127" lon="1.61484">
        <ele>2479.8000488281</ele>
        <time>2023-07-21T09:14:18.000Z</time>
      </trkpt>
      <trkpt lat="42.62129" lon="1.61487">
        <ele>2480.6000976562</ele>
        <time>2023-07-21T09:14:14.000Z</time>
      </trkpt>
      <trkpt lat="42.62131" lon="1.6149">
        <ele>2481.3999023438</ele>
        <time>2023-07-21T09:14:11.000Z</time>
      </trkpt>
      <trkpt lat="42.62135" lon="1.61491">
        <ele>2481.8000488281</ele>
        <time>2023-07-21T09:14:05.000Z</time>
      </trkpt>
      <trkpt lat="42.62136" lon="1.61491">
        <ele>2482.6000976562</ele>
        <time>2023-07-21T09:14:03.000Z</time>
      </trkpt>
      <trkpt lat="42.62139" lon="1.61491">
        <ele>2483</ele>
        <time>2023-07-21T09:14:01.000Z</time>
      </trkpt>
      <trkpt lat="42.62143" lon="1.61494">
        <ele>2484</ele>
        <time>2023-07-21T09:13:55.000Z</time>
      </trkpt>
      <trkpt lat="42.62148" lon="1.61497">
        <ele>2485.1999511719</ele>
        <time>2023-07-21T09:13:47.000Z</time>
      </trkpt>
      <trkpt lat="42.62149" lon="1.61497">
        <ele>2485.3999023438</ele>
        <time>2023-07-21T09:13:46.000Z</time>
      </trkpt>
      <trkpt lat="42.62151" lon="1.61498">
        <ele>2486.3999023438</ele>
        <time>2023-07-21T09:13:43.000Z</time>
      </trkpt>
      <trkpt lat="42.62156" lon="1.61502">
        <ele>2487.1999511719</ele>
        <time>2023-07-21T09:13:38.000Z</time>
      </trkpt>
      <trkpt lat="42.62157" lon="1.61504">
        <ele>2487.3999023438</ele>
        <time>2023-07-21T09:13:36.000Z</time>
      </trkpt>
      <trkpt lat="42.62159" lon="1.61505">
        <ele>2488.3999023438</ele>
        <time>2023-07-21T09:13:33.000Z</time>
      </trkpt>
      <trkpt lat="42.62161" lon="1.61506">
        <ele>2489.1999511719</ele>
        <time>2023-07-21T09:13:30.000Z</time>
      </trkpt>
      <trkpt lat="42.62163" lon="1.61506">
        <ele>2489.3999023438</ele>
        <time>2023-07-21T09:13:28.000Z</time>
      </trkpt>
      <trkpt lat="42.62166" lon="1.61508">
        <ele>2490.8000488281</ele>
        <time>2023-07-21T09:13:23.000Z</time>
      </trkpt>
      <trkpt lat="42.6217" lon="1.61512">
        <ele>2490.8000488281</ele>
        <time>2023-07-21T09:13:15.000Z</time>
      </trkpt>
      <trkpt lat="42.62173" lon="1.61514">
        <ele>2490.6000976562</ele>
        <time>2023-07-21T09:13:10.000Z</time>
      </trkpt>
      <trkpt lat="42.62174" lon="1.61515">
        <ele>2490</ele>
        <time>2023-07-21T09:13:02.000Z</time>
      </trkpt>
      <trkpt lat="42.62174" lon="1.61513">
        <ele>2490.6000976562</ele>
        <time>2023-07-21T09:12:58.000Z</time>
      </trkpt>
      <trkpt lat="42.62175" lon="1.6151">
        <ele>2490.1999511719</ele>
        <time>2023-07-21T09:12:53.000Z</time>
      </trkpt>
      <trkpt lat="42.62173" lon="1.61512">
        <ele>2490</ele>
        <time>2023-07-21T09:12:46.000Z</time>
      </trkpt>
      <trkpt lat="42.62176" lon="1.61514">
        <ele>2489.8000488281</ele>
        <time>2023-07-21T09:12:39.000Z</time>
      </trkpt>
      <trkpt lat="42.6218" lon="1.61517">
        <ele>2490</ele>
        <time>2023-07-21T09:12:29.000Z</time>
      </trkpt>
      <trkpt lat="42.62182" lon="1.61524">
        <ele>2489.6000976562</ele>
        <time>2023-07-21T09:12:24.000Z</time>
      </trkpt>
      <trkpt lat="42.62182" lon="1.61525">
        <ele>2489</ele>
        <time>2023-07-21T09:12:23.000Z</time>
      </trkpt>
      <trkpt lat="42.62183" lon="1.61528">
        <ele>2488.3999023438</ele>
        <time>2023-07-21T09:12:20.000Z</time>
      </trkpt>
      <trkpt lat="42.62186" lon="1.61532">
        <ele>2487.3999023438</ele>
        <time>2023-07-21T09:12:14.000Z</time>
      </trkpt>
      <trkpt lat="42.62189" lon="1.6154">
        <ele>2486.3999023438</ele>
        <time>2023-07-21T09:12:06.000Z</time>
      </trkpt>
      <trkpt lat="42.62194" lon="1.61549">
        <ele>2486.3999023438</ele>
        <time>2023-07-21T09:11:58.000Z</time>
      </trkpt>
      <trkpt lat="42.62194" lon="1.6155">
        <ele>2486.1999511719</ele>
        <time>2023-07-21T09:11:57.000Z</time>
      </trkpt>
      <trkpt lat="42.622" lon="1.61555">
        <ele>2485.1999511719</ele>
        <time>2023-07-21T09:11:50.000Z</time>
      </trkpt>
      <trkpt lat="42.62204" lon="1.6156">
        <ele>2484.6000976562</ele>
        <time>2023-07-21T09:11:43.000Z</time>
      </trkpt>
      <trkpt lat="42.62208" lon="1.61568">
        <ele>2484.6000976562</ele>
        <time>2023-07-21T09:11:36.000Z</time>
      </trkpt>
      <trkpt lat="42.62213" lon="1.61579">
        <ele>2484.6000976562</ele>
        <time>2023-07-21T09:11:29.000Z</time>
      </trkpt>
      <trkpt lat="42.62216" lon="1.61585">
        <ele>2484.1999511719</ele>
        <time>2023-07-21T09:11:23.000Z</time>
      </trkpt>
      <trkpt lat="42.62218" lon="1.61596">
        <ele>2484.1999511719</ele>
        <time>2023-07-21T09:11:16.000Z</time>
      </trkpt>
      <trkpt lat="42.62222" lon="1.61604">
        <ele>2484.8000488281</ele>
        <time>2023-07-21T09:11:09.000Z</time>
      </trkpt>
      <trkpt lat="42.62226" lon="1.61607">
        <ele>2485.1999511719</ele>
        <time>2023-07-21T09:11:05.000Z</time>
      </trkpt>
      <trkpt lat="42.62229" lon="1.61611">
        <ele>2485.6000976562</ele>
        <time>2023-07-21T09:11:02.000Z</time>
      </trkpt>
      <trkpt lat="42.62231" lon="1.61615">
        <ele>2485.8000488281</ele>
        <time>2023-07-21T09:10:56.000Z</time>
      </trkpt>
      <trkpt lat="42.62232" lon="1.61624">
        <ele>2486</ele>
        <time>2023-07-21T09:10:48.000Z</time>
      </trkpt>
      <trkpt lat="42.62234" lon="1.61627">
        <ele>2486.1999511719</ele>
        <time>2023-07-21T09:10:44.000Z</time>
      </trkpt>
      <trkpt lat="42.62239" lon="1.61632">
        <ele>2486.8000488281</ele>
        <time>2023-07-21T09:10:39.000Z</time>
      </trkpt>
      <trkpt lat="42.62243" lon="1.61638">
        <ele>2486.8000488281</ele>
        <time>2023-07-21T09:10:33.000Z</time>
      </trkpt>
      <trkpt lat="42.62246" lon="1.61643">
        <ele>2487.1999511719</ele>
        <time>2023-07-21T09:10:27.000Z</time>
      </trkpt>
      <trkpt lat="42.62246" lon="1.61645">
        <ele>2487.3999023438</ele>
        <time>2023-07-21T09:10:26.000Z</time>
      </trkpt>
      <trkpt lat="42.62251" lon="1.61648">
        <ele>2488.3999023438</ele>
        <time>2023-07-21T09:10:21.000Z</time>
      </trkpt>
      <trkpt lat="42.62254" lon="1.61648">
        <ele>2489.3999023438</ele>
        <time>2023-07-21T09:10:17.000Z</time>
      </trkpt>
      <trkpt lat="42.62255" lon="1.61649">
        <ele>2489.6000976562</ele>
        <time>2023-07-21T09:10:16.000Z</time>
      </trkpt>
      <trkpt lat="42.62259" lon="1.61646">
        <ele>2490.8000488281</ele>
        <time>2023-07-21T09:10:09.000Z</time>
      </trkpt>
      <trkpt lat="42.62259" lon="1.61646">
        <ele>2491</ele>
        <time>2023-07-21T09:10:08.000Z</time>
      </trkpt>
      <trkpt lat="42.6226" lon="1.61646">
        <ele>2491.8000488281</ele>
        <time>2023-07-21T09:10:06.000Z</time>
      </trkpt>
      <trkpt lat="42.62262" lon="1.61649">
        <ele>2492.8000488281</ele>
        <time>2023-07-21T09:10:01.000Z</time>
      </trkpt>
      <trkpt lat="42.62263" lon="1.6165">
        <ele>2493.1999511719</ele>
        <time>2023-07-21T09:10:00.000Z</time>
      </trkpt>
      <trkpt lat="42.62265" lon="1.61651">
        <ele>2494</ele>
        <time>2023-07-21T09:09:56.000Z</time>
      </trkpt>
      <trkpt lat="42.62266" lon="1.61653">
        <ele>2495.1999511719</ele>
        <time>2023-07-21T09:09:54.000Z</time>
      </trkpt>
      <trkpt lat="42.62267" lon="1.61653">
        <ele>2495.6000976562</ele>
        <time>2023-07-21T09:09:51.000Z</time>
      </trkpt>
      <trkpt lat="42.62271" lon="1.61655">
        <ele>2496.1999511719</ele>
        <time>2023-07-21T09:09:44.000Z</time>
      </trkpt>
      <trkpt lat="42.62276" lon="1.61656">
        <ele>2496.6000976562</ele>
        <time>2023-07-21T09:09:38.000Z</time>
      </trkpt>
      <trkpt lat="42.62278" lon="1.61657">
        <ele>2497.1999511719</ele>
        <time>2023-07-21T09:09:34.000Z</time>
      </trkpt>
      <trkpt lat="42.62281" lon="1.6166">
        <ele>2498.1999511719</ele>
        <time>2023-07-21T09:09:29.000Z</time>
      </trkpt>
      <trkpt lat="42.62282" lon="1.61661">
        <ele>2498.1999511719</ele>
        <time>2023-07-21T09:09:28.000Z</time>
      </trkpt>
      <trkpt lat="42.62286" lon="1.61667">
        <ele>2499.3999023438</ele>
        <time>2023-07-21T09:09:22.000Z</time>
      </trkpt>
      <trkpt lat="42.62288" lon="1.6167">
        <ele>2500</ele>
        <time>2023-07-21T09:09:18.000Z</time>
      </trkpt>
      <trkpt lat="42.62289" lon="1.61671">
        <ele>2500.6000976562</ele>
        <time>2023-07-21T09:09:17.000Z</time>
      </trkpt>
      <trkpt lat="42.62293" lon="1.61676">
        <ele>2501.8000488281</ele>
        <time>2023-07-21T09:09:11.000Z</time>
      </trkpt>
      <trkpt lat="42.62295" lon="1.61678">
        <ele>2502</ele>
        <time>2023-07-21T09:09:09.000Z</time>
      </trkpt>
      <trkpt lat="42.62302" lon="1.61685">
        <ele>2502.6000976562</ele>
        <time>2023-07-21T09:09:00.000Z</time>
      </trkpt>
      <trkpt lat="42.62308" lon="1.61693">
        <ele>2502.8000488281</ele>
        <time>2023-07-21T09:08:51.000Z</time>
      </trkpt>
      <trkpt lat="42.62312" lon="1.61697">
        <ele>2503.3999023438</ele>
        <time>2023-07-21T09:08:43.000Z</time>
      </trkpt>
      <trkpt lat="42.62315" lon="1.61706">
        <ele>2503.8000488281</ele>
        <time>2023-07-21T09:08:34.000Z</time>
      </trkpt>
      <trkpt lat="42.62317" lon="1.61716">
        <ele>2503.6000976562</ele>
        <time>2023-07-21T09:08:25.000Z</time>
      </trkpt>
      <trkpt lat="42.62319" lon="1.61723">
        <ele>2503.6000976562</ele>
        <time>2023-07-21T09:08:17.000Z</time>
      </trkpt>
      <trkpt lat="42.62321" lon="1.61732">
        <ele>2502.8000488281</ele>
        <time>2023-07-21T09:08:08.000Z</time>
      </trkpt>
      <trkpt lat="42.62319" lon="1.61748">
        <ele>2502.6000976562</ele>
        <time>2023-07-21T09:07:58.000Z</time>
      </trkpt>
      <trkpt lat="42.6232" lon="1.61753">
        <ele>2503</ele>
        <time>2023-07-21T09:07:53.000Z</time>
      </trkpt>
      <trkpt lat="42.62321" lon="1.61758">
        <ele>2502.8000488281</ele>
        <time>2023-07-21T09:07:50.000Z</time>
      </trkpt>
      <trkpt lat="42.62321" lon="1.61763">
        <ele>2502.6000976562</ele>
        <time>2023-07-21T09:07:46.000Z</time>
      </trkpt>
      <trkpt lat="42.62317" lon="1.61773">
        <ele>2501.1999511719</ele>
        <time>2023-07-21T09:07:37.000Z</time>
      </trkpt>
      <trkpt lat="42.62314" lon="1.6178">
        <ele>2501</ele>
        <time>2023-07-21T09:07:30.000Z</time>
      </trkpt>
      <trkpt lat="42.62314" lon="1.61792">
        <ele>2501.1999511719</ele>
        <time>2023-07-21T09:07:22.000Z</time>
      </trkpt>
      <trkpt lat="42.62314" lon="1.61802">
        <ele>2501.1999511719</ele>
        <time>2023-07-21T09:07:14.000Z</time>
      </trkpt>
      <trkpt lat="42.62313" lon="1.61814">
        <ele>2501</ele>
        <time>2023-07-21T09:07:06.000Z</time>
      </trkpt>
      <trkpt lat="42.62313" lon="1.61823">
        <ele>2501</ele>
        <time>2023-07-21T09:06:59.000Z</time>
      </trkpt>
      <trkpt lat="42.62314" lon="1.61833">
        <ele>2501.6000976562</ele>
        <time>2023-07-21T09:06:52.000Z</time>
      </trkpt>
      <trkpt lat="42.62316" lon="1.61843">
        <ele>2501.8000488281</ele>
        <time>2023-07-21T09:06:45.000Z</time>
      </trkpt>
      <trkpt lat="42.62318" lon="1.61856">
        <ele>2502.3999023438</ele>
        <time>2023-07-21T09:06:38.000Z</time>
      </trkpt>
      <trkpt lat="42.62318" lon="1.61859">
        <ele>2503</ele>
        <time>2023-07-21T09:06:33.000Z</time>
      </trkpt>
      <trkpt lat="42.62317" lon="1.61864">
        <ele>2503.6000976562</ele>
        <time>2023-07-21T09:06:29.000Z</time>
      </trkpt>
      <trkpt lat="42.62316" lon="1.61868">
        <ele>2504</ele>
        <time>2023-07-21T09:06:26.000Z</time>
      </trkpt>
      <trkpt lat="42.62316" lon="1.61871">
        <ele>2504.6000976562</ele>
        <time>2023-07-21T09:06:22.000Z</time>
      </trkpt>
      <trkpt lat="42.62316" lon="1.6188">
        <ele>2505.1999511719</ele>
        <time>2023-07-21T09:06:15.000Z</time>
      </trkpt>
      <trkpt lat="42.62316" lon="1.61892">
        <ele>2505.8000488281</ele>
        <time>2023-07-21T09:06:08.000Z</time>
      </trkpt>
      <trkpt lat="42.62316" lon="1.61895">
        <ele>2506.1999511719</ele>
        <time>2023-07-21T09:06:04.000Z</time>
      </trkpt>
      <trkpt lat="42.62315" lon="1.619">
        <ele>2506.6000976562</ele>
        <time>2023-07-21T09:06:00.000Z</time>
      </trkpt>
      <trkpt lat="42.62314" lon="1.61908">
        <ele>2507.1999511719</ele>
        <time>2023-07-21T09:05:54.000Z</time>
      </trkpt>
      <trkpt lat="42.62313" lon="1.61913">
        <ele>2507.8000488281</ele>
        <time>2023-07-21T09:05:51.000Z</time>
      </trkpt>
      <trkpt lat="42.6231" lon="1.61921">
        <ele>2508.1999511719</ele>
        <time>2023-07-21T09:05:44.000Z</time>
      </trkpt>
      <trkpt lat="42.62309" lon="1.61923">
        <ele>2508.6000976562</ele>
        <time>2023-07-21T09:05:41.000Z</time>
      </trkpt>
      <trkpt lat="42.62309" lon="1.61928">
        <ele>2509.3999023438</ele>
        <time>2023-07-21T09:05:36.000Z</time>
      </trkpt>
      <trkpt lat="42.62308" lon="1.61938">
        <ele>2509.6000976562</ele>
        <time>2023-07-21T09:05:27.000Z</time>
      </trkpt>
      <trkpt lat="42.62308" lon="1.61936">
        <ele>2509.6000976562</ele>
        <time>2023-07-21T09:05:17.000Z</time>
      </trkpt>
      <trkpt lat="42.62308" lon="1.61937">
        <ele>2509.3999023438</ele>
        <time>2023-07-21T09:05:12.000Z</time>
      </trkpt>
      <trkpt lat="42.62309" lon="1.61942">
        <ele>2509.6000976562</ele>
        <time>2023-07-21T09:05:03.000Z</time>
      </trkpt>
      <trkpt lat="42.62307" lon="1.6194">
        <ele>2509.6000976562</ele>
        <time>2023-07-21T09:04:53.000Z</time>
      </trkpt>
      <trkpt lat="42.62308" lon="1.6194">
        <ele>2509.8000488281</ele>
        <time>2023-07-21T09:04:47.000Z</time>
      </trkpt>
      <trkpt lat="42.62308" lon="1.6194">
        <ele>2510</ele>
        <time>2023-07-21T09:04:44.000Z</time>
      </trkpt>
      <trkpt lat="42.62308" lon="1.6194">
        <ele>2510</ele>
        <time>2023-07-21T09:04:43.000Z</time>
      </trkpt>
      <trkpt lat="42.62305" lon="1.61946">
        <ele>2510.3999023438</ele>
        <time>2023-07-21T09:04:34.000Z</time>
      </trkpt>
      <trkpt lat="42.62305" lon="1.61951">
        <ele>2510.8000488281</ele>
        <time>2023-07-21T09:04:29.000Z</time>
      </trkpt>
      <trkpt lat="42.62304" lon="1.61954">
        <ele>2511.1999511719</ele>
        <time>2023-07-21T09:04:26.000Z</time>
      </trkpt>
      <trkpt lat="42.62304" lon="1.6196">
        <ele>2512</ele>
        <time>2023-07-21T09:04:18.000Z</time>
      </trkpt>
      <trkpt lat="42.62305" lon="1.61966">
        <ele>2511.8000488281</ele>
        <time>2023-07-21T09:04:11.000Z</time>
      </trkpt>
      <trkpt lat="42.62305" lon="1.61966">
        <ele>2511.8000488281</ele>
        <time>2023-07-21T09:04:10.000Z</time>
      </trkpt>
      <trkpt lat="42.62303" lon="1.61971">
        <ele>2511.8000488281</ele>
        <time>2023-07-21T09:04:04.000Z</time>
      </trkpt>
      <trkpt lat="42.62301" lon="1.61976">
        <ele>2511</ele>
        <time>2023-07-21T09:03:57.000Z</time>
      </trkpt>
      <trkpt lat="42.623" lon="1.61978">
        <ele>2510.8000488281</ele>
        <time>2023-07-21T09:03:53.000Z</time>
      </trkpt>
      <trkpt lat="42.62299" lon="1.61979">
        <ele>2510.3999023438</ele>
        <time>2023-07-21T09:03:50.000Z</time>
      </trkpt>
      <trkpt lat="42.623" lon="1.6198">
        <ele>2509.3999023438</ele>
        <time>2023-07-21T09:03:43.000Z</time>
      </trkpt>
      <trkpt lat="42.62299" lon="1.61986">
        <ele>2509.1999511719</ele>
        <time>2023-07-21T09:03:35.000Z</time>
      </trkpt>
      <trkpt lat="42.62298" lon="1.61996">
        <ele>2510.1999511719</ele>
        <time>2023-07-21T09:03:26.000Z</time>
      </trkpt>
      <trkpt lat="42.62297" lon="1.62002">
        <ele>2510.1999511719</ele>
        <time>2023-07-21T09:03:19.000Z</time>
      </trkpt>
      <trkpt lat="42.62296" lon="1.62004">
        <ele>2509.6000976562</ele>
        <time>2023-07-21T09:03:16.000Z</time>
      </trkpt>
      <trkpt lat="42.62295" lon="1.62006">
        <ele>2508.6000976562</ele>
        <time>2023-07-21T09:03:11.000Z</time>
      </trkpt>
      <trkpt lat="42.62295" lon="1.62006">
        <ele>2508.3999023438</ele>
        <time>2023-07-21T09:03:10.000Z</time>
      </trkpt>
      <trkpt lat="42.62294" lon="1.62005">
        <ele>2508</ele>
        <time>2023-07-21T09:03:04.000Z</time>
      </trkpt>
      <trkpt lat="42.62293" lon="1.6201">
        <ele>2508</ele>
        <time>2023-07-21T09:02:55.000Z</time>
      </trkpt>
      <trkpt lat="42.62294" lon="1.6201">
        <ele>2507.3999023438</ele>
        <time>2023-07-21T09:02:49.000Z</time>
      </trkpt>
      <trkpt lat="42.62293" lon="1.6201">
        <ele>2507.1999511719</ele>
        <time>2023-07-21T09:02:48.000Z</time>
      </trkpt>
      <trkpt lat="42.62293" lon="1.62011">
        <ele>2507.1999511719</ele>
        <time>2023-07-21T09:02:45.000Z</time>
      </trkpt>
      <trkpt lat="42.62292" lon="1.62011">
        <ele>2506.6000976562</ele>
        <time>2023-07-21T09:02:43.000Z</time>
      </trkpt>
      <trkpt lat="42.6229" lon="1.62011">
        <ele>2506</ele>
        <time>2023-07-21T09:02:39.000Z</time>
      </trkpt>
      <trkpt lat="42.62286" lon="1.62018">
        <ele>2506</ele>
        <time>2023-07-21T09:02:31.000Z</time>
      </trkpt>
      <trkpt lat="42.62286" lon="1.6202">
        <ele>2506.3999023438</ele>
        <time>2023-07-21T09:02:30.000Z</time>
      </trkpt>
      <trkpt lat="42.62287" lon="1.62026">
        <ele>2506.6000976562</ele>
        <time>2023-07-21T09:02:24.000Z</time>
      </trkpt>
      <trkpt lat="42.62285" lon="1.62036">
        <ele>2507.3999023438</ele>
        <time>2023-07-21T09:02:17.000Z</time>
      </trkpt>
      <trkpt lat="42.62284" lon="1.62045">
        <ele>2508.3999023438</ele>
        <time>2023-07-21T09:02:10.000Z</time>
      </trkpt>
      <trkpt lat="42.62284" lon="1.62046">
        <ele>2508.6000976562</ele>
        <time>2023-07-21T09:02:09.000Z</time>
      </trkpt>
      <trkpt lat="42.62283" lon="1.62055">
        <ele>2509.1999511719</ele>
        <time>2023-07-21T09:01:59.000Z</time>
      </trkpt>
      <trkpt lat="42.62283" lon="1.62063">
        <ele>2509.3999023438</ele>
        <time>2023-07-21T09:01:52.000Z</time>
      </trkpt>
      <trkpt lat="42.62283" lon="1.6207">
        <ele>2509.6000976562</ele>
        <time>2023-07-21T09:01:45.000Z</time>
      </trkpt>
      <trkpt lat="42.62285" lon="1.62082">
        <ele>2510</ele>
        <time>2023-07-21T09:01:35.000Z</time>
      </trkpt>
      <trkpt lat="42.62289" lon="1.62091">
        <ele>2510.3999023438</ele>
        <time>2023-07-21T09:01:28.000Z</time>
      </trkpt>
      <trkpt lat="42.62293" lon="1.621">
        <ele>2510.8000488281</ele>
        <time>2023-07-21T09:01:20.000Z</time>
      </trkpt>
      <trkpt lat="42.62296" lon="1.62101">
        <ele>2511</ele>
        <time>2023-07-21T09:01:12.000Z</time>
      </trkpt>
      <trkpt lat="42.62298" lon="1.621">
        <ele>2511.1999511719</ele>
        <time>2023-07-21T09:01:03.000Z</time>
      </trkpt>
      <trkpt lat="42.62295" lon="1.62095">
        <ele>2511.1999511719</ele>
        <time>2023-07-21T09:00:56.000Z</time>
      </trkpt>
      <trkpt lat="42.62294" lon="1.62088">
        <ele>2511.1999511719</ele>
        <time>2023-07-21T09:00:50.000Z</time>
      </trkpt>
      <trkpt lat="42.6229" lon="1.6209">
        <ele>2511.3999023438</ele>
        <time>2023-07-21T09:00:42.000Z</time>
      </trkpt>
      <trkpt lat="42.62289" lon="1.62089">
        <ele>2511.3999023438</ele>
        <time>2023-07-21T09:00:35.000Z</time>
      </trkpt>
      <trkpt lat="42.62289" lon="1.62088">
        <ele>2511.6000976562</ele>
        <time>2023-07-21T09:00:32.000Z</time>
      </trkpt>
      <trkpt lat="42.62288" lon="1.6209">
        <ele>2511.8000488281</ele>
        <time>2023-07-21T09:00:28.000Z</time>
      </trkpt>
      <trkpt lat="42.62286" lon="1.62091">
        <ele>2512</ele>
        <time>2023-07-21T09:00:22.000Z</time>
      </trkpt>
      <trkpt lat="42.6229" lon="1.62101">
        <ele>2512.6000976562</ele>
        <time>2023-07-21T09:00:13.000Z</time>
      </trkpt>
      <trkpt lat="42.62293" lon="1.62107">
        <ele>2512.8000488281</ele>
        <time>2023-07-21T09:00:07.000Z</time>
      </trkpt>
      <trkpt lat="42.62302" lon="1.62111">
        <ele>2512.6000976562</ele>
        <time>2023-07-21T08:59:58.000Z</time>
      </trkpt>
      <trkpt lat="42.62306" lon="1.62111">
        <ele>2512.8000488281</ele>
        <time>2023-07-21T08:59:52.000Z</time>
      </trkpt>
      <trkpt lat="42.62309" lon="1.62113">
        <ele>2512.8000488281</ele>
        <time>2023-07-21T08:59:47.000Z</time>
      </trkpt>
      <trkpt lat="42.62313" lon="1.62118">
        <ele>2512.3999023438</ele>
        <time>2023-07-21T08:59:41.000Z</time>
      </trkpt>
      <trkpt lat="42.62315" lon="1.62124">
        <ele>2512.3999023438</ele>
        <time>2023-07-21T08:59:34.000Z</time>
      </trkpt>
      <trkpt lat="42.62316" lon="1.62129">
        <ele>2512.6000976562</ele>
        <time>2023-07-21T08:59:29.000Z</time>
      </trkpt>
      <trkpt lat="42.62317" lon="1.62131">
        <ele>2512.3999023438</ele>
        <time>2023-07-21T08:59:27.000Z</time>
      </trkpt>
      <trkpt lat="42.62315" lon="1.6213">
        <ele>2511.3999023438</ele>
        <time>2023-07-21T08:59:23.000Z</time>
      </trkpt>
      <trkpt lat="42.62315" lon="1.62131">
        <ele>2511.1999511719</ele>
        <time>2023-07-21T08:59:22.000Z</time>
      </trkpt>
      <trkpt lat="42.62317" lon="1.62137">
        <ele>2510.3999023438</ele>
        <time>2023-07-21T08:59:14.000Z</time>
      </trkpt>
      <trkpt lat="42.62322" lon="1.62146">
        <ele>2510</ele>
        <time>2023-07-21T08:59:07.000Z</time>
      </trkpt>
      <trkpt lat="42.62325" lon="1.6215">
        <ele>2510.1999511719</ele>
        <time>2023-07-21T08:59:00.000Z</time>
      </trkpt>
      <trkpt lat="42.62331" lon="1.6216">
        <ele>2509</ele>
        <time>2023-07-21T08:58:51.000Z</time>
      </trkpt>
      <trkpt lat="42.6234" lon="1.62165">
        <ele>2509.3999023438</ele>
        <time>2023-07-21T08:58:42.000Z</time>
      </trkpt>
      <trkpt lat="42.62345" lon="1.6217">
        <ele>2509.6000976562</ele>
        <time>2023-07-21T08:58:33.000Z</time>
      </trkpt>
      <trkpt lat="42.62345" lon="1.62176">
        <ele>2509</ele>
        <time>2023-07-21T08:58:27.000Z</time>
      </trkpt>
      <trkpt lat="42.62345" lon="1.62177">
        <ele>2508.8000488281</ele>
        <time>2023-07-21T08:58:26.000Z</time>
      </trkpt>
      <trkpt lat="42.62347" lon="1.62185">
        <ele>2508</ele>
        <time>2023-07-21T08:58:17.000Z</time>
      </trkpt>
      <trkpt lat="42.62348" lon="1.62185">
        <ele>2507.8000488281</ele>
        <time>2023-07-21T08:58:16.000Z</time>
      </trkpt>
      <trkpt lat="42.62347" lon="1.62193">
        <ele>2506.8000488281</ele>
        <time>2023-07-21T08:58:09.000Z</time>
      </trkpt>
      <trkpt lat="42.62344" lon="1.62201">
        <ele>2505.8000488281</ele>
        <time>2023-07-21T08:58:01.000Z</time>
      </trkpt>
      <trkpt lat="42.62344" lon="1.62203">
        <ele>2505.6000976562</ele>
        <time>2023-07-21T08:57:59.000Z</time>
      </trkpt>
      <trkpt lat="42.62346" lon="1.6221">
        <ele>2505.6000976562</ele>
        <time>2023-07-21T08:57:50.000Z</time>
      </trkpt>
      <trkpt lat="42.62348" lon="1.62226">
        <ele>2504.8000488281</ele>
        <time>2023-07-21T08:57:39.000Z</time>
      </trkpt>
      <trkpt lat="42.62348" lon="1.62231">
        <ele>2504.6000976562</ele>
        <time>2023-07-21T08:57:35.000Z</time>
      </trkpt>
      <trkpt lat="42.62347" lon="1.62235">
        <ele>2504.3999023438</ele>
        <time>2023-07-21T08:57:30.000Z</time>
      </trkpt>
      <trkpt lat="42.62347" lon="1.62244">
        <ele>2503.6000976562</ele>
        <time>2023-07-21T08:57:22.000Z</time>
      </trkpt>
      <trkpt lat="42.62347" lon="1.62246">
        <ele>2503.6000976562</ele>
        <time>2023-07-21T08:57:21.000Z</time>
      </trkpt>
      <trkpt lat="42.62348" lon="1.62249">
        <ele>2502.3999023438</ele>
        <time>2023-07-21T08:57:16.000Z</time>
      </trkpt>
      <trkpt lat="42.6235" lon="1.62251">
        <ele>2502</ele>
        <time>2023-07-21T08:57:13.000Z</time>
      </trkpt>
      <trkpt lat="42.62353" lon="1.62255">
        <ele>2502</ele>
        <time>2023-07-21T08:57:07.000Z</time>
      </trkpt>
      <trkpt lat="42.62353" lon="1.62261">
        <ele>2501.6000976562</ele>
        <time>2023-07-21T08:56:58.000Z</time>
      </trkpt>
      <trkpt lat="42.62348" lon="1.62266">
        <ele>2501.3999023438</ele>
        <time>2023-07-21T08:56:50.000Z</time>
      </trkpt>
      <trkpt lat="42.62345" lon="1.62276">
        <ele>2500.6000976562</ele>
        <time>2023-07-21T08:56:41.000Z</time>
      </trkpt>
      <trkpt lat="42.62345" lon="1.62281">
        <ele>2500.1999511719</ele>
        <time>2023-07-21T08:56:35.000Z</time>
      </trkpt>
      <trkpt lat="42.62345" lon="1.62283">
        <ele>2500.1999511719</ele>
        <time>2023-07-21T08:56:33.000Z</time>
      </trkpt>
      <trkpt lat="42.62345" lon="1.62291">
        <ele>2499.1999511719</ele>
        <time>2023-07-21T08:56:25.000Z</time>
      </trkpt>
      <trkpt lat="42.62344" lon="1.62294">
        <ele>2498.1999511719</ele>
        <time>2023-07-21T08:56:19.000Z</time>
      </trkpt>
      <trkpt lat="42.62344" lon="1.62295">
        <ele>2498</ele>
        <time>2023-07-21T08:56:18.000Z</time>
      </trkpt>
      <trkpt lat="42.62343" lon="1.62299">
        <ele>2497.1999511719</ele>
        <time>2023-07-21T08:56:11.000Z</time>
      </trkpt>
      <trkpt lat="42.62343" lon="1.62299">
        <ele>2496.8000488281</ele>
        <time>2023-07-21T08:56:10.000Z</time>
      </trkpt>
      <trkpt lat="42.62343" lon="1.62305">
        <ele>2496</ele>
        <time>2023-07-21T08:56:04.000Z</time>
      </trkpt>
      <trkpt lat="42.62343" lon="1.62307">
        <ele>2495.6000976562</ele>
        <time>2023-07-21T08:56:02.000Z</time>
      </trkpt>
      <trkpt lat="42.62342" lon="1.62307">
        <ele>2495</ele>
        <time>2023-07-21T08:55:59.000Z</time>
      </trkpt>
      <trkpt lat="42.62342" lon="1.62308">
        <ele>2494.1999511719</ele>
        <time>2023-07-21T08:55:55.000Z</time>
      </trkpt>
      <trkpt lat="42.62342" lon="1.6231">
        <ele>2493.8000488281</ele>
        <time>2023-07-21T08:55:52.000Z</time>
      </trkpt>
      <trkpt lat="42.62341" lon="1.62313">
        <ele>2493</ele>
        <time>2023-07-21T08:55:48.000Z</time>
      </trkpt>
      <trkpt lat="42.62341" lon="1.62314">
        <ele>2492.8000488281</ele>
        <time>2023-07-21T08:55:46.000Z</time>
      </trkpt>
      <trkpt lat="42.6234" lon="1.62318">
        <ele>2492.1999511719</ele>
        <time>2023-07-21T08:55:41.000Z</time>
      </trkpt>
      <trkpt lat="42.62341" lon="1.62321">
        <ele>2491.8000488281</ele>
        <time>2023-07-21T08:55:36.000Z</time>
      </trkpt>
      <trkpt lat="42.62342" lon="1.62321">
        <ele>2491.3999023438</ele>
        <time>2023-07-21T08:55:34.000Z</time>
      </trkpt>
      <trkpt lat="42.62341" lon="1.62325">
        <ele>2490.6000976562</ele>
        <time>2023-07-21T08:55:31.000Z</time>
      </trkpt>
      <trkpt lat="42.6234" lon="1.62326">
        <ele>2490.1999511719</ele>
        <time>2023-07-21T08:55:28.000Z</time>
      </trkpt>
      <trkpt lat="42.62338" lon="1.62328">
        <ele>2489.3999023438</ele>
        <time>2023-07-21T08:55:23.000Z</time>
      </trkpt>
      <trkpt lat="42.62338" lon="1.62328">
        <ele>2488.8000488281</ele>
        <time>2023-07-21T08:55:20.000Z</time>
      </trkpt>
      <trkpt lat="42.62338" lon="1.62329">
        <ele>2488.1999511719</ele>
        <time>2023-07-21T08:55:17.000Z</time>
      </trkpt>
      <trkpt lat="42.62337" lon="1.6233">
        <ele>2487.3999023438</ele>
        <time>2023-07-21T08:55:12.000Z</time>
      </trkpt>
      <trkpt lat="42.62336" lon="1.62331">
        <ele>2487</ele>
        <time>2023-07-21T08:55:10.000Z</time>
      </trkpt>
      <trkpt lat="42.62336" lon="1.62336">
        <ele>2486</ele>
        <time>2023-07-21T08:55:04.000Z</time>
      </trkpt>
      <trkpt lat="42.62336" lon="1.62338">
        <ele>2486</ele>
        <time>2023-07-21T08:55:03.000Z</time>
      </trkpt>
      <trkpt lat="42.62335" lon="1.62341">
        <ele>2485</ele>
        <time>2023-07-21T08:54:58.000Z</time>
      </trkpt>
      <trkpt lat="42.62335" lon="1.62342">
        <ele>2484.8000488281</ele>
        <time>2023-07-21T08:54:57.000Z</time>
      </trkpt>
      <trkpt lat="42.62335" lon="1.62347">
        <ele>2483.8000488281</ele>
        <time>2023-07-21T08:54:50.000Z</time>
      </trkpt>
      <trkpt lat="42.62334" lon="1.62351">
        <ele>2482.8000488281</ele>
        <time>2023-07-21T08:54:43.000Z</time>
      </trkpt>
      <trkpt lat="42.62334" lon="1.62353">
        <ele>2482.1999511719</ele>
        <time>2023-07-21T08:54:41.000Z</time>
      </trkpt>
      <trkpt lat="42.62334" lon="1.62356">
        <ele>2481.3999023438</ele>
        <time>2023-07-21T08:54:37.000Z</time>
      </trkpt>
      <trkpt lat="42.62333" lon="1.6236">
        <ele>2481.1999511719</ele>
        <time>2023-07-21T08:54:33.000Z</time>
      </trkpt>
      <trkpt lat="42.62333" lon="1.62366">
        <ele>2481</ele>
        <time>2023-07-21T08:54:27.000Z</time>
      </trkpt>
      <trkpt lat="42.6233" lon="1.62374">
        <ele>2480.1999511719</ele>
        <time>2023-07-21T08:54:19.000Z</time>
      </trkpt>
      <trkpt lat="42.62328" lon="1.62377">
        <ele>2480.3999023438</ele>
        <time>2023-07-21T08:54:11.000Z</time>
      </trkpt>
      <trkpt lat="42.62326" lon="1.62383">
        <ele>2480.6000976562</ele>
        <time>2023-07-21T08:54:03.000Z</time>
      </trkpt>
      <trkpt lat="42.62324" lon="1.62388">
        <ele>2480.6000976562</ele>
        <time>2023-07-21T08:53:57.000Z</time>
      </trkpt>
      <trkpt lat="42.62323" lon="1.62392">
        <ele>2480.8000488281</ele>
        <time>2023-07-21T08:53:50.000Z</time>
      </trkpt>
      <trkpt lat="42.62323" lon="1.62398">
        <ele>2480.6000976562</ele>
        <time>2023-07-21T08:53:44.000Z</time>
      </trkpt>
      <trkpt lat="42.62323" lon="1.62398">
        <ele>2480.3999023438</ele>
        <time>2023-07-21T08:53:43.000Z</time>
      </trkpt>
      <trkpt lat="42.62323" lon="1.62399">
        <ele>2479.6000976562</ele>
        <time>2023-07-21T08:53:38.000Z</time>
      </trkpt>
      <trkpt lat="42.62324" lon="1.62405">
        <ele>2479.1999511719</ele>
        <time>2023-07-21T08:53:30.000Z</time>
      </trkpt>
      <trkpt lat="42.62321" lon="1.6241">
        <ele>2479</ele>
        <time>2023-07-21T08:53:21.000Z</time>
      </trkpt>
      <trkpt lat="42.62321" lon="1.62411">
        <ele>2478.8000488281</ele>
        <time>2023-07-21T08:53:20.000Z</time>
      </trkpt>
      <trkpt lat="42.62323" lon="1.62418">
        <ele>2478</ele>
        <time>2023-07-21T08:53:12.000Z</time>
      </trkpt>
      <trkpt lat="42.62324" lon="1.62419">
        <ele>2477.8000488281</ele>
        <time>2023-07-21T08:53:08.000Z</time>
      </trkpt>
      <trkpt lat="42.62325" lon="1.6242">
        <ele>2476.6000976562</ele>
        <time>2023-07-21T08:53:04.000Z</time>
      </trkpt>
      <trkpt lat="42.62327" lon="1.6242">
        <ele>2476.8000488281</ele>
        <time>2023-07-21T08:52:57.000Z</time>
      </trkpt>
      <trkpt lat="42.62326" lon="1.62421">
        <ele>2476.3999023438</ele>
        <time>2023-07-21T08:52:53.000Z</time>
      </trkpt>
      <trkpt lat="42.62325" lon="1.62421">
        <ele>2475.1999511719</ele>
        <time>2023-07-21T08:52:49.000Z</time>
      </trkpt>
      <trkpt lat="42.62324" lon="1.62423">
        <ele>2474.1999511719</ele>
        <time>2023-07-21T08:52:42.000Z</time>
      </trkpt>
      <trkpt lat="42.62325" lon="1.62424">
        <ele>2474</ele>
        <time>2023-07-21T08:52:39.000Z</time>
      </trkpt>
      <trkpt lat="42.62325" lon="1.62428">
        <ele>2473.1999511719</ele>
        <time>2023-07-21T08:52:33.000Z</time>
      </trkpt>
      <trkpt lat="42.62325" lon="1.6243">
        <ele>2472.8000488281</ele>
        <time>2023-07-21T08:52:31.000Z</time>
      </trkpt>
      <trkpt lat="42.62325" lon="1.62434">
        <ele>2472.1999511719</ele>
        <time>2023-07-21T08:52:27.000Z</time>
      </trkpt>
      <trkpt lat="42.62324" lon="1.62436">
        <ele>2471.8000488281</ele>
        <time>2023-07-21T08:52:25.000Z</time>
      </trkpt>
      <trkpt lat="42.62324" lon="1.62438">
        <ele>2471.1999511719</ele>
        <time>2023-07-21T08:52:21.000Z</time>
      </trkpt>
      <trkpt lat="42.62323" lon="1.62442">
        <ele>2470.1999511719</ele>
        <time>2023-07-21T08:52:16.000Z</time>
      </trkpt>
      <trkpt lat="42.62322" lon="1.62442">
        <ele>2470</ele>
        <time>2023-07-21T08:52:15.000Z</time>
      </trkpt>
      <trkpt lat="42.62321" lon="1.62445">
        <ele>2469.1999511719</ele>
        <time>2023-07-21T08:52:10.000Z</time>
      </trkpt>
      <trkpt lat="42.62321" lon="1.62446">
        <ele>2469</ele>
        <time>2023-07-21T08:52:08.000Z</time>
      </trkpt>
      <trkpt lat="42.6232" lon="1.62452">
        <ele>2468</ele>
        <time>2023-07-21T08:52:02.000Z</time>
      </trkpt>
      <trkpt lat="42.6232" lon="1.62453">
        <ele>2467.8000488281</ele>
        <time>2023-07-21T08:52:00.000Z</time>
      </trkpt>
      <trkpt lat="42.62322" lon="1.62458">
        <ele>2467.1999511719</ele>
        <time>2023-07-21T08:51:52.000Z</time>
      </trkpt>
      <trkpt lat="42.62322" lon="1.62461">
        <ele>2466.8000488281</ele>
        <time>2023-07-21T08:51:49.000Z</time>
      </trkpt>
      <trkpt lat="42.62322" lon="1.62465">
        <ele>2466</ele>
        <time>2023-07-21T08:51:44.000Z</time>
      </trkpt>
      <trkpt lat="42.62321" lon="1.62466">
        <ele>2465.6000976562</ele>
        <time>2023-07-21T08:51:41.000Z</time>
      </trkpt>
      <trkpt lat="42.6232" lon="1.62467">
        <ele>2465</ele>
        <time>2023-07-21T08:51:37.000Z</time>
      </trkpt>
      <trkpt lat="42.62319" lon="1.62467">
        <ele>2464.6000976562</ele>
        <time>2023-07-21T08:51:35.000Z</time>
      </trkpt>
      <trkpt lat="42.62318" lon="1.62466">
        <ele>2464</ele>
        <time>2023-07-21T08:51:30.000Z</time>
      </trkpt>
      <trkpt lat="42.62317" lon="1.62466">
        <ele>2463.6000976562</ele>
        <time>2023-07-21T08:51:27.000Z</time>
      </trkpt>
      <trkpt lat="42.62316" lon="1.62465">
        <ele>2462.8000488281</ele>
        <time>2023-07-21T08:51:22.000Z</time>
      </trkpt>
      <trkpt lat="42.62315" lon="1.62466">
        <ele>2462.6000976562</ele>
        <time>2023-07-21T08:51:20.000Z</time>
      </trkpt>
      <trkpt lat="42.62312" lon="1.62465">
        <ele>2461.6000976562</ele>
        <time>2023-07-21T08:51:14.000Z</time>
      </trkpt>
      <trkpt lat="42.62312" lon="1.62465">
        <ele>2461.3999023438</ele>
        <time>2023-07-21T08:51:13.000Z</time>
      </trkpt>
      <trkpt lat="42.6231" lon="1.62466">
        <ele>2460.6000976562</ele>
        <time>2023-07-21T08:51:07.000Z</time>
      </trkpt>
      <trkpt lat="42.62308" lon="1.62467">
        <ele>2460.3999023438</ele>
        <time>2023-07-21T08:51:03.000Z</time>
      </trkpt>
      <trkpt lat="42.62307" lon="1.62469">
        <ele>2459.8000488281</ele>
        <time>2023-07-21T08:50:59.000Z</time>
      </trkpt>
      <trkpt lat="42.62307" lon="1.62469">
        <ele>2459.3999023438</ele>
        <time>2023-07-21T08:50:55.000Z</time>
      </trkpt>
      <trkpt lat="42.62306" lon="1.62469">
        <ele>2459</ele>
        <time>2023-07-21T08:50:53.000Z</time>
      </trkpt>
      <trkpt lat="42.62302" lon="1.6247">
        <ele>2458.1999511719</ele>
        <time>2023-07-21T08:50:48.000Z</time>
      </trkpt>
      <trkpt lat="42.62302" lon="1.62471">
        <ele>2457.3999023438</ele>
        <time>2023-07-21T08:50:43.000Z</time>
      </trkpt>
      <trkpt lat="42.623" lon="1.62471">
        <ele>2457.1999511719</ele>
        <time>2023-07-21T08:50:36.000Z</time>
      </trkpt>
      <trkpt lat="42.62299" lon="1.62473">
        <ele>2457.3999023438</ele>
        <time>2023-07-21T08:50:28.000Z</time>
      </trkpt>
      <trkpt lat="42.62299" lon="1.62472">
        <ele>2457.1999511719</ele>
        <time>2023-07-21T08:50:27.000Z</time>
      </trkpt>
      <trkpt lat="42.62298" lon="1.62472">
        <ele>2456</ele>
        <time>2023-07-21T08:50:18.000Z</time>
      </trkpt>
      <trkpt lat="42.62293" lon="1.62475">
        <ele>2455</ele>
        <time>2023-07-21T08:50:09.000Z</time>
      </trkpt>
      <trkpt lat="42.62293" lon="1.62475">
        <ele>2454.8000488281</ele>
        <time>2023-07-21T08:50:08.000Z</time>
      </trkpt>
      <trkpt lat="42.62292" lon="1.62477">
        <ele>2453.6000976562</ele>
        <time>2023-07-21T08:50:00.000Z</time>
      </trkpt>
      <trkpt lat="42.6229" lon="1.62482">
        <ele>2452.3999023438</ele>
        <time>2023-07-21T08:49:52.000Z</time>
      </trkpt>
      <trkpt lat="42.62289" lon="1.62483">
        <ele>2452.1999511719</ele>
        <time>2023-07-21T08:49:50.000Z</time>
      </trkpt>
      <trkpt lat="42.62288" lon="1.62483">
        <ele>2451.3999023438</ele>
        <time>2023-07-21T08:49:45.000Z</time>
      </trkpt>
      <trkpt lat="42.62287" lon="1.62484">
        <ele>2450.8000488281</ele>
        <time>2023-07-21T08:49:42.000Z</time>
      </trkpt>
      <trkpt lat="42.62285" lon="1.62486">
        <ele>2450.3999023438</ele>
        <time>2023-07-21T08:49:38.000Z</time>
      </trkpt>
      <trkpt lat="42.62284" lon="1.62488">
        <ele>2450</ele>
        <time>2023-07-21T08:49:34.000Z</time>
      </trkpt>
      <trkpt lat="42.62282" lon="1.62492">
        <ele>2449.1999511719</ele>
        <time>2023-07-21T08:49:27.000Z</time>
      </trkpt>
      <trkpt lat="42.62281" lon="1.62494">
        <ele>2448.6000976562</ele>
        <time>2023-07-21T08:49:21.000Z</time>
      </trkpt>
      <trkpt lat="42.62281" lon="1.62495">
        <ele>2448.1999511719</ele>
        <time>2023-07-21T08:49:19.000Z</time>
      </trkpt>
      <trkpt lat="42.6228" lon="1.62498">
        <ele>2447.1999511719</ele>
        <time>2023-07-21T08:49:13.000Z</time>
      </trkpt>
      <trkpt lat="42.62278" lon="1.62502">
        <ele>2446</ele>
        <time>2023-07-21T08:49:06.000Z</time>
      </trkpt>
      <trkpt lat="42.62278" lon="1.62506">
        <ele>2445</ele>
        <time>2023-07-21T08:48:59.000Z</time>
      </trkpt>
      <trkpt lat="42.62278" lon="1.62506">
        <ele>2444.8000488281</ele>
        <time>2023-07-21T08:48:58.000Z</time>
      </trkpt>
      <trkpt lat="42.62278" lon="1.62511">
        <ele>2444</ele>
        <time>2023-07-21T08:48:51.000Z</time>
      </trkpt>
      <trkpt lat="42.62278" lon="1.62511">
        <ele>2443.8000488281</ele>
        <time>2023-07-21T08:48:50.000Z</time>
      </trkpt>
      <trkpt lat="42.62278" lon="1.62512">
        <ele>2442.8000488281</ele>
        <time>2023-07-21T08:48:45.000Z</time>
      </trkpt>
      <trkpt lat="42.62278" lon="1.62514">
        <ele>2442.3999023438</ele>
        <time>2023-07-21T08:48:43.000Z</time>
      </trkpt>
      <trkpt lat="42.62277" lon="1.62517">
        <ele>2441.8000488281</ele>
        <time>2023-07-21T08:48:38.000Z</time>
      </trkpt>
      <trkpt lat="42.62276" lon="1.62518">
        <ele>2441.1999511719</ele>
        <time>2023-07-21T08:48:35.000Z</time>
      </trkpt>
      <trkpt lat="42.62275" lon="1.6252">
        <ele>2440.6000976562</ele>
        <time>2023-07-21T08:48:32.000Z</time>
      </trkpt>
      <trkpt lat="42.62273" lon="1.62522">
        <ele>2439.8000488281</ele>
        <time>2023-07-21T08:48:27.000Z</time>
      </trkpt>
      <trkpt lat="42.62273" lon="1.62521">
        <ele>2439.6000976562</ele>
        <time>2023-07-21T08:48:26.000Z</time>
      </trkpt>
      <trkpt lat="42.62272" lon="1.6252">
        <ele>2438.8000488281</ele>
        <time>2023-07-21T08:48:21.000Z</time>
      </trkpt>
      <trkpt lat="42.62271" lon="1.62521">
        <ele>2438.3999023438</ele>
        <time>2023-07-21T08:48:18.000Z</time>
      </trkpt>
      <trkpt lat="42.6227" lon="1.62521">
        <ele>2437.8000488281</ele>
        <time>2023-07-21T08:48:14.000Z</time>
      </trkpt>
      <trkpt lat="42.62269" lon="1.62522">
        <ele>2437.6000976562</ele>
        <time>2023-07-21T08:48:11.000Z</time>
      </trkpt>
      <trkpt lat="42.62269" lon="1.62523">
        <ele>2437.3999023438</ele>
        <time>2023-07-21T08:48:10.000Z</time>
      </trkpt>
      <trkpt lat="42.62269" lon="1.62526">
        <ele>2436.3999023438</ele>
        <time>2023-07-21T08:48:05.000Z</time>
      </trkpt>
      <trkpt lat="42.62268" lon="1.62527">
        <ele>2436</ele>
        <time>2023-07-21T08:48:03.000Z</time>
      </trkpt>
      <trkpt lat="42.62268" lon="1.62529">
        <ele>2435.3999023438</ele>
        <time>2023-07-21T08:47:59.000Z</time>
      </trkpt>
      <trkpt lat="42.62269" lon="1.62532">
        <ele>2434.6000976562</ele>
        <time>2023-07-21T08:47:55.000Z</time>
      </trkpt>
      <trkpt lat="42.6227" lon="1.62536">
        <ele>2434.1999511719</ele>
        <time>2023-07-21T08:47:52.000Z</time>
      </trkpt>
      <trkpt lat="42.6227" lon="1.62542">
        <ele>2433.1999511719</ele>
        <time>2023-07-21T08:47:46.000Z</time>
      </trkpt>
      <trkpt lat="42.6227" lon="1.62542">
        <ele>2433</ele>
        <time>2023-07-21T08:47:45.000Z</time>
      </trkpt>
      <trkpt lat="42.62269" lon="1.62545">
        <ele>2432</ele>
        <time>2023-07-21T08:47:38.000Z</time>
      </trkpt>
      <trkpt lat="42.62268" lon="1.62545">
        <ele>2431.8000488281</ele>
        <time>2023-07-21T08:47:37.000Z</time>
      </trkpt>
      <trkpt lat="42.62265" lon="1.6255">
        <ele>2431</ele>
        <time>2023-07-21T08:47:29.000Z</time>
      </trkpt>
      <trkpt lat="42.62262" lon="1.62556">
        <ele>2429.8000488281</ele>
        <time>2023-07-21T08:47:21.000Z</time>
      </trkpt>
      <trkpt lat="42.62262" lon="1.62556">
        <ele>2429.8000488281</ele>
        <time>2023-07-21T08:47:20.000Z</time>
      </trkpt>
      <trkpt lat="42.6226" lon="1.6256">
        <ele>2429</ele>
        <time>2023-07-21T08:47:12.000Z</time>
      </trkpt>
      <trkpt lat="42.62259" lon="1.62561">
        <ele>2428.8000488281</ele>
        <time>2023-07-21T08:47:10.000Z</time>
      </trkpt>
      <trkpt lat="42.62255" lon="1.62565">
        <ele>2428.1999511719</ele>
        <time>2023-07-21T08:47:03.000Z</time>
      </trkpt>
      <trkpt lat="42.62254" lon="1.62566">
        <ele>2427.8000488281</ele>
        <time>2023-07-21T08:47:01.000Z</time>
      </trkpt>
      <trkpt lat="42.62251" lon="1.6257">
        <ele>2427.1999511719</ele>
        <time>2023-07-21T08:46:56.000Z</time>
      </trkpt>
      <trkpt lat="42.62249" lon="1.62574">
        <ele>2426.8000488281</ele>
        <time>2023-07-21T08:46:50.000Z</time>
      </trkpt>
      <trkpt lat="42.62249" lon="1.62575">
        <ele>2426.6000976562</ele>
        <time>2023-07-21T08:46:49.000Z</time>
      </trkpt>
      <trkpt lat="42.62248" lon="1.62578">
        <ele>2425.6000976562</ele>
        <time>2023-07-21T08:46:44.000Z</time>
      </trkpt>
      <trkpt lat="42.62248" lon="1.62579">
        <ele>2425.3999023438</ele>
        <time>2023-07-21T08:46:42.000Z</time>
      </trkpt>
      <trkpt lat="42.62248" lon="1.62579">
        <ele>2424.6000976562</ele>
        <time>2023-07-21T08:46:36.000Z</time>
      </trkpt>
      <trkpt lat="42.62245" lon="1.62581">
        <ele>2423.6000976562</ele>
        <time>2023-07-21T08:46:28.000Z</time>
      </trkpt>
      <trkpt lat="42.62245" lon="1.6258">
        <ele>2423.3999023438</ele>
        <time>2023-07-21T08:46:20.000Z</time>
      </trkpt>
      <trkpt lat="42.62245" lon="1.6258">
        <ele>2422.8000488281</ele>
        <time>2023-07-21T08:46:10.000Z</time>
      </trkpt>
      <trkpt lat="42.62245" lon="1.6258">
        <ele>2422.6000976562</ele>
        <time>2023-07-21T08:46:02.000Z</time>
      </trkpt>
      <trkpt lat="42.62245" lon="1.6258">
        <ele>2423</ele>
        <time>2023-07-21T08:45:51.000Z</time>
      </trkpt>
      <trkpt lat="42.62246" lon="1.62582">
        <ele>2423.3999023438</ele>
        <time>2023-07-21T08:45:41.000Z</time>
      </trkpt>
      <trkpt lat="42.62245" lon="1.62581">
        <ele>2423.3999023438</ele>
        <time>2023-07-21T08:45:31.000Z</time>
      </trkpt>
      <trkpt lat="42.62245" lon="1.62581">
        <ele>2423.3999023438</ele>
        <time>2023-07-21T08:45:23.000Z</time>
      </trkpt>
      <trkpt lat="42.62245" lon="1.62582">
        <ele>2424.3999023438</ele>
        <time>2023-07-21T08:45:14.000Z</time>
      </trkpt>
      <trkpt lat="42.62246" lon="1.62585">
        <ele>2425.1999511719</ele>
        <time>2023-07-21T08:45:08.000Z</time>
      </trkpt>
      <trkpt lat="42.62245" lon="1.62587">
        <ele>2425.3999023438</ele>
        <time>2023-07-21T08:45:00.000Z</time>
      </trkpt>
      <trkpt lat="42.62244" lon="1.62586">
        <ele>2425.1999511719</ele>
        <time>2023-07-21T08:44:50.000Z</time>
      </trkpt>
      <trkpt lat="42.62244" lon="1.62587">
        <ele>2424.6000976562</ele>
        <time>2023-07-21T08:44:44.000Z</time>
      </trkpt>
      <trkpt lat="42.62242" lon="1.6259">
        <ele>2423.8000488281</ele>
        <time>2023-07-21T08:44:37.000Z</time>
      </trkpt>
      <trkpt lat="42.62241" lon="1.62591">
        <ele>2423.3999023438</ele>
        <time>2023-07-21T08:44:34.000Z</time>
      </trkpt>
      <trkpt lat="42.6224" lon="1.62591">
        <ele>2422.8000488281</ele>
        <time>2023-07-21T08:44:30.000Z</time>
      </trkpt>
      <trkpt lat="42.62239" lon="1.62597">
        <ele>2422.3999023438</ele>
        <time>2023-07-21T08:44:25.000Z</time>
      </trkpt>
      <trkpt lat="42.62239" lon="1.62599">
        <ele>2422</ele>
        <time>2023-07-21T08:44:23.000Z</time>
      </trkpt>
      <trkpt lat="42.62238" lon="1.62603">
        <ele>2422</ele>
        <time>2023-07-21T08:44:15.000Z</time>
      </trkpt>
      <trkpt lat="42.62236" lon="1.62602">
        <ele>2421.1999511719</ele>
        <time>2023-07-21T08:44:11.000Z</time>
      </trkpt>
      <trkpt lat="42.62235" lon="1.62603">
        <ele>2420.3999023438</ele>
        <time>2023-07-21T08:44:07.000Z</time>
      </trkpt>
      <trkpt lat="42.62234" lon="1.62603">
        <ele>2420.1999511719</ele>
        <time>2023-07-21T08:44:05.000Z</time>
      </trkpt>
      <trkpt lat="42.62234" lon="1.62604">
        <ele>2419</ele>
        <time>2023-07-21T08:44:00.000Z</time>
      </trkpt>
      <trkpt lat="42.62233" lon="1.62609">
        <ele>2417.8000488281</ele>
        <time>2023-07-21T08:43:53.000Z</time>
      </trkpt>
      <trkpt lat="42.62233" lon="1.62609">
        <ele>2417.6000976562</ele>
        <time>2023-07-21T08:43:51.000Z</time>
      </trkpt>
      <trkpt lat="42.6223" lon="1.62611">
        <ele>2416.8000488281</ele>
        <time>2023-07-21T08:43:45.000Z</time>
      </trkpt>
      <trkpt lat="42.62229" lon="1.62613">
        <ele>2416.1999511719</ele>
        <time>2023-07-21T08:43:42.000Z</time>
      </trkpt>
      <trkpt lat="42.62228" lon="1.62616">
        <ele>2415.6000976562</ele>
        <time>2023-07-21T08:43:39.000Z</time>
      </trkpt>
      <trkpt lat="42.62227" lon="1.62617">
        <ele>2414.8000488281</ele>
        <time>2023-07-21T08:43:35.000Z</time>
      </trkpt>
      <trkpt lat="42.62225" lon="1.62619">
        <ele>2414.3999023438</ele>
        <time>2023-07-21T08:43:32.000Z</time>
      </trkpt>
      <trkpt lat="42.62223" lon="1.62621">
        <ele>2413.8000488281</ele>
        <time>2023-07-21T08:43:26.000Z</time>
      </trkpt>
      <trkpt lat="42.62221" lon="1.62621">
        <ele>2413.6000976562</ele>
        <time>2023-07-21T08:43:21.000Z</time>
      </trkpt>
      <trkpt lat="42.6222" lon="1.62621">
        <ele>2413.3999023438</ele>
        <time>2023-07-21T08:43:13.000Z</time>
      </trkpt>
      <trkpt lat="42.62221" lon="1.62619">
        <ele>2413.3999023438</ele>
        <time>2023-07-21T08:43:08.000Z</time>
      </trkpt>
      <trkpt lat="42.62221" lon="1.62618">
        <ele>2413.1999511719</ele>
        <time>2023-07-21T08:43:06.000Z</time>
      </trkpt>
      <trkpt lat="42.62222" lon="1.62617">
        <ele>2413.1999511719</ele>
        <time>2023-07-21T08:42:56.000Z</time>
      </trkpt>
      <trkpt lat="42.6222" lon="1.6262">
        <ele>2412.8000488281</ele>
        <time>2023-07-21T08:42:44.000Z</time>
      </trkpt>
      <trkpt lat="42.62219" lon="1.6262">
        <ele>2413</ele>
        <time>2023-07-21T08:42:34.000Z</time>
      </trkpt>
      <trkpt lat="42.6222" lon="1.62618">
        <ele>2412.8000488281</ele>
        <time>2023-07-21T08:42:25.000Z</time>
      </trkpt>
      <trkpt lat="42.62221" lon="1.62616">
        <ele>2412.8000488281</ele>
        <time>2023-07-21T08:42:16.000Z</time>
      </trkpt>
      <trkpt lat="42.62221" lon="1.62615">
        <ele>2413</ele>
        <time>2023-07-21T08:42:05.000Z</time>
      </trkpt>
      <trkpt lat="42.62221" lon="1.62616">
        <ele>2412.6000976562</ele>
        <time>2023-07-21T08:41:55.000Z</time>
      </trkpt>
      <trkpt lat="42.62221" lon="1.62618">
        <ele>2412.6000976562</ele>
        <time>2023-07-21T08:41:45.000Z</time>
      </trkpt>
      <trkpt lat="42.62218" lon="1.6262">
        <ele>2412.3999023438</ele>
        <time>2023-07-21T08:41:36.000Z</time>
      </trkpt>
      <trkpt lat="42.62221" lon="1.62621">
        <ele>2412.1999511719</ele>
        <time>2023-07-21T08:41:26.000Z</time>
      </trkpt>
      <trkpt lat="42.62221" lon="1.62621">
        <ele>2412.1999511719</ele>
        <time>2023-07-21T08:41:16.000Z</time>
      </trkpt>
      <trkpt lat="42.6222" lon="1.62621">
        <ele>2412</ele>
        <time>2023-07-21T08:41:07.000Z</time>
      </trkpt>
      <trkpt lat="42.62221" lon="1.62623">
        <ele>2412</ele>
        <time>2023-07-21T08:40:59.000Z</time>
      </trkpt>
      <trkpt lat="42.6222" lon="1.62618">
        <ele>2412.1999511719</ele>
        <time>2023-07-21T08:40:48.000Z</time>
      </trkpt>
      <trkpt lat="42.62222" lon="1.62619">
        <ele>2412.3999023438</ele>
        <time>2023-07-21T08:40:38.000Z</time>
      </trkpt>
      <trkpt lat="42.62221" lon="1.62621">
        <ele>2412.3999023438</ele>
        <time>2023-07-21T08:40:33.000Z</time>
      </trkpt>
      <trkpt lat="42.62219" lon="1.62625">
        <ele>2412.3999023438</ele>
        <time>2023-07-21T08:40:26.000Z</time>
      </trkpt>
      <trkpt lat="42.62221" lon="1.62623">
        <ele>2412.3999023438</ele>
        <time>2023-07-21T08:40:17.000Z</time>
      </trkpt>
      <trkpt lat="42.6222" lon="1.62623">
        <ele>2412.1999511719</ele>
        <time>2023-07-21T08:40:09.000Z</time>
      </trkpt>
      <trkpt lat="42.6222" lon="1.62623">
        <ele>2412</ele>
        <time>2023-07-21T08:40:06.000Z</time>
      </trkpt>
      <trkpt lat="42.62217" lon="1.62627">
        <ele>2411.1999511719</ele>
        <time>2023-07-21T08:39:59.000Z</time>
      </trkpt>
      <trkpt lat="42.62216" lon="1.62629">
        <ele>2410.8000488281</ele>
        <time>2023-07-21T08:39:57.000Z</time>
      </trkpt>
      <trkpt lat="42.62215" lon="1.6263">
        <ele>2410</ele>
        <time>2023-07-21T08:39:52.000Z</time>
      </trkpt>
      <trkpt lat="42.62214" lon="1.62631">
        <ele>2409.6000976562</ele>
        <time>2023-07-21T08:39:50.000Z</time>
      </trkpt>
      <trkpt lat="42.62213" lon="1.62635">
        <ele>2409</ele>
        <time>2023-07-21T08:39:45.000Z</time>
      </trkpt>
      <trkpt lat="42.6221" lon="1.62639">
        <ele>2408.3999023438</ele>
        <time>2023-07-21T08:39:40.000Z</time>
      </trkpt>
      <trkpt lat="42.62208" lon="1.62641">
        <ele>2407.8000488281</ele>
        <time>2023-07-21T08:39:35.000Z</time>
      </trkpt>
      <trkpt lat="42.62208" lon="1.62642">
        <ele>2407.3999023438</ele>
        <time>2023-07-21T08:39:33.000Z</time>
      </trkpt>
      <trkpt lat="42.62204" lon="1.6265">
        <ele>2406.8000488281</ele>
        <time>2023-07-21T08:39:25.000Z</time>
      </trkpt>
      <trkpt lat="42.62202" lon="1.62652">
        <ele>2406.8000488281</ele>
        <time>2023-07-21T08:39:23.000Z</time>
      </trkpt>
      <trkpt lat="42.622" lon="1.62656">
        <ele>2406</ele>
        <time>2023-07-21T08:39:18.000Z</time>
      </trkpt>
      <trkpt lat="42.622" lon="1.62656">
        <ele>2405.6000976562</ele>
        <time>2023-07-21T08:39:16.000Z</time>
      </trkpt>
      <trkpt lat="42.62199" lon="1.62661">
        <ele>2404.8000488281</ele>
        <time>2023-07-21T08:39:10.000Z</time>
      </trkpt>
      <trkpt lat="42.62198" lon="1.62662">
        <ele>2404.6000976562</ele>
        <time>2023-07-21T08:39:08.000Z</time>
      </trkpt>
      <trkpt lat="42.62196" lon="1.62665">
        <ele>2403.8000488281</ele>
        <time>2023-07-21T08:39:04.000Z</time>
      </trkpt>
      <trkpt lat="42.62194" lon="1.62669">
        <ele>2403.3999023438</ele>
        <time>2023-07-21T08:38:59.000Z</time>
      </trkpt>
      <trkpt lat="42.62194" lon="1.62673">
        <ele>2403</ele>
        <time>2023-07-21T08:38:55.000Z</time>
      </trkpt>
      <trkpt lat="42.62192" lon="1.6268">
        <ele>2402.8000488281</ele>
        <time>2023-07-21T08:38:48.000Z</time>
      </trkpt>
      <trkpt lat="42.62191" lon="1.62688">
        <ele>2402.3999023438</ele>
        <time>2023-07-21T08:38:41.000Z</time>
      </trkpt>
      <trkpt lat="42.62191" lon="1.62689">
        <ele>2402.1999511719</ele>
        <time>2023-07-21T08:38:40.000Z</time>
      </trkpt>
      <trkpt lat="42.62187" lon="1.62696">
        <ele>2401.3999023438</ele>
        <time>2023-07-21T08:38:32.000Z</time>
      </trkpt>
      <trkpt lat="42.62186" lon="1.62698">
        <ele>2401.1999511719</ele>
        <time>2023-07-21T08:38:30.000Z</time>
      </trkpt>
      <trkpt lat="42.62183" lon="1.62702">
        <ele>2401</ele>
        <time>2023-07-21T08:38:24.000Z</time>
      </trkpt>
      <trkpt lat="42.6218" lon="1.62712">
        <ele>2400.3999023438</ele>
        <time>2023-07-21T08:38:15.000Z</time>
      </trkpt>
      <trkpt lat="42.62179" lon="1.62714">
        <ele>2400.1999511719</ele>
        <time>2023-07-21T08:38:13.000Z</time>
      </trkpt>
      <trkpt lat="42.62178" lon="1.6272">
        <ele>2399.3999023438</ele>
        <time>2023-07-21T08:38:07.000Z</time>
      </trkpt>
      <trkpt lat="42.62178" lon="1.62726">
        <ele>2399</ele>
        <time>2023-07-21T08:38:01.000Z</time>
      </trkpt>
      <trkpt lat="42.62178" lon="1.62727">
        <ele>2398.3999023438</ele>
        <time>2023-07-21T08:37:59.000Z</time>
      </trkpt>
      <trkpt lat="42.62179" lon="1.62729">
        <ele>2397.8000488281</ele>
        <time>2023-07-21T08:37:56.000Z</time>
      </trkpt>
      <trkpt lat="42.62178" lon="1.62732">
        <ele>2396.8000488281</ele>
        <time>2023-07-21T08:37:52.000Z</time>
      </trkpt>
      <trkpt lat="42.62178" lon="1.62733">
        <ele>2396.8000488281</ele>
        <time>2023-07-21T08:37:51.000Z</time>
      </trkpt>
      <trkpt lat="42.62173" lon="1.62736">
        <ele>2396.1999511719</ele>
        <time>2023-07-21T08:37:45.000Z</time>
      </trkpt>
      <trkpt lat="42.62169" lon="1.6274">
        <ele>2395.8000488281</ele>
        <time>2023-07-21T08:37:39.000Z</time>
      </trkpt>
      <trkpt lat="42.62168" lon="1.62741">
        <ele>2395.6000976562</ele>
        <time>2023-07-21T08:37:37.000Z</time>
      </trkpt>
      <trkpt lat="42.62166" lon="1.62748">
        <ele>2394.6000976562</ele>
        <time>2023-07-21T08:37:28.000Z</time>
      </trkpt>
      <trkpt lat="42.62166" lon="1.62754">
        <ele>2394.6000976562</ele>
        <time>2023-07-21T08:37:23.000Z</time>
      </trkpt>
      <trkpt lat="42.62165" lon="1.62757">
        <ele>2393.3999023438</ele>
        <time>2023-07-21T08:37:20.000Z</time>
      </trkpt>
      <trkpt lat="42.62165" lon="1.62758">
        <ele>2393</ele>
        <time>2023-07-21T08:37:17.000Z</time>
      </trkpt>
      <trkpt lat="42.62163" lon="1.62763">
        <ele>2391.6000976562</ele>
        <time>2023-07-21T08:37:10.000Z</time>
      </trkpt>
      <trkpt lat="42.62162" lon="1.62771">
        <ele>2391.6000976562</ele>
        <time>2023-07-21T08:37:03.000Z</time>
      </trkpt>
      <trkpt lat="42.62158" lon="1.62779">
        <ele>2391.8000488281</ele>
        <time>2023-07-21T08:36:56.000Z</time>
      </trkpt>
      <trkpt lat="42.62156" lon="1.62787">
        <ele>2392.3999023438</ele>
        <time>2023-07-21T08:36:48.000Z</time>
      </trkpt>
      <trkpt lat="42.62156" lon="1.62789">
        <ele>2392.3999023438</ele>
        <time>2023-07-21T08:36:46.000Z</time>
      </trkpt>
      <trkpt lat="42.62155" lon="1.62791">
        <ele>2391</ele>
        <time>2023-07-21T08:36:41.000Z</time>
      </trkpt>
      <trkpt lat="42.62155" lon="1.62792">
        <ele>2390.6000976562</ele>
        <time>2023-07-21T08:36:40.000Z</time>
      </trkpt>
      <trkpt lat="42.62152" lon="1.62793">
        <ele>2390</ele>
        <time>2023-07-21T08:36:32.000Z</time>
      </trkpt>
      <trkpt lat="42.62152" lon="1.62793">
        <ele>2389.8000488281</ele>
        <time>2023-07-21T08:36:31.000Z</time>
      </trkpt>
      <trkpt lat="42.6215" lon="1.62799">
        <ele>2388.6000976562</ele>
        <time>2023-07-21T08:36:24.000Z</time>
      </trkpt>
      <trkpt lat="42.62149" lon="1.62799">
        <ele>2388.1999511719</ele>
        <time>2023-07-21T08:36:23.000Z</time>
      </trkpt>
      <trkpt lat="42.62147" lon="1.628">
        <ele>2387.3999023438</ele>
        <time>2023-07-21T08:36:20.000Z</time>
      </trkpt>
      <trkpt lat="42.62146" lon="1.62801">
        <ele>2386.1999511719</ele>
        <time>2023-07-21T08:36:16.000Z</time>
      </trkpt>
      <trkpt lat="42.62147" lon="1.62804">
        <ele>2386.1999511719</ele>
        <time>2023-07-21T08:36:06.000Z</time>
      </trkpt>
      <trkpt lat="42.62146" lon="1.62803">
        <ele>2386.3999023438</ele>
        <time>2023-07-21T08:35:59.000Z</time>
      </trkpt>
      <trkpt lat="42.62146" lon="1.62803">
        <ele>2386.3999023438</ele>
        <time>2023-07-21T08:35:58.000Z</time>
      </trkpt>
      <trkpt lat="42.62145" lon="1.628">
        <ele>2385.3999023438</ele>
        <time>2023-07-21T08:35:51.000Z</time>
      </trkpt>
      <trkpt lat="42.62144" lon="1.62801">
        <ele>2385.1999511719</ele>
        <time>2023-07-21T08:35:50.000Z</time>
      </trkpt>
      <trkpt lat="42.62142" lon="1.62802">
        <ele>2384.3999023438</ele>
        <time>2023-07-21T08:35:44.000Z</time>
      </trkpt>
      <trkpt lat="42.62142" lon="1.62803">
        <ele>2384.1999511719</ele>
        <time>2023-07-21T08:35:43.000Z</time>
      </trkpt>
      <trkpt lat="42.62142" lon="1.62806">
        <ele>2383.1999511719</ele>
        <time>2023-07-21T08:35:40.000Z</time>
      </trkpt>
      <trkpt lat="42.62142" lon="1.62808">
        <ele>2382.6000976562</ele>
        <time>2023-07-21T08:35:36.000Z</time>
      </trkpt>
      <trkpt lat="42.62142" lon="1.62809">
        <ele>2382.1999511719</ele>
        <time>2023-07-21T08:35:35.000Z</time>
      </trkpt>
      <trkpt lat="42.6214" lon="1.62814">
        <ele>2381.3999023438</ele>
        <time>2023-07-21T08:35:29.000Z</time>
      </trkpt>
      <trkpt lat="42.62141" lon="1.62812">
        <ele>2381.3999023438</ele>
        <time>2023-07-21T08:35:21.000Z</time>
      </trkpt>
      <trkpt lat="42.62142" lon="1.62811">
        <ele>2381</ele>
        <time>2023-07-21T08:35:12.000Z</time>
      </trkpt>
      <trkpt lat="42.62142" lon="1.62812">
        <ele>2380.8000488281</ele>
        <time>2023-07-21T08:35:11.000Z</time>
      </trkpt>
      <trkpt lat="42.62141" lon="1.62814">
        <ele>2379.8000488281</ele>
        <time>2023-07-21T08:35:07.000Z</time>
      </trkpt>
      <trkpt lat="42.62141" lon="1.62814">
        <ele>2379.6000976562</ele>
        <time>2023-07-21T08:35:06.000Z</time>
      </trkpt>
      <trkpt lat="42.6214" lon="1.62819">
        <ele>2378.8000488281</ele>
        <time>2023-07-21T08:35:01.000Z</time>
      </trkpt>
      <trkpt lat="42.62139" lon="1.62821">
        <ele>2378.1999511719</ele>
        <time>2023-07-21T08:34:58.000Z</time>
      </trkpt>
      <trkpt lat="42.62139" lon="1.62821">
        <ele>2377.6000976562</ele>
        <time>2023-07-21T08:34:55.000Z</time>
      </trkpt>
      <trkpt lat="42.62139" lon="1.62823">
        <ele>2376.6000976562</ele>
        <time>2023-07-21T08:34:49.000Z</time>
      </trkpt>
      <trkpt lat="42.62139" lon="1.62823">
        <ele>2376.6000976562</ele>
        <time>2023-07-21T08:34:48.000Z</time>
      </trkpt>
      <trkpt lat="42.62137" lon="1.62827">
        <ele>2375.3999023438</ele>
        <time>2023-07-21T08:34:42.000Z</time>
      </trkpt>
      <trkpt lat="42.62137" lon="1.62828">
        <ele>2375.1999511719</ele>
        <time>2023-07-21T08:34:40.000Z</time>
      </trkpt>
      <trkpt lat="42.62138" lon="1.62829">
        <ele>2374.3999023438</ele>
        <time>2023-07-21T08:34:36.000Z</time>
      </trkpt>
      <trkpt lat="42.62138" lon="1.62833">
        <ele>2374</ele>
        <time>2023-07-21T08:34:31.000Z</time>
      </trkpt>
      <trkpt lat="42.62138" lon="1.62835">
        <ele>2373.1999511719</ele>
        <time>2023-07-21T08:34:28.000Z</time>
      </trkpt>
      <trkpt lat="42.62138" lon="1.62837">
        <ele>2372.3999023438</ele>
        <time>2023-07-21T08:34:23.000Z</time>
      </trkpt>
      <trkpt lat="42.62138" lon="1.62837">
        <ele>2372.1999511719</ele>
        <time>2023-07-21T08:34:22.000Z</time>
      </trkpt>
      <trkpt lat="42.62137" lon="1.6284">
        <ele>2371.6000976562</ele>
        <time>2023-07-21T08:34:16.000Z</time>
      </trkpt>
      <trkpt lat="42.62137" lon="1.62841">
        <ele>2371.1999511719</ele>
        <time>2023-07-21T08:34:14.000Z</time>
      </trkpt>
      <trkpt lat="42.62138" lon="1.62844">
        <ele>2370</ele>
        <time>2023-07-21T08:34:10.000Z</time>
      </trkpt>
      <trkpt lat="42.62138" lon="1.62846">
        <ele>2369.6000976562</ele>
        <time>2023-07-21T08:34:07.000Z</time>
      </trkpt>
      <trkpt lat="42.62138" lon="1.62849">
        <ele>2369</ele>
        <time>2023-07-21T08:34:04.000Z</time>
      </trkpt>
      <trkpt lat="42.6214" lon="1.62851">
        <ele>2368.3999023438</ele>
        <time>2023-07-21T08:33:59.000Z</time>
      </trkpt>
      <trkpt lat="42.62139" lon="1.62851">
        <ele>2368</ele>
        <time>2023-07-21T08:33:56.000Z</time>
      </trkpt>
      <trkpt lat="42.62138" lon="1.62854">
        <ele>2367.1999511719</ele>
        <time>2023-07-21T08:33:51.000Z</time>
      </trkpt>
      <trkpt lat="42.62137" lon="1.62855">
        <ele>2366.8000488281</ele>
        <time>2023-07-21T08:33:48.000Z</time>
      </trkpt>
      <trkpt lat="42.62137" lon="1.62857">
        <ele>2366</ele>
        <time>2023-07-21T08:33:43.000Z</time>
      </trkpt>
      <trkpt lat="42.62137" lon="1.62858">
        <ele>2365.8000488281</ele>
        <time>2023-07-21T08:33:41.000Z</time>
      </trkpt>
      <trkpt lat="42.62137" lon="1.62861">
        <ele>2364.8000488281</ele>
        <time>2023-07-21T08:33:36.000Z</time>
      </trkpt>
      <trkpt lat="42.62137" lon="1.62862">
        <ele>2364.6000976562</ele>
        <time>2023-07-21T08:33:35.000Z</time>
      </trkpt>
      <trkpt lat="42.62136" lon="1.62864">
        <ele>2363.8000488281</ele>
        <time>2023-07-21T08:33:30.000Z</time>
      </trkpt>
      <trkpt lat="42.62136" lon="1.62864">
        <ele>2363.6000976562</ele>
        <time>2023-07-21T08:33:29.000Z</time>
      </trkpt>
      <trkpt lat="42.62133" lon="1.62864">
        <ele>2362.8000488281</ele>
        <time>2023-07-21T08:33:23.000Z</time>
      </trkpt>
      <trkpt lat="42.62133" lon="1.62865">
        <ele>2362.6000976562</ele>
        <time>2023-07-21T08:33:22.000Z</time>
      </trkpt>
      <trkpt lat="42.62134" lon="1.62865">
        <ele>2361.6000976562</ele>
        <time>2023-07-21T08:33:17.000Z</time>
      </trkpt>
      <trkpt lat="42.62133" lon="1.62865">
        <ele>2360.8000488281</ele>
        <time>2023-07-21T08:33:13.000Z</time>
      </trkpt>
      <trkpt lat="42.62132" lon="1.62865">
        <ele>2360.6000976562</ele>
        <time>2023-07-21T08:33:12.000Z</time>
      </trkpt>
      <trkpt lat="42.62131" lon="1.6287">
        <ele>2359.3999023438</ele>
        <time>2023-07-21T08:33:06.000Z</time>
      </trkpt>
      <trkpt lat="42.62131" lon="1.62871">
        <ele>2359.1999511719</ele>
        <time>2023-07-21T08:33:04.000Z</time>
      </trkpt>
      <trkpt lat="42.6213" lon="1.62873">
        <ele>2358.3999023438</ele>
        <time>2023-07-21T08:32:58.000Z</time>
      </trkpt>
      <trkpt lat="42.6213" lon="1.62875">
        <ele>2357.6000976562</ele>
        <time>2023-07-21T08:32:55.000Z</time>
      </trkpt>
      <trkpt lat="42.62129" lon="1.62877">
        <ele>2357.1999511719</ele>
        <time>2023-07-21T08:32:51.000Z</time>
      </trkpt>
      <trkpt lat="42.62129" lon="1.62879">
        <ele>2356.3999023438</ele>
        <time>2023-07-21T08:32:48.000Z</time>
      </trkpt>
      <trkpt lat="42.62128" lon="1.6288">
        <ele>2356.1999511719</ele>
        <time>2023-07-21T08:32:47.000Z</time>
      </trkpt>
      <trkpt lat="42.62126" lon="1.62884">
        <ele>2354.8000488281</ele>
        <time>2023-07-21T08:32:41.000Z</time>
      </trkpt>
      <trkpt lat="42.62125" lon="1.62885">
        <ele>2354.6000976562</ele>
        <time>2023-07-21T08:32:40.000Z</time>
      </trkpt>
      <trkpt lat="42.62125" lon="1.62885">
        <ele>2353.8000488281</ele>
        <time>2023-07-21T08:32:35.000Z</time>
      </trkpt>
      <trkpt lat="42.62124" lon="1.62885">
        <ele>2353.6000976562</ele>
        <time>2023-07-21T08:32:33.000Z</time>
      </trkpt>
      <trkpt lat="42.62123" lon="1.62886">
        <ele>2352.8000488281</ele>
        <time>2023-07-21T08:32:27.000Z</time>
      </trkpt>
      <trkpt lat="42.62122" lon="1.62887">
        <ele>2352.3999023438</ele>
        <time>2023-07-21T08:32:25.000Z</time>
      </trkpt>
      <trkpt lat="42.62122" lon="1.62891">
        <ele>2351.6000976562</ele>
        <time>2023-07-21T08:32:19.000Z</time>
      </trkpt>
      <trkpt lat="42.62122" lon="1.62892">
        <ele>2351</ele>
        <time>2023-07-21T08:32:17.000Z</time>
      </trkpt>
      <trkpt lat="42.62121" lon="1.62892">
        <ele>2350.3999023438</ele>
        <time>2023-07-21T08:32:13.000Z</time>
      </trkpt>
      <trkpt lat="42.6212" lon="1.62895">
        <ele>2349.8000488281</ele>
        <time>2023-07-21T08:32:09.000Z</time>
      </trkpt>
      <trkpt lat="42.6212" lon="1.62896">
        <ele>2349.3999023438</ele>
        <time>2023-07-21T08:32:08.000Z</time>
      </trkpt>
      <trkpt lat="42.6212" lon="1.629">
        <ele>2348.8000488281</ele>
        <time>2023-07-21T08:32:02.000Z</time>
      </trkpt>
      <trkpt lat="42.62119" lon="1.62901">
        <ele>2348.3999023438</ele>
        <time>2023-07-21T08:31:59.000Z</time>
      </trkpt>
      <trkpt lat="42.62118" lon="1.62903">
        <ele>2347.8000488281</ele>
        <time>2023-07-21T08:31:55.000Z</time>
      </trkpt>
      <trkpt lat="42.62117" lon="1.62905">
        <ele>2347.1999511719</ele>
        <time>2023-07-21T08:31:52.000Z</time>
      </trkpt>
      <trkpt lat="42.62118" lon="1.62907">
        <ele>2346.1999511719</ele>
        <time>2023-07-21T08:31:47.000Z</time>
      </trkpt>
      <trkpt lat="42.62117" lon="1.62907">
        <ele>2346.1999511719</ele>
        <time>2023-07-21T08:31:46.000Z</time>
      </trkpt>
      <trkpt lat="42.62116" lon="1.62909">
        <ele>2345.1999511719</ele>
        <time>2023-07-21T08:31:40.000Z</time>
      </trkpt>
      <trkpt lat="42.62115" lon="1.6291">
        <ele>2345</ele>
        <time>2023-07-21T08:31:39.000Z</time>
      </trkpt>
      <trkpt lat="42.62115" lon="1.62914">
        <ele>2344.1999511719</ele>
        <time>2023-07-21T08:31:33.000Z</time>
      </trkpt>
      <trkpt lat="42.62115" lon="1.62914">
        <ele>2344</ele>
        <time>2023-07-21T08:31:31.000Z</time>
      </trkpt>
      <trkpt lat="42.62112" lon="1.62917">
        <ele>2343</ele>
        <time>2023-07-21T08:31:24.000Z</time>
      </trkpt>
      <trkpt lat="42.62112" lon="1.62917">
        <ele>2342</ele>
        <time>2023-07-21T08:31:18.000Z</time>
      </trkpt>
      <trkpt lat="42.62111" lon="1.62917">
        <ele>2341.8000488281</ele>
        <time>2023-07-21T08:31:17.000Z</time>
      </trkpt>
      <trkpt lat="42.62111" lon="1.62922">
        <ele>2341.1999511719</ele>
        <time>2023-07-21T08:31:11.000Z</time>
      </trkpt>
      <trkpt lat="42.62109" lon="1.62924">
        <ele>2340.8000488281</ele>
        <time>2023-07-21T08:31:06.000Z</time>
      </trkpt>
      <trkpt lat="42.62109" lon="1.62924">
        <ele>2340.1999511719</ele>
        <time>2023-07-21T08:31:03.000Z</time>
      </trkpt>
      <trkpt lat="42.62108" lon="1.62927">
        <ele>2339.6000976562</ele>
        <time>2023-07-21T08:30:59.000Z</time>
      </trkpt>
      <trkpt lat="42.62108" lon="1.62929">
        <ele>2339</ele>
        <time>2023-07-21T08:30:55.000Z</time>
      </trkpt>
      <trkpt lat="42.62106" lon="1.6293">
        <ele>2338.6000976562</ele>
        <time>2023-07-21T08:30:51.000Z</time>
      </trkpt>
      <trkpt lat="42.62105" lon="1.6293">
        <ele>2337.8000488281</ele>
        <time>2023-07-21T08:30:45.000Z</time>
      </trkpt>
      <trkpt lat="42.62104" lon="1.62931">
        <ele>2337.3999023438</ele>
        <time>2023-07-21T08:30:42.000Z</time>
      </trkpt>
      <trkpt lat="42.62103" lon="1.62933">
        <ele>2336.3999023438</ele>
        <time>2023-07-21T08:30:36.000Z</time>
      </trkpt>
      <trkpt lat="42.62103" lon="1.62933">
        <ele>2336.3999023438</ele>
        <time>2023-07-21T08:30:35.000Z</time>
      </trkpt>
      <trkpt lat="42.62099" lon="1.62935">
        <ele>2335.3999023438</ele>
        <time>2023-07-21T08:30:27.000Z</time>
      </trkpt>
      <trkpt lat="42.62093" lon="1.62939">
        <ele>2334.3999023438</ele>
        <time>2023-07-21T08:30:18.000Z</time>
      </trkpt>
      <trkpt lat="42.62087" lon="1.62941">
        <ele>2334.3999023438</ele>
        <time>2023-07-21T08:30:11.000Z</time>
      </trkpt>
      <trkpt lat="42.62082" lon="1.6294">
        <ele>2335.1999511719</ele>
        <time>2023-07-21T08:30:02.000Z</time>
      </trkpt>
      <trkpt lat="42.62075" lon="1.62943">
        <ele>2335.8000488281</ele>
        <time>2023-07-21T08:29:53.000Z</time>
      </trkpt>
      <trkpt lat="42.62069" lon="1.62942">
        <ele>2335.1999511719</ele>
        <time>2023-07-21T08:29:48.000Z</time>
      </trkpt>
      <trkpt lat="42.62067" lon="1.62941">
        <ele>2334.8000488281</ele>
        <time>2023-07-21T08:29:44.000Z</time>
      </trkpt>
      <trkpt lat="42.62063" lon="1.6294">
        <ele>2334.6000976562</ele>
        <time>2023-07-21T08:29:37.000Z</time>
      </trkpt>
      <trkpt lat="42.62056" lon="1.62942">
        <ele>2334.8000488281</ele>
        <time>2023-07-21T08:29:28.000Z</time>
      </trkpt>
      <trkpt lat="42.62051" lon="1.62946">
        <ele>2334.8000488281</ele>
        <time>2023-07-21T08:29:21.000Z</time>
      </trkpt>
      <trkpt lat="42.62044" lon="1.6295">
        <ele>2334.6000976562</ele>
        <time>2023-07-21T08:29:14.000Z</time>
      </trkpt>
      <trkpt lat="42.62042" lon="1.62951">
        <ele>2334.1999511719</ele>
        <time>2023-07-21T08:29:10.000Z</time>
      </trkpt>
      <trkpt lat="42.62038" lon="1.62954">
        <ele>2333.3999023438</ele>
        <time>2023-07-21T08:29:05.000Z</time>
      </trkpt>
      <trkpt lat="42.62033" lon="1.6296">
        <ele>2333.3999023438</ele>
        <time>2023-07-21T08:28:57.000Z</time>
      </trkpt>
      <trkpt lat="42.62027" lon="1.62967">
        <ele>2334</ele>
        <time>2023-07-21T08:28:47.000Z</time>
      </trkpt>
      <trkpt lat="42.62022" lon="1.62971">
        <ele>2333.3999023438</ele>
        <time>2023-07-21T08:28:39.000Z</time>
      </trkpt>
      <trkpt lat="42.62019" lon="1.62973">
        <ele>2333.1999511719</ele>
        <time>2023-07-21T08:28:35.000Z</time>
      </trkpt>
      <trkpt lat="42.62017" lon="1.62973">
        <ele>2331.8000488281</ele>
        <time>2023-07-21T08:28:31.000Z</time>
      </trkpt>
      <trkpt lat="42.62017" lon="1.62974">
        <ele>2331.8000488281</ele>
        <time>2023-07-21T08:28:30.000Z</time>
      </trkpt>
      <trkpt lat="42.62015" lon="1.62976">
        <ele>2331</ele>
        <time>2023-07-21T08:28:24.000Z</time>
      </trkpt>
      <trkpt lat="42.62015" lon="1.62977">
        <ele>2330.8000488281</ele>
        <time>2023-07-21T08:28:23.000Z</time>
      </trkpt>
      <trkpt lat="42.62009" lon="1.62979">
        <ele>2330</ele>
        <time>2023-07-21T08:28:15.000Z</time>
      </trkpt>
      <trkpt lat="42.62007" lon="1.62983">
        <ele>2329.6000976562</ele>
        <time>2023-07-21T08:28:11.000Z</time>
      </trkpt>
      <trkpt lat="42.62007" lon="1.62983">
        <ele>2329.6000976562</ele>
        <time>2023-07-21T08:28:09.000Z</time>
      </trkpt>
      <trkpt lat="42.62005" lon="1.62988">
        <ele>2329.1999511719</ele>
        <time>2023-07-21T08:28:01.000Z</time>
      </trkpt>
      <trkpt lat="42.62001" lon="1.6299">
        <ele>2329</ele>
        <time>2023-07-21T08:27:53.000Z</time>
      </trkpt>
      <trkpt lat="42.61999" lon="1.6299">
        <ele>2328.6000976562</ele>
        <time>2023-07-21T08:27:49.000Z</time>
      </trkpt>
      <trkpt lat="42.61997" lon="1.62991">
        <ele>2327.6000976562</ele>
        <time>2023-07-21T08:27:45.000Z</time>
      </trkpt>
      <trkpt lat="42.61996" lon="1.62991">
        <ele>2327.6000976562</ele>
        <time>2023-07-21T08:27:44.000Z</time>
      </trkpt>
      <trkpt lat="42.61992" lon="1.62994">
        <ele>2326.8000488281</ele>
        <time>2023-07-21T08:27:37.000Z</time>
      </trkpt>
      <trkpt lat="42.61991" lon="1.62997">
        <ele>2326.3999023438</ele>
        <time>2023-07-21T08:27:32.000Z</time>
      </trkpt>
      <trkpt lat="42.6199" lon="1.62997">
        <ele>2326.3999023438</ele>
        <time>2023-07-21T08:27:31.000Z</time>
      </trkpt>
      <trkpt lat="42.61986" lon="1.63001">
        <ele>2325.6000976562</ele>
        <time>2023-07-21T08:27:23.000Z</time>
      </trkpt>
      <trkpt lat="42.61986" lon="1.63002">
        <ele>2325.3999023438</ele>
        <time>2023-07-21T08:27:22.000Z</time>
      </trkpt>
      <trkpt lat="42.61981" lon="1.63007">
        <ele>2324.6000976562</ele>
        <time>2023-07-21T08:27:14.000Z</time>
      </trkpt>
      <trkpt lat="42.61975" lon="1.6301">
        <ele>2324.8000488281</ele>
        <time>2023-07-21T08:27:06.000Z</time>
      </trkpt>
      <trkpt lat="42.6197" lon="1.63015">
        <ele>2324.6000976562</ele>
        <time>2023-07-21T08:26:59.000Z</time>
      </trkpt>
      <trkpt lat="42.61968" lon="1.63017">
        <ele>2324.3999023438</ele>
        <time>2023-07-21T08:26:54.000Z</time>
      </trkpt>
      <trkpt lat="42.61968" lon="1.63018">
        <ele>2323.8000488281</ele>
        <time>2023-07-21T08:26:52.000Z</time>
      </trkpt>
      <trkpt lat="42.61967" lon="1.6302">
        <ele>2323.1999511719</ele>
        <time>2023-07-21T08:26:50.000Z</time>
      </trkpt>
      <trkpt lat="42.61965" lon="1.63023">
        <ele>2322</ele>
        <time>2023-07-21T08:26:45.000Z</time>
      </trkpt>
      <trkpt lat="42.61964" lon="1.63023">
        <ele>2321.3999023438</ele>
        <time>2023-07-21T08:26:42.000Z</time>
      </trkpt>
      <trkpt lat="42.61961" lon="1.63024">
        <ele>2320.8000488281</ele>
        <time>2023-07-21T08:26:38.000Z</time>
      </trkpt>
      <trkpt lat="42.6196" lon="1.63025">
        <ele>2319.8000488281</ele>
        <time>2023-07-21T08:26:34.000Z</time>
      </trkpt>
      <trkpt lat="42.61959" lon="1.63026">
        <ele>2320</ele>
        <time>2023-07-21T08:26:26.000Z</time>
      </trkpt>
      <trkpt lat="42.61959" lon="1.63027">
        <ele>2319.6000976562</ele>
        <time>2023-07-21T08:26:23.000Z</time>
      </trkpt>
      <trkpt lat="42.61959" lon="1.63029">
        <ele>2319.3999023438</ele>
        <time>2023-07-21T08:26:22.000Z</time>
      </trkpt>
      <trkpt lat="42.61955" lon="1.6303">
        <ele>2318.6000976562</ele>
        <time>2023-07-21T08:26:15.000Z</time>
      </trkpt>
      <trkpt lat="42.61955" lon="1.6303">
        <ele>2318</ele>
        <time>2023-07-21T08:26:07.000Z</time>
      </trkpt>
      <trkpt lat="42.61955" lon="1.63029">
        <ele>2317.6000976562</ele>
        <time>2023-07-21T08:26:02.000Z</time>
      </trkpt>
      <trkpt lat="42.61954" lon="1.6303">
        <ele>2317.6000976562</ele>
        <time>2023-07-21T08:26:01.000Z</time>
      </trkpt>
      <trkpt lat="42.61955" lon="1.63032">
        <ele>2316.6000976562</ele>
        <time>2023-07-21T08:25:54.000Z</time>
      </trkpt>
      <trkpt lat="42.61955" lon="1.63036">
        <ele>2316.3999023438</ele>
        <time>2023-07-21T08:25:49.000Z</time>
      </trkpt>
      <trkpt lat="42.61955" lon="1.63038">
        <ele>2316.3999023438</ele>
        <time>2023-07-21T08:25:44.000Z</time>
      </trkpt>
      <trkpt lat="42.61954" lon="1.63038">
        <ele>2315.8000488281</ele>
        <time>2023-07-21T08:25:39.000Z</time>
      </trkpt>
      <trkpt lat="42.61953" lon="1.63036">
        <ele>2315.1999511719</ele>
        <time>2023-07-21T08:25:32.000Z</time>
      </trkpt>
      <trkpt lat="42.61953" lon="1.63036">
        <ele>2315</ele>
        <time>2023-07-21T08:25:31.000Z</time>
      </trkpt>
      <trkpt lat="42.6195" lon="1.63035">
        <ele>2314</ele>
        <time>2023-07-21T08:25:25.000Z</time>
      </trkpt>
      <trkpt lat="42.61949" lon="1.63036">
        <ele>2313.1999511719</ele>
        <time>2023-07-21T08:25:22.000Z</time>
      </trkpt>
      <trkpt lat="42.61948" lon="1.63038">
        <ele>2313</ele>
        <time>2023-07-21T08:25:20.000Z</time>
      </trkpt>
      <trkpt lat="42.61947" lon="1.63039">
        <ele>2312.1999511719</ele>
        <time>2023-07-21T08:25:14.000Z</time>
      </trkpt>
      <trkpt lat="42.61946" lon="1.63042">
        <ele>2312</ele>
        <time>2023-07-21T08:25:11.000Z</time>
      </trkpt>
      <trkpt lat="42.61944" lon="1.63044">
        <ele>2311.1999511719</ele>
        <time>2023-07-21T08:25:07.000Z</time>
      </trkpt>
      <trkpt lat="42.61942" lon="1.63046">
        <ele>2310.6000976562</ele>
        <time>2023-07-21T08:25:04.000Z</time>
      </trkpt>
      <trkpt lat="42.6194" lon="1.63046">
        <ele>2310.3999023438</ele>
        <time>2023-07-21T08:25:00.000Z</time>
      </trkpt>
      <trkpt lat="42.61939" lon="1.63048">
        <ele>2309.6000976562</ele>
        <time>2023-07-21T08:24:53.000Z</time>
      </trkpt>
      <trkpt lat="42.61938" lon="1.63049">
        <ele>2309.3999023438</ele>
        <time>2023-07-21T08:24:52.000Z</time>
      </trkpt>
      <trkpt lat="42.61935" lon="1.63049">
        <ele>2308.6000976562</ele>
        <time>2023-07-21T08:24:48.000Z</time>
      </trkpt>
      <trkpt lat="42.61933" lon="1.6305">
        <ele>2308.1999511719</ele>
        <time>2023-07-21T08:24:42.000Z</time>
      </trkpt>
      <trkpt lat="42.61928" lon="1.63052">
        <ele>2307.6000976562</ele>
        <time>2023-07-21T08:24:33.000Z</time>
      </trkpt>
      <trkpt lat="42.61928" lon="1.63052">
        <ele>2307.6000976562</ele>
        <time>2023-07-21T08:24:32.000Z</time>
      </trkpt>
      <trkpt lat="42.61925" lon="1.63055">
        <ele>2306.8000488281</ele>
        <time>2023-07-21T08:24:25.000Z</time>
      </trkpt>
      <trkpt lat="42.61924" lon="1.63055">
        <ele>2306.3999023438</ele>
        <time>2023-07-21T08:24:23.000Z</time>
      </trkpt>
      <trkpt lat="42.61921" lon="1.63058">
        <ele>2305.6000976562</ele>
        <time>2023-07-21T08:24:17.000Z</time>
      </trkpt>
      <trkpt lat="42.6192" lon="1.63059">
        <ele>2305.1999511719</ele>
        <time>2023-07-21T08:24:14.000Z</time>
      </trkpt>
      <trkpt lat="42.61915" lon="1.63062">
        <ele>2304.1999511719</ele>
        <time>2023-07-21T08:24:07.000Z</time>
      </trkpt>
      <trkpt lat="42.61912" lon="1.63063">
        <ele>2304.1999511719</ele>
        <time>2023-07-21T08:23:59.000Z</time>
      </trkpt>
      <trkpt lat="42.61907" lon="1.63067">
        <ele>2304.1999511719</ele>
        <time>2023-07-21T08:23:51.000Z</time>
      </trkpt>
      <trkpt lat="42.61907" lon="1.63068">
        <ele>2303.8000488281</ele>
        <time>2023-07-21T08:23:50.000Z</time>
      </trkpt>
      <trkpt lat="42.61908" lon="1.6307">
        <ele>2303</ele>
        <time>2023-07-21T08:23:47.000Z</time>
      </trkpt>
      <trkpt lat="42.61905" lon="1.63072">
        <ele>2302.1999511719</ele>
        <time>2023-07-21T08:23:42.000Z</time>
      </trkpt>
      <trkpt lat="42.61905" lon="1.63072">
        <ele>2302</ele>
        <time>2023-07-21T08:23:40.000Z</time>
      </trkpt>
      <trkpt lat="42.61903" lon="1.6307">
        <ele>2301.1999511719</ele>
        <time>2023-07-21T08:23:34.000Z</time>
      </trkpt>
      <trkpt lat="42.61902" lon="1.6307">
        <ele>2301</ele>
        <time>2023-07-21T08:23:33.000Z</time>
      </trkpt>
      <trkpt lat="42.61901" lon="1.63073">
        <ele>2300</ele>
        <time>2023-07-21T08:23:25.000Z</time>
      </trkpt>
      <trkpt lat="42.61902" lon="1.63075">
        <ele>2300</ele>
        <time>2023-07-21T08:23:23.000Z</time>
      </trkpt>
      <trkpt lat="42.619" lon="1.63077">
        <ele>2299.1999511719</ele>
        <time>2023-07-21T08:23:18.000Z</time>
      </trkpt>
      <trkpt lat="42.61896" lon="1.63081">
        <ele>2298.8000488281</ele>
        <time>2023-07-21T08:23:09.000Z</time>
      </trkpt>
      <trkpt lat="42.61896" lon="1.63082">
        <ele>2298.8000488281</ele>
        <time>2023-07-21T08:23:08.000Z</time>
      </trkpt>
      <trkpt lat="42.61894" lon="1.63086">
        <ele>2297.3999023438</ele>
        <time>2023-07-21T08:23:01.000Z</time>
      </trkpt>
      <trkpt lat="42.61893" lon="1.63087">
        <ele>2297.6000976562</ele>
        <time>2023-07-21T08:22:53.000Z</time>
      </trkpt>
      <trkpt lat="42.61893" lon="1.63087">
        <ele>2297.3999023438</ele>
        <time>2023-07-21T08:22:38.000Z</time>
      </trkpt>
      <trkpt lat="42.61893" lon="1.63089">
        <ele>2297.6000976562</ele>
        <time>2023-07-21T08:22:23.000Z</time>
      </trkpt>
      <trkpt lat="42.61893" lon="1.63088">
        <ele>2297.6000976562</ele>
        <time>2023-07-21T08:22:12.000Z</time>
      </trkpt>
      <trkpt lat="42.61893" lon="1.63088">
        <ele>2297.6000976562</ele>
        <time>2023-07-21T08:21:59.000Z</time>
      </trkpt>
      <trkpt lat="42.61894" lon="1.63087">
        <ele>2297.6000976562</ele>
        <time>2023-07-21T08:21:50.000Z</time>
      </trkpt>
      <trkpt lat="42.61893" lon="1.63086">
        <ele>2297.6000976562</ele>
        <time>2023-07-21T08:21:44.000Z</time>
      </trkpt>
      <trkpt lat="42.61893" lon="1.63085">
        <ele>2297.3999023438</ele>
        <time>2023-07-21T08:21:42.000Z</time>
      </trkpt>
      <trkpt lat="42.6189" lon="1.63088">
        <ele>2296.6000976562</ele>
        <time>2023-07-21T08:21:36.000Z</time>
      </trkpt>
      <trkpt lat="42.6189" lon="1.63088">
        <ele>2296.3999023438</ele>
        <time>2023-07-21T08:21:33.000Z</time>
      </trkpt>
      <trkpt lat="42.61887" lon="1.63093">
        <ele>2295.6000976562</ele>
        <time>2023-07-21T08:21:25.000Z</time>
      </trkpt>
      <trkpt lat="42.61887" lon="1.63094">
        <ele>2295.1999511719</ele>
        <time>2023-07-21T08:21:23.000Z</time>
      </trkpt>
      <trkpt lat="42.61885" lon="1.63096">
        <ele>2294.6000976562</ele>
        <time>2023-07-21T08:21:19.000Z</time>
      </trkpt>
      <trkpt lat="42.61883" lon="1.63098">
        <ele>2294</ele>
        <time>2023-07-21T08:21:15.000Z</time>
      </trkpt>
      <trkpt lat="42.61883" lon="1.63098">
        <ele>2293.3999023438</ele>
        <time>2023-07-21T08:21:12.000Z</time>
      </trkpt>
      <trkpt lat="42.61883" lon="1.631">
        <ele>2293</ele>
        <time>2023-07-21T08:21:08.000Z</time>
      </trkpt>
      <trkpt lat="42.61879" lon="1.63104">
        <ele>2292.3999023438</ele>
        <time>2023-07-21T08:20:59.000Z</time>
      </trkpt>
      <trkpt lat="42.61876" lon="1.63109">
        <ele>2292.6000976562</ele>
        <time>2023-07-21T08:20:51.000Z</time>
      </trkpt>
      <trkpt lat="42.61876" lon="1.63111">
        <ele>2292.8000488281</ele>
        <time>2023-07-21T08:20:43.000Z</time>
      </trkpt>
      <trkpt lat="42.61875" lon="1.63115">
        <ele>2293</ele>
        <time>2023-07-21T08:20:34.000Z</time>
      </trkpt>
      <trkpt lat="42.61873" lon="1.63113">
        <ele>2292.3999023438</ele>
        <time>2023-07-21T08:20:26.000Z</time>
      </trkpt>
      <trkpt lat="42.61872" lon="1.63112">
        <ele>2292</ele>
        <time>2023-07-21T08:20:24.000Z</time>
      </trkpt>
      <trkpt lat="42.61872" lon="1.63116">
        <ele>2291.6000976562</ele>
        <time>2023-07-21T08:20:19.000Z</time>
      </trkpt>
      <trkpt lat="42.61872" lon="1.63116">
        <ele>2291.3999023438</ele>
        <time>2023-07-21T08:20:18.000Z</time>
      </trkpt>
      <trkpt lat="42.61873" lon="1.63118">
        <ele>2290.1999511719</ele>
        <time>2023-07-21T08:20:13.000Z</time>
      </trkpt>
      <trkpt lat="42.61871" lon="1.63121">
        <ele>2289</ele>
        <time>2023-07-21T08:20:06.000Z</time>
      </trkpt>
      <trkpt lat="42.61871" lon="1.63121">
        <ele>2288.8000488281</ele>
        <time>2023-07-21T08:20:04.000Z</time>
      </trkpt>
      <trkpt lat="42.6187" lon="1.63123">
        <ele>2288</ele>
        <time>2023-07-21T08:20:00.000Z</time>
      </trkpt>
      <trkpt lat="42.61869" lon="1.63126">
        <ele>2287.3999023438</ele>
        <time>2023-07-21T08:19:56.000Z</time>
      </trkpt>
      <trkpt lat="42.61869" lon="1.63128">
        <ele>2286.8000488281</ele>
        <time>2023-07-21T08:19:52.000Z</time>
      </trkpt>
      <trkpt lat="42.61867" lon="1.63131">
        <ele>2286.3999023438</ele>
        <time>2023-07-21T08:19:46.000Z</time>
      </trkpt>
      <trkpt lat="42.61866" lon="1.63135">
        <ele>2285.8000488281</ele>
        <time>2023-07-21T08:19:41.000Z</time>
      </trkpt>
      <trkpt lat="42.61865" lon="1.63137">
        <ele>2285.3999023438</ele>
        <time>2023-07-21T08:19:38.000Z</time>
      </trkpt>
      <trkpt lat="42.61864" lon="1.63141">
        <ele>2284.3999023438</ele>
        <time>2023-07-21T08:19:31.000Z</time>
      </trkpt>
      <trkpt lat="42.61864" lon="1.63141">
        <ele>2284</ele>
        <time>2023-07-21T08:19:29.000Z</time>
      </trkpt>
      <trkpt lat="42.61862" lon="1.63146">
        <ele>2283.3999023438</ele>
        <time>2023-07-21T08:19:21.000Z</time>
      </trkpt>
      <trkpt lat="42.61862" lon="1.63146">
        <ele>2283.3999023438</ele>
        <time>2023-07-21T08:19:20.000Z</time>
      </trkpt>
      <trkpt lat="42.61863" lon="1.63147">
        <ele>2282.8000488281</ele>
        <time>2023-07-21T08:19:14.000Z</time>
      </trkpt>
      <trkpt lat="42.61862" lon="1.63148">
        <ele>2282.3999023438</ele>
        <time>2023-07-21T08:19:11.000Z</time>
      </trkpt>
      <trkpt lat="42.6186" lon="1.63151">
        <ele>2282</ele>
        <time>2023-07-21T08:19:05.000Z</time>
      </trkpt>
      <trkpt lat="42.61859" lon="1.63155">
        <ele>2281.1999511719</ele>
        <time>2023-07-21T08:19:00.000Z</time>
      </trkpt>
      <trkpt lat="42.61859" lon="1.63153">
        <ele>2280.1999511719</ele>
        <time>2023-07-21T08:18:56.000Z</time>
      </trkpt>
      <trkpt lat="42.61859" lon="1.63154">
        <ele>2280.1999511719</ele>
        <time>2023-07-21T08:18:55.000Z</time>
      </trkpt>
      <trkpt lat="42.61858" lon="1.63156">
        <ele>2279</ele>
        <time>2023-07-21T08:18:49.000Z</time>
      </trkpt>
      <trkpt lat="42.61856" lon="1.6316">
        <ele>2278</ele>
        <time>2023-07-21T08:18:39.000Z</time>
      </trkpt>
      <trkpt lat="42.61856" lon="1.63161">
        <ele>2278</ele>
        <time>2023-07-21T08:18:38.000Z</time>
      </trkpt>
      <trkpt lat="42.61855" lon="1.63166">
        <ele>2277</ele>
        <time>2023-07-21T08:18:29.000Z</time>
      </trkpt>
      <trkpt lat="42.61854" lon="1.63169">
        <ele>2275.8000488281</ele>
        <time>2023-07-21T08:18:21.000Z</time>
      </trkpt>
      <trkpt lat="42.61851" lon="1.63171">
        <ele>2274.8000488281</ele>
        <time>2023-07-21T08:18:14.000Z</time>
      </trkpt>
      <trkpt lat="42.61851" lon="1.63171">
        <ele>2274.6000976562</ele>
        <time>2023-07-21T08:18:13.000Z</time>
      </trkpt>
      <trkpt lat="42.6185" lon="1.63174">
        <ele>2273.6000976562</ele>
        <time>2023-07-21T08:18:06.000Z</time>
      </trkpt>
      <trkpt lat="42.61849" lon="1.63176">
        <ele>2273.6000976562</ele>
        <time>2023-07-21T08:18:04.000Z</time>
      </trkpt>
      <trkpt lat="42.61848" lon="1.63178">
        <ele>2273</ele>
        <time>2023-07-21T08:17:58.000Z</time>
      </trkpt>
      <trkpt lat="42.61848" lon="1.63181">
        <ele>2272.6000976562</ele>
        <time>2023-07-21T08:17:53.000Z</time>
      </trkpt>
      <trkpt lat="42.61848" lon="1.63181">
        <ele>2272</ele>
        <time>2023-07-21T08:17:50.000Z</time>
      </trkpt>
      <trkpt lat="42.61848" lon="1.6318">
        <ele>2271.3999023438</ele>
        <time>2023-07-21T08:17:47.000Z</time>
      </trkpt>
      <trkpt lat="42.61848" lon="1.63184">
        <ele>2271.3999023438</ele>
        <time>2023-07-21T08:17:43.000Z</time>
      </trkpt>
      <trkpt lat="42.61847" lon="1.63185">
        <ele>2270.3999023438</ele>
        <time>2023-07-21T08:17:38.000Z</time>
      </trkpt>
      <trkpt lat="42.61846" lon="1.63187">
        <ele>2270</ele>
        <time>2023-07-21T08:17:36.000Z</time>
      </trkpt>
      <trkpt lat="42.61846" lon="1.63191">
        <ele>2269.3999023438</ele>
        <time>2023-07-21T08:17:27.000Z</time>
      </trkpt>
      <trkpt lat="42.61846" lon="1.63191">
        <ele>2269.1999511719</ele>
        <time>2023-07-21T08:17:25.000Z</time>
      </trkpt>
      <trkpt lat="42.61845" lon="1.63189">
        <ele>2268.1999511719</ele>
        <time>2023-07-21T08:17:19.000Z</time>
      </trkpt>
      <trkpt lat="42.61845" lon="1.63188">
        <ele>2268</ele>
        <time>2023-07-21T08:17:18.000Z</time>
      </trkpt>
      <trkpt lat="42.61845" lon="1.63187">
        <ele>2267</ele>
        <time>2023-07-21T08:17:14.000Z</time>
      </trkpt>
      <trkpt lat="42.61844" lon="1.63186">
        <ele>2266.3999023438</ele>
        <time>2023-07-21T08:17:08.000Z</time>
      </trkpt>
      <trkpt lat="42.61842" lon="1.63186">
        <ele>2266</ele>
        <time>2023-07-21T08:17:04.000Z</time>
      </trkpt>
      <trkpt lat="42.61842" lon="1.63187">
        <ele>2265.1999511719</ele>
        <time>2023-07-21T08:17:00.000Z</time>
      </trkpt>
      <trkpt lat="42.61842" lon="1.63188">
        <ele>2265</ele>
        <time>2023-07-21T08:16:59.000Z</time>
      </trkpt>
      <trkpt lat="42.61841" lon="1.63188">
        <ele>2264.8000488281</ele>
        <time>2023-07-21T08:16:58.000Z</time>
      </trkpt>
      <trkpt lat="42.61841" lon="1.63188">
        <ele>2264.6000976562</ele>
        <time>2023-07-21T08:16:56.000Z</time>
      </trkpt>
      <trkpt lat="42.6184" lon="1.63189">
        <ele>2264.1999511719</ele>
        <time>2023-07-21T08:16:52.000Z</time>
      </trkpt>
      <trkpt lat="42.61841" lon="1.6319">
        <ele>2263.8000488281</ele>
        <time>2023-07-21T08:16:49.000Z</time>
      </trkpt>
      <trkpt lat="42.6184" lon="1.63186">
        <ele>2263.6000976562</ele>
        <time>2023-07-21T08:16:45.000Z</time>
      </trkpt>
      <trkpt lat="42.61837" lon="1.63185">
        <ele>2263.1999511719</ele>
        <time>2023-07-21T08:16:38.000Z</time>
      </trkpt>
      <trkpt lat="42.61836" lon="1.63184">
        <ele>2262.8000488281</ele>
        <time>2023-07-21T08:16:36.000Z</time>
      </trkpt>
      <trkpt lat="42.61836" lon="1.63183">
        <ele>2261.6000976562</ele>
        <time>2023-07-21T08:16:29.000Z</time>
      </trkpt>
      <trkpt lat="42.61835" lon="1.63183">
        <ele>2261.3999023438</ele>
        <time>2023-07-21T08:16:28.000Z</time>
      </trkpt>
      <trkpt lat="42.61833" lon="1.63186">
        <ele>2260.8000488281</ele>
        <time>2023-07-21T08:16:19.000Z</time>
      </trkpt>
      <trkpt lat="42.61832" lon="1.63188">
        <ele>2260.3999023438</ele>
        <time>2023-07-21T08:16:16.000Z</time>
      </trkpt>
      <trkpt lat="42.61832" lon="1.63191">
        <ele>2259.3999023438</ele>
        <time>2023-07-21T08:16:08.000Z</time>
      </trkpt>
      <trkpt lat="42.61832" lon="1.63191">
        <ele>2259</ele>
        <time>2023-07-21T08:16:07.000Z</time>
      </trkpt>
      <trkpt lat="42.61831" lon="1.63192">
        <ele>2258.3999023438</ele>
        <time>2023-07-21T08:16:00.000Z</time>
      </trkpt>
      <trkpt lat="42.61831" lon="1.63193">
        <ele>2258.1999511719</ele>
        <time>2023-07-21T08:15:59.000Z</time>
      </trkpt>
      <trkpt lat="42.61831" lon="1.63197">
        <ele>2257.1999511719</ele>
        <time>2023-07-21T08:15:52.000Z</time>
      </trkpt>
      <trkpt lat="42.6183" lon="1.63199">
        <ele>2256.1999511719</ele>
        <time>2023-07-21T08:15:44.000Z</time>
      </trkpt>
      <trkpt lat="42.6183" lon="1.63199">
        <ele>2255.8000488281</ele>
        <time>2023-07-21T08:15:43.000Z</time>
      </trkpt>
      <trkpt lat="42.61828" lon="1.63196">
        <ele>2255.1999511719</ele>
        <time>2023-07-21T08:15:37.000Z</time>
      </trkpt>
      <trkpt lat="42.61825" lon="1.63196">
        <ele>2255</ele>
        <time>2023-07-21T08:15:31.000Z</time>
      </trkpt>
      <trkpt lat="42.61824" lon="1.63197">
        <ele>2254.6000976562</ele>
        <time>2023-07-21T08:15:29.000Z</time>
      </trkpt>
      <trkpt lat="42.61823" lon="1.63197">
        <ele>2253.8000488281</ele>
        <time>2023-07-21T08:15:21.000Z</time>
      </trkpt>
      <trkpt lat="42.61824" lon="1.63199">
        <ele>2253.8000488281</ele>
        <time>2023-07-21T08:15:19.000Z</time>
      </trkpt>
      <trkpt lat="42.61823" lon="1.63199">
        <ele>2253.1999511719</ele>
        <time>2023-07-21T08:15:14.000Z</time>
      </trkpt>
      <trkpt lat="42.61822" lon="1.63194">
        <ele>2252.8000488281</ele>
        <time>2023-07-21T08:15:08.000Z</time>
      </trkpt>
      <trkpt lat="42.61822" lon="1.63192">
        <ele>2252</ele>
        <time>2023-07-21T08:15:04.000Z</time>
      </trkpt>
      <trkpt lat="42.61822" lon="1.63191">
        <ele>2251.6000976562</ele>
        <time>2023-07-21T08:15:02.000Z</time>
      </trkpt>
      <trkpt lat="42.61821" lon="1.6319">
        <ele>2251</ele>
        <time>2023-07-21T08:14:57.000Z</time>
      </trkpt>
      <trkpt lat="42.6182" lon="1.63189">
        <ele>2250.6000976562</ele>
        <time>2023-07-21T08:14:55.000Z</time>
      </trkpt>
      <trkpt lat="42.6182" lon="1.63192">
        <ele>2249.6000976562</ele>
        <time>2023-07-21T08:14:48.000Z</time>
      </trkpt>
      <trkpt lat="42.6182" lon="1.63192">
        <ele>2249.3999023438</ele>
        <time>2023-07-21T08:14:47.000Z</time>
      </trkpt>
      <trkpt lat="42.61817" lon="1.63195">
        <ele>2248.6000976562</ele>
        <time>2023-07-21T08:14:41.000Z</time>
      </trkpt>
      <trkpt lat="42.61817" lon="1.63195">
        <ele>2248.3999023438</ele>
        <time>2023-07-21T08:14:40.000Z</time>
      </trkpt>
      <trkpt lat="42.61816" lon="1.63199">
        <ele>2247.6000976562</ele>
        <time>2023-07-21T08:14:34.000Z</time>
      </trkpt>
      <trkpt lat="42.61816" lon="1.63201">
        <ele>2247.3999023438</ele>
        <time>2023-07-21T08:14:31.000Z</time>
      </trkpt>
      <trkpt lat="42.61817" lon="1.63202">
        <ele>2246.8000488281</ele>
        <time>2023-07-21T08:14:27.000Z</time>
      </trkpt>
      <trkpt lat="42.6182" lon="1.63205">
        <ele>2246.1999511719</ele>
        <time>2023-07-21T08:14:21.000Z</time>
      </trkpt>
      <trkpt lat="42.6182" lon="1.63205">
        <ele>2246</ele>
        <time>2023-07-21T08:14:19.000Z</time>
      </trkpt>
      <trkpt lat="42.61822" lon="1.63207">
        <ele>2245.6000976562</ele>
        <time>2023-07-21T08:14:13.000Z</time>
      </trkpt>
      <trkpt lat="42.61825" lon="1.63208">
        <ele>2245.1999511719</ele>
        <time>2023-07-21T08:14:08.000Z</time>
      </trkpt>
      <trkpt lat="42.61825" lon="1.63208">
        <ele>2245</ele>
        <time>2023-07-21T08:14:06.000Z</time>
      </trkpt>
      <trkpt lat="42.61826" lon="1.63208">
        <ele>2244.1999511719</ele>
        <time>2023-07-21T08:14:00.000Z</time>
      </trkpt>
      <trkpt lat="42.61825" lon="1.63208">
        <ele>2243.6000976562</ele>
        <time>2023-07-21T08:13:57.000Z</time>
      </trkpt>
      <trkpt lat="42.61824" lon="1.63209">
        <ele>2243</ele>
        <time>2023-07-21T08:13:52.000Z</time>
      </trkpt>
      <trkpt lat="42.61825" lon="1.63211">
        <ele>2242.8000488281</ele>
        <time>2023-07-21T08:13:50.000Z</time>
      </trkpt>
      <trkpt lat="42.61825" lon="1.63215">
        <ele>2242.6000976562</ele>
        <time>2023-07-21T08:13:43.000Z</time>
      </trkpt>
      <trkpt lat="42.61825" lon="1.63214">
        <ele>2242</ele>
        <time>2023-07-21T08:13:40.000Z</time>
      </trkpt>
      <trkpt lat="42.61823" lon="1.63219">
        <ele>2241.1999511719</ele>
        <time>2023-07-21T08:13:34.000Z</time>
      </trkpt>
      <trkpt lat="42.61823" lon="1.6322">
        <ele>2241</ele>
        <time>2023-07-21T08:13:32.000Z</time>
      </trkpt>
      <trkpt lat="42.61822" lon="1.63223">
        <ele>2240.3999023438</ele>
        <time>2023-07-21T08:13:25.000Z</time>
      </trkpt>
      <trkpt lat="42.61822" lon="1.63224">
        <ele>2240</ele>
        <time>2023-07-21T08:13:23.000Z</time>
      </trkpt>
      <trkpt lat="42.61821" lon="1.63227">
        <ele>2239.3999023438</ele>
        <time>2023-07-21T08:13:18.000Z</time>
      </trkpt>
      <trkpt lat="42.61819" lon="1.6323">
        <ele>2238.8000488281</ele>
        <time>2023-07-21T08:13:12.000Z</time>
      </trkpt>
      <trkpt lat="42.61818" lon="1.63231">
        <ele>2238.3999023438</ele>
        <time>2023-07-21T08:13:10.000Z</time>
      </trkpt>
      <trkpt lat="42.61816" lon="1.63237">
        <ele>2237.8000488281</ele>
        <time>2023-07-21T08:13:01.000Z</time>
      </trkpt>
      <trkpt lat="42.61816" lon="1.63243">
        <ele>2236.6000976562</ele>
        <time>2023-07-21T08:12:52.000Z</time>
      </trkpt>
      <trkpt lat="42.61815" lon="1.63246">
        <ele>2235.6000976562</ele>
        <time>2023-07-21T08:12:46.000Z</time>
      </trkpt>
      <trkpt lat="42.61814" lon="1.63253">
        <ele>2234.3999023438</ele>
        <time>2023-07-21T08:12:38.000Z</time>
      </trkpt>
      <trkpt lat="42.61814" lon="1.63258">
        <ele>2233.3999023438</ele>
        <time>2023-07-21T08:12:32.000Z</time>
      </trkpt>
      <trkpt lat="42.61813" lon="1.63259">
        <ele>2233.1999511719</ele>
        <time>2023-07-21T08:12:30.000Z</time>
      </trkpt>
      <trkpt lat="42.61813" lon="1.63263">
        <ele>2232.3999023438</ele>
        <time>2023-07-21T08:12:26.000Z</time>
      </trkpt>
      <trkpt lat="42.61812" lon="1.63267">
        <ele>2232</ele>
        <time>2023-07-21T08:12:22.000Z</time>
      </trkpt>
      <trkpt lat="42.61811" lon="1.63275">
        <ele>2231.8000488281</ele>
        <time>2023-07-21T08:12:15.000Z</time>
      </trkpt>
      <trkpt lat="42.6181" lon="1.63285">
        <ele>2231.6000976562</ele>
        <time>2023-07-21T08:12:07.000Z</time>
      </trkpt>
      <trkpt lat="42.61809" lon="1.63292">
        <ele>2231.3999023438</ele>
        <time>2023-07-21T08:12:02.000Z</time>
      </trkpt>
      <trkpt lat="42.61808" lon="1.63295">
        <ele>2231</ele>
        <time>2023-07-21T08:11:59.000Z</time>
      </trkpt>
      <trkpt lat="42.61807" lon="1.63301">
        <ele>2230.6000976562</ele>
        <time>2023-07-21T08:11:53.000Z</time>
      </trkpt>
      <trkpt lat="42.61806" lon="1.63306">
        <ele>2230.1999511719</ele>
        <time>2023-07-21T08:11:49.000Z</time>
      </trkpt>
      <trkpt lat="42.61805" lon="1.63309">
        <ele>2230</ele>
        <time>2023-07-21T08:11:45.000Z</time>
      </trkpt>
      <trkpt lat="42.61804" lon="1.63313">
        <ele>2229.1999511719</ele>
        <time>2023-07-21T08:11:40.000Z</time>
      </trkpt>
      <trkpt lat="42.61803" lon="1.63314">
        <ele>2229.1999511719</ele>
        <time>2023-07-21T08:11:39.000Z</time>
      </trkpt>
      <trkpt lat="42.61802" lon="1.63323">
        <ele>2228.3999023438</ele>
        <time>2023-07-21T08:11:31.000Z</time>
      </trkpt>
      <trkpt lat="42.61801" lon="1.63324">
        <ele>2228.1999511719</ele>
        <time>2023-07-21T08:11:30.000Z</time>
      </trkpt>
      <trkpt lat="42.61801" lon="1.63329">
        <ele>2227.3999023438</ele>
        <time>2023-07-21T08:11:24.000Z</time>
      </trkpt>
      <trkpt lat="42.61801" lon="1.63331">
        <ele>2227.1999511719</ele>
        <time>2023-07-21T08:11:20.000Z</time>
      </trkpt>
      <trkpt lat="42.618" lon="1.63332">
        <ele>2226.3999023438</ele>
        <time>2023-07-21T08:11:17.000Z</time>
      </trkpt>
      <trkpt lat="42.618" lon="1.63337">
        <ele>2226</ele>
        <time>2023-07-21T08:11:09.000Z</time>
      </trkpt>
      <trkpt lat="42.61801" lon="1.63345">
        <ele>2225</ele>
        <time>2023-07-21T08:11:01.000Z</time>
      </trkpt>
      <trkpt lat="42.61799" lon="1.63351">
        <ele>2225</ele>
        <time>2023-07-21T08:10:55.000Z</time>
      </trkpt>
      <trkpt lat="42.61797" lon="1.63358">
        <ele>2224</ele>
        <time>2023-07-21T08:10:48.000Z</time>
      </trkpt>
      <trkpt lat="42.61797" lon="1.63358">
        <ele>2223.8000488281</ele>
        <time>2023-07-21T08:10:47.000Z</time>
      </trkpt>
      <trkpt lat="42.61797" lon="1.63364">
        <ele>2223.6000976562</ele>
        <time>2023-07-21T08:10:42.000Z</time>
      </trkpt>
      <trkpt lat="42.61796" lon="1.63369">
        <ele>2223.1999511719</ele>
        <time>2023-07-21T08:10:36.000Z</time>
      </trkpt>
      <trkpt lat="42.61793" lon="1.63376">
        <ele>2222.8000488281</ele>
        <time>2023-07-21T08:10:28.000Z</time>
      </trkpt>
      <trkpt lat="42.61792" lon="1.63384">
        <ele>2221.8000488281</ele>
        <time>2023-07-21T08:10:20.000Z</time>
      </trkpt>
      <trkpt lat="42.61791" lon="1.63387">
        <ele>2221.8000488281</ele>
        <time>2023-07-21T08:10:17.000Z</time>
      </trkpt>
      <trkpt lat="42.61788" lon="1.63391">
        <ele>2221.3999023438</ele>
        <time>2023-07-21T08:10:12.000Z</time>
      </trkpt>
      <trkpt lat="42.61783" lon="1.63398">
        <ele>2221</ele>
        <time>2023-07-21T08:10:05.000Z</time>
      </trkpt>
      <trkpt lat="42.61781" lon="1.63406">
        <ele>2220.8000488281</ele>
        <time>2023-07-21T08:09:59.000Z</time>
      </trkpt>
      <trkpt lat="42.61779" lon="1.63415">
        <ele>2221.1999511719</ele>
        <time>2023-07-21T08:09:51.000Z</time>
      </trkpt>
      <trkpt lat="42.61778" lon="1.63419">
        <ele>2220.8000488281</ele>
        <time>2023-07-21T08:09:44.000Z</time>
      </trkpt>
      <trkpt lat="42.61776" lon="1.63425">
        <ele>2220.6000976562</ele>
        <time>2023-07-21T08:09:39.000Z</time>
      </trkpt>
      <trkpt lat="42.61775" lon="1.63428">
        <ele>2220.3999023438</ele>
        <time>2023-07-21T08:09:36.000Z</time>
      </trkpt>
      <trkpt lat="42.61774" lon="1.63433">
        <ele>2219.6000976562</ele>
        <time>2023-07-21T08:09:30.000Z</time>
      </trkpt>
      <trkpt lat="42.61773" lon="1.63437">
        <ele>2219.1999511719</ele>
        <time>2023-07-21T08:09:27.000Z</time>
      </trkpt>
      <trkpt lat="42.61773" lon="1.63441">
        <ele>2218.3999023438</ele>
        <time>2023-07-21T08:09:23.000Z</time>
      </trkpt>
      <trkpt lat="42.61773" lon="1.63442">
        <ele>2217.8000488281</ele>
        <time>2023-07-21T08:09:19.000Z</time>
      </trkpt>
      <trkpt lat="42.61772" lon="1.63449">
        <ele>2217.3999023438</ele>
        <time>2023-07-21T08:09:12.000Z</time>
      </trkpt>
      <trkpt lat="42.61771" lon="1.6345">
        <ele>2217.1999511719</ele>
        <time>2023-07-21T08:09:10.000Z</time>
      </trkpt>
      <trkpt lat="42.6177" lon="1.63457">
        <ele>2216.3999023438</ele>
        <time>2023-07-21T08:09:04.000Z</time>
      </trkpt>
      <trkpt lat="42.6177" lon="1.63458">
        <ele>2216.3999023438</ele>
        <time>2023-07-21T08:09:03.000Z</time>
      </trkpt>
      <trkpt lat="42.61768" lon="1.63461">
        <ele>2215.3999023438</ele>
        <time>2023-07-21T08:08:57.000Z</time>
      </trkpt>
      <trkpt lat="42.61767" lon="1.63462">
        <ele>2215.1999511719</ele>
        <time>2023-07-21T08:08:55.000Z</time>
      </trkpt>
      <trkpt lat="42.61766" lon="1.63469">
        <ele>2214.1999511719</ele>
        <time>2023-07-21T08:08:48.000Z</time>
      </trkpt>
      <trkpt lat="42.61765" lon="1.63473">
        <ele>2213.8000488281</ele>
        <time>2023-07-21T08:08:42.000Z</time>
      </trkpt>
      <trkpt lat="42.61763" lon="1.63479">
        <ele>2213.1999511719</ele>
        <time>2023-07-21T08:08:36.000Z</time>
      </trkpt>
      <trkpt lat="42.61761" lon="1.63483">
        <ele>2212.8000488281</ele>
        <time>2023-07-21T08:08:33.000Z</time>
      </trkpt>
      <trkpt lat="42.61758" lon="1.63494">
        <ele>2212</ele>
        <time>2023-07-21T08:08:24.000Z</time>
      </trkpt>
      <trkpt lat="42.61754" lon="1.63501">
        <ele>2211.3999023438</ele>
        <time>2023-07-21T08:08:18.000Z</time>
      </trkpt>
      <trkpt lat="42.61752" lon="1.63507">
        <ele>2211.3999023438</ele>
        <time>2023-07-21T08:08:09.000Z</time>
      </trkpt>
      <trkpt lat="42.61749" lon="1.63513">
        <ele>2212</ele>
        <time>2023-07-21T08:08:01.000Z</time>
      </trkpt>
      <trkpt lat="42.61748" lon="1.63517">
        <ele>2212.8000488281</ele>
        <time>2023-07-21T08:07:52.000Z</time>
      </trkpt>
      <trkpt lat="42.61745" lon="1.63524">
        <ele>2213</ele>
        <time>2023-07-21T08:07:44.000Z</time>
      </trkpt>
      <trkpt lat="42.61744" lon="1.63532">
        <ele>2212.8000488281</ele>
        <time>2023-07-21T08:07:38.000Z</time>
      </trkpt>
      <trkpt lat="42.61745" lon="1.63536">
        <ele>2212.1999511719</ele>
        <time>2023-07-21T08:07:31.000Z</time>
      </trkpt>
      <trkpt lat="42.61744" lon="1.63535">
        <ele>2212</ele>
        <time>2023-07-21T08:07:24.000Z</time>
      </trkpt>
      <trkpt lat="42.61743" lon="1.63543">
        <ele>2211.1999511719</ele>
        <time>2023-07-21T08:07:16.000Z</time>
      </trkpt>
      <trkpt lat="42.61743" lon="1.63545">
        <ele>2211.6000976562</ele>
        <time>2023-07-21T08:07:07.000Z</time>
      </trkpt>
      <trkpt lat="42.61743" lon="1.63545">
        <ele>2212</ele>
        <time>2023-07-21T08:07:06.000Z</time>
      </trkpt>
      <trkpt lat="42.61742" lon="1.63553">
        <ele>2213.1999511719</ele>
        <time>2023-07-21T08:06:59.000Z</time>
      </trkpt>
      <trkpt lat="42.61743" lon="1.63561">
        <ele>2213.1999511719</ele>
        <time>2023-07-21T08:06:51.000Z</time>
      </trkpt>
      <trkpt lat="42.61742" lon="1.63561">
        <ele>2212.8000488281</ele>
        <time>2023-07-21T08:06:44.000Z</time>
      </trkpt>
      <trkpt lat="42.61741" lon="1.63565">
        <ele>2212.8000488281</ele>
        <time>2023-07-21T08:06:39.000Z</time>
      </trkpt>
      <trkpt lat="42.61741" lon="1.63571">
        <ele>2212.8000488281</ele>
        <time>2023-07-21T08:06:31.000Z</time>
      </trkpt>
      <trkpt lat="42.61741" lon="1.63574">
        <ele>2213.1999511719</ele>
        <time>2023-07-21T08:06:28.000Z</time>
      </trkpt>
      <trkpt lat="42.61742" lon="1.63574">
        <ele>2213.8000488281</ele>
        <time>2023-07-21T08:06:23.000Z</time>
      </trkpt>
      <trkpt lat="42.61742" lon="1.63579">
        <ele>2214.3999023438</ele>
        <time>2023-07-21T08:06:16.000Z</time>
      </trkpt>
      <trkpt lat="42.61745" lon="1.63584">
        <ele>2214.3999023438</ele>
        <time>2023-07-21T08:06:09.000Z</time>
      </trkpt>
      <trkpt lat="42.61747" lon="1.63586">
        <ele>2214.1999511719</ele>
        <time>2023-07-21T08:06:06.000Z</time>
      </trkpt>
      <trkpt lat="42.61746" lon="1.63589">
        <ele>2213.3999023438</ele>
        <time>2023-07-21T08:06:01.000Z</time>
      </trkpt>
      <trkpt lat="42.61743" lon="1.63593">
        <ele>2212.8000488281</ele>
        <time>2023-07-21T08:05:53.000Z</time>
      </trkpt>
      <trkpt lat="42.61742" lon="1.63598">
        <ele>2213.1999511719</ele>
        <time>2023-07-21T08:05:47.000Z</time>
      </trkpt>
      <trkpt lat="42.61742" lon="1.636">
        <ele>2212</ele>
        <time>2023-07-21T08:05:43.000Z</time>
      </trkpt>
      <trkpt lat="42.6174" lon="1.63606">
        <ele>2211.1999511719</ele>
        <time>2023-07-21T08:05:36.000Z</time>
      </trkpt>
      <trkpt lat="42.61739" lon="1.63608">
        <ele>2211</ele>
        <time>2023-07-21T08:05:35.000Z</time>
      </trkpt>
      <trkpt lat="42.61738" lon="1.63612">
        <ele>2210.3999023438</ele>
        <time>2023-07-21T08:05:29.000Z</time>
      </trkpt>
      <trkpt lat="42.61737" lon="1.63618">
        <ele>2210</ele>
        <time>2023-07-21T08:05:25.000Z</time>
      </trkpt>
      <trkpt lat="42.61736" lon="1.63622">
        <ele>2209.8000488281</ele>
        <time>2023-07-21T08:05:23.000Z</time>
      </trkpt>
      <trkpt lat="42.61735" lon="1.63625">
        <ele>2209</ele>
        <time>2023-07-21T08:05:17.000Z</time>
      </trkpt>
      <trkpt lat="42.61735" lon="1.63626">
        <ele>2209</ele>
        <time>2023-07-21T08:05:16.000Z</time>
      </trkpt>
      <trkpt lat="42.61733" lon="1.63633">
        <ele>2208.6000976562</ele>
        <time>2023-07-21T08:05:11.000Z</time>
      </trkpt>
      <trkpt lat="42.61731" lon="1.63643">
        <ele>2208</ele>
        <time>2023-07-21T08:05:03.000Z</time>
      </trkpt>
      <trkpt lat="42.61729" lon="1.63658">
        <ele>2208</ele>
        <time>2023-07-21T08:04:53.000Z</time>
      </trkpt>
      <trkpt lat="42.61729" lon="1.63659">
        <ele>2207.8000488281</ele>
        <time>2023-07-21T08:04:52.000Z</time>
      </trkpt>
      <trkpt lat="42.61729" lon="1.63664">
        <ele>2207.1999511719</ele>
        <time>2023-07-21T08:04:45.000Z</time>
      </trkpt>
      <trkpt lat="42.61729" lon="1.63669">
        <ele>2206.8000488281</ele>
        <time>2023-07-21T08:04:40.000Z</time>
      </trkpt>
      <trkpt lat="42.6173" lon="1.63672">
        <ele>2206.1999511719</ele>
        <time>2023-07-21T08:04:36.000Z</time>
      </trkpt>
      <trkpt lat="42.61734" lon="1.63684">
        <ele>2205.8000488281</ele>
        <time>2023-07-21T08:04:26.000Z</time>
      </trkpt>
      <trkpt lat="42.61739" lon="1.63694">
        <ele>2205.8000488281</ele>
        <time>2023-07-21T08:04:19.000Z</time>
      </trkpt>
      <trkpt lat="42.61741" lon="1.63695">
        <ele>2205.8000488281</ele>
        <time>2023-07-21T08:04:14.000Z</time>
      </trkpt>
      <trkpt lat="42.61741" lon="1.63695">
        <ele>2205.8000488281</ele>
        <time>2023-07-21T08:04:13.000Z</time>
      </trkpt>
      <trkpt lat="42.61741" lon="1.63695">
        <ele>2205.6000976562</ele>
        <time>2023-07-21T08:04:04.000Z</time>
      </trkpt>
      <trkpt lat="42.61743" lon="1.63699">
        <ele>2205.6000976562</ele>
        <time>2023-07-21T08:03:54.000Z</time>
      </trkpt>
      <trkpt lat="42.61743" lon="1.637">
        <ele>2205.6000976562</ele>
        <time>2023-07-21T08:03:45.000Z</time>
      </trkpt>
      <trkpt lat="42.61742" lon="1.63699">
        <ele>2205.3999023438</ele>
        <time>2023-07-21T08:03:40.000Z</time>
      </trkpt>
      <trkpt lat="42.61741" lon="1.63699">
        <ele>2205.3999023438</ele>
        <time>2023-07-21T08:03:39.000Z</time>
      </trkpt>
      <trkpt lat="42.61743" lon="1.63704">
        <ele>2205.1999511719</ele>
        <time>2023-07-21T08:03:31.000Z</time>
      </trkpt>
      <trkpt lat="42.61746" lon="1.63714">
        <ele>2204.8000488281</ele>
        <time>2023-07-21T08:03:24.000Z</time>
      </trkpt>
      <trkpt lat="42.61748" lon="1.63719">
        <ele>2205.3999023438</ele>
        <time>2023-07-21T08:03:17.000Z</time>
      </trkpt>
      <trkpt lat="42.6175" lon="1.63725">
        <ele>2204.8000488281</ele>
        <time>2023-07-21T08:03:09.000Z</time>
      </trkpt>
      <trkpt lat="42.6175" lon="1.63726">
        <ele>2204.6000976562</ele>
        <time>2023-07-21T08:03:08.000Z</time>
      </trkpt>
      <trkpt lat="42.61755" lon="1.63732">
        <ele>2204</ele>
        <time>2023-07-21T08:03:01.000Z</time>
      </trkpt>
      <trkpt lat="42.61756" lon="1.63733">
        <ele>2203.8000488281</ele>
        <time>2023-07-21T08:02:59.000Z</time>
      </trkpt>
      <trkpt lat="42.61758" lon="1.63735">
        <ele>2203.1999511719</ele>
        <time>2023-07-21T08:02:54.000Z</time>
      </trkpt>
      <trkpt lat="42.61763" lon="1.63741">
        <ele>2202.8000488281</ele>
        <time>2023-07-21T08:02:45.000Z</time>
      </trkpt>
      <trkpt lat="42.61764" lon="1.63743">
        <ele>2202.6000976562</ele>
        <time>2023-07-21T08:02:43.000Z</time>
      </trkpt>
      <trkpt lat="42.61766" lon="1.63746">
        <ele>2202</ele>
        <time>2023-07-21T08:02:38.000Z</time>
      </trkpt>
      <trkpt lat="42.61769" lon="1.63748">
        <ele>2201.3999023438</ele>
        <time>2023-07-21T08:02:32.000Z</time>
      </trkpt>
      <trkpt lat="42.6177" lon="1.63751">
        <ele>2201</ele>
        <time>2023-07-21T08:02:30.000Z</time>
      </trkpt>
      <trkpt lat="42.61771" lon="1.63754">
        <ele>2200.3999023438</ele>
        <time>2023-07-21T08:02:27.000Z</time>
      </trkpt>
      <trkpt lat="42.61771" lon="1.63756">
        <ele>2200.1999511719</ele>
        <time>2023-07-21T08:02:23.000Z</time>
      </trkpt>
      <trkpt lat="42.61773" lon="1.63761">
        <ele>2199.3999023438</ele>
        <time>2023-07-21T08:02:16.000Z</time>
      </trkpt>
      <trkpt lat="42.61773" lon="1.63762">
        <ele>2199</ele>
        <time>2023-07-21T08:02:14.000Z</time>
      </trkpt>
      <trkpt lat="42.61773" lon="1.63765">
        <ele>2198.3999023438</ele>
        <time>2023-07-21T08:02:09.000Z</time>
      </trkpt>
      <trkpt lat="42.61774" lon="1.63765">
        <ele>2198</ele>
        <time>2023-07-21T08:02:07.000Z</time>
      </trkpt>
      <trkpt lat="42.61771" lon="1.63765">
        <ele>2197.6000976562</ele>
        <time>2023-07-21T08:02:00.000Z</time>
      </trkpt>
      <trkpt lat="42.61767" lon="1.63763">
        <ele>2197.6000976562</ele>
        <time>2023-07-21T08:01:52.000Z</time>
      </trkpt>
      <trkpt lat="42.61764" lon="1.6376">
        <ele>2197.1999511719</ele>
        <time>2023-07-21T08:01:46.000Z</time>
      </trkpt>
      <trkpt lat="42.61765" lon="1.6376">
        <ele>2196.8000488281</ele>
        <time>2023-07-21T08:01:37.000Z</time>
      </trkpt>
      <trkpt lat="42.61763" lon="1.63759">
        <ele>2196.8000488281</ele>
        <time>2023-07-21T08:01:28.000Z</time>
      </trkpt>
      <trkpt lat="42.61762" lon="1.63758">
        <ele>2197</ele>
        <time>2023-07-21T08:01:19.000Z</time>
      </trkpt>
      <trkpt lat="42.61762" lon="1.63758">
        <ele>2197</ele>
        <time>2023-07-21T08:01:13.000Z</time>
      </trkpt>
      <trkpt lat="42.61768" lon="1.63763">
        <ele>2197</ele>
        <time>2023-07-21T08:01:04.000Z</time>
      </trkpt>
      <trkpt lat="42.61771" lon="1.63766">
        <ele>2197.3999023438</ele>
        <time>2023-07-21T08:00:57.000Z</time>
      </trkpt>
      <trkpt lat="42.61773" lon="1.63768">
        <ele>2197.3999023438</ele>
        <time>2023-07-21T08:00:49.000Z</time>
      </trkpt>
      <trkpt lat="42.61773" lon="1.63769">
        <ele>2197.1999511719</ele>
        <time>2023-07-21T08:00:43.000Z</time>
      </trkpt>
      <trkpt lat="42.61774" lon="1.6377">
        <ele>2197.3999023438</ele>
        <time>2023-07-21T08:00:42.000Z</time>
      </trkpt>
      <trkpt lat="42.61775" lon="1.63774">
        <ele>2198.3999023438</ele>
        <time>2023-07-21T08:00:37.000Z</time>
      </trkpt>
      <trkpt lat="42.61776" lon="1.63775">
        <ele>2199</ele>
        <time>2023-07-21T08:00:34.000Z</time>
      </trkpt>
      <trkpt lat="42.61778" lon="1.63776">
        <ele>2199.3999023438</ele>
        <time>2023-07-21T08:00:29.000Z</time>
      </trkpt>
      <trkpt lat="42.61779" lon="1.6378">
        <ele>2199.8000488281</ele>
        <time>2023-07-21T08:00:25.000Z</time>
      </trkpt>
      <trkpt lat="42.61782" lon="1.63787">
        <ele>2200</ele>
        <time>2023-07-21T08:00:16.000Z</time>
      </trkpt>
      <trkpt lat="42.61782" lon="1.63788">
        <ele>2200.3999023438</ele>
        <time>2023-07-21T08:00:14.000Z</time>
      </trkpt>
      <trkpt lat="42.61784" lon="1.6379">
        <ele>2201.6000976562</ele>
        <time>2023-07-21T08:00:10.000Z</time>
      </trkpt>
      <trkpt lat="42.61784" lon="1.6379">
        <ele>2202</ele>
        <time>2023-07-21T08:00:08.000Z</time>
      </trkpt>
      <trkpt lat="42.61787" lon="1.63788">
        <ele>2202.3999023438</ele>
        <time>2023-07-21T07:59:59.000Z</time>
      </trkpt>
      <trkpt lat="42.61789" lon="1.63792">
        <ele>2202.3999023438</ele>
        <time>2023-07-21T07:59:52.000Z</time>
      </trkpt>
      <trkpt lat="42.61791" lon="1.63795">
        <ele>2202.8000488281</ele>
        <time>2023-07-21T07:59:47.000Z</time>
      </trkpt>
      <trkpt lat="42.61792" lon="1.63795">
        <ele>2203</ele>
        <time>2023-07-21T07:59:46.000Z</time>
      </trkpt>
      <trkpt lat="42.61795" lon="1.63798">
        <ele>2204</ele>
        <time>2023-07-21T07:59:41.000Z</time>
      </trkpt>
      <trkpt lat="42.61796" lon="1.63798">
        <ele>2204.1999511719</ele>
        <time>2023-07-21T07:59:39.000Z</time>
      </trkpt>
      <trkpt lat="42.618" lon="1.638">
        <ele>2204.6000976562</ele>
        <time>2023-07-21T07:59:32.000Z</time>
      </trkpt>
      <trkpt lat="42.61802" lon="1.63804">
        <ele>2205</ele>
        <time>2023-07-21T07:59:27.000Z</time>
      </trkpt>
      <trkpt lat="42.61802" lon="1.63805">
        <ele>2205.3999023438</ele>
        <time>2023-07-21T07:59:24.000Z</time>
      </trkpt>
      <trkpt lat="42.61804" lon="1.6381">
        <ele>2206</ele>
        <time>2023-07-21T07:59:19.000Z</time>
      </trkpt>
      <trkpt lat="42.61805" lon="1.63812">
        <ele>2206.3999023438</ele>
        <time>2023-07-21T07:59:16.000Z</time>
      </trkpt>
      <trkpt lat="42.61808" lon="1.63816">
        <ele>2207</ele>
        <time>2023-07-21T07:59:09.000Z</time>
      </trkpt>
      <trkpt lat="42.61808" lon="1.63817">
        <ele>2207.1999511719</ele>
        <time>2023-07-21T07:59:08.000Z</time>
      </trkpt>
      <trkpt lat="42.61813" lon="1.63822">
        <ele>2208</ele>
        <time>2023-07-21T07:59:02.000Z</time>
      </trkpt>
      <trkpt lat="42.61813" lon="1.63823">
        <ele>2208.3999023438</ele>
        <time>2023-07-21T07:59:01.000Z</time>
      </trkpt>
      <trkpt lat="42.61816" lon="1.63824">
        <ele>2209.3999023438</ele>
        <time>2023-07-21T07:58:57.000Z</time>
      </trkpt>
      <trkpt lat="42.61817" lon="1.63825">
        <ele>2209.6000976562</ele>
        <time>2023-07-21T07:58:56.000Z</time>
      </trkpt>
      <trkpt lat="42.61819" lon="1.63829">
        <ele>2210.6000976562</ele>
        <time>2023-07-21T07:58:53.000Z</time>
      </trkpt>
      <trkpt lat="42.61819" lon="1.63831">
        <ele>2211</ele>
        <time>2023-07-21T07:58:50.000Z</time>
      </trkpt>
      <trkpt lat="42.61822" lon="1.63832">
        <ele>2211.3999023438</ele>
        <time>2023-07-21T07:58:42.000Z</time>
      </trkpt>
      <trkpt lat="42.61822" lon="1.63833">
        <ele>2211.6000976562</ele>
        <time>2023-07-21T07:58:39.000Z</time>
      </trkpt>
      <trkpt lat="42.61822" lon="1.63835">
        <ele>2212.3999023438</ele>
        <time>2023-07-21T07:58:36.000Z</time>
      </trkpt>
      <trkpt lat="42.61824" lon="1.63839">
        <ele>2212.8000488281</ele>
        <time>2023-07-21T07:58:32.000Z</time>
      </trkpt>
      <trkpt lat="42.61826" lon="1.63842">
        <ele>2213.3999023438</ele>
        <time>2023-07-21T07:58:28.000Z</time>
      </trkpt>
      <trkpt lat="42.61828" lon="1.63845">
        <ele>2214.1999511719</ele>
        <time>2023-07-21T07:58:21.000Z</time>
      </trkpt>
      <trkpt lat="42.61831" lon="1.63851">
        <ele>2214.8000488281</ele>
        <time>2023-07-21T07:58:14.000Z</time>
      </trkpt>
      <trkpt lat="42.61835" lon="1.63857">
        <ele>2214.8000488281</ele>
        <time>2023-07-21T07:58:08.000Z</time>
      </trkpt>
      <trkpt lat="42.61838" lon="1.6386">
        <ele>2214.6000976562</ele>
        <time>2023-07-21T07:57:59.000Z</time>
      </trkpt>
      <trkpt lat="42.61838" lon="1.6386">
        <ele>2214.6000976562</ele>
        <time>2023-07-21T07:57:51.000Z</time>
      </trkpt>
      <trkpt lat="42.6184" lon="1.63867">
        <ele>2213.8000488281</ele>
        <time>2023-07-21T07:57:41.000Z</time>
      </trkpt>
      <trkpt lat="42.61843" lon="1.63877">
        <ele>2214.1999511719</ele>
        <time>2023-07-21T07:57:32.000Z</time>
      </trkpt>
      <trkpt lat="42.61844" lon="1.63883">
        <ele>2214</ele>
        <time>2023-07-21T07:57:25.000Z</time>
      </trkpt>
      <trkpt lat="42.61844" lon="1.63889">
        <ele>2214</ele>
        <time>2023-07-21T07:57:18.000Z</time>
      </trkpt>
      <trkpt lat="42.61842" lon="1.63887">
        <ele>2214</ele>
        <time>2023-07-21T07:57:10.000Z</time>
      </trkpt>
      <trkpt lat="42.61843" lon="1.63888">
        <ele>2214.1999511719</ele>
        <time>2023-07-21T07:57:03.000Z</time>
      </trkpt>
      <trkpt lat="42.61844" lon="1.63891">
        <ele>2214</ele>
        <time>2023-07-21T07:56:54.000Z</time>
      </trkpt>
      <trkpt lat="42.61842" lon="1.63889">
        <ele>2214</ele>
        <time>2023-07-21T07:56:45.000Z</time>
      </trkpt>
      <trkpt lat="42.61842" lon="1.63888">
        <ele>2214</ele>
        <time>2023-07-21T07:56:40.000Z</time>
      </trkpt>
      <trkpt lat="42.61842" lon="1.63886">
        <ele>2214.1999511719</ele>
        <time>2023-07-21T07:56:31.000Z</time>
      </trkpt>
      <trkpt lat="42.61844" lon="1.63885">
        <ele>2214.6000976562</ele>
        <time>2023-07-21T07:56:25.000Z</time>
      </trkpt>
      <trkpt lat="42.61843" lon="1.63889">
        <ele>2214.3999023438</ele>
        <time>2023-07-21T07:56:19.000Z</time>
      </trkpt>
      <trkpt lat="42.61842" lon="1.6389">
        <ele>2214.1999511719</ele>
        <time>2023-07-21T07:56:10.000Z</time>
      </trkpt>
      <trkpt lat="42.61842" lon="1.63889">
        <ele>2214.1999511719</ele>
        <time>2023-07-21T07:56:02.000Z</time>
      </trkpt>
      <trkpt lat="42.61842" lon="1.63888">
        <ele>2214.1999511719</ele>
        <time>2023-07-21T07:55:54.000Z</time>
      </trkpt>
      <trkpt lat="42.6184" lon="1.63885">
        <ele>2214.6000976562</ele>
        <time>2023-07-21T07:55:45.000Z</time>
      </trkpt>
      <trkpt lat="42.61841" lon="1.63887">
        <ele>2214.6000976562</ele>
        <time>2023-07-21T07:55:34.000Z</time>
      </trkpt>
      <trkpt lat="42.61842" lon="1.63889">
        <ele>2214.6000976562</ele>
        <time>2023-07-21T07:55:25.000Z</time>
      </trkpt>
      <trkpt lat="42.61841" lon="1.63889">
        <ele>2214.6000976562</ele>
        <time>2023-07-21T07:55:15.000Z</time>
      </trkpt>
      <trkpt lat="42.61842" lon="1.63888">
        <ele>2214.8000488281</ele>
        <time>2023-07-21T07:55:06.000Z</time>
      </trkpt>
      <trkpt lat="42.6184" lon="1.63889">
        <ele>2214.6000976562</ele>
        <time>2023-07-21T07:55:00.000Z</time>
      </trkpt>
      <trkpt lat="42.61841" lon="1.63887">
        <ele>2214.8000488281</ele>
        <time>2023-07-21T07:54:51.000Z</time>
      </trkpt>
      <trkpt lat="42.61843" lon="1.63887">
        <ele>2214.6000976562</ele>
        <time>2023-07-21T07:54:40.000Z</time>
      </trkpt>
      <trkpt lat="42.61841" lon="1.63889">
        <ele>2214.6000976562</ele>
        <time>2023-07-21T07:54:34.000Z</time>
      </trkpt>
      <trkpt lat="42.61841" lon="1.6389">
        <ele>2214.8000488281</ele>
        <time>2023-07-21T07:54:24.000Z</time>
      </trkpt>
      <trkpt lat="42.61841" lon="1.63892">
        <ele>2214.8000488281</ele>
        <time>2023-07-21T07:54:14.000Z</time>
      </trkpt>
      <trkpt lat="42.61842" lon="1.63889">
        <ele>2214.8000488281</ele>
        <time>2023-07-21T07:54:03.000Z</time>
      </trkpt>
      <trkpt lat="42.6184" lon="1.63887">
        <ele>2214.3999023438</ele>
        <time>2023-07-21T07:53:55.000Z</time>
      </trkpt>
      <trkpt lat="42.61841" lon="1.63887">
        <ele>2214.8000488281</ele>
        <time>2023-07-21T07:53:47.000Z</time>
      </trkpt>
      <trkpt lat="42.6184" lon="1.63887">
        <ele>2214.8000488281</ele>
        <time>2023-07-21T07:53:39.000Z</time>
      </trkpt>
      <trkpt lat="42.61842" lon="1.63889">
        <ele>2214.8000488281</ele>
        <time>2023-07-21T07:53:30.000Z</time>
      </trkpt>
      <trkpt lat="42.61842" lon="1.63887">
        <ele>2215</ele>
        <time>2023-07-21T07:53:24.000Z</time>
      </trkpt>
      <trkpt lat="42.61841" lon="1.63884">
        <ele>2214.6000976562</ele>
        <time>2023-07-21T07:53:14.000Z</time>
      </trkpt>
      <trkpt lat="42.61843" lon="1.63885">
        <ele>2214.6000976562</ele>
        <time>2023-07-21T07:53:07.000Z</time>
      </trkpt>
      <trkpt lat="42.61841" lon="1.63885">
        <ele>2214.6000976562</ele>
        <time>2023-07-21T07:53:00.000Z</time>
      </trkpt>
      <trkpt lat="42.6184" lon="1.63887">
        <ele>2214.6000976562</ele>
        <time>2023-07-21T07:52:52.000Z</time>
      </trkpt>
      <trkpt lat="42.6184" lon="1.63886">
        <ele>2214.8000488281</ele>
        <time>2023-07-21T07:52:43.000Z</time>
      </trkpt>
      <trkpt lat="42.61839" lon="1.63887">
        <ele>2214.6000976562</ele>
        <time>2023-07-21T07:52:33.000Z</time>
      </trkpt>
      <trkpt lat="42.61839" lon="1.63886">
        <ele>2214.8000488281</ele>
        <time>2023-07-21T07:52:25.000Z</time>
      </trkpt>
      <trkpt lat="42.6184" lon="1.63884">
        <ele>2214.8000488281</ele>
        <time>2023-07-21T07:52:15.000Z</time>
      </trkpt>
      <trkpt lat="42.6184" lon="1.63884">
        <ele>2214.8000488281</ele>
        <time>2023-07-21T07:52:05.000Z</time>
      </trkpt>
      <trkpt lat="42.61841" lon="1.63887">
        <ele>2214.8000488281</ele>
        <time>2023-07-21T07:51:56.000Z</time>
      </trkpt>
      <trkpt lat="42.61841" lon="1.63885">
        <ele>2214.8000488281</ele>
        <time>2023-07-21T07:51:46.000Z</time>
      </trkpt>
      <trkpt lat="42.6184" lon="1.63888">
        <ele>2214.8000488281</ele>
        <time>2023-07-21T07:51:39.000Z</time>
      </trkpt>
      <trkpt lat="42.61841" lon="1.63888">
        <ele>2214.6000976562</ele>
        <time>2023-07-21T07:51:31.000Z</time>
      </trkpt>
      <trkpt lat="42.61838" lon="1.63889">
        <ele>2215</ele>
        <time>2023-07-21T07:51:24.000Z</time>
      </trkpt>
      <trkpt lat="42.61835" lon="1.63889">
        <ele>2214.8000488281</ele>
        <time>2023-07-21T07:51:18.000Z</time>
      </trkpt>
      <trkpt lat="42.61836" lon="1.63888">
        <ele>2214.6000976562</ele>
        <time>2023-07-21T07:51:08.000Z</time>
      </trkpt>
      <trkpt lat="42.61838" lon="1.63887">
        <ele>2214.6000976562</ele>
        <time>2023-07-21T07:51:01.000Z</time>
      </trkpt>
      <trkpt lat="42.6184" lon="1.63886">
        <ele>2214.6000976562</ele>
        <time>2023-07-21T07:50:53.000Z</time>
      </trkpt>
      <trkpt lat="42.61839" lon="1.63887">
        <ele>2214.6000976562</ele>
        <time>2023-07-21T07:50:45.000Z</time>
      </trkpt>
      <trkpt lat="42.61835" lon="1.63883">
        <ele>2214.6000976562</ele>
        <time>2023-07-21T07:50:30.000Z</time>
      </trkpt>
      <trkpt lat="42.61833" lon="1.63882">
        <ele>2214.6000976562</ele>
        <time>2023-07-21T07:50:21.000Z</time>
      </trkpt>
      <trkpt lat="42.61836" lon="1.63884">
        <ele>2214.3999023438</ele>
        <time>2023-07-21T07:50:13.000Z</time>
      </trkpt>
      <trkpt lat="42.61837" lon="1.63883">
        <ele>2214.3999023438</ele>
        <time>2023-07-21T07:50:02.000Z</time>
      </trkpt>
      <trkpt lat="42.61837" lon="1.63882">
        <ele>2214.3999023438</ele>
        <time>2023-07-21T07:49:50.000Z</time>
      </trkpt>
      <trkpt lat="42.61837" lon="1.63883">
        <ele>2214.3999023438</ele>
        <time>2023-07-21T07:49:41.000Z</time>
      </trkpt>
      <trkpt lat="42.61842" lon="1.63885">
        <ele>2214.6000976562</ele>
        <time>2023-07-21T07:49:20.000Z</time>
      </trkpt>
      <trkpt lat="42.6184" lon="1.63887">
        <ele>2215</ele>
        <time>2023-07-21T07:49:13.000Z</time>
      </trkpt>
      <trkpt lat="42.61841" lon="1.63883">
        <ele>2214.3999023438</ele>
        <time>2023-07-21T07:49:06.000Z</time>
      </trkpt>
      <trkpt lat="42.61844" lon="1.63885">
        <ele>2214.3999023438</ele>
        <time>2023-07-21T07:48:57.000Z</time>
      </trkpt>
      <trkpt lat="42.61843" lon="1.63889">
        <ele>2214.6000976562</ele>
        <time>2023-07-21T07:48:50.000Z</time>
      </trkpt>
      <trkpt lat="42.61843" lon="1.63888">
        <ele>2214.6000976562</ele>
        <time>2023-07-21T07:48:41.000Z</time>
      </trkpt>
      <trkpt lat="42.61842" lon="1.63887">
        <ele>2214.8000488281</ele>
        <time>2023-07-21T07:48:34.000Z</time>
      </trkpt>
      <trkpt lat="42.61842" lon="1.63888">
        <ele>2214.6000976562</ele>
        <time>2023-07-21T07:48:27.000Z</time>
      </trkpt>
      <trkpt lat="42.61841" lon="1.6389">
        <ele>2214.8000488281</ele>
        <time>2023-07-21T07:48:19.000Z</time>
      </trkpt>
      <trkpt lat="42.61842" lon="1.63889">
        <ele>2214.8000488281</ele>
        <time>2023-07-21T07:48:11.000Z</time>
      </trkpt>
      <trkpt lat="42.61843" lon="1.63885">
        <ele>2215</ele>
        <time>2023-07-21T07:48:01.000Z</time>
      </trkpt>
      <trkpt lat="42.61845" lon="1.63888">
        <ele>2215.3999023438</ele>
        <time>2023-07-21T07:47:56.000Z</time>
      </trkpt>
      <trkpt lat="42.61843" lon="1.63896">
        <ele>2215.8000488281</ele>
        <time>2023-07-21T07:47:50.000Z</time>
      </trkpt>
      <trkpt lat="42.61845" lon="1.639">
        <ele>2215.8000488281</ele>
        <time>2023-07-21T07:47:41.000Z</time>
      </trkpt>
      <trkpt lat="42.61847" lon="1.63901">
        <ele>2215</ele>
        <time>2023-07-21T07:47:32.000Z</time>
      </trkpt>
      <trkpt lat="42.61847" lon="1.63901">
        <ele>2215</ele>
        <time>2023-07-21T07:47:31.000Z</time>
      </trkpt>
      <trkpt lat="42.61847" lon="1.63904">
        <ele>2214.8000488281</ele>
        <time>2023-07-21T07:47:26.000Z</time>
      </trkpt>
      <trkpt lat="42.6184" lon="1.63896">
        <ele>2215</ele>
        <time>2023-07-21T07:47:19.000Z</time>
      </trkpt>
      <trkpt lat="42.61837" lon="1.63891">
        <ele>2215.3999023438</ele>
        <time>2023-07-21T07:47:12.000Z</time>
      </trkpt>
      <trkpt lat="42.61841" lon="1.63891">
        <ele>2215.1999511719</ele>
        <time>2023-07-21T07:47:04.000Z</time>
      </trkpt>
      <trkpt lat="42.61844" lon="1.63891">
        <ele>2215.1999511719</ele>
        <time>2023-07-21T07:46:56.000Z</time>
      </trkpt>
      <trkpt lat="42.61844" lon="1.63891">
        <ele>2215.1999511719</ele>
        <time>2023-07-21T07:46:55.000Z</time>
      </trkpt>
      <trkpt lat="42.61842" lon="1.63893">
        <ele>2215.6000976562</ele>
        <time>2023-07-21T07:46:50.000Z</time>
      </trkpt>
      <trkpt lat="42.61843" lon="1.63894">
        <ele>2215.6000976562</ele>
        <time>2023-07-21T07:46:41.000Z</time>
      </trkpt>
      <trkpt lat="42.61844" lon="1.63895">
        <ele>2215.8000488281</ele>
        <time>2023-07-21T07:46:28.000Z</time>
      </trkpt>
      <trkpt lat="42.61844" lon="1.63895">
        <ele>2215.8000488281</ele>
        <time>2023-07-21T07:46:18.000Z</time>
      </trkpt>
      <trkpt lat="42.61843" lon="1.63892">
        <ele>2215.8000488281</ele>
        <time>2023-07-21T07:46:09.000Z</time>
      </trkpt>
      <trkpt lat="42.61845" lon="1.63893">
        <ele>2215.8000488281</ele>
        <time>2023-07-21T07:46:02.000Z</time>
      </trkpt>
      <trkpt lat="42.61845" lon="1.63894">
        <ele>2216</ele>
        <time>2023-07-21T07:45:52.000Z</time>
      </trkpt>
      <trkpt lat="42.61844" lon="1.63892">
        <ele>2216.1999511719</ele>
        <time>2023-07-21T07:45:41.000Z</time>
      </trkpt>
      <trkpt lat="42.61843" lon="1.63886">
        <ele>2216.3999023438</ele>
        <time>2023-07-21T07:45:34.000Z</time>
      </trkpt>
      <trkpt lat="42.61842" lon="1.63884">
        <ele>2216.1999511719</ele>
        <time>2023-07-21T07:45:26.000Z</time>
      </trkpt>
      <trkpt lat="42.6184" lon="1.63886">
        <ele>2216</ele>
        <time>2023-07-21T07:45:19.000Z</time>
      </trkpt>
      <trkpt lat="42.61842" lon="1.63887">
        <ele>2216.1999511719</ele>
        <time>2023-07-21T07:45:13.000Z</time>
      </trkpt>
      <trkpt lat="42.61841" lon="1.63888">
        <ele>2216</ele>
        <time>2023-07-21T07:45:08.000Z</time>
      </trkpt>
      <trkpt lat="42.6184" lon="1.63887">
        <ele>2216.3999023438</ele>
        <time>2023-07-21T07:45:00.000Z</time>
      </trkpt>
      <trkpt lat="42.61841" lon="1.63887">
        <ele>2216.3999023438</ele>
        <time>2023-07-21T07:44:53.000Z</time>
      </trkpt>
      <trkpt lat="42.6184" lon="1.63886">
        <ele>2216.6000976562</ele>
        <time>2023-07-21T07:44:43.000Z</time>
      </trkpt>
      <trkpt lat="42.6184" lon="1.63887">
        <ele>2216.6000976562</ele>
        <time>2023-07-21T07:44:33.000Z</time>
      </trkpt>
      <trkpt lat="42.6184" lon="1.63886">
        <ele>2216.3999023438</ele>
        <time>2023-07-21T07:44:27.000Z</time>
      </trkpt>
      <trkpt lat="42.6184" lon="1.63879">
        <ele>2216.6000976562</ele>
        <time>2023-07-21T07:44:19.000Z</time>
      </trkpt>
      <trkpt lat="42.6184" lon="1.63878">
        <ele>2216.3999023438</ele>
        <time>2023-07-21T07:44:14.000Z</time>
      </trkpt>
      <trkpt lat="42.6184" lon="1.63878">
        <ele>2216.3999023438</ele>
        <time>2023-07-21T07:44:07.000Z</time>
      </trkpt>
      <trkpt lat="42.61843" lon="1.63879">
        <ele>2216.1999511719</ele>
        <time>2023-07-21T07:44:02.000Z</time>
      </trkpt>
      <trkpt lat="42.61848" lon="1.63887">
        <ele>2216.1999511719</ele>
        <time>2023-07-21T07:43:56.000Z</time>
      </trkpt>
      <trkpt lat="42.61848" lon="1.63885">
        <ele>2216.1999511719</ele>
        <time>2023-07-21T07:43:46.000Z</time>
      </trkpt>
      <trkpt lat="42.61848" lon="1.63884">
        <ele>2216.3999023438</ele>
        <time>2023-07-21T07:43:37.000Z</time>
      </trkpt>
      <trkpt lat="42.61848" lon="1.63884">
        <ele>2216.6000976562</ele>
        <time>2023-07-21T07:43:28.000Z</time>
      </trkpt>
      <trkpt lat="42.61847" lon="1.63883">
        <ele>2216.3999023438</ele>
        <time>2023-07-21T07:43:19.000Z</time>
      </trkpt>
      <trkpt lat="42.61846" lon="1.63882">
        <ele>2216.3999023438</ele>
        <time>2023-07-21T07:43:10.000Z</time>
      </trkpt>
      <trkpt lat="42.61846" lon="1.63884">
        <ele>2216.6000976562</ele>
        <time>2023-07-21T07:43:04.000Z</time>
      </trkpt>
      <trkpt lat="42.61844" lon="1.63886">
        <ele>2216.6000976562</ele>
        <time>2023-07-21T07:42:57.000Z</time>
      </trkpt>
      <trkpt lat="42.61845" lon="1.63884">
        <ele>2216.3999023438</ele>
        <time>2023-07-21T07:42:49.000Z</time>
      </trkpt>
      <trkpt lat="42.61846" lon="1.63884">
        <ele>2217</ele>
        <time>2023-07-21T07:42:42.000Z</time>
      </trkpt>
      <trkpt lat="42.61846" lon="1.63887">
        <ele>2216.6000976562</ele>
        <time>2023-07-21T07:42:37.000Z</time>
      </trkpt>
      <trkpt lat="42.61847" lon="1.63886">
        <ele>2216.3999023438</ele>
        <time>2023-07-21T07:42:34.000Z</time>
      </trkpt>
      <trkpt lat="42.61848" lon="1.63892">
        <ele>2216</ele>
        <time>2023-07-21T07:42:29.000Z</time>
      </trkpt>
      <trkpt lat="42.61849" lon="1.63896">
        <ele>2215.3999023438</ele>
        <time>2023-07-21T07:42:25.000Z</time>
      </trkpt>
      <trkpt lat="42.6185" lon="1.63899">
        <ele>2214.8000488281</ele>
        <time>2023-07-21T07:42:22.000Z</time>
      </trkpt>
      <trkpt lat="42.61849" lon="1.63906">
        <ele>2214.1999511719</ele>
        <time>2023-07-21T07:42:15.000Z</time>
      </trkpt>
      <trkpt lat="42.61847" lon="1.63908">
        <ele>2213.8000488281</ele>
        <time>2023-07-21T07:42:12.000Z</time>
      </trkpt>
      <trkpt lat="42.61845" lon="1.63918">
        <ele>2213.1999511719</ele>
        <time>2023-07-21T07:42:04.000Z</time>
      </trkpt>
      <trkpt lat="42.61845" lon="1.63924">
        <ele>2212</ele>
        <time>2023-07-21T07:41:57.000Z</time>
      </trkpt>
      <trkpt lat="42.61845" lon="1.63926">
        <ele>2211.6000976562</ele>
        <time>2023-07-21T07:41:55.000Z</time>
      </trkpt>
      <trkpt lat="42.61844" lon="1.63928">
        <ele>2210.8000488281</ele>
        <time>2023-07-21T07:41:52.000Z</time>
      </trkpt>
      <trkpt lat="42.61844" lon="1.63933">
        <ele>2210</ele>
        <time>2023-07-21T07:41:47.000Z</time>
      </trkpt>
      <trkpt lat="42.61846" lon="1.63936">
        <ele>2209.8000488281</ele>
        <time>2023-07-21T07:41:43.000Z</time>
      </trkpt>
      <trkpt lat="42.61847" lon="1.6394">
        <ele>2209</ele>
        <time>2023-07-21T07:41:39.000Z</time>
      </trkpt>
      <trkpt lat="42.61847" lon="1.6395">
        <ele>2208.3999023438</ele>
        <time>2023-07-21T07:41:31.000Z</time>
      </trkpt>
      <trkpt lat="42.61847" lon="1.63958">
        <ele>2207.8000488281</ele>
        <time>2023-07-21T07:41:23.000Z</time>
      </trkpt>
      <trkpt lat="42.61847" lon="1.63964">
        <ele>2207.3999023438</ele>
        <time>2023-07-21T07:41:17.000Z</time>
      </trkpt>
      <trkpt lat="42.61846" lon="1.63965">
        <ele>2207.1999511719</ele>
        <time>2023-07-21T07:41:16.000Z</time>
      </trkpt>
      <trkpt lat="42.6184" lon="1.63971">
        <ele>2206.6000976562</ele>
        <time>2023-07-21T07:41:09.000Z</time>
      </trkpt>
      <trkpt lat="42.61834" lon="1.63971">
        <ele>2206.1999511719</ele>
        <time>2023-07-21T07:41:02.000Z</time>
      </trkpt>
      <trkpt lat="42.61833" lon="1.63972">
        <ele>2206</ele>
        <time>2023-07-21T07:41:01.000Z</time>
      </trkpt>
      <trkpt lat="42.61833" lon="1.63983">
        <ele>2205.6000976562</ele>
        <time>2023-07-21T07:40:53.000Z</time>
      </trkpt>
      <trkpt lat="42.61833" lon="1.63985">
        <ele>2205.8000488281</ele>
        <time>2023-07-21T07:40:51.000Z</time>
      </trkpt>
      <trkpt lat="42.61833" lon="1.63989">
        <ele>2205.8000488281</ele>
        <time>2023-07-21T07:40:49.000Z</time>
      </trkpt>
      <trkpt lat="42.61832" lon="1.63988">
        <ele>2205.3999023438</ele>
        <time>2023-07-21T07:40:48.000Z</time>
      </trkpt>
      <trkpt lat="42.61832" lon="1.63988">
        <ele>2205.1999511719</ele>
        <time>2023-07-21T07:40:42.000Z</time>
      </trkpt>
      <trkpt lat="42.61833" lon="1.63989">
        <ele>2205.1999511719</ele>
        <time>2023-07-21T07:40:41.000Z</time>
      </trkpt>
      <trkpt lat="42.61837" lon="1.63995">
        <ele>2204.6000976562</ele>
        <time>2023-07-21T07:40:34.000Z</time>
      </trkpt>
      <trkpt lat="42.61839" lon="1.63997">
        <ele>2204.1999511719</ele>
        <time>2023-07-21T07:40:30.000Z</time>
      </trkpt>
      <trkpt lat="42.61843" lon="1.64003">
        <ele>2203.6000976562</ele>
        <time>2023-07-21T07:40:26.000Z</time>
      </trkpt>
      <trkpt lat="42.61847" lon="1.6401">
        <ele>2203</ele>
        <time>2023-07-21T07:40:18.000Z</time>
      </trkpt>
      <trkpt lat="42.61848" lon="1.64019">
        <ele>2202.3999023438</ele>
        <time>2023-07-21T07:40:10.000Z</time>
      </trkpt>
      <trkpt lat="42.6185" lon="1.64027">
        <ele>2201.8000488281</ele>
        <time>2023-07-21T07:40:03.000Z</time>
      </trkpt>
      <trkpt lat="42.61851" lon="1.64027">
        <ele>2201.8000488281</ele>
        <time>2023-07-21T07:40:02.000Z</time>
      </trkpt>
      <trkpt lat="42.61851" lon="1.6403">
        <ele>2202.1999511719</ele>
        <time>2023-07-21T07:39:57.000Z</time>
      </trkpt>
      <trkpt lat="42.61853" lon="1.64039">
        <ele>2202.1999511719</ele>
        <time>2023-07-21T07:39:49.000Z</time>
      </trkpt>
      <trkpt lat="42.61853" lon="1.64044">
        <ele>2202.1999511719</ele>
        <time>2023-07-21T07:39:42.000Z</time>
      </trkpt>
      <trkpt lat="42.61847" lon="1.64051">
        <ele>2202.6000976562</ele>
        <time>2023-07-21T07:39:33.000Z</time>
      </trkpt>
      <trkpt lat="42.61846" lon="1.64053">
        <ele>2203</ele>
        <time>2023-07-21T07:39:31.000Z</time>
      </trkpt>
      <trkpt lat="42.61844" lon="1.64056">
        <ele>2203</ele>
        <time>2023-07-21T07:39:26.000Z</time>
      </trkpt>
      <trkpt lat="42.61838" lon="1.64062">
        <ele>2203.6000976562</ele>
        <time>2023-07-21T07:39:19.000Z</time>
      </trkpt>
      <trkpt lat="42.61837" lon="1.64066">
        <ele>2204</ele>
        <time>2023-07-21T07:39:14.000Z</time>
      </trkpt>
      <trkpt lat="42.61834" lon="1.64069">
        <ele>2204</ele>
        <time>2023-07-21T07:39:11.000Z</time>
      </trkpt>
      <trkpt lat="42.6183" lon="1.64073">
        <ele>2204.8000488281</ele>
        <time>2023-07-21T07:39:04.000Z</time>
      </trkpt>
      <trkpt lat="42.61828" lon="1.64074">
        <ele>2205</ele>
        <time>2023-07-21T07:39:02.000Z</time>
      </trkpt>
      <trkpt lat="42.61825" lon="1.64074">
        <ele>2205.3999023438</ele>
        <time>2023-07-21T07:39:00.000Z</time>
      </trkpt>
      <trkpt lat="42.61822" lon="1.64072">
        <ele>2206</ele>
        <time>2023-07-21T07:38:57.000Z</time>
      </trkpt>
      <trkpt lat="42.6182" lon="1.64072">
        <ele>2206</ele>
        <time>2023-07-21T07:38:56.000Z</time>
      </trkpt>
      <trkpt lat="42.61816" lon="1.6408">
        <ele>2207</ele>
        <time>2023-07-21T07:38:49.000Z</time>
      </trkpt>
      <trkpt lat="42.61817" lon="1.64084">
        <ele>2207.1999511719</ele>
        <time>2023-07-21T07:38:45.000Z</time>
      </trkpt>
      <trkpt lat="42.61818" lon="1.64093">
        <ele>2207.8000488281</ele>
        <time>2023-07-21T07:38:40.000Z</time>
      </trkpt>
      <trkpt lat="42.61818" lon="1.64102">
        <ele>2208.6000976562</ele>
        <time>2023-07-21T07:38:33.000Z</time>
      </trkpt>
      <trkpt lat="42.61819" lon="1.64114">
        <ele>2208.6000976562</ele>
        <time>2023-07-21T07:38:24.000Z</time>
      </trkpt>
      <trkpt lat="42.61819" lon="1.64123">
        <ele>2207.6000976562</ele>
        <time>2023-07-21T07:38:17.000Z</time>
      </trkpt>
      <trkpt lat="42.61815" lon="1.64134">
        <ele>2208.1999511719</ele>
        <time>2023-07-21T07:38:10.000Z</time>
      </trkpt>
      <trkpt lat="42.61815" lon="1.64136">
        <ele>2208.3999023438</ele>
        <time>2023-07-21T07:38:09.000Z</time>
      </trkpt>
      <trkpt lat="42.61814" lon="1.6414">
        <ele>2209.3999023438</ele>
        <time>2023-07-21T07:38:03.000Z</time>
      </trkpt>
      <trkpt lat="42.61815" lon="1.64141">
        <ele>2209.8000488281</ele>
        <time>2023-07-21T07:38:00.000Z</time>
      </trkpt>
      <trkpt lat="42.61815" lon="1.64145">
        <ele>2210.3999023438</ele>
        <time>2023-07-21T07:37:53.000Z</time>
      </trkpt>
      <trkpt lat="42.61814" lon="1.64148">
        <ele>2210.3999023438</ele>
        <time>2023-07-21T07:37:46.000Z</time>
      </trkpt>
      <trkpt lat="42.61814" lon="1.64148">
        <ele>2210.6000976562</ele>
        <time>2023-07-21T07:37:45.000Z</time>
      </trkpt>
      <trkpt lat="42.61814" lon="1.64151">
        <ele>2211.1999511719</ele>
        <time>2023-07-21T07:37:38.000Z</time>
      </trkpt>
      <trkpt lat="42.61814" lon="1.64151">
        <ele>2211.6000976562</ele>
        <time>2023-07-21T07:37:33.000Z</time>
      </trkpt>
      <trkpt lat="42.61813" lon="1.64152">
        <ele>2212.3999023438</ele>
        <time>2023-07-21T07:37:29.000Z</time>
      </trkpt>
      <trkpt lat="42.61813" lon="1.64154">
        <ele>2212.6000976562</ele>
        <time>2023-07-21T07:37:26.000Z</time>
      </trkpt>
      <trkpt lat="42.61812" lon="1.64155">
        <ele>2213.1999511719</ele>
        <time>2023-07-21T07:37:22.000Z</time>
      </trkpt>
      <trkpt lat="42.61811" lon="1.64165">
        <ele>2214</ele>
        <time>2023-07-21T07:37:14.000Z</time>
      </trkpt>
      <trkpt lat="42.6181" lon="1.64174">
        <ele>2213.8000488281</ele>
        <time>2023-07-21T07:37:07.000Z</time>
      </trkpt>
      <trkpt lat="42.61808" lon="1.64181">
        <ele>2213.8000488281</ele>
        <time>2023-07-21T07:37:00.000Z</time>
      </trkpt>
      <trkpt lat="42.61808" lon="1.64182">
        <ele>2213.8000488281</ele>
        <time>2023-07-21T07:36:59.000Z</time>
      </trkpt>
      <trkpt lat="42.61805" lon="1.64192">
        <ele>2214.8000488281</ele>
        <time>2023-07-21T07:36:52.000Z</time>
      </trkpt>
      <trkpt lat="42.618" lon="1.64199">
        <ele>2215.8000488281</ele>
        <time>2023-07-21T07:36:44.000Z</time>
      </trkpt>
      <trkpt lat="42.61792" lon="1.64208">
        <ele>2217.1999511719</ele>
        <time>2023-07-21T07:36:35.000Z</time>
      </trkpt>
      <trkpt lat="42.61786" lon="1.64214">
        <ele>2218.1999511719</ele>
        <time>2023-07-21T07:36:27.000Z</time>
      </trkpt>
      <trkpt lat="42.61779" lon="1.64219">
        <ele>2219.6000976562</ele>
        <time>2023-07-21T07:36:18.000Z</time>
      </trkpt>
      <trkpt lat="42.61778" lon="1.6422">
        <ele>2219.6000976562</ele>
        <time>2023-07-21T07:36:17.000Z</time>
      </trkpt>
      <trkpt lat="42.61775" lon="1.64222">
        <ele>2219.6000976562</ele>
        <time>2023-07-21T07:36:11.000Z</time>
      </trkpt>
      <trkpt lat="42.61779" lon="1.64222">
        <ele>2219.3999023438</ele>
        <time>2023-07-21T07:36:04.000Z</time>
      </trkpt>
      <trkpt lat="42.61779" lon="1.64223">
        <ele>2219.6000976562</ele>
        <time>2023-07-21T07:36:02.000Z</time>
      </trkpt>
      <trkpt lat="42.6178" lon="1.64224">
        <ele>2219.6000976562</ele>
        <time>2023-07-21T07:36:00.000Z</time>
      </trkpt>
      <trkpt lat="42.6178" lon="1.64225">
        <ele>2219.6000976562</ele>
        <time>2023-07-21T07:35:56.000Z</time>
      </trkpt>
      <trkpt lat="42.61778" lon="1.64228">
        <ele>2219.8000488281</ele>
        <time>2023-07-21T07:35:48.000Z</time>
      </trkpt>
      <trkpt lat="42.61775" lon="1.64238">
        <ele>2219.1999511719</ele>
        <time>2023-07-21T07:35:40.000Z</time>
      </trkpt>
      <trkpt lat="42.61774" lon="1.64246">
        <ele>2219.3999023438</ele>
        <time>2023-07-21T07:35:34.000Z</time>
      </trkpt>
      <trkpt lat="42.61774" lon="1.64248">
        <ele>2219.3999023438</ele>
        <time>2023-07-21T07:35:33.000Z</time>
      </trkpt>
      <trkpt lat="42.61773" lon="1.64257">
        <ele>2220.3999023438</ele>
        <time>2023-07-21T07:35:27.000Z</time>
      </trkpt>
      <trkpt lat="42.61773" lon="1.64258">
        <ele>2220.3999023438</ele>
        <time>2023-07-21T07:35:26.000Z</time>
      </trkpt>
      <trkpt lat="42.61768" lon="1.64261">
        <ele>2221.6000976562</ele>
        <time>2023-07-21T07:35:20.000Z</time>
      </trkpt>
      <trkpt lat="42.61766" lon="1.6426">
        <ele>2222</ele>
        <time>2023-07-21T07:35:18.000Z</time>
      </trkpt>
      <trkpt lat="42.61762" lon="1.6426">
        <ele>2222.6000976562</ele>
        <time>2023-07-21T07:35:15.000Z</time>
      </trkpt>
      <trkpt lat="42.6176" lon="1.64264">
        <ele>2223.8000488281</ele>
        <time>2023-07-21T07:35:09.000Z</time>
      </trkpt>
      <trkpt lat="42.6176" lon="1.64266">
        <ele>2224</ele>
        <time>2023-07-21T07:35:08.000Z</time>
      </trkpt>
      <trkpt lat="42.61758" lon="1.64274">
        <ele>2225</ele>
        <time>2023-07-21T07:35:03.000Z</time>
      </trkpt>
      <trkpt lat="42.61758" lon="1.64275">
        <ele>2225.1999511719</ele>
        <time>2023-07-21T07:35:02.000Z</time>
      </trkpt>
      <trkpt lat="42.61757" lon="1.64279">
        <ele>2226.1999511719</ele>
        <time>2023-07-21T07:34:57.000Z</time>
      </trkpt>
      <trkpt lat="42.61757" lon="1.64283">
        <ele>2226.3999023438</ele>
        <time>2023-07-21T07:34:53.000Z</time>
      </trkpt>
      <trkpt lat="42.61754" lon="1.64287">
        <ele>2227.3999023438</ele>
        <time>2023-07-21T07:34:46.000Z</time>
      </trkpt>
      <trkpt lat="42.61754" lon="1.64287">
        <ele>2227.3999023438</ele>
        <time>2023-07-21T07:34:45.000Z</time>
      </trkpt>
      <trkpt lat="42.61751" lon="1.64286">
        <ele>2228.3999023438</ele>
        <time>2023-07-21T07:34:40.000Z</time>
      </trkpt>
      <trkpt lat="42.61749" lon="1.64288">
        <ele>2229.1999511719</ele>
        <time>2023-07-21T07:34:37.000Z</time>
      </trkpt>
      <trkpt lat="42.61749" lon="1.64288">
        <ele>2229.3999023438</ele>
        <time>2023-07-21T07:34:36.000Z</time>
      </trkpt>
      <trkpt lat="42.61748" lon="1.64291">
        <ele>2230.6000976562</ele>
        <time>2023-07-21T07:34:32.000Z</time>
      </trkpt>
      <trkpt lat="42.61749" lon="1.64294">
        <ele>2231</ele>
        <time>2023-07-21T07:34:30.000Z</time>
      </trkpt>
      <trkpt lat="42.6175" lon="1.64295">
        <ele>2231.6000976562</ele>
        <time>2023-07-21T07:34:28.000Z</time>
      </trkpt>
      <trkpt lat="42.6175" lon="1.64299">
        <ele>2232.6000976562</ele>
        <time>2023-07-21T07:34:24.000Z</time>
      </trkpt>
      <trkpt lat="42.61748" lon="1.64303">
        <ele>2233.8000488281</ele>
        <time>2023-07-21T07:34:19.000Z</time>
      </trkpt>
      <trkpt lat="42.61747" lon="1.64304">
        <ele>2234</ele>
        <time>2023-07-21T07:34:18.000Z</time>
      </trkpt>
      <trkpt lat="42.61744" lon="1.64306">
        <ele>2234.8000488281</ele>
        <time>2023-07-21T07:34:14.000Z</time>
      </trkpt>
      <trkpt lat="42.61743" lon="1.64309">
        <ele>2235.3999023438</ele>
        <time>2023-07-21T07:34:12.000Z</time>
      </trkpt>
      <trkpt lat="42.61741" lon="1.64309">
        <ele>2236</ele>
        <time>2023-07-21T07:34:08.000Z</time>
      </trkpt>
      <trkpt lat="42.6174" lon="1.64308">
        <ele>2237</ele>
        <time>2023-07-21T07:34:04.000Z</time>
      </trkpt>
      <trkpt lat="42.61739" lon="1.64307">
        <ele>2237.1999511719</ele>
        <time>2023-07-21T07:34:03.000Z</time>
      </trkpt>
      <trkpt lat="42.61736" lon="1.6431">
        <ele>2238.3999023438</ele>
        <time>2023-07-21T07:33:57.000Z</time>
      </trkpt>
      <trkpt lat="42.61736" lon="1.6431">
        <ele>2239.3999023438</ele>
        <time>2023-07-21T07:33:52.000Z</time>
      </trkpt>
      <trkpt lat="42.61736" lon="1.64311">
        <ele>2239.8000488281</ele>
        <time>2023-07-21T07:33:50.000Z</time>
      </trkpt>
      <trkpt lat="42.61737" lon="1.64317">
        <ele>2240.6000976562</ele>
        <time>2023-07-21T07:33:45.000Z</time>
      </trkpt>
      <trkpt lat="42.61737" lon="1.64318">
        <ele>2241</ele>
        <time>2023-07-21T07:33:43.000Z</time>
      </trkpt>
      <trkpt lat="42.61739" lon="1.6432">
        <ele>2241.1999511719</ele>
        <time>2023-07-21T07:33:38.000Z</time>
      </trkpt>
      <trkpt lat="42.61737" lon="1.64315">
        <ele>2241.1999511719</ele>
        <time>2023-07-21T07:33:31.000Z</time>
      </trkpt>
      <trkpt lat="42.61737" lon="1.64318">
        <ele>2241.1999511719</ele>
        <time>2023-07-21T07:33:24.000Z</time>
      </trkpt>
      <trkpt lat="42.61739" lon="1.64322">
        <ele>2241</ele>
        <time>2023-07-21T07:33:18.000Z</time>
      </trkpt>
      <trkpt lat="42.61739" lon="1.64321">
        <ele>2241</ele>
        <time>2023-07-21T07:33:10.000Z</time>
      </trkpt>
      <trkpt lat="42.61739" lon="1.6432">
        <ele>2241.1999511719</ele>
        <time>2023-07-21T07:33:09.000Z</time>
      </trkpt>
      <trkpt lat="42.61739" lon="1.6432">
        <ele>2241.8000488281</ele>
        <time>2023-07-21T07:33:07.000Z</time>
      </trkpt>
      <trkpt lat="42.6174" lon="1.6432">
        <ele>2242.3999023438</ele>
        <time>2023-07-21T07:33:04.000Z</time>
      </trkpt>
      <trkpt lat="42.61741" lon="1.6432">
        <ele>2242.8000488281</ele>
        <time>2023-07-21T07:33:02.000Z</time>
      </trkpt>
      <trkpt lat="42.61742" lon="1.6432">
        <ele>2243</ele>
        <time>2023-07-21T07:33:01.000Z</time>
      </trkpt>
      <trkpt lat="42.61744" lon="1.64323">
        <ele>2243.6000976562</ele>
        <time>2023-07-21T07:32:57.000Z</time>
      </trkpt>
      <trkpt lat="42.61744" lon="1.64324">
        <ele>2243.8000488281</ele>
        <time>2023-07-21T07:32:56.000Z</time>
      </trkpt>
      <trkpt lat="42.61744" lon="1.64328">
        <ele>2245</ele>
        <time>2023-07-21T07:32:52.000Z</time>
      </trkpt>
      <trkpt lat="42.61745" lon="1.64331">
        <ele>2245.3999023438</ele>
        <time>2023-07-21T07:32:49.000Z</time>
      </trkpt>
      <trkpt lat="42.61745" lon="1.64338">
        <ele>2246</ele>
        <time>2023-07-21T07:32:44.000Z</time>
      </trkpt>
      <trkpt lat="42.61745" lon="1.64339">
        <ele>2246</ele>
        <time>2023-07-21T07:32:43.000Z</time>
      </trkpt>
      <trkpt lat="42.61745" lon="1.64346">
        <ele>2246.3999023438</ele>
        <time>2023-07-21T07:32:37.000Z</time>
      </trkpt>
      <trkpt lat="42.61743" lon="1.64355">
        <ele>2246.1999511719</ele>
        <time>2023-07-21T07:32:30.000Z</time>
      </trkpt>
      <trkpt lat="42.61741" lon="1.64363">
        <ele>2247</ele>
        <time>2023-07-21T07:32:24.000Z</time>
      </trkpt>
      <trkpt lat="42.61741" lon="1.64365">
        <ele>2247</ele>
        <time>2023-07-21T07:32:23.000Z</time>
      </trkpt>
      <trkpt lat="42.6174" lon="1.64372">
        <ele>2247.6000976562</ele>
        <time>2023-07-21T07:32:17.000Z</time>
      </trkpt>
      <trkpt lat="42.61739" lon="1.64376">
        <ele>2248</ele>
        <time>2023-07-21T07:32:12.000Z</time>
      </trkpt>
      <trkpt lat="42.61739" lon="1.6438">
        <ele>2248.8000488281</ele>
        <time>2023-07-21T07:32:08.000Z</time>
      </trkpt>
      <trkpt lat="42.61739" lon="1.64381">
        <ele>2249.1999511719</ele>
        <time>2023-07-21T07:32:06.000Z</time>
      </trkpt>
      <trkpt lat="42.61738" lon="1.64384">
        <ele>2249.8000488281</ele>
        <time>2023-07-21T07:32:03.000Z</time>
      </trkpt>
      <trkpt lat="42.61737" lon="1.64388">
        <ele>2250.3999023438</ele>
        <time>2023-07-21T07:31:56.000Z</time>
      </trkpt>
      <trkpt lat="42.61737" lon="1.64395">
        <ele>2251.3999023438</ele>
        <time>2023-07-21T07:31:50.000Z</time>
      </trkpt>
      <trkpt lat="42.61736" lon="1.64399">
        <ele>2252</ele>
        <time>2023-07-21T07:31:46.000Z</time>
      </trkpt>
      <trkpt lat="42.61736" lon="1.64402">
        <ele>2252.3999023438</ele>
        <time>2023-07-21T07:31:44.000Z</time>
      </trkpt>
      <trkpt lat="42.61734" lon="1.64404">
        <ele>2253</ele>
        <time>2023-07-21T07:31:40.000Z</time>
      </trkpt>
      <trkpt lat="42.61732" lon="1.64405">
        <ele>2253.6000976562</ele>
        <time>2023-07-21T07:31:35.000Z</time>
      </trkpt>
      <trkpt lat="42.61732" lon="1.64407">
        <ele>2254</ele>
        <time>2023-07-21T07:31:32.000Z</time>
      </trkpt>
      <trkpt lat="42.61731" lon="1.64414">
        <ele>2254</ele>
        <time>2023-07-21T07:31:26.000Z</time>
      </trkpt>
      <trkpt lat="42.61729" lon="1.64424">
        <ele>2253.8000488281</ele>
        <time>2023-07-21T07:31:18.000Z</time>
      </trkpt>
      <trkpt lat="42.61727" lon="1.64434">
        <ele>2254.3999023438</ele>
        <time>2023-07-21T07:31:11.000Z</time>
      </trkpt>
      <trkpt lat="42.61726" lon="1.64437">
        <ele>2254.6000976562</ele>
        <time>2023-07-21T07:31:09.000Z</time>
      </trkpt>
      <trkpt lat="42.61723" lon="1.64445">
        <ele>2255.3999023438</ele>
        <time>2023-07-21T07:31:03.000Z</time>
      </trkpt>
      <trkpt lat="42.61723" lon="1.64447">
        <ele>2255.6000976562</ele>
        <time>2023-07-21T07:31:02.000Z</time>
      </trkpt>
      <trkpt lat="42.61719" lon="1.64452">
        <ele>2256.6000976562</ele>
        <time>2023-07-21T07:30:55.000Z</time>
      </trkpt>
      <trkpt lat="42.61719" lon="1.64453">
        <ele>2256.8000488281</ele>
        <time>2023-07-21T07:30:54.000Z</time>
      </trkpt>
      <trkpt lat="42.61718" lon="1.64456">
        <ele>2257.8000488281</ele>
        <time>2023-07-21T07:30:50.000Z</time>
      </trkpt>
      <trkpt lat="42.61717" lon="1.64457">
        <ele>2258.1999511719</ele>
        <time>2023-07-21T07:30:47.000Z</time>
      </trkpt>
      <trkpt lat="42.61717" lon="1.64461">
        <ele>2258.8000488281</ele>
        <time>2023-07-21T07:30:40.000Z</time>
      </trkpt>
      <trkpt lat="42.61716" lon="1.64464">
        <ele>2260</ele>
        <time>2023-07-21T07:30:33.000Z</time>
      </trkpt>
      <trkpt lat="42.61718" lon="1.64471">
        <ele>2261</ele>
        <time>2023-07-21T07:30:27.000Z</time>
      </trkpt>
      <trkpt lat="42.61718" lon="1.64472">
        <ele>2261.1999511719</ele>
        <time>2023-07-21T07:30:26.000Z</time>
      </trkpt>
      <trkpt lat="42.6172" lon="1.64476">
        <ele>2262.1999511719</ele>
        <time>2023-07-21T07:30:21.000Z</time>
      </trkpt>
      <trkpt lat="42.61719" lon="1.64478">
        <ele>2263</ele>
        <time>2023-07-21T07:30:18.000Z</time>
      </trkpt>
      <trkpt lat="42.61719" lon="1.6448">
        <ele>2263.3999023438</ele>
        <time>2023-07-21T07:30:16.000Z</time>
      </trkpt>
      <trkpt lat="42.61719" lon="1.64486">
        <ele>2264.3999023438</ele>
        <time>2023-07-21T07:30:10.000Z</time>
      </trkpt>
      <trkpt lat="42.61719" lon="1.64495">
        <ele>2265.6000976562</ele>
        <time>2023-07-21T07:30:04.000Z</time>
      </trkpt>
      <trkpt lat="42.61719" lon="1.64496">
        <ele>2265.8000488281</ele>
        <time>2023-07-21T07:30:03.000Z</time>
      </trkpt>
      <trkpt lat="42.61719" lon="1.64502">
        <ele>2266.8000488281</ele>
        <time>2023-07-21T07:29:59.000Z</time>
      </trkpt>
      <trkpt lat="42.61719" lon="1.64507">
        <ele>2267.3999023438</ele>
        <time>2023-07-21T07:29:55.000Z</time>
      </trkpt>
      <trkpt lat="42.61718" lon="1.64509">
        <ele>2267.8000488281</ele>
        <time>2023-07-21T07:29:53.000Z</time>
      </trkpt>
      <trkpt lat="42.61719" lon="1.64515">
        <ele>2268.8000488281</ele>
        <time>2023-07-21T07:29:47.000Z</time>
      </trkpt>
      <trkpt lat="42.61719" lon="1.64521">
        <ele>2270</ele>
        <time>2023-07-21T07:29:42.000Z</time>
      </trkpt>
      <trkpt lat="42.61719" lon="1.64524">
        <ele>2270.6000976562</ele>
        <time>2023-07-21T07:29:39.000Z</time>
      </trkpt>
      <trkpt lat="42.61718" lon="1.64528">
        <ele>2271</ele>
        <time>2023-07-21T07:29:36.000Z</time>
      </trkpt>
      <trkpt lat="42.61716" lon="1.64533">
        <ele>2271.6000976562</ele>
        <time>2023-07-21T07:29:31.000Z</time>
      </trkpt>
      <trkpt lat="42.61715" lon="1.64535">
        <ele>2272</ele>
        <time>2023-07-21T07:29:28.000Z</time>
      </trkpt>
      <trkpt lat="42.61714" lon="1.64539">
        <ele>2273</ele>
        <time>2023-07-21T07:29:24.000Z</time>
      </trkpt>
      <trkpt lat="42.61714" lon="1.6454">
        <ele>2273.1999511719</ele>
        <time>2023-07-21T07:29:23.000Z</time>
      </trkpt>
      <trkpt lat="42.61713" lon="1.64548">
        <ele>2274</ele>
        <time>2023-07-21T07:29:16.000Z</time>
      </trkpt>
      <trkpt lat="42.61712" lon="1.64549">
        <ele>2274.1999511719</ele>
        <time>2023-07-21T07:29:15.000Z</time>
      </trkpt>
      <trkpt lat="42.61708" lon="1.64559">
        <ele>2275.3999023438</ele>
        <time>2023-07-21T07:29:08.000Z</time>
      </trkpt>
      <trkpt lat="42.61704" lon="1.64564">
        <ele>2276.6000976562</ele>
        <time>2023-07-21T07:29:00.000Z</time>
      </trkpt>
      <trkpt lat="42.61702" lon="1.64572">
        <ele>2277.8000488281</ele>
        <time>2023-07-21T07:28:55.000Z</time>
      </trkpt>
      <trkpt lat="42.61701" lon="1.64577">
        <ele>2278</ele>
        <time>2023-07-21T07:28:50.000Z</time>
      </trkpt>
      <trkpt lat="42.61701" lon="1.64585">
        <ele>2278.1999511719</ele>
        <time>2023-07-21T07:28:44.000Z</time>
      </trkpt>
      <trkpt lat="42.61702" lon="1.64589">
        <ele>2279</ele>
        <time>2023-07-21T07:28:41.000Z</time>
      </trkpt>
      <trkpt lat="42.61704" lon="1.64598">
        <ele>2279.3999023438</ele>
        <time>2023-07-21T07:28:36.000Z</time>
      </trkpt>
      <trkpt lat="42.61706" lon="1.64606">
        <ele>2280</ele>
        <time>2023-07-21T07:28:29.000Z</time>
      </trkpt>
      <trkpt lat="42.61706" lon="1.64608">
        <ele>2280.1999511719</ele>
        <time>2023-07-21T07:28:28.000Z</time>
      </trkpt>
      <trkpt lat="42.61705" lon="1.64618">
        <ele>2281</ele>
        <time>2023-07-21T07:28:21.000Z</time>
      </trkpt>
      <trkpt lat="42.61704" lon="1.64621">
        <ele>2281.1999511719</ele>
        <time>2023-07-21T07:28:19.000Z</time>
      </trkpt>
      <trkpt lat="42.617" lon="1.64626">
        <ele>2281.6000976562</ele>
        <time>2023-07-21T07:28:15.000Z</time>
      </trkpt>
      <trkpt lat="42.61699" lon="1.64628">
        <ele>2281.6000976562</ele>
        <time>2023-07-21T07:28:08.000Z</time>
      </trkpt>
      <trkpt lat="42.617" lon="1.64627">
        <ele>2281.6000976562</ele>
        <time>2023-07-21T07:27:58.000Z</time>
      </trkpt>
      <trkpt lat="42.61701" lon="1.64627">
        <ele>2281.6000976562</ele>
        <time>2023-07-21T07:27:56.000Z</time>
      </trkpt>
      <trkpt lat="42.61701" lon="1.64627">
        <ele>2282</ele>
        <time>2023-07-21T07:27:49.000Z</time>
      </trkpt>
      <trkpt lat="42.617" lon="1.64627">
        <ele>2282.3999023438</ele>
        <time>2023-07-21T07:27:47.000Z</time>
      </trkpt>
      <trkpt lat="42.61696" lon="1.64632">
        <ele>2282.8000488281</ele>
        <time>2023-07-21T07:27:42.000Z</time>
      </trkpt>
      <trkpt lat="42.61693" lon="1.64636">
        <ele>2283.3999023438</ele>
        <time>2023-07-21T07:27:36.000Z</time>
      </trkpt>
      <trkpt lat="42.61694" lon="1.64635">
        <ele>2283.6000976562</ele>
        <time>2023-07-21T07:27:35.000Z</time>
      </trkpt>
      <trkpt lat="42.61694" lon="1.64641">
        <ele>2284.6000976562</ele>
        <time>2023-07-21T07:27:30.000Z</time>
      </trkpt>
      <trkpt lat="42.61694" lon="1.64648">
        <ele>2285.6000976562</ele>
        <time>2023-07-21T07:27:23.000Z</time>
      </trkpt>
      <trkpt lat="42.61693" lon="1.64649">
        <ele>2285.8000488281</ele>
        <time>2023-07-21T07:27:22.000Z</time>
      </trkpt>
      <trkpt lat="42.6169" lon="1.64648">
        <ele>2286.8000488281</ele>
        <time>2023-07-21T07:27:17.000Z</time>
      </trkpt>
      <trkpt lat="42.61689" lon="1.64646">
        <ele>2287.1999511719</ele>
        <time>2023-07-21T07:27:14.000Z</time>
      </trkpt>
      <trkpt lat="42.61685" lon="1.64649">
        <ele>2287.3999023438</ele>
        <time>2023-07-21T07:27:07.000Z</time>
      </trkpt>
      <trkpt lat="42.61682" lon="1.64653">
        <ele>2287.8000488281</ele>
        <time>2023-07-21T07:27:03.000Z</time>
      </trkpt>
      <trkpt lat="42.61681" lon="1.64657">
        <ele>2288.3999023438</ele>
        <time>2023-07-21T07:27:00.000Z</time>
      </trkpt>
      <trkpt lat="42.61681" lon="1.64659">
        <ele>2288.8000488281</ele>
        <time>2023-07-21T07:26:58.000Z</time>
      </trkpt>
      <trkpt lat="42.61678" lon="1.64662">
        <ele>2289.3999023438</ele>
        <time>2023-07-21T07:26:54.000Z</time>
      </trkpt>
      <trkpt lat="42.61677" lon="1.64662">
        <ele>2289.8000488281</ele>
        <time>2023-07-21T07:26:52.000Z</time>
      </trkpt>
      <trkpt lat="42.61675" lon="1.64663">
        <ele>2290.6000976562</ele>
        <time>2023-07-21T07:26:47.000Z</time>
      </trkpt>
      <trkpt lat="42.61674" lon="1.64663">
        <ele>2291</ele>
        <time>2023-07-21T07:26:46.000Z</time>
      </trkpt>
      <trkpt lat="42.61674" lon="1.64673">
        <ele>2291.8000488281</ele>
        <time>2023-07-21T07:26:39.000Z</time>
      </trkpt>
      <trkpt lat="42.61674" lon="1.64674">
        <ele>2292</ele>
        <time>2023-07-21T07:26:38.000Z</time>
      </trkpt>
      <trkpt lat="42.61675" lon="1.64676">
        <ele>2293</ele>
        <time>2023-07-21T07:26:33.000Z</time>
      </trkpt>
      <trkpt lat="42.61675" lon="1.64676">
        <ele>2293.1999511719</ele>
        <time>2023-07-21T07:26:32.000Z</time>
      </trkpt>
      <trkpt lat="42.61678" lon="1.64677">
        <ele>2294.1999511719</ele>
        <time>2023-07-21T07:26:27.000Z</time>
      </trkpt>
      <trkpt lat="42.6168" lon="1.64678">
        <ele>2294.8000488281</ele>
        <time>2023-07-21T07:26:24.000Z</time>
      </trkpt>
      <trkpt lat="42.61682" lon="1.6468">
        <ele>2295.1999511719</ele>
        <time>2023-07-21T07:26:22.000Z</time>
      </trkpt>
      <trkpt lat="42.61683" lon="1.64682">
        <ele>2296</ele>
        <time>2023-07-21T07:26:19.000Z</time>
      </trkpt>
      <trkpt lat="42.61683" lon="1.64686">
        <ele>2296.3999023438</ele>
        <time>2023-07-21T07:26:16.000Z</time>
      </trkpt>
      <trkpt lat="42.61683" lon="1.64688">
        <ele>2297.6000976562</ele>
        <time>2023-07-21T07:26:11.000Z</time>
      </trkpt>
      <trkpt lat="42.61684" lon="1.64693">
        <ele>2298.8000488281</ele>
        <time>2023-07-21T07:26:06.000Z</time>
      </trkpt>
      <trkpt lat="42.61685" lon="1.64695">
        <ele>2299.3999023438</ele>
        <time>2023-07-21T07:26:04.000Z</time>
      </trkpt>
      <trkpt lat="42.61685" lon="1.64702">
        <ele>2300.1999511719</ele>
        <time>2023-07-21T07:25:59.000Z</time>
      </trkpt>
      <trkpt lat="42.61685" lon="1.64703">
        <ele>2300.6000976562</ele>
        <time>2023-07-21T07:25:56.000Z</time>
      </trkpt>
      <trkpt lat="42.61683" lon="1.64705">
        <ele>2301.1999511719</ele>
        <time>2023-07-21T07:25:52.000Z</time>
      </trkpt>
      <trkpt lat="42.61682" lon="1.64707">
        <ele>2301.8000488281</ele>
        <time>2023-07-21T07:25:48.000Z</time>
      </trkpt>
      <trkpt lat="42.61681" lon="1.64712">
        <ele>2302.3999023438</ele>
        <time>2023-07-21T07:25:44.000Z</time>
      </trkpt>
      <trkpt lat="42.6168" lon="1.64715">
        <ele>2303.1999511719</ele>
        <time>2023-07-21T07:25:40.000Z</time>
      </trkpt>
      <trkpt lat="42.6168" lon="1.64716">
        <ele>2303.3999023438</ele>
        <time>2023-07-21T07:25:39.000Z</time>
      </trkpt>
      <trkpt lat="42.61678" lon="1.64722">
        <ele>2304.6000976562</ele>
        <time>2023-07-21T07:25:34.000Z</time>
      </trkpt>
      <trkpt lat="42.61678" lon="1.64727">
        <ele>2305.6000976562</ele>
        <time>2023-07-21T07:25:28.000Z</time>
      </trkpt>
      <trkpt lat="42.61677" lon="1.64729">
        <ele>2306.1999511719</ele>
        <time>2023-07-21T07:25:25.000Z</time>
      </trkpt>
      <trkpt lat="42.61677" lon="1.64734">
        <ele>2306.8000488281</ele>
        <time>2023-07-21T07:25:20.000Z</time>
      </trkpt>
      <trkpt lat="42.61677" lon="1.64741">
        <ele>2307.8000488281</ele>
        <time>2023-07-21T07:25:15.000Z</time>
      </trkpt>
      <trkpt lat="42.61677" lon="1.64749">
        <ele>2309</ele>
        <time>2023-07-21T07:25:07.000Z</time>
      </trkpt>
      <trkpt lat="42.61677" lon="1.64757">
        <ele>2309.3999023438</ele>
        <time>2023-07-21T07:25:01.000Z</time>
      </trkpt>
      <trkpt lat="42.61676" lon="1.64762">
        <ele>2310</ele>
        <time>2023-07-21T07:24:57.000Z</time>
      </trkpt>
      <trkpt lat="42.61675" lon="1.64764">
        <ele>2310.3999023438</ele>
        <time>2023-07-21T07:24:54.000Z</time>
      </trkpt>
      <trkpt lat="42.61671" lon="1.6477">
        <ele>2310.6000976562</ele>
        <time>2023-07-21T07:24:47.000Z</time>
      </trkpt>
      <trkpt lat="42.61668" lon="1.64773">
        <ele>2311.1999511719</ele>
        <time>2023-07-21T07:24:40.000Z</time>
      </trkpt>
      <trkpt lat="42.61665" lon="1.64778">
        <ele>2312</ele>
        <time>2023-07-21T07:24:33.000Z</time>
      </trkpt>
      <trkpt lat="42.61662" lon="1.64781">
        <ele>2312.1999511719</ele>
        <time>2023-07-21T07:24:28.000Z</time>
      </trkpt>
      <trkpt lat="42.61661" lon="1.64783">
        <ele>2312.6000976562</ele>
        <time>2023-07-21T07:24:26.000Z</time>
      </trkpt>
      <trkpt lat="42.61656" lon="1.64788">
        <ele>2313.3999023438</ele>
        <time>2023-07-21T07:24:21.000Z</time>
      </trkpt>
      <trkpt lat="42.61656" lon="1.6479">
        <ele>2313.8000488281</ele>
        <time>2023-07-21T07:24:19.000Z</time>
      </trkpt>
      <trkpt lat="42.61656" lon="1.64795">
        <ele>2314.3999023438</ele>
        <time>2023-07-21T07:24:15.000Z</time>
      </trkpt>
      <trkpt lat="42.61656" lon="1.64797">
        <ele>2315</ele>
        <time>2023-07-21T07:24:12.000Z</time>
      </trkpt>
      <trkpt lat="42.61654" lon="1.648">
        <ele>2315.6000976562</ele>
        <time>2023-07-21T07:24:08.000Z</time>
      </trkpt>
      <trkpt lat="42.61652" lon="1.64803">
        <ele>2316.1999511719</ele>
        <time>2023-07-21T07:24:04.000Z</time>
      </trkpt>
      <trkpt lat="42.61651" lon="1.64807">
        <ele>2316.6000976562</ele>
        <time>2023-07-21T07:24:01.000Z</time>
      </trkpt>
      <trkpt lat="42.61651" lon="1.64808">
        <ele>2317</ele>
        <time>2023-07-21T07:23:57.000Z</time>
      </trkpt>
      <trkpt lat="42.61652" lon="1.64811">
        <ele>2317.6000976562</ele>
        <time>2023-07-21T07:23:52.000Z</time>
      </trkpt>
      <trkpt lat="42.61653" lon="1.64812">
        <ele>2317.8000488281</ele>
        <time>2023-07-21T07:23:51.000Z</time>
      </trkpt>
      <trkpt lat="42.61651" lon="1.64819">
        <ele>2318.8000488281</ele>
        <time>2023-07-21T07:23:46.000Z</time>
      </trkpt>
      <trkpt lat="42.6165" lon="1.6482">
        <ele>2319</ele>
        <time>2023-07-21T07:23:45.000Z</time>
      </trkpt>
      <trkpt lat="42.61648" lon="1.64827">
        <ele>2319.6000976562</ele>
        <time>2023-07-21T07:23:38.000Z</time>
      </trkpt>
      <trkpt lat="42.61647" lon="1.6483">
        <ele>2319.8000488281</ele>
        <time>2023-07-21T07:23:33.000Z</time>
      </trkpt>
      <trkpt lat="42.61645" lon="1.6483">
        <ele>2320.1999511719</ele>
        <time>2023-07-21T07:23:31.000Z</time>
      </trkpt>
      <trkpt lat="42.61644" lon="1.6483">
        <ele>2320.3999023438</ele>
        <time>2023-07-21T07:23:30.000Z</time>
      </trkpt>
      <trkpt lat="42.61642" lon="1.64832">
        <ele>2321</ele>
        <time>2023-07-21T07:23:26.000Z</time>
      </trkpt>
      <trkpt lat="42.61642" lon="1.64834">
        <ele>2321.3999023438</ele>
        <time>2023-07-21T07:23:24.000Z</time>
      </trkpt>
      <trkpt lat="42.61639" lon="1.64841">
        <ele>2322</ele>
        <time>2023-07-21T07:23:17.000Z</time>
      </trkpt>
      <trkpt lat="42.61637" lon="1.64848">
        <ele>2322.6000976562</ele>
        <time>2023-07-21T07:23:10.000Z</time>
      </trkpt>
      <trkpt lat="42.61634" lon="1.64856">
        <ele>2323</ele>
        <time>2023-07-21T07:23:02.000Z</time>
      </trkpt>
      <trkpt lat="42.61636" lon="1.64861">
        <ele>2323</ele>
        <time>2023-07-21T07:22:56.000Z</time>
      </trkpt>
      <trkpt lat="42.61635" lon="1.64865">
        <ele>2323</ele>
        <time>2023-07-21T07:22:50.000Z</time>
      </trkpt>
      <trkpt lat="42.61636" lon="1.64864">
        <ele>2323</ele>
        <time>2023-07-21T07:22:41.000Z</time>
      </trkpt>
      <trkpt lat="42.61632" lon="1.64864">
        <ele>2323</ele>
        <time>2023-07-21T07:22:28.000Z</time>
      </trkpt>
      <trkpt lat="42.61634" lon="1.64864">
        <ele>2323.1999511719</ele>
        <time>2023-07-21T07:22:24.000Z</time>
      </trkpt>
      <trkpt lat="42.61636" lon="1.64863">
        <ele>2323.3999023438</ele>
        <time>2023-07-21T07:22:18.000Z</time>
      </trkpt>
      <trkpt lat="42.61635" lon="1.64864">
        <ele>2323.3999023438</ele>
        <time>2023-07-21T07:22:10.000Z</time>
      </trkpt>
      <trkpt lat="42.61636" lon="1.64866">
        <ele>2323.3999023438</ele>
        <time>2023-07-21T07:21:56.000Z</time>
      </trkpt>
      <trkpt lat="42.61634" lon="1.64863">
        <ele>2323.3999023438</ele>
        <time>2023-07-21T07:21:49.000Z</time>
      </trkpt>
      <trkpt lat="42.61635" lon="1.64863">
        <ele>2323.1999511719</ele>
        <time>2023-07-21T07:21:39.000Z</time>
      </trkpt>
      <trkpt lat="42.61631" lon="1.64863">
        <ele>2323.1999511719</ele>
        <time>2023-07-21T07:21:29.000Z</time>
      </trkpt>
      <trkpt lat="42.61635" lon="1.64866">
        <ele>2323.3999023438</ele>
        <time>2023-07-21T07:21:21.000Z</time>
      </trkpt>
      <trkpt lat="42.61636" lon="1.64866">
        <ele>2323.3999023438</ele>
        <time>2023-07-21T07:21:11.000Z</time>
      </trkpt>
      <trkpt lat="42.61635" lon="1.64868">
        <ele>2323.6000976562</ele>
        <time>2023-07-21T07:21:04.000Z</time>
      </trkpt>
      <trkpt lat="42.61637" lon="1.64871">
        <ele>2323.8000488281</ele>
        <time>2023-07-21T07:20:55.000Z</time>
      </trkpt>
      <trkpt lat="42.61637" lon="1.64871">
        <ele>2323.8000488281</ele>
        <time>2023-07-21T07:20:47.000Z</time>
      </trkpt>
      <trkpt lat="42.61636" lon="1.64869">
        <ele>2323.8000488281</ele>
        <time>2023-07-21T07:20:37.000Z</time>
      </trkpt>
      <trkpt lat="42.61636" lon="1.64868">
        <ele>2323.6000976562</ele>
        <time>2023-07-21T07:20:29.000Z</time>
      </trkpt>
      <trkpt lat="42.61635" lon="1.64863">
        <ele>2323.6000976562</ele>
        <time>2023-07-21T07:20:21.000Z</time>
      </trkpt>
      <trkpt lat="42.61633" lon="1.64862">
        <ele>2323.6000976562</ele>
        <time>2023-07-21T07:20:15.000Z</time>
      </trkpt>
      <trkpt lat="42.61632" lon="1.64864">
        <ele>2323.6000976562</ele>
        <time>2023-07-21T07:20:03.000Z</time>
      </trkpt>
      <trkpt lat="42.61633" lon="1.64863">
        <ele>2323.6000976562</ele>
        <time>2023-07-21T07:19:55.000Z</time>
      </trkpt>
      <trkpt lat="42.61633" lon="1.64863">
        <ele>2323.6000976562</ele>
        <time>2023-07-21T07:19:47.000Z</time>
      </trkpt>
      <trkpt lat="42.61633" lon="1.64865">
        <ele>2323.6000976562</ele>
        <time>2023-07-21T07:19:38.000Z</time>
      </trkpt>
      <trkpt lat="42.61632" lon="1.64864">
        <ele>2323.8000488281</ele>
        <time>2023-07-21T07:19:29.000Z</time>
      </trkpt>
      <trkpt lat="42.61632" lon="1.64863">
        <ele>2324</ele>
        <time>2023-07-21T07:19:23.000Z</time>
      </trkpt>
      <trkpt lat="42.61632" lon="1.64862">
        <ele>2324.1999511719</ele>
        <time>2023-07-21T07:19:15.000Z</time>
      </trkpt>
      <trkpt lat="42.61632" lon="1.64863">
        <ele>2324</ele>
        <time>2023-07-21T07:19:08.000Z</time>
      </trkpt>
      <trkpt lat="42.6163" lon="1.64864">
        <ele>2324.1999511719</ele>
        <time>2023-07-21T07:19:02.000Z</time>
      </trkpt>
      <trkpt lat="42.61632" lon="1.64865">
        <ele>2324.1999511719</ele>
        <time>2023-07-21T07:18:58.000Z</time>
      </trkpt>
      <trkpt lat="42.61632" lon="1.64867">
        <ele>2324.1999511719</ele>
        <time>2023-07-21T07:18:55.000Z</time>
      </trkpt>
      <trkpt lat="42.61632" lon="1.64868">
        <ele>2324.1999511719</ele>
        <time>2023-07-21T07:18:54.000Z</time>
      </trkpt>
      <trkpt lat="42.61634" lon="1.64869">
        <ele>2325.1999511719</ele>
        <time>2023-07-21T07:18:49.000Z</time>
      </trkpt>
      <trkpt lat="42.61635" lon="1.6487">
        <ele>2325.6000976562</ele>
        <time>2023-07-21T07:18:47.000Z</time>
      </trkpt>
      <trkpt lat="42.61639" lon="1.64879">
        <ele>2326.3999023438</ele>
        <time>2023-07-21T07:18:39.000Z</time>
      </trkpt>
      <trkpt lat="42.61639" lon="1.64886">
        <ele>2326.6000976562</ele>
        <time>2023-07-21T07:18:33.000Z</time>
      </trkpt>
      <trkpt lat="42.61637" lon="1.64885">
        <ele>2326.8000488281</ele>
        <time>2023-07-21T07:18:25.000Z</time>
      </trkpt>
      <trkpt lat="42.61636" lon="1.64883">
        <ele>2326.8000488281</ele>
        <time>2023-07-21T07:18:20.000Z</time>
      </trkpt>
      <trkpt lat="42.61637" lon="1.64882">
        <ele>2327</ele>
        <time>2023-07-21T07:18:16.000Z</time>
      </trkpt>
      <trkpt lat="42.61636" lon="1.64887">
        <ele>2327</ele>
        <time>2023-07-21T07:18:10.000Z</time>
      </trkpt>
      <trkpt lat="42.61635" lon="1.64895">
        <ele>2326.6000976562</ele>
        <time>2023-07-21T07:18:03.000Z</time>
      </trkpt>
      <trkpt lat="42.61635" lon="1.64897">
        <ele>2326.3999023438</ele>
        <time>2023-07-21T07:18:01.000Z</time>
      </trkpt>
      <trkpt lat="42.61635" lon="1.64904">
        <ele>2326</ele>
        <time>2023-07-21T07:17:55.000Z</time>
      </trkpt>
      <trkpt lat="42.61632" lon="1.64915">
        <ele>2326.1999511719</ele>
        <time>2023-07-21T07:17:47.000Z</time>
      </trkpt>
      <trkpt lat="42.6163" lon="1.64927">
        <ele>2325.6000976562</ele>
        <time>2023-07-21T07:17:37.000Z</time>
      </trkpt>
      <trkpt lat="42.61629" lon="1.64934">
        <ele>2325.3999023438</ele>
        <time>2023-07-21T07:17:32.000Z</time>
      </trkpt>
      <trkpt lat="42.61629" lon="1.64937">
        <ele>2325</ele>
        <time>2023-07-21T07:17:29.000Z</time>
      </trkpt>
      <trkpt lat="42.61626" lon="1.64945">
        <ele>2324.1999511719</ele>
        <time>2023-07-21T07:17:21.000Z</time>
      </trkpt>
      <trkpt lat="42.61626" lon="1.64946">
        <ele>2324.1999511719</ele>
        <time>2023-07-21T07:17:20.000Z</time>
      </trkpt>
      <trkpt lat="42.61625" lon="1.64955">
        <ele>2323.6000976562</ele>
        <time>2023-07-21T07:17:12.000Z</time>
      </trkpt>
      <trkpt lat="42.61625" lon="1.64958">
        <ele>2323.1999511719</ele>
        <time>2023-07-21T07:17:09.000Z</time>
      </trkpt>
      <trkpt lat="42.61625" lon="1.64963">
        <ele>2322.1999511719</ele>
        <time>2023-07-21T07:17:03.000Z</time>
      </trkpt>
      <trkpt lat="42.61625" lon="1.64963">
        <ele>2322</ele>
        <time>2023-07-21T07:17:02.000Z</time>
      </trkpt>
      <trkpt lat="42.61623" lon="1.64969">
        <ele>2321</ele>
        <time>2023-07-21T07:16:55.000Z</time>
      </trkpt>
      <trkpt lat="42.61623" lon="1.6497">
        <ele>2320.8000488281</ele>
        <time>2023-07-21T07:16:54.000Z</time>
      </trkpt>
      <trkpt lat="42.61624" lon="1.64975">
        <ele>2319.8000488281</ele>
        <time>2023-07-21T07:16:47.000Z</time>
      </trkpt>
      <trkpt lat="42.61624" lon="1.64975">
        <ele>2319.8000488281</ele>
        <time>2023-07-21T07:16:46.000Z</time>
      </trkpt>
      <trkpt lat="42.61626" lon="1.64984">
        <ele>2318.8000488281</ele>
        <time>2023-07-21T07:16:37.000Z</time>
      </trkpt>
      <trkpt lat="42.61625" lon="1.6499">
        <ele>2318</ele>
        <time>2023-07-21T07:16:29.000Z</time>
      </trkpt>
      <trkpt lat="42.61625" lon="1.64992">
        <ele>2317.8000488281</ele>
        <time>2023-07-21T07:16:27.000Z</time>
      </trkpt>
      <trkpt lat="42.61626" lon="1.64996">
        <ele>2317</ele>
        <time>2023-07-21T07:16:20.000Z</time>
      </trkpt>
      <trkpt lat="42.61627" lon="1.64996">
        <ele>2316.8000488281</ele>
        <time>2023-07-21T07:16:18.000Z</time>
      </trkpt>
      <trkpt lat="42.61626" lon="1.65">
        <ele>2315.8000488281</ele>
        <time>2023-07-21T07:16:11.000Z</time>
      </trkpt>
      <trkpt lat="42.61626" lon="1.65">
        <ele>2315.8000488281</ele>
        <time>2023-07-21T07:16:10.000Z</time>
      </trkpt>
      <trkpt lat="42.61628" lon="1.65004">
        <ele>2315</ele>
        <time>2023-07-21T07:16:02.000Z</time>
      </trkpt>
      <trkpt lat="42.61629" lon="1.65006">
        <ele>2314.6000976562</ele>
        <time>2023-07-21T07:15:58.000Z</time>
      </trkpt>
      <trkpt lat="42.61632" lon="1.65011">
        <ele>2314</ele>
        <time>2023-07-21T07:15:53.000Z</time>
      </trkpt>
      <trkpt lat="42.61633" lon="1.65013">
        <ele>2313.6000976562</ele>
        <time>2023-07-21T07:15:51.000Z</time>
      </trkpt>
      <trkpt lat="42.61635" lon="1.65016">
        <ele>2312.8000488281</ele>
        <time>2023-07-21T07:15:46.000Z</time>
      </trkpt>
      <trkpt lat="42.61635" lon="1.65016">
        <ele>2312.6000976562</ele>
        <time>2023-07-21T07:15:44.000Z</time>
      </trkpt>
      <trkpt lat="42.61634" lon="1.65016">
        <ele>2311.8000488281</ele>
        <time>2023-07-21T07:15:39.000Z</time>
      </trkpt>
      <trkpt lat="42.61634" lon="1.65018">
        <ele>2311.3999023438</ele>
        <time>2023-07-21T07:15:36.000Z</time>
      </trkpt>
      <trkpt lat="42.61635" lon="1.65021">
        <ele>2310.6000976562</ele>
        <time>2023-07-21T07:15:32.000Z</time>
      </trkpt>
      <trkpt lat="42.61636" lon="1.65022">
        <ele>2310.3999023438</ele>
        <time>2023-07-21T07:15:29.000Z</time>
      </trkpt>
      <trkpt lat="42.61637" lon="1.65023">
        <ele>2310</ele>
        <time>2023-07-21T07:15:26.000Z</time>
      </trkpt>
      <trkpt lat="42.61638" lon="1.65025">
        <ele>2309.3999023438</ele>
        <time>2023-07-21T07:15:20.000Z</time>
      </trkpt>
      <trkpt lat="42.61637" lon="1.65028">
        <ele>2309</ele>
        <time>2023-07-21T07:15:18.000Z</time>
      </trkpt>
      <trkpt lat="42.61638" lon="1.6503">
        <ele>2308.1999511719</ele>
        <time>2023-07-21T07:15:15.000Z</time>
      </trkpt>
      <trkpt lat="42.61638" lon="1.65032">
        <ele>2307.6000976562</ele>
        <time>2023-07-21T07:15:11.000Z</time>
      </trkpt>
      <trkpt lat="42.61638" lon="1.65033">
        <ele>2307</ele>
        <time>2023-07-21T07:15:09.000Z</time>
      </trkpt>
      <trkpt lat="42.61637" lon="1.65036">
        <ele>2306.3999023438</ele>
        <time>2023-07-21T07:15:03.000Z</time>
      </trkpt>
      <trkpt lat="42.61638" lon="1.65039">
        <ele>2305.8000488281</ele>
        <time>2023-07-21T07:14:59.000Z</time>
      </trkpt>
      <trkpt lat="42.6164" lon="1.65044">
        <ele>2305.3999023438</ele>
        <time>2023-07-21T07:14:55.000Z</time>
      </trkpt>
      <trkpt lat="42.61645" lon="1.65051">
        <ele>2304.8000488281</ele>
        <time>2023-07-21T07:14:46.000Z</time>
      </trkpt>
      <trkpt lat="42.61648" lon="1.65057">
        <ele>2304.1999511719</ele>
        <time>2023-07-21T07:14:40.000Z</time>
      </trkpt>
      <trkpt lat="42.61648" lon="1.6506">
        <ele>2303.6000976562</ele>
        <time>2023-07-21T07:14:37.000Z</time>
      </trkpt>
      <trkpt lat="42.6165" lon="1.65065">
        <ele>2302.6000976562</ele>
        <time>2023-07-21T07:14:32.000Z</time>
      </trkpt>
      <trkpt lat="42.61649" lon="1.65068">
        <ele>2301.6000976562</ele>
        <time>2023-07-21T07:14:27.000Z</time>
      </trkpt>
      <trkpt lat="42.61647" lon="1.65069">
        <ele>2301</ele>
        <time>2023-07-21T07:14:24.000Z</time>
      </trkpt>
      <trkpt lat="42.61646" lon="1.65069">
        <ele>2300.6000976562</ele>
        <time>2023-07-21T07:14:22.000Z</time>
      </trkpt>
      <trkpt lat="42.61643" lon="1.6507">
        <ele>2299.6000976562</ele>
        <time>2023-07-21T07:14:16.000Z</time>
      </trkpt>
      <trkpt lat="42.61637" lon="1.65072">
        <ele>2299.3999023438</ele>
        <time>2023-07-21T07:14:09.000Z</time>
      </trkpt>
      <trkpt lat="42.61641" lon="1.65075">
        <ele>2299.1999511719</ele>
        <time>2023-07-21T07:14:02.000Z</time>
      </trkpt>
      <trkpt lat="42.61641" lon="1.65078">
        <ele>2299</ele>
        <time>2023-07-21T07:13:51.000Z</time>
      </trkpt>
      <trkpt lat="42.61636" lon="1.65079">
        <ele>2299.1999511719</ele>
        <time>2023-07-21T07:13:45.000Z</time>
      </trkpt>
      <trkpt lat="42.61636" lon="1.65079">
        <ele>2299.3999023438</ele>
        <time>2023-07-21T07:13:44.000Z</time>
      </trkpt>
      <trkpt lat="42.6163" lon="1.6508">
        <ele>2300.3999023438</ele>
        <time>2023-07-21T07:13:37.000Z</time>
      </trkpt>
      <trkpt lat="42.6163" lon="1.65081">
        <ele>2300.6000976562</ele>
        <time>2023-07-21T07:13:36.000Z</time>
      </trkpt>
      <trkpt lat="42.61623" lon="1.65085">
        <ele>2301</ele>
        <time>2023-07-21T07:13:29.000Z</time>
      </trkpt>
      <trkpt lat="42.61616" lon="1.65081">
        <ele>2300.6000976562</ele>
        <time>2023-07-21T07:13:21.000Z</time>
      </trkpt>
      <trkpt lat="42.6161" lon="1.65085">
        <ele>2300.6000976562</ele>
        <time>2023-07-21T07:13:14.000Z</time>
      </trkpt>
      <trkpt lat="42.61605" lon="1.65095">
        <ele>2301.3999023438</ele>
        <time>2023-07-21T07:13:06.000Z</time>
      </trkpt>
      <trkpt lat="42.61603" lon="1.65097">
        <ele>2301.6000976562</ele>
        <time>2023-07-21T07:13:04.000Z</time>
      </trkpt>
      <trkpt lat="42.61598" lon="1.65105">
        <ele>2302.6000976562</ele>
        <time>2023-07-21T07:12:57.000Z</time>
      </trkpt>
      <trkpt lat="42.61594" lon="1.65109">
        <ele>2303.8000488281</ele>
        <time>2023-07-21T07:12:50.000Z</time>
      </trkpt>
      <trkpt lat="42.61594" lon="1.6511">
        <ele>2304</ele>
        <time>2023-07-21T07:12:49.000Z</time>
      </trkpt>
      <trkpt lat="42.6159" lon="1.65114">
        <ele>2304.8000488281</ele>
        <time>2023-07-21T07:12:44.000Z</time>
      </trkpt>
      <trkpt lat="42.61586" lon="1.65116">
        <ele>2305.6000976562</ele>
        <time>2023-07-21T07:12:40.000Z</time>
      </trkpt>
      <trkpt lat="42.61583" lon="1.65116">
        <ele>2306</ele>
        <time>2023-07-21T07:12:37.000Z</time>
      </trkpt>
      <trkpt lat="42.61575" lon="1.65114">
        <ele>2307.1999511719</ele>
        <time>2023-07-21T07:12:30.000Z</time>
      </trkpt>
      <trkpt lat="42.6157" lon="1.65111">
        <ele>2308</ele>
        <time>2023-07-21T07:12:23.000Z</time>
      </trkpt>
      <trkpt lat="42.61569" lon="1.65112">
        <ele>2308.1999511719</ele>
        <time>2023-07-21T07:12:22.000Z</time>
      </trkpt>
      <trkpt lat="42.61569" lon="1.65114">
        <ele>2309.1999511719</ele>
        <time>2023-07-21T07:12:18.000Z</time>
      </trkpt>
      <trkpt lat="42.61569" lon="1.65116">
        <ele>2309.6000976562</ele>
        <time>2023-07-21T07:12:14.000Z</time>
      </trkpt>
      <trkpt lat="42.6157" lon="1.65118">
        <ele>2310.1999511719</ele>
        <time>2023-07-21T07:12:11.000Z</time>
      </trkpt>
      <trkpt lat="42.6157" lon="1.65121">
        <ele>2310.8000488281</ele>
        <time>2023-07-21T07:12:07.000Z</time>
      </trkpt>
      <trkpt lat="42.6157" lon="1.65123">
        <ele>2311.1999511719</ele>
        <time>2023-07-21T07:12:05.000Z</time>
      </trkpt>
      <trkpt lat="42.61566" lon="1.65125">
        <ele>2312.1999511719</ele>
        <time>2023-07-21T07:12:00.000Z</time>
      </trkpt>
      <trkpt lat="42.61566" lon="1.65126">
        <ele>2312.1999511719</ele>
        <time>2023-07-21T07:11:59.000Z</time>
      </trkpt>
      <trkpt lat="42.61562" lon="1.65123">
        <ele>2312.6000976562</ele>
        <time>2023-07-21T07:11:54.000Z</time>
      </trkpt>
      <trkpt lat="42.61565" lon="1.65125">
        <ele>2313.3999023438</ele>
        <time>2023-07-21T07:11:46.000Z</time>
      </trkpt>
      <trkpt lat="42.6156" lon="1.65126">
        <ele>2315.3999023438</ele>
        <time>2023-07-21T07:11:34.000Z</time>
      </trkpt>
      <trkpt lat="42.6156" lon="1.65126">
        <ele>2315.6000976562</ele>
        <time>2023-07-21T07:11:33.000Z</time>
      </trkpt>
      <trkpt lat="42.6156" lon="1.65126">
        <ele>2315.6000976562</ele>
        <time>2023-07-21T07:11:32.000Z</time>
      </trkpt>
      <trkpt lat="42.61561" lon="1.65124">
        <ele>2316.6000976562</ele>
        <time>2023-07-21T07:11:24.000Z</time>
      </trkpt>
      <trkpt lat="42.6156" lon="1.65121">
        <ele>2317.8000488281</ele>
        <time>2023-07-21T07:11:18.000Z</time>
      </trkpt>
      <trkpt lat="42.61561" lon="1.65121">
        <ele>2318</ele>
        <time>2023-07-21T07:11:16.000Z</time>
      </trkpt>
      <trkpt lat="42.61557" lon="1.65113">
        <ele>2318.3999023438</ele>
        <time>2023-07-21T07:11:08.000Z</time>
      </trkpt>
      <trkpt lat="42.61551" lon="1.65109">
        <ele>2318.1999511719</ele>
        <time>2023-07-21T07:11:00.000Z</time>
      </trkpt>
      <trkpt lat="42.61548" lon="1.65105">
        <ele>2318.6000976562</ele>
        <time>2023-07-21T07:10:52.000Z</time>
      </trkpt>
      <trkpt lat="42.61547" lon="1.65104">
        <ele>2318.8000488281</ele>
        <time>2023-07-21T07:10:49.000Z</time>
      </trkpt>
      <trkpt lat="42.61543" lon="1.65101">
        <ele>2319</ele>
        <time>2023-07-21T07:10:44.000Z</time>
      </trkpt>
      <trkpt lat="42.61536" lon="1.65097">
        <ele>2319.6000976562</ele>
        <time>2023-07-21T07:10:35.000Z</time>
      </trkpt>
      <trkpt lat="42.61535" lon="1.65097">
        <ele>2319.8000488281</ele>
        <time>2023-07-21T07:10:33.000Z</time>
      </trkpt>
      <trkpt lat="42.61533" lon="1.65099">
        <ele>2320.6000976562</ele>
        <time>2023-07-21T07:10:28.000Z</time>
      </trkpt>
      <trkpt lat="42.6153" lon="1.65102">
        <ele>2321</ele>
        <time>2023-07-21T07:10:24.000Z</time>
      </trkpt>
      <trkpt lat="42.61527" lon="1.65105">
        <ele>2321.1999511719</ele>
        <time>2023-07-21T07:10:20.000Z</time>
      </trkpt>
      <trkpt lat="42.61521" lon="1.65101">
        <ele>2321.6000976562</ele>
        <time>2023-07-21T07:10:13.000Z</time>
      </trkpt>
      <trkpt lat="42.61513" lon="1.65102">
        <ele>2321.8000488281</ele>
        <time>2023-07-21T07:10:06.000Z</time>
      </trkpt>
      <trkpt lat="42.61509" lon="1.651">
        <ele>2321.8000488281</ele>
        <time>2023-07-21T07:09:59.000Z</time>
      </trkpt>
      <trkpt lat="42.61508" lon="1.65099">
        <ele>2322</ele>
        <time>2023-07-21T07:09:57.000Z</time>
      </trkpt>
      <trkpt lat="42.61505" lon="1.65104">
        <ele>2322.8000488281</ele>
        <time>2023-07-21T07:09:52.000Z</time>
      </trkpt>
      <trkpt lat="42.61504" lon="1.65105">
        <ele>2323</ele>
        <time>2023-07-21T07:09:51.000Z</time>
      </trkpt>
      <trkpt lat="42.61504" lon="1.65107">
        <ele>2324.1999511719</ele>
        <time>2023-07-21T07:09:44.000Z</time>
      </trkpt>
      <trkpt lat="42.61502" lon="1.65111">
        <ele>2325.3999023438</ele>
        <time>2023-07-21T07:09:36.000Z</time>
      </trkpt>
      <trkpt lat="42.61502" lon="1.65116">
        <ele>2326.3999023438</ele>
        <time>2023-07-21T07:09:29.000Z</time>
      </trkpt>
      <trkpt lat="42.61502" lon="1.65117">
        <ele>2327</ele>
        <time>2023-07-21T07:09:27.000Z</time>
      </trkpt>
      <trkpt lat="42.61504" lon="1.65118">
        <ele>2327.6000976562</ele>
        <time>2023-07-21T07:09:23.000Z</time>
      </trkpt>
      <trkpt lat="42.61507" lon="1.65122">
        <ele>2328.3999023438</ele>
        <time>2023-07-21T07:09:18.000Z</time>
      </trkpt>
      <trkpt lat="42.61507" lon="1.65123">
        <ele>2328.6000976562</ele>
        <time>2023-07-21T07:09:17.000Z</time>
      </trkpt>
      <trkpt lat="42.61507" lon="1.65125">
        <ele>2329.6000976562</ele>
        <time>2023-07-21T07:09:11.000Z</time>
      </trkpt>
      <trkpt lat="42.61507" lon="1.65126">
        <ele>2330</ele>
        <time>2023-07-21T07:09:10.000Z</time>
      </trkpt>
      <trkpt lat="42.61509" lon="1.65129">
        <ele>2330.8000488281</ele>
        <time>2023-07-21T07:09:05.000Z</time>
      </trkpt>
      <trkpt lat="42.6151" lon="1.65132">
        <ele>2331.1999511719</ele>
        <time>2023-07-21T07:09:02.000Z</time>
      </trkpt>
      <trkpt lat="42.61511" lon="1.65133">
        <ele>2331.8000488281</ele>
        <time>2023-07-21T07:08:59.000Z</time>
      </trkpt>
      <trkpt lat="42.61514" lon="1.65135">
        <ele>2332.8000488281</ele>
        <time>2023-07-21T07:08:55.000Z</time>
      </trkpt>
      <trkpt lat="42.61514" lon="1.65135">
        <ele>2332.8000488281</ele>
        <time>2023-07-21T07:08:54.000Z</time>
      </trkpt>
      <trkpt lat="42.61514" lon="1.65139">
        <ele>2334</ele>
        <time>2023-07-21T07:08:49.000Z</time>
      </trkpt>
      <trkpt lat="42.61514" lon="1.65141">
        <ele>2334.3999023438</ele>
        <time>2023-07-21T07:08:46.000Z</time>
      </trkpt>
      <trkpt lat="42.61515" lon="1.65142">
        <ele>2335.1999511719</ele>
        <time>2023-07-21T07:08:42.000Z</time>
      </trkpt>
      <trkpt lat="42.61514" lon="1.65144">
        <ele>2336</ele>
        <time>2023-07-21T07:08:36.000Z</time>
      </trkpt>
      <trkpt lat="42.61514" lon="1.65144">
        <ele>2336.1999511719</ele>
        <time>2023-07-21T07:08:35.000Z</time>
      </trkpt>
      <trkpt lat="42.61514" lon="1.65146">
        <ele>2337.1999511719</ele>
        <time>2023-07-21T07:08:28.000Z</time>
      </trkpt>
      <trkpt lat="42.61514" lon="1.65147">
        <ele>2337.6000976562</ele>
        <time>2023-07-21T07:08:26.000Z</time>
      </trkpt>
      <trkpt lat="42.61516" lon="1.65148">
        <ele>2338.3999023438</ele>
        <time>2023-07-21T07:08:22.000Z</time>
      </trkpt>
      <trkpt lat="42.61516" lon="1.6515">
        <ele>2339</ele>
        <time>2023-07-21T07:08:18.000Z</time>
      </trkpt>
      <trkpt lat="42.61517" lon="1.65152">
        <ele>2339.6000976562</ele>
        <time>2023-07-21T07:08:15.000Z</time>
      </trkpt>
      <trkpt lat="42.61519" lon="1.65154">
        <ele>2340.1999511719</ele>
        <time>2023-07-21T07:08:11.000Z</time>
      </trkpt>
      <trkpt lat="42.61519" lon="1.65154">
        <ele>2340.6000976562</ele>
        <time>2023-07-21T07:08:09.000Z</time>
      </trkpt>
      <trkpt lat="42.61521" lon="1.65157">
        <ele>2341.6000976562</ele>
        <time>2023-07-21T07:08:04.000Z</time>
      </trkpt>
      <trkpt lat="42.61522" lon="1.65164">
        <ele>2342.8000488281</ele>
        <time>2023-07-21T07:07:58.000Z</time>
      </trkpt>
      <trkpt lat="42.61522" lon="1.65165">
        <ele>2343.1999511719</ele>
        <time>2023-07-21T07:07:55.000Z</time>
      </trkpt>
      <trkpt lat="42.61523" lon="1.65166">
        <ele>2343.8000488281</ele>
        <time>2023-07-21T07:07:51.000Z</time>
      </trkpt>
      <trkpt lat="42.61525" lon="1.65168">
        <ele>2344.6000976562</ele>
        <time>2023-07-21T07:07:47.000Z</time>
      </trkpt>
      <trkpt lat="42.61526" lon="1.65168">
        <ele>2345</ele>
        <time>2023-07-21T07:07:45.000Z</time>
      </trkpt>
      <trkpt lat="42.61529" lon="1.65168">
        <ele>2345.8000488281</ele>
        <time>2023-07-21T07:07:38.000Z</time>
      </trkpt>
      <trkpt lat="42.6153" lon="1.65169">
        <ele>2346</ele>
        <time>2023-07-21T07:07:36.000Z</time>
      </trkpt>
      <trkpt lat="42.61531" lon="1.65172">
        <ele>2346.8000488281</ele>
        <time>2023-07-21T07:07:32.000Z</time>
      </trkpt>
      <trkpt lat="42.6153" lon="1.65173">
        <ele>2347</ele>
        <time>2023-07-21T07:07:31.000Z</time>
      </trkpt>
      <trkpt lat="42.61529" lon="1.65179">
        <ele>2348</ele>
        <time>2023-07-21T07:07:25.000Z</time>
      </trkpt>
      <trkpt lat="42.61529" lon="1.6518">
        <ele>2348.1999511719</ele>
        <time>2023-07-21T07:07:24.000Z</time>
      </trkpt>
      <trkpt lat="42.61527" lon="1.65182">
        <ele>2349.1999511719</ele>
        <time>2023-07-21T07:07:20.000Z</time>
      </trkpt>
      <trkpt lat="42.61526" lon="1.65185">
        <ele>2350</ele>
        <time>2023-07-21T07:07:16.000Z</time>
      </trkpt>
      <trkpt lat="42.61526" lon="1.65185">
        <ele>2350.3999023438</ele>
        <time>2023-07-21T07:07:15.000Z</time>
      </trkpt>
      <trkpt lat="42.61525" lon="1.65188">
        <ele>2351.3999023438</ele>
        <time>2023-07-21T07:07:09.000Z</time>
      </trkpt>
      <trkpt lat="42.61523" lon="1.65189">
        <ele>2352.6000976562</ele>
        <time>2023-07-21T07:07:02.000Z</time>
      </trkpt>
      <trkpt lat="42.61522" lon="1.6519">
        <ele>2353</ele>
        <time>2023-07-21T07:06:59.000Z</time>
      </trkpt>
      <trkpt lat="42.61521" lon="1.65194">
        <ele>2353.1999511719</ele>
        <time>2023-07-21T07:06:51.000Z</time>
      </trkpt>
      <trkpt lat="42.61521" lon="1.65194">
        <ele>2353.8000488281</ele>
        <time>2023-07-21T07:06:48.000Z</time>
      </trkpt>
      <trkpt lat="42.61521" lon="1.65194">
        <ele>2354.8000488281</ele>
        <time>2023-07-21T07:06:44.000Z</time>
      </trkpt>
      <trkpt lat="42.61521" lon="1.65195">
        <ele>2355</ele>
        <time>2023-07-21T07:06:43.000Z</time>
      </trkpt>
      <trkpt lat="42.61523" lon="1.65197">
        <ele>2356</ele>
        <time>2023-07-21T07:06:37.000Z</time>
      </trkpt>
      <trkpt lat="42.61523" lon="1.65198">
        <ele>2356.1999511719</ele>
        <time>2023-07-21T07:06:36.000Z</time>
      </trkpt>
      <trkpt lat="42.61524" lon="1.65197">
        <ele>2357.1999511719</ele>
        <time>2023-07-21T07:06:31.000Z</time>
      </trkpt>
      <trkpt lat="42.61525" lon="1.65197">
        <ele>2357.3999023438</ele>
        <time>2023-07-21T07:06:30.000Z</time>
      </trkpt>
      <trkpt lat="42.61528" lon="1.65197">
        <ele>2358.3999023438</ele>
        <time>2023-07-21T07:06:24.000Z</time>
      </trkpt>
      <trkpt lat="42.61529" lon="1.65203">
        <ele>2359.3999023438</ele>
        <time>2023-07-21T07:06:19.000Z</time>
      </trkpt>
      <trkpt lat="42.6153" lon="1.65204">
        <ele>2360</ele>
        <time>2023-07-21T07:06:15.000Z</time>
      </trkpt>
      <trkpt lat="42.6153" lon="1.65209">
        <ele>2360.6000976562</ele>
        <time>2023-07-21T07:06:11.000Z</time>
      </trkpt>
      <trkpt lat="42.6153" lon="1.65211">
        <ele>2361.3999023438</ele>
        <time>2023-07-21T07:06:07.000Z</time>
      </trkpt>
      <trkpt lat="42.6153" lon="1.65213">
        <ele>2361.6000976562</ele>
        <time>2023-07-21T07:06:05.000Z</time>
      </trkpt>
      <trkpt lat="42.6153" lon="1.65215">
        <ele>2362.8000488281</ele>
        <time>2023-07-21T07:06:00.000Z</time>
      </trkpt>
      <trkpt lat="42.61531" lon="1.65217">
        <ele>2363.6000976562</ele>
        <time>2023-07-21T07:05:55.000Z</time>
      </trkpt>
      <trkpt lat="42.61531" lon="1.65218">
        <ele>2363.8000488281</ele>
        <time>2023-07-21T07:05:53.000Z</time>
      </trkpt>
      <trkpt lat="42.6153" lon="1.65222">
        <ele>2364.6000976562</ele>
        <time>2023-07-21T07:05:48.000Z</time>
      </trkpt>
      <trkpt lat="42.6153" lon="1.65224">
        <ele>2364.8000488281</ele>
        <time>2023-07-21T07:05:46.000Z</time>
      </trkpt>
      <trkpt lat="42.61528" lon="1.65226">
        <ele>2365.3999023438</ele>
        <time>2023-07-21T07:05:42.000Z</time>
      </trkpt>
      <trkpt lat="42.61524" lon="1.65228">
        <ele>2366</ele>
        <time>2023-07-21T07:05:37.000Z</time>
      </trkpt>
      <trkpt lat="42.61524" lon="1.65228">
        <ele>2366.3999023438</ele>
        <time>2023-07-21T07:05:35.000Z</time>
      </trkpt>
      <trkpt lat="42.61522" lon="1.65229">
        <ele>2367</ele>
        <time>2023-07-21T07:05:30.000Z</time>
      </trkpt>
      <trkpt lat="42.61521" lon="1.65229">
        <ele>2368</ele>
        <time>2023-07-21T07:05:25.000Z</time>
      </trkpt>
      <trkpt lat="42.6152" lon="1.65228">
        <ele>2368.1999511719</ele>
        <time>2023-07-21T07:05:24.000Z</time>
      </trkpt>
      <trkpt lat="42.61518" lon="1.65229">
        <ele>2369.1999511719</ele>
        <time>2023-07-21T07:05:18.000Z</time>
      </trkpt>
      <trkpt lat="42.61518" lon="1.65229">
        <ele>2369.3999023438</ele>
        <time>2023-07-21T07:05:17.000Z</time>
      </trkpt>
      <trkpt lat="42.61516" lon="1.65234">
        <ele>2370.1999511719</ele>
        <time>2023-07-21T07:05:11.000Z</time>
      </trkpt>
      <trkpt lat="42.61516" lon="1.65233">
        <ele>2370.6000976562</ele>
        <time>2023-07-21T07:05:10.000Z</time>
      </trkpt>
      <trkpt lat="42.61516" lon="1.65233">
        <ele>2371.1999511719</ele>
        <time>2023-07-21T07:05:06.000Z</time>
      </trkpt>
      <trkpt lat="42.61518" lon="1.65235">
        <ele>2372.3999023438</ele>
        <time>2023-07-21T07:05:01.000Z</time>
      </trkpt>
      <trkpt lat="42.61522" lon="1.65241">
        <ele>2373.3999023438</ele>
        <time>2023-07-21T07:04:54.000Z</time>
      </trkpt>
      <trkpt lat="42.61522" lon="1.65242">
        <ele>2373.6000976562</ele>
        <time>2023-07-21T07:04:52.000Z</time>
      </trkpt>
      <trkpt lat="42.6152" lon="1.65246">
        <ele>2374.3999023438</ele>
        <time>2023-07-21T07:04:48.000Z</time>
      </trkpt>
      <trkpt lat="42.61519" lon="1.65247">
        <ele>2375.1999511719</ele>
        <time>2023-07-21T07:04:43.000Z</time>
      </trkpt>
      <trkpt lat="42.61518" lon="1.65248">
        <ele>2375.6000976562</ele>
        <time>2023-07-21T07:04:39.000Z</time>
      </trkpt>
      <trkpt lat="42.61517" lon="1.65249">
        <ele>2376.8000488281</ele>
        <time>2023-07-21T07:04:35.000Z</time>
      </trkpt>
      <trkpt lat="42.61517" lon="1.65252">
        <ele>2377.8000488281</ele>
        <time>2023-07-21T07:04:30.000Z</time>
      </trkpt>
      <trkpt lat="42.61518" lon="1.65255">
        <ele>2378.1999511719</ele>
        <time>2023-07-21T07:04:27.000Z</time>
      </trkpt>
      <trkpt lat="42.61518" lon="1.65257">
        <ele>2379</ele>
        <time>2023-07-21T07:04:24.000Z</time>
      </trkpt>
      <trkpt lat="42.61519" lon="1.65258">
        <ele>2379.8000488281</ele>
        <time>2023-07-21T07:04:19.000Z</time>
      </trkpt>
      <trkpt lat="42.6152" lon="1.65259">
        <ele>2380.1999511719</ele>
        <time>2023-07-21T07:04:17.000Z</time>
      </trkpt>
      <trkpt lat="42.61522" lon="1.65262">
        <ele>2381</ele>
        <time>2023-07-21T07:04:11.000Z</time>
      </trkpt>
      <trkpt lat="42.61523" lon="1.65262">
        <ele>2381.3999023438</ele>
        <time>2023-07-21T07:04:09.000Z</time>
      </trkpt>
      <trkpt lat="42.61523" lon="1.65267">
        <ele>2382.3999023438</ele>
        <time>2023-07-21T07:04:05.000Z</time>
      </trkpt>
      <trkpt lat="42.61523" lon="1.65271">
        <ele>2383</ele>
        <time>2023-07-21T07:04:02.000Z</time>
      </trkpt>
      <trkpt lat="42.61523" lon="1.65273">
        <ele>2383.6000976562</ele>
        <time>2023-07-21T07:04:00.000Z</time>
      </trkpt>
      <trkpt lat="42.61522" lon="1.65275">
        <ele>2384.6000976562</ele>
        <time>2023-07-21T07:03:54.000Z</time>
      </trkpt>
      <trkpt lat="42.61521" lon="1.65277">
        <ele>2385.8000488281</ele>
        <time>2023-07-21T07:03:48.000Z</time>
      </trkpt>
      <trkpt lat="42.61521" lon="1.65278">
        <ele>2386</ele>
        <time>2023-07-21T07:03:47.000Z</time>
      </trkpt>
      <trkpt lat="42.6152" lon="1.65278">
        <ele>2386.8000488281</ele>
        <time>2023-07-21T07:03:43.000Z</time>
      </trkpt>
      <trkpt lat="42.61521" lon="1.65281">
        <ele>2387.8000488281</ele>
        <time>2023-07-21T07:03:39.000Z</time>
      </trkpt>
      <trkpt lat="42.61521" lon="1.65282">
        <ele>2387.8000488281</ele>
        <time>2023-07-21T07:03:38.000Z</time>
      </trkpt>
      <trkpt lat="42.61521" lon="1.65287">
        <ele>2388.8000488281</ele>
        <time>2023-07-21T07:03:33.000Z</time>
      </trkpt>
      <trkpt lat="42.6152" lon="1.65288">
        <ele>2389.3999023438</ele>
        <time>2023-07-21T07:03:31.000Z</time>
      </trkpt>
      <trkpt lat="42.61523" lon="1.6529">
        <ele>2390.1999511719</ele>
        <time>2023-07-21T07:03:24.000Z</time>
      </trkpt>
      <trkpt lat="42.61523" lon="1.65291">
        <ele>2390.3999023438</ele>
        <time>2023-07-21T07:03:23.000Z</time>
      </trkpt>
      <trkpt lat="42.61523" lon="1.65293">
        <ele>2391.1999511719</ele>
        <time>2023-07-21T07:03:18.000Z</time>
      </trkpt>
      <trkpt lat="42.61522" lon="1.65293">
        <ele>2392.3999023438</ele>
        <time>2023-07-21T07:03:14.000Z</time>
      </trkpt>
      <trkpt lat="42.61521" lon="1.65297">
        <ele>2393.3999023438</ele>
        <time>2023-07-21T07:03:09.000Z</time>
      </trkpt>
      <trkpt lat="42.61522" lon="1.65297">
        <ele>2393.8000488281</ele>
        <time>2023-07-21T07:03:07.000Z</time>
      </trkpt>
      <trkpt lat="42.61524" lon="1.65297">
        <ele>2394.3999023438</ele>
        <time>2023-07-21T07:03:00.000Z</time>
      </trkpt>
      <trkpt lat="42.61525" lon="1.65298">
        <ele>2394.8000488281</ele>
        <time>2023-07-21T07:02:59.000Z</time>
      </trkpt>
      <trkpt lat="42.61525" lon="1.653">
        <ele>2395.6000976562</ele>
        <time>2023-07-21T07:02:57.000Z</time>
      </trkpt>
      <trkpt lat="42.61525" lon="1.65303">
        <ele>2396.3999023438</ele>
        <time>2023-07-21T07:02:53.000Z</time>
      </trkpt>
      <trkpt lat="42.61525" lon="1.65304">
        <ele>2396.6000976562</ele>
        <time>2023-07-21T07:02:51.000Z</time>
      </trkpt>
      <trkpt lat="42.61525" lon="1.65306">
        <ele>2397.8000488281</ele>
        <time>2023-07-21T07:02:47.000Z</time>
      </trkpt>
      <trkpt lat="42.61525" lon="1.65307">
        <ele>2397.8000488281</ele>
        <time>2023-07-21T07:02:46.000Z</time>
      </trkpt>
      <trkpt lat="42.61526" lon="1.65309">
        <ele>2398.8000488281</ele>
        <time>2023-07-21T07:02:42.000Z</time>
      </trkpt>
      <trkpt lat="42.61525" lon="1.65312">
        <ele>2400</ele>
        <time>2023-07-21T07:02:39.000Z</time>
      </trkpt>
      <trkpt lat="42.61525" lon="1.65314">
        <ele>2400</ele>
        <time>2023-07-21T07:02:38.000Z</time>
      </trkpt>
      <trkpt lat="42.61525" lon="1.65323">
        <ele>2400.6000976562</ele>
        <time>2023-07-21T07:02:31.000Z</time>
      </trkpt>
      <trkpt lat="42.61526" lon="1.65331">
        <ele>2401</ele>
        <time>2023-07-21T07:02:24.000Z</time>
      </trkpt>
      <trkpt lat="42.61526" lon="1.65333">
        <ele>2401</ele>
        <time>2023-07-21T07:02:23.000Z</time>
      </trkpt>
      <trkpt lat="42.61529" lon="1.65347">
        <ele>2402</ele>
        <time>2023-07-21T07:02:14.000Z</time>
      </trkpt>
      <trkpt lat="42.61528" lon="1.65349">
        <ele>2402.1999511719</ele>
        <time>2023-07-21T07:02:13.000Z</time>
      </trkpt>
      <trkpt lat="42.61527" lon="1.65361">
        <ele>2402.6000976562</ele>
        <time>2023-07-21T07:02:05.000Z</time>
      </trkpt>
      <trkpt lat="42.61526" lon="1.65364">
        <ele>2403</ele>
        <time>2023-07-21T07:02:02.000Z</time>
      </trkpt>
      <trkpt lat="42.61525" lon="1.6537">
        <ele>2404</ele>
        <time>2023-07-21T07:01:58.000Z</time>
      </trkpt>
      <trkpt lat="42.61525" lon="1.65371">
        <ele>2404.1999511719</ele>
        <time>2023-07-21T07:01:57.000Z</time>
      </trkpt>
      <trkpt lat="42.61525" lon="1.65378">
        <ele>2405.3999023438</ele>
        <time>2023-07-21T07:01:51.000Z</time>
      </trkpt>
      <trkpt lat="42.61525" lon="1.65379">
        <ele>2405.6000976562</ele>
        <time>2023-07-21T07:01:50.000Z</time>
      </trkpt>
      <trkpt lat="42.61524" lon="1.65387">
        <ele>2406.8000488281</ele>
        <time>2023-07-21T07:01:43.000Z</time>
      </trkpt>
      <trkpt lat="42.61522" lon="1.65395">
        <ele>2406.8000488281</ele>
        <time>2023-07-21T07:01:36.000Z</time>
      </trkpt>
      <trkpt lat="42.61521" lon="1.6541">
        <ele>2406.6000976562</ele>
        <time>2023-07-21T07:01:27.000Z</time>
      </trkpt>
      <trkpt lat="42.61522" lon="1.65419">
        <ele>2407</ele>
        <time>2023-07-21T07:01:19.000Z</time>
      </trkpt>
      <trkpt lat="42.61526" lon="1.65426">
        <ele>2406.6000976562</ele>
        <time>2023-07-21T07:01:11.000Z</time>
      </trkpt>
      <trkpt lat="42.61528" lon="1.65429">
        <ele>2406.3999023438</ele>
        <time>2023-07-21T07:01:07.000Z</time>
      </trkpt>
      <trkpt lat="42.6153" lon="1.65433">
        <ele>2406.1999511719</ele>
        <time>2023-07-21T07:01:04.000Z</time>
      </trkpt>
      <trkpt lat="42.61537" lon="1.6544">
        <ele>2405.3999023438</ele>
        <time>2023-07-21T07:00:55.000Z</time>
      </trkpt>
      <trkpt lat="42.6154" lon="1.65444">
        <ele>2404.1999511719</ele>
        <time>2023-07-21T07:00:50.000Z</time>
      </trkpt>
      <trkpt lat="42.61542" lon="1.65448">
        <ele>2403.3999023438</ele>
        <time>2023-07-21T07:00:46.000Z</time>
      </trkpt>
      <trkpt lat="42.61546" lon="1.65455">
        <ele>2403.3999023438</ele>
        <time>2023-07-21T07:00:39.000Z</time>
      </trkpt>
      <trkpt lat="42.61543" lon="1.6546">
        <ele>2403.1999511719</ele>
        <time>2023-07-21T07:00:31.000Z</time>
      </trkpt>
      <trkpt lat="42.61543" lon="1.6546">
        <ele>2403.3999023438</ele>
        <time>2023-07-21T07:00:26.000Z</time>
      </trkpt>
      <trkpt lat="42.61543" lon="1.65463">
        <ele>2403.1999511719</ele>
        <time>2023-07-21T07:00:23.000Z</time>
      </trkpt>
      <trkpt lat="42.61543" lon="1.6546">
        <ele>2403</ele>
        <time>2023-07-21T07:00:16.000Z</time>
      </trkpt>
      <trkpt lat="42.61541" lon="1.6546">
        <ele>2402</ele>
        <time>2023-07-21T07:00:08.000Z</time>
      </trkpt>
      <trkpt lat="42.61538" lon="1.65459">
        <ele>2402.1999511719</ele>
        <time>2023-07-21T06:59:58.000Z</time>
      </trkpt>
      <trkpt lat="42.61538" lon="1.65459">
        <ele>2402.1999511719</ele>
        <time>2023-07-21T06:59:56.000Z</time>
      </trkpt>
      <trkpt lat="42.6154" lon="1.65463">
        <ele>2402.8000488281</ele>
        <time>2023-07-21T06:59:49.000Z</time>
      </trkpt>
      <trkpt lat="42.61542" lon="1.65465">
        <ele>2402.8000488281</ele>
        <time>2023-07-21T06:59:40.000Z</time>
      </trkpt>
      <trkpt lat="42.61545" lon="1.65465">
        <ele>2403</ele>
        <time>2023-07-21T06:59:33.000Z</time>
      </trkpt>
      <trkpt lat="42.61544" lon="1.65464">
        <ele>2403</ele>
        <time>2023-07-21T06:59:25.000Z</time>
      </trkpt>
      <trkpt lat="42.61542" lon="1.6546">
        <ele>2403.1999511719</ele>
        <time>2023-07-21T06:59:16.000Z</time>
      </trkpt>
      <trkpt lat="42.61542" lon="1.65462">
        <ele>2403.1999511719</ele>
        <time>2023-07-21T06:59:13.000Z</time>
      </trkpt>
      <trkpt lat="42.61543" lon="1.65463">
        <ele>2403.6000976562</ele>
        <time>2023-07-21T06:59:09.000Z</time>
      </trkpt>
      <trkpt lat="42.61544" lon="1.65468">
        <ele>2404.1999511719</ele>
        <time>2023-07-21T06:59:05.000Z</time>
      </trkpt>
      <trkpt lat="42.61546" lon="1.65474">
        <ele>2405.3999023438</ele>
        <time>2023-07-21T06:59:00.000Z</time>
      </trkpt>
      <trkpt lat="42.61547" lon="1.65479">
        <ele>2406.3999023438</ele>
        <time>2023-07-21T06:58:54.000Z</time>
      </trkpt>
      <trkpt lat="42.61549" lon="1.65487">
        <ele>2407.6000976562</ele>
        <time>2023-07-21T06:58:45.000Z</time>
      </trkpt>
      <trkpt lat="42.61549" lon="1.6549">
        <ele>2407.8000488281</ele>
        <time>2023-07-21T06:58:43.000Z</time>
      </trkpt>
      <trkpt lat="42.61551" lon="1.655">
        <ele>2408</ele>
        <time>2023-07-21T06:58:36.000Z</time>
      </trkpt>
      <trkpt lat="42.61554" lon="1.65511">
        <ele>2408</ele>
        <time>2023-07-21T06:58:27.000Z</time>
      </trkpt>
      <trkpt lat="42.61551" lon="1.65524">
        <ele>2408.1999511719</ele>
        <time>2023-07-21T06:58:19.000Z</time>
      </trkpt>
      <trkpt lat="42.61549" lon="1.65533">
        <ele>2408.6000976562</ele>
        <time>2023-07-21T06:58:14.000Z</time>
      </trkpt>
      <trkpt lat="42.61548" lon="1.6554">
        <ele>2409.1999511719</ele>
        <time>2023-07-21T06:58:10.000Z</time>
      </trkpt>
      <trkpt lat="42.61546" lon="1.65548">
        <ele>2409.1999511719</ele>
        <time>2023-07-21T06:58:03.000Z</time>
      </trkpt>
      <trkpt lat="42.61547" lon="1.65549">
        <ele>2409.1999511719</ele>
        <time>2023-07-21T06:57:59.000Z</time>
      </trkpt>
      <trkpt lat="42.61548" lon="1.65548">
        <ele>2409.3999023438</ele>
        <time>2023-07-21T06:57:57.000Z</time>
      </trkpt>
      <trkpt lat="42.61548" lon="1.65549">
        <ele>2410</ele>
        <time>2023-07-21T06:57:55.000Z</time>
      </trkpt>
      <trkpt lat="42.61549" lon="1.65554">
        <ele>2411</ele>
        <time>2023-07-21T06:57:50.000Z</time>
      </trkpt>
      <trkpt lat="42.61549" lon="1.65555">
        <ele>2411.1999511719</ele>
        <time>2023-07-21T06:57:49.000Z</time>
      </trkpt>
      <trkpt lat="42.61548" lon="1.65561">
        <ele>2411.8000488281</ele>
        <time>2023-07-21T06:57:42.000Z</time>
      </trkpt>
      <trkpt lat="42.6155" lon="1.65569">
        <ele>2411.8000488281</ele>
        <time>2023-07-21T06:57:34.000Z</time>
      </trkpt>
      <trkpt lat="42.61549" lon="1.65573">
        <ele>2412.1999511719</ele>
        <time>2023-07-21T06:57:29.000Z</time>
      </trkpt>
      <trkpt lat="42.61548" lon="1.65578">
        <ele>2412.6000976562</ele>
        <time>2023-07-21T06:57:26.000Z</time>
      </trkpt>
      <trkpt lat="42.61548" lon="1.65581">
        <ele>2413.1999511719</ele>
        <time>2023-07-21T06:57:24.000Z</time>
      </trkpt>
      <trkpt lat="42.61548" lon="1.65587">
        <ele>2414.1999511719</ele>
        <time>2023-07-21T06:57:19.000Z</time>
      </trkpt>
      <trkpt lat="42.61548" lon="1.65589">
        <ele>2414.3999023438</ele>
        <time>2023-07-21T06:57:17.000Z</time>
      </trkpt>
      <trkpt lat="42.6155" lon="1.65594">
        <ele>2415.6000976562</ele>
        <time>2023-07-21T06:57:11.000Z</time>
      </trkpt>
      <trkpt lat="42.6155" lon="1.65596">
        <ele>2416</ele>
        <time>2023-07-21T06:57:10.000Z</time>
      </trkpt>
      <trkpt lat="42.6155" lon="1.65601">
        <ele>2416.8000488281</ele>
        <time>2023-07-21T06:57:05.000Z</time>
      </trkpt>
      <trkpt lat="42.61548" lon="1.65602">
        <ele>2417.6000976562</ele>
        <time>2023-07-21T06:57:01.000Z</time>
      </trkpt>
      <trkpt lat="42.61548" lon="1.65602">
        <ele>2417.8000488281</ele>
        <time>2023-07-21T06:56:59.000Z</time>
      </trkpt>
      <trkpt lat="42.6155" lon="1.65603">
        <ele>2419</ele>
        <time>2023-07-21T06:56:53.000Z</time>
      </trkpt>
      <trkpt lat="42.61551" lon="1.65608">
        <ele>2420</ele>
        <time>2023-07-21T06:56:46.000Z</time>
      </trkpt>
      <trkpt lat="42.61552" lon="1.65612">
        <ele>2421</ele>
        <time>2023-07-21T06:56:40.000Z</time>
      </trkpt>
      <trkpt lat="42.61552" lon="1.65612">
        <ele>2421.6000976562</ele>
        <time>2023-07-21T06:56:39.000Z</time>
      </trkpt>
      <trkpt lat="42.61554" lon="1.65615">
        <ele>2422.3999023438</ele>
        <time>2023-07-21T06:56:33.000Z</time>
      </trkpt>
      <trkpt lat="42.61554" lon="1.65616">
        <ele>2422.8000488281</ele>
        <time>2023-07-21T06:56:32.000Z</time>
      </trkpt>
      <trkpt lat="42.61555" lon="1.65618">
        <ele>2423.6000976562</ele>
        <time>2023-07-21T06:56:26.000Z</time>
      </trkpt>
      <trkpt lat="42.61555" lon="1.65623">
        <ele>2424.6000976562</ele>
        <time>2023-07-21T06:56:20.000Z</time>
      </trkpt>
      <trkpt lat="42.61556" lon="1.65625">
        <ele>2425</ele>
        <time>2023-07-21T06:56:19.000Z</time>
      </trkpt>
      <trkpt lat="42.61556" lon="1.65628">
        <ele>2425.8000488281</ele>
        <time>2023-07-21T06:56:16.000Z</time>
      </trkpt>
      <trkpt lat="42.61557" lon="1.65633">
        <ele>2426.6000976562</ele>
        <time>2023-07-21T06:56:11.000Z</time>
      </trkpt>
      <trkpt lat="42.61557" lon="1.65634">
        <ele>2426.8000488281</ele>
        <time>2023-07-21T06:56:10.000Z</time>
      </trkpt>
      <trkpt lat="42.61558" lon="1.65637">
        <ele>2428</ele>
        <time>2023-07-21T06:56:04.000Z</time>
      </trkpt>
      <trkpt lat="42.61558" lon="1.65638">
        <ele>2428.6000976562</ele>
        <time>2023-07-21T06:56:02.000Z</time>
      </trkpt>
      <trkpt lat="42.61558" lon="1.65641">
        <ele>2429</ele>
        <time>2023-07-21T06:55:58.000Z</time>
      </trkpt>
      <trkpt lat="42.61559" lon="1.65642">
        <ele>2429.6000976562</ele>
        <time>2023-07-21T06:55:55.000Z</time>
      </trkpt>
      <trkpt lat="42.6156" lon="1.65643">
        <ele>2430</ele>
        <time>2023-07-21T06:55:52.000Z</time>
      </trkpt>
      <trkpt lat="42.61562" lon="1.65648">
        <ele>2431.1999511719</ele>
        <time>2023-07-21T06:55:46.000Z</time>
      </trkpt>
      <trkpt lat="42.61562" lon="1.65648">
        <ele>2431.3999023438</ele>
        <time>2023-07-21T06:55:45.000Z</time>
      </trkpt>
      <trkpt lat="42.61563" lon="1.6565">
        <ele>2432.1999511719</ele>
        <time>2023-07-21T06:55:40.000Z</time>
      </trkpt>
      <trkpt lat="42.61563" lon="1.65653">
        <ele>2432.8000488281</ele>
        <time>2023-07-21T06:55:36.000Z</time>
      </trkpt>
      <trkpt lat="42.61563" lon="1.65654">
        <ele>2433.3999023438</ele>
        <time>2023-07-21T06:55:33.000Z</time>
      </trkpt>
      <trkpt lat="42.61563" lon="1.65657">
        <ele>2434</ele>
        <time>2023-07-21T06:55:29.000Z</time>
      </trkpt>
      <trkpt lat="42.61563" lon="1.65659">
        <ele>2434.3999023438</ele>
        <time>2023-07-21T06:55:27.000Z</time>
      </trkpt>
      <trkpt lat="42.61564" lon="1.65662">
        <ele>2435.1999511719</ele>
        <time>2023-07-21T06:55:23.000Z</time>
      </trkpt>
      <trkpt lat="42.61564" lon="1.65663">
        <ele>2435.6000976562</ele>
        <time>2023-07-21T06:55:22.000Z</time>
      </trkpt>
      <trkpt lat="42.61564" lon="1.65664">
        <ele>2436.8000488281</ele>
        <time>2023-07-21T06:55:16.000Z</time>
      </trkpt>
      <trkpt lat="42.61565" lon="1.6567">
        <ele>2437.8000488281</ele>
        <time>2023-07-21T06:55:10.000Z</time>
      </trkpt>
      <trkpt lat="42.61565" lon="1.65672">
        <ele>2438.1999511719</ele>
        <time>2023-07-21T06:55:08.000Z</time>
      </trkpt>
      <trkpt lat="42.61567" lon="1.65674">
        <ele>2438.8000488281</ele>
        <time>2023-07-21T06:55:04.000Z</time>
      </trkpt>
      <trkpt lat="42.61567" lon="1.65674">
        <ele>2438.8000488281</ele>
        <time>2023-07-21T06:55:03.000Z</time>
      </trkpt>
      <trkpt lat="42.61568" lon="1.65675">
        <ele>2439.3999023438</ele>
        <time>2023-07-21T06:55:00.000Z</time>
      </trkpt>
      <trkpt lat="42.61567" lon="1.65677">
        <ele>2440</ele>
        <time>2023-07-21T06:54:57.000Z</time>
      </trkpt>
      <trkpt lat="42.61566" lon="1.65682">
        <ele>2440.6000976562</ele>
        <time>2023-07-21T06:54:53.000Z</time>
      </trkpt>
      <trkpt lat="42.61566" lon="1.65683">
        <ele>2441</ele>
        <time>2023-07-21T06:54:51.000Z</time>
      </trkpt>
      <trkpt lat="42.61565" lon="1.65687">
        <ele>2441.8000488281</ele>
        <time>2023-07-21T06:54:44.000Z</time>
      </trkpt>
      <trkpt lat="42.61564" lon="1.65691">
        <ele>2442.1999511719</ele>
        <time>2023-07-21T06:54:38.000Z</time>
      </trkpt>
      <trkpt lat="42.61564" lon="1.6569">
        <ele>2442.6000976562</ele>
        <time>2023-07-21T06:54:36.000Z</time>
      </trkpt>
      <trkpt lat="42.61566" lon="1.65692">
        <ele>2443.1999511719</ele>
        <time>2023-07-21T06:54:32.000Z</time>
      </trkpt>
      <trkpt lat="42.61568" lon="1.65695">
        <ele>2444.1999511719</ele>
        <time>2023-07-21T06:54:27.000Z</time>
      </trkpt>
      <trkpt lat="42.61569" lon="1.65696">
        <ele>2444.3999023438</ele>
        <time>2023-07-21T06:54:26.000Z</time>
      </trkpt>
      <trkpt lat="42.6157" lon="1.65699">
        <ele>2445.3999023438</ele>
        <time>2023-07-21T06:54:20.000Z</time>
      </trkpt>
      <trkpt lat="42.61571" lon="1.65701">
        <ele>2445.8000488281</ele>
        <time>2023-07-21T06:54:18.000Z</time>
      </trkpt>
      <trkpt lat="42.61572" lon="1.65702">
        <ele>2446.6000976562</ele>
        <time>2023-07-21T06:54:14.000Z</time>
      </trkpt>
      <trkpt lat="42.61573" lon="1.65703">
        <ele>2447</ele>
        <time>2023-07-21T06:54:11.000Z</time>
      </trkpt>
      <trkpt lat="42.61573" lon="1.65711">
        <ele>2446.8000488281</ele>
        <time>2023-07-21T06:54:03.000Z</time>
      </trkpt>
      <trkpt lat="42.61569" lon="1.65723">
        <ele>2447.3999023438</ele>
        <time>2023-07-21T06:53:54.000Z</time>
      </trkpt>
      <trkpt lat="42.61569" lon="1.65725">
        <ele>2447.6000976562</ele>
        <time>2023-07-21T06:53:52.000Z</time>
      </trkpt>
      <trkpt lat="42.61568" lon="1.65727">
        <ele>2448.1999511719</ele>
        <time>2023-07-21T06:53:48.000Z</time>
      </trkpt>
      <trkpt lat="42.61567" lon="1.6573">
        <ele>2448.6000976562</ele>
        <time>2023-07-21T06:53:45.000Z</time>
      </trkpt>
      <trkpt lat="42.61566" lon="1.65737">
        <ele>2449.3999023438</ele>
        <time>2023-07-21T06:53:39.000Z</time>
      </trkpt>
      <trkpt lat="42.61563" lon="1.65741">
        <ele>2449.8000488281</ele>
        <time>2023-07-21T06:53:36.000Z</time>
      </trkpt>
      <trkpt lat="42.6156" lon="1.65741">
        <ele>2450.1999511719</ele>
        <time>2023-07-21T06:53:33.000Z</time>
      </trkpt>
      <trkpt lat="42.61558" lon="1.65742">
        <ele>2450.8000488281</ele>
        <time>2023-07-21T06:53:30.000Z</time>
      </trkpt>
      <trkpt lat="42.61557" lon="1.65745">
        <ele>2451.8000488281</ele>
        <time>2023-07-21T06:53:27.000Z</time>
      </trkpt>
      <trkpt lat="42.61556" lon="1.65746">
        <ele>2452.3999023438</ele>
        <time>2023-07-21T06:53:25.000Z</time>
      </trkpt>
      <trkpt lat="42.61556" lon="1.65747">
        <ele>2452.8000488281</ele>
        <time>2023-07-21T06:53:24.000Z</time>
      </trkpt>
      <trkpt lat="42.61554" lon="1.65751">
        <ele>2454.1999511719</ele>
        <time>2023-07-21T06:53:19.000Z</time>
      </trkpt>
      <trkpt lat="42.61553" lon="1.65753">
        <ele>2455</ele>
        <time>2023-07-21T06:53:16.000Z</time>
      </trkpt>
      <trkpt lat="42.61553" lon="1.65754">
        <ele>2455.1999511719</ele>
        <time>2023-07-21T06:53:15.000Z</time>
      </trkpt>
      <trkpt lat="42.6155" lon="1.65758">
        <ele>2456.1999511719</ele>
        <time>2023-07-21T06:53:10.000Z</time>
      </trkpt>
      <trkpt lat="42.6155" lon="1.65759">
        <ele>2456.6000976562</ele>
        <time>2023-07-21T06:53:09.000Z</time>
      </trkpt>
      <trkpt lat="42.61549" lon="1.65762">
        <ele>2457.3999023438</ele>
        <time>2023-07-21T06:53:04.000Z</time>
      </trkpt>
      <trkpt lat="42.61549" lon="1.65764">
        <ele>2458</ele>
        <time>2023-07-21T06:53:01.000Z</time>
      </trkpt>
      <trkpt lat="42.6155" lon="1.65765">
        <ele>2458.3999023438</ele>
        <time>2023-07-21T06:52:59.000Z</time>
      </trkpt>
      <trkpt lat="42.61552" lon="1.65769">
        <ele>2459.3999023438</ele>
        <time>2023-07-21T06:52:55.000Z</time>
      </trkpt>
      <trkpt lat="42.61551" lon="1.6577">
        <ele>2459.6000976562</ele>
        <time>2023-07-21T06:52:54.000Z</time>
      </trkpt>
      <trkpt lat="42.61548" lon="1.65771">
        <ele>2460.6000976562</ele>
        <time>2023-07-21T06:52:49.000Z</time>
      </trkpt>
      <trkpt lat="42.61546" lon="1.6577">
        <ele>2461</ele>
        <time>2023-07-21T06:52:46.000Z</time>
      </trkpt>
      <trkpt lat="42.61545" lon="1.6577">
        <ele>2461.8000488281</ele>
        <time>2023-07-21T06:52:44.000Z</time>
      </trkpt>
      <trkpt lat="42.61541" lon="1.65774">
        <ele>2462.8000488281</ele>
        <time>2023-07-21T06:52:38.000Z</time>
      </trkpt>
      <trkpt lat="42.61541" lon="1.65775">
        <ele>2463</ele>
        <time>2023-07-21T06:52:37.000Z</time>
      </trkpt>
      <trkpt lat="42.61541" lon="1.65777">
        <ele>2463.8000488281</ele>
        <time>2023-07-21T06:52:34.000Z</time>
      </trkpt>
      <trkpt lat="42.61539" lon="1.65783">
        <ele>2464</ele>
        <time>2023-07-21T06:52:30.000Z</time>
      </trkpt>
      <trkpt lat="42.6154" lon="1.65785">
        <ele>2464.1999511719</ele>
        <time>2023-07-21T06:52:24.000Z</time>
      </trkpt>
      <trkpt lat="42.61539" lon="1.65785">
        <ele>2465</ele>
        <time>2023-07-21T06:52:21.000Z</time>
      </trkpt>
      <trkpt lat="42.61535" lon="1.65785">
        <ele>2466</ele>
        <time>2023-07-21T06:52:16.000Z</time>
      </trkpt>
      <trkpt lat="42.61532" lon="1.65787">
        <ele>2467</ele>
        <time>2023-07-21T06:52:12.000Z</time>
      </trkpt>
      <trkpt lat="42.61528" lon="1.65789">
        <ele>2468</ele>
        <time>2023-07-21T06:52:07.000Z</time>
      </trkpt>
      <trkpt lat="42.61527" lon="1.65789">
        <ele>2468</ele>
        <time>2023-07-21T06:52:04.000Z</time>
      </trkpt>
      <trkpt lat="42.61526" lon="1.65791">
        <ele>2468.3999023438</ele>
        <time>2023-07-21T06:51:59.000Z</time>
      </trkpt>
      <trkpt lat="42.61525" lon="1.65793">
        <ele>2469</ele>
        <time>2023-07-21T06:51:55.000Z</time>
      </trkpt>
      <trkpt lat="42.61524" lon="1.65796">
        <ele>2469.8000488281</ele>
        <time>2023-07-21T06:51:51.000Z</time>
      </trkpt>
      <trkpt lat="42.61522" lon="1.65797">
        <ele>2470.1999511719</ele>
        <time>2023-07-21T06:51:49.000Z</time>
      </trkpt>
      <trkpt lat="42.61517" lon="1.65803">
        <ele>2471.1999511719</ele>
        <time>2023-07-21T06:51:43.000Z</time>
      </trkpt>
      <trkpt lat="42.61518" lon="1.65808">
        <ele>2471</ele>
        <time>2023-07-21T06:51:34.000Z</time>
      </trkpt>
      <trkpt lat="42.61518" lon="1.65808">
        <ele>2471.3999023438</ele>
        <time>2023-07-21T06:51:25.000Z</time>
      </trkpt>
      <trkpt lat="42.61515" lon="1.65808">
        <ele>2471.3999023438</ele>
        <time>2023-07-21T06:51:16.000Z</time>
      </trkpt>
      <trkpt lat="42.61516" lon="1.65808">
        <ele>2471.1999511719</ele>
        <time>2023-07-21T06:51:06.000Z</time>
      </trkpt>
      <trkpt lat="42.61516" lon="1.65808">
        <ele>2471.3999023438</ele>
        <time>2023-07-21T06:51:05.000Z</time>
      </trkpt>
      <trkpt lat="42.61519" lon="1.65808">
        <ele>2471.3999023438</ele>
        <time>2023-07-21T06:50:57.000Z</time>
      </trkpt>
      <trkpt lat="42.61519" lon="1.65807">
        <ele>2471.6000976562</ele>
        <time>2023-07-21T06:50:47.000Z</time>
      </trkpt>
      <trkpt lat="42.61517" lon="1.65805">
        <ele>2472</ele>
        <time>2023-07-21T06:50:40.000Z</time>
      </trkpt>
      <trkpt lat="42.61515" lon="1.65812">
        <ele>2472.3999023438</ele>
        <time>2023-07-21T06:50:33.000Z</time>
      </trkpt>
      <trkpt lat="42.61515" lon="1.65813">
        <ele>2472.3999023438</ele>
        <time>2023-07-21T06:50:30.000Z</time>
      </trkpt>
      <trkpt lat="42.61513" lon="1.65819">
        <ele>2471.3999023438</ele>
        <time>2023-07-21T06:50:25.000Z</time>
      </trkpt>
      <trkpt lat="42.61512" lon="1.65822">
        <ele>2470.6000976562</ele>
        <time>2023-07-21T06:50:17.000Z</time>
      </trkpt>
      <trkpt lat="42.61509" lon="1.65827">
        <ele>2470.3999023438</ele>
        <time>2023-07-21T06:50:09.000Z</time>
      </trkpt>
      <trkpt lat="42.61506" lon="1.65833">
        <ele>2471</ele>
        <time>2023-07-21T06:50:03.000Z</time>
      </trkpt>
      <trkpt lat="42.61505" lon="1.65836">
        <ele>2471.1999511719</ele>
        <time>2023-07-21T06:50:01.000Z</time>
      </trkpt>
      <trkpt lat="42.61504" lon="1.6584">
        <ele>2471.8000488281</ele>
        <time>2023-07-21T06:49:56.000Z</time>
      </trkpt>
      <trkpt lat="42.61502" lon="1.65844">
        <ele>2472.1999511719</ele>
        <time>2023-07-21T06:49:46.000Z</time>
      </trkpt>
      <trkpt lat="42.61502" lon="1.65843">
        <ele>2472.1999511719</ele>
        <time>2023-07-21T06:49:43.000Z</time>
      </trkpt>
      <trkpt lat="42.61501" lon="1.65845">
        <ele>2473</ele>
        <time>2023-07-21T06:49:39.000Z</time>
      </trkpt>
      <trkpt lat="42.61499" lon="1.65853">
        <ele>2473.3999023438</ele>
        <time>2023-07-21T06:49:31.000Z</time>
      </trkpt>
      <trkpt lat="42.61502" lon="1.65865">
        <ele>2473.1999511719</ele>
        <time>2023-07-21T06:49:24.000Z</time>
      </trkpt>
      <trkpt lat="42.61506" lon="1.6587">
        <ele>2473.3999023438</ele>
        <time>2023-07-21T06:49:18.000Z</time>
      </trkpt>
      <trkpt lat="42.61507" lon="1.65872">
        <ele>2473.6000976562</ele>
        <time>2023-07-21T06:49:16.000Z</time>
      </trkpt>
      <trkpt lat="42.6151" lon="1.65884">
        <ele>2473.8000488281</ele>
        <time>2023-07-21T06:49:08.000Z</time>
      </trkpt>
      <trkpt lat="42.61507" lon="1.65892">
        <ele>2474.3999023438</ele>
        <time>2023-07-21T06:49:02.000Z</time>
      </trkpt>
      <trkpt lat="42.61506" lon="1.65894">
        <ele>2474.3999023438</ele>
        <time>2023-07-21T06:49:01.000Z</time>
      </trkpt>
      <trkpt lat="42.61504" lon="1.65897">
        <ele>2475.6000976562</ele>
        <time>2023-07-21T06:48:54.000Z</time>
      </trkpt>
      <trkpt lat="42.61504" lon="1.65897">
        <ele>2475.8000488281</ele>
        <time>2023-07-21T06:48:53.000Z</time>
      </trkpt>
      <trkpt lat="42.61505" lon="1.65901">
        <ele>2476.8000488281</ele>
        <time>2023-07-21T06:48:48.000Z</time>
      </trkpt>
      <trkpt lat="42.61506" lon="1.65904">
        <ele>2477.1999511719</ele>
        <time>2023-07-21T06:48:45.000Z</time>
      </trkpt>
      <trkpt lat="42.61505" lon="1.65908">
        <ele>2478</ele>
        <time>2023-07-21T06:48:41.000Z</time>
      </trkpt>
      <trkpt lat="42.61504" lon="1.65913">
        <ele>2478.8000488281</ele>
        <time>2023-07-21T06:48:36.000Z</time>
      </trkpt>
      <trkpt lat="42.61504" lon="1.65914">
        <ele>2479</ele>
        <time>2023-07-21T06:48:35.000Z</time>
      </trkpt>
      <trkpt lat="42.61504" lon="1.65917">
        <ele>2479.8000488281</ele>
        <time>2023-07-21T06:48:28.000Z</time>
      </trkpt>
      <trkpt lat="42.61503" lon="1.6592">
        <ele>2480</ele>
        <time>2023-07-21T06:48:25.000Z</time>
      </trkpt>
      <trkpt lat="42.61502" lon="1.65921">
        <ele>2481</ele>
        <time>2023-07-21T06:48:19.000Z</time>
      </trkpt>
      <trkpt lat="42.61503" lon="1.65922">
        <ele>2481.1999511719</ele>
        <time>2023-07-21T06:48:18.000Z</time>
      </trkpt>
      <trkpt lat="42.61503" lon="1.65925">
        <ele>2482</ele>
        <time>2023-07-21T06:48:13.000Z</time>
      </trkpt>
      <trkpt lat="42.61503" lon="1.65926">
        <ele>2481.8000488281</ele>
        <time>2023-07-21T06:48:07.000Z</time>
      </trkpt>
      <trkpt lat="42.615" lon="1.65929">
        <ele>2482</ele>
        <time>2023-07-21T06:48:01.000Z</time>
      </trkpt>
      <trkpt lat="42.615" lon="1.6593">
        <ele>2482.3999023438</ele>
        <time>2023-07-21T06:47:58.000Z</time>
      </trkpt>
      <trkpt lat="42.61498" lon="1.65936">
        <ele>2483</ele>
        <time>2023-07-21T06:47:53.000Z</time>
      </trkpt>
      <trkpt lat="42.61498" lon="1.65937">
        <ele>2483.3999023438</ele>
        <time>2023-07-21T06:47:51.000Z</time>
      </trkpt>
      <trkpt lat="42.61497" lon="1.65941">
        <ele>2484.3999023438</ele>
        <time>2023-07-21T06:47:45.000Z</time>
      </trkpt>
      <trkpt lat="42.61496" lon="1.65943">
        <ele>2484.6000976562</ele>
        <time>2023-07-21T06:47:43.000Z</time>
      </trkpt>
      <trkpt lat="42.61495" lon="1.65946">
        <ele>2485.6000976562</ele>
        <time>2023-07-21T06:47:37.000Z</time>
      </trkpt>
      <trkpt lat="42.61496" lon="1.65946">
        <ele>2485.6000976562</ele>
        <time>2023-07-21T06:47:36.000Z</time>
      </trkpt>
      <trkpt lat="42.61495" lon="1.65946">
        <ele>2486.8000488281</ele>
        <time>2023-07-21T06:47:31.000Z</time>
      </trkpt>
      <trkpt lat="42.61495" lon="1.65947">
        <ele>2486.8000488281</ele>
        <time>2023-07-21T06:47:30.000Z</time>
      </trkpt>
      <trkpt lat="42.61495" lon="1.65949">
        <ele>2487.8000488281</ele>
        <time>2023-07-21T06:47:25.000Z</time>
      </trkpt>
      <trkpt lat="42.61495" lon="1.6595">
        <ele>2488.6000976562</ele>
        <time>2023-07-21T06:47:22.000Z</time>
      </trkpt>
      <trkpt lat="42.61494" lon="1.6595">
        <ele>2488.8000488281</ele>
        <time>2023-07-21T06:47:21.000Z</time>
      </trkpt>
      <trkpt lat="42.61491" lon="1.65953">
        <ele>2489.8000488281</ele>
        <time>2023-07-21T06:47:17.000Z</time>
      </trkpt>
      <trkpt lat="42.61488" lon="1.65956">
        <ele>2490.3999023438</ele>
        <time>2023-07-21T06:47:14.000Z</time>
      </trkpt>
      <trkpt lat="42.61486" lon="1.65957">
        <ele>2490.8000488281</ele>
        <time>2023-07-21T06:47:12.000Z</time>
      </trkpt>
      <trkpt lat="42.61486" lon="1.6596">
        <ele>2491.8000488281</ele>
        <time>2023-07-21T06:47:08.000Z</time>
      </trkpt>
      <trkpt lat="42.61486" lon="1.65961">
        <ele>2492.1999511719</ele>
        <time>2023-07-21T06:47:07.000Z</time>
      </trkpt>
      <trkpt lat="42.61485" lon="1.65963">
        <ele>2493</ele>
        <time>2023-07-21T06:47:03.000Z</time>
      </trkpt>
      <trkpt lat="42.61482" lon="1.65962">
        <ele>2493.6000976562</ele>
        <time>2023-07-21T06:47:00.000Z</time>
      </trkpt>
      <trkpt lat="42.61481" lon="1.65961">
        <ele>2494</ele>
        <time>2023-07-21T06:46:58.000Z</time>
      </trkpt>
      <trkpt lat="42.61479" lon="1.65961">
        <ele>2495.1999511719</ele>
        <time>2023-07-21T06:46:54.000Z</time>
      </trkpt>
      <trkpt lat="42.61478" lon="1.65961">
        <ele>2495.3999023438</ele>
        <time>2023-07-21T06:46:53.000Z</time>
      </trkpt>
      <trkpt lat="42.61476" lon="1.65959">
        <ele>2496.1999511719</ele>
        <time>2023-07-21T06:46:49.000Z</time>
      </trkpt>
      <trkpt lat="42.61473" lon="1.65959">
        <ele>2496.8000488281</ele>
        <time>2023-07-21T06:46:46.000Z</time>
      </trkpt>
      <trkpt lat="42.61472" lon="1.65959">
        <ele>2497.1999511719</ele>
        <time>2023-07-21T06:46:44.000Z</time>
      </trkpt>
      <trkpt lat="42.61471" lon="1.6596">
        <ele>2497.8000488281</ele>
        <time>2023-07-21T06:46:41.000Z</time>
      </trkpt>
      <trkpt lat="42.61471" lon="1.65961">
        <ele>2498.1999511719</ele>
        <time>2023-07-21T06:46:38.000Z</time>
      </trkpt>
      <trkpt lat="42.61471" lon="1.65964">
        <ele>2499.3999023438</ele>
        <time>2023-07-21T06:46:33.000Z</time>
      </trkpt>
      <trkpt lat="42.6147" lon="1.65967">
        <ele>2500.3999023438</ele>
        <time>2023-07-21T06:46:28.000Z</time>
      </trkpt>
      <trkpt lat="42.61469" lon="1.65971">
        <ele>2501.6000976562</ele>
        <time>2023-07-21T06:46:23.000Z</time>
      </trkpt>
      <trkpt lat="42.61467" lon="1.65973">
        <ele>2502.6000976562</ele>
        <time>2023-07-21T06:46:19.000Z</time>
      </trkpt>
      <trkpt lat="42.61467" lon="1.65973">
        <ele>2502.8000488281</ele>
        <time>2023-07-21T06:46:17.000Z</time>
      </trkpt>
      <trkpt lat="42.61463" lon="1.65972">
        <ele>2503.8000488281</ele>
        <time>2023-07-21T06:46:11.000Z</time>
      </trkpt>
      <trkpt lat="42.61459" lon="1.65974">
        <ele>2504.8000488281</ele>
        <time>2023-07-21T06:46:05.000Z</time>
      </trkpt>
      <trkpt lat="42.61458" lon="1.65975">
        <ele>2505.1999511719</ele>
        <time>2023-07-21T06:46:03.000Z</time>
      </trkpt>
      <trkpt lat="42.61457" lon="1.65979">
        <ele>2506</ele>
        <time>2023-07-21T06:45:57.000Z</time>
      </trkpt>
      <trkpt lat="42.61457" lon="1.6598">
        <ele>2506</ele>
        <time>2023-07-21T06:45:55.000Z</time>
      </trkpt>
      <trkpt lat="42.61456" lon="1.65981">
        <ele>2507</ele>
        <time>2023-07-21T06:45:48.000Z</time>
      </trkpt>
      <trkpt lat="42.61453" lon="1.65984">
        <ele>2508.1999511719</ele>
        <time>2023-07-21T06:45:44.000Z</time>
      </trkpt>
      <trkpt lat="42.61452" lon="1.65987">
        <ele>2508.8000488281</ele>
        <time>2023-07-21T06:45:40.000Z</time>
      </trkpt>
      <trkpt lat="42.61452" lon="1.65989">
        <ele>2509.1999511719</ele>
        <time>2023-07-21T06:45:38.000Z</time>
      </trkpt>
      <trkpt lat="42.61451" lon="1.6599">
        <ele>2510.1999511719</ele>
        <time>2023-07-21T06:45:34.000Z</time>
      </trkpt>
      <trkpt lat="42.61451" lon="1.6599">
        <ele>2510.3999023438</ele>
        <time>2023-07-21T06:45:33.000Z</time>
      </trkpt>
      <trkpt lat="42.61448" lon="1.6599">
        <ele>2511.3999023438</ele>
        <time>2023-07-21T06:45:28.000Z</time>
      </trkpt>
      <trkpt lat="42.61448" lon="1.6599">
        <ele>2511.3999023438</ele>
        <time>2023-07-21T06:45:27.000Z</time>
      </trkpt>
      <trkpt lat="42.61447" lon="1.65991">
        <ele>2512.6000976562</ele>
        <time>2023-07-21T06:45:22.000Z</time>
      </trkpt>
      <trkpt lat="42.61443" lon="1.65991">
        <ele>2513.6000976562</ele>
        <time>2023-07-21T06:45:17.000Z</time>
      </trkpt>
      <trkpt lat="42.61443" lon="1.65992">
        <ele>2514</ele>
        <time>2023-07-21T06:45:16.000Z</time>
      </trkpt>
      <trkpt lat="42.61442" lon="1.65994">
        <ele>2514.3999023438</ele>
        <time>2023-07-21T06:45:10.000Z</time>
      </trkpt>
      <trkpt lat="42.61442" lon="1.65995">
        <ele>2514.6000976562</ele>
        <time>2023-07-21T06:45:09.000Z</time>
      </trkpt>
      <trkpt lat="42.61443" lon="1.65996">
        <ele>2514.8000488281</ele>
        <time>2023-07-21T06:45:08.000Z</time>
      </trkpt>
      <trkpt lat="42.61443" lon="1.65996">
        <ele>2515</ele>
        <time>2023-07-21T06:45:07.000Z</time>
      </trkpt>
      <trkpt lat="42.61443" lon="1.65996">
        <ele>2516</ele>
        <time>2023-07-21T06:45:03.000Z</time>
      </trkpt>
      <trkpt lat="42.61443" lon="1.65997">
        <ele>2517</ele>
        <time>2023-07-21T06:44:59.000Z</time>
      </trkpt>
      <trkpt lat="42.61442" lon="1.65999">
        <ele>2518.1999511719</ele>
        <time>2023-07-21T06:44:55.000Z</time>
      </trkpt>
      <trkpt lat="42.61442" lon="1.66">
        <ele>2518.6000976562</ele>
        <time>2023-07-21T06:44:54.000Z</time>
      </trkpt>
      <trkpt lat="42.61441" lon="1.66001">
        <ele>2519.3999023438</ele>
        <time>2023-07-21T06:44:49.000Z</time>
      </trkpt>
      <trkpt lat="42.6144" lon="1.66">
        <ele>2520</ele>
        <time>2023-07-21T06:44:46.000Z</time>
      </trkpt>
      <trkpt lat="42.61438" lon="1.66">
        <ele>2520.3999023438</ele>
        <time>2023-07-21T06:44:43.000Z</time>
      </trkpt>
      <trkpt lat="42.61437" lon="1.66002">
        <ele>2521.3999023438</ele>
        <time>2023-07-21T06:44:38.000Z</time>
      </trkpt>
      <trkpt lat="42.61437" lon="1.66002">
        <ele>2521.6000976562</ele>
        <time>2023-07-21T06:44:37.000Z</time>
      </trkpt>
      <trkpt lat="42.61435" lon="1.66006">
        <ele>2522.6000976562</ele>
        <time>2023-07-21T06:44:31.000Z</time>
      </trkpt>
      <trkpt lat="42.61435" lon="1.66006">
        <ele>2522.8000488281</ele>
        <time>2023-07-21T06:44:30.000Z</time>
      </trkpt>
      <trkpt lat="42.61433" lon="1.66008">
        <ele>2523.6000976562</ele>
        <time>2023-07-21T06:44:26.000Z</time>
      </trkpt>
      <trkpt lat="42.61431" lon="1.66011">
        <ele>2524.8000488281</ele>
        <time>2023-07-21T06:44:21.000Z</time>
      </trkpt>
      <trkpt lat="42.61431" lon="1.66011">
        <ele>2525</ele>
        <time>2023-07-21T06:44:20.000Z</time>
      </trkpt>
      <trkpt lat="42.61431" lon="1.66013">
        <ele>2526</ele>
        <time>2023-07-21T06:44:15.000Z</time>
      </trkpt>
      <trkpt lat="42.6143" lon="1.66014">
        <ele>2526.6000976562</ele>
        <time>2023-07-21T06:44:11.000Z</time>
      </trkpt>
      <trkpt lat="42.61429" lon="1.66016">
        <ele>2527</ele>
        <time>2023-07-21T06:44:09.000Z</time>
      </trkpt>
      <trkpt lat="42.61428" lon="1.66019">
        <ele>2528</ele>
        <time>2023-07-21T06:44:04.000Z</time>
      </trkpt>
      <trkpt lat="42.61428" lon="1.66019">
        <ele>2528.3999023438</ele>
        <time>2023-07-21T06:44:03.000Z</time>
      </trkpt>
      <trkpt lat="42.61428" lon="1.6602">
        <ele>2529.1999511719</ele>
        <time>2023-07-21T06:43:59.000Z</time>
      </trkpt>
      <trkpt lat="42.61425" lon="1.66022">
        <ele>2530.1999511719</ele>
        <time>2023-07-21T06:43:55.000Z</time>
      </trkpt>
      <trkpt lat="42.61424" lon="1.66022">
        <ele>2530.3999023438</ele>
        <time>2023-07-21T06:43:54.000Z</time>
      </trkpt>
      <trkpt lat="42.61423" lon="1.66024">
        <ele>2531.3999023438</ele>
        <time>2023-07-21T06:43:48.000Z</time>
      </trkpt>
      <trkpt lat="42.61422" lon="1.66025">
        <ele>2532.1999511719</ele>
        <time>2023-07-21T06:43:45.000Z</time>
      </trkpt>
      <trkpt lat="42.61421" lon="1.66026">
        <ele>2532.6000976562</ele>
        <time>2023-07-21T06:43:43.000Z</time>
      </trkpt>
      <trkpt lat="42.6142" lon="1.66028">
        <ele>2533.6000976562</ele>
        <time>2023-07-21T06:43:39.000Z</time>
      </trkpt>
      <trkpt lat="42.6142" lon="1.66029">
        <ele>2534.1999511719</ele>
        <time>2023-07-21T06:43:37.000Z</time>
      </trkpt>
      <trkpt lat="42.6142" lon="1.66031">
        <ele>2534.8000488281</ele>
        <time>2023-07-21T06:43:33.000Z</time>
      </trkpt>
      <trkpt lat="42.61419" lon="1.66033">
        <ele>2535.8000488281</ele>
        <time>2023-07-21T06:43:29.000Z</time>
      </trkpt>
      <trkpt lat="42.61419" lon="1.66034">
        <ele>2535.8000488281</ele>
        <time>2023-07-21T06:43:28.000Z</time>
      </trkpt>
      <trkpt lat="42.61417" lon="1.66037">
        <ele>2536.8000488281</ele>
        <time>2023-07-21T06:43:24.000Z</time>
      </trkpt>
      <trkpt lat="42.61416" lon="1.6604">
        <ele>2538.1999511719</ele>
        <time>2023-07-21T06:43:19.000Z</time>
      </trkpt>
      <trkpt lat="42.61416" lon="1.66041">
        <ele>2538.3999023438</ele>
        <time>2023-07-21T06:43:18.000Z</time>
      </trkpt>
      <trkpt lat="42.61413" lon="1.66045">
        <ele>2539.1999511719</ele>
        <time>2023-07-21T06:43:09.000Z</time>
      </trkpt>
      <trkpt lat="42.61413" lon="1.66045">
        <ele>2539.3999023438</ele>
        <time>2023-07-21T06:43:08.000Z</time>
      </trkpt>
      <trkpt lat="42.61411" lon="1.66047">
        <ele>2540.3999023438</ele>
        <time>2023-07-21T06:43:01.000Z</time>
      </trkpt>
      <trkpt lat="42.61411" lon="1.66047">
        <ele>2540.8000488281</ele>
        <time>2023-07-21T06:42:59.000Z</time>
      </trkpt>
      <trkpt lat="42.6141" lon="1.66047">
        <ele>2541.3999023438</ele>
        <time>2023-07-21T06:42:53.000Z</time>
      </trkpt>
      <trkpt lat="42.61409" lon="1.66048">
        <ele>2542</ele>
        <time>2023-07-21T06:42:51.000Z</time>
      </trkpt>
      <trkpt lat="42.61407" lon="1.66051">
        <ele>2542.6000976562</ele>
        <time>2023-07-21T06:42:47.000Z</time>
      </trkpt>
      <trkpt lat="42.61406" lon="1.66054">
        <ele>2543.6000976562</ele>
        <time>2023-07-21T06:42:43.000Z</time>
      </trkpt>
      <trkpt lat="42.61404" lon="1.66059">
        <ele>2544.8000488281</ele>
        <time>2023-07-21T06:42:36.000Z</time>
      </trkpt>
      <trkpt lat="42.61402" lon="1.66062">
        <ele>2545.6000976562</ele>
        <time>2023-07-21T06:42:27.000Z</time>
      </trkpt>
      <trkpt lat="42.61401" lon="1.66062">
        <ele>2545.8000488281</ele>
        <time>2023-07-21T06:42:26.000Z</time>
      </trkpt>
      <trkpt lat="42.614" lon="1.66063">
        <ele>2546.8000488281</ele>
        <time>2023-07-21T06:42:21.000Z</time>
      </trkpt>
      <trkpt lat="42.61399" lon="1.66063">
        <ele>2547</ele>
        <time>2023-07-21T06:42:20.000Z</time>
      </trkpt>
      <trkpt lat="42.61399" lon="1.66066">
        <ele>2547.8000488281</ele>
        <time>2023-07-21T06:42:15.000Z</time>
      </trkpt>
      <trkpt lat="42.61399" lon="1.66068">
        <ele>2548</ele>
        <time>2023-07-21T06:42:12.000Z</time>
      </trkpt>
      <trkpt lat="42.61398" lon="1.66071">
        <ele>2549</ele>
        <time>2023-07-21T06:42:05.000Z</time>
      </trkpt>
      <trkpt lat="42.61396" lon="1.66071">
        <ele>2549.3999023438</ele>
        <time>2023-07-21T06:42:03.000Z</time>
      </trkpt>
      <trkpt lat="42.61394" lon="1.66071">
        <ele>2550.1999511719</ele>
        <time>2023-07-21T06:42:00.000Z</time>
      </trkpt>
      <trkpt lat="42.61391" lon="1.66071">
        <ele>2551</ele>
        <time>2023-07-21T06:41:55.000Z</time>
      </trkpt>
      <trkpt lat="42.61389" lon="1.66073">
        <ele>2551.3999023438</ele>
        <time>2023-07-21T06:41:52.000Z</time>
      </trkpt>
      <trkpt lat="42.61388" lon="1.66072">
        <ele>2552.6000976562</ele>
        <time>2023-07-21T06:41:47.000Z</time>
      </trkpt>
      <trkpt lat="42.61388" lon="1.66073">
        <ele>2553</ele>
        <time>2023-07-21T06:41:46.000Z</time>
      </trkpt>
      <trkpt lat="42.61387" lon="1.66075">
        <ele>2553.6000976562</ele>
        <time>2023-07-21T06:41:44.000Z</time>
      </trkpt>
      <trkpt lat="42.61384" lon="1.66077">
        <ele>2554</ele>
        <time>2023-07-21T06:41:40.000Z</time>
      </trkpt>
      <trkpt lat="42.61383" lon="1.66078">
        <ele>2554.1999511719</ele>
        <time>2023-07-21T06:41:39.000Z</time>
      </trkpt>
      <trkpt lat="42.61383" lon="1.66078">
        <ele>2554.8000488281</ele>
        <time>2023-07-21T06:41:36.000Z</time>
      </trkpt>
      <trkpt lat="42.61382" lon="1.66077">
        <ele>2555</ele>
        <time>2023-07-21T06:41:33.000Z</time>
      </trkpt>
      <trkpt lat="42.61381" lon="1.66079">
        <ele>2556.1999511719</ele>
        <time>2023-07-21T06:41:27.000Z</time>
      </trkpt>
      <trkpt lat="42.61381" lon="1.6608">
        <ele>2556.3999023438</ele>
        <time>2023-07-21T06:41:26.000Z</time>
      </trkpt>
      <trkpt lat="42.6138" lon="1.66082">
        <ele>2557.3999023438</ele>
        <time>2023-07-21T06:41:20.000Z</time>
      </trkpt>
      <trkpt lat="42.6138" lon="1.66083">
        <ele>2557.3999023438</ele>
        <time>2023-07-21T06:41:19.000Z</time>
      </trkpt>
      <trkpt lat="42.61376" lon="1.66085">
        <ele>2558.3999023438</ele>
        <time>2023-07-21T06:41:14.000Z</time>
      </trkpt>
      <trkpt lat="42.61375" lon="1.66086">
        <ele>2558.8000488281</ele>
        <time>2023-07-21T06:41:12.000Z</time>
      </trkpt>
      <trkpt lat="42.61373" lon="1.66087">
        <ele>2559.3999023438</ele>
        <time>2023-07-21T06:41:08.000Z</time>
      </trkpt>
      <trkpt lat="42.6137" lon="1.66087">
        <ele>2560.3999023438</ele>
        <time>2023-07-21T06:41:04.000Z</time>
      </trkpt>
      <trkpt lat="42.61369" lon="1.66087">
        <ele>2560.6000976562</ele>
        <time>2023-07-21T06:41:02.000Z</time>
      </trkpt>
      <trkpt lat="42.61368" lon="1.66092">
        <ele>2561.3999023438</ele>
        <time>2023-07-21T06:40:57.000Z</time>
      </trkpt>
      <trkpt lat="42.61368" lon="1.66093">
        <ele>2561.6000976562</ele>
        <time>2023-07-21T06:40:56.000Z</time>
      </trkpt>
      <trkpt lat="42.61367" lon="1.66093">
        <ele>2562.8000488281</ele>
        <time>2023-07-21T06:40:49.000Z</time>
      </trkpt>
      <trkpt lat="42.61366" lon="1.66093">
        <ele>2563.1999511719</ele>
        <time>2023-07-21T06:40:48.000Z</time>
      </trkpt>
      <trkpt lat="42.61365" lon="1.66094">
        <ele>2563.8000488281</ele>
        <time>2023-07-21T06:40:43.000Z</time>
      </trkpt>
      <trkpt lat="42.61364" lon="1.66093">
        <ele>2564.3999023438</ele>
        <time>2023-07-21T06:40:41.000Z</time>
      </trkpt>
      <trkpt lat="42.61361" lon="1.66092">
        <ele>2565.1999511719</ele>
        <time>2023-07-21T06:40:36.000Z</time>
      </trkpt>
      <trkpt lat="42.6136" lon="1.66092">
        <ele>2565.1999511719</ele>
        <time>2023-07-21T06:40:35.000Z</time>
      </trkpt>
      <trkpt lat="42.6136" lon="1.66093">
        <ele>2565.6000976562</ele>
        <time>2023-07-21T06:40:34.000Z</time>
      </trkpt>
      <trkpt lat="42.61357" lon="1.66096">
        <ele>2566</ele>
        <time>2023-07-21T06:40:28.000Z</time>
      </trkpt>
      <trkpt lat="42.61357" lon="1.66097">
        <ele>2566.1999511719</ele>
        <time>2023-07-21T06:40:26.000Z</time>
      </trkpt>
      <trkpt lat="42.61355" lon="1.66097">
        <ele>2567.1999511719</ele>
        <time>2023-07-21T06:40:22.000Z</time>
      </trkpt>
      <trkpt lat="42.61354" lon="1.66097">
        <ele>2567.6000976562</ele>
        <time>2023-07-21T06:40:20.000Z</time>
      </trkpt>
      <trkpt lat="42.61352" lon="1.66098">
        <ele>2568.1999511719</ele>
        <time>2023-07-21T06:40:17.000Z</time>
      </trkpt>
      <trkpt lat="42.6135" lon="1.66099">
        <ele>2569.3999023438</ele>
        <time>2023-07-21T06:40:13.000Z</time>
      </trkpt>
      <trkpt lat="42.6135" lon="1.66099">
        <ele>2569.6000976562</ele>
        <time>2023-07-21T06:40:12.000Z</time>
      </trkpt>
      <trkpt lat="42.61347" lon="1.66101">
        <ele>2570.3999023438</ele>
        <time>2023-07-21T06:40:08.000Z</time>
      </trkpt>
      <trkpt lat="42.61345" lon="1.66102">
        <ele>2571</ele>
        <time>2023-07-21T06:40:04.000Z</time>
      </trkpt>
      <trkpt lat="42.61345" lon="1.66103">
        <ele>2571.3999023438</ele>
        <time>2023-07-21T06:40:01.000Z</time>
      </trkpt>
      <trkpt lat="42.61346" lon="1.66103">
        <ele>2572.1999511719</ele>
        <time>2023-07-21T06:39:56.000Z</time>
      </trkpt>
      <trkpt lat="42.61344" lon="1.66103">
        <ele>2572.6000976562</ele>
        <time>2023-07-21T06:39:51.000Z</time>
      </trkpt>
      <trkpt lat="42.61342" lon="1.66102">
        <ele>2573.8000488281</ele>
        <time>2023-07-21T06:39:47.000Z</time>
      </trkpt>
      <trkpt lat="42.61341" lon="1.66104">
        <ele>2574.8000488281</ele>
        <time>2023-07-21T06:39:41.000Z</time>
      </trkpt>
      <trkpt lat="42.61341" lon="1.66107">
        <ele>2575.1999511719</ele>
        <time>2023-07-21T06:39:38.000Z</time>
      </trkpt>
      <trkpt lat="42.6134" lon="1.66109">
        <ele>2576.1999511719</ele>
        <time>2023-07-21T06:39:34.000Z</time>
      </trkpt>
      <trkpt lat="42.61338" lon="1.66111">
        <ele>2576.8000488281</ele>
        <time>2023-07-21T06:39:29.000Z</time>
      </trkpt>
      <trkpt lat="42.61337" lon="1.66111">
        <ele>2577.1999511719</ele>
        <time>2023-07-21T06:39:28.000Z</time>
      </trkpt>
      <trkpt lat="42.61338" lon="1.66112">
        <ele>2578.6000976562</ele>
        <time>2023-07-21T06:39:20.000Z</time>
      </trkpt>
      <trkpt lat="42.61337" lon="1.66112">
        <ele>2578.6000976562</ele>
        <time>2023-07-21T06:39:19.000Z</time>
      </trkpt>
      <trkpt lat="42.61336" lon="1.66113">
        <ele>2579.6000976562</ele>
        <time>2023-07-21T06:39:14.000Z</time>
      </trkpt>
      <trkpt lat="42.61335" lon="1.66114">
        <ele>2580.3999023438</ele>
        <time>2023-07-21T06:39:12.000Z</time>
      </trkpt>
      <trkpt lat="42.61335" lon="1.66115">
        <ele>2580.8000488281</ele>
        <time>2023-07-21T06:39:11.000Z</time>
      </trkpt>
      <trkpt lat="42.6133" lon="1.66118">
        <ele>2582.1999511719</ele>
        <time>2023-07-21T06:39:05.000Z</time>
      </trkpt>
      <trkpt lat="42.61329" lon="1.66119">
        <ele>2582.8000488281</ele>
        <time>2023-07-21T06:39:03.000Z</time>
      </trkpt>
      <trkpt lat="42.61328" lon="1.66119">
        <ele>2583.1999511719</ele>
        <time>2023-07-21T06:39:01.000Z</time>
      </trkpt>
      <trkpt lat="42.61324" lon="1.66123">
        <ele>2583.8000488281</ele>
        <time>2023-07-21T06:38:56.000Z</time>
      </trkpt>
      <trkpt lat="42.61322" lon="1.66126">
        <ele>2584.1999511719</ele>
        <time>2023-07-21T06:38:53.000Z</time>
      </trkpt>
      <trkpt lat="42.61319" lon="1.66131">
        <ele>2585.3999023438</ele>
        <time>2023-07-21T06:38:49.000Z</time>
      </trkpt>
      <trkpt lat="42.61319" lon="1.66132">
        <ele>2585.6000976562</ele>
        <time>2023-07-21T06:38:48.000Z</time>
      </trkpt>
      <trkpt lat="42.61318" lon="1.66136">
        <ele>2585.8000488281</ele>
        <time>2023-07-21T06:38:45.000Z</time>
      </trkpt>
      <trkpt lat="42.61317" lon="1.66137">
        <ele>2586.3999023438</ele>
        <time>2023-07-21T06:38:41.000Z</time>
      </trkpt>
      <trkpt lat="42.61317" lon="1.66138">
        <ele>2586.8000488281</ele>
        <time>2023-07-21T06:38:40.000Z</time>
      </trkpt>
      <trkpt lat="42.61318" lon="1.66137">
        <ele>2587.3999023438</ele>
        <time>2023-07-21T06:38:38.000Z</time>
      </trkpt>
      <trkpt lat="42.61317" lon="1.66136">
        <ele>2588.6000976562</ele>
        <time>2023-07-21T06:38:34.000Z</time>
      </trkpt>
      <trkpt lat="42.61314" lon="1.66137">
        <ele>2589.3999023438</ele>
        <time>2023-07-21T06:38:30.000Z</time>
      </trkpt>
      <trkpt lat="42.61314" lon="1.66137">
        <ele>2589.8000488281</ele>
        <time>2023-07-21T06:38:28.000Z</time>
      </trkpt>
      <trkpt lat="42.61312" lon="1.6614">
        <ele>2590.8000488281</ele>
        <time>2023-07-21T06:38:22.000Z</time>
      </trkpt>
      <trkpt lat="42.61309" lon="1.66142">
        <ele>2591.8000488281</ele>
        <time>2023-07-21T06:38:17.000Z</time>
      </trkpt>
      <trkpt lat="42.61308" lon="1.66141">
        <ele>2592.6000976562</ele>
        <time>2023-07-21T06:38:13.000Z</time>
      </trkpt>
      <trkpt lat="42.61308" lon="1.66142">
        <ele>2593</ele>
        <time>2023-07-21T06:38:11.000Z</time>
      </trkpt>
      <trkpt lat="42.61303" lon="1.66147">
        <ele>2594</ele>
        <time>2023-07-21T06:38:05.000Z</time>
      </trkpt>
      <trkpt lat="42.61303" lon="1.66147">
        <ele>2594.1999511719</ele>
        <time>2023-07-21T06:38:04.000Z</time>
      </trkpt>
      <trkpt lat="42.61299" lon="1.6615">
        <ele>2595.1999511719</ele>
        <time>2023-07-21T06:37:59.000Z</time>
      </trkpt>
      <trkpt lat="42.61297" lon="1.66151">
        <ele>2595.8000488281</ele>
        <time>2023-07-21T06:37:55.000Z</time>
      </trkpt>
      <trkpt lat="42.61295" lon="1.66152">
        <ele>2596.3999023438</ele>
        <time>2023-07-21T06:37:53.000Z</time>
      </trkpt>
      <trkpt lat="42.61293" lon="1.66152">
        <ele>2597.6000976562</ele>
        <time>2023-07-21T06:37:47.000Z</time>
      </trkpt>
      <trkpt lat="42.61291" lon="1.66153">
        <ele>2597.8000488281</ele>
        <time>2023-07-21T06:37:45.000Z</time>
      </trkpt>
      <trkpt lat="42.6129" lon="1.66154">
        <ele>2598.1999511719</ele>
        <time>2023-07-21T06:37:39.000Z</time>
      </trkpt>
      <trkpt lat="42.6129" lon="1.66154">
        <ele>2598.8000488281</ele>
        <time>2023-07-21T06:37:34.000Z</time>
      </trkpt>
      <trkpt lat="42.61288" lon="1.66156">
        <ele>2599.1999511719</ele>
        <time>2023-07-21T06:37:32.000Z</time>
      </trkpt>
      <trkpt lat="42.61287" lon="1.66158">
        <ele>2599.8000488281</ele>
        <time>2023-07-21T06:37:30.000Z</time>
      </trkpt>
      <trkpt lat="42.61285" lon="1.6616">
        <ele>2601</ele>
        <time>2023-07-21T06:37:26.000Z</time>
      </trkpt>
      <trkpt lat="42.61284" lon="1.66162">
        <ele>2601.6000976562</ele>
        <time>2023-07-21T06:37:23.000Z</time>
      </trkpt>
      <trkpt lat="42.61284" lon="1.66162">
        <ele>2602</ele>
        <time>2023-07-21T06:37:20.000Z</time>
      </trkpt>
      <trkpt lat="42.6128" lon="1.66164">
        <ele>2602.3999023438</ele>
        <time>2023-07-21T06:37:16.000Z</time>
      </trkpt>
      <trkpt lat="42.61278" lon="1.66164">
        <ele>2603.1999511719</ele>
        <time>2023-07-21T06:37:09.000Z</time>
      </trkpt>
      <trkpt lat="42.61278" lon="1.66165">
        <ele>2603.8000488281</ele>
        <time>2023-07-21T06:37:07.000Z</time>
      </trkpt>
      <trkpt lat="42.61277" lon="1.66165">
        <ele>2604.3999023438</ele>
        <time>2023-07-21T06:37:05.000Z</time>
      </trkpt>
      <trkpt lat="42.61274" lon="1.66167">
        <ele>2605</ele>
        <time>2023-07-21T06:37:00.000Z</time>
      </trkpt>
      <trkpt lat="42.61271" lon="1.66167">
        <ele>2605.6000976562</ele>
        <time>2023-07-21T06:36:56.000Z</time>
      </trkpt>
      <trkpt lat="42.61269" lon="1.66168">
        <ele>2606.1999511719</ele>
        <time>2023-07-21T06:36:52.000Z</time>
      </trkpt>
      <trkpt lat="42.61269" lon="1.66168">
        <ele>2606.6000976562</ele>
        <time>2023-07-21T06:36:51.000Z</time>
      </trkpt>
      <trkpt lat="42.61269" lon="1.66172">
        <ele>2607.6000976562</ele>
        <time>2023-07-21T06:36:44.000Z</time>
      </trkpt>
      <trkpt lat="42.61269" lon="1.66172">
        <ele>2607.8000488281</ele>
        <time>2023-07-21T06:36:43.000Z</time>
      </trkpt>
      <trkpt lat="42.61268" lon="1.66173">
        <ele>2608.1999511719</ele>
        <time>2023-07-21T06:36:42.000Z</time>
      </trkpt>
      <trkpt lat="42.61267" lon="1.66174">
        <ele>2608.8000488281</ele>
        <time>2023-07-21T06:36:37.000Z</time>
      </trkpt>
      <trkpt lat="42.61267" lon="1.66174">
        <ele>2609.3999023438</ele>
        <time>2023-07-21T06:36:36.000Z</time>
      </trkpt>
      <trkpt lat="42.61266" lon="1.66173">
        <ele>2609.6000976562</ele>
        <time>2023-07-21T06:36:35.000Z</time>
      </trkpt>
      <trkpt lat="42.61265" lon="1.66175">
        <ele>2610.6000976562</ele>
        <time>2023-07-21T06:36:30.000Z</time>
      </trkpt>
      <trkpt lat="42.61263" lon="1.66177">
        <ele>2611.6000976562</ele>
        <time>2023-07-21T06:36:26.000Z</time>
      </trkpt>
      <trkpt lat="42.61262" lon="1.66177">
        <ele>2611.8000488281</ele>
        <time>2023-07-21T06:36:25.000Z</time>
      </trkpt>
      <trkpt lat="42.61262" lon="1.6618">
        <ele>2612.8000488281</ele>
        <time>2023-07-21T06:36:20.000Z</time>
      </trkpt>
      <trkpt lat="42.61261" lon="1.66181">
        <ele>2613.3999023438</ele>
        <time>2023-07-21T06:36:18.000Z</time>
      </trkpt>
      <trkpt lat="42.61258" lon="1.66182">
        <ele>2614.1999511719</ele>
        <time>2023-07-21T06:36:12.000Z</time>
      </trkpt>
      <trkpt lat="42.61256" lon="1.66182">
        <ele>2615.1999511719</ele>
        <time>2023-07-21T06:36:09.000Z</time>
      </trkpt>
      <trkpt lat="42.61255" lon="1.66183">
        <ele>2615.3999023438</ele>
        <time>2023-07-21T06:36:08.000Z</time>
      </trkpt>
      <trkpt lat="42.61254" lon="1.66184">
        <ele>2616.3999023438</ele>
        <time>2023-07-21T06:36:05.000Z</time>
      </trkpt>
      <trkpt lat="42.61249" lon="1.66186">
        <ele>2617.1999511719</ele>
        <time>2023-07-21T06:35:57.000Z</time>
      </trkpt>
      <trkpt lat="42.61247" lon="1.66186">
        <ele>2617.3999023438</ele>
        <time>2023-07-21T06:35:55.000Z</time>
      </trkpt>
      <trkpt lat="42.61243" lon="1.66186">
        <ele>2618.6000976562</ele>
        <time>2023-07-21T06:35:47.000Z</time>
      </trkpt>
      <trkpt lat="42.6124" lon="1.66186">
        <ele>2619</ele>
        <time>2023-07-21T06:35:41.000Z</time>
      </trkpt>
      <trkpt lat="42.61239" lon="1.66185">
        <ele>2619.6000976562</ele>
        <time>2023-07-21T06:35:38.000Z</time>
      </trkpt>
      <trkpt lat="42.61235" lon="1.66186">
        <ele>2620</ele>
        <time>2023-07-21T06:35:33.000Z</time>
      </trkpt>
      <trkpt lat="42.61229" lon="1.66189">
        <ele>2620.8000488281</ele>
        <time>2023-07-21T06:35:26.000Z</time>
      </trkpt>
      <trkpt lat="42.61229" lon="1.66189">
        <ele>2621</ele>
        <time>2023-07-21T06:35:25.000Z</time>
      </trkpt>
      <trkpt lat="42.61227" lon="1.66188">
        <ele>2621.8000488281</ele>
        <time>2023-07-21T06:35:22.000Z</time>
      </trkpt>
      <trkpt lat="42.61223" lon="1.66188">
        <ele>2623</ele>
        <time>2023-07-21T06:35:18.000Z</time>
      </trkpt>
      <trkpt lat="42.61221" lon="1.66187">
        <ele>2623.3999023438</ele>
        <time>2023-07-21T06:35:16.000Z</time>
      </trkpt>
      <trkpt lat="42.61221" lon="1.66187">
        <ele>2624.1999511719</ele>
        <time>2023-07-21T06:35:13.000Z</time>
      </trkpt>
      <trkpt lat="42.61217" lon="1.66187">
        <ele>2624.8000488281</ele>
        <time>2023-07-21T06:35:08.000Z</time>
      </trkpt>
      <trkpt lat="42.61215" lon="1.66187">
        <ele>2625.1999511719</ele>
        <time>2023-07-21T06:35:06.000Z</time>
      </trkpt>
      <trkpt lat="42.61212" lon="1.66189">
        <ele>2626</ele>
        <time>2023-07-21T06:35:01.000Z</time>
      </trkpt>
      <trkpt lat="42.61212" lon="1.66189">
        <ele>2626.3999023438</ele>
        <time>2023-07-21T06:34:59.000Z</time>
      </trkpt>
      <trkpt lat="42.61209" lon="1.66189">
        <ele>2627.3999023438</ele>
        <time>2023-07-21T06:34:55.000Z</time>
      </trkpt>
      <trkpt lat="42.61206" lon="1.6619">
        <ele>2628.1999511719</ele>
        <time>2023-07-21T06:34:51.000Z</time>
      </trkpt>
      <trkpt lat="42.61204" lon="1.66191">
        <ele>2628.6000976562</ele>
        <time>2023-07-21T06:34:49.000Z</time>
      </trkpt>
      <trkpt lat="42.61198" lon="1.66191">
        <ele>2629.6000976562</ele>
        <time>2023-07-21T06:34:43.000Z</time>
      </trkpt>
      <trkpt lat="42.61198" lon="1.66191">
        <ele>2630</ele>
        <time>2023-07-21T06:34:42.000Z</time>
      </trkpt>
      <trkpt lat="42.61197" lon="1.66191">
        <ele>2630.8000488281</ele>
        <time>2023-07-21T06:34:39.000Z</time>
      </trkpt>
      <trkpt lat="42.61195" lon="1.66192">
        <ele>2631.6000976562</ele>
        <time>2023-07-21T06:34:34.000Z</time>
      </trkpt>
      <trkpt lat="42.61194" lon="1.66191">
        <ele>2631.8000488281</ele>
        <time>2023-07-21T06:34:33.000Z</time>
      </trkpt>
      <trkpt lat="42.6119" lon="1.66191">
        <ele>2633</ele>
        <time>2023-07-21T06:34:26.000Z</time>
      </trkpt>
      <trkpt lat="42.61189" lon="1.66191">
        <ele>2633.1999511719</ele>
        <time>2023-07-21T06:34:25.000Z</time>
      </trkpt>
      <trkpt lat="42.61183" lon="1.66195">
        <ele>2634</ele>
        <time>2023-07-21T06:34:18.000Z</time>
      </trkpt>
      <trkpt lat="42.61181" lon="1.66197">
        <ele>2634.6000976562</ele>
        <time>2023-07-21T06:34:15.000Z</time>
      </trkpt>
      <trkpt lat="42.61181" lon="1.66198">
        <ele>2634.6000976562</ele>
        <time>2023-07-21T06:34:14.000Z</time>
      </trkpt>
      <trkpt lat="42.6118" lon="1.66196">
        <ele>2635.3999023438</ele>
        <time>2023-07-21T06:34:11.000Z</time>
      </trkpt>
      <trkpt lat="42.6118" lon="1.66196">
        <ele>2636.1999511719</ele>
        <time>2023-07-21T06:34:09.000Z</time>
      </trkpt>
      <trkpt lat="42.6118" lon="1.66197">
        <ele>2636.6000976562</ele>
        <time>2023-07-21T06:34:08.000Z</time>
      </trkpt>
      <trkpt lat="42.61175" lon="1.662">
        <ele>2636.8000488281</ele>
        <time>2023-07-21T06:34:01.000Z</time>
      </trkpt>
      <trkpt lat="42.61172" lon="1.66201">
        <ele>2637.6000976562</ele>
        <time>2023-07-21T06:33:57.000Z</time>
      </trkpt>
      <trkpt lat="42.61171" lon="1.66203">
        <ele>2638.6000976562</ele>
        <time>2023-07-21T06:33:54.000Z</time>
      </trkpt>
      <trkpt lat="42.6117" lon="1.66204">
        <ele>2639.6000976562</ele>
        <time>2023-07-21T06:33:51.000Z</time>
      </trkpt>
      <trkpt lat="42.6117" lon="1.66205">
        <ele>2639.8000488281</ele>
        <time>2023-07-21T06:33:50.000Z</time>
      </trkpt>
      <trkpt lat="42.61171" lon="1.66211">
        <ele>2641</ele>
        <time>2023-07-21T06:33:42.000Z</time>
      </trkpt>
      <trkpt lat="42.61171" lon="1.66211">
        <ele>2641.1999511719</ele>
        <time>2023-07-21T06:33:39.000Z</time>
      </trkpt>
      <trkpt lat="42.6117" lon="1.66211">
        <ele>2641.8000488281</ele>
        <time>2023-07-21T06:33:34.000Z</time>
      </trkpt>
      <trkpt lat="42.61169" lon="1.66212">
        <ele>2642.3999023438</ele>
        <time>2023-07-21T06:33:33.000Z</time>
      </trkpt>
      <trkpt lat="42.61169" lon="1.66216">
        <ele>2643.6000976562</ele>
        <time>2023-07-21T06:33:27.000Z</time>
      </trkpt>
      <trkpt lat="42.61169" lon="1.66219">
        <ele>2644.6000976562</ele>
        <time>2023-07-21T06:33:21.000Z</time>
      </trkpt>
      <trkpt lat="42.61169" lon="1.66221">
        <ele>2645.3999023438</ele>
        <time>2023-07-21T06:33:17.000Z</time>
      </trkpt>
      <trkpt lat="42.61169" lon="1.66222">
        <ele>2645.6000976562</ele>
        <time>2023-07-21T06:33:16.000Z</time>
      </trkpt>
      <trkpt lat="42.61169" lon="1.66228">
        <ele>2647.1999511719</ele>
        <time>2023-07-21T06:33:09.000Z</time>
      </trkpt>
      <trkpt lat="42.61168" lon="1.66233">
        <ele>2647</ele>
        <time>2023-07-21T06:33:02.000Z</time>
      </trkpt>
      <trkpt lat="42.61168" lon="1.66232">
        <ele>2647.1999511719</ele>
        <time>2023-07-21T06:32:51.000Z</time>
      </trkpt>
      <trkpt lat="42.61168" lon="1.66232">
        <ele>2646.8000488281</ele>
        <time>2023-07-21T06:32:44.000Z</time>
      </trkpt>
      <trkpt lat="42.61167" lon="1.66231">
        <ele>2647</ele>
        <time>2023-07-21T06:32:43.000Z</time>
      </trkpt>
      <trkpt lat="42.61167" lon="1.66232">
        <ele>2647.8000488281</ele>
        <time>2023-07-21T06:32:37.000Z</time>
      </trkpt>
      <trkpt lat="42.61167" lon="1.66233">
        <ele>2648</ele>
        <time>2023-07-21T06:32:36.000Z</time>
      </trkpt>
      <trkpt lat="42.61164" lon="1.66238">
        <ele>2648.3999023438</ele>
        <time>2023-07-21T06:32:29.000Z</time>
      </trkpt>
      <trkpt lat="42.6116" lon="1.66241">
        <ele>2648.3999023438</ele>
        <time>2023-07-21T06:32:20.000Z</time>
      </trkpt>
      <trkpt lat="42.6116" lon="1.6624">
        <ele>2648.6000976562</ele>
        <time>2023-07-21T06:32:13.000Z</time>
      </trkpt>
      <trkpt lat="42.61161" lon="1.66242">
        <ele>2648.6000976562</ele>
        <time>2023-07-21T06:32:05.000Z</time>
      </trkpt>
      <trkpt lat="42.61162" lon="1.66242">
        <ele>2648.6000976562</ele>
        <time>2023-07-21T06:31:57.000Z</time>
      </trkpt>
      <trkpt lat="42.61161" lon="1.66241">
        <ele>2648.6000976562</ele>
        <time>2023-07-21T06:31:48.000Z</time>
      </trkpt>
      <trkpt lat="42.61161" lon="1.66241">
        <ele>2648.8000488281</ele>
        <time>2023-07-21T06:31:39.000Z</time>
      </trkpt>
      <trkpt lat="42.61159" lon="1.66242">
        <ele>2648.8000488281</ele>
        <time>2023-07-21T06:31:32.000Z</time>
      </trkpt>
      <trkpt lat="42.61162" lon="1.66242">
        <ele>2648.8000488281</ele>
        <time>2023-07-21T06:31:23.000Z</time>
      </trkpt>
      <trkpt lat="42.61161" lon="1.66242">
        <ele>2649</ele>
        <time>2023-07-21T06:31:11.000Z</time>
      </trkpt>
      <trkpt lat="42.6116" lon="1.6624">
        <ele>2649</ele>
        <time>2023-07-21T06:31:02.000Z</time>
      </trkpt>
      <trkpt lat="42.6116" lon="1.66241">
        <ele>2649.1999511719</ele>
        <time>2023-07-21T06:30:54.000Z</time>
      </trkpt>
      <trkpt lat="42.6116" lon="1.66242">
        <ele>2649.1999511719</ele>
        <time>2023-07-21T06:30:52.000Z</time>
      </trkpt>
      <trkpt lat="42.61161" lon="1.66242">
        <ele>2649.3999023438</ele>
        <time>2023-07-21T06:30:46.000Z</time>
      </trkpt>
      <trkpt lat="42.61162" lon="1.66243">
        <ele>2649.3999023438</ele>
        <time>2023-07-21T06:30:39.000Z</time>
      </trkpt>
      <trkpt lat="42.61162" lon="1.66244">
        <ele>2649.3999023438</ele>
        <time>2023-07-21T06:30:31.000Z</time>
      </trkpt>
      <trkpt lat="42.61161" lon="1.66244">
        <ele>2649.6000976562</ele>
        <time>2023-07-21T06:30:22.000Z</time>
      </trkpt>
      <trkpt lat="42.61162" lon="1.66243">
        <ele>2649.6000976562</ele>
        <time>2023-07-21T06:30:13.000Z</time>
      </trkpt>
      <trkpt lat="42.61161" lon="1.66245">
        <ele>2649.8000488281</ele>
        <time>2023-07-21T06:30:05.000Z</time>
      </trkpt>
      <trkpt lat="42.61162" lon="1.66244">
        <ele>2650.1999511719</ele>
        <time>2023-07-21T06:29:57.000Z</time>
      </trkpt>
      <trkpt lat="42.61163" lon="1.66243">
        <ele>2650.1999511719</ele>
        <time>2023-07-21T06:29:47.000Z</time>
      </trkpt>
      <trkpt lat="42.61164" lon="1.66244">
        <ele>2650.1999511719</ele>
        <time>2023-07-21T06:29:39.000Z</time>
      </trkpt>
      <trkpt lat="42.61162" lon="1.66245">
        <ele>2649.8000488281</ele>
        <time>2023-07-21T06:29:32.000Z</time>
      </trkpt>
      <trkpt lat="42.61161" lon="1.66243">
        <ele>2649.6000976562</ele>
        <time>2023-07-21T06:29:24.000Z</time>
      </trkpt>
      <trkpt lat="42.6116" lon="1.66242">
        <ele>2649.8000488281</ele>
        <time>2023-07-21T06:29:15.000Z</time>
      </trkpt>
      <trkpt lat="42.6116" lon="1.66242">
        <ele>2650.1999511719</ele>
        <time>2023-07-21T06:29:10.000Z</time>
      </trkpt>
      <trkpt lat="42.6116" lon="1.66243">
        <ele>2650.1999511719</ele>
        <time>2023-07-21T06:29:09.000Z</time>
      </trkpt>
      <trkpt lat="42.61159" lon="1.66247">
        <ele>2650.8000488281</ele>
        <time>2023-07-21T06:29:00.000Z</time>
      </trkpt>
      <trkpt lat="42.61161" lon="1.6625">
        <ele>2650.6000976562</ele>
        <time>2023-07-21T06:28:53.000Z</time>
      </trkpt>
      <trkpt lat="42.61156" lon="1.66252">
        <ele>2650.6000976562</ele>
        <time>2023-07-21T06:28:45.000Z</time>
      </trkpt>
      <trkpt lat="42.61157" lon="1.66254">
        <ele>2650.8000488281</ele>
        <time>2023-07-21T06:28:38.000Z</time>
      </trkpt>
      <trkpt lat="42.61157" lon="1.66253">
        <ele>2650.8000488281</ele>
        <time>2023-07-21T06:28:31.000Z</time>
      </trkpt>
      <trkpt lat="42.61155" lon="1.66258">
        <ele>2651</ele>
        <time>2023-07-21T06:28:21.000Z</time>
      </trkpt>
      <trkpt lat="42.61156" lon="1.66258">
        <ele>2651.1999511719</ele>
        <time>2023-07-21T06:28:13.000Z</time>
      </trkpt>
      <trkpt lat="42.61157" lon="1.66254">
        <ele>2651.1999511719</ele>
        <time>2023-07-21T06:28:06.000Z</time>
      </trkpt>
      <trkpt lat="42.61158" lon="1.66255">
        <ele>2651.1999511719</ele>
        <time>2023-07-21T06:28:04.000Z</time>
      </trkpt>
      <trkpt lat="42.61157" lon="1.66255">
        <ele>2651</ele>
        <time>2023-07-21T06:27:58.000Z</time>
      </trkpt>
      <trkpt lat="42.61155" lon="1.66255">
        <ele>2650.3999023438</ele>
        <time>2023-07-21T06:27:49.000Z</time>
      </trkpt>
      <trkpt lat="42.61155" lon="1.66255">
        <ele>2650.1999511719</ele>
        <time>2023-07-21T06:27:47.000Z</time>
      </trkpt>
      <trkpt lat="42.61151" lon="1.66256">
        <ele>2649.1999511719</ele>
        <time>2023-07-21T06:27:41.000Z</time>
      </trkpt>
      <trkpt lat="42.61149" lon="1.66255">
        <ele>2648.1999511719</ele>
        <time>2023-07-21T06:27:34.000Z</time>
      </trkpt>
      <trkpt lat="42.61149" lon="1.66255">
        <ele>2648</ele>
        <time>2023-07-21T06:27:33.000Z</time>
      </trkpt>
      <trkpt lat="42.61148" lon="1.66259">
        <ele>2647.6000976562</ele>
        <time>2023-07-21T06:27:26.000Z</time>
      </trkpt>
      <trkpt lat="42.61149" lon="1.66261">
        <ele>2647</ele>
        <time>2023-07-21T06:27:21.000Z</time>
      </trkpt>
      <trkpt lat="42.61146" lon="1.66261">
        <ele>2646.6000976562</ele>
        <time>2023-07-21T06:27:18.000Z</time>
      </trkpt>
      <trkpt lat="42.61143" lon="1.66261">
        <ele>2645.8000488281</ele>
        <time>2023-07-21T06:27:13.000Z</time>
      </trkpt>
      <trkpt lat="42.61142" lon="1.66261">
        <ele>2644.8000488281</ele>
        <time>2023-07-21T06:27:08.000Z</time>
      </trkpt>
      <trkpt lat="42.61142" lon="1.66262">
        <ele>2644.8000488281</ele>
        <time>2023-07-21T06:27:07.000Z</time>
      </trkpt>
      <trkpt lat="42.61139" lon="1.66261">
        <ele>2643.8000488281</ele>
        <time>2023-07-21T06:26:59.000Z</time>
      </trkpt>
      <trkpt lat="42.61139" lon="1.66261">
        <ele>2643.6000976562</ele>
        <time>2023-07-21T06:26:58.000Z</time>
      </trkpt>
      <trkpt lat="42.61137" lon="1.66259">
        <ele>2643</ele>
        <time>2023-07-21T06:26:50.000Z</time>
      </trkpt>
      <trkpt lat="42.61136" lon="1.66259">
        <ele>2642.8000488281</ele>
        <time>2023-07-21T06:26:46.000Z</time>
      </trkpt>
      <trkpt lat="42.61136" lon="1.66259">
        <ele>2642.1999511719</ele>
        <time>2023-07-21T06:26:43.000Z</time>
      </trkpt>
      <trkpt lat="42.61134" lon="1.66258">
        <ele>2641.6000976562</ele>
        <time>2023-07-21T06:26:40.000Z</time>
      </trkpt>
      <trkpt lat="42.61132" lon="1.66258">
        <ele>2640.8000488281</ele>
        <time>2023-07-21T06:26:34.000Z</time>
      </trkpt>
      <trkpt lat="42.6113" lon="1.66256">
        <ele>2641</ele>
        <time>2023-07-21T06:26:23.000Z</time>
      </trkpt>
      <trkpt lat="42.61131" lon="1.66254">
        <ele>2640.3999023438</ele>
        <time>2023-07-21T06:26:19.000Z</time>
      </trkpt>
      <trkpt lat="42.6113" lon="1.66252">
        <ele>2639.3999023438</ele>
        <time>2023-07-21T06:26:15.000Z</time>
      </trkpt>
      <trkpt lat="42.61128" lon="1.66255">
        <ele>2638.1999511719</ele>
        <time>2023-07-21T06:26:08.000Z</time>
      </trkpt>
      <trkpt lat="42.61126" lon="1.66257">
        <ele>2637.1999511719</ele>
        <time>2023-07-21T06:26:01.000Z</time>
      </trkpt>
      <trkpt lat="42.61125" lon="1.66256">
        <ele>2636.8000488281</ele>
        <time>2023-07-21T06:25:59.000Z</time>
      </trkpt>
      <trkpt lat="42.61124" lon="1.66256">
        <ele>2636.1999511719</ele>
        <time>2023-07-21T06:25:53.000Z</time>
      </trkpt>
      <trkpt lat="42.61124" lon="1.66256">
        <ele>2636</ele>
        <time>2023-07-21T06:25:52.000Z</time>
      </trkpt>
      <trkpt lat="42.61123" lon="1.66255">
        <ele>2635</ele>
        <time>2023-07-21T06:25:47.000Z</time>
      </trkpt>
      <trkpt lat="42.61122" lon="1.66254">
        <ele>2634.6000976562</ele>
        <time>2023-07-21T06:25:44.000Z</time>
      </trkpt>
      <trkpt lat="42.6112" lon="1.66252">
        <ele>2634.3999023438</ele>
        <time>2023-07-21T06:25:38.000Z</time>
      </trkpt>
      <trkpt lat="42.61121" lon="1.66251">
        <ele>2634</ele>
        <time>2023-07-21T06:25:33.000Z</time>
      </trkpt>
      <trkpt lat="42.6112" lon="1.66254">
        <ele>2633.1999511719</ele>
        <time>2023-07-21T06:25:28.000Z</time>
      </trkpt>
      <trkpt lat="42.6112" lon="1.66255">
        <ele>2632.8000488281</ele>
        <time>2023-07-21T06:25:25.000Z</time>
      </trkpt>
      <trkpt lat="42.6112" lon="1.66257">
        <ele>2632</ele>
        <time>2023-07-21T06:25:19.000Z</time>
      </trkpt>
      <trkpt lat="42.6112" lon="1.66258">
        <ele>2631.6000976562</ele>
        <time>2023-07-21T06:25:18.000Z</time>
      </trkpt>
      <trkpt lat="42.61118" lon="1.66256">
        <ele>2630.6000976562</ele>
        <time>2023-07-21T06:25:12.000Z</time>
      </trkpt>
      <trkpt lat="42.61116" lon="1.66261">
        <ele>2629.3999023438</ele>
        <time>2023-07-21T06:25:06.000Z</time>
      </trkpt>
      <trkpt lat="42.61115" lon="1.66262">
        <ele>2629</ele>
        <time>2023-07-21T06:25:03.000Z</time>
      </trkpt>
      <trkpt lat="42.61115" lon="1.66262">
        <ele>2628.3999023438</ele>
        <time>2023-07-21T06:24:57.000Z</time>
      </trkpt>
      <trkpt lat="42.61115" lon="1.66264">
        <ele>2628.1999511719</ele>
        <time>2023-07-21T06:24:55.000Z</time>
      </trkpt>
      <trkpt lat="42.61114" lon="1.66267">
        <ele>2628</ele>
        <time>2023-07-21T06:24:46.000Z</time>
      </trkpt>
      <trkpt lat="42.61114" lon="1.66265">
        <ele>2627.1999511719</ele>
        <time>2023-07-21T06:24:41.000Z</time>
      </trkpt>
      <trkpt lat="42.61115" lon="1.66266">
        <ele>2626.3999023438</ele>
        <time>2023-07-21T06:24:37.000Z</time>
      </trkpt>
      <trkpt lat="42.61115" lon="1.66267">
        <ele>2626</ele>
        <time>2023-07-21T06:24:34.000Z</time>
      </trkpt>
      <trkpt lat="42.61115" lon="1.66272">
        <ele>2625.1999511719</ele>
        <time>2023-07-21T06:24:29.000Z</time>
      </trkpt>
      <trkpt lat="42.61114" lon="1.66274">
        <ele>2625</ele>
        <time>2023-07-21T06:24:27.000Z</time>
      </trkpt>
      <trkpt lat="42.61114" lon="1.66276">
        <ele>2624</ele>
        <time>2023-07-21T06:24:21.000Z</time>
      </trkpt>
      <trkpt lat="42.61114" lon="1.66277">
        <ele>2623.8000488281</ele>
        <time>2023-07-21T06:24:20.000Z</time>
      </trkpt>
      <trkpt lat="42.61112" lon="1.66281">
        <ele>2622.8000488281</ele>
        <time>2023-07-21T06:24:13.000Z</time>
      </trkpt>
      <trkpt lat="42.61112" lon="1.66282">
        <ele>2622.6000976562</ele>
        <time>2023-07-21T06:24:12.000Z</time>
      </trkpt>
      <trkpt lat="42.61109" lon="1.66282">
        <ele>2621.8000488281</ele>
        <time>2023-07-21T06:24:07.000Z</time>
      </trkpt>
      <trkpt lat="42.61109" lon="1.66282">
        <ele>2621.6000976562</ele>
        <time>2023-07-21T06:24:06.000Z</time>
      </trkpt>
      <trkpt lat="42.61108" lon="1.66277">
        <ele>2620.8000488281</ele>
        <time>2023-07-21T06:23:59.000Z</time>
      </trkpt>
      <trkpt lat="42.61107" lon="1.66276">
        <ele>2620.8000488281</ele>
        <time>2023-07-21T06:23:52.000Z</time>
      </trkpt>
      <trkpt lat="42.61107" lon="1.66277">
        <ele>2620.8000488281</ele>
        <time>2023-07-21T06:23:42.000Z</time>
      </trkpt>
      <trkpt lat="42.61108" lon="1.66275">
        <ele>2620.6000976562</ele>
        <time>2023-07-21T06:23:33.000Z</time>
      </trkpt>
      <trkpt lat="42.61108" lon="1.66274">
        <ele>2620.6000976562</ele>
        <time>2023-07-21T06:23:32.000Z</time>
      </trkpt>
      <trkpt lat="42.61107" lon="1.66272">
        <ele>2619.3999023438</ele>
        <time>2023-07-21T06:23:26.000Z</time>
      </trkpt>
      <trkpt lat="42.61106" lon="1.66272">
        <ele>2619.1999511719</ele>
        <time>2023-07-21T06:23:25.000Z</time>
      </trkpt>
      <trkpt lat="42.61105" lon="1.66276">
        <ele>2618.1999511719</ele>
        <time>2023-07-21T06:23:18.000Z</time>
      </trkpt>
      <trkpt lat="42.61105" lon="1.66277">
        <ele>2618</ele>
        <time>2023-07-21T06:23:16.000Z</time>
      </trkpt>
      <trkpt lat="42.61102" lon="1.66281">
        <ele>2617.3999023438</ele>
        <time>2023-07-21T06:23:08.000Z</time>
      </trkpt>
      <trkpt lat="42.61102" lon="1.66281">
        <ele>2617.1999511719</ele>
        <time>2023-07-21T06:23:04.000Z</time>
      </trkpt>
      <trkpt lat="42.61102" lon="1.66283">
        <ele>2616.1999511719</ele>
        <time>2023-07-21T06:22:58.000Z</time>
      </trkpt>
      <trkpt lat="42.61101" lon="1.66285">
        <ele>2615</ele>
        <time>2023-07-21T06:22:52.000Z</time>
      </trkpt>
      <trkpt lat="42.61101" lon="1.66284">
        <ele>2614.8000488281</ele>
        <time>2023-07-21T06:22:48.000Z</time>
      </trkpt>
      <trkpt lat="42.61101" lon="1.66286">
        <ele>2614</ele>
        <time>2023-07-21T06:22:44.000Z</time>
      </trkpt>
      <trkpt lat="42.611" lon="1.66288">
        <ele>2613.6000976562</ele>
        <time>2023-07-21T06:22:40.000Z</time>
      </trkpt>
      <trkpt lat="42.611" lon="1.66289">
        <ele>2613</ele>
        <time>2023-07-21T06:22:35.000Z</time>
      </trkpt>
      <trkpt lat="42.611" lon="1.6629">
        <ele>2612.8000488281</ele>
        <time>2023-07-21T06:22:34.000Z</time>
      </trkpt>
      <trkpt lat="42.61099" lon="1.66291">
        <ele>2611.8000488281</ele>
        <time>2023-07-21T06:22:29.000Z</time>
      </trkpt>
      <trkpt lat="42.611" lon="1.66289">
        <ele>2611</ele>
        <time>2023-07-21T06:22:24.000Z</time>
      </trkpt>
      <trkpt lat="42.61099" lon="1.66288">
        <ele>2610.8000488281</ele>
        <time>2023-07-21T06:22:21.000Z</time>
      </trkpt>
      <trkpt lat="42.61094" lon="1.66287">
        <ele>2610.1999511719</ele>
        <time>2023-07-21T06:22:18.000Z</time>
      </trkpt>
      <trkpt lat="42.61093" lon="1.66287">
        <ele>2609.6000976562</ele>
        <time>2023-07-21T06:22:13.000Z</time>
      </trkpt>
      <trkpt lat="42.61092" lon="1.66286">
        <ele>2609</ele>
        <time>2023-07-21T06:22:10.000Z</time>
      </trkpt>
      <trkpt lat="42.61091" lon="1.66285">
        <ele>2608.6000976562</ele>
        <time>2023-07-21T06:22:07.000Z</time>
      </trkpt>
      <trkpt lat="42.61089" lon="1.66286">
        <ele>2608</ele>
        <time>2023-07-21T06:22:03.000Z</time>
      </trkpt>
      <trkpt lat="42.61088" lon="1.66284">
        <ele>2607.3999023438</ele>
        <time>2023-07-21T06:22:00.000Z</time>
      </trkpt>
      <trkpt lat="42.61087" lon="1.66284">
        <ele>2606.8000488281</ele>
        <time>2023-07-21T06:21:56.000Z</time>
      </trkpt>
      <trkpt lat="42.61087" lon="1.66285">
        <ele>2606.1999511719</ele>
        <time>2023-07-21T06:21:51.000Z</time>
      </trkpt>
      <trkpt lat="42.61087" lon="1.66286">
        <ele>2606.1999511719</ele>
        <time>2023-07-21T06:21:50.000Z</time>
      </trkpt>
      <trkpt lat="42.61088" lon="1.66289">
        <ele>2605.1999511719</ele>
        <time>2023-07-21T06:21:42.000Z</time>
      </trkpt>
      <trkpt lat="42.61088" lon="1.66288">
        <ele>2605</ele>
        <time>2023-07-21T06:21:41.000Z</time>
      </trkpt>
      <trkpt lat="42.61085" lon="1.66284">
        <ele>2604</ele>
        <time>2023-07-21T06:21:34.000Z</time>
      </trkpt>
      <trkpt lat="42.61085" lon="1.66284">
        <ele>2603.8000488281</ele>
        <time>2023-07-21T06:21:33.000Z</time>
      </trkpt>
      <trkpt lat="42.61084" lon="1.66283">
        <ele>2602.8000488281</ele>
        <time>2023-07-21T06:21:28.000Z</time>
      </trkpt>
      <trkpt lat="42.61084" lon="1.66283">
        <ele>2602.3999023438</ele>
        <time>2023-07-21T06:21:24.000Z</time>
      </trkpt>
      <trkpt lat="42.61083" lon="1.66285">
        <ele>2601.8000488281</ele>
        <time>2023-07-21T06:21:19.000Z</time>
      </trkpt>
      <trkpt lat="42.61082" lon="1.66291">
        <ele>2601.1999511719</ele>
        <time>2023-07-21T06:21:13.000Z</time>
      </trkpt>
      <trkpt lat="42.61081" lon="1.66292">
        <ele>2600.6000976562</ele>
        <time>2023-07-21T06:21:09.000Z</time>
      </trkpt>
      <trkpt lat="42.6108" lon="1.66292">
        <ele>2599.8000488281</ele>
        <time>2023-07-21T06:21:05.000Z</time>
      </trkpt>
      <trkpt lat="42.61079" lon="1.66292">
        <ele>2599.3999023438</ele>
        <time>2023-07-21T06:21:03.000Z</time>
      </trkpt>
      <trkpt lat="42.61077" lon="1.66294">
        <ele>2599</ele>
        <time>2023-07-21T06:20:56.000Z</time>
      </trkpt>
      <trkpt lat="42.61076" lon="1.66298">
        <ele>2598.3999023438</ele>
        <time>2023-07-21T06:20:47.000Z</time>
      </trkpt>
      <trkpt lat="42.61075" lon="1.66295">
        <ele>2597.3999023438</ele>
        <time>2023-07-21T06:20:39.000Z</time>
      </trkpt>
      <trkpt lat="42.61073" lon="1.66294">
        <ele>2597.3999023438</ele>
        <time>2023-07-21T06:20:32.000Z</time>
      </trkpt>
      <trkpt lat="42.61072" lon="1.66295">
        <ele>2597.3999023438</ele>
        <time>2023-07-21T06:20:24.000Z</time>
      </trkpt>
      <trkpt lat="42.61072" lon="1.66296">
        <ele>2596.1999511719</ele>
        <time>2023-07-21T06:20:18.000Z</time>
      </trkpt>
      <trkpt lat="42.61072" lon="1.66296">
        <ele>2596</ele>
        <time>2023-07-21T06:20:16.000Z</time>
      </trkpt>
      <trkpt lat="42.61071" lon="1.66297">
        <ele>2595.1999511719</ele>
        <time>2023-07-21T06:20:11.000Z</time>
      </trkpt>
      <trkpt lat="42.6107" lon="1.66296">
        <ele>2594.8000488281</ele>
        <time>2023-07-21T06:20:09.000Z</time>
      </trkpt>
      <trkpt lat="42.61068" lon="1.66297">
        <ele>2594.1999511719</ele>
        <time>2023-07-21T06:20:06.000Z</time>
      </trkpt>
      <trkpt lat="42.61066" lon="1.66298">
        <ele>2593.3999023438</ele>
        <time>2023-07-21T06:20:01.000Z</time>
      </trkpt>
      <trkpt lat="42.61066" lon="1.66299">
        <ele>2593.1999511719</ele>
        <time>2023-07-21T06:19:59.000Z</time>
      </trkpt>
      <trkpt lat="42.61065" lon="1.66299">
        <ele>2592.1999511719</ele>
        <time>2023-07-21T06:19:53.000Z</time>
      </trkpt>
      <trkpt lat="42.61065" lon="1.66299">
        <ele>2591.8000488281</ele>
        <time>2023-07-21T06:19:52.000Z</time>
      </trkpt>
      <trkpt lat="42.61062" lon="1.66299">
        <ele>2591.3999023438</ele>
        <time>2023-07-21T06:19:46.000Z</time>
      </trkpt>
      <trkpt lat="42.61061" lon="1.66298">
        <ele>2591</ele>
        <time>2023-07-21T06:19:44.000Z</time>
      </trkpt>
      <trkpt lat="42.6106" lon="1.66294">
        <ele>2590.3999023438</ele>
        <time>2023-07-21T06:19:39.000Z</time>
      </trkpt>
      <trkpt lat="42.61058" lon="1.66296">
        <ele>2590</ele>
        <time>2023-07-21T06:19:35.000Z</time>
      </trkpt>
      <trkpt lat="42.61056" lon="1.66296">
        <ele>2589.8000488281</ele>
        <time>2023-07-21T06:19:30.000Z</time>
      </trkpt>
      <trkpt lat="42.61053" lon="1.66294">
        <ele>2589.6000976562</ele>
        <time>2023-07-21T06:19:19.000Z</time>
      </trkpt>
      <trkpt lat="42.61054" lon="1.66298">
        <ele>2589.6000976562</ele>
        <time>2023-07-21T06:19:10.000Z</time>
      </trkpt>
      <trkpt lat="42.61055" lon="1.66298">
        <ele>2588.8000488281</ele>
        <time>2023-07-21T06:19:04.000Z</time>
      </trkpt>
      <trkpt lat="42.61056" lon="1.66298">
        <ele>2588.6000976562</ele>
        <time>2023-07-21T06:19:02.000Z</time>
      </trkpt>
      <trkpt lat="42.61057" lon="1.66299">
        <ele>2587.8000488281</ele>
        <time>2023-07-21T06:18:59.000Z</time>
      </trkpt>
      <trkpt lat="42.61057" lon="1.66299">
        <ele>2586.8000488281</ele>
        <time>2023-07-21T06:18:54.000Z</time>
      </trkpt>
      <trkpt lat="42.61057" lon="1.66299">
        <ele>2586.6000976562</ele>
        <time>2023-07-21T06:18:53.000Z</time>
      </trkpt>
      <trkpt lat="42.61056" lon="1.66302">
        <ele>2585.6000976562</ele>
        <time>2023-07-21T06:18:47.000Z</time>
      </trkpt>
      <trkpt lat="42.61054" lon="1.66302">
        <ele>2585.1999511719</ele>
        <time>2023-07-21T06:18:43.000Z</time>
      </trkpt>
      <trkpt lat="42.61052" lon="1.66301">
        <ele>2584.6000976562</ele>
        <time>2023-07-21T06:18:39.000Z</time>
      </trkpt>
      <trkpt lat="42.6105" lon="1.66299">
        <ele>2584</ele>
        <time>2023-07-21T06:18:35.000Z</time>
      </trkpt>
      <trkpt lat="42.61049" lon="1.663">
        <ele>2583.3999023438</ele>
        <time>2023-07-21T06:18:28.000Z</time>
      </trkpt>
      <trkpt lat="42.61049" lon="1.66299">
        <ele>2583</ele>
        <time>2023-07-21T06:18:26.000Z</time>
      </trkpt>
      <trkpt lat="42.61048" lon="1.66297">
        <ele>2582.3999023438</ele>
        <time>2023-07-21T06:18:20.000Z</time>
      </trkpt>
      <trkpt lat="42.61046" lon="1.66295">
        <ele>2581.8000488281</ele>
        <time>2023-07-21T06:18:15.000Z</time>
      </trkpt>
      <trkpt lat="42.61044" lon="1.66294">
        <ele>2581.1999511719</ele>
        <time>2023-07-21T06:18:08.000Z</time>
      </trkpt>
      <trkpt lat="42.61043" lon="1.66293">
        <ele>2580</ele>
        <time>2023-07-21T06:18:04.000Z</time>
      </trkpt>
      <trkpt lat="42.61041" lon="1.66293">
        <ele>2579.1999511719</ele>
        <time>2023-07-21T06:17:58.000Z</time>
      </trkpt>
      <trkpt lat="42.61041" lon="1.66292">
        <ele>2579</ele>
        <time>2023-07-21T06:17:56.000Z</time>
      </trkpt>
      <trkpt lat="42.61039" lon="1.66293">
        <ele>2577.8000488281</ele>
        <time>2023-07-21T06:17:50.000Z</time>
      </trkpt>
      <trkpt lat="42.61036" lon="1.66295">
        <ele>2577</ele>
        <time>2023-07-21T06:17:44.000Z</time>
      </trkpt>
      <trkpt lat="42.61034" lon="1.66295">
        <ele>2576.8000488281</ele>
        <time>2023-07-21T06:17:39.000Z</time>
      </trkpt>
      <trkpt lat="42.61034" lon="1.66295">
        <ele>2576.3999023438</ele>
        <time>2023-07-21T06:17:36.000Z</time>
      </trkpt>
      <trkpt lat="42.61034" lon="1.66294">
        <ele>2575.8000488281</ele>
        <time>2023-07-21T06:17:32.000Z</time>
      </trkpt>
      <trkpt lat="42.61033" lon="1.66296">
        <ele>2575.3999023438</ele>
        <time>2023-07-21T06:17:29.000Z</time>
      </trkpt>
      <trkpt lat="42.61033" lon="1.66297">
        <ele>2574.8000488281</ele>
        <time>2023-07-21T06:17:26.000Z</time>
      </trkpt>
      <trkpt lat="42.61034" lon="1.66301">
        <ele>2573.8000488281</ele>
        <time>2023-07-21T06:17:21.000Z</time>
      </trkpt>
      <trkpt lat="42.61034" lon="1.66302">
        <ele>2573.6000976562</ele>
        <time>2023-07-21T06:17:20.000Z</time>
      </trkpt>
      <trkpt lat="42.61034" lon="1.66305">
        <ele>2572.6000976562</ele>
        <time>2023-07-21T06:17:14.000Z</time>
      </trkpt>
      <trkpt lat="42.61034" lon="1.66305">
        <ele>2571.3999023438</ele>
        <time>2023-07-21T06:17:09.000Z</time>
      </trkpt>
      <trkpt lat="42.61034" lon="1.66305">
        <ele>2571</ele>
        <time>2023-07-21T06:17:07.000Z</time>
      </trkpt>
      <trkpt lat="42.61033" lon="1.66304">
        <ele>2570.1999511719</ele>
        <time>2023-07-21T06:17:03.000Z</time>
      </trkpt>
      <trkpt lat="42.6103" lon="1.66303">
        <ele>2569.1999511719</ele>
        <time>2023-07-21T06:16:59.000Z</time>
      </trkpt>
      <trkpt lat="42.61029" lon="1.66303">
        <ele>2568.8000488281</ele>
        <time>2023-07-21T06:16:52.000Z</time>
      </trkpt>
      <trkpt lat="42.61029" lon="1.66304">
        <ele>2568.6000976562</ele>
        <time>2023-07-21T06:16:51.000Z</time>
      </trkpt>
      <trkpt lat="42.61027" lon="1.66303">
        <ele>2567.6000976562</ele>
        <time>2023-07-21T06:16:44.000Z</time>
      </trkpt>
      <trkpt lat="42.61027" lon="1.66302">
        <ele>2567.3999023438</ele>
        <time>2023-07-21T06:16:43.000Z</time>
      </trkpt>
      <trkpt lat="42.61026" lon="1.66302">
        <ele>2566.6000976562</ele>
        <time>2023-07-21T06:16:37.000Z</time>
      </trkpt>
      <trkpt lat="42.61025" lon="1.66302">
        <ele>2566.1999511719</ele>
        <time>2023-07-21T06:16:36.000Z</time>
      </trkpt>
      <trkpt lat="42.61024" lon="1.663">
        <ele>2565.8000488281</ele>
        <time>2023-07-21T06:16:29.000Z</time>
      </trkpt>
      <trkpt lat="42.61023" lon="1.66301">
        <ele>2565.3999023438</ele>
        <time>2023-07-21T06:16:24.000Z</time>
      </trkpt>
      <trkpt lat="42.61021" lon="1.66299">
        <ele>2564.3999023438</ele>
        <time>2023-07-21T06:16:20.000Z</time>
      </trkpt>
      <trkpt lat="42.61021" lon="1.66298">
        <ele>2564.1999511719</ele>
        <time>2023-07-21T06:16:19.000Z</time>
      </trkpt>
      <trkpt lat="42.61018" lon="1.66298">
        <ele>2563.1999511719</ele>
        <time>2023-07-21T06:16:13.000Z</time>
      </trkpt>
      <trkpt lat="42.61018" lon="1.66301">
        <ele>2562.3999023438</ele>
        <time>2023-07-21T06:16:06.000Z</time>
      </trkpt>
      <trkpt lat="42.61018" lon="1.66301">
        <ele>2562</ele>
        <time>2023-07-21T06:16:05.000Z</time>
      </trkpt>
      <trkpt lat="42.61018" lon="1.66304">
        <ele>2561</ele>
        <time>2023-07-21T06:16:00.000Z</time>
      </trkpt>
      <trkpt lat="42.61018" lon="1.66306">
        <ele>2560.6000976562</ele>
        <time>2023-07-21T06:15:57.000Z</time>
      </trkpt>
      <trkpt lat="42.61018" lon="1.66307">
        <ele>2560</ele>
        <time>2023-07-21T06:15:54.000Z</time>
      </trkpt>
      <trkpt lat="42.61015" lon="1.66308">
        <ele>2559.6000976562</ele>
        <time>2023-07-21T06:15:49.000Z</time>
      </trkpt>
      <trkpt lat="42.61011" lon="1.66309">
        <ele>2559</ele>
        <time>2023-07-21T06:15:43.000Z</time>
      </trkpt>
      <trkpt lat="42.6101" lon="1.66308">
        <ele>2558.6000976562</ele>
        <time>2023-07-21T06:15:41.000Z</time>
      </trkpt>
      <trkpt lat="42.61009" lon="1.66308">
        <ele>2557.8000488281</ele>
        <time>2023-07-21T06:15:37.000Z</time>
      </trkpt>
      <trkpt lat="42.61009" lon="1.66306">
        <ele>2557.3999023438</ele>
        <time>2023-07-21T06:15:34.000Z</time>
      </trkpt>
      <trkpt lat="42.61008" lon="1.66306">
        <ele>2556.8000488281</ele>
        <time>2023-07-21T06:15:32.000Z</time>
      </trkpt>
      <trkpt lat="42.61009" lon="1.66307">
        <ele>2556.1999511719</ele>
        <time>2023-07-21T06:15:27.000Z</time>
      </trkpt>
      <trkpt lat="42.61009" lon="1.66307">
        <ele>2555.8000488281</ele>
        <time>2023-07-21T06:15:25.000Z</time>
      </trkpt>
      <trkpt lat="42.61008" lon="1.6631">
        <ele>2554.6000976562</ele>
        <time>2023-07-21T06:15:19.000Z</time>
      </trkpt>
      <trkpt lat="42.61004" lon="1.66313">
        <ele>2553.3999023438</ele>
        <time>2023-07-21T06:15:11.000Z</time>
      </trkpt>
      <trkpt lat="42.61004" lon="1.66312">
        <ele>2553</ele>
        <time>2023-07-21T06:15:10.000Z</time>
      </trkpt>
      <trkpt lat="42.61002" lon="1.66312">
        <ele>2552.1999511719</ele>
        <time>2023-07-21T06:15:04.000Z</time>
      </trkpt>
      <trkpt lat="42.61001" lon="1.66311">
        <ele>2552</ele>
        <time>2023-07-21T06:15:02.000Z</time>
      </trkpt>
      <trkpt lat="42.60998" lon="1.6631">
        <ele>2551.8000488281</ele>
        <time>2023-07-21T06:14:54.000Z</time>
      </trkpt>
      <trkpt lat="42.60999" lon="1.6631">
        <ele>2551.1999511719</ele>
        <time>2023-07-21T06:14:52.000Z</time>
      </trkpt>
      <trkpt lat="42.60998" lon="1.66311">
        <ele>2550.1999511719</ele>
        <time>2023-07-21T06:14:47.000Z</time>
      </trkpt>
      <trkpt lat="42.60997" lon="1.66312">
        <ele>2549.8000488281</ele>
        <time>2023-07-21T06:14:45.000Z</time>
      </trkpt>
      <trkpt lat="42.60996" lon="1.66313">
        <ele>2549</ele>
        <time>2023-07-21T06:14:38.000Z</time>
      </trkpt>
      <trkpt lat="42.60996" lon="1.66314">
        <ele>2549</ele>
        <time>2023-07-21T06:14:37.000Z</time>
      </trkpt>
      <trkpt lat="42.60996" lon="1.66317">
        <ele>2548</ele>
        <time>2023-07-21T06:14:28.000Z</time>
      </trkpt>
      <trkpt lat="42.60992" lon="1.66314">
        <ele>2547</ele>
        <time>2023-07-21T06:14:21.000Z</time>
      </trkpt>
      <trkpt lat="42.60991" lon="1.66314">
        <ele>2546.6000976562</ele>
        <time>2023-07-21T06:14:19.000Z</time>
      </trkpt>
      <trkpt lat="42.6099" lon="1.66317">
        <ele>2545.6000976562</ele>
        <time>2023-07-21T06:14:11.000Z</time>
      </trkpt>
      <trkpt lat="42.6099" lon="1.66317">
        <ele>2545.6000976562</ele>
        <time>2023-07-21T06:14:10.000Z</time>
      </trkpt>
      <trkpt lat="42.6099" lon="1.66321">
        <ele>2544.6000976562</ele>
        <time>2023-07-21T06:14:03.000Z</time>
      </trkpt>
      <trkpt lat="42.60989" lon="1.66324">
        <ele>2543.3999023438</ele>
        <time>2023-07-21T06:13:58.000Z</time>
      </trkpt>
      <trkpt lat="42.60989" lon="1.66326">
        <ele>2542.8000488281</ele>
        <time>2023-07-21T06:13:55.000Z</time>
      </trkpt>
      <trkpt lat="42.60988" lon="1.66327">
        <ele>2542.3999023438</ele>
        <time>2023-07-21T06:13:52.000Z</time>
      </trkpt>
      <trkpt lat="42.60987" lon="1.66329">
        <ele>2541.6000976562</ele>
        <time>2023-07-21T06:13:48.000Z</time>
      </trkpt>
      <trkpt lat="42.60985" lon="1.6633">
        <ele>2541.1999511719</ele>
        <time>2023-07-21T06:13:45.000Z</time>
      </trkpt>
      <trkpt lat="42.60984" lon="1.66329">
        <ele>2540</ele>
        <time>2023-07-21T06:13:39.000Z</time>
      </trkpt>
      <trkpt lat="42.60984" lon="1.66329">
        <ele>2539.8000488281</ele>
        <time>2023-07-21T06:13:38.000Z</time>
      </trkpt>
      <trkpt lat="42.60982" lon="1.6633">
        <ele>2538.8000488281</ele>
        <time>2023-07-21T06:13:32.000Z</time>
      </trkpt>
      <trkpt lat="42.6098" lon="1.6633">
        <ele>2538.1999511719</ele>
        <time>2023-07-21T06:13:28.000Z</time>
      </trkpt>
      <trkpt lat="42.60977" lon="1.66329">
        <ele>2537.6000976562</ele>
        <time>2023-07-21T06:13:24.000Z</time>
      </trkpt>
      <trkpt lat="42.60976" lon="1.66328">
        <ele>2537.1999511719</ele>
        <time>2023-07-21T06:13:21.000Z</time>
      </trkpt>
      <trkpt lat="42.60973" lon="1.66328">
        <ele>2536.6000976562</ele>
        <time>2023-07-21T06:13:17.000Z</time>
      </trkpt>
      <trkpt lat="42.60973" lon="1.6633">
        <ele>2536.1999511719</ele>
        <time>2023-07-21T06:13:13.000Z</time>
      </trkpt>
      <trkpt lat="42.60971" lon="1.66328">
        <ele>2536</ele>
        <time>2023-07-21T06:13:03.000Z</time>
      </trkpt>
      <trkpt lat="42.60971" lon="1.66331">
        <ele>2535.3999023438</ele>
        <time>2023-07-21T06:12:56.000Z</time>
      </trkpt>
      <trkpt lat="42.60971" lon="1.66333">
        <ele>2534.1999511719</ele>
        <time>2023-07-21T06:12:51.000Z</time>
      </trkpt>
      <trkpt lat="42.60971" lon="1.66336">
        <ele>2533.6000976562</ele>
        <time>2023-07-21T06:12:47.000Z</time>
      </trkpt>
      <trkpt lat="42.6097" lon="1.66336">
        <ele>2533.1999511719</ele>
        <time>2023-07-21T06:12:42.000Z</time>
      </trkpt>
      <trkpt lat="42.6097" lon="1.66335">
        <ele>2532.6000976562</ele>
        <time>2023-07-21T06:12:38.000Z</time>
      </trkpt>
      <trkpt lat="42.60967" lon="1.66334">
        <ele>2532</ele>
        <time>2023-07-21T06:12:34.000Z</time>
      </trkpt>
      <trkpt lat="42.60965" lon="1.66333">
        <ele>2531.1999511719</ele>
        <time>2023-07-21T06:12:30.000Z</time>
      </trkpt>
      <trkpt lat="42.60964" lon="1.66333">
        <ele>2531</ele>
        <time>2023-07-21T06:12:28.000Z</time>
      </trkpt>
      <trkpt lat="42.60963" lon="1.66334">
        <ele>2530.1999511719</ele>
        <time>2023-07-21T06:12:22.000Z</time>
      </trkpt>
      <trkpt lat="42.60962" lon="1.66333">
        <ele>2529.8000488281</ele>
        <time>2023-07-21T06:12:19.000Z</time>
      </trkpt>
      <trkpt lat="42.6096" lon="1.66333">
        <ele>2528.6000976562</ele>
        <time>2023-07-21T06:12:14.000Z</time>
      </trkpt>
      <trkpt lat="42.6096" lon="1.66334">
        <ele>2528.6000976562</ele>
        <time>2023-07-21T06:12:13.000Z</time>
      </trkpt>
      <trkpt lat="42.60959" lon="1.66335">
        <ele>2527.6000976562</ele>
        <time>2023-07-21T06:12:06.000Z</time>
      </trkpt>
      <trkpt lat="42.60955" lon="1.66336">
        <ele>2526.6000976562</ele>
        <time>2023-07-21T06:11:59.000Z</time>
      </trkpt>
      <trkpt lat="42.60951" lon="1.66338">
        <ele>2526</ele>
        <time>2023-07-21T06:11:52.000Z</time>
      </trkpt>
      <trkpt lat="42.60951" lon="1.66339">
        <ele>2525.3999023438</ele>
        <time>2023-07-21T06:11:47.000Z</time>
      </trkpt>
      <trkpt lat="42.60951" lon="1.6634">
        <ele>2525.1999511719</ele>
        <time>2023-07-21T06:11:46.000Z</time>
      </trkpt>
      <trkpt lat="42.6095" lon="1.66341">
        <ele>2524.1999511719</ele>
        <time>2023-07-21T06:11:39.000Z</time>
      </trkpt>
      <trkpt lat="42.60946" lon="1.66339">
        <ele>2523</ele>
        <time>2023-07-21T06:11:31.000Z</time>
      </trkpt>
      <trkpt lat="42.60944" lon="1.66342">
        <ele>2522</ele>
        <time>2023-07-21T06:11:25.000Z</time>
      </trkpt>
      <trkpt lat="42.60944" lon="1.66343">
        <ele>2521.8000488281</ele>
        <time>2023-07-21T06:11:24.000Z</time>
      </trkpt>
      <trkpt lat="42.60944" lon="1.66347">
        <ele>2520.8000488281</ele>
        <time>2023-07-21T06:11:17.000Z</time>
      </trkpt>
      <trkpt lat="42.60944" lon="1.66348">
        <ele>2519.8000488281</ele>
        <time>2023-07-21T06:11:11.000Z</time>
      </trkpt>
      <trkpt lat="42.60944" lon="1.6635">
        <ele>2519.3999023438</ele>
        <time>2023-07-21T06:11:09.000Z</time>
      </trkpt>
      <trkpt lat="42.60942" lon="1.66352">
        <ele>2518.6000976562</ele>
        <time>2023-07-21T06:11:05.000Z</time>
      </trkpt>
      <trkpt lat="42.60942" lon="1.66353">
        <ele>2518.6000976562</ele>
        <time>2023-07-21T06:11:04.000Z</time>
      </trkpt>
      <trkpt lat="42.60941" lon="1.66354">
        <ele>2517.6000976562</ele>
        <time>2023-07-21T06:10:57.000Z</time>
      </trkpt>
      <trkpt lat="42.6094" lon="1.66355">
        <ele>2517.6000976562</ele>
        <time>2023-07-21T06:10:56.000Z</time>
      </trkpt>
      <trkpt lat="42.60939" lon="1.66356">
        <ele>2516.8000488281</ele>
        <time>2023-07-21T06:10:51.000Z</time>
      </trkpt>
      <trkpt lat="42.60938" lon="1.66358">
        <ele>2516.3999023438</ele>
        <time>2023-07-21T06:10:49.000Z</time>
      </trkpt>
      <trkpt lat="42.60937" lon="1.66361">
        <ele>2515.8000488281</ele>
        <time>2023-07-21T06:10:43.000Z</time>
      </trkpt>
      <trkpt lat="42.60937" lon="1.66362">
        <ele>2515.3999023438</ele>
        <time>2023-07-21T06:10:41.000Z</time>
      </trkpt>
      <trkpt lat="42.60936" lon="1.66365">
        <ele>2514.3999023438</ele>
        <time>2023-07-21T06:10:36.000Z</time>
      </trkpt>
      <trkpt lat="42.60936" lon="1.66365">
        <ele>2514.3999023438</ele>
        <time>2023-07-21T06:10:35.000Z</time>
      </trkpt>
      <trkpt lat="42.60935" lon="1.66369">
        <ele>2513.6000976562</ele>
        <time>2023-07-21T06:10:29.000Z</time>
      </trkpt>
      <trkpt lat="42.60935" lon="1.66371">
        <ele>2513.1999511719</ele>
        <time>2023-07-21T06:10:27.000Z</time>
      </trkpt>
      <trkpt lat="42.60935" lon="1.66375">
        <ele>2512.1999511719</ele>
        <time>2023-07-21T06:10:21.000Z</time>
      </trkpt>
      <trkpt lat="42.60934" lon="1.66377">
        <ele>2512</ele>
        <time>2023-07-21T06:10:19.000Z</time>
      </trkpt>
      <trkpt lat="42.60934" lon="1.66383">
        <ele>2511.6000976562</ele>
        <time>2023-07-21T06:10:11.000Z</time>
      </trkpt>
      <trkpt lat="42.60937" lon="1.66388">
        <ele>2511.1999511719</ele>
        <time>2023-07-21T06:10:05.000Z</time>
      </trkpt>
      <trkpt lat="42.60937" lon="1.66389">
        <ele>2511</ele>
        <time>2023-07-21T06:10:03.000Z</time>
      </trkpt>
      <trkpt lat="42.60936" lon="1.66395">
        <ele>2510.3999023438</ele>
        <time>2023-07-21T06:09:55.000Z</time>
      </trkpt>
      <trkpt lat="42.60938" lon="1.664">
        <ele>2510.1999511719</ele>
        <time>2023-07-21T06:09:46.000Z</time>
      </trkpt>
      <trkpt lat="42.60938" lon="1.66401">
        <ele>2510.3999023438</ele>
        <time>2023-07-21T06:09:36.000Z</time>
      </trkpt>
      <trkpt lat="42.60938" lon="1.66403">
        <ele>2510.3999023438</ele>
        <time>2023-07-21T06:09:27.000Z</time>
      </trkpt>
      <trkpt lat="42.60939" lon="1.66402">
        <ele>2510.3999023438</ele>
        <time>2023-07-21T06:09:21.000Z</time>
      </trkpt>
      <trkpt lat="42.60938" lon="1.66402">
        <ele>2510.1999511719</ele>
        <time>2023-07-21T06:09:20.000Z</time>
      </trkpt>
      <trkpt lat="42.60937" lon="1.66401">
        <ele>2509</ele>
        <time>2023-07-21T06:09:13.000Z</time>
      </trkpt>
      <trkpt lat="42.60934" lon="1.66405">
        <ele>2507.8000488281</ele>
        <time>2023-07-21T06:09:06.000Z</time>
      </trkpt>
      <trkpt lat="42.60934" lon="1.66406">
        <ele>2507.6000976562</ele>
        <time>2023-07-21T06:09:05.000Z</time>
      </trkpt>
      <trkpt lat="42.60933" lon="1.66409">
        <ele>2506.8000488281</ele>
        <time>2023-07-21T06:09:00.000Z</time>
      </trkpt>
      <trkpt lat="42.60933" lon="1.66412">
        <ele>2506.1999511719</ele>
        <time>2023-07-21T06:08:57.000Z</time>
      </trkpt>
      <trkpt lat="42.60932" lon="1.66415">
        <ele>2505.6000976562</ele>
        <time>2023-07-21T06:08:50.000Z</time>
      </trkpt>
      <trkpt lat="42.60932" lon="1.66416">
        <ele>2505.3999023438</ele>
        <time>2023-07-21T06:08:48.000Z</time>
      </trkpt>
      <trkpt lat="42.60931" lon="1.66419">
        <ele>2504.6000976562</ele>
        <time>2023-07-21T06:08:41.000Z</time>
      </trkpt>
      <trkpt lat="42.60931" lon="1.6642">
        <ele>2504.3999023438</ele>
        <time>2023-07-21T06:08:40.000Z</time>
      </trkpt>
      <trkpt lat="42.60929" lon="1.66426">
        <ele>2503.3999023438</ele>
        <time>2023-07-21T06:08:33.000Z</time>
      </trkpt>
      <trkpt lat="42.60928" lon="1.66428">
        <ele>2503.1999511719</ele>
        <time>2023-07-21T06:08:30.000Z</time>
      </trkpt>
      <trkpt lat="42.60927" lon="1.66431">
        <ele>2502.8000488281</ele>
        <time>2023-07-21T06:08:24.000Z</time>
      </trkpt>
      <trkpt lat="42.60928" lon="1.66434">
        <ele>2502.8000488281</ele>
        <time>2023-07-21T06:08:17.000Z</time>
      </trkpt>
      <trkpt lat="42.60926" lon="1.66436">
        <ele>2502.6000976562</ele>
        <time>2023-07-21T06:08:10.000Z</time>
      </trkpt>
      <trkpt lat="42.60926" lon="1.66438">
        <ele>2502.3999023438</ele>
        <time>2023-07-21T06:08:03.000Z</time>
      </trkpt>
      <trkpt lat="42.60926" lon="1.66442">
        <ele>2502.1999511719</ele>
        <time>2023-07-21T06:07:52.000Z</time>
      </trkpt>
      <trkpt lat="42.60928" lon="1.6644">
        <ele>2502.3999023438</ele>
        <time>2023-07-21T06:07:44.000Z</time>
      </trkpt>
      <trkpt lat="42.60925" lon="1.66437">
        <ele>2503</ele>
        <time>2023-07-21T06:07:35.000Z</time>
      </trkpt>
      <trkpt lat="42.60925" lon="1.66436">
        <ele>2503</ele>
        <time>2023-07-21T06:07:28.000Z</time>
      </trkpt>
      <trkpt lat="42.60926" lon="1.6644">
        <ele>2502.1999511719</ele>
        <time>2023-07-21T06:07:23.000Z</time>
      </trkpt>
      <trkpt lat="42.60927" lon="1.66441">
        <ele>2501.3999023438</ele>
        <time>2023-07-21T06:07:20.000Z</time>
      </trkpt>
      <trkpt lat="42.60927" lon="1.66449">
        <ele>2501.3999023438</ele>
        <time>2023-07-21T06:07:12.000Z</time>
      </trkpt>
      <trkpt lat="42.60926" lon="1.6645">
        <ele>2501.3999023438</ele>
        <time>2023-07-21T06:07:06.000Z</time>
      </trkpt>
      <trkpt lat="42.60926" lon="1.66449">
        <ele>2501.3999023438</ele>
        <time>2023-07-21T06:07:04.000Z</time>
      </trkpt>
      <trkpt lat="42.60925" lon="1.66452">
        <ele>2501.1999511719</ele>
        <time>2023-07-21T06:07:00.000Z</time>
      </trkpt>
      <trkpt lat="42.60924" lon="1.66453">
        <ele>2501</ele>
        <time>2023-07-21T06:06:59.000Z</time>
      </trkpt>
      <trkpt lat="42.60922" lon="1.66454">
        <ele>2500</ele>
        <time>2023-07-21T06:06:51.000Z</time>
      </trkpt>
      <trkpt lat="42.60921" lon="1.66454">
        <ele>2499.8000488281</ele>
        <time>2023-07-21T06:06:50.000Z</time>
      </trkpt>
      <trkpt lat="42.60918" lon="1.66455">
        <ele>2498.8000488281</ele>
        <time>2023-07-21T06:06:43.000Z</time>
      </trkpt>
      <trkpt lat="42.60917" lon="1.66455">
        <ele>2498.6000976562</ele>
        <time>2023-07-21T06:06:42.000Z</time>
      </trkpt>
      <trkpt lat="42.60915" lon="1.66459">
        <ele>2498</ele>
        <time>2023-07-21T06:06:35.000Z</time>
      </trkpt>
      <trkpt lat="42.60915" lon="1.66464">
        <ele>2497.8000488281</ele>
        <time>2023-07-21T06:06:29.000Z</time>
      </trkpt>
      <trkpt lat="42.60917" lon="1.6647">
        <ele>2497.6000976562</ele>
        <time>2023-07-21T06:06:22.000Z</time>
      </trkpt>
      <trkpt lat="42.60918" lon="1.6647">
        <ele>2497.3999023438</ele>
        <time>2023-07-21T06:06:21.000Z</time>
      </trkpt>
      <trkpt lat="42.60915" lon="1.66471">
        <ele>2496.6000976562</ele>
        <time>2023-07-21T06:06:15.000Z</time>
      </trkpt>
      <trkpt lat="42.60914" lon="1.66472">
        <ele>2496.1999511719</ele>
        <time>2023-07-21T06:06:13.000Z</time>
      </trkpt>
      <trkpt lat="42.60914" lon="1.66477">
        <ele>2496.1999511719</ele>
        <time>2023-07-21T06:06:08.000Z</time>
      </trkpt>
      <trkpt lat="42.60914" lon="1.66486">
        <ele>2496.1999511719</ele>
        <time>2023-07-21T06:06:01.000Z</time>
      </trkpt>
      <trkpt lat="42.60912" lon="1.66492">
        <ele>2495.3999023438</ele>
        <time>2023-07-21T06:05:53.000Z</time>
      </trkpt>
      <trkpt lat="42.60912" lon="1.66494">
        <ele>2495.3999023438</ele>
        <time>2023-07-21T06:05:44.000Z</time>
      </trkpt>
      <trkpt lat="42.60912" lon="1.66494">
        <ele>2495.3999023438</ele>
        <time>2023-07-21T06:05:39.000Z</time>
      </trkpt>
      <trkpt lat="42.60913" lon="1.66496">
        <ele>2495.3999023438</ele>
        <time>2023-07-21T06:05:35.000Z</time>
      </trkpt>
      <trkpt lat="42.60914" lon="1.66498">
        <ele>2494.8000488281</ele>
        <time>2023-07-21T06:05:28.000Z</time>
      </trkpt>
      <trkpt lat="42.60914" lon="1.66502">
        <ele>2494.3999023438</ele>
        <time>2023-07-21T06:05:24.000Z</time>
      </trkpt>
      <trkpt lat="42.60914" lon="1.66508">
        <ele>2494</ele>
        <time>2023-07-21T06:05:20.000Z</time>
      </trkpt>
      <trkpt lat="42.60913" lon="1.66513">
        <ele>2493.3999023438</ele>
        <time>2023-07-21T06:05:15.000Z</time>
      </trkpt>
      <trkpt lat="42.60913" lon="1.66515">
        <ele>2493.1999511719</ele>
        <time>2023-07-21T06:05:14.000Z</time>
      </trkpt>
      <trkpt lat="42.60913" lon="1.66521">
        <ele>2492.3999023438</ele>
        <time>2023-07-21T06:05:08.000Z</time>
      </trkpt>
      <trkpt lat="42.60913" lon="1.66523">
        <ele>2492.1999511719</ele>
        <time>2023-07-21T06:05:07.000Z</time>
      </trkpt>
      <trkpt lat="42.60913" lon="1.6653">
        <ele>2491.3999023438</ele>
        <time>2023-07-21T06:05:00.000Z</time>
      </trkpt>
      <trkpt lat="42.60912" lon="1.66536">
        <ele>2491.1999511719</ele>
        <time>2023-07-21T06:04:54.000Z</time>
      </trkpt>
      <trkpt lat="42.60912" lon="1.66538">
        <ele>2490.8000488281</ele>
        <time>2023-07-21T06:04:52.000Z</time>
      </trkpt>
      <trkpt lat="42.60911" lon="1.66546">
        <ele>2490.1999511719</ele>
        <time>2023-07-21T06:04:45.000Z</time>
      </trkpt>
      <trkpt lat="42.60911" lon="1.66547">
        <ele>2490.1999511719</ele>
        <time>2023-07-21T06:04:44.000Z</time>
      </trkpt>
      <trkpt lat="42.60911" lon="1.66553">
        <ele>2489.6000976562</ele>
        <time>2023-07-21T06:04:38.000Z</time>
      </trkpt>
      <trkpt lat="42.60908" lon="1.66556">
        <ele>2489</ele>
        <time>2023-07-21T06:04:31.000Z</time>
      </trkpt>
      <trkpt lat="42.60907" lon="1.66566">
        <ele>2489.1999511719</ele>
        <time>2023-07-21T06:04:23.000Z</time>
      </trkpt>
      <trkpt lat="42.60907" lon="1.66568">
        <ele>2489</ele>
        <time>2023-07-21T06:04:22.000Z</time>
      </trkpt>
      <trkpt lat="42.60908" lon="1.66579">
        <ele>2488</ele>
        <time>2023-07-21T06:04:14.000Z</time>
      </trkpt>
      <trkpt lat="42.60908" lon="1.6658">
        <ele>2487.8000488281</ele>
        <time>2023-07-21T06:04:13.000Z</time>
      </trkpt>
      <trkpt lat="42.60906" lon="1.6659">
        <ele>2487.6000976562</ele>
        <time>2023-07-21T06:04:05.000Z</time>
      </trkpt>
      <trkpt lat="42.60904" lon="1.66604">
        <ele>2487.3999023438</ele>
        <time>2023-07-21T06:03:54.000Z</time>
      </trkpt>
      <trkpt lat="42.60905" lon="1.66608">
        <ele>2486.8000488281</ele>
        <time>2023-07-21T06:03:48.000Z</time>
      </trkpt>
      <trkpt lat="42.60904" lon="1.66613">
        <ele>2486.3999023438</ele>
        <time>2023-07-21T06:03:43.000Z</time>
      </trkpt>
      <trkpt lat="42.60904" lon="1.66615">
        <ele>2485.8000488281</ele>
        <time>2023-07-21T06:03:41.000Z</time>
      </trkpt>
      <trkpt lat="42.60901" lon="1.6662">
        <ele>2485.1999511719</ele>
        <time>2023-07-21T06:03:35.000Z</time>
      </trkpt>
      <trkpt lat="42.609" lon="1.66625">
        <ele>2484.6000976562</ele>
        <time>2023-07-21T06:03:29.000Z</time>
      </trkpt>
      <trkpt lat="42.609" lon="1.66627">
        <ele>2484</ele>
        <time>2023-07-21T06:03:25.000Z</time>
      </trkpt>
      <trkpt lat="42.609" lon="1.6663">
        <ele>2483.6000976562</ele>
        <time>2023-07-21T06:03:21.000Z</time>
      </trkpt>
      <trkpt lat="42.60899" lon="1.66632">
        <ele>2483.1999511719</ele>
        <time>2023-07-21T06:03:18.000Z</time>
      </trkpt>
      <trkpt lat="42.60899" lon="1.66636">
        <ele>2482.3999023438</ele>
        <time>2023-07-21T06:03:13.000Z</time>
      </trkpt>
      <trkpt lat="42.60899" lon="1.66637">
        <ele>2482</ele>
        <time>2023-07-21T06:03:10.000Z</time>
      </trkpt>
      <trkpt lat="42.60898" lon="1.66637">
        <ele>2481.3999023438</ele>
        <time>2023-07-21T06:03:08.000Z</time>
      </trkpt>
      <trkpt lat="42.60894" lon="1.66636">
        <ele>2480.3999023438</ele>
        <time>2023-07-21T06:03:01.000Z</time>
      </trkpt>
      <trkpt lat="42.60892" lon="1.66636">
        <ele>2480.1999511719</ele>
        <time>2023-07-21T06:02:57.000Z</time>
      </trkpt>
      <trkpt lat="42.60891" lon="1.66638">
        <ele>2480</ele>
        <time>2023-07-21T06:02:54.000Z</time>
      </trkpt>
      <trkpt lat="42.60889" lon="1.66643">
        <ele>2479.1999511719</ele>
        <time>2023-07-21T06:02:45.000Z</time>
      </trkpt>
      <trkpt lat="42.60891" lon="1.66648">
        <ele>2479.8000488281</ele>
        <time>2023-07-21T06:02:38.000Z</time>
      </trkpt>
      <trkpt lat="42.60892" lon="1.66648">
        <ele>2479.8000488281</ele>
        <time>2023-07-21T06:02:31.000Z</time>
      </trkpt>
      <trkpt lat="42.60895" lon="1.66649">
        <ele>2479.6000976562</ele>
        <time>2023-07-21T06:02:22.000Z</time>
      </trkpt>
      <trkpt lat="42.60894" lon="1.66648">
        <ele>2479.1999511719</ele>
        <time>2023-07-21T06:02:14.000Z</time>
      </trkpt>
      <trkpt lat="42.60894" lon="1.66648">
        <ele>2479</ele>
        <time>2023-07-21T06:02:13.000Z</time>
      </trkpt>
      <trkpt lat="42.60891" lon="1.66647">
        <ele>2478.3999023438</ele>
        <time>2023-07-21T06:02:06.000Z</time>
      </trkpt>
      <trkpt lat="42.6089" lon="1.66646">
        <ele>2478</ele>
        <time>2023-07-21T06:01:59.000Z</time>
      </trkpt>
      <trkpt lat="42.6089" lon="1.66647">
        <ele>2477.6000976562</ele>
        <time>2023-07-21T06:01:55.000Z</time>
      </trkpt>
      <trkpt lat="42.60889" lon="1.66647">
        <ele>2477</ele>
        <time>2023-07-21T06:01:51.000Z</time>
      </trkpt>
      <trkpt lat="42.60887" lon="1.66646">
        <ele>2476</ele>
        <time>2023-07-21T06:01:45.000Z</time>
      </trkpt>
      <trkpt lat="42.60884" lon="1.66646">
        <ele>2475</ele>
        <time>2023-07-21T06:01:39.000Z</time>
      </trkpt>
      <trkpt lat="42.60883" lon="1.66649">
        <ele>2474.1999511719</ele>
        <time>2023-07-21T06:01:35.000Z</time>
      </trkpt>
      <trkpt lat="42.60882" lon="1.66651">
        <ele>2473.8000488281</ele>
        <time>2023-07-21T06:01:30.000Z</time>
      </trkpt>
      <trkpt lat="42.60881" lon="1.6665">
        <ele>2473.8000488281</ele>
        <time>2023-07-21T06:01:28.000Z</time>
      </trkpt>
      <trkpt lat="42.6088" lon="1.66649">
        <ele>2473.6000976562</ele>
        <time>2023-07-21T06:01:21.000Z</time>
      </trkpt>
      <trkpt lat="42.60879" lon="1.66648">
        <ele>2473.1999511719</ele>
        <time>2023-07-21T06:01:13.000Z</time>
      </trkpt>
      <trkpt lat="42.60879" lon="1.66644">
        <ele>2472.8000488281</ele>
        <time>2023-07-21T06:01:08.000Z</time>
      </trkpt>
      <trkpt lat="42.60879" lon="1.66644">
        <ele>2472.1999511719</ele>
        <time>2023-07-21T06:01:05.000Z</time>
      </trkpt>
      <trkpt lat="42.60877" lon="1.66645">
        <ele>2471.6000976562</ele>
        <time>2023-07-21T06:01:02.000Z</time>
      </trkpt>
      <trkpt lat="42.60875" lon="1.66645">
        <ele>2470.6000976562</ele>
        <time>2023-07-21T06:00:56.000Z</time>
      </trkpt>
      <trkpt lat="42.60875" lon="1.66647">
        <ele>2469.3999023438</ele>
        <time>2023-07-21T06:00:47.000Z</time>
      </trkpt>
      <trkpt lat="42.60875" lon="1.6665">
        <ele>2469.6000976562</ele>
        <time>2023-07-21T06:00:38.000Z</time>
      </trkpt>
      <trkpt lat="42.60875" lon="1.66653">
        <ele>2469.3999023438</ele>
        <time>2023-07-21T06:00:30.000Z</time>
      </trkpt>
      <trkpt lat="42.60872" lon="1.66651">
        <ele>2469.1999511719</ele>
        <time>2023-07-21T06:00:20.000Z</time>
      </trkpt>
      <trkpt lat="42.60871" lon="1.66652">
        <ele>2469.1999511719</ele>
        <time>2023-07-21T06:00:17.000Z</time>
      </trkpt>
      <trkpt lat="42.60873" lon="1.66652">
        <ele>2469</ele>
        <time>2023-07-21T06:00:12.000Z</time>
      </trkpt>
      <trkpt lat="42.60872" lon="1.66652">
        <ele>2468.6000976562</ele>
        <time>2023-07-21T06:00:05.000Z</time>
      </trkpt>
      <trkpt lat="42.60872" lon="1.66653">
        <ele>2468.6000976562</ele>
        <time>2023-07-21T06:00:04.000Z</time>
      </trkpt>
      <trkpt lat="42.60869" lon="1.66656">
        <ele>2467.8000488281</ele>
        <time>2023-07-21T05:59:58.000Z</time>
      </trkpt>
      <trkpt lat="42.60868" lon="1.66658">
        <ele>2467.6000976562</ele>
        <time>2023-07-21T05:59:55.000Z</time>
      </trkpt>
      <trkpt lat="42.60866" lon="1.6666">
        <ele>2466.8000488281</ele>
        <time>2023-07-21T05:59:50.000Z</time>
      </trkpt>
      <trkpt lat="42.60864" lon="1.6666">
        <ele>2466.3999023438</ele>
        <time>2023-07-21T05:59:47.000Z</time>
      </trkpt>
      <trkpt lat="42.60861" lon="1.6666">
        <ele>2466</ele>
        <time>2023-07-21T05:59:43.000Z</time>
      </trkpt>
      <trkpt lat="42.60858" lon="1.66663">
        <ele>2465.3999023438</ele>
        <time>2023-07-21T05:59:38.000Z</time>
      </trkpt>
      <trkpt lat="42.60858" lon="1.66664">
        <ele>2465.1999511719</ele>
        <time>2023-07-21T05:59:37.000Z</time>
      </trkpt>
      <trkpt lat="42.60857" lon="1.66669">
        <ele>2464.1999511719</ele>
        <time>2023-07-21T05:59:30.000Z</time>
      </trkpt>
      <trkpt lat="42.60855" lon="1.6667">
        <ele>2463</ele>
        <time>2023-07-21T05:59:24.000Z</time>
      </trkpt>
      <trkpt lat="42.60853" lon="1.66671">
        <ele>2462.8000488281</ele>
        <time>2023-07-21T05:59:22.000Z</time>
      </trkpt>
      <trkpt lat="42.60853" lon="1.66673">
        <ele>2462</ele>
        <time>2023-07-21T05:59:17.000Z</time>
      </trkpt>
      <trkpt lat="42.60852" lon="1.66674">
        <ele>2461.6000976562</ele>
        <time>2023-07-21T05:59:14.000Z</time>
      </trkpt>
      <trkpt lat="42.6085" lon="1.66676">
        <ele>2460.8000488281</ele>
        <time>2023-07-21T05:59:08.000Z</time>
      </trkpt>
      <trkpt lat="42.60849" lon="1.66678">
        <ele>2460.3999023438</ele>
        <time>2023-07-21T05:59:06.000Z</time>
      </trkpt>
      <trkpt lat="42.60847" lon="1.66683">
        <ele>2459.8000488281</ele>
        <time>2023-07-21T05:59:00.000Z</time>
      </trkpt>
      <trkpt lat="42.60846" lon="1.66683">
        <ele>2459.6000976562</ele>
        <time>2023-07-21T05:58:59.000Z</time>
      </trkpt>
      <trkpt lat="42.60845" lon="1.66689">
        <ele>2458.6000976562</ele>
        <time>2023-07-21T05:58:51.000Z</time>
      </trkpt>
      <trkpt lat="42.60844" lon="1.66693">
        <ele>2457.3999023438</ele>
        <time>2023-07-21T05:58:45.000Z</time>
      </trkpt>
      <trkpt lat="42.60844" lon="1.66694">
        <ele>2457.1999511719</ele>
        <time>2023-07-21T05:58:43.000Z</time>
      </trkpt>
      <trkpt lat="42.60843" lon="1.66698">
        <ele>2456.3999023438</ele>
        <time>2023-07-21T05:58:38.000Z</time>
      </trkpt>
      <trkpt lat="42.60842" lon="1.667">
        <ele>2455.8000488281</ele>
        <time>2023-07-21T05:58:35.000Z</time>
      </trkpt>
      <trkpt lat="42.6084" lon="1.66704">
        <ele>2455.3999023438</ele>
        <time>2023-07-21T05:58:32.000Z</time>
      </trkpt>
      <trkpt lat="42.60838" lon="1.66707">
        <ele>2454.3999023438</ele>
        <time>2023-07-21T05:58:26.000Z</time>
      </trkpt>
      <trkpt lat="42.60837" lon="1.66708">
        <ele>2454.1999511719</ele>
        <time>2023-07-21T05:58:24.000Z</time>
      </trkpt>
      <trkpt lat="42.60835" lon="1.6671">
        <ele>2453.3999023438</ele>
        <time>2023-07-21T05:58:16.000Z</time>
      </trkpt>
      <trkpt lat="42.60835" lon="1.66711">
        <ele>2453.1999511719</ele>
        <time>2023-07-21T05:58:15.000Z</time>
      </trkpt>
      <trkpt lat="42.60833" lon="1.66713">
        <ele>2452.1999511719</ele>
        <time>2023-07-21T05:58:10.000Z</time>
      </trkpt>
      <trkpt lat="42.60832" lon="1.66715">
        <ele>2451.8000488281</ele>
        <time>2023-07-21T05:58:07.000Z</time>
      </trkpt>
      <trkpt lat="42.60831" lon="1.66718">
        <ele>2451</ele>
        <time>2023-07-21T05:58:02.000Z</time>
      </trkpt>
      <trkpt lat="42.60829" lon="1.6672">
        <ele>2450.1999511719</ele>
        <time>2023-07-21T05:57:57.000Z</time>
      </trkpt>
      <trkpt lat="42.60829" lon="1.6672">
        <ele>2450</ele>
        <time>2023-07-21T05:57:54.000Z</time>
      </trkpt>
      <trkpt lat="42.60827" lon="1.66723">
        <ele>2449</ele>
        <time>2023-07-21T05:57:49.000Z</time>
      </trkpt>
      <trkpt lat="42.60826" lon="1.66724">
        <ele>2449</ele>
        <time>2023-07-21T05:57:48.000Z</time>
      </trkpt>
      <trkpt lat="42.60824" lon="1.66728">
        <ele>2448</ele>
        <time>2023-07-21T05:57:41.000Z</time>
      </trkpt>
      <trkpt lat="42.60824" lon="1.66728">
        <ele>2447.8000488281</ele>
        <time>2023-07-21T05:57:39.000Z</time>
      </trkpt>
      <trkpt lat="42.60824" lon="1.66734">
        <ele>2447</ele>
        <time>2023-07-21T05:57:31.000Z</time>
      </trkpt>
      <trkpt lat="42.60824" lon="1.66738">
        <ele>2446.6000976562</ele>
        <time>2023-07-21T05:57:28.000Z</time>
      </trkpt>
      <trkpt lat="42.60822" lon="1.66741">
        <ele>2445.3999023438</ele>
        <time>2023-07-21T05:57:24.000Z</time>
      </trkpt>
      <trkpt lat="42.60822" lon="1.66741">
        <ele>2445.3999023438</ele>
        <time>2023-07-21T05:57:23.000Z</time>
      </trkpt>
      <trkpt lat="42.60818" lon="1.66745">
        <ele>2444.8000488281</ele>
        <time>2023-07-21T05:57:16.000Z</time>
      </trkpt>
      <trkpt lat="42.60816" lon="1.6675">
        <ele>2445</ele>
        <time>2023-07-21T05:57:07.000Z</time>
      </trkpt>
      <trkpt lat="42.60816" lon="1.66749">
        <ele>2444.8000488281</ele>
        <time>2023-07-21T05:56:57.000Z</time>
      </trkpt>
      <trkpt lat="42.60815" lon="1.66749">
        <ele>2444.3999023438</ele>
        <time>2023-07-21T05:56:52.000Z</time>
      </trkpt>
      <trkpt lat="42.60815" lon="1.66752">
        <ele>2443.8000488281</ele>
        <time>2023-07-21T05:56:48.000Z</time>
      </trkpt>
      <trkpt lat="42.60814" lon="1.66757">
        <ele>2443.1999511719</ele>
        <time>2023-07-21T05:56:43.000Z</time>
      </trkpt>
      <trkpt lat="42.60814" lon="1.66761">
        <ele>2443</ele>
        <time>2023-07-21T05:56:40.000Z</time>
      </trkpt>
      <trkpt lat="42.60812" lon="1.66768">
        <ele>2442</ele>
        <time>2023-07-21T05:56:33.000Z</time>
      </trkpt>
      <trkpt lat="42.60811" lon="1.66772">
        <ele>2441.1999511719</ele>
        <time>2023-07-21T05:56:26.000Z</time>
      </trkpt>
      <trkpt lat="42.60809" lon="1.66773">
        <ele>2441</ele>
        <time>2023-07-21T05:56:23.000Z</time>
      </trkpt>
      <trkpt lat="42.60806" lon="1.66775">
        <ele>2440</ele>
        <time>2023-07-21T05:56:18.000Z</time>
      </trkpt>
      <trkpt lat="42.60804" lon="1.66777">
        <ele>2439.6000976562</ele>
        <time>2023-07-21T05:56:15.000Z</time>
      </trkpt>
      <trkpt lat="42.608" lon="1.6678">
        <ele>2438.8000488281</ele>
        <time>2023-07-21T05:56:08.000Z</time>
      </trkpt>
      <trkpt lat="42.60799" lon="1.6678">
        <ele>2438.1999511719</ele>
        <time>2023-07-21T05:56:05.000Z</time>
      </trkpt>
      <trkpt lat="42.60797" lon="1.66778">
        <ele>2437.3999023438</ele>
        <time>2023-07-21T05:55:58.000Z</time>
      </trkpt>
      <trkpt lat="42.60795" lon="1.66781">
        <ele>2437.8000488281</ele>
        <time>2023-07-21T05:55:51.000Z</time>
      </trkpt>
      <trkpt lat="42.60795" lon="1.66782">
        <ele>2436.6000976562</ele>
        <time>2023-07-21T05:55:49.000Z</time>
      </trkpt>
      <trkpt lat="42.60795" lon="1.66784">
        <ele>2435.6000976562</ele>
        <time>2023-07-21T05:55:43.000Z</time>
      </trkpt>
      <trkpt lat="42.60795" lon="1.66784">
        <ele>2435.1999511719</ele>
        <time>2023-07-21T05:55:42.000Z</time>
      </trkpt>
      <trkpt lat="42.60793" lon="1.66784">
        <ele>2434.3999023438</ele>
        <time>2023-07-21T05:55:38.000Z</time>
      </trkpt>
      <trkpt lat="42.60792" lon="1.66785">
        <ele>2433.8000488281</ele>
        <time>2023-07-21T05:55:35.000Z</time>
      </trkpt>
      <trkpt lat="42.6079" lon="1.66787">
        <ele>2433.1999511719</ele>
        <time>2023-07-21T05:55:30.000Z</time>
      </trkpt>
      <trkpt lat="42.60789" lon="1.66789">
        <ele>2432.6000976562</ele>
        <time>2023-07-21T05:55:27.000Z</time>
      </trkpt>
      <trkpt lat="42.60785" lon="1.66794">
        <ele>2431.6000976562</ele>
        <time>2023-07-21T05:55:19.000Z</time>
      </trkpt>
      <trkpt lat="42.60785" lon="1.66796">
        <ele>2431.3999023438</ele>
        <time>2023-07-21T05:55:11.000Z</time>
      </trkpt>
      <trkpt lat="42.60786" lon="1.66795">
        <ele>2431.1999511719</ele>
        <time>2023-07-21T05:55:04.000Z</time>
      </trkpt>
      <trkpt lat="42.60785" lon="1.66793">
        <ele>2432</ele>
        <time>2023-07-21T05:54:56.000Z</time>
      </trkpt>
      <trkpt lat="42.60786" lon="1.66791">
        <ele>2432</ele>
        <time>2023-07-21T05:54:50.000Z</time>
      </trkpt>
      <trkpt lat="42.60786" lon="1.66793">
        <ele>2432.1999511719</ele>
        <time>2023-07-21T05:54:43.000Z</time>
      </trkpt>
      <trkpt lat="42.60786" lon="1.66793">
        <ele>2432.1999511719</ele>
        <time>2023-07-21T05:54:42.000Z</time>
      </trkpt>
      <trkpt lat="42.60786" lon="1.66793">
        <ele>2432.3999023438</ele>
        <time>2023-07-21T05:54:35.000Z</time>
      </trkpt>
      <trkpt lat="42.60786" lon="1.66793">
        <ele>2432.6000976562</ele>
        <time>2023-07-21T05:54:26.000Z</time>
      </trkpt>
      <trkpt lat="42.60786" lon="1.66793">
        <ele>2433</ele>
        <time>2023-07-21T05:54:16.000Z</time>
      </trkpt>
      <trkpt lat="42.60784" lon="1.66793">
        <ele>2433.1999511719</ele>
        <time>2023-07-21T05:54:10.000Z</time>
      </trkpt>
      <trkpt lat="42.60784" lon="1.66794">
        <ele>2433</ele>
        <time>2023-07-21T05:54:01.000Z</time>
      </trkpt>
      <trkpt lat="42.60785" lon="1.66791">
        <ele>2433</ele>
        <time>2023-07-21T05:53:54.000Z</time>
      </trkpt>
      <trkpt lat="42.60785" lon="1.66792">
        <ele>2433.3999023438</ele>
        <time>2023-07-21T05:53:46.000Z</time>
      </trkpt>
      <trkpt lat="42.60785" lon="1.66792">
        <ele>2433.1999511719</ele>
        <time>2023-07-21T05:53:42.000Z</time>
      </trkpt>
      <trkpt lat="42.60786" lon="1.66793">
        <ele>2432.8000488281</ele>
        <time>2023-07-21T05:53:40.000Z</time>
      </trkpt>
      <trkpt lat="42.6079" lon="1.66796">
        <ele>2432.1999511719</ele>
        <time>2023-07-21T05:53:34.000Z</time>
      </trkpt>
      <trkpt lat="42.60793" lon="1.66796">
        <ele>2432</ele>
        <time>2023-07-21T05:53:32.000Z</time>
      </trkpt>
      <trkpt lat="42.60799" lon="1.66797">
        <ele>2431</ele>
        <time>2023-07-21T05:53:26.000Z</time>
      </trkpt>
      <trkpt lat="42.60801" lon="1.66798">
        <ele>2430.8000488281</ele>
        <time>2023-07-21T05:53:23.000Z</time>
      </trkpt>
      <trkpt lat="42.60805" lon="1.66799">
        <ele>2430</ele>
        <time>2023-07-21T05:53:18.000Z</time>
      </trkpt>
      <trkpt lat="42.60808" lon="1.66799">
        <ele>2429.6000976562</ele>
        <time>2023-07-21T05:53:15.000Z</time>
      </trkpt>
      <trkpt lat="42.60812" lon="1.66801">
        <ele>2429.1999511719</ele>
        <time>2023-07-21T05:53:09.000Z</time>
      </trkpt>
      <trkpt lat="42.60818" lon="1.66804">
        <ele>2429</ele>
        <time>2023-07-21T05:53:01.000Z</time>
      </trkpt>
      <trkpt lat="42.60818" lon="1.66804">
        <ele>2429</ele>
        <time>2023-07-21T05:53:00.000Z</time>
      </trkpt>
      <trkpt lat="42.60824" lon="1.66809">
        <ele>2427.6000976562</ele>
        <time>2023-07-21T05:52:52.000Z</time>
      </trkpt>
      <trkpt lat="42.60828" lon="1.66814">
        <ele>2427.1999511719</ele>
        <time>2023-07-21T05:52:46.000Z</time>
      </trkpt>
      <trkpt lat="42.60834" lon="1.66821">
        <ele>2427</ele>
        <time>2023-07-21T05:52:39.000Z</time>
      </trkpt>
      <trkpt lat="42.60839" lon="1.6683">
        <ele>2427</ele>
        <time>2023-07-21T05:52:30.000Z</time>
      </trkpt>
      <trkpt lat="42.60843" lon="1.66837">
        <ele>2427.1999511719</ele>
        <time>2023-07-21T05:52:24.000Z</time>
      </trkpt>
      <trkpt lat="42.60845" lon="1.66841">
        <ele>2427.8000488281</ele>
        <time>2023-07-21T05:52:19.000Z</time>
      </trkpt>
      <trkpt lat="42.60847" lon="1.66842">
        <ele>2428.8000488281</ele>
        <time>2023-07-21T05:52:15.000Z</time>
      </trkpt>
      <trkpt lat="42.60847" lon="1.66842">
        <ele>2429</ele>
        <time>2023-07-21T05:52:14.000Z</time>
      </trkpt>
      <trkpt lat="42.60848" lon="1.66845">
        <ele>2430</ele>
        <time>2023-07-21T05:52:10.000Z</time>
      </trkpt>
      <trkpt lat="42.60848" lon="1.66846">
        <ele>2430.3999023438</ele>
        <time>2023-07-21T05:52:08.000Z</time>
      </trkpt>
      <trkpt lat="42.60852" lon="1.66849">
        <ele>2430.8000488281</ele>
        <time>2023-07-21T05:52:00.000Z</time>
      </trkpt>
      <trkpt lat="42.60851" lon="1.66851">
        <ele>2430.8000488281</ele>
        <time>2023-07-21T05:51:50.000Z</time>
      </trkpt>
      <trkpt lat="42.60851" lon="1.6685">
        <ele>2431.1999511719</ele>
        <time>2023-07-21T05:51:44.000Z</time>
      </trkpt>
      <trkpt lat="42.60851" lon="1.6685">
        <ele>2431.3999023438</ele>
        <time>2023-07-21T05:51:40.000Z</time>
      </trkpt>
      <trkpt lat="42.60851" lon="1.6685">
        <ele>2432</ele>
        <time>2023-07-21T05:51:34.000Z</time>
      </trkpt>
      <trkpt lat="42.60854" lon="1.66852">
        <ele>2432.3999023438</ele>
        <time>2023-07-21T05:51:27.000Z</time>
      </trkpt>
      <trkpt lat="42.60856" lon="1.66851">
        <ele>2432.1999511719</ele>
        <time>2023-07-21T05:51:24.000Z</time>
      </trkpt>
      <trkpt lat="42.60858" lon="1.66852">
        <ele>2431.6000976562</ele>
        <time>2023-07-21T05:51:21.000Z</time>
      </trkpt>
      <trkpt lat="42.60861" lon="1.66853">
        <ele>2431</ele>
        <time>2023-07-21T05:51:13.000Z</time>
      </trkpt>
      <trkpt lat="42.60862" lon="1.66853">
        <ele>2431</ele>
        <time>2023-07-21T05:51:12.000Z</time>
      </trkpt>
      <trkpt lat="42.60867" lon="1.66854">
        <ele>2430</ele>
        <time>2023-07-21T05:51:03.000Z</time>
      </trkpt>
      <trkpt lat="42.60868" lon="1.66854">
        <ele>2430</ele>
        <time>2023-07-21T05:51:02.000Z</time>
      </trkpt>
      <trkpt lat="42.60871" lon="1.66858">
        <ele>2429.6000976562</ele>
        <time>2023-07-21T05:50:55.000Z</time>
      </trkpt>
      <trkpt lat="42.60875" lon="1.66862">
        <ele>2429</ele>
        <time>2023-07-21T05:50:49.000Z</time>
      </trkpt>
      <trkpt lat="42.60876" lon="1.66862">
        <ele>2428.6000976562</ele>
        <time>2023-07-21T05:50:47.000Z</time>
      </trkpt>
      <trkpt lat="42.60882" lon="1.66863">
        <ele>2428.3999023438</ele>
        <time>2023-07-21T05:50:39.000Z</time>
      </trkpt>
      <trkpt lat="42.60885" lon="1.66863">
        <ele>2428</ele>
        <time>2023-07-21T05:50:32.000Z</time>
      </trkpt>
      <trkpt lat="42.60885" lon="1.66863">
        <ele>2427.8000488281</ele>
        <time>2023-07-21T05:50:28.000Z</time>
      </trkpt>
      <trkpt lat="42.60888" lon="1.66863">
        <ele>2427.3999023438</ele>
        <time>2023-07-21T05:50:25.000Z</time>
      </trkpt>
      <trkpt lat="42.6089" lon="1.66861">
        <ele>2426.8000488281</ele>
        <time>2023-07-21T05:50:21.000Z</time>
      </trkpt>
      <trkpt lat="42.60892" lon="1.6686">
        <ele>2426.3999023438</ele>
        <time>2023-07-21T05:50:17.000Z</time>
      </trkpt>
      <trkpt lat="42.60894" lon="1.6686">
        <ele>2425.8000488281</ele>
        <time>2023-07-21T05:50:13.000Z</time>
      </trkpt>
      <trkpt lat="42.60897" lon="1.66861">
        <ele>2424.8000488281</ele>
        <time>2023-07-21T05:50:08.000Z</time>
      </trkpt>
      <trkpt lat="42.60898" lon="1.66862">
        <ele>2424.6000976562</ele>
        <time>2023-07-21T05:50:05.000Z</time>
      </trkpt>
      <trkpt lat="42.60901" lon="1.66862">
        <ele>2424</ele>
        <time>2023-07-21T05:49:59.000Z</time>
      </trkpt>
      <trkpt lat="42.60902" lon="1.66862">
        <ele>2423.6000976562</ele>
        <time>2023-07-21T05:49:57.000Z</time>
      </trkpt>
      <trkpt lat="42.60903" lon="1.66862">
        <ele>2422.8000488281</ele>
        <time>2023-07-21T05:49:52.000Z</time>
      </trkpt>
      <trkpt lat="42.60905" lon="1.66862">
        <ele>2422.3999023438</ele>
        <time>2023-07-21T05:49:50.000Z</time>
      </trkpt>
      <trkpt lat="42.60908" lon="1.66862">
        <ele>2422</ele>
        <time>2023-07-21T05:49:45.000Z</time>
      </trkpt>
      <trkpt lat="42.60909" lon="1.66863">
        <ele>2421.3999023438</ele>
        <time>2023-07-21T05:49:42.000Z</time>
      </trkpt>
      <trkpt lat="42.60911" lon="1.66865">
        <ele>2420.6000976562</ele>
        <time>2023-07-21T05:49:37.000Z</time>
      </trkpt>
      <trkpt lat="42.60912" lon="1.66866">
        <ele>2420.1999511719</ele>
        <time>2023-07-21T05:49:34.000Z</time>
      </trkpt>
      <trkpt lat="42.60913" lon="1.66867">
        <ele>2419.6000976562</ele>
        <time>2023-07-21T05:49:29.000Z</time>
      </trkpt>
      <trkpt lat="42.60915" lon="1.66868">
        <ele>2419.1999511719</ele>
        <time>2023-07-21T05:49:25.000Z</time>
      </trkpt>
      <trkpt lat="42.60918" lon="1.66869">
        <ele>2418.3999023438</ele>
        <time>2023-07-21T05:49:20.000Z</time>
      </trkpt>
      <trkpt lat="42.60918" lon="1.66869">
        <ele>2418.1999511719</ele>
        <time>2023-07-21T05:49:19.000Z</time>
      </trkpt>
      <trkpt lat="42.6092" lon="1.66871">
        <ele>2417</ele>
        <time>2023-07-21T05:49:13.000Z</time>
      </trkpt>
      <trkpt lat="42.6092" lon="1.66871">
        <ele>2416.6000976562</ele>
        <time>2023-07-21T05:49:12.000Z</time>
      </trkpt>
      <trkpt lat="42.60923" lon="1.66876">
        <ele>2415.8000488281</ele>
        <time>2023-07-21T05:49:04.000Z</time>
      </trkpt>
      <trkpt lat="42.60925" lon="1.66879">
        <ele>2414.6000976562</ele>
        <time>2023-07-21T05:48:57.000Z</time>
      </trkpt>
      <trkpt lat="42.60926" lon="1.66879">
        <ele>2414.1999511719</ele>
        <time>2023-07-21T05:48:55.000Z</time>
      </trkpt>
      <trkpt lat="42.60927" lon="1.66882">
        <ele>2413.6000976562</ele>
        <time>2023-07-21T05:48:51.000Z</time>
      </trkpt>
      <trkpt lat="42.60929" lon="1.66884">
        <ele>2412.8000488281</ele>
        <time>2023-07-21T05:48:48.000Z</time>
      </trkpt>
      <trkpt lat="42.6093" lon="1.66885">
        <ele>2412.3999023438</ele>
        <time>2023-07-21T05:48:45.000Z</time>
      </trkpt>
      <trkpt lat="42.60932" lon="1.66888">
        <ele>2411.3999023438</ele>
        <time>2023-07-21T05:48:40.000Z</time>
      </trkpt>
      <trkpt lat="42.60933" lon="1.66888">
        <ele>2411</ele>
        <time>2023-07-21T05:48:39.000Z</time>
      </trkpt>
      <trkpt lat="42.60938" lon="1.66888">
        <ele>2410</ele>
        <time>2023-07-21T05:48:31.000Z</time>
      </trkpt>
      <trkpt lat="42.60941" lon="1.66889">
        <ele>2408.8000488281</ele>
        <time>2023-07-21T05:48:26.000Z</time>
      </trkpt>
      <trkpt lat="42.60941" lon="1.66889">
        <ele>2408.3999023438</ele>
        <time>2023-07-21T05:48:24.000Z</time>
      </trkpt>
      <trkpt lat="42.60943" lon="1.66891">
        <ele>2407.8000488281</ele>
        <time>2023-07-21T05:48:18.000Z</time>
      </trkpt>
      <trkpt lat="42.60947" lon="1.66894">
        <ele>2406.8000488281</ele>
        <time>2023-07-21T05:48:13.000Z</time>
      </trkpt>
      <trkpt lat="42.60949" lon="1.66896">
        <ele>2405.8000488281</ele>
        <time>2023-07-21T05:48:07.000Z</time>
      </trkpt>
      <trkpt lat="42.60951" lon="1.66898">
        <ele>2405.3999023438</ele>
        <time>2023-07-21T05:48:04.000Z</time>
      </trkpt>
      <trkpt lat="42.60954" lon="1.66903">
        <ele>2404.8000488281</ele>
        <time>2023-07-21T05:47:59.000Z</time>
      </trkpt>
      <trkpt lat="42.60955" lon="1.66903">
        <ele>2404.8000488281</ele>
        <time>2023-07-21T05:47:58.000Z</time>
      </trkpt>
      <trkpt lat="42.60956" lon="1.66904">
        <ele>2405</ele>
        <time>2023-07-21T05:47:51.000Z</time>
      </trkpt>
      <trkpt lat="42.60956" lon="1.66904">
        <ele>2404.8000488281</ele>
        <time>2023-07-21T05:47:44.000Z</time>
      </trkpt>
      <trkpt lat="42.60955" lon="1.66903">
        <ele>2403.6000976562</ele>
        <time>2023-07-21T05:47:38.000Z</time>
      </trkpt>
      <trkpt lat="42.60955" lon="1.66904">
        <ele>2403.3999023438</ele>
        <time>2023-07-21T05:47:37.000Z</time>
      </trkpt>
      <trkpt lat="42.60957" lon="1.66905">
        <ele>2402.6000976562</ele>
        <time>2023-07-21T05:47:34.000Z</time>
      </trkpt>
      <trkpt lat="42.60959" lon="1.66907">
        <ele>2401.6000976562</ele>
        <time>2023-07-21T05:47:28.000Z</time>
      </trkpt>
      <trkpt lat="42.60961" lon="1.66909">
        <ele>2401.6000976562</ele>
        <time>2023-07-21T05:47:25.000Z</time>
      </trkpt>
      <trkpt lat="42.60964" lon="1.66912">
        <ele>2400.3999023438</ele>
        <time>2023-07-21T05:47:21.000Z</time>
      </trkpt>
      <trkpt lat="42.60968" lon="1.66916">
        <ele>2399.3999023438</ele>
        <time>2023-07-21T05:47:14.000Z</time>
      </trkpt>
      <trkpt lat="42.60969" lon="1.66918">
        <ele>2399.1999511719</ele>
        <time>2023-07-21T05:47:12.000Z</time>
      </trkpt>
      <trkpt lat="42.60971" lon="1.66919">
        <ele>2398.1999511719</ele>
        <time>2023-07-21T05:47:08.000Z</time>
      </trkpt>
      <trkpt lat="42.60971" lon="1.66919">
        <ele>2398</ele>
        <time>2023-07-21T05:47:06.000Z</time>
      </trkpt>
      <trkpt lat="42.60972" lon="1.66922">
        <ele>2397.8000488281</ele>
        <time>2023-07-21T05:46:59.000Z</time>
      </trkpt>
      <trkpt lat="42.60972" lon="1.66922">
        <ele>2397.8000488281</ele>
        <time>2023-07-21T05:46:54.000Z</time>
      </trkpt>
      <trkpt lat="42.60974" lon="1.66921">
        <ele>2397.3999023438</ele>
        <time>2023-07-21T05:46:47.000Z</time>
      </trkpt>
      <trkpt lat="42.60975" lon="1.66921">
        <ele>2397</ele>
        <time>2023-07-21T05:46:42.000Z</time>
      </trkpt>
      <trkpt lat="42.60975" lon="1.66922">
        <ele>2396.6000976562</ele>
        <time>2023-07-21T05:46:39.000Z</time>
      </trkpt>
      <trkpt lat="42.60976" lon="1.66923">
        <ele>2395.8000488281</ele>
        <time>2023-07-21T05:46:35.000Z</time>
      </trkpt>
      <trkpt lat="42.60978" lon="1.66925">
        <ele>2394.8000488281</ele>
        <time>2023-07-21T05:46:31.000Z</time>
      </trkpt>
      <trkpt lat="42.60979" lon="1.66925">
        <ele>2394.6000976562</ele>
        <time>2023-07-21T05:46:29.000Z</time>
      </trkpt>
      <trkpt lat="42.60981" lon="1.66924">
        <ele>2393.3999023438</ele>
        <time>2023-07-21T05:46:22.000Z</time>
      </trkpt>
      <trkpt lat="42.60984" lon="1.66924">
        <ele>2392.3999023438</ele>
        <time>2023-07-21T05:46:16.000Z</time>
      </trkpt>
      <trkpt lat="42.60984" lon="1.66925">
        <ele>2392</ele>
        <time>2023-07-21T05:46:14.000Z</time>
      </trkpt>
      <trkpt lat="42.60986" lon="1.66926">
        <ele>2391.1999511719</ele>
        <time>2023-07-21T05:46:10.000Z</time>
      </trkpt>
      <trkpt lat="42.60987" lon="1.66925">
        <ele>2390.1999511719</ele>
        <time>2023-07-21T05:46:05.000Z</time>
      </trkpt>
      <trkpt lat="42.60988" lon="1.66927">
        <ele>2389.3999023438</ele>
        <time>2023-07-21T05:45:58.000Z</time>
      </trkpt>
      <trkpt lat="42.60989" lon="1.66928">
        <ele>2389</ele>
        <time>2023-07-21T05:45:56.000Z</time>
      </trkpt>
      <trkpt lat="42.60992" lon="1.66928">
        <ele>2388</ele>
        <time>2023-07-21T05:45:50.000Z</time>
      </trkpt>
      <trkpt lat="42.60992" lon="1.66928">
        <ele>2387.8000488281</ele>
        <time>2023-07-21T05:45:49.000Z</time>
      </trkpt>
      <trkpt lat="42.60995" lon="1.66927">
        <ele>2387</ele>
        <time>2023-07-21T05:45:43.000Z</time>
      </trkpt>
      <trkpt lat="42.60996" lon="1.66926">
        <ele>2386.3999023438</ele>
        <time>2023-07-21T05:45:41.000Z</time>
      </trkpt>
      <trkpt lat="42.60996" lon="1.66926">
        <ele>2385.8000488281</ele>
        <time>2023-07-21T05:45:38.000Z</time>
      </trkpt>
      <trkpt lat="42.60997" lon="1.66928">
        <ele>2385.1999511719</ele>
        <time>2023-07-21T05:45:35.000Z</time>
      </trkpt>
      <trkpt lat="42.60998" lon="1.66929">
        <ele>2384.6000976562</ele>
        <time>2023-07-21T05:45:31.000Z</time>
      </trkpt>
      <trkpt lat="42.60999" lon="1.6693">
        <ele>2384</ele>
        <time>2023-07-21T05:45:27.000Z</time>
      </trkpt>
      <trkpt lat="42.61001" lon="1.6693">
        <ele>2383.6000976562</ele>
        <time>2023-07-21T05:45:22.000Z</time>
      </trkpt>
      <trkpt lat="42.61001" lon="1.6693">
        <ele>2383.3999023438</ele>
        <time>2023-07-21T05:45:21.000Z</time>
      </trkpt>
      <trkpt lat="42.61004" lon="1.66931">
        <ele>2382.3999023438</ele>
        <time>2023-07-21T05:45:17.000Z</time>
      </trkpt>
      <trkpt lat="42.61003" lon="1.66931">
        <ele>2381.8000488281</ele>
        <time>2023-07-21T05:45:14.000Z</time>
      </trkpt>
      <trkpt lat="42.61004" lon="1.66932">
        <ele>2381.1999511719</ele>
        <time>2023-07-21T05:45:12.000Z</time>
      </trkpt>
      <trkpt lat="42.61001" lon="1.66934">
        <ele>2380.1999511719</ele>
        <time>2023-07-21T05:45:07.000Z</time>
      </trkpt>
      <trkpt lat="42.61001" lon="1.66934">
        <ele>2380</ele>
        <time>2023-07-21T05:45:06.000Z</time>
      </trkpt>
      <trkpt lat="42.61001" lon="1.66934">
        <ele>2379</ele>
        <time>2023-07-21T05:45:01.000Z</time>
      </trkpt>
      <trkpt lat="42.61001" lon="1.66935">
        <ele>2378.6000976562</ele>
        <time>2023-07-21T05:44:59.000Z</time>
      </trkpt>
      <trkpt lat="42.61002" lon="1.66933">
        <ele>2378</ele>
        <time>2023-07-21T05:44:55.000Z</time>
      </trkpt>
      <trkpt lat="42.61003" lon="1.66933">
        <ele>2377.6000976562</ele>
        <time>2023-07-21T05:44:53.000Z</time>
      </trkpt>
      <trkpt lat="42.61005" lon="1.66933">
        <ele>2377</ele>
        <time>2023-07-21T05:44:49.000Z</time>
      </trkpt>
      <trkpt lat="42.61008" lon="1.66934">
        <ele>2376</ele>
        <time>2023-07-21T05:44:44.000Z</time>
      </trkpt>
      <trkpt lat="42.6101" lon="1.66935">
        <ele>2375.6000976562</ele>
        <time>2023-07-21T05:44:41.000Z</time>
      </trkpt>
      <trkpt lat="42.61011" lon="1.66936">
        <ele>2374.8000488281</ele>
        <time>2023-07-21T05:44:36.000Z</time>
      </trkpt>
      <trkpt lat="42.6101" lon="1.66937">
        <ele>2374.6000976562</ele>
        <time>2023-07-21T05:44:35.000Z</time>
      </trkpt>
      <trkpt lat="42.61009" lon="1.66939">
        <ele>2373.3999023438</ele>
        <time>2023-07-21T05:44:29.000Z</time>
      </trkpt>
      <trkpt lat="42.61009" lon="1.66939">
        <ele>2373.1999511719</ele>
        <time>2023-07-21T05:44:28.000Z</time>
      </trkpt>
      <trkpt lat="42.6101" lon="1.6694">
        <ele>2372.3999023438</ele>
        <time>2023-07-21T05:44:24.000Z</time>
      </trkpt>
      <trkpt lat="42.61011" lon="1.66941">
        <ele>2372</ele>
        <time>2023-07-21T05:44:22.000Z</time>
      </trkpt>
      <trkpt lat="42.61015" lon="1.66943">
        <ele>2371.1999511719</ele>
        <time>2023-07-21T05:44:15.000Z</time>
      </trkpt>
      <trkpt lat="42.61016" lon="1.66943">
        <ele>2370</ele>
        <time>2023-07-21T05:44:07.000Z</time>
      </trkpt>
      <trkpt lat="42.61016" lon="1.66943">
        <ele>2369.8000488281</ele>
        <time>2023-07-21T05:44:06.000Z</time>
      </trkpt>
      <trkpt lat="42.61018" lon="1.66943">
        <ele>2369</ele>
        <time>2023-07-21T05:44:01.000Z</time>
      </trkpt>
      <trkpt lat="42.61018" lon="1.66944">
        <ele>2368.6000976562</ele>
        <time>2023-07-21T05:44:00.000Z</time>
      </trkpt>
      <trkpt lat="42.6102" lon="1.66944">
        <ele>2367.8000488281</ele>
        <time>2023-07-21T05:43:56.000Z</time>
      </trkpt>
      <trkpt lat="42.61023" lon="1.66945">
        <ele>2366.8000488281</ele>
        <time>2023-07-21T05:43:53.000Z</time>
      </trkpt>
      <trkpt lat="42.61023" lon="1.66945">
        <ele>2366.6000976562</ele>
        <time>2023-07-21T05:43:52.000Z</time>
      </trkpt>
      <trkpt lat="42.61025" lon="1.66947">
        <ele>2365.6000976562</ele>
        <time>2023-07-21T05:43:45.000Z</time>
      </trkpt>
      <trkpt lat="42.61024" lon="1.66947">
        <ele>2365.3999023438</ele>
        <time>2023-07-21T05:43:43.000Z</time>
      </trkpt>
      <trkpt lat="42.61022" lon="1.66949">
        <ele>2364.3999023438</ele>
        <time>2023-07-21T05:43:38.000Z</time>
      </trkpt>
      <trkpt lat="42.61021" lon="1.6695">
        <ele>2364.1999511719</ele>
        <time>2023-07-21T05:43:37.000Z</time>
      </trkpt>
      <trkpt lat="42.61021" lon="1.66953">
        <ele>2363.3999023438</ele>
        <time>2023-07-21T05:43:29.000Z</time>
      </trkpt>
      <trkpt lat="42.61021" lon="1.66953">
        <ele>2363.1999511719</ele>
        <time>2023-07-21T05:43:28.000Z</time>
      </trkpt>
      <trkpt lat="42.61023" lon="1.66951">
        <ele>2362.1999511719</ele>
        <time>2023-07-21T05:43:23.000Z</time>
      </trkpt>
      <trkpt lat="42.61024" lon="1.66951">
        <ele>2362</ele>
        <time>2023-07-21T05:43:21.000Z</time>
      </trkpt>
      <trkpt lat="42.61025" lon="1.66952">
        <ele>2361.1999511719</ele>
        <time>2023-07-21T05:43:15.000Z</time>
      </trkpt>
      <trkpt lat="42.61026" lon="1.66951">
        <ele>2361</ele>
        <time>2023-07-21T05:43:14.000Z</time>
      </trkpt>
      <trkpt lat="42.61028" lon="1.66951">
        <ele>2360</ele>
        <time>2023-07-21T05:43:08.000Z</time>
      </trkpt>
      <trkpt lat="42.6103" lon="1.66953">
        <ele>2359</ele>
        <time>2023-07-21T05:43:00.000Z</time>
      </trkpt>
      <trkpt lat="42.6103" lon="1.66953">
        <ele>2358.8000488281</ele>
        <time>2023-07-21T05:42:59.000Z</time>
      </trkpt>
      <trkpt lat="42.61033" lon="1.66952">
        <ele>2358</ele>
        <time>2023-07-21T05:42:53.000Z</time>
      </trkpt>
      <trkpt lat="42.61034" lon="1.66952">
        <ele>2357.8000488281</ele>
        <time>2023-07-21T05:42:52.000Z</time>
      </trkpt>
      <trkpt lat="42.61034" lon="1.6695">
        <ele>2356.8000488281</ele>
        <time>2023-07-21T05:42:48.000Z</time>
      </trkpt>
      <trkpt lat="42.61036" lon="1.66951">
        <ele>2356.3999023438</ele>
        <time>2023-07-21T05:42:46.000Z</time>
      </trkpt>
      <trkpt lat="42.6104" lon="1.66954">
        <ele>2355.6000976562</ele>
        <time>2023-07-21T05:42:38.000Z</time>
      </trkpt>
      <trkpt lat="42.6104" lon="1.66954">
        <ele>2355.6000976562</ele>
        <time>2023-07-21T05:42:37.000Z</time>
      </trkpt>
      <trkpt lat="42.61042" lon="1.66955">
        <ele>2354.6000976562</ele>
        <time>2023-07-21T05:42:32.000Z</time>
      </trkpt>
      <trkpt lat="42.61043" lon="1.66955">
        <ele>2354.3999023438</ele>
        <time>2023-07-21T05:42:30.000Z</time>
      </trkpt>
      <trkpt lat="42.61045" lon="1.66957">
        <ele>2354</ele>
        <time>2023-07-21T05:42:24.000Z</time>
      </trkpt>
      <trkpt lat="42.61046" lon="1.66957">
        <ele>2353.8000488281</ele>
        <time>2023-07-21T05:42:23.000Z</time>
      </trkpt>
      <trkpt lat="42.61047" lon="1.66957">
        <ele>2353.6000976562</ele>
        <time>2023-07-21T05:42:22.000Z</time>
      </trkpt>
      <trkpt lat="42.61047" lon="1.66958">
        <ele>2353.3999023438</ele>
        <time>2023-07-21T05:42:21.000Z</time>
      </trkpt>
      <trkpt lat="42.61051" lon="1.66958">
        <ele>2353.3999023438</ele>
        <time>2023-07-21T05:42:17.000Z</time>
      </trkpt>
      <trkpt lat="42.61055" lon="1.66959">
        <ele>2352.8000488281</ele>
        <time>2023-07-21T05:42:11.000Z</time>
      </trkpt>
      <trkpt lat="42.61056" lon="1.66958">
        <ele>2352.3999023438</ele>
        <time>2023-07-21T05:42:09.000Z</time>
      </trkpt>
      <trkpt lat="42.61057" lon="1.6696">
        <ele>2351.8000488281</ele>
        <time>2023-07-21T05:42:03.000Z</time>
      </trkpt>
      <trkpt lat="42.61058" lon="1.66961">
        <ele>2351.3999023438</ele>
        <time>2023-07-21T05:42:01.000Z</time>
      </trkpt>
      <trkpt lat="42.61062" lon="1.66963">
        <ele>2350.3999023438</ele>
        <time>2023-07-21T05:41:54.000Z</time>
      </trkpt>
      <trkpt lat="42.61063" lon="1.66963">
        <ele>2350.3999023438</ele>
        <time>2023-07-21T05:41:53.000Z</time>
      </trkpt>
      <trkpt lat="42.61068" lon="1.66966">
        <ele>2349.6000976562</ele>
        <time>2023-07-21T05:41:46.000Z</time>
      </trkpt>
      <trkpt lat="42.61073" lon="1.66968">
        <ele>2348.8000488281</ele>
        <time>2023-07-21T05:41:39.000Z</time>
      </trkpt>
      <trkpt lat="42.61078" lon="1.66967">
        <ele>2349</ele>
        <time>2023-07-21T05:41:32.000Z</time>
      </trkpt>
      <trkpt lat="42.61078" lon="1.66968">
        <ele>2349.1999511719</ele>
        <time>2023-07-21T05:41:24.000Z</time>
      </trkpt>
      <trkpt lat="42.61074" lon="1.66965">
        <ele>2349.3999023438</ele>
        <time>2023-07-21T05:41:14.000Z</time>
      </trkpt>
      <trkpt lat="42.61076" lon="1.66967">
        <ele>2349.3999023438</ele>
        <time>2023-07-21T05:41:06.000Z</time>
      </trkpt>
      <trkpt lat="42.61079" lon="1.66967">
        <ele>2349.3999023438</ele>
        <time>2023-07-21T05:41:02.000Z</time>
      </trkpt>
      <trkpt lat="42.61081" lon="1.66966">
        <ele>2348.8000488281</ele>
        <time>2023-07-21T05:40:58.000Z</time>
      </trkpt>
      <trkpt lat="42.61082" lon="1.66965">
        <ele>2348.3999023438</ele>
        <time>2023-07-21T05:40:55.000Z</time>
      </trkpt>
      <trkpt lat="42.61086" lon="1.66967">
        <ele>2347.3999023438</ele>
        <time>2023-07-21T05:40:49.000Z</time>
      </trkpt>
      <trkpt lat="42.61086" lon="1.66967">
        <ele>2347.3999023438</ele>
        <time>2023-07-21T05:40:48.000Z</time>
      </trkpt>
      <trkpt lat="42.61087" lon="1.66969">
        <ele>2346.3999023438</ele>
        <time>2023-07-21T05:40:42.000Z</time>
      </trkpt>
      <trkpt lat="42.61087" lon="1.66969">
        <ele>2346.1999511719</ele>
        <time>2023-07-21T05:40:36.000Z</time>
      </trkpt>
      <trkpt lat="42.61087" lon="1.66969">
        <ele>2346</ele>
        <time>2023-07-21T05:40:35.000Z</time>
      </trkpt>
      <trkpt lat="42.6109" lon="1.66969">
        <ele>2345</ele>
        <time>2023-07-21T05:40:30.000Z</time>
      </trkpt>
      <trkpt lat="42.61091" lon="1.66971">
        <ele>2344.6000976562</ele>
        <time>2023-07-21T05:40:26.000Z</time>
      </trkpt>
      <trkpt lat="42.61094" lon="1.66971">
        <ele>2344</ele>
        <time>2023-07-21T05:40:21.000Z</time>
      </trkpt>
      <trkpt lat="42.61094" lon="1.6697">
        <ele>2343.8000488281</ele>
        <time>2023-07-21T05:40:18.000Z</time>
      </trkpt>
      <trkpt lat="42.61098" lon="1.66971">
        <ele>2343</ele>
        <time>2023-07-21T05:40:11.000Z</time>
      </trkpt>
      <trkpt lat="42.61098" lon="1.66971">
        <ele>2343</ele>
        <time>2023-07-21T05:40:10.000Z</time>
      </trkpt>
      <trkpt lat="42.61098" lon="1.66972">
        <ele>2342</ele>
        <time>2023-07-21T05:40:04.000Z</time>
      </trkpt>
      <trkpt lat="42.61099" lon="1.66973">
        <ele>2341.6000976562</ele>
        <time>2023-07-21T05:40:01.000Z</time>
      </trkpt>
      <trkpt lat="42.61101" lon="1.66973">
        <ele>2341</ele>
        <time>2023-07-21T05:39:57.000Z</time>
      </trkpt>
      <trkpt lat="42.61101" lon="1.66973">
        <ele>2340.6000976562</ele>
        <time>2023-07-21T05:39:53.000Z</time>
      </trkpt>
      <trkpt lat="42.61102" lon="1.66973">
        <ele>2340</ele>
        <time>2023-07-21T05:39:50.000Z</time>
      </trkpt>
      <trkpt lat="42.61103" lon="1.66975">
        <ele>2339.3999023438</ele>
        <time>2023-07-21T05:39:46.000Z</time>
      </trkpt>
      <trkpt lat="42.61105" lon="1.66976">
        <ele>2339</ele>
        <time>2023-07-21T05:39:43.000Z</time>
      </trkpt>
      <trkpt lat="42.61107" lon="1.66977">
        <ele>2338.1999511719</ele>
        <time>2023-07-21T05:39:38.000Z</time>
      </trkpt>
      <trkpt lat="42.61108" lon="1.66977">
        <ele>2337.8000488281</ele>
        <time>2023-07-21T05:39:36.000Z</time>
      </trkpt>
      <trkpt lat="42.6111" lon="1.6698">
        <ele>2337.1999511719</ele>
        <time>2023-07-21T05:39:31.000Z</time>
      </trkpt>
      <trkpt lat="42.61111" lon="1.66981">
        <ele>2336.8000488281</ele>
        <time>2023-07-21T05:39:29.000Z</time>
      </trkpt>
      <trkpt lat="42.61112" lon="1.66981">
        <ele>2336</ele>
        <time>2023-07-21T05:39:24.000Z</time>
      </trkpt>
      <trkpt lat="42.61113" lon="1.66982">
        <ele>2335.8000488281</ele>
        <time>2023-07-21T05:39:21.000Z</time>
      </trkpt>
      <trkpt lat="42.61114" lon="1.66984">
        <ele>2334.8000488281</ele>
        <time>2023-07-21T05:39:15.000Z</time>
      </trkpt>
      <trkpt lat="42.61114" lon="1.66984">
        <ele>2334.6000976562</ele>
        <time>2023-07-21T05:39:14.000Z</time>
      </trkpt>
      <trkpt lat="42.61118" lon="1.66987">
        <ele>2333.8000488281</ele>
        <time>2023-07-21T05:39:08.000Z</time>
      </trkpt>
      <trkpt lat="42.61118" lon="1.66985">
        <ele>2333.3999023438</ele>
        <time>2023-07-21T05:39:04.000Z</time>
      </trkpt>
      <trkpt lat="42.61118" lon="1.66986">
        <ele>2333</ele>
        <time>2023-07-21T05:39:01.000Z</time>
      </trkpt>
      <trkpt lat="42.61118" lon="1.66987">
        <ele>2332.3999023438</ele>
        <time>2023-07-21T05:38:57.000Z</time>
      </trkpt>
      <trkpt lat="42.61118" lon="1.6699">
        <ele>2331.6000976562</ele>
        <time>2023-07-21T05:38:52.000Z</time>
      </trkpt>
      <trkpt lat="42.61119" lon="1.66991">
        <ele>2331.3999023438</ele>
        <time>2023-07-21T05:38:50.000Z</time>
      </trkpt>
      <trkpt lat="42.61119" lon="1.66992">
        <ele>2330.6000976562</ele>
        <time>2023-07-21T05:38:45.000Z</time>
      </trkpt>
      <trkpt lat="42.6112" lon="1.66992">
        <ele>2330.1999511719</ele>
        <time>2023-07-21T05:38:42.000Z</time>
      </trkpt>
      <trkpt lat="42.6112" lon="1.66993">
        <ele>2329.3999023438</ele>
        <time>2023-07-21T05:38:37.000Z</time>
      </trkpt>
      <trkpt lat="42.61121" lon="1.66993">
        <ele>2329.1999511719</ele>
        <time>2023-07-21T05:38:36.000Z</time>
      </trkpt>
      <trkpt lat="42.61123" lon="1.66997">
        <ele>2328</ele>
        <time>2023-07-21T05:38:29.000Z</time>
      </trkpt>
      <trkpt lat="42.61126" lon="1.66998">
        <ele>2327</ele>
        <time>2023-07-21T05:38:23.000Z</time>
      </trkpt>
      <trkpt lat="42.61127" lon="1.66998">
        <ele>2327</ele>
        <time>2023-07-21T05:38:14.000Z</time>
      </trkpt>
      <trkpt lat="42.61128" lon="1.67">
        <ele>2327</ele>
        <time>2023-07-21T05:38:05.000Z</time>
      </trkpt>
      <trkpt lat="42.61129" lon="1.66998">
        <ele>2327.1999511719</ele>
        <time>2023-07-21T05:37:58.000Z</time>
      </trkpt>
      <trkpt lat="42.61129" lon="1.66997">
        <ele>2327</ele>
        <time>2023-07-21T05:37:56.000Z</time>
      </trkpt>
      <trkpt lat="42.6113" lon="1.66998">
        <ele>2326.3999023438</ele>
        <time>2023-07-21T05:37:51.000Z</time>
      </trkpt>
      <trkpt lat="42.61135" lon="1.67">
        <ele>2326</ele>
        <time>2023-07-21T05:37:44.000Z</time>
      </trkpt>
      <trkpt lat="42.61136" lon="1.67">
        <ele>2325.8000488281</ele>
        <time>2023-07-21T05:37:43.000Z</time>
      </trkpt>
      <trkpt lat="42.61139" lon="1.66999">
        <ele>2324.8000488281</ele>
        <time>2023-07-21T05:37:38.000Z</time>
      </trkpt>
      <trkpt lat="42.61139" lon="1.67">
        <ele>2324.1999511719</ele>
        <time>2023-07-21T05:37:34.000Z</time>
      </trkpt>
      <trkpt lat="42.6114" lon="1.66999">
        <ele>2323.8000488281</ele>
        <time>2023-07-21T05:37:31.000Z</time>
      </trkpt>
      <trkpt lat="42.61141" lon="1.66999">
        <ele>2323.3999023438</ele>
        <time>2023-07-21T05:37:28.000Z</time>
      </trkpt>
      <trkpt lat="42.61141" lon="1.66998">
        <ele>2322.6000976562</ele>
        <time>2023-07-21T05:37:24.000Z</time>
      </trkpt>
      <trkpt lat="42.61143" lon="1.66999">
        <ele>2322</ele>
        <time>2023-07-21T05:37:19.000Z</time>
      </trkpt>
      <trkpt lat="42.61144" lon="1.66999">
        <ele>2321.6000976562</ele>
        <time>2023-07-21T05:37:17.000Z</time>
      </trkpt>
      <trkpt lat="42.61146" lon="1.67001">
        <ele>2320.8000488281</ele>
        <time>2023-07-21T05:37:12.000Z</time>
      </trkpt>
      <trkpt lat="42.61147" lon="1.67001">
        <ele>2320.6000976562</ele>
        <time>2023-07-21T05:37:10.000Z</time>
      </trkpt>
      <trkpt lat="42.61149" lon="1.67002">
        <ele>2319.6000976562</ele>
        <time>2023-07-21T05:37:03.000Z</time>
      </trkpt>
      <trkpt lat="42.6115" lon="1.67002">
        <ele>2319.6000976562</ele>
        <time>2023-07-21T05:37:01.000Z</time>
      </trkpt>
      <trkpt lat="42.61149" lon="1.67005">
        <ele>2318.6000976562</ele>
        <time>2023-07-21T05:36:54.000Z</time>
      </trkpt>
      <trkpt lat="42.61149" lon="1.67006">
        <ele>2318.3999023438</ele>
        <time>2023-07-21T05:36:53.000Z</time>
      </trkpt>
      <trkpt lat="42.6115" lon="1.67009">
        <ele>2317.3999023438</ele>
        <time>2023-07-21T05:36:46.000Z</time>
      </trkpt>
      <trkpt lat="42.6115" lon="1.67009">
        <ele>2317.1999511719</ele>
        <time>2023-07-21T05:36:45.000Z</time>
      </trkpt>
      <trkpt lat="42.61151" lon="1.67011">
        <ele>2316.3999023438</ele>
        <time>2023-07-21T05:36:41.000Z</time>
      </trkpt>
      <trkpt lat="42.61152" lon="1.6701">
        <ele>2316</ele>
        <time>2023-07-21T05:36:39.000Z</time>
      </trkpt>
      <trkpt lat="42.61153" lon="1.67008">
        <ele>2315.1999511719</ele>
        <time>2023-07-21T05:36:35.000Z</time>
      </trkpt>
      <trkpt lat="42.61153" lon="1.67007">
        <ele>2314.6000976562</ele>
        <time>2023-07-21T05:36:32.000Z</time>
      </trkpt>
      <trkpt lat="42.61159" lon="1.67008">
        <ele>2313.8000488281</ele>
        <time>2023-07-21T05:36:25.000Z</time>
      </trkpt>
      <trkpt lat="42.61162" lon="1.67009">
        <ele>2313.8000488281</ele>
        <time>2023-07-21T05:36:19.000Z</time>
      </trkpt>
      <trkpt lat="42.61164" lon="1.67011">
        <ele>2314</ele>
        <time>2023-07-21T05:36:12.000Z</time>
      </trkpt>
      <trkpt lat="42.61163" lon="1.67011">
        <ele>2314</ele>
        <time>2023-07-21T05:36:10.000Z</time>
      </trkpt>
      <trkpt lat="42.61162" lon="1.67011">
        <ele>2313.3999023438</ele>
        <time>2023-07-21T05:36:03.000Z</time>
      </trkpt>
      <trkpt lat="42.61163" lon="1.67012">
        <ele>2313</ele>
        <time>2023-07-21T05:36:00.000Z</time>
      </trkpt>
      <trkpt lat="42.61166" lon="1.67013">
        <ele>2312.3999023438</ele>
        <time>2023-07-21T05:35:55.000Z</time>
      </trkpt>
      <trkpt lat="42.61167" lon="1.67013">
        <ele>2312</ele>
        <time>2023-07-21T05:35:53.000Z</time>
      </trkpt>
      <trkpt lat="42.61168" lon="1.67012">
        <ele>2311.1999511719</ele>
        <time>2023-07-21T05:35:48.000Z</time>
      </trkpt>
      <trkpt lat="42.61168" lon="1.67012">
        <ele>2310.8000488281</ele>
        <time>2023-07-21T05:35:46.000Z</time>
      </trkpt>
      <trkpt lat="42.61169" lon="1.67016">
        <ele>2310</ele>
        <time>2023-07-21T05:35:39.000Z</time>
      </trkpt>
      <trkpt lat="42.61169" lon="1.67016">
        <ele>2309.8000488281</ele>
        <time>2023-07-21T05:35:38.000Z</time>
      </trkpt>
      <trkpt lat="42.6117" lon="1.67021">
        <ele>2308.6000976562</ele>
        <time>2023-07-21T05:35:30.000Z</time>
      </trkpt>
      <trkpt lat="42.6117" lon="1.67021">
        <ele>2308.6000976562</ele>
        <time>2023-07-21T05:35:29.000Z</time>
      </trkpt>
      <trkpt lat="42.6117" lon="1.67023">
        <ele>2307.3999023438</ele>
        <time>2023-07-21T05:35:23.000Z</time>
      </trkpt>
      <trkpt lat="42.61169" lon="1.67023">
        <ele>2307.1999511719</ele>
        <time>2023-07-21T05:35:22.000Z</time>
      </trkpt>
      <trkpt lat="42.61168" lon="1.67027">
        <ele>2306.3999023438</ele>
        <time>2023-07-21T05:35:18.000Z</time>
      </trkpt>
      <trkpt lat="42.61168" lon="1.6703">
        <ele>2305.3999023438</ele>
        <time>2023-07-21T05:35:13.000Z</time>
      </trkpt>
      <trkpt lat="42.61168" lon="1.67031">
        <ele>2305.1999511719</ele>
        <time>2023-07-21T05:35:12.000Z</time>
      </trkpt>
      <trkpt lat="42.61168" lon="1.67034">
        <ele>2304.3999023438</ele>
        <time>2023-07-21T05:35:07.000Z</time>
      </trkpt>
      <trkpt lat="42.61168" lon="1.67034">
        <ele>2304.1999511719</ele>
        <time>2023-07-21T05:35:05.000Z</time>
      </trkpt>
      <trkpt lat="42.61169" lon="1.67036">
        <ele>2303.6000976562</ele>
        <time>2023-07-21T05:35:00.000Z</time>
      </trkpt>
      <trkpt lat="42.61169" lon="1.67038">
        <ele>2303.1999511719</ele>
        <time>2023-07-21T05:34:58.000Z</time>
      </trkpt>
      <trkpt lat="42.61168" lon="1.67039">
        <ele>2302.1999511719</ele>
        <time>2023-07-21T05:34:52.000Z</time>
      </trkpt>
      <trkpt lat="42.61169" lon="1.6704">
        <ele>2302</ele>
        <time>2023-07-21T05:34:50.000Z</time>
      </trkpt>
      <trkpt lat="42.61172" lon="1.67044">
        <ele>2301</ele>
        <time>2023-07-21T05:34:44.000Z</time>
      </trkpt>
      <trkpt lat="42.61172" lon="1.67049">
        <ele>2299.8000488281</ele>
        <time>2023-07-21T05:34:38.000Z</time>
      </trkpt>
      <trkpt lat="42.61173" lon="1.67052">
        <ele>2299.1999511719</ele>
        <time>2023-07-21T05:34:34.000Z</time>
      </trkpt>
      <trkpt lat="42.61173" lon="1.67054">
        <ele>2298.8000488281</ele>
        <time>2023-07-21T05:34:31.000Z</time>
      </trkpt>
      <trkpt lat="42.61173" lon="1.67056">
        <ele>2297.6000976562</ele>
        <time>2023-07-21T05:34:26.000Z</time>
      </trkpt>
      <trkpt lat="42.61173" lon="1.67057">
        <ele>2297.3999023438</ele>
        <time>2023-07-21T05:34:25.000Z</time>
      </trkpt>
      <trkpt lat="42.61172" lon="1.67063">
        <ele>2296.6000976562</ele>
        <time>2023-07-21T05:34:19.000Z</time>
      </trkpt>
      <trkpt lat="42.61172" lon="1.67062">
        <ele>2296.6000976562</ele>
        <time>2023-07-21T05:34:11.000Z</time>
      </trkpt>
      <trkpt lat="42.61173" lon="1.67066">
        <ele>2296.3999023438</ele>
        <time>2023-07-21T05:34:03.000Z</time>
      </trkpt>
      <trkpt lat="42.61173" lon="1.67066">
        <ele>2296.1999511719</ele>
        <time>2023-07-21T05:34:02.000Z</time>
      </trkpt>
      <trkpt lat="42.61173" lon="1.67068">
        <ele>2295</ele>
        <time>2023-07-21T05:33:55.000Z</time>
      </trkpt>
      <trkpt lat="42.61178" lon="1.67074">
        <ele>2294.6000976562</ele>
        <time>2023-07-21T05:33:47.000Z</time>
      </trkpt>
      <trkpt lat="42.61181" lon="1.67075">
        <ele>2295</ele>
        <time>2023-07-21T05:33:44.000Z</time>
      </trkpt>
      <trkpt lat="42.61185" lon="1.67073">
        <ele>2295.3999023438</ele>
        <time>2023-07-21T05:33:41.000Z</time>
      </trkpt>
      <trkpt lat="42.61188" lon="1.67069">
        <ele>2295.8000488281</ele>
        <time>2023-07-21T05:33:36.000Z</time>
      </trkpt>
      <trkpt lat="42.61188" lon="1.67069">
        <ele>2296</ele>
        <time>2023-07-21T05:33:34.000Z</time>
      </trkpt>
      <trkpt lat="42.6119" lon="1.67066">
        <ele>2297</ele>
        <time>2023-07-21T05:33:29.000Z</time>
      </trkpt>
      <trkpt lat="42.61191" lon="1.67063">
        <ele>2297.1999511719</ele>
        <time>2023-07-21T05:33:25.000Z</time>
      </trkpt>
      <trkpt lat="42.61192" lon="1.67061">
        <ele>2297.6000976562</ele>
        <time>2023-07-21T05:33:22.000Z</time>
      </trkpt>
      <trkpt lat="42.61192" lon="1.6706">
        <ele>2298.1999511719</ele>
        <time>2023-07-21T05:33:20.000Z</time>
      </trkpt>
      <trkpt lat="42.6119" lon="1.67056">
        <ele>2299.3999023438</ele>
        <time>2023-07-21T05:33:13.000Z</time>
      </trkpt>
      <trkpt lat="42.61189" lon="1.67055">
        <ele>2299.3999023438</ele>
        <time>2023-07-21T05:33:12.000Z</time>
      </trkpt>
      <trkpt lat="42.61187" lon="1.6705">
        <ele>2300.3999023438</ele>
        <time>2023-07-21T05:33:05.000Z</time>
      </trkpt>
      <trkpt lat="42.61187" lon="1.6705">
        <ele>2300.3999023438</ele>
        <time>2023-07-21T05:33:04.000Z</time>
      </trkpt>
      <trkpt lat="42.61186" lon="1.67048">
        <ele>2299.6000976562</ele>
        <time>2023-07-21T05:32:59.000Z</time>
      </trkpt>
      <trkpt lat="42.61188" lon="1.67044">
        <ele>2299</ele>
        <time>2023-07-21T05:32:52.000Z</time>
      </trkpt>
      <trkpt lat="42.6119" lon="1.67034">
        <ele>2299.6000976562</ele>
        <time>2023-07-21T05:32:44.000Z</time>
      </trkpt>
      <trkpt lat="42.61194" lon="1.67029">
        <ele>2300</ele>
        <time>2023-07-21T05:32:36.000Z</time>
      </trkpt>
      <trkpt lat="42.61193" lon="1.67031">
        <ele>2300</ele>
        <time>2023-07-21T05:32:29.000Z</time>
      </trkpt>
      <trkpt lat="42.61195" lon="1.67031">
        <ele>2300.1999511719</ele>
        <time>2023-07-21T05:32:21.000Z</time>
      </trkpt>
      <trkpt lat="42.61197" lon="1.67028">
        <ele>2300</ele>
        <time>2023-07-21T05:32:13.000Z</time>
      </trkpt>
      <trkpt lat="42.61198" lon="1.67027">
        <ele>2299.8000488281</ele>
        <time>2023-07-21T05:32:06.000Z</time>
      </trkpt>
      <trkpt lat="42.61199" lon="1.67025">
        <ele>2299.1999511719</ele>
        <time>2023-07-21T05:32:03.000Z</time>
      </trkpt>
      <trkpt lat="42.61201" lon="1.67021">
        <ele>2298.1999511719</ele>
        <time>2023-07-21T05:31:59.000Z</time>
      </trkpt>
      <trkpt lat="42.61202" lon="1.67019">
        <ele>2297.8000488281</ele>
        <time>2023-07-21T05:31:57.000Z</time>
      </trkpt>
      <trkpt lat="42.61205" lon="1.67016">
        <ele>2297.8000488281</ele>
        <time>2023-07-21T05:31:50.000Z</time>
      </trkpt>
      <trkpt lat="42.61206" lon="1.67019">
        <ele>2297.6000976562</ele>
        <time>2023-07-21T05:31:42.000Z</time>
      </trkpt>
      <trkpt lat="42.61206" lon="1.67019">
        <ele>2297.6000976562</ele>
        <time>2023-07-21T05:31:34.000Z</time>
      </trkpt>
      <trkpt lat="42.61205" lon="1.67017">
        <ele>2297</ele>
        <time>2023-07-21T05:31:28.000Z</time>
      </trkpt>
      <trkpt lat="42.61205" lon="1.67016">
        <ele>2296.6000976562</ele>
        <time>2023-07-21T05:31:25.000Z</time>
      </trkpt>
      <trkpt lat="42.61203" lon="1.67023">
        <ele>2295.8000488281</ele>
        <time>2023-07-21T05:31:17.000Z</time>
      </trkpt>
      <trkpt lat="42.612" lon="1.67035">
        <ele>2295.8000488281</ele>
        <time>2023-07-21T05:31:10.000Z</time>
      </trkpt>
      <trkpt lat="42.61199" lon="1.67036">
        <ele>2295.8000488281</ele>
        <time>2023-07-21T05:31:09.000Z</time>
      </trkpt>
      <trkpt lat="42.61197" lon="1.67042">
        <ele>2296.3999023438</ele>
        <time>2023-07-21T05:31:03.000Z</time>
      </trkpt>
      <trkpt lat="42.61197" lon="1.6705">
        <ele>2297</ele>
        <time>2023-07-21T05:30:55.000Z</time>
      </trkpt>
      <trkpt lat="42.61197" lon="1.67051">
        <ele>2296.8000488281</ele>
        <time>2023-07-21T05:30:54.000Z</time>
      </trkpt>
      <trkpt lat="42.612" lon="1.67058">
        <ele>2295.8000488281</ele>
        <time>2023-07-21T05:30:48.000Z</time>
      </trkpt>
      <trkpt lat="42.612" lon="1.67059">
        <ele>2295.8000488281</ele>
        <time>2023-07-21T05:30:47.000Z</time>
      </trkpt>
      <trkpt lat="42.61203" lon="1.67066">
        <ele>2294.8000488281</ele>
        <time>2023-07-21T05:30:39.000Z</time>
      </trkpt>
      <trkpt lat="42.61203" lon="1.67071">
        <ele>2294.6000976562</ele>
        <time>2023-07-21T05:30:36.000Z</time>
      </trkpt>
      <trkpt lat="42.61201" lon="1.67079">
        <ele>2294.1999511719</ele>
        <time>2023-07-21T05:30:31.000Z</time>
      </trkpt>
      <trkpt lat="42.61201" lon="1.67085">
        <ele>2294</ele>
        <time>2023-07-21T05:30:25.000Z</time>
      </trkpt>
      <trkpt lat="42.61199" lon="1.67084">
        <ele>2293.8000488281</ele>
        <time>2023-07-21T05:30:17.000Z</time>
      </trkpt>
      <trkpt lat="42.61192" lon="1.67082">
        <ele>2293.8000488281</ele>
        <time>2023-07-21T05:30:11.000Z</time>
      </trkpt>
      <trkpt lat="42.6119" lon="1.67079">
        <ele>2294.1999511719</ele>
        <time>2023-07-21T05:30:05.000Z</time>
      </trkpt>
      <trkpt lat="42.61185" lon="1.67079">
        <ele>2294.1999511719</ele>
        <time>2023-07-21T05:29:58.000Z</time>
      </trkpt>
      <trkpt lat="42.61179" lon="1.67078">
        <ele>2294.1999511719</ele>
        <time>2023-07-21T05:29:50.000Z</time>
      </trkpt>
      <trkpt lat="42.61176" lon="1.6708">
        <ele>2293.6000976562</ele>
        <time>2023-07-21T05:29:46.000Z</time>
      </trkpt>
      <trkpt lat="42.61173" lon="1.67082">
        <ele>2292.6000976562</ele>
        <time>2023-07-21T05:29:42.000Z</time>
      </trkpt>
      <trkpt lat="42.61172" lon="1.67082">
        <ele>2292.6000976562</ele>
        <time>2023-07-21T05:29:41.000Z</time>
      </trkpt>
      <trkpt lat="42.61171" lon="1.67085">
        <ele>2291.3999023438</ele>
        <time>2023-07-21T05:29:37.000Z</time>
      </trkpt>
      <trkpt lat="42.6117" lon="1.67086">
        <ele>2291</ele>
        <time>2023-07-21T05:29:35.000Z</time>
      </trkpt>
      <trkpt lat="42.61169" lon="1.67089">
        <ele>2290.3999023438</ele>
        <time>2023-07-21T05:29:32.000Z</time>
      </trkpt>
      <trkpt lat="42.61168" lon="1.67093">
        <ele>2289.1999511719</ele>
        <time>2023-07-21T05:29:26.000Z</time>
      </trkpt>
      <trkpt lat="42.61168" lon="1.67093">
        <ele>2289</ele>
        <time>2023-07-21T05:29:25.000Z</time>
      </trkpt>
      <trkpt lat="42.61166" lon="1.67099">
        <ele>2288.3999023438</ele>
        <time>2023-07-21T05:29:19.000Z</time>
      </trkpt>
      <trkpt lat="42.61165" lon="1.671">
        <ele>2288.1999511719</ele>
        <time>2023-07-21T05:29:18.000Z</time>
      </trkpt>
      <trkpt lat="42.61159" lon="1.67103">
        <ele>2287.6000976562</ele>
        <time>2023-07-21T05:29:13.000Z</time>
      </trkpt>
      <trkpt lat="42.61157" lon="1.67103">
        <ele>2287.1999511719</ele>
        <time>2023-07-21T05:29:10.000Z</time>
      </trkpt>
      <trkpt lat="42.61153" lon="1.67102">
        <ele>2286.6000976562</ele>
        <time>2023-07-21T05:29:06.000Z</time>
      </trkpt>
      <trkpt lat="42.61148" lon="1.671">
        <ele>2286.8000488281</ele>
        <time>2023-07-21T05:28:59.000Z</time>
      </trkpt>
      <trkpt lat="42.61147" lon="1.67104">
        <ele>2286.6000976562</ele>
        <time>2023-07-21T05:28:53.000Z</time>
      </trkpt>
      <trkpt lat="42.61147" lon="1.67103">
        <ele>2286.6000976562</ele>
        <time>2023-07-21T05:28:44.000Z</time>
      </trkpt>
      <trkpt lat="42.61146" lon="1.67104">
        <ele>2286.3999023438</ele>
        <time>2023-07-21T05:28:37.000Z</time>
      </trkpt>
      <trkpt lat="42.61146" lon="1.67104">
        <ele>2286</ele>
        <time>2023-07-21T05:28:34.000Z</time>
      </trkpt>
      <trkpt lat="42.61145" lon="1.67103">
        <ele>2285.6000976562</ele>
        <time>2023-07-21T05:28:28.000Z</time>
      </trkpt>
      <trkpt lat="42.61141" lon="1.67107">
        <ele>2285</ele>
        <time>2023-07-21T05:28:21.000Z</time>
      </trkpt>
      <trkpt lat="42.6114" lon="1.67119">
        <ele>2284.8000488281</ele>
        <time>2023-07-21T05:28:10.000Z</time>
      </trkpt>
      <trkpt lat="42.61142" lon="1.67124">
        <ele>2284.8000488281</ele>
        <time>2023-07-21T05:28:05.000Z</time>
      </trkpt>
      <trkpt lat="42.61141" lon="1.67127">
        <ele>2285.3999023438</ele>
        <time>2023-07-21T05:28:00.000Z</time>
      </trkpt>
      <trkpt lat="42.61142" lon="1.67133">
        <ele>2285.1999511719</ele>
        <time>2023-07-21T05:27:53.000Z</time>
      </trkpt>
      <trkpt lat="42.61147" lon="1.67136">
        <ele>2285.1999511719</ele>
        <time>2023-07-21T05:27:46.000Z</time>
      </trkpt>
      <trkpt lat="42.61151" lon="1.67144">
        <ele>2285.1999511719</ele>
        <time>2023-07-21T05:27:39.000Z</time>
      </trkpt>
      <trkpt lat="42.61151" lon="1.67154">
        <ele>2286</ele>
        <time>2023-07-21T05:27:32.000Z</time>
      </trkpt>
      <trkpt lat="42.61151" lon="1.67157">
        <ele>2286.3999023438</ele>
        <time>2023-07-21T05:27:30.000Z</time>
      </trkpt>
      <trkpt lat="42.6115" lon="1.67162">
        <ele>2287.1999511719</ele>
        <time>2023-07-21T05:27:23.000Z</time>
      </trkpt>
      <trkpt lat="42.61156" lon="1.67163">
        <ele>2287.3999023438</ele>
        <time>2023-07-21T05:27:17.000Z</time>
      </trkpt>
      <trkpt lat="42.61156" lon="1.67169">
        <ele>2286.8000488281</ele>
        <time>2023-07-21T05:27:08.000Z</time>
      </trkpt>
      <trkpt lat="42.61156" lon="1.67174">
        <ele>2287</ele>
        <time>2023-07-21T05:27:02.000Z</time>
      </trkpt>
      <trkpt lat="42.61157" lon="1.67179">
        <ele>2287</ele>
        <time>2023-07-21T05:26:56.000Z</time>
      </trkpt>
      <trkpt lat="42.61163" lon="1.67184">
        <ele>2287.1999511719</ele>
        <time>2023-07-21T05:26:54.000Z</time>
      </trkpt>
      <trkpt lat="42.6116" lon="1.67192">
        <ele>2287.6000976562</ele>
        <time>2023-07-21T05:26:45.000Z</time>
      </trkpt>
      <trkpt lat="42.61159" lon="1.672">
        <ele>2288</ele>
        <time>2023-07-21T05:26:39.000Z</time>
      </trkpt>
      <trkpt lat="42.61159" lon="1.67204">
        <ele>2288.6000976562</ele>
        <time>2023-07-21T05:26:36.000Z</time>
      </trkpt>
      <trkpt lat="42.61162" lon="1.67212">
        <ele>2289.1999511719</ele>
        <time>2023-07-21T05:26:29.000Z</time>
      </trkpt>
      <trkpt lat="42.61163" lon="1.67217">
        <ele>2289.1999511719</ele>
        <time>2023-07-21T05:26:22.000Z</time>
      </trkpt>
    </trkseg>
  </trk>
</gpx>